<?xml version="1.0" encoding="UTF-8" standalone="no" ?>
<gpx xmlns="http://www.topografix.com/GPX/1/1" xmlns:xsi="http://www.w3.org/2001/XMLSchema-instance" xsi:schemaLocation="http://www.topografix.com/GPX/1/1 http://www.topografix.com/GPX/1/1/gpx.xsd" version="1.1" creator="VisuGPX - https://www.visugpx.com">
  <metadata>
    <name>Vers Lozanne </name>
  </metadata>
  <trk>
    <name><![CDATA[Enregistré le 2 oct. 2022 13:53:47]]></name>
    <trkseg>
      <trkpt lat="45.8333" lon="4.70886">
        <ele>306.76417</ele>
        <time>2022-10-02T11:53:44.000Z</time>
      </trkpt>
      <trkpt lat="45.83332" lon="4.70885">
        <ele>306.71131</ele>
        <time>2022-10-02T11:54:24.000Z</time>
      </trkpt>
      <trkpt lat="45.83334" lon="4.70881">
        <ele>306.71138</ele>
        <time>2022-10-02T11:54:25.000Z</time>
      </trkpt>
      <trkpt lat="45.83334" lon="4.70879">
        <ele>306.78446</ele>
        <time>2022-10-02T11:54:26.000Z</time>
      </trkpt>
      <trkpt lat="45.83335" lon="4.70875">
        <ele>306.87762</ele>
        <time>2022-10-02T11:54:27.000Z</time>
      </trkpt>
      <trkpt lat="45.83335" lon="4.70871">
        <ele>306.97853</ele>
        <time>2022-10-02T11:54:28.000Z</time>
      </trkpt>
      <trkpt lat="45.83335" lon="4.70867">
        <ele>307.07742</ele>
        <time>2022-10-02T11:54:29.000Z</time>
      </trkpt>
      <trkpt lat="45.83336" lon="4.70863">
        <ele>307.16133</ele>
        <time>2022-10-02T11:54:30.000Z</time>
      </trkpt>
      <trkpt lat="45.83338" lon="4.70857">
        <ele>307.18103</ele>
        <time>2022-10-02T11:54:31.000Z</time>
      </trkpt>
      <trkpt lat="45.83338" lon="4.70852">
        <ele>307.2835</ele>
        <time>2022-10-02T11:54:32.000Z</time>
      </trkpt>
      <trkpt lat="45.83339" lon="4.70847">
        <ele>307.33235</ele>
        <time>2022-10-02T11:54:33.000Z</time>
      </trkpt>
      <trkpt lat="45.83341" lon="4.70843">
        <ele>307.34071</ele>
        <time>2022-10-02T11:54:34.000Z</time>
      </trkpt>
      <trkpt lat="45.83342" lon="4.70839">
        <ele>307.38221</ele>
        <time>2022-10-02T11:54:35.000Z</time>
      </trkpt>
      <trkpt lat="45.83343" lon="4.70834">
        <ele>307.44351</ele>
        <time>2022-10-02T11:54:36.000Z</time>
      </trkpt>
      <trkpt lat="45.83344" lon="4.70829">
        <ele>307.51239</ele>
        <time>2022-10-02T11:54:37.000Z</time>
      </trkpt>
      <trkpt lat="45.83344" lon="4.70824">
        <ele>307.59457</ele>
        <time>2022-10-02T11:54:38.000Z</time>
      </trkpt>
      <trkpt lat="45.83344" lon="4.70819">
        <ele>307.67512</ele>
        <time>2022-10-02T11:54:39.000Z</time>
      </trkpt>
      <trkpt lat="45.83345" lon="4.70813">
        <ele>307.7519</ele>
        <time>2022-10-02T11:54:40.000Z</time>
      </trkpt>
      <trkpt lat="45.83346" lon="4.70808">
        <ele>307.83208</ele>
        <time>2022-10-02T11:54:41.000Z</time>
      </trkpt>
      <trkpt lat="45.83347" lon="4.70803">
        <ele>307.90513</ele>
        <time>2022-10-02T11:54:42.000Z</time>
      </trkpt>
      <trkpt lat="45.83347" lon="4.70798">
        <ele>307.98256</ele>
        <time>2022-10-02T11:54:43.000Z</time>
      </trkpt>
      <trkpt lat="45.83346" lon="4.70794">
        <ele>308.07043</ele>
        <time>2022-10-02T11:54:44.000Z</time>
      </trkpt>
      <trkpt lat="45.83345" lon="4.70789">
        <ele>308.15826</ele>
        <time>2022-10-02T11:54:45.000Z</time>
      </trkpt>
      <trkpt lat="45.83345" lon="4.70784">
        <ele>308.24056</ele>
        <time>2022-10-02T11:54:46.000Z</time>
      </trkpt>
      <trkpt lat="45.83345" lon="4.70778">
        <ele>308.3202</ele>
        <time>2022-10-02T11:54:47.000Z</time>
      </trkpt>
      <trkpt lat="45.83345" lon="4.70773">
        <ele>308.38614</ele>
        <time>2022-10-02T11:54:48.000Z</time>
      </trkpt>
      <trkpt lat="45.83345" lon="4.70768">
        <ele>308.44518</ele>
        <time>2022-10-02T11:54:49.000Z</time>
      </trkpt>
      <trkpt lat="45.83346" lon="4.70763">
        <ele>308.48817</ele>
        <time>2022-10-02T11:54:50.000Z</time>
      </trkpt>
      <trkpt lat="45.83346" lon="4.70758">
        <ele>308.53362</ele>
        <time>2022-10-02T11:54:51.000Z</time>
      </trkpt>
      <trkpt lat="45.83345" lon="4.70748">
        <ele>308.65318</ele>
        <time>2022-10-02T11:54:52.000Z</time>
      </trkpt>
      <trkpt lat="45.83345" lon="4.70741">
        <ele>308.69701</ele>
        <time>2022-10-02T11:54:53.000Z</time>
      </trkpt>
      <trkpt lat="45.83344" lon="4.70732">
        <ele>308.77075</ele>
        <time>2022-10-02T11:54:54.000Z</time>
      </trkpt>
      <trkpt lat="45.83345" lon="4.70726">
        <ele>308.77438</ele>
        <time>2022-10-02T11:54:55.000Z</time>
      </trkpt>
      <trkpt lat="45.83346" lon="4.70723">
        <ele>308.75522</ele>
        <time>2022-10-02T11:54:56.000Z</time>
      </trkpt>
      <trkpt lat="45.83346" lon="4.70717">
        <ele>308.75272</ele>
        <time>2022-10-02T11:54:57.000Z</time>
      </trkpt>
      <trkpt lat="45.83346" lon="4.70711">
        <ele>308.76815</ele>
        <time>2022-10-02T11:54:58.000Z</time>
      </trkpt>
      <trkpt lat="45.83347" lon="4.70705">
        <ele>308.69936</ele>
        <time>2022-10-02T11:54:59.000Z</time>
      </trkpt>
      <trkpt lat="45.83347" lon="4.70699">
        <ele>308.59238</ele>
        <time>2022-10-02T11:55:00.000Z</time>
      </trkpt>
      <trkpt lat="45.83348" lon="4.70695">
        <ele>308.48988</ele>
        <time>2022-10-02T11:55:01.000Z</time>
      </trkpt>
      <trkpt lat="45.83349" lon="4.70689">
        <ele>308.27287</ele>
        <time>2022-10-02T11:55:02.000Z</time>
      </trkpt>
      <trkpt lat="45.83349" lon="4.70682">
        <ele>308.04789</ele>
        <time>2022-10-02T11:55:03.000Z</time>
      </trkpt>
      <trkpt lat="45.8335" lon="4.70675">
        <ele>307.78447</ele>
        <time>2022-10-02T11:55:04.000Z</time>
      </trkpt>
      <trkpt lat="45.83352" lon="4.70669">
        <ele>307.51984</ele>
        <time>2022-10-02T11:55:05.000Z</time>
      </trkpt>
      <trkpt lat="45.83353" lon="4.70661">
        <ele>307.20439</ele>
        <time>2022-10-02T11:55:06.000Z</time>
      </trkpt>
      <trkpt lat="45.83354" lon="4.70651">
        <ele>306.89774</ele>
        <time>2022-10-02T11:55:07.000Z</time>
      </trkpt>
      <trkpt lat="45.83353" lon="4.70644">
        <ele>306.73654</ele>
        <time>2022-10-02T11:55:08.000Z</time>
      </trkpt>
      <trkpt lat="45.83355" lon="4.70636">
        <ele>306.53638</ele>
        <time>2022-10-02T11:55:09.000Z</time>
      </trkpt>
      <trkpt lat="45.83355" lon="4.70628">
        <ele>306.50172</ele>
        <time>2022-10-02T11:55:10.000Z</time>
      </trkpt>
      <trkpt lat="45.83355" lon="4.70619">
        <ele>306.52227</ele>
        <time>2022-10-02T11:55:11.000Z</time>
      </trkpt>
      <trkpt lat="45.83355" lon="4.70612">
        <ele>306.54721</ele>
        <time>2022-10-02T11:55:12.000Z</time>
      </trkpt>
      <trkpt lat="45.83354" lon="4.70605">
        <ele>306.54558</ele>
        <time>2022-10-02T11:55:13.000Z</time>
      </trkpt>
      <trkpt lat="45.83355" lon="4.70598">
        <ele>306.47142</ele>
        <time>2022-10-02T11:55:14.000Z</time>
      </trkpt>
      <trkpt lat="45.83354" lon="4.70592">
        <ele>306.39788</ele>
        <time>2022-10-02T11:55:15.000Z</time>
      </trkpt>
      <trkpt lat="45.83353" lon="4.70586">
        <ele>306.31961</ele>
        <time>2022-10-02T11:55:16.000Z</time>
      </trkpt>
      <trkpt lat="45.83352" lon="4.7058">
        <ele>306.2458</ele>
        <time>2022-10-02T11:55:17.000Z</time>
      </trkpt>
      <trkpt lat="45.83351" lon="4.70574">
        <ele>306.22437</ele>
        <time>2022-10-02T11:55:18.000Z</time>
      </trkpt>
      <trkpt lat="45.83349" lon="4.70568">
        <ele>306.21195</ele>
        <time>2022-10-02T11:55:19.000Z</time>
      </trkpt>
      <trkpt lat="45.83348" lon="4.70563">
        <ele>306.17641</ele>
        <time>2022-10-02T11:55:20.000Z</time>
      </trkpt>
      <trkpt lat="45.83347" lon="4.70556">
        <ele>306.10778</ele>
        <time>2022-10-02T11:55:21.000Z</time>
      </trkpt>
      <trkpt lat="45.83347" lon="4.70552">
        <ele>306.06855</ele>
        <time>2022-10-02T11:55:22.000Z</time>
      </trkpt>
      <trkpt lat="45.83347" lon="4.7055">
        <ele>306.02363</ele>
        <time>2022-10-02T11:55:26.000Z</time>
      </trkpt>
      <trkpt lat="45.83345" lon="4.70544">
        <ele>306.05524</ele>
        <time>2022-10-02T11:55:45.000Z</time>
      </trkpt>
      <trkpt lat="45.83345" lon="4.70539">
        <ele>306.01885</ele>
        <time>2022-10-02T11:55:46.000Z</time>
      </trkpt>
      <trkpt lat="45.83346" lon="4.70533">
        <ele>305.96546</ele>
        <time>2022-10-02T11:55:47.000Z</time>
      </trkpt>
      <trkpt lat="45.83345" lon="4.70527">
        <ele>305.96965</ele>
        <time>2022-10-02T11:55:48.000Z</time>
      </trkpt>
      <trkpt lat="45.83344" lon="4.70516">
        <ele>306.07726</ele>
        <time>2022-10-02T11:55:50.000Z</time>
      </trkpt>
      <trkpt lat="45.83342" lon="4.70504">
        <ele>306.1309</ele>
        <time>2022-10-02T11:55:52.000Z</time>
      </trkpt>
      <trkpt lat="45.83341" lon="4.70498">
        <ele>306.14412</ele>
        <time>2022-10-02T11:55:53.000Z</time>
      </trkpt>
      <trkpt lat="45.83339" lon="4.70492">
        <ele>306.1664</ele>
        <time>2022-10-02T11:55:54.000Z</time>
      </trkpt>
      <trkpt lat="45.83337" lon="4.7048">
        <ele>306.1964</ele>
        <time>2022-10-02T11:55:56.000Z</time>
      </trkpt>
      <trkpt lat="45.83336" lon="4.70473">
        <ele>306.17656</ele>
        <time>2022-10-02T11:55:57.000Z</time>
      </trkpt>
      <trkpt lat="45.83335" lon="4.70465">
        <ele>306.11505</ele>
        <time>2022-10-02T11:55:58.000Z</time>
      </trkpt>
      <trkpt lat="45.83333" lon="4.70458">
        <ele>306.23009</ele>
        <time>2022-10-02T11:55:59.000Z</time>
      </trkpt>
      <trkpt lat="45.83334" lon="4.70451">
        <ele>306.09582</ele>
        <time>2022-10-02T11:56:00.000Z</time>
      </trkpt>
      <trkpt lat="45.83334" lon="4.70444">
        <ele>306.00317</ele>
        <time>2022-10-02T11:56:01.000Z</time>
      </trkpt>
      <trkpt lat="45.83333" lon="4.70438">
        <ele>305.93072</ele>
        <time>2022-10-02T11:56:02.000Z</time>
      </trkpt>
      <trkpt lat="45.83332" lon="4.70432">
        <ele>305.93442</ele>
        <time>2022-10-02T11:56:03.000Z</time>
      </trkpt>
      <trkpt lat="45.83333" lon="4.70425">
        <ele>305.72127</ele>
        <time>2022-10-02T11:56:04.000Z</time>
      </trkpt>
      <trkpt lat="45.83332" lon="4.70419">
        <ele>305.67264</ele>
        <time>2022-10-02T11:56:05.000Z</time>
      </trkpt>
      <trkpt lat="45.83331" lon="4.70413">
        <ele>305.59439</ele>
        <time>2022-10-02T11:56:06.000Z</time>
      </trkpt>
      <trkpt lat="45.83329" lon="4.70405">
        <ele>305.58644</ele>
        <time>2022-10-02T11:56:07.000Z</time>
      </trkpt>
      <trkpt lat="45.83328" lon="4.70399">
        <ele>305.54113</ele>
        <time>2022-10-02T11:56:08.000Z</time>
      </trkpt>
      <trkpt lat="45.83327" lon="4.70391">
        <ele>305.44058</ele>
        <time>2022-10-02T11:56:09.000Z</time>
      </trkpt>
      <trkpt lat="45.83326" lon="4.70385">
        <ele>305.37212</ele>
        <time>2022-10-02T11:56:10.000Z</time>
      </trkpt>
      <trkpt lat="45.83324" lon="4.70379">
        <ele>305.3136</ele>
        <time>2022-10-02T11:56:11.000Z</time>
      </trkpt>
      <trkpt lat="45.83323" lon="4.70373">
        <ele>305.20874</ele>
        <time>2022-10-02T11:56:12.000Z</time>
      </trkpt>
      <trkpt lat="45.83323" lon="4.70366">
        <ele>305.06494</ele>
        <time>2022-10-02T11:56:13.000Z</time>
      </trkpt>
      <trkpt lat="45.83322" lon="4.70359">
        <ele>304.96892</ele>
        <time>2022-10-02T11:56:14.000Z</time>
      </trkpt>
      <trkpt lat="45.83321" lon="4.70352">
        <ele>304.89939</ele>
        <time>2022-10-02T11:56:15.000Z</time>
      </trkpt>
      <trkpt lat="45.83321" lon="4.70345">
        <ele>304.8054</ele>
        <time>2022-10-02T11:56:16.000Z</time>
      </trkpt>
      <trkpt lat="45.83321" lon="4.7034">
        <ele>304.73287</ele>
        <time>2022-10-02T11:56:17.000Z</time>
      </trkpt>
      <trkpt lat="45.83319" lon="4.70336">
        <ele>304.72263</ele>
        <time>2022-10-02T11:56:18.000Z</time>
      </trkpt>
      <trkpt lat="45.8332" lon="4.70331">
        <ele>304.61187</ele>
        <time>2022-10-02T11:56:19.000Z</time>
      </trkpt>
      <trkpt lat="45.83321" lon="4.70324">
        <ele>304.51914</ele>
        <time>2022-10-02T11:56:20.000Z</time>
      </trkpt>
      <trkpt lat="45.83322" lon="4.70319">
        <ele>304.46498</ele>
        <time>2022-10-02T11:56:21.000Z</time>
      </trkpt>
      <trkpt lat="45.83325" lon="4.70314">
        <ele>304.43644</ele>
        <time>2022-10-02T11:56:22.000Z</time>
      </trkpt>
      <trkpt lat="45.83328" lon="4.70307">
        <ele>304.48794</ele>
        <time>2022-10-02T11:56:23.000Z</time>
      </trkpt>
      <trkpt lat="45.83331" lon="4.70301">
        <ele>304.54678</ele>
        <time>2022-10-02T11:56:24.000Z</time>
      </trkpt>
      <trkpt lat="45.83334" lon="4.70294">
        <ele>304.57012</ele>
        <time>2022-10-02T11:56:25.000Z</time>
      </trkpt>
      <trkpt lat="45.83336" lon="4.70287">
        <ele>304.527</ele>
        <time>2022-10-02T11:56:26.000Z</time>
      </trkpt>
      <trkpt lat="45.83338" lon="4.70281">
        <ele>304.46707</ele>
        <time>2022-10-02T11:56:27.000Z</time>
      </trkpt>
      <trkpt lat="45.83341" lon="4.70275">
        <ele>304.33857</ele>
        <time>2022-10-02T11:56:28.000Z</time>
      </trkpt>
      <trkpt lat="45.83343" lon="4.70268">
        <ele>304.20386</ele>
        <time>2022-10-02T11:56:29.000Z</time>
      </trkpt>
      <trkpt lat="45.83346" lon="4.70261">
        <ele>304.09128</ele>
        <time>2022-10-02T11:56:30.000Z</time>
      </trkpt>
      <trkpt lat="45.83348" lon="4.70254">
        <ele>304.04993</ele>
        <time>2022-10-02T11:56:31.000Z</time>
      </trkpt>
      <trkpt lat="45.8335" lon="4.70247">
        <ele>304.06429</ele>
        <time>2022-10-02T11:56:32.000Z</time>
      </trkpt>
      <trkpt lat="45.83353" lon="4.7024">
        <ele>304.13121</ele>
        <time>2022-10-02T11:56:33.000Z</time>
      </trkpt>
      <trkpt lat="45.83355" lon="4.70232">
        <ele>304.16432</ele>
        <time>2022-10-02T11:56:34.000Z</time>
      </trkpt>
      <trkpt lat="45.83357" lon="4.70225">
        <ele>304.17316</ele>
        <time>2022-10-02T11:56:35.000Z</time>
      </trkpt>
      <trkpt lat="45.83358" lon="4.70217">
        <ele>304.13904</ele>
        <time>2022-10-02T11:56:36.000Z</time>
      </trkpt>
      <trkpt lat="45.83361" lon="4.70209">
        <ele>304.00803</ele>
        <time>2022-10-02T11:56:37.000Z</time>
      </trkpt>
      <trkpt lat="45.83363" lon="4.70203">
        <ele>303.80185</ele>
        <time>2022-10-02T11:56:38.000Z</time>
      </trkpt>
      <trkpt lat="45.83363" lon="4.70194">
        <ele>303.84098</ele>
        <time>2022-10-02T11:56:39.000Z</time>
      </trkpt>
      <trkpt lat="45.83366" lon="4.70188">
        <ele>303.74785</ele>
        <time>2022-10-02T11:56:40.000Z</time>
      </trkpt>
      <trkpt lat="45.83369" lon="4.70181">
        <ele>303.7422</ele>
        <time>2022-10-02T11:56:41.000Z</time>
      </trkpt>
      <trkpt lat="45.83371" lon="4.70174">
        <ele>303.93163</ele>
        <time>2022-10-02T11:56:42.000Z</time>
      </trkpt>
      <trkpt lat="45.83373" lon="4.70167">
        <ele>304.16116</ele>
        <time>2022-10-02T11:56:43.000Z</time>
      </trkpt>
      <trkpt lat="45.83375" lon="4.70161">
        <ele>304.35906</ele>
        <time>2022-10-02T11:56:44.000Z</time>
      </trkpt>
      <trkpt lat="45.8338" lon="4.7015">
        <ele>304.34967</ele>
        <time>2022-10-02T11:56:46.000Z</time>
      </trkpt>
      <trkpt lat="45.83383" lon="4.70142">
        <ele>304.0768</ele>
        <time>2022-10-02T11:56:47.000Z</time>
      </trkpt>
      <trkpt lat="45.83383" lon="4.70135">
        <ele>303.76606</ele>
        <time>2022-10-02T11:56:48.000Z</time>
      </trkpt>
      <trkpt lat="45.83386" lon="4.70128">
        <ele>303.35804</ele>
        <time>2022-10-02T11:56:49.000Z</time>
      </trkpt>
      <trkpt lat="45.83388" lon="4.70121">
        <ele>303.08194</ele>
        <time>2022-10-02T11:56:50.000Z</time>
      </trkpt>
      <trkpt lat="45.8339" lon="4.70114">
        <ele>302.95387</ele>
        <time>2022-10-02T11:56:51.000Z</time>
      </trkpt>
      <trkpt lat="45.83391" lon="4.70107">
        <ele>302.90821</ele>
        <time>2022-10-02T11:56:52.000Z</time>
      </trkpt>
      <trkpt lat="45.83393" lon="4.701">
        <ele>302.85953</ele>
        <time>2022-10-02T11:56:53.000Z</time>
      </trkpt>
      <trkpt lat="45.83394" lon="4.70092">
        <ele>302.77489</ele>
        <time>2022-10-02T11:56:54.000Z</time>
      </trkpt>
      <trkpt lat="45.83394" lon="4.70083">
        <ele>302.52283</ele>
        <time>2022-10-02T11:56:55.000Z</time>
      </trkpt>
      <trkpt lat="45.83395" lon="4.70075">
        <ele>302.04695</ele>
        <time>2022-10-02T11:56:56.000Z</time>
      </trkpt>
      <trkpt lat="45.83395" lon="4.70066">
        <ele>301.56386</ele>
        <time>2022-10-02T11:56:57.000Z</time>
      </trkpt>
      <trkpt lat="45.83396" lon="4.70057">
        <ele>301.20001</ele>
        <time>2022-10-02T11:56:58.000Z</time>
      </trkpt>
      <trkpt lat="45.83397" lon="4.70048">
        <ele>300.98458</ele>
        <time>2022-10-02T11:56:59.000Z</time>
      </trkpt>
      <trkpt lat="45.83397" lon="4.7004">
        <ele>300.82826</ele>
        <time>2022-10-02T11:57:00.000Z</time>
      </trkpt>
      <trkpt lat="45.83398" lon="4.70031">
        <ele>300.68229</ele>
        <time>2022-10-02T11:57:01.000Z</time>
      </trkpt>
      <trkpt lat="45.83398" lon="4.70023">
        <ele>300.46283</ele>
        <time>2022-10-02T11:57:02.000Z</time>
      </trkpt>
      <trkpt lat="45.83399" lon="4.70015">
        <ele>300.25438</ele>
        <time>2022-10-02T11:57:03.000Z</time>
      </trkpt>
      <trkpt lat="45.83398" lon="4.70007">
        <ele>300.14032</ele>
        <time>2022-10-02T11:57:04.000Z</time>
      </trkpt>
      <trkpt lat="45.834" lon="4.69997">
        <ele>299.62988</ele>
        <time>2022-10-02T11:57:05.000Z</time>
      </trkpt>
      <trkpt lat="45.83398" lon="4.69987">
        <ele>299.47262</ele>
        <time>2022-10-02T11:57:06.000Z</time>
      </trkpt>
      <trkpt lat="45.83401" lon="4.69979">
        <ele>298.80363</ele>
        <time>2022-10-02T11:57:07.000Z</time>
      </trkpt>
      <trkpt lat="45.83402" lon="4.6997">
        <ele>298.36027</ele>
        <time>2022-10-02T11:57:08.000Z</time>
      </trkpt>
      <trkpt lat="45.83402" lon="4.6996">
        <ele>298.01251</ele>
        <time>2022-10-02T11:57:09.000Z</time>
      </trkpt>
      <trkpt lat="45.83403" lon="4.69951">
        <ele>297.80782</ele>
        <time>2022-10-02T11:57:10.000Z</time>
      </trkpt>
      <trkpt lat="45.83405" lon="4.69943">
        <ele>297.61215</ele>
        <time>2022-10-02T11:57:11.000Z</time>
      </trkpt>
      <trkpt lat="45.83407" lon="4.69935">
        <ele>297.4557</ele>
        <time>2022-10-02T11:57:12.000Z</time>
      </trkpt>
      <trkpt lat="45.83406" lon="4.69927">
        <ele>297.48886</ele>
        <time>2022-10-02T11:57:13.000Z</time>
      </trkpt>
      <trkpt lat="45.83402" lon="4.6992">
        <ele>297.67729</ele>
        <time>2022-10-02T11:57:14.000Z</time>
      </trkpt>
      <trkpt lat="45.83399" lon="4.69913">
        <ele>297.75477</ele>
        <time>2022-10-02T11:57:15.000Z</time>
      </trkpt>
      <trkpt lat="45.83396" lon="4.69908">
        <ele>297.77284</ele>
        <time>2022-10-02T11:57:16.000Z</time>
      </trkpt>
      <trkpt lat="45.83392" lon="4.69902">
        <ele>297.8114</ele>
        <time>2022-10-02T11:57:17.000Z</time>
      </trkpt>
      <trkpt lat="45.8339" lon="4.69895">
        <ele>297.81858</ele>
        <time>2022-10-02T11:57:18.000Z</time>
      </trkpt>
      <trkpt lat="45.83389" lon="4.69889">
        <ele>297.90655</ele>
        <time>2022-10-02T11:57:19.000Z</time>
      </trkpt>
      <trkpt lat="45.83389" lon="4.69883">
        <ele>297.87899</ele>
        <time>2022-10-02T11:57:20.000Z</time>
      </trkpt>
      <trkpt lat="45.83391" lon="4.69877">
        <ele>297.81242</ele>
        <time>2022-10-02T11:57:21.000Z</time>
      </trkpt>
      <trkpt lat="45.83393" lon="4.69874">
        <ele>297.69399</ele>
        <time>2022-10-02T11:57:22.000Z</time>
      </trkpt>
      <trkpt lat="45.83395" lon="4.6987">
        <ele>297.60507</ele>
        <time>2022-10-02T11:57:23.000Z</time>
      </trkpt>
      <trkpt lat="45.83396" lon="4.69867">
        <ele>297.53416</ele>
        <time>2022-10-02T11:57:24.000Z</time>
      </trkpt>
      <trkpt lat="45.83396" lon="4.69863">
        <ele>297.48312</ele>
        <time>2022-10-02T11:57:25.000Z</time>
      </trkpt>
      <trkpt lat="45.83397" lon="4.69858">
        <ele>297.30694</ele>
        <time>2022-10-02T11:57:26.000Z</time>
      </trkpt>
      <trkpt lat="45.83396" lon="4.69853">
        <ele>297.21095</ele>
        <time>2022-10-02T11:57:27.000Z</time>
      </trkpt>
      <trkpt lat="45.83393" lon="4.69846">
        <ele>297.14461</ele>
        <time>2022-10-02T11:57:28.000Z</time>
      </trkpt>
      <trkpt lat="45.83391" lon="4.69842">
        <ele>297.07805</ele>
        <time>2022-10-02T11:57:29.000Z</time>
      </trkpt>
      <trkpt lat="45.8339" lon="4.69835">
        <ele>296.93924</ele>
        <time>2022-10-02T11:57:30.000Z</time>
      </trkpt>
      <trkpt lat="45.83388" lon="4.69827">
        <ele>296.83603</ele>
        <time>2022-10-02T11:57:31.000Z</time>
      </trkpt>
      <trkpt lat="45.83387" lon="4.69819">
        <ele>296.76666</ele>
        <time>2022-10-02T11:57:32.000Z</time>
      </trkpt>
      <trkpt lat="45.83386" lon="4.69813">
        <ele>296.7166</ele>
        <time>2022-10-02T11:57:33.000Z</time>
      </trkpt>
      <trkpt lat="45.83385" lon="4.69806">
        <ele>296.7145</ele>
        <time>2022-10-02T11:57:34.000Z</time>
      </trkpt>
      <trkpt lat="45.83384" lon="4.698">
        <ele>296.72062</ele>
        <time>2022-10-02T11:57:35.000Z</time>
      </trkpt>
      <trkpt lat="45.83383" lon="4.69794">
        <ele>296.6654</ele>
        <time>2022-10-02T11:57:36.000Z</time>
      </trkpt>
      <trkpt lat="45.83381" lon="4.69786">
        <ele>296.5733</ele>
        <time>2022-10-02T11:57:37.000Z</time>
      </trkpt>
      <trkpt lat="45.83381" lon="4.6978">
        <ele>296.4207</ele>
        <time>2022-10-02T11:57:38.000Z</time>
      </trkpt>
      <trkpt lat="45.83379" lon="4.69772">
        <ele>296.32832</ele>
        <time>2022-10-02T11:57:39.000Z</time>
      </trkpt>
      <trkpt lat="45.83378" lon="4.69765">
        <ele>296.23632</ele>
        <time>2022-10-02T11:57:40.000Z</time>
      </trkpt>
      <trkpt lat="45.83377" lon="4.69758">
        <ele>296.1776</ele>
        <time>2022-10-02T11:57:41.000Z</time>
      </trkpt>
      <trkpt lat="45.83375" lon="4.69751">
        <ele>296.11947</ele>
        <time>2022-10-02T11:57:42.000Z</time>
      </trkpt>
      <trkpt lat="45.83373" lon="4.69744">
        <ele>296.13617</ele>
        <time>2022-10-02T11:57:43.000Z</time>
      </trkpt>
      <trkpt lat="45.83371" lon="4.69735">
        <ele>296.05023</ele>
        <time>2022-10-02T11:57:44.000Z</time>
      </trkpt>
      <trkpt lat="45.83369" lon="4.69727">
        <ele>296.05673</ele>
        <time>2022-10-02T11:57:45.000Z</time>
      </trkpt>
      <trkpt lat="45.83367" lon="4.6972">
        <ele>296.05015</ele>
        <time>2022-10-02T11:57:46.000Z</time>
      </trkpt>
      <trkpt lat="45.83366" lon="4.69713">
        <ele>296.02389</ele>
        <time>2022-10-02T11:57:47.000Z</time>
      </trkpt>
      <trkpt lat="45.83364" lon="4.69705">
        <ele>296.02254</ele>
        <time>2022-10-02T11:57:48.000Z</time>
      </trkpt>
      <trkpt lat="45.83363" lon="4.69698">
        <ele>295.98379</ele>
        <time>2022-10-02T11:57:49.000Z</time>
      </trkpt>
      <trkpt lat="45.83362" lon="4.69691">
        <ele>295.93337</ele>
        <time>2022-10-02T11:57:50.000Z</time>
      </trkpt>
      <trkpt lat="45.83361" lon="4.69683">
        <ele>295.89676</ele>
        <time>2022-10-02T11:57:51.000Z</time>
      </trkpt>
      <trkpt lat="45.8336" lon="4.69675">
        <ele>295.85403</ele>
        <time>2022-10-02T11:57:52.000Z</time>
      </trkpt>
      <trkpt lat="45.83359" lon="4.69668">
        <ele>295.86677</ele>
        <time>2022-10-02T11:57:53.000Z</time>
      </trkpt>
      <trkpt lat="45.83357" lon="4.69661">
        <ele>295.92141</ele>
        <time>2022-10-02T11:57:54.000Z</time>
      </trkpt>
      <trkpt lat="45.83356" lon="4.69654">
        <ele>295.90124</ele>
        <time>2022-10-02T11:57:55.000Z</time>
      </trkpt>
      <trkpt lat="45.83354" lon="4.69646">
        <ele>295.83541</ele>
        <time>2022-10-02T11:57:56.000Z</time>
      </trkpt>
      <trkpt lat="45.83354" lon="4.69638">
        <ele>295.66062</ele>
        <time>2022-10-02T11:57:57.000Z</time>
      </trkpt>
      <trkpt lat="45.83353" lon="4.69631">
        <ele>295.60206</ele>
        <time>2022-10-02T11:57:58.000Z</time>
      </trkpt>
      <trkpt lat="45.83352" lon="4.69623">
        <ele>295.51314</ele>
        <time>2022-10-02T11:57:59.000Z</time>
      </trkpt>
      <trkpt lat="45.83351" lon="4.69616">
        <ele>295.51756</ele>
        <time>2022-10-02T11:58:00.000Z</time>
      </trkpt>
      <trkpt lat="45.83349" lon="4.69608">
        <ele>295.51824</ele>
        <time>2022-10-02T11:58:01.000Z</time>
      </trkpt>
      <trkpt lat="45.83349" lon="4.69602">
        <ele>295.51322</ele>
        <time>2022-10-02T11:58:02.000Z</time>
      </trkpt>
      <trkpt lat="45.83348" lon="4.69595">
        <ele>295.57125</ele>
        <time>2022-10-02T11:58:03.000Z</time>
      </trkpt>
      <trkpt lat="45.83347" lon="4.6959">
        <ele>295.69137</ele>
        <time>2022-10-02T11:58:04.000Z</time>
      </trkpt>
      <trkpt lat="45.83346" lon="4.69584">
        <ele>295.78601</ele>
        <time>2022-10-02T11:58:05.000Z</time>
      </trkpt>
      <trkpt lat="45.83346" lon="4.69578">
        <ele>295.81859</ele>
        <time>2022-10-02T11:58:06.000Z</time>
      </trkpt>
      <trkpt lat="45.83344" lon="4.69573">
        <ele>296.00186</ele>
        <time>2022-10-02T11:58:07.000Z</time>
      </trkpt>
      <trkpt lat="45.83343" lon="4.69566">
        <ele>296.0752</ele>
        <time>2022-10-02T11:58:08.000Z</time>
      </trkpt>
      <trkpt lat="45.83342" lon="4.6956">
        <ele>296.20048</ele>
        <time>2022-10-02T11:58:09.000Z</time>
      </trkpt>
      <trkpt lat="45.83341" lon="4.69553">
        <ele>296.26578</ele>
        <time>2022-10-02T11:58:10.000Z</time>
      </trkpt>
      <trkpt lat="45.83341" lon="4.69546">
        <ele>296.3256</ele>
        <time>2022-10-02T11:58:11.000Z</time>
      </trkpt>
      <trkpt lat="45.83341" lon="4.69538">
        <ele>296.35515</ele>
        <time>2022-10-02T11:58:12.000Z</time>
      </trkpt>
      <trkpt lat="45.83341" lon="4.69531">
        <ele>296.30559</ele>
        <time>2022-10-02T11:58:13.000Z</time>
      </trkpt>
      <trkpt lat="45.8334" lon="4.69525">
        <ele>296.39648</ele>
        <time>2022-10-02T11:58:14.000Z</time>
      </trkpt>
      <trkpt lat="45.83339" lon="4.69519">
        <ele>296.51965</ele>
        <time>2022-10-02T11:58:15.000Z</time>
      </trkpt>
      <trkpt lat="45.83339" lon="4.69512">
        <ele>296.54362</ele>
        <time>2022-10-02T11:58:16.000Z</time>
      </trkpt>
      <trkpt lat="45.83338" lon="4.69506">
        <ele>296.59811</ele>
        <time>2022-10-02T11:58:17.000Z</time>
      </trkpt>
      <trkpt lat="45.83338" lon="4.695">
        <ele>296.58251</ele>
        <time>2022-10-02T11:58:18.000Z</time>
      </trkpt>
      <trkpt lat="45.83338" lon="4.69494">
        <ele>296.58356</ele>
        <time>2022-10-02T11:58:19.000Z</time>
      </trkpt>
      <trkpt lat="45.83339" lon="4.69487">
        <ele>296.52935</ele>
        <time>2022-10-02T11:58:20.000Z</time>
      </trkpt>
      <trkpt lat="45.83338" lon="4.6948">
        <ele>296.62054</ele>
        <time>2022-10-02T11:58:21.000Z</time>
      </trkpt>
      <trkpt lat="45.83339" lon="4.69476">
        <ele>296.5988</ele>
        <time>2022-10-02T11:58:22.000Z</time>
      </trkpt>
      <trkpt lat="45.83338" lon="4.69469">
        <ele>296.71926</ele>
        <time>2022-10-02T11:58:23.000Z</time>
      </trkpt>
      <trkpt lat="45.83339" lon="4.69464">
        <ele>296.72691</ele>
        <time>2022-10-02T11:58:24.000Z</time>
      </trkpt>
      <trkpt lat="45.83339" lon="4.69459">
        <ele>296.79131</ele>
        <time>2022-10-02T11:58:25.000Z</time>
      </trkpt>
      <trkpt lat="45.8334" lon="4.69453">
        <ele>296.84473</ele>
        <time>2022-10-02T11:58:26.000Z</time>
      </trkpt>
      <trkpt lat="45.83341" lon="4.69448">
        <ele>296.89367</ele>
        <time>2022-10-02T11:58:27.000Z</time>
      </trkpt>
      <trkpt lat="45.83342" lon="4.69442">
        <ele>296.93951</ele>
        <time>2022-10-02T11:58:28.000Z</time>
      </trkpt>
      <trkpt lat="45.83342" lon="4.69436">
        <ele>296.99946</ele>
        <time>2022-10-02T11:58:29.000Z</time>
      </trkpt>
      <trkpt lat="45.83343" lon="4.6943">
        <ele>297.07817</ele>
        <time>2022-10-02T11:58:30.000Z</time>
      </trkpt>
      <trkpt lat="45.83344" lon="4.69424">
        <ele>297.13792</ele>
        <time>2022-10-02T11:58:31.000Z</time>
      </trkpt>
      <trkpt lat="45.83344" lon="4.69419">
        <ele>297.20103</ele>
        <time>2022-10-02T11:58:32.000Z</time>
      </trkpt>
      <trkpt lat="45.83345" lon="4.69414">
        <ele>297.24092</ele>
        <time>2022-10-02T11:58:33.000Z</time>
      </trkpt>
      <trkpt lat="45.83346" lon="4.69408">
        <ele>297.22983</ele>
        <time>2022-10-02T11:58:34.000Z</time>
      </trkpt>
      <trkpt lat="45.83347" lon="4.69403">
        <ele>297.16219</ele>
        <time>2022-10-02T11:58:35.000Z</time>
      </trkpt>
      <trkpt lat="45.83348" lon="4.69397">
        <ele>297.09272</ele>
        <time>2022-10-02T11:58:36.000Z</time>
      </trkpt>
      <trkpt lat="45.83349" lon="4.69392">
        <ele>297.02026</ele>
        <time>2022-10-02T11:58:37.000Z</time>
      </trkpt>
      <trkpt lat="45.8335" lon="4.69387">
        <ele>296.98732</ele>
        <time>2022-10-02T11:58:38.000Z</time>
      </trkpt>
      <trkpt lat="45.83351" lon="4.69382">
        <ele>296.991</ele>
        <time>2022-10-02T11:58:39.000Z</time>
      </trkpt>
      <trkpt lat="45.83351" lon="4.69377">
        <ele>297.03622</ele>
        <time>2022-10-02T11:58:40.000Z</time>
      </trkpt>
      <trkpt lat="45.83352" lon="4.69372">
        <ele>297.07893</ele>
        <time>2022-10-02T11:58:41.000Z</time>
      </trkpt>
      <trkpt lat="45.83352" lon="4.69368">
        <ele>297.1416</ele>
        <time>2022-10-02T11:58:42.000Z</time>
      </trkpt>
      <trkpt lat="45.83352" lon="4.69363">
        <ele>297.21761</ele>
        <time>2022-10-02T11:58:43.000Z</time>
      </trkpt>
      <trkpt lat="45.83353" lon="4.69358">
        <ele>297.29871</ele>
        <time>2022-10-02T11:58:44.000Z</time>
      </trkpt>
      <trkpt lat="45.83353" lon="4.69353">
        <ele>297.43941</ele>
        <time>2022-10-02T11:58:45.000Z</time>
      </trkpt>
      <trkpt lat="45.83352" lon="4.69348">
        <ele>297.60138</ele>
        <time>2022-10-02T11:58:46.000Z</time>
      </trkpt>
      <trkpt lat="45.83352" lon="4.69342">
        <ele>297.79407</ele>
        <time>2022-10-02T11:58:47.000Z</time>
      </trkpt>
      <trkpt lat="45.83352" lon="4.69337">
        <ele>297.98531</ele>
        <time>2022-10-02T11:58:48.000Z</time>
      </trkpt>
      <trkpt lat="45.83352" lon="4.69332">
        <ele>298.1784</ele>
        <time>2022-10-02T11:58:49.000Z</time>
      </trkpt>
      <trkpt lat="45.83351" lon="4.69327">
        <ele>298.35364</ele>
        <time>2022-10-02T11:58:50.000Z</time>
      </trkpt>
      <trkpt lat="45.83351" lon="4.69323">
        <ele>298.48344</ele>
        <time>2022-10-02T11:58:51.000Z</time>
      </trkpt>
      <trkpt lat="45.83352" lon="4.69318">
        <ele>298.58731</ele>
        <time>2022-10-02T11:58:52.000Z</time>
      </trkpt>
      <trkpt lat="45.83352" lon="4.69313">
        <ele>298.67703</ele>
        <time>2022-10-02T11:58:53.000Z</time>
      </trkpt>
      <trkpt lat="45.83351" lon="4.69309">
        <ele>298.76821</ele>
        <time>2022-10-02T11:58:54.000Z</time>
      </trkpt>
      <trkpt lat="45.83351" lon="4.69305">
        <ele>298.86905</ele>
        <time>2022-10-02T11:58:55.000Z</time>
      </trkpt>
      <trkpt lat="45.8335" lon="4.69302">
        <ele>298.94852</ele>
        <time>2022-10-02T11:58:56.000Z</time>
      </trkpt>
      <trkpt lat="45.8335" lon="4.693">
        <ele>298.98309</ele>
        <time>2022-10-02T11:58:57.000Z</time>
      </trkpt>
      <trkpt lat="45.8335" lon="4.69297">
        <ele>298.99149</ele>
        <time>2022-10-02T11:58:58.000Z</time>
      </trkpt>
      <trkpt lat="45.83351" lon="4.69294">
        <ele>298.96909</ele>
        <time>2022-10-02T11:58:59.000Z</time>
      </trkpt>
      <trkpt lat="45.83353" lon="4.69294">
        <ele>298.85553</ele>
        <time>2022-10-02T11:59:01.000Z</time>
      </trkpt>
      <trkpt lat="45.83354" lon="4.6929">
        <ele>298.82911</ele>
        <time>2022-10-02T11:59:12.000Z</time>
      </trkpt>
      <trkpt lat="45.83354" lon="4.69285">
        <ele>298.82905</ele>
        <time>2022-10-02T11:59:14.000Z</time>
      </trkpt>
      <trkpt lat="45.83355" lon="4.69281">
        <ele>298.82515</ele>
        <time>2022-10-02T11:59:15.000Z</time>
      </trkpt>
      <trkpt lat="45.83355" lon="4.69276">
        <ele>298.79905</ele>
        <time>2022-10-02T11:59:16.000Z</time>
      </trkpt>
      <trkpt lat="45.83356" lon="4.69271">
        <ele>298.76156</ele>
        <time>2022-10-02T11:59:17.000Z</time>
      </trkpt>
      <trkpt lat="45.83357" lon="4.69266">
        <ele>298.6891</ele>
        <time>2022-10-02T11:59:18.000Z</time>
      </trkpt>
      <trkpt lat="45.83358" lon="4.69261">
        <ele>298.60494</ele>
        <time>2022-10-02T11:59:19.000Z</time>
      </trkpt>
      <trkpt lat="45.83359" lon="4.69256">
        <ele>298.54004</ele>
        <time>2022-10-02T11:59:20.000Z</time>
      </trkpt>
      <trkpt lat="45.83359" lon="4.6925">
        <ele>298.49828</ele>
        <time>2022-10-02T11:59:21.000Z</time>
      </trkpt>
      <trkpt lat="45.8336" lon="4.69245">
        <ele>298.46793</ele>
        <time>2022-10-02T11:59:22.000Z</time>
      </trkpt>
      <trkpt lat="45.8336" lon="4.69239">
        <ele>298.43432</ele>
        <time>2022-10-02T11:59:23.000Z</time>
      </trkpt>
      <trkpt lat="45.83361" lon="4.69234">
        <ele>298.39596</ele>
        <time>2022-10-02T11:59:24.000Z</time>
      </trkpt>
      <trkpt lat="45.83361" lon="4.69228">
        <ele>298.34479</ele>
        <time>2022-10-02T11:59:25.000Z</time>
      </trkpt>
      <trkpt lat="45.83362" lon="4.69222">
        <ele>298.26367</ele>
        <time>2022-10-02T11:59:26.000Z</time>
      </trkpt>
      <trkpt lat="45.83362" lon="4.69216">
        <ele>298.15212</ele>
        <time>2022-10-02T11:59:27.000Z</time>
      </trkpt>
      <trkpt lat="45.83363" lon="4.6921">
        <ele>297.99751</ele>
        <time>2022-10-02T11:59:28.000Z</time>
      </trkpt>
      <trkpt lat="45.83363" lon="4.69203">
        <ele>297.83677</ele>
        <time>2022-10-02T11:59:29.000Z</time>
      </trkpt>
      <trkpt lat="45.83363" lon="4.69197">
        <ele>297.64337</ele>
        <time>2022-10-02T11:59:30.000Z</time>
      </trkpt>
      <trkpt lat="45.83364" lon="4.69191">
        <ele>297.44216</ele>
        <time>2022-10-02T11:59:31.000Z</time>
      </trkpt>
      <trkpt lat="45.83365" lon="4.69185">
        <ele>297.25488</ele>
        <time>2022-10-02T11:59:32.000Z</time>
      </trkpt>
      <trkpt lat="45.83366" lon="4.6918">
        <ele>297.09835</ele>
        <time>2022-10-02T11:59:33.000Z</time>
      </trkpt>
      <trkpt lat="45.83365" lon="4.69173">
        <ele>296.94777</ele>
        <time>2022-10-02T11:59:34.000Z</time>
      </trkpt>
      <trkpt lat="45.83365" lon="4.69166">
        <ele>296.76066</ele>
        <time>2022-10-02T11:59:35.000Z</time>
      </trkpt>
      <trkpt lat="45.83365" lon="4.69159">
        <ele>296.57263</ele>
        <time>2022-10-02T11:59:36.000Z</time>
      </trkpt>
      <trkpt lat="45.83366" lon="4.69151">
        <ele>296.37934</ele>
        <time>2022-10-02T11:59:37.000Z</time>
      </trkpt>
      <trkpt lat="45.83365" lon="4.69144">
        <ele>296.2412</ele>
        <time>2022-10-02T11:59:38.000Z</time>
      </trkpt>
      <trkpt lat="45.83366" lon="4.69135">
        <ele>295.99282</ele>
        <time>2022-10-02T11:59:39.000Z</time>
      </trkpt>
      <trkpt lat="45.83367" lon="4.69127">
        <ele>295.75387</ele>
        <time>2022-10-02T11:59:40.000Z</time>
      </trkpt>
      <trkpt lat="45.83367" lon="4.69117">
        <ele>295.3914</ele>
        <time>2022-10-02T11:59:41.000Z</time>
      </trkpt>
      <trkpt lat="45.83368" lon="4.69109">
        <ele>295.00994</ele>
        <time>2022-10-02T11:59:42.000Z</time>
      </trkpt>
      <trkpt lat="45.8337" lon="4.69102">
        <ele>294.557</ele>
        <time>2022-10-02T11:59:43.000Z</time>
      </trkpt>
      <trkpt lat="45.83372" lon="4.69094">
        <ele>294.07172</ele>
        <time>2022-10-02T11:59:44.000Z</time>
      </trkpt>
      <trkpt lat="45.83374" lon="4.69086">
        <ele>293.6054</ele>
        <time>2022-10-02T11:59:45.000Z</time>
      </trkpt>
      <trkpt lat="45.83375" lon="4.69079">
        <ele>293.13637</ele>
        <time>2022-10-02T11:59:46.000Z</time>
      </trkpt>
      <trkpt lat="45.83376" lon="4.69072">
        <ele>292.65491</ele>
        <time>2022-10-02T11:59:47.000Z</time>
      </trkpt>
      <trkpt lat="45.83378" lon="4.69064">
        <ele>292.13859</ele>
        <time>2022-10-02T11:59:48.000Z</time>
      </trkpt>
      <trkpt lat="45.83382" lon="4.69059">
        <ele>291.77398</ele>
        <time>2022-10-02T11:59:49.000Z</time>
      </trkpt>
      <trkpt lat="45.83385" lon="4.69053">
        <ele>291.34842</ele>
        <time>2022-10-02T11:59:50.000Z</time>
      </trkpt>
      <trkpt lat="45.83389" lon="4.69045">
        <ele>290.60755</ele>
        <time>2022-10-02T11:59:51.000Z</time>
      </trkpt>
      <trkpt lat="45.83395" lon="4.69038">
        <ele>289.9184</ele>
        <time>2022-10-02T11:59:52.000Z</time>
      </trkpt>
      <trkpt lat="45.83398" lon="4.69028">
        <ele>288.86698</ele>
        <time>2022-10-02T11:59:53.000Z</time>
      </trkpt>
      <trkpt lat="45.83399" lon="4.69019">
        <ele>287.83055</ele>
        <time>2022-10-02T11:59:54.000Z</time>
      </trkpt>
      <trkpt lat="45.83402" lon="4.69008">
        <ele>286.65123</ele>
        <time>2022-10-02T11:59:55.000Z</time>
      </trkpt>
      <trkpt lat="45.83406" lon="4.68998">
        <ele>285.5554</ele>
        <time>2022-10-02T11:59:56.000Z</time>
      </trkpt>
      <trkpt lat="45.83407" lon="4.68985">
        <ele>284.34912</ele>
        <time>2022-10-02T11:59:57.000Z</time>
      </trkpt>
      <trkpt lat="45.8341" lon="4.68971">
        <ele>283.10783</ele>
        <time>2022-10-02T11:59:58.000Z</time>
      </trkpt>
      <trkpt lat="45.83416" lon="4.68962">
        <ele>282.14561</ele>
        <time>2022-10-02T11:59:59.000Z</time>
      </trkpt>
      <trkpt lat="45.83419" lon="4.68951">
        <ele>281.04596</ele>
        <time>2022-10-02T12:00:00.000Z</time>
      </trkpt>
      <trkpt lat="45.83424" lon="4.68943">
        <ele>280.33955</ele>
        <time>2022-10-02T12:00:01.000Z</time>
      </trkpt>
      <trkpt lat="45.83427" lon="4.68936">
        <ele>279.69502</ele>
        <time>2022-10-02T12:00:02.000Z</time>
      </trkpt>
      <trkpt lat="45.83429" lon="4.68927">
        <ele>278.60069</ele>
        <time>2022-10-02T12:00:03.000Z</time>
      </trkpt>
      <trkpt lat="45.83425" lon="4.68915">
        <ele>276.94807</ele>
        <time>2022-10-02T12:00:04.000Z</time>
      </trkpt>
      <trkpt lat="45.83421" lon="4.68906">
        <ele>275.60379</ele>
        <time>2022-10-02T12:00:05.000Z</time>
      </trkpt>
      <trkpt lat="45.83419" lon="4.68894">
        <ele>274.24055</ele>
        <time>2022-10-02T12:00:06.000Z</time>
      </trkpt>
      <trkpt lat="45.83417" lon="4.68884">
        <ele>273.14457</ele>
        <time>2022-10-02T12:00:07.000Z</time>
      </trkpt>
      <trkpt lat="45.83413" lon="4.68874">
        <ele>272.2939</ele>
        <time>2022-10-02T12:00:08.000Z</time>
      </trkpt>
      <trkpt lat="45.83412" lon="4.68862">
        <ele>272.06329</ele>
        <time>2022-10-02T12:00:09.000Z</time>
      </trkpt>
      <trkpt lat="45.83409" lon="4.68852">
        <ele>272.60296</ele>
        <time>2022-10-02T12:00:10.000Z</time>
      </trkpt>
      <trkpt lat="45.83406" lon="4.68844">
        <ele>273.29861</ele>
        <time>2022-10-02T12:00:11.000Z</time>
      </trkpt>
      <trkpt lat="45.83403" lon="4.68839">
        <ele>273.71526</ele>
        <time>2022-10-02T12:00:12.000Z</time>
      </trkpt>
      <trkpt lat="45.834" lon="4.68831">
        <ele>274.24012</ele>
        <time>2022-10-02T12:00:13.000Z</time>
      </trkpt>
      <trkpt lat="45.83398" lon="4.68825">
        <ele>274.66181</ele>
        <time>2022-10-02T12:00:14.000Z</time>
      </trkpt>
      <trkpt lat="45.83396" lon="4.68816">
        <ele>275.08756</ele>
        <time>2022-10-02T12:00:15.000Z</time>
      </trkpt>
      <trkpt lat="45.83395" lon="4.68811">
        <ele>275.29742</ele>
        <time>2022-10-02T12:00:16.000Z</time>
      </trkpt>
      <trkpt lat="45.83393" lon="4.68803">
        <ele>275.49383</ele>
        <time>2022-10-02T12:00:17.000Z</time>
      </trkpt>
      <trkpt lat="45.83392" lon="4.68796">
        <ele>275.49589</ele>
        <time>2022-10-02T12:00:18.000Z</time>
      </trkpt>
      <trkpt lat="45.8339" lon="4.68788">
        <ele>275.32966</ele>
        <time>2022-10-02T12:00:19.000Z</time>
      </trkpt>
      <trkpt lat="45.83387" lon="4.68782">
        <ele>275.18237</ele>
        <time>2022-10-02T12:00:20.000Z</time>
      </trkpt>
      <trkpt lat="45.83384" lon="4.68775">
        <ele>275.11883</ele>
        <time>2022-10-02T12:00:21.000Z</time>
      </trkpt>
      <trkpt lat="45.83382" lon="4.68769">
        <ele>275.27659</ele>
        <time>2022-10-02T12:00:22.000Z</time>
      </trkpt>
      <trkpt lat="45.83379" lon="4.68761">
        <ele>275.58827</ele>
        <time>2022-10-02T12:00:23.000Z</time>
      </trkpt>
      <trkpt lat="45.83376" lon="4.68756">
        <ele>275.77855</ele>
        <time>2022-10-02T12:00:24.000Z</time>
      </trkpt>
      <trkpt lat="45.83373" lon="4.68749">
        <ele>275.73254</ele>
        <time>2022-10-02T12:00:25.000Z</time>
      </trkpt>
      <trkpt lat="45.8337" lon="4.68741">
        <ele>275.5704</ele>
        <time>2022-10-02T12:00:26.000Z</time>
      </trkpt>
      <trkpt lat="45.83369" lon="4.68735">
        <ele>275.49679</ele>
        <time>2022-10-02T12:00:27.000Z</time>
      </trkpt>
      <trkpt lat="45.83367" lon="4.68728">
        <ele>275.64083</ele>
        <time>2022-10-02T12:00:28.000Z</time>
      </trkpt>
      <trkpt lat="45.83364" lon="4.68722">
        <ele>275.9816</ele>
        <time>2022-10-02T12:00:29.000Z</time>
      </trkpt>
      <trkpt lat="45.8336" lon="4.68718">
        <ele>276.37574</ele>
        <time>2022-10-02T12:00:30.000Z</time>
      </trkpt>
      <trkpt lat="45.83358" lon="4.68712">
        <ele>276.73548</ele>
        <time>2022-10-02T12:00:31.000Z</time>
      </trkpt>
      <trkpt lat="45.83355" lon="4.68705">
        <ele>277.00245</ele>
        <time>2022-10-02T12:00:32.000Z</time>
      </trkpt>
      <trkpt lat="45.83354" lon="4.68699">
        <ele>276.98175</ele>
        <time>2022-10-02T12:00:33.000Z</time>
      </trkpt>
      <trkpt lat="45.8335" lon="4.68695">
        <ele>276.80649</ele>
        <time>2022-10-02T12:00:34.000Z</time>
      </trkpt>
      <trkpt lat="45.83346" lon="4.68689">
        <ele>276.5063</ele>
        <time>2022-10-02T12:00:35.000Z</time>
      </trkpt>
      <trkpt lat="45.83343" lon="4.68681">
        <ele>276.20599</ele>
        <time>2022-10-02T12:00:36.000Z</time>
      </trkpt>
      <trkpt lat="45.83341" lon="4.68673">
        <ele>276.46257</ele>
        <time>2022-10-02T12:00:37.000Z</time>
      </trkpt>
      <trkpt lat="45.83339" lon="4.68667">
        <ele>277.26946</ele>
        <time>2022-10-02T12:00:38.000Z</time>
      </trkpt>
      <trkpt lat="45.83336" lon="4.68661">
        <ele>278.45941</ele>
        <time>2022-10-02T12:00:39.000Z</time>
      </trkpt>
      <trkpt lat="45.83335" lon="4.68656">
        <ele>279.42871</ele>
        <time>2022-10-02T12:00:40.000Z</time>
      </trkpt>
      <trkpt lat="45.83332" lon="4.68649">
        <ele>280.12575</ele>
        <time>2022-10-02T12:00:41.000Z</time>
      </trkpt>
      <trkpt lat="45.8333" lon="4.68644">
        <ele>280.36929</ele>
        <time>2022-10-02T12:00:42.000Z</time>
      </trkpt>
      <trkpt lat="45.83328" lon="4.68637">
        <ele>280.28639</ele>
        <time>2022-10-02T12:00:43.000Z</time>
      </trkpt>
      <trkpt lat="45.83327" lon="4.68631">
        <ele>279.99216</ele>
        <time>2022-10-02T12:00:44.000Z</time>
      </trkpt>
      <trkpt lat="45.83326" lon="4.68625">
        <ele>279.71626</ele>
        <time>2022-10-02T12:00:45.000Z</time>
      </trkpt>
      <trkpt lat="45.83324" lon="4.68619">
        <ele>279.44808</ele>
        <time>2022-10-02T12:00:46.000Z</time>
      </trkpt>
      <trkpt lat="45.83323" lon="4.68612">
        <ele>279.23382</ele>
        <time>2022-10-02T12:00:47.000Z</time>
      </trkpt>
      <trkpt lat="45.83322" lon="4.68606">
        <ele>279.06186</ele>
        <time>2022-10-02T12:00:48.000Z</time>
      </trkpt>
      <trkpt lat="45.8332" lon="4.68599">
        <ele>278.80016</ele>
        <time>2022-10-02T12:00:49.000Z</time>
      </trkpt>
      <trkpt lat="45.83319" lon="4.68597">
        <ele>278.89994</ele>
        <time>2022-10-02T12:00:50.000Z</time>
      </trkpt>
      <trkpt lat="45.83325" lon="4.68595">
        <ele>278.39285</ele>
        <time>2022-10-02T12:00:51.000Z</time>
      </trkpt>
      <trkpt lat="45.83323" lon="4.68583">
        <ele>277.51901</ele>
        <time>2022-10-02T12:00:52.000Z</time>
      </trkpt>
      <trkpt lat="45.83321" lon="4.68573">
        <ele>277.52342</ele>
        <time>2022-10-02T12:00:53.000Z</time>
      </trkpt>
      <trkpt lat="45.8332" lon="4.68567">
        <ele>278.01499</ele>
        <time>2022-10-02T12:00:54.000Z</time>
      </trkpt>
      <trkpt lat="45.83317" lon="4.68561">
        <ele>278.66492</ele>
        <time>2022-10-02T12:00:55.000Z</time>
      </trkpt>
      <trkpt lat="45.83315" lon="4.68558">
        <ele>278.94683</ele>
        <time>2022-10-02T12:00:56.000Z</time>
      </trkpt>
      <trkpt lat="45.83313" lon="4.68553">
        <ele>278.9956</ele>
        <time>2022-10-02T12:00:57.000Z</time>
      </trkpt>
      <trkpt lat="45.8331" lon="4.68549">
        <ele>278.62761</ele>
        <time>2022-10-02T12:00:58.000Z</time>
      </trkpt>
      <trkpt lat="45.8331" lon="4.68545">
        <ele>278.49103</ele>
        <time>2022-10-02T12:00:59.000Z</time>
      </trkpt>
      <trkpt lat="45.83312" lon="4.6854">
        <ele>278.93706</ele>
        <time>2022-10-02T12:01:00.000Z</time>
      </trkpt>
      <trkpt lat="45.83315" lon="4.68536">
        <ele>279.83648</ele>
        <time>2022-10-02T12:01:01.000Z</time>
      </trkpt>
      <trkpt lat="45.83319" lon="4.68535">
        <ele>280.54693</ele>
        <time>2022-10-02T12:01:02.000Z</time>
      </trkpt>
      <trkpt lat="45.83322" lon="4.68533">
        <ele>280.81118</ele>
        <time>2022-10-02T12:01:03.000Z</time>
      </trkpt>
      <trkpt lat="45.83326" lon="4.68531">
        <ele>280.76389</ele>
        <time>2022-10-02T12:01:04.000Z</time>
      </trkpt>
      <trkpt lat="45.8333" lon="4.68532">
        <ele>280.52942</ele>
        <time>2022-10-02T12:01:05.000Z</time>
      </trkpt>
      <trkpt lat="45.83333" lon="4.68534">
        <ele>280.14085</ele>
        <time>2022-10-02T12:01:06.000Z</time>
      </trkpt>
      <trkpt lat="45.83337" lon="4.68536">
        <ele>279.70346</ele>
        <time>2022-10-02T12:01:07.000Z</time>
      </trkpt>
      <trkpt lat="45.83341" lon="4.68539">
        <ele>279.28468</ele>
        <time>2022-10-02T12:01:08.000Z</time>
      </trkpt>
      <trkpt lat="45.83344" lon="4.68543">
        <ele>279.06121</ele>
        <time>2022-10-02T12:01:09.000Z</time>
      </trkpt>
      <trkpt lat="45.83348" lon="4.68545">
        <ele>278.97199</ele>
        <time>2022-10-02T12:01:10.000Z</time>
      </trkpt>
      <trkpt lat="45.83353" lon="4.68548">
        <ele>278.84801</ele>
        <time>2022-10-02T12:01:11.000Z</time>
      </trkpt>
      <trkpt lat="45.83357" lon="4.68549">
        <ele>278.67837</ele>
        <time>2022-10-02T12:01:12.000Z</time>
      </trkpt>
      <trkpt lat="45.83362" lon="4.68551">
        <ele>278.47105</ele>
        <time>2022-10-02T12:01:13.000Z</time>
      </trkpt>
      <trkpt lat="45.83368" lon="4.68549">
        <ele>278.37065</ele>
        <time>2022-10-02T12:01:14.000Z</time>
      </trkpt>
      <trkpt lat="45.83373" lon="4.68546">
        <ele>278.7449</ele>
        <time>2022-10-02T12:01:15.000Z</time>
      </trkpt>
      <trkpt lat="45.83377" lon="4.68544">
        <ele>279.53162</ele>
        <time>2022-10-02T12:01:16.000Z</time>
      </trkpt>
      <trkpt lat="45.83382" lon="4.68541">
        <ele>280.3647</ele>
        <time>2022-10-02T12:01:17.000Z</time>
      </trkpt>
      <trkpt lat="45.83387" lon="4.68538">
        <ele>280.59715</ele>
        <time>2022-10-02T12:01:18.000Z</time>
      </trkpt>
      <trkpt lat="45.83393" lon="4.68534">
        <ele>280.02681</ele>
        <time>2022-10-02T12:01:19.000Z</time>
      </trkpt>
      <trkpt lat="45.83399" lon="4.68531">
        <ele>278.65888</ele>
        <time>2022-10-02T12:01:20.000Z</time>
      </trkpt>
      <trkpt lat="45.83404" lon="4.68526">
        <ele>277.08208</ele>
        <time>2022-10-02T12:01:21.000Z</time>
      </trkpt>
      <trkpt lat="45.8341" lon="4.68522">
        <ele>276.0346</ele>
        <time>2022-10-02T12:01:22.000Z</time>
      </trkpt>
      <trkpt lat="45.83416" lon="4.68517">
        <ele>275.8552</ele>
        <time>2022-10-02T12:01:23.000Z</time>
      </trkpt>
      <trkpt lat="45.83422" lon="4.68513">
        <ele>276.75264</ele>
        <time>2022-10-02T12:01:24.000Z</time>
      </trkpt>
      <trkpt lat="45.83428" lon="4.68508">
        <ele>277.55983</ele>
        <time>2022-10-02T12:01:25.000Z</time>
      </trkpt>
      <trkpt lat="45.83434" lon="4.68503">
        <ele>277.83739</ele>
        <time>2022-10-02T12:01:26.000Z</time>
      </trkpt>
      <trkpt lat="45.8344" lon="4.68499">
        <ele>277.0021</ele>
        <time>2022-10-02T12:01:27.000Z</time>
      </trkpt>
      <trkpt lat="45.83446" lon="4.68496">
        <ele>276.12946</ele>
        <time>2022-10-02T12:01:28.000Z</time>
      </trkpt>
      <trkpt lat="45.83452" lon="4.68495">
        <ele>275.31182</ele>
        <time>2022-10-02T12:01:29.000Z</time>
      </trkpt>
      <trkpt lat="45.83458" lon="4.68492">
        <ele>274.22085</ele>
        <time>2022-10-02T12:01:30.000Z</time>
      </trkpt>
      <trkpt lat="45.83466" lon="4.68487">
        <ele>273.65116</ele>
        <time>2022-10-02T12:01:31.000Z</time>
      </trkpt>
      <trkpt lat="45.83473" lon="4.68483">
        <ele>273.92385</ele>
        <time>2022-10-02T12:01:32.000Z</time>
      </trkpt>
      <trkpt lat="45.83479" lon="4.68478">
        <ele>274.33164</ele>
        <time>2022-10-02T12:01:33.000Z</time>
      </trkpt>
      <trkpt lat="45.83486" lon="4.68474">
        <ele>274.33192</ele>
        <time>2022-10-02T12:01:34.000Z</time>
      </trkpt>
      <trkpt lat="45.83492" lon="4.6847">
        <ele>273.97297</ele>
        <time>2022-10-02T12:01:35.000Z</time>
      </trkpt>
      <trkpt lat="45.83498" lon="4.68466">
        <ele>273.36831</ele>
        <time>2022-10-02T12:01:36.000Z</time>
      </trkpt>
      <trkpt lat="45.83506" lon="4.68462">
        <ele>272.55745</ele>
        <time>2022-10-02T12:01:37.000Z</time>
      </trkpt>
      <trkpt lat="45.83511" lon="4.68458">
        <ele>272.37274</ele>
        <time>2022-10-02T12:01:38.000Z</time>
      </trkpt>
      <trkpt lat="45.83517" lon="4.68456">
        <ele>272.80396</ele>
        <time>2022-10-02T12:01:39.000Z</time>
      </trkpt>
      <trkpt lat="45.83523" lon="4.68452">
        <ele>273.22215</ele>
        <time>2022-10-02T12:01:40.000Z</time>
      </trkpt>
      <trkpt lat="45.83529" lon="4.6845">
        <ele>273.12265</ele>
        <time>2022-10-02T12:01:41.000Z</time>
      </trkpt>
      <trkpt lat="45.83535" lon="4.68445">
        <ele>272.25593</ele>
        <time>2022-10-02T12:01:42.000Z</time>
      </trkpt>
      <trkpt lat="45.8354" lon="4.68441">
        <ele>271.18162</ele>
        <time>2022-10-02T12:01:43.000Z</time>
      </trkpt>
      <trkpt lat="45.83545" lon="4.68435">
        <ele>270.28056</ele>
        <time>2022-10-02T12:01:44.000Z</time>
      </trkpt>
      <trkpt lat="45.8355" lon="4.6843">
        <ele>270.05826</ele>
        <time>2022-10-02T12:01:45.000Z</time>
      </trkpt>
      <trkpt lat="45.83555" lon="4.68424">
        <ele>270.63127</ele>
        <time>2022-10-02T12:01:46.000Z</time>
      </trkpt>
      <trkpt lat="45.8356" lon="4.68417">
        <ele>271.53147</ele>
        <time>2022-10-02T12:01:47.000Z</time>
      </trkpt>
      <trkpt lat="45.83565" lon="4.6841">
        <ele>271.73894</ele>
        <time>2022-10-02T12:01:48.000Z</time>
      </trkpt>
      <trkpt lat="45.83569" lon="4.68404">
        <ele>271.2711</ele>
        <time>2022-10-02T12:01:49.000Z</time>
      </trkpt>
      <trkpt lat="45.83574" lon="4.68399">
        <ele>270.46866</ele>
        <time>2022-10-02T12:01:50.000Z</time>
      </trkpt>
      <trkpt lat="45.83578" lon="4.68394">
        <ele>270.13133</ele>
        <time>2022-10-02T12:01:51.000Z</time>
      </trkpt>
      <trkpt lat="45.83581" lon="4.68391">
        <ele>270.19176</ele>
        <time>2022-10-02T12:01:52.000Z</time>
      </trkpt>
      <trkpt lat="45.83583" lon="4.68388">
        <ele>270.42206</ele>
        <time>2022-10-02T12:01:53.000Z</time>
      </trkpt>
      <trkpt lat="45.83584" lon="4.68383">
        <ele>270.52347</ele>
        <time>2022-10-02T12:01:54.000Z</time>
      </trkpt>
      <trkpt lat="45.83584" lon="4.68378">
        <ele>270.61229</ele>
        <time>2022-10-02T12:01:55.000Z</time>
      </trkpt>
      <trkpt lat="45.83584" lon="4.68372">
        <ele>270.51438</ele>
        <time>2022-10-02T12:01:56.000Z</time>
      </trkpt>
      <trkpt lat="45.83583" lon="4.68366">
        <ele>270.4611</ele>
        <time>2022-10-02T12:01:57.000Z</time>
      </trkpt>
      <trkpt lat="45.83584" lon="4.68362">
        <ele>270.60015</ele>
        <time>2022-10-02T12:01:58.000Z</time>
      </trkpt>
      <trkpt lat="45.83585" lon="4.68356">
        <ele>270.64388</ele>
        <time>2022-10-02T12:01:59.000Z</time>
      </trkpt>
      <trkpt lat="45.83586" lon="4.68351">
        <ele>270.76262</ele>
        <time>2022-10-02T12:02:00.000Z</time>
      </trkpt>
      <trkpt lat="45.83585" lon="4.68345">
        <ele>270.76791</ele>
        <time>2022-10-02T12:02:01.000Z</time>
      </trkpt>
      <trkpt lat="45.83585" lon="4.68339">
        <ele>270.79753</ele>
        <time>2022-10-02T12:02:02.000Z</time>
      </trkpt>
      <trkpt lat="45.83585" lon="4.68334">
        <ele>270.86277</ele>
        <time>2022-10-02T12:02:03.000Z</time>
      </trkpt>
      <trkpt lat="45.83585" lon="4.6833">
        <ele>270.9343</ele>
        <time>2022-10-02T12:02:04.000Z</time>
      </trkpt>
      <trkpt lat="45.83585" lon="4.68327">
        <ele>270.99833</ele>
        <time>2022-10-02T12:02:05.000Z</time>
      </trkpt>
      <trkpt lat="45.83585" lon="4.68323">
        <ele>271.07152</ele>
        <time>2022-10-02T12:02:06.000Z</time>
      </trkpt>
      <trkpt lat="45.83585" lon="4.68318">
        <ele>271.20647</ele>
        <time>2022-10-02T12:02:07.000Z</time>
      </trkpt>
      <trkpt lat="45.83586" lon="4.68313">
        <ele>271.36061</ele>
        <time>2022-10-02T12:02:08.000Z</time>
      </trkpt>
      <trkpt lat="45.83586" lon="4.68309">
        <ele>271.49391</ele>
        <time>2022-10-02T12:02:09.000Z</time>
      </trkpt>
      <trkpt lat="45.83587" lon="4.68305">
        <ele>271.57875</ele>
        <time>2022-10-02T12:02:10.000Z</time>
      </trkpt>
      <trkpt lat="45.83589" lon="4.68302">
        <ele>271.60435</ele>
        <time>2022-10-02T12:02:11.000Z</time>
      </trkpt>
      <trkpt lat="45.8359" lon="4.68299">
        <ele>271.58369</ele>
        <time>2022-10-02T12:02:12.000Z</time>
      </trkpt>
      <trkpt lat="45.83591" lon="4.68295">
        <ele>271.51505</ele>
        <time>2022-10-02T12:02:13.000Z</time>
      </trkpt>
      <trkpt lat="45.83592" lon="4.68291">
        <ele>271.38842</ele>
        <time>2022-10-02T12:02:14.000Z</time>
      </trkpt>
      <trkpt lat="45.83593" lon="4.68287">
        <ele>271.2308</ele>
        <time>2022-10-02T12:02:15.000Z</time>
      </trkpt>
      <trkpt lat="45.83595" lon="4.68282">
        <ele>271.03943</ele>
        <time>2022-10-02T12:02:16.000Z</time>
      </trkpt>
      <trkpt lat="45.83595" lon="4.68276">
        <ele>270.81474</ele>
        <time>2022-10-02T12:02:17.000Z</time>
      </trkpt>
      <trkpt lat="45.83596" lon="4.68268">
        <ele>270.44612</ele>
        <time>2022-10-02T12:02:18.000Z</time>
      </trkpt>
      <trkpt lat="45.83597" lon="4.68262">
        <ele>270.15008</ele>
        <time>2022-10-02T12:02:19.000Z</time>
      </trkpt>
      <trkpt lat="45.83599" lon="4.68255">
        <ele>269.75376</ele>
        <time>2022-10-02T12:02:20.000Z</time>
      </trkpt>
      <trkpt lat="45.836" lon="4.68246">
        <ele>269.1615</ele>
        <time>2022-10-02T12:02:21.000Z</time>
      </trkpt>
      <trkpt lat="45.83603" lon="4.68237">
        <ele>268.63231</ele>
        <time>2022-10-02T12:02:22.000Z</time>
      </trkpt>
      <trkpt lat="45.83606" lon="4.68227">
        <ele>268.28856</ele>
        <time>2022-10-02T12:02:23.000Z</time>
      </trkpt>
      <trkpt lat="45.8361" lon="4.68217">
        <ele>268.00808</ele>
        <time>2022-10-02T12:02:24.000Z</time>
      </trkpt>
      <trkpt lat="45.83613" lon="4.68208">
        <ele>267.69442</ele>
        <time>2022-10-02T12:02:25.000Z</time>
      </trkpt>
      <trkpt lat="45.83617" lon="4.682">
        <ele>267.44153</ele>
        <time>2022-10-02T12:02:26.000Z</time>
      </trkpt>
      <trkpt lat="45.83619" lon="4.68191">
        <ele>267.21217</ele>
        <time>2022-10-02T12:02:27.000Z</time>
      </trkpt>
      <trkpt lat="45.83623" lon="4.68182">
        <ele>267.05992</ele>
        <time>2022-10-02T12:02:28.000Z</time>
      </trkpt>
      <trkpt lat="45.83626" lon="4.68174">
        <ele>267.02181</ele>
        <time>2022-10-02T12:02:29.000Z</time>
      </trkpt>
      <trkpt lat="45.83629" lon="4.68166">
        <ele>267.03327</ele>
        <time>2022-10-02T12:02:30.000Z</time>
      </trkpt>
      <trkpt lat="45.83633" lon="4.68156">
        <ele>267.0848</ele>
        <time>2022-10-02T12:02:31.000Z</time>
      </trkpt>
      <trkpt lat="45.83636" lon="4.68149">
        <ele>266.95817</ele>
        <time>2022-10-02T12:02:32.000Z</time>
      </trkpt>
      <trkpt lat="45.8364" lon="4.68141">
        <ele>266.66164</ele>
        <time>2022-10-02T12:02:33.000Z</time>
      </trkpt>
      <trkpt lat="45.83643" lon="4.68134">
        <ele>266.41196</ele>
        <time>2022-10-02T12:02:34.000Z</time>
      </trkpt>
      <trkpt lat="45.83647" lon="4.68128">
        <ele>266.39599</ele>
        <time>2022-10-02T12:02:35.000Z</time>
      </trkpt>
      <trkpt lat="45.83651" lon="4.68121">
        <ele>266.49792</ele>
        <time>2022-10-02T12:02:36.000Z</time>
      </trkpt>
      <trkpt lat="45.83656" lon="4.68116">
        <ele>266.46115</ele>
        <time>2022-10-02T12:02:37.000Z</time>
      </trkpt>
      <trkpt lat="45.8366" lon="4.68112">
        <ele>266.25181</ele>
        <time>2022-10-02T12:02:38.000Z</time>
      </trkpt>
      <trkpt lat="45.83666" lon="4.68105">
        <ele>265.76252</ele>
        <time>2022-10-02T12:02:39.000Z</time>
      </trkpt>
      <trkpt lat="45.8367" lon="4.681">
        <ele>265.54366</ele>
        <time>2022-10-02T12:02:40.000Z</time>
      </trkpt>
      <trkpt lat="45.83675" lon="4.68095">
        <ele>265.5233</ele>
        <time>2022-10-02T12:02:41.000Z</time>
      </trkpt>
      <trkpt lat="45.83679" lon="4.6809">
        <ele>265.42205</ele>
        <time>2022-10-02T12:02:42.000Z</time>
      </trkpt>
      <trkpt lat="45.83684" lon="4.68082">
        <ele>264.88118</ele>
        <time>2022-10-02T12:02:43.000Z</time>
      </trkpt>
      <trkpt lat="45.83688" lon="4.68076">
        <ele>264.04146</ele>
        <time>2022-10-02T12:02:44.000Z</time>
      </trkpt>
      <trkpt lat="45.83693" lon="4.68071">
        <ele>263.07728</ele>
        <time>2022-10-02T12:02:45.000Z</time>
      </trkpt>
      <trkpt lat="45.83696" lon="4.68065">
        <ele>262.23561</ele>
        <time>2022-10-02T12:02:46.000Z</time>
      </trkpt>
      <trkpt lat="45.83697" lon="4.68058">
        <ele>262.06114</ele>
        <time>2022-10-02T12:02:47.000Z</time>
      </trkpt>
      <trkpt lat="45.83698" lon="4.68051">
        <ele>261.86042</ele>
        <time>2022-10-02T12:02:48.000Z</time>
      </trkpt>
      <trkpt lat="45.83697" lon="4.68046">
        <ele>262.0971</ele>
        <time>2022-10-02T12:02:49.000Z</time>
      </trkpt>
      <trkpt lat="45.83696" lon="4.6804">
        <ele>262.18295</ele>
        <time>2022-10-02T12:02:50.000Z</time>
      </trkpt>
      <trkpt lat="45.83692" lon="4.68039">
        <ele>262.78776</ele>
        <time>2022-10-02T12:02:51.000Z</time>
      </trkpt>
      <trkpt lat="45.8369" lon="4.68034">
        <ele>262.79587</ele>
        <time>2022-10-02T12:02:52.000Z</time>
      </trkpt>
      <trkpt lat="45.83687" lon="4.6803">
        <ele>263.10039</ele>
        <time>2022-10-02T12:02:53.000Z</time>
      </trkpt>
      <trkpt lat="45.83684" lon="4.68026">
        <ele>263.228</ele>
        <time>2022-10-02T12:02:54.000Z</time>
      </trkpt>
      <trkpt lat="45.83681" lon="4.68023">
        <ele>263.4951</ele>
        <time>2022-10-02T12:02:55.000Z</time>
      </trkpt>
      <trkpt lat="45.83677" lon="4.68019">
        <ele>263.83583</ele>
        <time>2022-10-02T12:02:56.000Z</time>
      </trkpt>
      <trkpt lat="45.83673" lon="4.68013">
        <ele>263.8748</ele>
        <time>2022-10-02T12:02:57.000Z</time>
      </trkpt>
      <trkpt lat="45.8367" lon="4.68008">
        <ele>263.91667</ele>
        <time>2022-10-02T12:02:58.000Z</time>
      </trkpt>
      <trkpt lat="45.83668" lon="4.68004">
        <ele>263.93468</ele>
        <time>2022-10-02T12:02:59.000Z</time>
      </trkpt>
      <trkpt lat="45.83665" lon="4.68">
        <ele>263.97187</ele>
        <time>2022-10-02T12:03:00.000Z</time>
      </trkpt>
      <trkpt lat="45.83662" lon="4.67995">
        <ele>263.96732</ele>
        <time>2022-10-02T12:03:01.000Z</time>
      </trkpt>
      <trkpt lat="45.83659" lon="4.67991">
        <ele>263.95709</ele>
        <time>2022-10-02T12:03:02.000Z</time>
      </trkpt>
      <trkpt lat="45.83657" lon="4.67988">
        <ele>264.04031</ele>
        <time>2022-10-02T12:03:03.000Z</time>
      </trkpt>
      <trkpt lat="45.83653" lon="4.67984">
        <ele>264.23053</ele>
        <time>2022-10-02T12:03:04.000Z</time>
      </trkpt>
      <trkpt lat="45.8365" lon="4.67981">
        <ele>264.43566</ele>
        <time>2022-10-02T12:03:05.000Z</time>
      </trkpt>
      <trkpt lat="45.83647" lon="4.67977">
        <ele>264.56026</ele>
        <time>2022-10-02T12:03:06.000Z</time>
      </trkpt>
      <trkpt lat="45.83644" lon="4.67974">
        <ele>264.69985</ele>
        <time>2022-10-02T12:03:07.000Z</time>
      </trkpt>
      <trkpt lat="45.83641" lon="4.67971">
        <ele>264.8173</ele>
        <time>2022-10-02T12:03:08.000Z</time>
      </trkpt>
      <trkpt lat="45.83637" lon="4.67967">
        <ele>264.92347</ele>
        <time>2022-10-02T12:03:09.000Z</time>
      </trkpt>
      <trkpt lat="45.83635" lon="4.67963">
        <ele>264.95677</ele>
        <time>2022-10-02T12:03:10.000Z</time>
      </trkpt>
      <trkpt lat="45.83633" lon="4.6796">
        <ele>264.90761</ele>
        <time>2022-10-02T12:03:11.000Z</time>
      </trkpt>
      <trkpt lat="45.8363" lon="4.67956">
        <ele>264.88423</ele>
        <time>2022-10-02T12:03:12.000Z</time>
      </trkpt>
      <trkpt lat="45.83625" lon="4.67953">
        <ele>265.149</ele>
        <time>2022-10-02T12:03:13.000Z</time>
      </trkpt>
      <trkpt lat="45.8362" lon="4.67948">
        <ele>265.27094</ele>
        <time>2022-10-02T12:03:14.000Z</time>
      </trkpt>
      <trkpt lat="45.83615" lon="4.67944">
        <ele>265.4025</ele>
        <time>2022-10-02T12:03:15.000Z</time>
      </trkpt>
      <trkpt lat="45.83611" lon="4.67943">
        <ele>265.67462</ele>
        <time>2022-10-02T12:03:16.000Z</time>
      </trkpt>
      <trkpt lat="45.83606" lon="4.67937">
        <ele>265.57389</ele>
        <time>2022-10-02T12:03:17.000Z</time>
      </trkpt>
      <trkpt lat="45.83603" lon="4.67933">
        <ele>265.45654</ele>
        <time>2022-10-02T12:03:18.000Z</time>
      </trkpt>
      <trkpt lat="45.83597" lon="4.6793">
        <ele>265.66973</ele>
        <time>2022-10-02T12:03:19.000Z</time>
      </trkpt>
      <trkpt lat="45.83593" lon="4.67927">
        <ele>265.81133</ele>
        <time>2022-10-02T12:03:20.000Z</time>
      </trkpt>
      <trkpt lat="45.83589" lon="4.67924">
        <ele>265.87639</ele>
        <time>2022-10-02T12:03:21.000Z</time>
      </trkpt>
      <trkpt lat="45.83584" lon="4.67921">
        <ele>266.00212</ele>
        <time>2022-10-02T12:03:22.000Z</time>
      </trkpt>
      <trkpt lat="45.83581" lon="4.6792">
        <ele>266.1753</ele>
        <time>2022-10-02T12:03:23.000Z</time>
      </trkpt>
      <trkpt lat="45.83576" lon="4.67915">
        <ele>266.14529</ele>
        <time>2022-10-02T12:03:24.000Z</time>
      </trkpt>
      <trkpt lat="45.83571" lon="4.67912">
        <ele>266.19164</ele>
        <time>2022-10-02T12:03:25.000Z</time>
      </trkpt>
      <trkpt lat="45.83567" lon="4.67912">
        <ele>266.49</ele>
        <time>2022-10-02T12:03:26.000Z</time>
      </trkpt>
      <trkpt lat="45.83562" lon="4.67908">
        <ele>266.52631</ele>
        <time>2022-10-02T12:03:27.000Z</time>
      </trkpt>
      <trkpt lat="45.83557" lon="4.67903">
        <ele>266.47582</ele>
        <time>2022-10-02T12:03:28.000Z</time>
      </trkpt>
      <trkpt lat="45.83551" lon="4.67899">
        <ele>266.57272</ele>
        <time>2022-10-02T12:03:29.000Z</time>
      </trkpt>
      <trkpt lat="45.83546" lon="4.67896">
        <ele>266.66589</ele>
        <time>2022-10-02T12:03:30.000Z</time>
      </trkpt>
      <trkpt lat="45.8354" lon="4.67889">
        <ele>266.76011</ele>
        <time>2022-10-02T12:03:31.000Z</time>
      </trkpt>
      <trkpt lat="45.83535" lon="4.67882">
        <ele>266.92246</ele>
        <time>2022-10-02T12:03:32.000Z</time>
      </trkpt>
      <trkpt lat="45.83531" lon="4.67877">
        <ele>267.09432</ele>
        <time>2022-10-02T12:03:33.000Z</time>
      </trkpt>
      <trkpt lat="45.83527" lon="4.67872">
        <ele>267.315</ele>
        <time>2022-10-02T12:03:34.000Z</time>
      </trkpt>
      <trkpt lat="45.83523" lon="4.67865">
        <ele>267.35476</ele>
        <time>2022-10-02T12:03:35.000Z</time>
      </trkpt>
      <trkpt lat="45.83521" lon="4.67859">
        <ele>267.29432</ele>
        <time>2022-10-02T12:03:36.000Z</time>
      </trkpt>
      <trkpt lat="45.83517" lon="4.6785">
        <ele>267.26651</ele>
        <time>2022-10-02T12:03:37.000Z</time>
      </trkpt>
      <trkpt lat="45.83512" lon="4.67846">
        <ele>267.54522</ele>
        <time>2022-10-02T12:03:38.000Z</time>
      </trkpt>
      <trkpt lat="45.83509" lon="4.67841">
        <ele>267.51008</ele>
        <time>2022-10-02T12:03:39.000Z</time>
      </trkpt>
      <trkpt lat="45.83505" lon="4.67839">
        <ele>267.75624</ele>
        <time>2022-10-02T12:03:40.000Z</time>
      </trkpt>
      <trkpt lat="45.83499" lon="4.67834">
        <ele>267.78324</ele>
        <time>2022-10-02T12:03:41.000Z</time>
      </trkpt>
      <trkpt lat="45.83495" lon="4.67827">
        <ele>267.33132</ele>
        <time>2022-10-02T12:03:42.000Z</time>
      </trkpt>
      <trkpt lat="45.83492" lon="4.67824">
        <ele>267.25137</ele>
        <time>2022-10-02T12:03:43.000Z</time>
      </trkpt>
      <trkpt lat="45.83488" lon="4.67818">
        <ele>266.92054</ele>
        <time>2022-10-02T12:03:44.000Z</time>
      </trkpt>
      <trkpt lat="45.83485" lon="4.67814">
        <ele>266.61955</ele>
        <time>2022-10-02T12:03:45.000Z</time>
      </trkpt>
      <trkpt lat="45.8348" lon="4.67812">
        <ele>266.62216</ele>
        <time>2022-10-02T12:03:46.000Z</time>
      </trkpt>
      <trkpt lat="45.83475" lon="4.67808">
        <ele>266.58105</ele>
        <time>2022-10-02T12:03:47.000Z</time>
      </trkpt>
      <trkpt lat="45.83469" lon="4.67806">
        <ele>266.59219</ele>
        <time>2022-10-02T12:03:48.000Z</time>
      </trkpt>
      <trkpt lat="45.83463" lon="4.67803">
        <ele>266.60994</ele>
        <time>2022-10-02T12:03:49.000Z</time>
      </trkpt>
      <trkpt lat="45.83458" lon="4.67798">
        <ele>266.40185</ele>
        <time>2022-10-02T12:03:50.000Z</time>
      </trkpt>
      <trkpt lat="45.83453" lon="4.67794">
        <ele>266.26951</ele>
        <time>2022-10-02T12:03:51.000Z</time>
      </trkpt>
      <trkpt lat="45.83446" lon="4.67789">
        <ele>266.26632</ele>
        <time>2022-10-02T12:03:52.000Z</time>
      </trkpt>
      <trkpt lat="45.8344" lon="4.67784">
        <ele>266.25166</ele>
        <time>2022-10-02T12:03:53.000Z</time>
      </trkpt>
      <trkpt lat="45.83439" lon="4.67779">
        <ele>266.17818</ele>
        <time>2022-10-02T12:03:54.000Z</time>
      </trkpt>
      <trkpt lat="45.83439" lon="4.67771">
        <ele>266.04563</ele>
        <time>2022-10-02T12:03:55.000Z</time>
      </trkpt>
      <trkpt lat="45.83438" lon="4.67763">
        <ele>265.916</ele>
        <time>2022-10-02T12:03:56.000Z</time>
      </trkpt>
      <trkpt lat="45.83438" lon="4.67756">
        <ele>265.78292</ele>
        <time>2022-10-02T12:03:57.000Z</time>
      </trkpt>
      <trkpt lat="45.83437" lon="4.67748">
        <ele>265.80529</ele>
        <time>2022-10-02T12:03:58.000Z</time>
      </trkpt>
      <trkpt lat="45.83436" lon="4.6774">
        <ele>265.85361</ele>
        <time>2022-10-02T12:03:59.000Z</time>
      </trkpt>
      <trkpt lat="45.83434" lon="4.67734">
        <ele>265.88138</ele>
        <time>2022-10-02T12:04:00.000Z</time>
      </trkpt>
      <trkpt lat="45.83433" lon="4.67726">
        <ele>265.80079</ele>
        <time>2022-10-02T12:04:01.000Z</time>
      </trkpt>
      <trkpt lat="45.83431" lon="4.6772">
        <ele>265.78136</ele>
        <time>2022-10-02T12:04:02.000Z</time>
      </trkpt>
      <trkpt lat="45.83427" lon="4.67714">
        <ele>266.01459</ele>
        <time>2022-10-02T12:04:03.000Z</time>
      </trkpt>
      <trkpt lat="45.83423" lon="4.67709">
        <ele>266.28273</ele>
        <time>2022-10-02T12:04:04.000Z</time>
      </trkpt>
      <trkpt lat="45.83418" lon="4.67705">
        <ele>266.65831</ele>
        <time>2022-10-02T12:04:05.000Z</time>
      </trkpt>
      <trkpt lat="45.83413" lon="4.67701">
        <ele>267.05691</ele>
        <time>2022-10-02T12:04:06.000Z</time>
      </trkpt>
      <trkpt lat="45.83408" lon="4.67696">
        <ele>267.21344</ele>
        <time>2022-10-02T12:04:07.000Z</time>
      </trkpt>
      <trkpt lat="45.83404" lon="4.67693">
        <ele>267.33716</ele>
        <time>2022-10-02T12:04:08.000Z</time>
      </trkpt>
      <trkpt lat="45.834" lon="4.6769">
        <ele>267.32807</ele>
        <time>2022-10-02T12:04:09.000Z</time>
      </trkpt>
      <trkpt lat="45.83396" lon="4.67687">
        <ele>267.42005</ele>
        <time>2022-10-02T12:04:10.000Z</time>
      </trkpt>
      <trkpt lat="45.83392" lon="4.67686">
        <ele>267.57966</ele>
        <time>2022-10-02T12:04:11.000Z</time>
      </trkpt>
      <trkpt lat="45.83388" lon="4.67683">
        <ele>267.58659</ele>
        <time>2022-10-02T12:04:12.000Z</time>
      </trkpt>
      <trkpt lat="45.83384" lon="4.6768">
        <ele>267.71157</ele>
        <time>2022-10-02T12:04:13.000Z</time>
      </trkpt>
      <trkpt lat="45.8338" lon="4.67677">
        <ele>267.72783</ele>
        <time>2022-10-02T12:04:14.000Z</time>
      </trkpt>
      <trkpt lat="45.83376" lon="4.67673">
        <ele>267.74962</ele>
        <time>2022-10-02T12:04:15.000Z</time>
      </trkpt>
      <trkpt lat="45.83373" lon="4.67672">
        <ele>268.00243</ele>
        <time>2022-10-02T12:04:16.000Z</time>
      </trkpt>
      <trkpt lat="45.83368" lon="4.67669">
        <ele>267.9896</ele>
        <time>2022-10-02T12:04:17.000Z</time>
      </trkpt>
      <trkpt lat="45.83365" lon="4.67667">
        <ele>268.10094</ele>
        <time>2022-10-02T12:04:18.000Z</time>
      </trkpt>
      <trkpt lat="45.83361" lon="4.67666">
        <ele>268.32794</ele>
        <time>2022-10-02T12:04:19.000Z</time>
      </trkpt>
      <trkpt lat="45.83356" lon="4.67663">
        <ele>268.32203</ele>
        <time>2022-10-02T12:04:20.000Z</time>
      </trkpt>
      <trkpt lat="45.83352" lon="4.67661">
        <ele>268.46343</ele>
        <time>2022-10-02T12:04:21.000Z</time>
      </trkpt>
      <trkpt lat="45.83348" lon="4.67659">
        <ele>268.6781</ele>
        <time>2022-10-02T12:04:22.000Z</time>
      </trkpt>
      <trkpt lat="45.83344" lon="4.67659">
        <ele>269.44349</ele>
        <time>2022-10-02T12:04:23.000Z</time>
      </trkpt>
      <trkpt lat="45.83341" lon="4.67656">
        <ele>269.44694</ele>
        <time>2022-10-02T12:04:24.000Z</time>
      </trkpt>
      <trkpt lat="45.83337" lon="4.67654">
        <ele>269.59017</ele>
        <time>2022-10-02T12:04:25.000Z</time>
      </trkpt>
      <trkpt lat="45.83333" lon="4.67651">
        <ele>269.6446</ele>
        <time>2022-10-02T12:04:26.000Z</time>
      </trkpt>
      <trkpt lat="45.8333" lon="4.67648">
        <ele>269.65224</ele>
        <time>2022-10-02T12:04:27.000Z</time>
      </trkpt>
      <trkpt lat="45.83326" lon="4.67647">
        <ele>270.12948</ele>
        <time>2022-10-02T12:04:28.000Z</time>
      </trkpt>
      <trkpt lat="45.83324" lon="4.67645">
        <ele>270.18125</ele>
        <time>2022-10-02T12:04:29.000Z</time>
      </trkpt>
      <trkpt lat="45.8332" lon="4.67644">
        <ele>270.69361</ele>
        <time>2022-10-02T12:04:30.000Z</time>
      </trkpt>
      <trkpt lat="45.83318" lon="4.67642">
        <ele>270.74944</ele>
        <time>2022-10-02T12:04:31.000Z</time>
      </trkpt>
      <trkpt lat="45.83314" lon="4.6764">
        <ele>271.03247</ele>
        <time>2022-10-02T12:04:32.000Z</time>
      </trkpt>
      <trkpt lat="45.83311" lon="4.67638">
        <ele>271.13936</ele>
        <time>2022-10-02T12:04:33.000Z</time>
      </trkpt>
      <trkpt lat="45.83308" lon="4.67636">
        <ele>271.22971</ele>
        <time>2022-10-02T12:04:34.000Z</time>
      </trkpt>
      <trkpt lat="45.83304" lon="4.67635">
        <ele>271.45631</ele>
        <time>2022-10-02T12:04:35.000Z</time>
      </trkpt>
      <trkpt lat="45.83301" lon="4.67634">
        <ele>271.62448</ele>
        <time>2022-10-02T12:04:36.000Z</time>
      </trkpt>
      <trkpt lat="45.83297" lon="4.67633">
        <ele>271.86138</ele>
        <time>2022-10-02T12:04:37.000Z</time>
      </trkpt>
      <trkpt lat="45.83294" lon="4.67633">
        <ele>272.0903</ele>
        <time>2022-10-02T12:04:38.000Z</time>
      </trkpt>
      <trkpt lat="45.8329" lon="4.67632">
        <ele>272.18559</ele>
        <time>2022-10-02T12:04:39.000Z</time>
      </trkpt>
      <trkpt lat="45.83287" lon="4.6763">
        <ele>272.21247</ele>
        <time>2022-10-02T12:04:40.000Z</time>
      </trkpt>
      <trkpt lat="45.83284" lon="4.67629">
        <ele>272.17097</ele>
        <time>2022-10-02T12:04:41.000Z</time>
      </trkpt>
      <trkpt lat="45.8328" lon="4.67627">
        <ele>272.13862</ele>
        <time>2022-10-02T12:04:42.000Z</time>
      </trkpt>
      <trkpt lat="45.83273" lon="4.67628">
        <ele>272.31885</ele>
        <time>2022-10-02T12:04:43.000Z</time>
      </trkpt>
      <trkpt lat="45.83268" lon="4.67629">
        <ele>272.4243</ele>
        <time>2022-10-02T12:04:44.000Z</time>
      </trkpt>
      <trkpt lat="45.83262" lon="4.67629">
        <ele>272.29043</ele>
        <time>2022-10-02T12:04:45.000Z</time>
      </trkpt>
      <trkpt lat="45.83257" lon="4.67628">
        <ele>271.95793</ele>
        <time>2022-10-02T12:04:46.000Z</time>
      </trkpt>
      <trkpt lat="45.83251" lon="4.67624">
        <ele>271.57698</ele>
        <time>2022-10-02T12:04:47.000Z</time>
      </trkpt>
      <trkpt lat="45.83245" lon="4.6762">
        <ele>271.36941</ele>
        <time>2022-10-02T12:04:48.000Z</time>
      </trkpt>
      <trkpt lat="45.83239" lon="4.67614">
        <ele>271.33033</ele>
        <time>2022-10-02T12:04:49.000Z</time>
      </trkpt>
      <trkpt lat="45.83236" lon="4.67607">
        <ele>271.39205</ele>
        <time>2022-10-02T12:04:50.000Z</time>
      </trkpt>
      <trkpt lat="45.83235" lon="4.67602">
        <ele>271.47246</ele>
        <time>2022-10-02T12:04:51.000Z</time>
      </trkpt>
      <trkpt lat="45.83235" lon="4.67595">
        <ele>271.62366</ele>
        <time>2022-10-02T12:04:52.000Z</time>
      </trkpt>
      <trkpt lat="45.83235" lon="4.67586">
        <ele>271.83163</ele>
        <time>2022-10-02T12:04:53.000Z</time>
      </trkpt>
      <trkpt lat="45.83237" lon="4.6758">
        <ele>271.7515</ele>
        <time>2022-10-02T12:04:54.000Z</time>
      </trkpt>
      <trkpt lat="45.83239" lon="4.67574">
        <ele>271.6836</ele>
        <time>2022-10-02T12:04:55.000Z</time>
      </trkpt>
      <trkpt lat="45.83239" lon="4.67567">
        <ele>271.81262</ele>
        <time>2022-10-02T12:04:56.000Z</time>
      </trkpt>
      <trkpt lat="45.8324" lon="4.67562">
        <ele>271.83806</ele>
        <time>2022-10-02T12:04:57.000Z</time>
      </trkpt>
      <trkpt lat="45.8324" lon="4.67556">
        <ele>271.99519</ele>
        <time>2022-10-02T12:04:58.000Z</time>
      </trkpt>
      <trkpt lat="45.8324" lon="4.67552">
        <ele>272.18947</ele>
        <time>2022-10-02T12:04:59.000Z</time>
      </trkpt>
      <trkpt lat="45.83239" lon="4.67547">
        <ele>272.33216</ele>
        <time>2022-10-02T12:05:00.000Z</time>
      </trkpt>
      <trkpt lat="45.83237" lon="4.67542">
        <ele>272.63829</ele>
        <time>2022-10-02T12:05:01.000Z</time>
      </trkpt>
      <trkpt lat="45.83236" lon="4.67535">
        <ele>272.37437</ele>
        <time>2022-10-02T12:05:02.000Z</time>
      </trkpt>
      <trkpt lat="45.83235" lon="4.6753">
        <ele>272.08589</ele>
        <time>2022-10-02T12:05:03.000Z</time>
      </trkpt>
      <trkpt lat="45.8323" lon="4.67526">
        <ele>272.23042</ele>
        <time>2022-10-02T12:05:04.000Z</time>
      </trkpt>
      <trkpt lat="45.83226" lon="4.67524">
        <ele>272.55512</ele>
        <time>2022-10-02T12:05:05.000Z</time>
      </trkpt>
      <trkpt lat="45.83222" lon="4.67522">
        <ele>272.89106</ele>
        <time>2022-10-02T12:05:06.000Z</time>
      </trkpt>
      <trkpt lat="45.83218" lon="4.67519">
        <ele>273.2515</ele>
        <time>2022-10-02T12:05:07.000Z</time>
      </trkpt>
      <trkpt lat="45.83214" lon="4.67517">
        <ele>273.67664</ele>
        <time>2022-10-02T12:05:08.000Z</time>
      </trkpt>
      <trkpt lat="45.8321" lon="4.67514">
        <ele>274.12207</ele>
        <time>2022-10-02T12:05:09.000Z</time>
      </trkpt>
      <trkpt lat="45.83207" lon="4.67512">
        <ele>274.55769</ele>
        <time>2022-10-02T12:05:10.000Z</time>
      </trkpt>
      <trkpt lat="45.83203" lon="4.67509">
        <ele>274.90696</ele>
        <time>2022-10-02T12:05:11.000Z</time>
      </trkpt>
      <trkpt lat="45.832" lon="4.67505">
        <ele>275.12289</ele>
        <time>2022-10-02T12:05:12.000Z</time>
      </trkpt>
      <trkpt lat="45.83197" lon="4.67501">
        <ele>275.19133</ele>
        <time>2022-10-02T12:05:13.000Z</time>
      </trkpt>
      <trkpt lat="45.83194" lon="4.67497">
        <ele>275.20601</ele>
        <time>2022-10-02T12:05:14.000Z</time>
      </trkpt>
      <trkpt lat="45.83191" lon="4.67494">
        <ele>275.2536</ele>
        <time>2022-10-02T12:05:15.000Z</time>
      </trkpt>
      <trkpt lat="45.83187" lon="4.67491">
        <ele>275.29358</ele>
        <time>2022-10-02T12:05:16.000Z</time>
      </trkpt>
      <trkpt lat="45.83183" lon="4.67487">
        <ele>275.35442</ele>
        <time>2022-10-02T12:05:17.000Z</time>
      </trkpt>
      <trkpt lat="45.83181" lon="4.67482">
        <ele>275.23279</ele>
        <time>2022-10-02T12:05:18.000Z</time>
      </trkpt>
      <trkpt lat="45.83178" lon="4.67477">
        <ele>275.18036</ele>
        <time>2022-10-02T12:05:19.000Z</time>
      </trkpt>
      <trkpt lat="45.83175" lon="4.67474">
        <ele>275.11382</ele>
        <time>2022-10-02T12:05:20.000Z</time>
      </trkpt>
      <trkpt lat="45.83172" lon="4.6747">
        <ele>275.00305</ele>
        <time>2022-10-02T12:05:21.000Z</time>
      </trkpt>
      <trkpt lat="45.83168" lon="4.6747">
        <ele>275.00777</ele>
        <time>2022-10-02T12:05:22.000Z</time>
      </trkpt>
      <trkpt lat="45.83164" lon="4.67468">
        <ele>274.97155</ele>
        <time>2022-10-02T12:05:23.000Z</time>
      </trkpt>
      <trkpt lat="45.83161" lon="4.67466">
        <ele>274.93244</ele>
        <time>2022-10-02T12:05:24.000Z</time>
      </trkpt>
      <trkpt lat="45.83158" lon="4.67466">
        <ele>274.98871</ele>
        <time>2022-10-02T12:05:25.000Z</time>
      </trkpt>
      <trkpt lat="45.83154" lon="4.67467">
        <ele>275.13713</ele>
        <time>2022-10-02T12:05:26.000Z</time>
      </trkpt>
      <trkpt lat="45.8315" lon="4.67467">
        <ele>275.26092</ele>
        <time>2022-10-02T12:05:27.000Z</time>
      </trkpt>
      <trkpt lat="45.83146" lon="4.67467">
        <ele>275.4167</ele>
        <time>2022-10-02T12:05:28.000Z</time>
      </trkpt>
      <trkpt lat="45.83142" lon="4.67466">
        <ele>275.53885</ele>
        <time>2022-10-02T12:05:29.000Z</time>
      </trkpt>
      <trkpt lat="45.83139" lon="4.67465">
        <ele>275.60441</ele>
        <time>2022-10-02T12:05:30.000Z</time>
      </trkpt>
      <trkpt lat="45.83137" lon="4.67463">
        <ele>275.64941</ele>
        <time>2022-10-02T12:05:31.000Z</time>
      </trkpt>
      <trkpt lat="45.83135" lon="4.6746">
        <ele>275.65687</ele>
        <time>2022-10-02T12:05:32.000Z</time>
      </trkpt>
      <trkpt lat="45.83132" lon="4.67457">
        <ele>275.70386</ele>
        <time>2022-10-02T12:05:33.000Z</time>
      </trkpt>
      <trkpt lat="45.8313" lon="4.67454">
        <ele>275.812</ele>
        <time>2022-10-02T12:05:34.000Z</time>
      </trkpt>
      <trkpt lat="45.83127" lon="4.6745">
        <ele>276.03431</ele>
        <time>2022-10-02T12:05:35.000Z</time>
      </trkpt>
      <trkpt lat="45.83124" lon="4.67445">
        <ele>276.33392</ele>
        <time>2022-10-02T12:05:36.000Z</time>
      </trkpt>
      <trkpt lat="45.83121" lon="4.67441">
        <ele>276.67758</ele>
        <time>2022-10-02T12:05:37.000Z</time>
      </trkpt>
      <trkpt lat="45.83118" lon="4.67437">
        <ele>277.05324</ele>
        <time>2022-10-02T12:05:38.000Z</time>
      </trkpt>
      <trkpt lat="45.83115" lon="4.67433">
        <ele>277.44527</ele>
        <time>2022-10-02T12:05:39.000Z</time>
      </trkpt>
      <trkpt lat="45.83113" lon="4.6743">
        <ele>277.75786</ele>
        <time>2022-10-02T12:05:40.000Z</time>
      </trkpt>
      <trkpt lat="45.8311" lon="4.67427">
        <ele>278.02805</ele>
        <time>2022-10-02T12:05:41.000Z</time>
      </trkpt>
      <trkpt lat="45.83108" lon="4.67424">
        <ele>278.28334</ele>
        <time>2022-10-02T12:05:42.000Z</time>
      </trkpt>
      <trkpt lat="45.83106" lon="4.6742">
        <ele>278.52578</ele>
        <time>2022-10-02T12:05:43.000Z</time>
      </trkpt>
      <trkpt lat="45.83103" lon="4.67416">
        <ele>278.70639</ele>
        <time>2022-10-02T12:05:44.000Z</time>
      </trkpt>
      <trkpt lat="45.83101" lon="4.67411">
        <ele>278.85951</ele>
        <time>2022-10-02T12:05:45.000Z</time>
      </trkpt>
      <trkpt lat="45.83098" lon="4.67408">
        <ele>279.013</ele>
        <time>2022-10-02T12:05:46.000Z</time>
      </trkpt>
      <trkpt lat="45.83095" lon="4.67404">
        <ele>279.15264</ele>
        <time>2022-10-02T12:05:47.000Z</time>
      </trkpt>
      <trkpt lat="45.83092" lon="4.67401">
        <ele>279.26254</ele>
        <time>2022-10-02T12:05:48.000Z</time>
      </trkpt>
      <trkpt lat="45.8309" lon="4.67397">
        <ele>279.34976</ele>
        <time>2022-10-02T12:05:49.000Z</time>
      </trkpt>
      <trkpt lat="45.83087" lon="4.67394">
        <ele>279.46333</ele>
        <time>2022-10-02T12:05:50.000Z</time>
      </trkpt>
      <trkpt lat="45.83084" lon="4.67391">
        <ele>279.57368</ele>
        <time>2022-10-02T12:05:51.000Z</time>
      </trkpt>
      <trkpt lat="45.83082" lon="4.67388">
        <ele>279.69008</ele>
        <time>2022-10-02T12:05:52.000Z</time>
      </trkpt>
      <trkpt lat="45.8308" lon="4.67386">
        <ele>279.78121</ele>
        <time>2022-10-02T12:05:53.000Z</time>
      </trkpt>
      <trkpt lat="45.83078" lon="4.67383">
        <ele>279.87533</ele>
        <time>2022-10-02T12:05:54.000Z</time>
      </trkpt>
      <trkpt lat="45.83075" lon="4.6738">
        <ele>280.0413</ele>
        <time>2022-10-02T12:05:55.000Z</time>
      </trkpt>
      <trkpt lat="45.83072" lon="4.67377">
        <ele>280.27127</ele>
        <time>2022-10-02T12:05:56.000Z</time>
      </trkpt>
      <trkpt lat="45.83069" lon="4.67374">
        <ele>280.4985</ele>
        <time>2022-10-02T12:05:57.000Z</time>
      </trkpt>
      <trkpt lat="45.83066" lon="4.67372">
        <ele>280.73725</ele>
        <time>2022-10-02T12:05:58.000Z</time>
      </trkpt>
      <trkpt lat="45.83063" lon="4.67369">
        <ele>280.97037</ele>
        <time>2022-10-02T12:05:59.000Z</time>
      </trkpt>
      <trkpt lat="45.8306" lon="4.67367">
        <ele>281.25338</ele>
        <time>2022-10-02T12:06:00.000Z</time>
      </trkpt>
      <trkpt lat="45.83057" lon="4.67365">
        <ele>281.50969</ele>
        <time>2022-10-02T12:06:01.000Z</time>
      </trkpt>
      <trkpt lat="45.83054" lon="4.67363">
        <ele>281.70194</ele>
        <time>2022-10-02T12:06:02.000Z</time>
      </trkpt>
      <trkpt lat="45.83052" lon="4.6736">
        <ele>281.7929</ele>
        <time>2022-10-02T12:06:03.000Z</time>
      </trkpt>
      <trkpt lat="45.83049" lon="4.67357">
        <ele>281.84917</ele>
        <time>2022-10-02T12:06:04.000Z</time>
      </trkpt>
      <trkpt lat="45.83046" lon="4.67354">
        <ele>281.87774</ele>
        <time>2022-10-02T12:06:05.000Z</time>
      </trkpt>
      <trkpt lat="45.83044" lon="4.67352">
        <ele>281.97714</ele>
        <time>2022-10-02T12:06:06.000Z</time>
      </trkpt>
      <trkpt lat="45.8304" lon="4.67349">
        <ele>282.14516</ele>
        <time>2022-10-02T12:06:07.000Z</time>
      </trkpt>
      <trkpt lat="45.83037" lon="4.67346">
        <ele>282.37399</ele>
        <time>2022-10-02T12:06:08.000Z</time>
      </trkpt>
      <trkpt lat="45.83034" lon="4.67343">
        <ele>282.64464</ele>
        <time>2022-10-02T12:06:09.000Z</time>
      </trkpt>
      <trkpt lat="45.83031" lon="4.6734">
        <ele>282.86151</ele>
        <time>2022-10-02T12:06:10.000Z</time>
      </trkpt>
      <trkpt lat="45.83028" lon="4.67337">
        <ele>283.0063</ele>
        <time>2022-10-02T12:06:11.000Z</time>
      </trkpt>
      <trkpt lat="45.83025" lon="4.67334">
        <ele>283.07856</ele>
        <time>2022-10-02T12:06:12.000Z</time>
      </trkpt>
      <trkpt lat="45.83022" lon="4.67331">
        <ele>283.12515</ele>
        <time>2022-10-02T12:06:13.000Z</time>
      </trkpt>
      <trkpt lat="45.8302" lon="4.67328">
        <ele>283.14825</ele>
        <time>2022-10-02T12:06:14.000Z</time>
      </trkpt>
      <trkpt lat="45.83016" lon="4.67325">
        <ele>283.2461</ele>
        <time>2022-10-02T12:06:15.000Z</time>
      </trkpt>
      <trkpt lat="45.83013" lon="4.67323">
        <ele>283.41341</ele>
        <time>2022-10-02T12:06:16.000Z</time>
      </trkpt>
      <trkpt lat="45.8301" lon="4.6732">
        <ele>283.63809</ele>
        <time>2022-10-02T12:06:17.000Z</time>
      </trkpt>
      <trkpt lat="45.83007" lon="4.67317">
        <ele>283.87147</ele>
        <time>2022-10-02T12:06:18.000Z</time>
      </trkpt>
      <trkpt lat="45.83004" lon="4.67315">
        <ele>284.10084</ele>
        <time>2022-10-02T12:06:19.000Z</time>
      </trkpt>
      <trkpt lat="45.83001" lon="4.67313">
        <ele>284.29956</ele>
        <time>2022-10-02T12:06:20.000Z</time>
      </trkpt>
      <trkpt lat="45.82999" lon="4.6731">
        <ele>284.44202</ele>
        <time>2022-10-02T12:06:21.000Z</time>
      </trkpt>
      <trkpt lat="45.82998" lon="4.67307">
        <ele>284.52894</ele>
        <time>2022-10-02T12:06:22.000Z</time>
      </trkpt>
      <trkpt lat="45.82997" lon="4.67303">
        <ele>284.56719</ele>
        <time>2022-10-02T12:06:23.000Z</time>
      </trkpt>
      <trkpt lat="45.82998" lon="4.67299">
        <ele>284.57141</ele>
        <time>2022-10-02T12:06:24.000Z</time>
      </trkpt>
      <trkpt lat="45.82999" lon="4.67295">
        <ele>284.5645</ele>
        <time>2022-10-02T12:06:25.000Z</time>
      </trkpt>
      <trkpt lat="45.83001" lon="4.67291">
        <ele>284.56263</ele>
        <time>2022-10-02T12:06:26.000Z</time>
      </trkpt>
      <trkpt lat="45.83002" lon="4.67286">
        <ele>284.5624</ele>
        <time>2022-10-02T12:06:27.000Z</time>
      </trkpt>
      <trkpt lat="45.83004" lon="4.67282">
        <ele>284.54132</ele>
        <time>2022-10-02T12:06:28.000Z</time>
      </trkpt>
      <trkpt lat="45.83005" lon="4.67278">
        <ele>284.47533</ele>
        <time>2022-10-02T12:06:29.000Z</time>
      </trkpt>
      <trkpt lat="45.83007" lon="4.67274">
        <ele>284.36182</ele>
        <time>2022-10-02T12:06:30.000Z</time>
      </trkpt>
      <trkpt lat="45.83008" lon="4.6727">
        <ele>284.27102</ele>
        <time>2022-10-02T12:06:31.000Z</time>
      </trkpt>
      <trkpt lat="45.8301" lon="4.67265">
        <ele>284.22179</ele>
        <time>2022-10-02T12:06:32.000Z</time>
      </trkpt>
      <trkpt lat="45.83011" lon="4.6726">
        <ele>284.23607</ele>
        <time>2022-10-02T12:06:33.000Z</time>
      </trkpt>
      <trkpt lat="45.83012" lon="4.67255">
        <ele>284.32317</ele>
        <time>2022-10-02T12:06:34.000Z</time>
      </trkpt>
      <trkpt lat="45.83014" lon="4.67251">
        <ele>284.49153</ele>
        <time>2022-10-02T12:06:35.000Z</time>
      </trkpt>
      <trkpt lat="45.83015" lon="4.67246">
        <ele>284.73795</ele>
        <time>2022-10-02T12:06:36.000Z</time>
      </trkpt>
      <trkpt lat="45.83016" lon="4.67241">
        <ele>285.05098</ele>
        <time>2022-10-02T12:06:37.000Z</time>
      </trkpt>
      <trkpt lat="45.83018" lon="4.67237">
        <ele>285.3924</ele>
        <time>2022-10-02T12:06:38.000Z</time>
      </trkpt>
      <trkpt lat="45.83019" lon="4.67232">
        <ele>285.75534</ele>
        <time>2022-10-02T12:06:39.000Z</time>
      </trkpt>
      <trkpt lat="45.8302" lon="4.67227">
        <ele>286.13469</ele>
        <time>2022-10-02T12:06:40.000Z</time>
      </trkpt>
      <trkpt lat="45.83021" lon="4.67223">
        <ele>286.48283</ele>
        <time>2022-10-02T12:06:41.000Z</time>
      </trkpt>
      <trkpt lat="45.83021" lon="4.67217">
        <ele>286.83681</ele>
        <time>2022-10-02T12:06:42.000Z</time>
      </trkpt>
      <trkpt lat="45.83022" lon="4.67212">
        <ele>287.14508</ele>
        <time>2022-10-02T12:06:43.000Z</time>
      </trkpt>
      <trkpt lat="45.83023" lon="4.67208">
        <ele>287.37303</ele>
        <time>2022-10-02T12:06:44.000Z</time>
      </trkpt>
      <trkpt lat="45.83024" lon="4.67203">
        <ele>287.55927</ele>
        <time>2022-10-02T12:06:45.000Z</time>
      </trkpt>
      <trkpt lat="45.83025" lon="4.67198">
        <ele>287.736</ele>
        <time>2022-10-02T12:06:46.000Z</time>
      </trkpt>
      <trkpt lat="45.83025" lon="4.67193">
        <ele>287.92439</ele>
        <time>2022-10-02T12:06:47.000Z</time>
      </trkpt>
      <trkpt lat="45.83025" lon="4.67188">
        <ele>288.16614</ele>
        <time>2022-10-02T12:06:48.000Z</time>
      </trkpt>
      <trkpt lat="45.83024" lon="4.67183">
        <ele>288.45103</ele>
        <time>2022-10-02T12:06:49.000Z</time>
      </trkpt>
      <trkpt lat="45.83022" lon="4.67179">
        <ele>288.75359</ele>
        <time>2022-10-02T12:06:50.000Z</time>
      </trkpt>
      <trkpt lat="45.8302" lon="4.67175">
        <ele>289.15039</ele>
        <time>2022-10-02T12:06:51.000Z</time>
      </trkpt>
      <trkpt lat="45.83018" lon="4.67171">
        <ele>289.59493</ele>
        <time>2022-10-02T12:06:52.000Z</time>
      </trkpt>
      <trkpt lat="45.83016" lon="4.67166">
        <ele>290.03049</ele>
        <time>2022-10-02T12:06:53.000Z</time>
      </trkpt>
      <trkpt lat="45.83014" lon="4.67162">
        <ele>290.41288</ele>
        <time>2022-10-02T12:06:54.000Z</time>
      </trkpt>
      <trkpt lat="45.83013" lon="4.67157">
        <ele>290.75783</ele>
        <time>2022-10-02T12:06:55.000Z</time>
      </trkpt>
      <trkpt lat="45.83011" lon="4.67153">
        <ele>291.032</ele>
        <time>2022-10-02T12:06:56.000Z</time>
      </trkpt>
      <trkpt lat="45.83009" lon="4.67148">
        <ele>291.24929</ele>
        <time>2022-10-02T12:06:57.000Z</time>
      </trkpt>
      <trkpt lat="45.83007" lon="4.67144">
        <ele>291.40924</ele>
        <time>2022-10-02T12:06:58.000Z</time>
      </trkpt>
      <trkpt lat="45.83004" lon="4.67141">
        <ele>291.58484</ele>
        <time>2022-10-02T12:06:59.000Z</time>
      </trkpt>
      <trkpt lat="45.83002" lon="4.67137">
        <ele>291.8105</ele>
        <time>2022-10-02T12:07:00.000Z</time>
      </trkpt>
      <trkpt lat="45.83" lon="4.67133">
        <ele>292.09283</ele>
        <time>2022-10-02T12:07:01.000Z</time>
      </trkpt>
      <trkpt lat="45.82998" lon="4.67128">
        <ele>292.43967</ele>
        <time>2022-10-02T12:07:02.000Z</time>
      </trkpt>
      <trkpt lat="45.82997" lon="4.67124">
        <ele>292.77001</ele>
        <time>2022-10-02T12:07:03.000Z</time>
      </trkpt>
      <trkpt lat="45.82996" lon="4.67121">
        <ele>293.09273</ele>
        <time>2022-10-02T12:07:04.000Z</time>
      </trkpt>
      <trkpt lat="45.82995" lon="4.67117">
        <ele>293.43981</ele>
        <time>2022-10-02T12:07:05.000Z</time>
      </trkpt>
      <trkpt lat="45.82994" lon="4.67113">
        <ele>293.73299</ele>
        <time>2022-10-02T12:07:06.000Z</time>
      </trkpt>
      <trkpt lat="45.82993" lon="4.67109">
        <ele>293.98885</ele>
        <time>2022-10-02T12:07:07.000Z</time>
      </trkpt>
      <trkpt lat="45.82992" lon="4.67106">
        <ele>294.23012</ele>
        <time>2022-10-02T12:07:08.000Z</time>
      </trkpt>
      <trkpt lat="45.82992" lon="4.67102">
        <ele>294.45987</ele>
        <time>2022-10-02T12:07:09.000Z</time>
      </trkpt>
      <trkpt lat="45.82991" lon="4.67098">
        <ele>294.65021</ele>
        <time>2022-10-02T12:07:10.000Z</time>
      </trkpt>
      <trkpt lat="45.82991" lon="4.67095">
        <ele>294.81738</ele>
        <time>2022-10-02T12:07:11.000Z</time>
      </trkpt>
      <trkpt lat="45.82991" lon="4.67091">
        <ele>294.98639</ele>
        <time>2022-10-02T12:07:12.000Z</time>
      </trkpt>
      <trkpt lat="45.82991" lon="4.67087">
        <ele>295.17449</ele>
        <time>2022-10-02T12:07:13.000Z</time>
      </trkpt>
      <trkpt lat="45.82992" lon="4.67083">
        <ele>295.37642</ele>
        <time>2022-10-02T12:07:14.000Z</time>
      </trkpt>
      <trkpt lat="45.82994" lon="4.67078">
        <ele>295.5815</ele>
        <time>2022-10-02T12:07:15.000Z</time>
      </trkpt>
      <trkpt lat="45.82995" lon="4.67074">
        <ele>295.78456</ele>
        <time>2022-10-02T12:07:16.000Z</time>
      </trkpt>
      <trkpt lat="45.82997" lon="4.67069">
        <ele>295.99627</ele>
        <time>2022-10-02T12:07:17.000Z</time>
      </trkpt>
      <trkpt lat="45.82998" lon="4.67065">
        <ele>296.1987</ele>
        <time>2022-10-02T12:07:18.000Z</time>
      </trkpt>
      <trkpt lat="45.82998" lon="4.67061">
        <ele>296.37983</ele>
        <time>2022-10-02T12:07:19.000Z</time>
      </trkpt>
      <trkpt lat="45.82999" lon="4.67057">
        <ele>296.55583</ele>
        <time>2022-10-02T12:07:20.000Z</time>
      </trkpt>
      <trkpt lat="45.82999" lon="4.67053">
        <ele>296.76621</ele>
        <time>2022-10-02T12:07:21.000Z</time>
      </trkpt>
      <trkpt lat="45.82999" lon="4.67048">
        <ele>297.01326</ele>
        <time>2022-10-02T12:07:22.000Z</time>
      </trkpt>
      <trkpt lat="45.82999" lon="4.67044">
        <ele>297.24805</ele>
        <time>2022-10-02T12:07:23.000Z</time>
      </trkpt>
      <trkpt lat="45.83" lon="4.6704">
        <ele>297.45376</ele>
        <time>2022-10-02T12:07:24.000Z</time>
      </trkpt>
      <trkpt lat="45.83" lon="4.67036">
        <ele>297.67887</ele>
        <time>2022-10-02T12:07:25.000Z</time>
      </trkpt>
      <trkpt lat="45.83001" lon="4.67032">
        <ele>297.87893</ele>
        <time>2022-10-02T12:07:26.000Z</time>
      </trkpt>
      <trkpt lat="45.83001" lon="4.67029">
        <ele>298.06202</ele>
        <time>2022-10-02T12:07:27.000Z</time>
      </trkpt>
      <trkpt lat="45.83001" lon="4.67026">
        <ele>298.2481</ele>
        <time>2022-10-02T12:07:28.000Z</time>
      </trkpt>
      <trkpt lat="45.83001" lon="4.67022">
        <ele>298.44958</ele>
        <time>2022-10-02T12:07:29.000Z</time>
      </trkpt>
      <trkpt lat="45.83001" lon="4.67018">
        <ele>298.67779</ele>
        <time>2022-10-02T12:07:30.000Z</time>
      </trkpt>
      <trkpt lat="45.83002" lon="4.67013">
        <ele>298.90251</ele>
        <time>2022-10-02T12:07:31.000Z</time>
      </trkpt>
      <trkpt lat="45.83002" lon="4.67007">
        <ele>299.1468</ele>
        <time>2022-10-02T12:07:32.000Z</time>
      </trkpt>
      <trkpt lat="45.83002" lon="4.67002">
        <ele>299.3607</ele>
        <time>2022-10-02T12:07:33.000Z</time>
      </trkpt>
      <trkpt lat="45.83002" lon="4.66997">
        <ele>299.55678</ele>
        <time>2022-10-02T12:07:34.000Z</time>
      </trkpt>
      <trkpt lat="45.83002" lon="4.66992">
        <ele>299.76635</ele>
        <time>2022-10-02T12:07:35.000Z</time>
      </trkpt>
      <trkpt lat="45.83002" lon="4.66986">
        <ele>299.98745</ele>
        <time>2022-10-02T12:07:36.000Z</time>
      </trkpt>
      <trkpt lat="45.83002" lon="4.66981">
        <ele>300.20536</ele>
        <time>2022-10-02T12:07:37.000Z</time>
      </trkpt>
      <trkpt lat="45.83002" lon="4.66976">
        <ele>300.38744</ele>
        <time>2022-10-02T12:07:38.000Z</time>
      </trkpt>
      <trkpt lat="45.83002" lon="4.66972">
        <ele>300.55084</ele>
        <time>2022-10-02T12:07:39.000Z</time>
      </trkpt>
      <trkpt lat="45.83002" lon="4.66967">
        <ele>300.7095</ele>
        <time>2022-10-02T12:07:40.000Z</time>
      </trkpt>
      <trkpt lat="45.83003" lon="4.66962">
        <ele>300.89394</ele>
        <time>2022-10-02T12:07:41.000Z</time>
      </trkpt>
      <trkpt lat="45.83003" lon="4.66958">
        <ele>301.08482</ele>
        <time>2022-10-02T12:07:42.000Z</time>
      </trkpt>
      <trkpt lat="45.83004" lon="4.66953">
        <ele>301.28065</ele>
        <time>2022-10-02T12:07:43.000Z</time>
      </trkpt>
      <trkpt lat="45.83004" lon="4.66949">
        <ele>301.49869</ele>
        <time>2022-10-02T12:07:44.000Z</time>
      </trkpt>
      <trkpt lat="45.83004" lon="4.66944">
        <ele>301.75319</ele>
        <time>2022-10-02T12:07:45.000Z</time>
      </trkpt>
      <trkpt lat="45.83005" lon="4.66939">
        <ele>301.99046</ele>
        <time>2022-10-02T12:07:46.000Z</time>
      </trkpt>
      <trkpt lat="45.83005" lon="4.66935">
        <ele>302.23615</ele>
        <time>2022-10-02T12:07:47.000Z</time>
      </trkpt>
      <trkpt lat="45.83006" lon="4.6693">
        <ele>302.50076</ele>
        <time>2022-10-02T12:07:48.000Z</time>
      </trkpt>
      <trkpt lat="45.83007" lon="4.66926">
        <ele>302.78435</ele>
        <time>2022-10-02T12:07:49.000Z</time>
      </trkpt>
      <trkpt lat="45.83008" lon="4.66921">
        <ele>303.07881</ele>
        <time>2022-10-02T12:07:50.000Z</time>
      </trkpt>
      <trkpt lat="45.83009" lon="4.66916">
        <ele>303.38211</ele>
        <time>2022-10-02T12:07:51.000Z</time>
      </trkpt>
      <trkpt lat="45.8301" lon="4.66911">
        <ele>303.70199</ele>
        <time>2022-10-02T12:07:52.000Z</time>
      </trkpt>
      <trkpt lat="45.8301" lon="4.66905">
        <ele>304.05065</ele>
        <time>2022-10-02T12:07:53.000Z</time>
      </trkpt>
      <trkpt lat="45.83011" lon="4.669">
        <ele>304.39307</ele>
        <time>2022-10-02T12:07:54.000Z</time>
      </trkpt>
      <trkpt lat="45.83012" lon="4.66896">
        <ele>304.68439</ele>
        <time>2022-10-02T12:07:55.000Z</time>
      </trkpt>
      <trkpt lat="45.83012" lon="4.66892">
        <ele>304.96519</ele>
        <time>2022-10-02T12:07:56.000Z</time>
      </trkpt>
      <trkpt lat="45.83013" lon="4.66887">
        <ele>305.26375</ele>
        <time>2022-10-02T12:07:57.000Z</time>
      </trkpt>
      <trkpt lat="45.83013" lon="4.66883">
        <ele>305.5703</ele>
        <time>2022-10-02T12:07:58.000Z</time>
      </trkpt>
      <trkpt lat="45.83013" lon="4.66879">
        <ele>305.85131</ele>
        <time>2022-10-02T12:07:59.000Z</time>
      </trkpt>
      <trkpt lat="45.83014" lon="4.66875">
        <ele>306.12214</ele>
        <time>2022-10-02T12:08:00.000Z</time>
      </trkpt>
      <trkpt lat="45.83014" lon="4.66872">
        <ele>306.35907</ele>
        <time>2022-10-02T12:08:01.000Z</time>
      </trkpt>
      <trkpt lat="45.83015" lon="4.66869">
        <ele>306.59618</ele>
        <time>2022-10-02T12:08:02.000Z</time>
      </trkpt>
      <trkpt lat="45.83015" lon="4.66865">
        <ele>306.81429</ele>
        <time>2022-10-02T12:08:03.000Z</time>
      </trkpt>
      <trkpt lat="45.83015" lon="4.66862">
        <ele>307.02047</ele>
        <time>2022-10-02T12:08:04.000Z</time>
      </trkpt>
      <trkpt lat="45.83015" lon="4.66859">
        <ele>307.1797</ele>
        <time>2022-10-02T12:08:05.000Z</time>
      </trkpt>
      <trkpt lat="45.83015" lon="4.66856">
        <ele>307.34508</ele>
        <time>2022-10-02T12:08:06.000Z</time>
      </trkpt>
      <trkpt lat="45.83015" lon="4.66853">
        <ele>307.53864</ele>
        <time>2022-10-02T12:08:07.000Z</time>
      </trkpt>
      <trkpt lat="45.83015" lon="4.66853">
        <ele>307.53864</ele>
        <time>2022-10-02T12:08:07.000Z</time>
      </trkpt>
      <trkpt lat="45.83015" lon="4.6685">
        <ele>307.71544</ele>
        <time>2022-10-02T12:08:08.000Z</time>
      </trkpt>
      <trkpt lat="45.83016" lon="4.66848">
        <ele>307.87583</ele>
        <time>2022-10-02T12:08:09.000Z</time>
      </trkpt>
      <trkpt lat="45.83018" lon="4.66846">
        <ele>308.01885</ele>
        <time>2022-10-02T12:08:10.000Z</time>
      </trkpt>
      <trkpt lat="45.8302" lon="4.66846">
        <ele>308.1309</ele>
        <time>2022-10-02T12:08:11.000Z</time>
      </trkpt>
      <trkpt lat="45.83022" lon="4.66846">
        <ele>308.22454</ele>
        <time>2022-10-02T12:08:12.000Z</time>
      </trkpt>
      <trkpt lat="45.83025" lon="4.66846">
        <ele>308.316</ele>
        <time>2022-10-02T12:08:14.000Z</time>
      </trkpt>
      <trkpt lat="45.83026" lon="4.66847">
        <ele>308.30317</ele>
        <time>2022-10-02T12:10:37.000Z</time>
      </trkpt>
      <trkpt lat="45.8303" lon="4.66847">
        <ele>308.44429</ele>
        <time>2022-10-02T12:10:39.000Z</time>
      </trkpt>
      <trkpt lat="45.83032" lon="4.66847">
        <ele>308.54262</ele>
        <time>2022-10-02T12:10:40.000Z</time>
      </trkpt>
      <trkpt lat="45.83035" lon="4.66846">
        <ele>308.61594</ele>
        <time>2022-10-02T12:10:41.000Z</time>
      </trkpt>
      <trkpt lat="45.83038" lon="4.66846">
        <ele>308.64368</ele>
        <time>2022-10-02T12:10:42.000Z</time>
      </trkpt>
      <trkpt lat="45.83041" lon="4.66847">
        <ele>308.65724</ele>
        <time>2022-10-02T12:10:43.000Z</time>
      </trkpt>
      <trkpt lat="45.83044" lon="4.66847">
        <ele>308.64637</ele>
        <time>2022-10-02T12:10:44.000Z</time>
      </trkpt>
      <trkpt lat="45.83046" lon="4.66847">
        <ele>308.62594</ele>
        <time>2022-10-02T12:10:45.000Z</time>
      </trkpt>
      <trkpt lat="45.83049" lon="4.66848">
        <ele>308.58559</ele>
        <time>2022-10-02T12:10:46.000Z</time>
      </trkpt>
      <trkpt lat="45.83052" lon="4.66848">
        <ele>308.5637</ele>
        <time>2022-10-02T12:10:47.000Z</time>
      </trkpt>
      <trkpt lat="45.83055" lon="4.66848">
        <ele>308.55144</ele>
        <time>2022-10-02T12:10:48.000Z</time>
      </trkpt>
      <trkpt lat="45.83058" lon="4.66849">
        <ele>308.52546</ele>
        <time>2022-10-02T12:10:49.000Z</time>
      </trkpt>
      <trkpt lat="45.8306" lon="4.66849">
        <ele>308.51938</ele>
        <time>2022-10-02T12:10:50.000Z</time>
      </trkpt>
      <trkpt lat="45.83064" lon="4.66849">
        <ele>308.48033</ele>
        <time>2022-10-02T12:10:51.000Z</time>
      </trkpt>
      <trkpt lat="45.83068" lon="4.66851">
        <ele>308.39567</ele>
        <time>2022-10-02T12:10:52.000Z</time>
      </trkpt>
      <trkpt lat="45.83072" lon="4.66852">
        <ele>308.30048</ele>
        <time>2022-10-02T12:10:53.000Z</time>
      </trkpt>
      <trkpt lat="45.83076" lon="4.66853">
        <ele>308.20637</ele>
        <time>2022-10-02T12:10:54.000Z</time>
      </trkpt>
      <trkpt lat="45.8308" lon="4.66855">
        <ele>308.09537</ele>
        <time>2022-10-02T12:10:55.000Z</time>
      </trkpt>
      <trkpt lat="45.83084" lon="4.66857">
        <ele>307.96433</ele>
        <time>2022-10-02T12:10:56.000Z</time>
      </trkpt>
      <trkpt lat="45.83088" lon="4.6686">
        <ele>307.82984</ele>
        <time>2022-10-02T12:10:57.000Z</time>
      </trkpt>
      <trkpt lat="45.83092" lon="4.66863">
        <ele>307.72597</ele>
        <time>2022-10-02T12:10:58.000Z</time>
      </trkpt>
      <trkpt lat="45.83097" lon="4.66868">
        <ele>307.61443</ele>
        <time>2022-10-02T12:10:59.000Z</time>
      </trkpt>
      <trkpt lat="45.83099" lon="4.66874">
        <ele>307.45503</ele>
        <time>2022-10-02T12:11:00.000Z</time>
      </trkpt>
      <trkpt lat="45.83103" lon="4.66876">
        <ele>307.44464</ele>
        <time>2022-10-02T12:11:01.000Z</time>
      </trkpt>
      <trkpt lat="45.83107" lon="4.66878">
        <ele>307.41715</ele>
        <time>2022-10-02T12:11:02.000Z</time>
      </trkpt>
      <trkpt lat="45.8311" lon="4.66881">
        <ele>307.31968</ele>
        <time>2022-10-02T12:11:03.000Z</time>
      </trkpt>
      <trkpt lat="45.83114" lon="4.66884">
        <ele>307.19098</ele>
        <time>2022-10-02T12:11:04.000Z</time>
      </trkpt>
      <trkpt lat="45.8312" lon="4.66886">
        <ele>307.04431</ele>
        <time>2022-10-02T12:11:05.000Z</time>
      </trkpt>
      <trkpt lat="45.83126" lon="4.66888">
        <ele>306.79938</ele>
        <time>2022-10-02T12:11:06.000Z</time>
      </trkpt>
      <trkpt lat="45.83131" lon="4.66893">
        <ele>306.38297</ele>
        <time>2022-10-02T12:11:07.000Z</time>
      </trkpt>
      <trkpt lat="45.83136" lon="4.66896">
        <ele>306.12</ele>
        <time>2022-10-02T12:11:08.000Z</time>
      </trkpt>
      <trkpt lat="45.83142" lon="4.66899">
        <ele>305.88831</ele>
        <time>2022-10-02T12:11:09.000Z</time>
      </trkpt>
      <trkpt lat="45.83148" lon="4.66902">
        <ele>305.8006</ele>
        <time>2022-10-02T12:11:10.000Z</time>
      </trkpt>
      <trkpt lat="45.83153" lon="4.66905">
        <ele>305.76233</ele>
        <time>2022-10-02T12:11:11.000Z</time>
      </trkpt>
      <trkpt lat="45.83159" lon="4.66909">
        <ele>305.73394</ele>
        <time>2022-10-02T12:11:12.000Z</time>
      </trkpt>
      <trkpt lat="45.83164" lon="4.66913">
        <ele>305.51482</ele>
        <time>2022-10-02T12:11:13.000Z</time>
      </trkpt>
      <trkpt lat="45.83171" lon="4.66917">
        <ele>305.20052</ele>
        <time>2022-10-02T12:11:14.000Z</time>
      </trkpt>
      <trkpt lat="45.83176" lon="4.66919">
        <ele>304.95687</ele>
        <time>2022-10-02T12:11:15.000Z</time>
      </trkpt>
      <trkpt lat="45.83181" lon="4.66924">
        <ele>304.59732</ele>
        <time>2022-10-02T12:11:16.000Z</time>
      </trkpt>
      <trkpt lat="45.83187" lon="4.66925">
        <ele>304.37461</ele>
        <time>2022-10-02T12:11:17.000Z</time>
      </trkpt>
      <trkpt lat="45.83192" lon="4.66928">
        <ele>304.11638</ele>
        <time>2022-10-02T12:11:18.000Z</time>
      </trkpt>
      <trkpt lat="45.83198" lon="4.66932">
        <ele>303.80907</ele>
        <time>2022-10-02T12:11:19.000Z</time>
      </trkpt>
      <trkpt lat="45.83204" lon="4.66935">
        <ele>303.55411</ele>
        <time>2022-10-02T12:11:20.000Z</time>
      </trkpt>
      <trkpt lat="45.8321" lon="4.66939">
        <ele>303.37956</ele>
        <time>2022-10-02T12:11:21.000Z</time>
      </trkpt>
      <trkpt lat="45.83216" lon="4.66942">
        <ele>303.33815</ele>
        <time>2022-10-02T12:11:22.000Z</time>
      </trkpt>
      <trkpt lat="45.83223" lon="4.66945">
        <ele>303.368</ele>
        <time>2022-10-02T12:11:23.000Z</time>
      </trkpt>
      <trkpt lat="45.83229" lon="4.66949">
        <ele>303.30464</ele>
        <time>2022-10-02T12:11:24.000Z</time>
      </trkpt>
      <trkpt lat="45.83236" lon="4.6695">
        <ele>303.24772</ele>
        <time>2022-10-02T12:11:25.000Z</time>
      </trkpt>
      <trkpt lat="45.83241" lon="4.66954">
        <ele>302.95804</ele>
        <time>2022-10-02T12:11:26.000Z</time>
      </trkpt>
      <trkpt lat="45.83247" lon="4.66958">
        <ele>302.55648</ele>
        <time>2022-10-02T12:11:27.000Z</time>
      </trkpt>
      <trkpt lat="45.83253" lon="4.6696">
        <ele>302.33074</ele>
        <time>2022-10-02T12:11:28.000Z</time>
      </trkpt>
      <trkpt lat="45.83259" lon="4.66962">
        <ele>302.23529</ele>
        <time>2022-10-02T12:11:29.000Z</time>
      </trkpt>
      <trkpt lat="45.83264" lon="4.66964">
        <ele>302.23411</ele>
        <time>2022-10-02T12:11:30.000Z</time>
      </trkpt>
      <trkpt lat="45.8327" lon="4.66967">
        <ele>302.30885</ele>
        <time>2022-10-02T12:11:31.000Z</time>
      </trkpt>
      <trkpt lat="45.83276" lon="4.66968">
        <ele>302.45069</ele>
        <time>2022-10-02T12:11:32.000Z</time>
      </trkpt>
      <trkpt lat="45.83281" lon="4.6697">
        <ele>302.53894</ele>
        <time>2022-10-02T12:11:33.000Z</time>
      </trkpt>
      <trkpt lat="45.83288" lon="4.6697">
        <ele>302.69922</ele>
        <time>2022-10-02T12:11:34.000Z</time>
      </trkpt>
      <trkpt lat="45.83294" lon="4.66972">
        <ele>302.83565</ele>
        <time>2022-10-02T12:11:35.000Z</time>
      </trkpt>
      <trkpt lat="45.833" lon="4.66974">
        <ele>302.90948</ele>
        <time>2022-10-02T12:11:36.000Z</time>
      </trkpt>
      <trkpt lat="45.83306" lon="4.66976">
        <ele>303.01612</ele>
        <time>2022-10-02T12:11:37.000Z</time>
      </trkpt>
      <trkpt lat="45.83311" lon="4.66976">
        <ele>303.18751</ele>
        <time>2022-10-02T12:11:38.000Z</time>
      </trkpt>
      <trkpt lat="45.83316" lon="4.66978">
        <ele>303.31485</ele>
        <time>2022-10-02T12:11:39.000Z</time>
      </trkpt>
      <trkpt lat="45.83321" lon="4.66977">
        <ele>303.54125</ele>
        <time>2022-10-02T12:11:40.000Z</time>
      </trkpt>
      <trkpt lat="45.83327" lon="4.66978">
        <ele>303.68784</ele>
        <time>2022-10-02T12:11:41.000Z</time>
      </trkpt>
      <trkpt lat="45.83331" lon="4.66978">
        <ele>303.83383</ele>
        <time>2022-10-02T12:11:42.000Z</time>
      </trkpt>
      <trkpt lat="45.83336" lon="4.66977">
        <ele>304.02779</ele>
        <time>2022-10-02T12:11:43.000Z</time>
      </trkpt>
      <trkpt lat="45.83341" lon="4.66978">
        <ele>304.17963</ele>
        <time>2022-10-02T12:11:44.000Z</time>
      </trkpt>
      <trkpt lat="45.83346" lon="4.66978">
        <ele>304.30197</ele>
        <time>2022-10-02T12:11:45.000Z</time>
      </trkpt>
      <trkpt lat="45.83351" lon="4.66978">
        <ele>304.37757</ele>
        <time>2022-10-02T12:11:46.000Z</time>
      </trkpt>
      <trkpt lat="45.83356" lon="4.66978">
        <ele>304.43401</ele>
        <time>2022-10-02T12:11:47.000Z</time>
      </trkpt>
      <trkpt lat="45.83361" lon="4.66979">
        <ele>304.46695</ele>
        <time>2022-10-02T12:11:48.000Z</time>
      </trkpt>
      <trkpt lat="45.83364" lon="4.6698">
        <ele>304.47612</ele>
        <time>2022-10-02T12:11:49.000Z</time>
      </trkpt>
      <trkpt lat="45.83366" lon="4.66985">
        <ele>304.4659</ele>
        <time>2022-10-02T12:11:50.000Z</time>
      </trkpt>
      <trkpt lat="45.83368" lon="4.66992">
        <ele>304.40761</ele>
        <time>2022-10-02T12:11:51.000Z</time>
      </trkpt>
      <trkpt lat="45.83368" lon="4.66999">
        <ele>304.27992</ele>
        <time>2022-10-02T12:11:52.000Z</time>
      </trkpt>
      <trkpt lat="45.83369" lon="4.67008">
        <ele>304.01526</ele>
        <time>2022-10-02T12:11:53.000Z</time>
      </trkpt>
      <trkpt lat="45.83369" lon="4.67014">
        <ele>303.76398</ele>
        <time>2022-10-02T12:11:54.000Z</time>
      </trkpt>
      <trkpt lat="45.83368" lon="4.67024">
        <ele>303.40266</ele>
        <time>2022-10-02T12:11:55.000Z</time>
      </trkpt>
      <trkpt lat="45.8337" lon="4.67032">
        <ele>303.21588</ele>
        <time>2022-10-02T12:11:56.000Z</time>
      </trkpt>
      <trkpt lat="45.83371" lon="4.6704">
        <ele>303.09953</ele>
        <time>2022-10-02T12:11:57.000Z</time>
      </trkpt>
      <trkpt lat="45.83371" lon="4.67046">
        <ele>302.96789</ele>
        <time>2022-10-02T12:11:58.000Z</time>
      </trkpt>
      <trkpt lat="45.83375" lon="4.6705">
        <ele>302.96056</ele>
        <time>2022-10-02T12:11:59.000Z</time>
      </trkpt>
      <trkpt lat="45.83379" lon="4.67055">
        <ele>302.88436</ele>
        <time>2022-10-02T12:12:00.000Z</time>
      </trkpt>
      <trkpt lat="45.83387" lon="4.67057">
        <ele>302.86633</ele>
        <time>2022-10-02T12:12:01.000Z</time>
      </trkpt>
      <trkpt lat="45.83391" lon="4.6706">
        <ele>302.81375</ele>
        <time>2022-10-02T12:12:02.000Z</time>
      </trkpt>
      <trkpt lat="45.83396" lon="4.67065">
        <ele>302.72941</ele>
        <time>2022-10-02T12:12:03.000Z</time>
      </trkpt>
      <trkpt lat="45.83401" lon="4.6707">
        <ele>302.70415</ele>
        <time>2022-10-02T12:12:04.000Z</time>
      </trkpt>
      <trkpt lat="45.83406" lon="4.67073">
        <ele>302.75748</ele>
        <time>2022-10-02T12:12:05.000Z</time>
      </trkpt>
      <trkpt lat="45.8341" lon="4.67077">
        <ele>302.67645</ele>
        <time>2022-10-02T12:12:06.000Z</time>
      </trkpt>
      <trkpt lat="45.83411" lon="4.67082">
        <ele>302.53704</ele>
        <time>2022-10-02T12:12:07.000Z</time>
      </trkpt>
      <trkpt lat="45.83416" lon="4.67087">
        <ele>302.4136</ele>
        <time>2022-10-02T12:12:08.000Z</time>
      </trkpt>
      <trkpt lat="45.83421" lon="4.67094">
        <ele>302.1807</ele>
        <time>2022-10-02T12:12:09.000Z</time>
      </trkpt>
      <trkpt lat="45.83425" lon="4.67099">
        <ele>302.03679</ele>
        <time>2022-10-02T12:12:10.000Z</time>
      </trkpt>
      <trkpt lat="45.8343" lon="4.67104">
        <ele>301.92235</ele>
        <time>2022-10-02T12:12:11.000Z</time>
      </trkpt>
      <trkpt lat="45.83434" lon="4.67111">
        <ele>301.76431</ele>
        <time>2022-10-02T12:12:12.000Z</time>
      </trkpt>
      <trkpt lat="45.83438" lon="4.67117">
        <ele>301.61645</ele>
        <time>2022-10-02T12:12:13.000Z</time>
      </trkpt>
      <trkpt lat="45.83445" lon="4.67124">
        <ele>301.35091</ele>
        <time>2022-10-02T12:12:14.000Z</time>
      </trkpt>
      <trkpt lat="45.83449" lon="4.67131">
        <ele>301.06648</ele>
        <time>2022-10-02T12:12:15.000Z</time>
      </trkpt>
      <trkpt lat="45.83455" lon="4.67138">
        <ele>300.78271</ele>
        <time>2022-10-02T12:12:16.000Z</time>
      </trkpt>
      <trkpt lat="45.8346" lon="4.67145">
        <ele>300.49934</ele>
        <time>2022-10-02T12:12:17.000Z</time>
      </trkpt>
      <trkpt lat="45.83465" lon="4.67152">
        <ele>300.07932</ele>
        <time>2022-10-02T12:12:18.000Z</time>
      </trkpt>
      <trkpt lat="45.83472" lon="4.67161">
        <ele>299.41595</ele>
        <time>2022-10-02T12:12:19.000Z</time>
      </trkpt>
      <trkpt lat="45.83478" lon="4.67168">
        <ele>298.95754</ele>
        <time>2022-10-02T12:12:20.000Z</time>
      </trkpt>
      <trkpt lat="45.83485" lon="4.67174">
        <ele>298.5311</ele>
        <time>2022-10-02T12:12:21.000Z</time>
      </trkpt>
      <trkpt lat="45.83492" lon="4.67182">
        <ele>297.91817</ele>
        <time>2022-10-02T12:12:22.000Z</time>
      </trkpt>
      <trkpt lat="45.83499" lon="4.67189">
        <ele>297.15171</ele>
        <time>2022-10-02T12:12:23.000Z</time>
      </trkpt>
      <trkpt lat="45.83506" lon="4.67197">
        <ele>296.6313</ele>
        <time>2022-10-02T12:12:24.000Z</time>
      </trkpt>
      <trkpt lat="45.83514" lon="4.67205">
        <ele>296.35027</ele>
        <time>2022-10-02T12:12:25.000Z</time>
      </trkpt>
      <trkpt lat="45.83521" lon="4.67212">
        <ele>295.83776</ele>
        <time>2022-10-02T12:12:26.000Z</time>
      </trkpt>
      <trkpt lat="45.83529" lon="4.67219">
        <ele>295.09908</ele>
        <time>2022-10-02T12:12:27.000Z</time>
      </trkpt>
      <trkpt lat="45.83539" lon="4.67223">
        <ele>294.35977</ele>
        <time>2022-10-02T12:12:28.000Z</time>
      </trkpt>
      <trkpt lat="45.83548" lon="4.67227">
        <ele>293.79577</ele>
        <time>2022-10-02T12:12:29.000Z</time>
      </trkpt>
      <trkpt lat="45.83557" lon="4.67236">
        <ele>293.46627</ele>
        <time>2022-10-02T12:12:30.000Z</time>
      </trkpt>
      <trkpt lat="45.83564" lon="4.67248">
        <ele>292.81871</ele>
        <time>2022-10-02T12:12:31.000Z</time>
      </trkpt>
      <trkpt lat="45.8357" lon="4.67258">
        <ele>292.1874</ele>
        <time>2022-10-02T12:12:32.000Z</time>
      </trkpt>
      <trkpt lat="45.83578" lon="4.67263">
        <ele>291.88492</ele>
        <time>2022-10-02T12:12:33.000Z</time>
      </trkpt>
      <trkpt lat="45.83587" lon="4.67273">
        <ele>291.72526</ele>
        <time>2022-10-02T12:12:34.000Z</time>
      </trkpt>
      <trkpt lat="45.83595" lon="4.67278">
        <ele>291.35682</ele>
        <time>2022-10-02T12:12:35.000Z</time>
      </trkpt>
      <trkpt lat="45.83601" lon="4.67285">
        <ele>290.90948</ele>
        <time>2022-10-02T12:12:36.000Z</time>
      </trkpt>
      <trkpt lat="45.83609" lon="4.67292">
        <ele>290.21226</ele>
        <time>2022-10-02T12:12:37.000Z</time>
      </trkpt>
      <trkpt lat="45.83616" lon="4.67295">
        <ele>289.78466</ele>
        <time>2022-10-02T12:12:38.000Z</time>
      </trkpt>
      <trkpt lat="45.83623" lon="4.67301">
        <ele>289.57675</ele>
        <time>2022-10-02T12:12:39.000Z</time>
      </trkpt>
      <trkpt lat="45.8363" lon="4.67307">
        <ele>289.44045</ele>
        <time>2022-10-02T12:12:40.000Z</time>
      </trkpt>
      <trkpt lat="45.83637" lon="4.67312">
        <ele>289.27115</ele>
        <time>2022-10-02T12:12:41.000Z</time>
      </trkpt>
      <trkpt lat="45.83645" lon="4.67316">
        <ele>288.96649</ele>
        <time>2022-10-02T12:12:42.000Z</time>
      </trkpt>
      <trkpt lat="45.83653" lon="4.67321">
        <ele>288.60342</ele>
        <time>2022-10-02T12:12:43.000Z</time>
      </trkpt>
      <trkpt lat="45.83658" lon="4.67326">
        <ele>288.28701</ele>
        <time>2022-10-02T12:12:44.000Z</time>
      </trkpt>
      <trkpt lat="45.83667" lon="4.67331">
        <ele>287.8408</ele>
        <time>2022-10-02T12:12:45.000Z</time>
      </trkpt>
      <trkpt lat="45.83674" lon="4.67335">
        <ele>287.48371</ele>
        <time>2022-10-02T12:12:46.000Z</time>
      </trkpt>
      <trkpt lat="45.83681" lon="4.67339">
        <ele>287.2669</ele>
        <time>2022-10-02T12:12:47.000Z</time>
      </trkpt>
      <trkpt lat="45.8369" lon="4.67344">
        <ele>286.98352</ele>
        <time>2022-10-02T12:12:48.000Z</time>
      </trkpt>
      <trkpt lat="45.83697" lon="4.67347">
        <ele>286.73317</ele>
        <time>2022-10-02T12:12:49.000Z</time>
      </trkpt>
      <trkpt lat="45.83704" lon="4.67351">
        <ele>286.38127</ele>
        <time>2022-10-02T12:12:50.000Z</time>
      </trkpt>
      <trkpt lat="45.83711" lon="4.67358">
        <ele>286.05283</ele>
        <time>2022-10-02T12:12:51.000Z</time>
      </trkpt>
      <trkpt lat="45.83719" lon="4.67364">
        <ele>285.68891</ele>
        <time>2022-10-02T12:12:52.000Z</time>
      </trkpt>
      <trkpt lat="45.83726" lon="4.67368">
        <ele>285.43605</ele>
        <time>2022-10-02T12:12:53.000Z</time>
      </trkpt>
      <trkpt lat="45.83733" lon="4.67375">
        <ele>285.29067</ele>
        <time>2022-10-02T12:12:54.000Z</time>
      </trkpt>
      <trkpt lat="45.83739" lon="4.67383">
        <ele>285.14343</ele>
        <time>2022-10-02T12:12:55.000Z</time>
      </trkpt>
      <trkpt lat="45.83746" lon="4.67387">
        <ele>284.87188</ele>
        <time>2022-10-02T12:12:56.000Z</time>
      </trkpt>
      <trkpt lat="45.83752" lon="4.67388">
        <ele>284.5737</ele>
        <time>2022-10-02T12:12:57.000Z</time>
      </trkpt>
      <trkpt lat="45.83758" lon="4.67391">
        <ele>284.17224</ele>
        <time>2022-10-02T12:12:58.000Z</time>
      </trkpt>
      <trkpt lat="45.83765" lon="4.67396">
        <ele>283.80252</ele>
        <time>2022-10-02T12:12:59.000Z</time>
      </trkpt>
      <trkpt lat="45.83774" lon="4.674">
        <ele>283.55024</ele>
        <time>2022-10-02T12:13:00.000Z</time>
      </trkpt>
      <trkpt lat="45.8378" lon="4.67405">
        <ele>283.48929</ele>
        <time>2022-10-02T12:13:01.000Z</time>
      </trkpt>
      <trkpt lat="45.83787" lon="4.67408">
        <ele>283.37677</ele>
        <time>2022-10-02T12:13:02.000Z</time>
      </trkpt>
      <trkpt lat="45.83795" lon="4.6741">
        <ele>283.1922</ele>
        <time>2022-10-02T12:13:03.000Z</time>
      </trkpt>
      <trkpt lat="45.83802" lon="4.67411">
        <ele>283.0123</ele>
        <time>2022-10-02T12:13:04.000Z</time>
      </trkpt>
      <trkpt lat="45.83809" lon="4.67415">
        <ele>282.87626</ele>
        <time>2022-10-02T12:13:05.000Z</time>
      </trkpt>
      <trkpt lat="45.83816" lon="4.67417">
        <ele>282.70216</ele>
        <time>2022-10-02T12:13:06.000Z</time>
      </trkpt>
      <trkpt lat="45.83823" lon="4.67418">
        <ele>282.50168</ele>
        <time>2022-10-02T12:13:07.000Z</time>
      </trkpt>
      <trkpt lat="45.8383" lon="4.67421">
        <ele>282.27605</ele>
        <time>2022-10-02T12:13:08.000Z</time>
      </trkpt>
      <trkpt lat="45.83837" lon="4.67424">
        <ele>282.01555</ele>
        <time>2022-10-02T12:13:09.000Z</time>
      </trkpt>
      <trkpt lat="45.83843" lon="4.67427">
        <ele>281.72915</ele>
        <time>2022-10-02T12:13:10.000Z</time>
      </trkpt>
      <trkpt lat="45.8385" lon="4.67429">
        <ele>281.44318</ele>
        <time>2022-10-02T12:13:11.000Z</time>
      </trkpt>
      <trkpt lat="45.83857" lon="4.67431">
        <ele>281.22391</ele>
        <time>2022-10-02T12:13:12.000Z</time>
      </trkpt>
      <trkpt lat="45.83863" lon="4.67434">
        <ele>281.15607</ele>
        <time>2022-10-02T12:13:13.000Z</time>
      </trkpt>
      <trkpt lat="45.83871" lon="4.67437">
        <ele>281.12831</ele>
        <time>2022-10-02T12:13:14.000Z</time>
      </trkpt>
      <trkpt lat="45.83878" lon="4.6744">
        <ele>281.10395</ele>
        <time>2022-10-02T12:13:15.000Z</time>
      </trkpt>
      <trkpt lat="45.83885" lon="4.67444">
        <ele>281.04272</ele>
        <time>2022-10-02T12:13:16.000Z</time>
      </trkpt>
      <trkpt lat="45.83892" lon="4.67447">
        <ele>280.94155</ele>
        <time>2022-10-02T12:13:17.000Z</time>
      </trkpt>
      <trkpt lat="45.83898" lon="4.67451">
        <ele>280.79318</ele>
        <time>2022-10-02T12:13:18.000Z</time>
      </trkpt>
      <trkpt lat="45.83906" lon="4.67455">
        <ele>280.48109</ele>
        <time>2022-10-02T12:13:19.000Z</time>
      </trkpt>
      <trkpt lat="45.83913" lon="4.67457">
        <ele>280.08244</ele>
        <time>2022-10-02T12:13:20.000Z</time>
      </trkpt>
      <trkpt lat="45.8392" lon="4.67459">
        <ele>279.63943</ele>
        <time>2022-10-02T12:13:21.000Z</time>
      </trkpt>
      <trkpt lat="45.83927" lon="4.6746">
        <ele>279.20904</ele>
        <time>2022-10-02T12:13:22.000Z</time>
      </trkpt>
      <trkpt lat="45.83932" lon="4.67464">
        <ele>278.97397</ele>
        <time>2022-10-02T12:13:23.000Z</time>
      </trkpt>
      <trkpt lat="45.83938" lon="4.67466">
        <ele>278.65285</ele>
        <time>2022-10-02T12:13:24.000Z</time>
      </trkpt>
      <trkpt lat="45.83945" lon="4.67468">
        <ele>278.3576</ele>
        <time>2022-10-02T12:13:25.000Z</time>
      </trkpt>
      <trkpt lat="45.83952" lon="4.67472">
        <ele>278.27821</ele>
        <time>2022-10-02T12:13:26.000Z</time>
      </trkpt>
      <trkpt lat="45.8396" lon="4.67474">
        <ele>278.19092</ele>
        <time>2022-10-02T12:13:27.000Z</time>
      </trkpt>
      <trkpt lat="45.83968" lon="4.67475">
        <ele>278.00625</ele>
        <time>2022-10-02T12:13:28.000Z</time>
      </trkpt>
      <trkpt lat="45.83975" lon="4.67477">
        <ele>277.92443</ele>
        <time>2022-10-02T12:13:29.000Z</time>
      </trkpt>
      <trkpt lat="45.83982" lon="4.67479">
        <ele>277.87415</ele>
        <time>2022-10-02T12:13:30.000Z</time>
      </trkpt>
      <trkpt lat="45.8399" lon="4.6748">
        <ele>277.76815</ele>
        <time>2022-10-02T12:13:31.000Z</time>
      </trkpt>
      <trkpt lat="45.83997" lon="4.67481">
        <ele>277.52756</ele>
        <time>2022-10-02T12:13:32.000Z</time>
      </trkpt>
      <trkpt lat="45.84004" lon="4.67484">
        <ele>277.40829</ele>
        <time>2022-10-02T12:13:33.000Z</time>
      </trkpt>
      <trkpt lat="45.84011" lon="4.67484">
        <ele>277.16811</ele>
        <time>2022-10-02T12:13:34.000Z</time>
      </trkpt>
      <trkpt lat="45.84017" lon="4.67486">
        <ele>277.09391</ele>
        <time>2022-10-02T12:13:35.000Z</time>
      </trkpt>
      <trkpt lat="45.84024" lon="4.67487">
        <ele>276.83612</ele>
        <time>2022-10-02T12:13:36.000Z</time>
      </trkpt>
      <trkpt lat="45.8403" lon="4.6749">
        <ele>276.76109</ele>
        <time>2022-10-02T12:13:37.000Z</time>
      </trkpt>
      <trkpt lat="45.84037" lon="4.6749">
        <ele>276.51904</ele>
        <time>2022-10-02T12:13:38.000Z</time>
      </trkpt>
      <trkpt lat="45.84043" lon="4.67492">
        <ele>276.41946</ele>
        <time>2022-10-02T12:13:39.000Z</time>
      </trkpt>
      <trkpt lat="45.84048" lon="4.67492">
        <ele>276.32363</ele>
        <time>2022-10-02T12:13:40.000Z</time>
      </trkpt>
      <trkpt lat="45.84056" lon="4.67491">
        <ele>276.09768</ele>
        <time>2022-10-02T12:13:41.000Z</time>
      </trkpt>
      <trkpt lat="45.84063" lon="4.67492">
        <ele>275.98124</ele>
        <time>2022-10-02T12:13:42.000Z</time>
      </trkpt>
      <trkpt lat="45.84068" lon="4.67494">
        <ele>275.90787</ele>
        <time>2022-10-02T12:13:43.000Z</time>
      </trkpt>
      <trkpt lat="45.84073" lon="4.67499">
        <ele>275.92628</ele>
        <time>2022-10-02T12:13:44.000Z</time>
      </trkpt>
      <trkpt lat="45.8408" lon="4.675">
        <ele>275.8225</ele>
        <time>2022-10-02T12:13:45.000Z</time>
      </trkpt>
      <trkpt lat="45.84086" lon="4.67502">
        <ele>275.82716</ele>
        <time>2022-10-02T12:13:46.000Z</time>
      </trkpt>
      <trkpt lat="45.84092" lon="4.67504">
        <ele>275.87836</ele>
        <time>2022-10-02T12:13:47.000Z</time>
      </trkpt>
      <trkpt lat="45.84098" lon="4.67508">
        <ele>275.96478</ele>
        <time>2022-10-02T12:13:48.000Z</time>
      </trkpt>
      <trkpt lat="45.84103" lon="4.67511">
        <ele>275.94377</ele>
        <time>2022-10-02T12:13:49.000Z</time>
      </trkpt>
      <trkpt lat="45.84108" lon="4.67515">
        <ele>275.8346</ele>
        <time>2022-10-02T12:13:50.000Z</time>
      </trkpt>
      <trkpt lat="45.84114" lon="4.67517">
        <ele>275.65843</ele>
        <time>2022-10-02T12:13:51.000Z</time>
      </trkpt>
      <trkpt lat="45.8412" lon="4.6752">
        <ele>275.48394</ele>
        <time>2022-10-02T12:13:52.000Z</time>
      </trkpt>
      <trkpt lat="45.84124" lon="4.67527">
        <ele>275.43991</ele>
        <time>2022-10-02T12:13:53.000Z</time>
      </trkpt>
      <trkpt lat="45.84129" lon="4.67532">
        <ele>275.37451</ele>
        <time>2022-10-02T12:13:54.000Z</time>
      </trkpt>
      <trkpt lat="45.84133" lon="4.67537">
        <ele>275.25077</ele>
        <time>2022-10-02T12:13:55.000Z</time>
      </trkpt>
      <trkpt lat="45.84139" lon="4.67541">
        <ele>275.0477</ele>
        <time>2022-10-02T12:13:56.000Z</time>
      </trkpt>
      <trkpt lat="45.84143" lon="4.67547">
        <ele>275.24803</ele>
        <time>2022-10-02T12:13:57.000Z</time>
      </trkpt>
      <trkpt lat="45.84148" lon="4.67552">
        <ele>275.26323</ele>
        <time>2022-10-02T12:13:58.000Z</time>
      </trkpt>
      <trkpt lat="45.84154" lon="4.67557">
        <ele>274.78156</ele>
        <time>2022-10-02T12:13:59.000Z</time>
      </trkpt>
      <trkpt lat="45.84158" lon="4.67562">
        <ele>273.33347</ele>
        <time>2022-10-02T12:14:00.000Z</time>
      </trkpt>
      <trkpt lat="45.84163" lon="4.67567">
        <ele>271.10841</ele>
        <time>2022-10-02T12:14:01.000Z</time>
      </trkpt>
      <trkpt lat="45.84168" lon="4.67574">
        <ele>268.9807</ele>
        <time>2022-10-02T12:14:02.000Z</time>
      </trkpt>
      <trkpt lat="45.84172" lon="4.67581">
        <ele>267.93422</ele>
        <time>2022-10-02T12:14:03.000Z</time>
      </trkpt>
      <trkpt lat="45.84178" lon="4.67587">
        <ele>267.4286</ele>
        <time>2022-10-02T12:14:04.000Z</time>
      </trkpt>
      <trkpt lat="45.84182" lon="4.67592">
        <ele>267.25763</ele>
        <time>2022-10-02T12:14:05.000Z</time>
      </trkpt>
      <trkpt lat="45.84187" lon="4.67599">
        <ele>267.31506</ele>
        <time>2022-10-02T12:14:06.000Z</time>
      </trkpt>
      <trkpt lat="45.84191" lon="4.67606">
        <ele>267.86146</ele>
        <time>2022-10-02T12:14:07.000Z</time>
      </trkpt>
      <trkpt lat="45.84197" lon="4.67611">
        <ele>269.28109</ele>
        <time>2022-10-02T12:14:08.000Z</time>
      </trkpt>
      <trkpt lat="45.84201" lon="4.67617">
        <ele>270.94046</ele>
        <time>2022-10-02T12:14:09.000Z</time>
      </trkpt>
      <trkpt lat="45.84206" lon="4.67624">
        <ele>272.66342</ele>
        <time>2022-10-02T12:14:10.000Z</time>
      </trkpt>
      <trkpt lat="45.84211" lon="4.67628">
        <ele>273.48635</ele>
        <time>2022-10-02T12:14:11.000Z</time>
      </trkpt>
      <trkpt lat="45.84217" lon="4.67634">
        <ele>273.97565</ele>
        <time>2022-10-02T12:14:12.000Z</time>
      </trkpt>
      <trkpt lat="45.84224" lon="4.67637">
        <ele>273.90728</ele>
        <time>2022-10-02T12:14:13.000Z</time>
      </trkpt>
      <trkpt lat="45.84231" lon="4.6764">
        <ele>273.61288</ele>
        <time>2022-10-02T12:14:14.000Z</time>
      </trkpt>
      <trkpt lat="45.84236" lon="4.67643">
        <ele>273.41445</ele>
        <time>2022-10-02T12:14:15.000Z</time>
      </trkpt>
      <trkpt lat="45.84244" lon="4.67646">
        <ele>273.31798</ele>
        <time>2022-10-02T12:14:16.000Z</time>
      </trkpt>
      <trkpt lat="45.84251" lon="4.67647">
        <ele>273.24899</ele>
        <time>2022-10-02T12:14:17.000Z</time>
      </trkpt>
      <trkpt lat="45.84258" lon="4.67648">
        <ele>273.19089</ele>
        <time>2022-10-02T12:14:18.000Z</time>
      </trkpt>
      <trkpt lat="45.84265" lon="4.6765">
        <ele>273.05847</ele>
        <time>2022-10-02T12:14:19.000Z</time>
      </trkpt>
      <trkpt lat="45.84273" lon="4.67649">
        <ele>272.80981</ele>
        <time>2022-10-02T12:14:20.000Z</time>
      </trkpt>
      <trkpt lat="45.8428" lon="4.67647">
        <ele>272.62852</ele>
        <time>2022-10-02T12:14:21.000Z</time>
      </trkpt>
      <trkpt lat="45.84287" lon="4.67646">
        <ele>272.52127</ele>
        <time>2022-10-02T12:14:22.000Z</time>
      </trkpt>
      <trkpt lat="45.84294" lon="4.67644">
        <ele>272.4347</ele>
        <time>2022-10-02T12:14:23.000Z</time>
      </trkpt>
      <trkpt lat="45.84301" lon="4.6764">
        <ele>272.35848</ele>
        <time>2022-10-02T12:14:24.000Z</time>
      </trkpt>
      <trkpt lat="45.84307" lon="4.67636">
        <ele>272.43025</ele>
        <time>2022-10-02T12:14:25.000Z</time>
      </trkpt>
      <trkpt lat="45.84313" lon="4.67633">
        <ele>272.66093</ele>
        <time>2022-10-02T12:14:26.000Z</time>
      </trkpt>
      <trkpt lat="45.84317" lon="4.67628">
        <ele>272.89153</ele>
        <time>2022-10-02T12:14:27.000Z</time>
      </trkpt>
      <trkpt lat="45.84322" lon="4.67624">
        <ele>273.03069</ele>
        <time>2022-10-02T12:14:28.000Z</time>
      </trkpt>
      <trkpt lat="45.84327" lon="4.67621">
        <ele>273.04083</ele>
        <time>2022-10-02T12:14:29.000Z</time>
      </trkpt>
      <trkpt lat="45.84332" lon="4.67618">
        <ele>272.94447</ele>
        <time>2022-10-02T12:14:30.000Z</time>
      </trkpt>
      <trkpt lat="45.84337" lon="4.67616">
        <ele>272.84138</ele>
        <time>2022-10-02T12:14:31.000Z</time>
      </trkpt>
      <trkpt lat="45.84343" lon="4.67613">
        <ele>272.70374</ele>
        <time>2022-10-02T12:14:32.000Z</time>
      </trkpt>
      <trkpt lat="45.84347" lon="4.67609">
        <ele>272.65594</ele>
        <time>2022-10-02T12:14:33.000Z</time>
      </trkpt>
      <trkpt lat="45.84352" lon="4.67607">
        <ele>272.6908</ele>
        <time>2022-10-02T12:14:34.000Z</time>
      </trkpt>
      <trkpt lat="45.84357" lon="4.67606">
        <ele>272.78969</ele>
        <time>2022-10-02T12:14:35.000Z</time>
      </trkpt>
      <trkpt lat="45.84361" lon="4.67606">
        <ele>272.904</ele>
        <time>2022-10-02T12:14:36.000Z</time>
      </trkpt>
      <trkpt lat="45.84373" lon="4.67603">
        <ele>273.21411</ele>
        <time>2022-10-02T12:14:38.000Z</time>
      </trkpt>
      <trkpt lat="45.84378" lon="4.676">
        <ele>273.30216</ele>
        <time>2022-10-02T12:14:39.000Z</time>
      </trkpt>
      <trkpt lat="45.84382" lon="4.676">
        <ele>273.34853</ele>
        <time>2022-10-02T12:14:40.000Z</time>
      </trkpt>
      <trkpt lat="45.84388" lon="4.676">
        <ele>273.40381</ele>
        <time>2022-10-02T12:14:41.000Z</time>
      </trkpt>
      <trkpt lat="45.84393" lon="4.67598">
        <ele>273.46502</ele>
        <time>2022-10-02T12:14:42.000Z</time>
      </trkpt>
      <trkpt lat="45.84397" lon="4.67599">
        <ele>273.49147</ele>
        <time>2022-10-02T12:14:43.000Z</time>
      </trkpt>
      <trkpt lat="45.84404" lon="4.67601">
        <ele>273.54876</ele>
        <time>2022-10-02T12:14:44.000Z</time>
      </trkpt>
      <trkpt lat="45.84409" lon="4.67602">
        <ele>273.59784</ele>
        <time>2022-10-02T12:14:45.000Z</time>
      </trkpt>
      <trkpt lat="45.84414" lon="4.67601">
        <ele>273.63221</ele>
        <time>2022-10-02T12:14:46.000Z</time>
      </trkpt>
      <trkpt lat="45.84418" lon="4.67599">
        <ele>273.62103</ele>
        <time>2022-10-02T12:14:47.000Z</time>
      </trkpt>
      <trkpt lat="45.84422" lon="4.676">
        <ele>273.60723</ele>
        <time>2022-10-02T12:14:48.000Z</time>
      </trkpt>
      <trkpt lat="45.84427" lon="4.67602">
        <ele>273.56761</ele>
        <time>2022-10-02T12:14:49.000Z</time>
      </trkpt>
      <trkpt lat="45.84432" lon="4.67599">
        <ele>273.50609</ele>
        <time>2022-10-02T12:14:50.000Z</time>
      </trkpt>
      <trkpt lat="45.84437" lon="4.67597">
        <ele>273.48347</ele>
        <time>2022-10-02T12:14:51.000Z</time>
      </trkpt>
      <trkpt lat="45.8444" lon="4.67596">
        <ele>273.4871</ele>
        <time>2022-10-02T12:14:52.000Z</time>
      </trkpt>
      <trkpt lat="45.84444" lon="4.67591">
        <ele>273.55808</ele>
        <time>2022-10-02T12:14:53.000Z</time>
      </trkpt>
      <trkpt lat="45.84449" lon="4.67586">
        <ele>273.67115</ele>
        <time>2022-10-02T12:14:54.000Z</time>
      </trkpt>
      <trkpt lat="45.84452" lon="4.67583">
        <ele>273.73905</ele>
        <time>2022-10-02T12:14:55.000Z</time>
      </trkpt>
      <trkpt lat="45.84455" lon="4.6758">
        <ele>273.81307</ele>
        <time>2022-10-02T12:14:56.000Z</time>
      </trkpt>
      <trkpt lat="45.84459" lon="4.67575">
        <ele>273.88508</ele>
        <time>2022-10-02T12:14:57.000Z</time>
      </trkpt>
      <trkpt lat="45.84463" lon="4.67573">
        <ele>273.91243</ele>
        <time>2022-10-02T12:14:58.000Z</time>
      </trkpt>
      <trkpt lat="45.84467" lon="4.67569">
        <ele>273.933</ele>
        <time>2022-10-02T12:14:59.000Z</time>
      </trkpt>
      <trkpt lat="45.8447" lon="4.67565">
        <ele>273.92623</ele>
        <time>2022-10-02T12:15:00.000Z</time>
      </trkpt>
      <trkpt lat="45.84475" lon="4.67562">
        <ele>273.88051</ele>
        <time>2022-10-02T12:15:01.000Z</time>
      </trkpt>
      <trkpt lat="45.84478" lon="4.67559">
        <ele>273.85253</ele>
        <time>2022-10-02T12:15:02.000Z</time>
      </trkpt>
      <trkpt lat="45.84483" lon="4.67554">
        <ele>273.85011</ele>
        <time>2022-10-02T12:15:03.000Z</time>
      </trkpt>
      <trkpt lat="45.84487" lon="4.67553">
        <ele>273.89522</ele>
        <time>2022-10-02T12:15:04.000Z</time>
      </trkpt>
      <trkpt lat="45.84494" lon="4.67554">
        <ele>274.17826</ele>
        <time>2022-10-02T12:15:05.000Z</time>
      </trkpt>
      <trkpt lat="45.84499" lon="4.67554">
        <ele>274.43718</ele>
        <time>2022-10-02T12:15:06.000Z</time>
      </trkpt>
      <trkpt lat="45.84504" lon="4.67557">
        <ele>274.53967</ele>
        <time>2022-10-02T12:15:07.000Z</time>
      </trkpt>
      <trkpt lat="45.84508" lon="4.67561">
        <ele>274.36498</ele>
        <time>2022-10-02T12:15:08.000Z</time>
      </trkpt>
      <trkpt lat="45.84511" lon="4.67566">
        <ele>274.02541</ele>
        <time>2022-10-02T12:15:09.000Z</time>
      </trkpt>
      <trkpt lat="45.84516" lon="4.67571">
        <ele>273.5521</ele>
        <time>2022-10-02T12:15:10.000Z</time>
      </trkpt>
      <trkpt lat="45.84521" lon="4.67576">
        <ele>273.26333</ele>
        <time>2022-10-02T12:15:11.000Z</time>
      </trkpt>
      <trkpt lat="45.84526" lon="4.67579">
        <ele>273.17134</ele>
        <time>2022-10-02T12:15:12.000Z</time>
      </trkpt>
      <trkpt lat="45.8453" lon="4.67582">
        <ele>273.26969</ele>
        <time>2022-10-02T12:15:13.000Z</time>
      </trkpt>
      <trkpt lat="45.84534" lon="4.67585">
        <ele>273.43877</ele>
        <time>2022-10-02T12:15:14.000Z</time>
      </trkpt>
      <trkpt lat="45.84539" lon="4.67588">
        <ele>273.61734</ele>
        <time>2022-10-02T12:15:15.000Z</time>
      </trkpt>
      <trkpt lat="45.84546" lon="4.67589">
        <ele>273.82777</ele>
        <time>2022-10-02T12:15:16.000Z</time>
      </trkpt>
      <trkpt lat="45.84551" lon="4.67591">
        <ele>273.96556</ele>
        <time>2022-10-02T12:15:17.000Z</time>
      </trkpt>
      <trkpt lat="45.84556" lon="4.67594">
        <ele>274.03417</ele>
        <time>2022-10-02T12:15:18.000Z</time>
      </trkpt>
      <trkpt lat="45.84561" lon="4.67594">
        <ele>274.10013</ele>
        <time>2022-10-02T12:15:19.000Z</time>
      </trkpt>
      <trkpt lat="45.84565" lon="4.67595">
        <ele>274.1403</ele>
        <time>2022-10-02T12:15:20.000Z</time>
      </trkpt>
      <trkpt lat="45.84572" lon="4.67595">
        <ele>274.18379</ele>
        <time>2022-10-02T12:15:21.000Z</time>
      </trkpt>
      <trkpt lat="45.84577" lon="4.67596">
        <ele>274.19536</ele>
        <time>2022-10-02T12:15:22.000Z</time>
      </trkpt>
      <trkpt lat="45.84582" lon="4.67595">
        <ele>274.2121</ele>
        <time>2022-10-02T12:15:23.000Z</time>
      </trkpt>
      <trkpt lat="45.84588" lon="4.67594">
        <ele>274.19893</ele>
        <time>2022-10-02T12:15:24.000Z</time>
      </trkpt>
      <trkpt lat="45.84594" lon="4.67594">
        <ele>274.14821</ele>
        <time>2022-10-02T12:15:25.000Z</time>
      </trkpt>
      <trkpt lat="45.84599" lon="4.67592">
        <ele>274.06843</ele>
        <time>2022-10-02T12:15:26.000Z</time>
      </trkpt>
      <trkpt lat="45.84605" lon="4.67588">
        <ele>273.87019</ele>
        <time>2022-10-02T12:15:27.000Z</time>
      </trkpt>
      <trkpt lat="45.8461" lon="4.67585">
        <ele>273.63235</ele>
        <time>2022-10-02T12:15:28.000Z</time>
      </trkpt>
      <trkpt lat="45.84616" lon="4.67582">
        <ele>273.36204</ele>
        <time>2022-10-02T12:15:29.000Z</time>
      </trkpt>
      <trkpt lat="45.84621" lon="4.67578">
        <ele>273.24676</ele>
        <time>2022-10-02T12:15:30.000Z</time>
      </trkpt>
      <trkpt lat="45.84626" lon="4.67575">
        <ele>273.27275</ele>
        <time>2022-10-02T12:15:31.000Z</time>
      </trkpt>
      <trkpt lat="45.8463" lon="4.67572">
        <ele>273.31674</ele>
        <time>2022-10-02T12:15:32.000Z</time>
      </trkpt>
      <trkpt lat="45.84635" lon="4.67569">
        <ele>273.33168</ele>
        <time>2022-10-02T12:15:33.000Z</time>
      </trkpt>
      <trkpt lat="45.84641" lon="4.67564">
        <ele>273.29406</ele>
        <time>2022-10-02T12:15:34.000Z</time>
      </trkpt>
      <trkpt lat="45.84644" lon="4.67558">
        <ele>273.24122</ele>
        <time>2022-10-02T12:15:35.000Z</time>
      </trkpt>
      <trkpt lat="45.84647" lon="4.67552">
        <ele>273.15916</ele>
        <time>2022-10-02T12:15:36.000Z</time>
      </trkpt>
      <trkpt lat="45.8465" lon="4.67545">
        <ele>273.0318</ele>
        <time>2022-10-02T12:15:37.000Z</time>
      </trkpt>
      <trkpt lat="45.84653" lon="4.67539">
        <ele>272.97979</ele>
        <time>2022-10-02T12:15:38.000Z</time>
      </trkpt>
      <trkpt lat="45.84655" lon="4.67533">
        <ele>272.88929</ele>
        <time>2022-10-02T12:15:39.000Z</time>
      </trkpt>
      <trkpt lat="45.84659" lon="4.67527">
        <ele>272.79053</ele>
        <time>2022-10-02T12:15:40.000Z</time>
      </trkpt>
      <trkpt lat="45.84662" lon="4.67521">
        <ele>272.7789</ele>
        <time>2022-10-02T12:15:41.000Z</time>
      </trkpt>
      <trkpt lat="45.84665" lon="4.67513">
        <ele>272.97519</ele>
        <time>2022-10-02T12:15:42.000Z</time>
      </trkpt>
      <trkpt lat="45.84668" lon="4.67506">
        <ele>273.44074</ele>
        <time>2022-10-02T12:15:43.000Z</time>
      </trkpt>
      <trkpt lat="45.84671" lon="4.675">
        <ele>273.80807</ele>
        <time>2022-10-02T12:15:44.000Z</time>
      </trkpt>
      <trkpt lat="45.84674" lon="4.67493">
        <ele>273.9345</ele>
        <time>2022-10-02T12:15:45.000Z</time>
      </trkpt>
      <trkpt lat="45.84678" lon="4.67486">
        <ele>273.59671</ele>
        <time>2022-10-02T12:15:46.000Z</time>
      </trkpt>
      <trkpt lat="45.8468" lon="4.6748">
        <ele>273.16217</ele>
        <time>2022-10-02T12:15:47.000Z</time>
      </trkpt>
      <trkpt lat="45.84683" lon="4.67473">
        <ele>272.58963</ele>
        <time>2022-10-02T12:15:48.000Z</time>
      </trkpt>
      <trkpt lat="45.84687" lon="4.67467">
        <ele>272.1255</ele>
        <time>2022-10-02T12:15:49.000Z</time>
      </trkpt>
      <trkpt lat="45.84694" lon="4.67464">
        <ele>271.9171</ele>
        <time>2022-10-02T12:15:50.000Z</time>
      </trkpt>
      <trkpt lat="45.847" lon="4.67458">
        <ele>271.58297</ele>
        <time>2022-10-02T12:15:51.000Z</time>
      </trkpt>
      <trkpt lat="45.84707" lon="4.67458">
        <ele>271.22657</ele>
        <time>2022-10-02T12:15:52.000Z</time>
      </trkpt>
      <trkpt lat="45.84713" lon="4.67457">
        <ele>271.03403</ele>
        <time>2022-10-02T12:15:53.000Z</time>
      </trkpt>
      <trkpt lat="45.84719" lon="4.67455">
        <ele>271.06134</ele>
        <time>2022-10-02T12:15:54.000Z</time>
      </trkpt>
      <trkpt lat="45.84726" lon="4.67454">
        <ele>271.18018</ele>
        <time>2022-10-02T12:15:55.000Z</time>
      </trkpt>
      <trkpt lat="45.84731" lon="4.67455">
        <ele>271.22323</ele>
        <time>2022-10-02T12:15:56.000Z</time>
      </trkpt>
      <trkpt lat="45.84737" lon="4.67452">
        <ele>271.5617</ele>
        <time>2022-10-02T12:15:57.000Z</time>
      </trkpt>
      <trkpt lat="45.84742" lon="4.6745">
        <ele>271.97264</ele>
        <time>2022-10-02T12:15:58.000Z</time>
      </trkpt>
      <trkpt lat="45.84747" lon="4.67448">
        <ele>272.35355</ele>
        <time>2022-10-02T12:15:59.000Z</time>
      </trkpt>
      <trkpt lat="45.84753" lon="4.67447">
        <ele>272.66783</ele>
        <time>2022-10-02T12:16:00.000Z</time>
      </trkpt>
      <trkpt lat="45.8476" lon="4.67446">
        <ele>272.78458</ele>
        <time>2022-10-02T12:16:01.000Z</time>
      </trkpt>
      <trkpt lat="45.84762" lon="4.67448">
        <ele>272.55045</ele>
        <time>2022-10-02T12:16:02.000Z</time>
      </trkpt>
      <trkpt lat="45.84769" lon="4.67447">
        <ele>272.36412</ele>
        <time>2022-10-02T12:16:03.000Z</time>
      </trkpt>
      <trkpt lat="45.84774" lon="4.67446">
        <ele>272.0945</ele>
        <time>2022-10-02T12:16:04.000Z</time>
      </trkpt>
      <trkpt lat="45.84777" lon="4.67456">
        <ele>272.35738</ele>
        <time>2022-10-02T12:16:05.000Z</time>
      </trkpt>
      <trkpt lat="45.84781" lon="4.67454">
        <ele>272.30774</ele>
        <time>2022-10-02T12:16:06.000Z</time>
      </trkpt>
      <trkpt lat="45.84783" lon="4.67463">
        <ele>272.53502</ele>
        <time>2022-10-02T12:16:07.000Z</time>
      </trkpt>
      <trkpt lat="45.84787" lon="4.67461">
        <ele>272.46571</ele>
        <time>2022-10-02T12:16:08.000Z</time>
      </trkpt>
      <trkpt lat="45.84791" lon="4.6746">
        <ele>272.40275</ele>
        <time>2022-10-02T12:16:09.000Z</time>
      </trkpt>
      <trkpt lat="45.84795" lon="4.67462">
        <ele>272.35557</ele>
        <time>2022-10-02T12:16:10.000Z</time>
      </trkpt>
      <trkpt lat="45.84801" lon="4.67461">
        <ele>272.24106</ele>
        <time>2022-10-02T12:16:11.000Z</time>
      </trkpt>
      <trkpt lat="45.84805" lon="4.6746">
        <ele>272.19638</ele>
        <time>2022-10-02T12:16:12.000Z</time>
      </trkpt>
      <trkpt lat="45.8481" lon="4.67461">
        <ele>272.1353</ele>
        <time>2022-10-02T12:16:13.000Z</time>
      </trkpt>
      <trkpt lat="45.84815" lon="4.6746">
        <ele>272.06717</ele>
        <time>2022-10-02T12:16:14.000Z</time>
      </trkpt>
      <trkpt lat="45.84819" lon="4.67461">
        <ele>272.00755</ele>
        <time>2022-10-02T12:16:15.000Z</time>
      </trkpt>
      <trkpt lat="45.84822" lon="4.67461">
        <ele>271.94381</ele>
        <time>2022-10-02T12:16:16.000Z</time>
      </trkpt>
      <trkpt lat="45.84826" lon="4.6746">
        <ele>271.85479</ele>
        <time>2022-10-02T12:16:17.000Z</time>
      </trkpt>
      <trkpt lat="45.84833" lon="4.67461">
        <ele>271.65571</ele>
        <time>2022-10-02T12:16:18.000Z</time>
      </trkpt>
      <trkpt lat="45.84838" lon="4.6746">
        <ele>271.46853</ele>
        <time>2022-10-02T12:16:19.000Z</time>
      </trkpt>
      <trkpt lat="45.84843" lon="4.67458">
        <ele>271.30248</ele>
        <time>2022-10-02T12:16:20.000Z</time>
      </trkpt>
      <trkpt lat="45.84849" lon="4.67457">
        <ele>271.12189</ele>
        <time>2022-10-02T12:16:21.000Z</time>
      </trkpt>
      <trkpt lat="45.84853" lon="4.67457">
        <ele>270.98371</ele>
        <time>2022-10-02T12:16:22.000Z</time>
      </trkpt>
      <trkpt lat="45.84858" lon="4.67458">
        <ele>270.81126</ele>
        <time>2022-10-02T12:16:23.000Z</time>
      </trkpt>
      <trkpt lat="45.84863" lon="4.67457">
        <ele>270.65825</ele>
        <time>2022-10-02T12:16:24.000Z</time>
      </trkpt>
      <trkpt lat="45.84867" lon="4.67457">
        <ele>270.56226</ele>
        <time>2022-10-02T12:16:25.000Z</time>
      </trkpt>
      <trkpt lat="45.84873" lon="4.67456">
        <ele>270.46143</ele>
        <time>2022-10-02T12:16:26.000Z</time>
      </trkpt>
      <trkpt lat="45.84879" lon="4.67456">
        <ele>270.43756</ele>
        <time>2022-10-02T12:16:27.000Z</time>
      </trkpt>
      <trkpt lat="45.84884" lon="4.67455">
        <ele>270.43082</ele>
        <time>2022-10-02T12:16:28.000Z</time>
      </trkpt>
      <trkpt lat="45.8489" lon="4.67453">
        <ele>270.39347</ele>
        <time>2022-10-02T12:16:29.000Z</time>
      </trkpt>
      <trkpt lat="45.84896" lon="4.67452">
        <ele>270.31341</ele>
        <time>2022-10-02T12:16:30.000Z</time>
      </trkpt>
      <trkpt lat="45.84902" lon="4.6745">
        <ele>270.18828</ele>
        <time>2022-10-02T12:16:31.000Z</time>
      </trkpt>
      <trkpt lat="45.84907" lon="4.67448">
        <ele>270.09345</ele>
        <time>2022-10-02T12:16:32.000Z</time>
      </trkpt>
      <trkpt lat="45.84912" lon="4.67448">
        <ele>270.00756</ele>
        <time>2022-10-02T12:16:33.000Z</time>
      </trkpt>
      <trkpt lat="45.84917" lon="4.67446">
        <ele>269.94918</ele>
        <time>2022-10-02T12:16:34.000Z</time>
      </trkpt>
      <trkpt lat="45.84922" lon="4.67444">
        <ele>269.90487</ele>
        <time>2022-10-02T12:16:35.000Z</time>
      </trkpt>
      <trkpt lat="45.84927" lon="4.67444">
        <ele>269.85716</ele>
        <time>2022-10-02T12:16:36.000Z</time>
      </trkpt>
      <trkpt lat="45.84932" lon="4.67441">
        <ele>269.7874</ele>
        <time>2022-10-02T12:16:37.000Z</time>
      </trkpt>
      <trkpt lat="45.84938" lon="4.67439">
        <ele>269.6617</ele>
        <time>2022-10-02T12:16:38.000Z</time>
      </trkpt>
      <trkpt lat="45.84945" lon="4.67438">
        <ele>269.46908</ele>
        <time>2022-10-02T12:16:39.000Z</time>
      </trkpt>
      <trkpt lat="45.84951" lon="4.67439">
        <ele>269.28497</ele>
        <time>2022-10-02T12:16:40.000Z</time>
      </trkpt>
      <trkpt lat="45.84956" lon="4.67443">
        <ele>269.19672</ele>
        <time>2022-10-02T12:16:41.000Z</time>
      </trkpt>
      <trkpt lat="45.84962" lon="4.67444">
        <ele>269.02992</ele>
        <time>2022-10-02T12:16:42.000Z</time>
      </trkpt>
      <trkpt lat="45.84968" lon="4.67441">
        <ele>268.87896</ele>
        <time>2022-10-02T12:16:43.000Z</time>
      </trkpt>
      <trkpt lat="45.84972" lon="4.67439">
        <ele>268.77198</ele>
        <time>2022-10-02T12:16:44.000Z</time>
      </trkpt>
      <trkpt lat="45.84979" lon="4.67433">
        <ele>268.61633</ele>
        <time>2022-10-02T12:16:45.000Z</time>
      </trkpt>
      <trkpt lat="45.84985" lon="4.67433">
        <ele>268.51683</ele>
        <time>2022-10-02T12:16:46.000Z</time>
      </trkpt>
      <trkpt lat="45.84991" lon="4.67432">
        <ele>268.42392</ele>
        <time>2022-10-02T12:16:47.000Z</time>
      </trkpt>
      <trkpt lat="45.84996" lon="4.6743">
        <ele>268.32091</ele>
        <time>2022-10-02T12:16:48.000Z</time>
      </trkpt>
      <trkpt lat="45.85001" lon="4.67427">
        <ele>268.16542</ele>
        <time>2022-10-02T12:16:49.000Z</time>
      </trkpt>
      <trkpt lat="45.85006" lon="4.67429">
        <ele>268.12689</ele>
        <time>2022-10-02T12:16:50.000Z</time>
      </trkpt>
      <trkpt lat="45.85012" lon="4.67428">
        <ele>267.93696</ele>
        <time>2022-10-02T12:16:51.000Z</time>
      </trkpt>
      <trkpt lat="45.85019" lon="4.67427">
        <ele>267.67465</ele>
        <time>2022-10-02T12:16:52.000Z</time>
      </trkpt>
      <trkpt lat="45.85027" lon="4.67422">
        <ele>267.2928</ele>
        <time>2022-10-02T12:16:53.000Z</time>
      </trkpt>
      <trkpt lat="45.85031" lon="4.67418">
        <ele>266.98708</ele>
        <time>2022-10-02T12:16:54.000Z</time>
      </trkpt>
      <trkpt lat="45.85038" lon="4.67413">
        <ele>266.57658</ele>
        <time>2022-10-02T12:16:55.000Z</time>
      </trkpt>
      <trkpt lat="45.85046" lon="4.6741">
        <ele>266.16288</ele>
        <time>2022-10-02T12:16:56.000Z</time>
      </trkpt>
      <trkpt lat="45.85052" lon="4.67405">
        <ele>265.77953</ele>
        <time>2022-10-02T12:16:57.000Z</time>
      </trkpt>
      <trkpt lat="45.85058" lon="4.674">
        <ele>265.36726</ele>
        <time>2022-10-02T12:16:58.000Z</time>
      </trkpt>
      <trkpt lat="45.85064" lon="4.67396">
        <ele>264.9761</ele>
        <time>2022-10-02T12:16:59.000Z</time>
      </trkpt>
      <trkpt lat="45.85068" lon="4.67395">
        <ele>264.82655</ele>
        <time>2022-10-02T12:17:00.000Z</time>
      </trkpt>
      <trkpt lat="45.85075" lon="4.6739">
        <ele>264.4774</ele>
        <time>2022-10-02T12:17:01.000Z</time>
      </trkpt>
      <trkpt lat="45.85083" lon="4.67387">
        <ele>264.16438</ele>
        <time>2022-10-02T12:17:02.000Z</time>
      </trkpt>
      <trkpt lat="45.8509" lon="4.67383">
        <ele>263.82651</ele>
        <time>2022-10-02T12:17:03.000Z</time>
      </trkpt>
      <trkpt lat="45.85097" lon="4.67379">
        <ele>263.57886</ele>
        <time>2022-10-02T12:17:04.000Z</time>
      </trkpt>
      <trkpt lat="45.85104" lon="4.67375">
        <ele>263.36645</ele>
        <time>2022-10-02T12:17:05.000Z</time>
      </trkpt>
      <trkpt lat="45.85109" lon="4.67371">
        <ele>263.23966</ele>
        <time>2022-10-02T12:17:06.000Z</time>
      </trkpt>
      <trkpt lat="45.85116" lon="4.67367">
        <ele>263.08219</ele>
        <time>2022-10-02T12:17:07.000Z</time>
      </trkpt>
      <trkpt lat="45.85122" lon="4.67364">
        <ele>262.92702</ele>
        <time>2022-10-02T12:17:08.000Z</time>
      </trkpt>
      <trkpt lat="45.85127" lon="4.67359">
        <ele>262.6585</ele>
        <time>2022-10-02T12:17:09.000Z</time>
      </trkpt>
      <trkpt lat="45.85133" lon="4.67355">
        <ele>262.40796</ele>
        <time>2022-10-02T12:17:10.000Z</time>
      </trkpt>
      <trkpt lat="45.85139" lon="4.67354">
        <ele>262.26913</ele>
        <time>2022-10-02T12:17:11.000Z</time>
      </trkpt>
      <trkpt lat="45.85146" lon="4.6735">
        <ele>262.12235</ele>
        <time>2022-10-02T12:17:12.000Z</time>
      </trkpt>
      <trkpt lat="45.8515" lon="4.67346">
        <ele>261.99283</ele>
        <time>2022-10-02T12:17:13.000Z</time>
      </trkpt>
      <trkpt lat="45.85155" lon="4.67341">
        <ele>261.88531</ele>
        <time>2022-10-02T12:17:14.000Z</time>
      </trkpt>
      <trkpt lat="45.8516" lon="4.67338">
        <ele>261.8461</ele>
        <time>2022-10-02T12:17:15.000Z</time>
      </trkpt>
      <trkpt lat="45.85166" lon="4.67334">
        <ele>261.70483</ele>
        <time>2022-10-02T12:17:16.000Z</time>
      </trkpt>
      <trkpt lat="45.85171" lon="4.67333">
        <ele>261.6722</ele>
        <time>2022-10-02T12:17:17.000Z</time>
      </trkpt>
      <trkpt lat="45.85176" lon="4.67329">
        <ele>261.48643</ele>
        <time>2022-10-02T12:17:18.000Z</time>
      </trkpt>
      <trkpt lat="45.85181" lon="4.67326">
        <ele>261.35031</ele>
        <time>2022-10-02T12:17:19.000Z</time>
      </trkpt>
      <trkpt lat="45.85187" lon="4.67325">
        <ele>261.31141</ele>
        <time>2022-10-02T12:17:20.000Z</time>
      </trkpt>
      <trkpt lat="45.85193" lon="4.67324">
        <ele>261.29085</ele>
        <time>2022-10-02T12:17:21.000Z</time>
      </trkpt>
      <trkpt lat="45.85197" lon="4.67321">
        <ele>261.22004</ele>
        <time>2022-10-02T12:17:22.000Z</time>
      </trkpt>
      <trkpt lat="45.85203" lon="4.67322">
        <ele>261.36206</ele>
        <time>2022-10-02T12:17:23.000Z</time>
      </trkpt>
      <trkpt lat="45.85209" lon="4.67323">
        <ele>261.47589</ele>
        <time>2022-10-02T12:17:24.000Z</time>
      </trkpt>
      <trkpt lat="45.85213" lon="4.67327">
        <ele>261.66598</ele>
        <time>2022-10-02T12:17:25.000Z</time>
      </trkpt>
      <trkpt lat="45.85217" lon="4.67331">
        <ele>261.85568</ele>
        <time>2022-10-02T12:17:26.000Z</time>
      </trkpt>
      <trkpt lat="45.85221" lon="4.67336">
        <ele>262.01824</ele>
        <time>2022-10-02T12:17:27.000Z</time>
      </trkpt>
      <trkpt lat="45.85221" lon="4.67341">
        <ele>262.18547</ele>
        <time>2022-10-02T12:17:28.000Z</time>
      </trkpt>
      <trkpt lat="45.85222" lon="4.67344">
        <ele>262.25523</ele>
        <time>2022-10-02T12:17:29.000Z</time>
      </trkpt>
      <trkpt lat="45.85224" lon="4.67345">
        <ele>262.30777</ele>
        <time>2022-10-02T12:17:30.000Z</time>
      </trkpt>
      <trkpt lat="45.85229" lon="4.67346">
        <ele>262.33821</ele>
        <time>2022-10-02T12:17:31.000Z</time>
      </trkpt>
      <trkpt lat="45.85234" lon="4.67345">
        <ele>262.3234</ele>
        <time>2022-10-02T12:17:32.000Z</time>
      </trkpt>
      <trkpt lat="45.85237" lon="4.67345">
        <ele>262.33061</ele>
        <time>2022-10-02T12:17:33.000Z</time>
      </trkpt>
      <trkpt lat="45.85241" lon="4.67344">
        <ele>262.30685</ele>
        <time>2022-10-02T12:17:34.000Z</time>
      </trkpt>
      <trkpt lat="45.85244" lon="4.6734">
        <ele>262.25088</ele>
        <time>2022-10-02T12:17:35.000Z</time>
      </trkpt>
      <trkpt lat="45.85249" lon="4.67339">
        <ele>262.25486</ele>
        <time>2022-10-02T12:17:36.000Z</time>
      </trkpt>
      <trkpt lat="45.85253" lon="4.67337">
        <ele>262.24949</ele>
        <time>2022-10-02T12:17:37.000Z</time>
      </trkpt>
      <trkpt lat="45.85257" lon="4.67335">
        <ele>262.23071</ele>
        <time>2022-10-02T12:17:38.000Z</time>
      </trkpt>
      <trkpt lat="45.85261" lon="4.67332">
        <ele>262.19317</ele>
        <time>2022-10-02T12:17:39.000Z</time>
      </trkpt>
      <trkpt lat="45.85264" lon="4.67329">
        <ele>262.13423</ele>
        <time>2022-10-02T12:17:40.000Z</time>
      </trkpt>
      <trkpt lat="45.85268" lon="4.67326">
        <ele>262.08586</ele>
        <time>2022-10-02T12:17:41.000Z</time>
      </trkpt>
      <trkpt lat="45.85272" lon="4.67324">
        <ele>262.0658</ele>
        <time>2022-10-02T12:17:42.000Z</time>
      </trkpt>
      <trkpt lat="45.85275" lon="4.67323">
        <ele>262.0746</ele>
        <time>2022-10-02T12:17:43.000Z</time>
      </trkpt>
      <trkpt lat="45.85279" lon="4.67322">
        <ele>262.12291</ele>
        <time>2022-10-02T12:17:44.000Z</time>
      </trkpt>
      <trkpt lat="45.85283" lon="4.67319">
        <ele>262.16141</ele>
        <time>2022-10-02T12:17:45.000Z</time>
      </trkpt>
      <trkpt lat="45.85285" lon="4.67316">
        <ele>262.16852</ele>
        <time>2022-10-02T12:17:46.000Z</time>
      </trkpt>
      <trkpt lat="45.85286" lon="4.67311">
        <ele>262.09204</ele>
        <time>2022-10-02T12:17:47.000Z</time>
      </trkpt>
      <trkpt lat="45.85286" lon="4.67306">
        <ele>261.9476</ele>
        <time>2022-10-02T12:17:48.000Z</time>
      </trkpt>
      <trkpt lat="45.85286" lon="4.673">
        <ele>261.74891</ele>
        <time>2022-10-02T12:17:49.000Z</time>
      </trkpt>
      <trkpt lat="45.85282" lon="4.67293">
        <ele>261.32779</ele>
        <time>2022-10-02T12:17:50.000Z</time>
      </trkpt>
      <trkpt lat="45.85283" lon="4.67288">
        <ele>261.20665</ele>
        <time>2022-10-02T12:17:51.000Z</time>
      </trkpt>
      <trkpt lat="45.85282" lon="4.67281">
        <ele>260.82299</ele>
        <time>2022-10-02T12:17:52.000Z</time>
      </trkpt>
      <trkpt lat="45.85281" lon="4.67274">
        <ele>260.35263</ele>
        <time>2022-10-02T12:17:53.000Z</time>
      </trkpt>
      <trkpt lat="45.85281" lon="4.67267">
        <ele>259.83701</ele>
        <time>2022-10-02T12:17:54.000Z</time>
      </trkpt>
      <trkpt lat="45.85279" lon="4.67259">
        <ele>259.09037</ele>
        <time>2022-10-02T12:17:55.000Z</time>
      </trkpt>
      <trkpt lat="45.85278" lon="4.67249">
        <ele>258.24522</ele>
        <time>2022-10-02T12:17:56.000Z</time>
      </trkpt>
      <trkpt lat="45.85277" lon="4.6724">
        <ele>257.38956</ele>
        <time>2022-10-02T12:17:57.000Z</time>
      </trkpt>
      <trkpt lat="45.85275" lon="4.67232">
        <ele>256.50328</ele>
        <time>2022-10-02T12:17:58.000Z</time>
      </trkpt>
      <trkpt lat="45.85273" lon="4.67222">
        <ele>255.36529</ele>
        <time>2022-10-02T12:17:59.000Z</time>
      </trkpt>
      <trkpt lat="45.85271" lon="4.67212">
        <ele>254.16558</ele>
        <time>2022-10-02T12:18:00.000Z</time>
      </trkpt>
      <trkpt lat="45.85272" lon="4.67201">
        <ele>252.92178</ele>
        <time>2022-10-02T12:18:01.000Z</time>
      </trkpt>
      <trkpt lat="45.85273" lon="4.6719">
        <ele>251.73982</ele>
        <time>2022-10-02T12:18:02.000Z</time>
      </trkpt>
      <trkpt lat="45.85271" lon="4.6718">
        <ele>250.48005</ele>
        <time>2022-10-02T12:18:03.000Z</time>
      </trkpt>
      <trkpt lat="45.85268" lon="4.6717">
        <ele>249.26548</ele>
        <time>2022-10-02T12:18:04.000Z</time>
      </trkpt>
      <trkpt lat="45.85263" lon="4.67162">
        <ele>248.07301</ele>
        <time>2022-10-02T12:18:05.000Z</time>
      </trkpt>
      <trkpt lat="45.85257" lon="4.67155">
        <ele>246.66194</ele>
        <time>2022-10-02T12:18:06.000Z</time>
      </trkpt>
      <trkpt lat="45.85249" lon="4.6715">
        <ele>245.49703</ele>
        <time>2022-10-02T12:18:07.000Z</time>
      </trkpt>
      <trkpt lat="45.85241" lon="4.67145">
        <ele>244.35783</ele>
        <time>2022-10-02T12:18:08.000Z</time>
      </trkpt>
      <trkpt lat="45.85232" lon="4.6714">
        <ele>242.95859</ele>
        <time>2022-10-02T12:18:09.000Z</time>
      </trkpt>
      <trkpt lat="45.85222" lon="4.67137">
        <ele>242.29747</ele>
        <time>2022-10-02T12:18:10.000Z</time>
      </trkpt>
      <trkpt lat="45.85215" lon="4.67131">
        <ele>241.36924</ele>
        <time>2022-10-02T12:18:11.000Z</time>
      </trkpt>
      <trkpt lat="45.85206" lon="4.67124">
        <ele>240.08388</ele>
        <time>2022-10-02T12:18:12.000Z</time>
      </trkpt>
      <trkpt lat="45.85198" lon="4.67117">
        <ele>238.60322</ele>
        <time>2022-10-02T12:18:13.000Z</time>
      </trkpt>
      <trkpt lat="45.85189" lon="4.6711">
        <ele>237.24289</ele>
        <time>2022-10-02T12:18:14.000Z</time>
      </trkpt>
      <trkpt lat="45.85181" lon="4.67103">
        <ele>236.39063</ele>
        <time>2022-10-02T12:18:15.000Z</time>
      </trkpt>
      <trkpt lat="45.85172" lon="4.67098">
        <ele>236.3748</ele>
        <time>2022-10-02T12:18:16.000Z</time>
      </trkpt>
      <trkpt lat="45.85164" lon="4.67091">
        <ele>236.18729</ele>
        <time>2022-10-02T12:18:17.000Z</time>
      </trkpt>
      <trkpt lat="45.85156" lon="4.67087">
        <ele>235.69567</ele>
        <time>2022-10-02T12:18:18.000Z</time>
      </trkpt>
      <trkpt lat="45.85147" lon="4.67081">
        <ele>234.93601</ele>
        <time>2022-10-02T12:18:19.000Z</time>
      </trkpt>
      <trkpt lat="45.8514" lon="4.67075">
        <ele>234.42132</ele>
        <time>2022-10-02T12:18:20.000Z</time>
      </trkpt>
      <trkpt lat="45.85134" lon="4.6707">
        <ele>233.99529</ele>
        <time>2022-10-02T12:18:21.000Z</time>
      </trkpt>
      <trkpt lat="45.85126" lon="4.67066">
        <ele>233.67875</ele>
        <time>2022-10-02T12:18:22.000Z</time>
      </trkpt>
      <trkpt lat="45.8512" lon="4.67065">
        <ele>233.73135</ele>
        <time>2022-10-02T12:18:23.000Z</time>
      </trkpt>
      <trkpt lat="45.85113" lon="4.67064">
        <ele>233.99632</ele>
        <time>2022-10-02T12:18:24.000Z</time>
      </trkpt>
      <trkpt lat="45.8511" lon="4.67062">
        <ele>233.75023</ele>
        <time>2022-10-02T12:18:25.000Z</time>
      </trkpt>
      <trkpt lat="45.85105" lon="4.6706">
        <ele>233.77074</ele>
        <time>2022-10-02T12:18:26.000Z</time>
      </trkpt>
      <trkpt lat="45.85108" lon="4.67053">
        <ele>232.52647</ele>
        <time>2022-10-02T12:18:27.000Z</time>
      </trkpt>
      <trkpt lat="45.85112" lon="4.67048">
        <ele>231.34327</ele>
        <time>2022-10-02T12:18:28.000Z</time>
      </trkpt>
      <trkpt lat="45.85117" lon="4.67042">
        <ele>230.26727</ele>
        <time>2022-10-02T12:18:29.000Z</time>
      </trkpt>
      <trkpt lat="45.85121" lon="4.67038">
        <ele>229.3621</ele>
        <time>2022-10-02T12:18:30.000Z</time>
      </trkpt>
      <trkpt lat="45.85125" lon="4.67033">
        <ele>228.58597</ele>
        <time>2022-10-02T12:18:31.000Z</time>
      </trkpt>
      <trkpt lat="45.85129" lon="4.67029">
        <ele>227.52527</ele>
        <time>2022-10-02T12:18:32.000Z</time>
      </trkpt>
      <trkpt lat="45.85132" lon="4.67024">
        <ele>226.25608</ele>
        <time>2022-10-02T12:18:33.000Z</time>
      </trkpt>
      <trkpt lat="45.85141" lon="4.67024">
        <ele>224.99606</ele>
        <time>2022-10-02T12:18:34.000Z</time>
      </trkpt>
      <trkpt lat="45.85147" lon="4.67022">
        <ele>223.28876</ele>
        <time>2022-10-02T12:18:35.000Z</time>
      </trkpt>
      <trkpt lat="45.85153" lon="4.6702">
        <ele>220.72746</ele>
        <time>2022-10-02T12:18:36.000Z</time>
      </trkpt>
      <trkpt lat="45.85161" lon="4.6702">
        <ele>218.27274</ele>
        <time>2022-10-02T12:18:37.000Z</time>
      </trkpt>
      <trkpt lat="45.85169" lon="4.67023">
        <ele>216.90338</ele>
        <time>2022-10-02T12:18:38.000Z</time>
      </trkpt>
      <trkpt lat="45.85174" lon="4.67022">
        <ele>216.09053</ele>
        <time>2022-10-02T12:18:39.000Z</time>
      </trkpt>
      <trkpt lat="45.8518" lon="4.67022">
        <ele>215.87215</ele>
        <time>2022-10-02T12:18:40.000Z</time>
      </trkpt>
      <trkpt lat="45.8519" lon="4.67026">
        <ele>216.56054</ele>
        <time>2022-10-02T12:18:41.000Z</time>
      </trkpt>
      <trkpt lat="45.85198" lon="4.67024">
        <ele>215.59508</ele>
        <time>2022-10-02T12:18:42.000Z</time>
      </trkpt>
      <trkpt lat="45.85203" lon="4.67023">
        <ele>215.01685</ele>
        <time>2022-10-02T12:18:43.000Z</time>
      </trkpt>
      <trkpt lat="45.8521" lon="4.67023">
        <ele>214.18453</ele>
        <time>2022-10-02T12:18:44.000Z</time>
      </trkpt>
      <trkpt lat="45.85216" lon="4.67022">
        <ele>213.52941</ele>
        <time>2022-10-02T12:18:45.000Z</time>
      </trkpt>
      <trkpt lat="45.85222" lon="4.67025">
        <ele>213.33601</ele>
        <time>2022-10-02T12:18:46.000Z</time>
      </trkpt>
      <trkpt lat="45.85229" lon="4.67025">
        <ele>212.41606</ele>
        <time>2022-10-02T12:18:47.000Z</time>
      </trkpt>
      <trkpt lat="45.85236" lon="4.67026">
        <ele>212.20004</ele>
        <time>2022-10-02T12:18:48.000Z</time>
      </trkpt>
      <trkpt lat="45.85242" lon="4.67026">
        <ele>211.99999</ele>
        <time>2022-10-02T12:18:49.000Z</time>
      </trkpt>
      <trkpt lat="45.85249" lon="4.67025">
        <ele>211.91696</ele>
        <time>2022-10-02T12:18:50.000Z</time>
      </trkpt>
      <trkpt lat="45.85256" lon="4.67023">
        <ele>211.83191</ele>
        <time>2022-10-02T12:18:51.000Z</time>
      </trkpt>
      <trkpt lat="45.85262" lon="4.67022">
        <ele>211.78364</ele>
        <time>2022-10-02T12:18:52.000Z</time>
      </trkpt>
      <trkpt lat="45.8527" lon="4.67024">
        <ele>212.31239</ele>
        <time>2022-10-02T12:18:53.000Z</time>
      </trkpt>
      <trkpt lat="45.85277" lon="4.67021">
        <ele>211.75675</ele>
        <time>2022-10-02T12:18:54.000Z</time>
      </trkpt>
      <trkpt lat="45.85284" lon="4.6702">
        <ele>211.4204</ele>
        <time>2022-10-02T12:18:55.000Z</time>
      </trkpt>
      <trkpt lat="45.85291" lon="4.67019">
        <ele>210.554</ele>
        <time>2022-10-02T12:18:56.000Z</time>
      </trkpt>
      <trkpt lat="45.85299" lon="4.67017">
        <ele>209.56559</ele>
        <time>2022-10-02T12:18:57.000Z</time>
      </trkpt>
      <trkpt lat="45.85307" lon="4.67015">
        <ele>209.83577</ele>
        <time>2022-10-02T12:18:58.000Z</time>
      </trkpt>
      <trkpt lat="45.85314" lon="4.67013">
        <ele>211.23302</ele>
        <time>2022-10-02T12:18:59.000Z</time>
      </trkpt>
      <trkpt lat="45.85323" lon="4.6701">
        <ele>212.94254</ele>
        <time>2022-10-02T12:19:00.000Z</time>
      </trkpt>
      <trkpt lat="45.85328" lon="4.67008">
        <ele>213.15969</ele>
        <time>2022-10-02T12:19:01.000Z</time>
      </trkpt>
      <trkpt lat="45.85334" lon="4.67005">
        <ele>213.0477</ele>
        <time>2022-10-02T12:19:02.000Z</time>
      </trkpt>
      <trkpt lat="45.85341" lon="4.67002">
        <ele>212.23401</ele>
        <time>2022-10-02T12:19:03.000Z</time>
      </trkpt>
      <trkpt lat="45.85348" lon="4.66997">
        <ele>210.95079</ele>
        <time>2022-10-02T12:19:04.000Z</time>
      </trkpt>
      <trkpt lat="45.85355" lon="4.66992">
        <ele>209.93313</ele>
        <time>2022-10-02T12:19:05.000Z</time>
      </trkpt>
      <trkpt lat="45.85363" lon="4.66988">
        <ele>209.09355</ele>
        <time>2022-10-02T12:19:06.000Z</time>
      </trkpt>
      <trkpt lat="45.85368" lon="4.66984">
        <ele>208.03282</ele>
        <time>2022-10-02T12:19:07.000Z</time>
      </trkpt>
      <trkpt lat="45.85373" lon="4.66978">
        <ele>206.35898</ele>
        <time>2022-10-02T12:19:08.000Z</time>
      </trkpt>
      <trkpt lat="45.85379" lon="4.66975">
        <ele>206.04294</ele>
        <time>2022-10-02T12:19:09.000Z</time>
      </trkpt>
      <trkpt lat="45.85384" lon="4.66973">
        <ele>206.40879</ele>
        <time>2022-10-02T12:19:10.000Z</time>
      </trkpt>
      <trkpt lat="45.85391" lon="4.66968">
        <ele>207.78537</ele>
        <time>2022-10-02T12:19:11.000Z</time>
      </trkpt>
      <trkpt lat="45.85397" lon="4.66964">
        <ele>209.0663</ele>
        <time>2022-10-02T12:19:12.000Z</time>
      </trkpt>
      <trkpt lat="45.85404" lon="4.6696">
        <ele>209.80109</ele>
        <time>2022-10-02T12:19:13.000Z</time>
      </trkpt>
      <trkpt lat="45.85409" lon="4.66957">
        <ele>210.2289</ele>
        <time>2022-10-02T12:19:14.000Z</time>
      </trkpt>
      <trkpt lat="45.85416" lon="4.66956">
        <ele>210.07423</ele>
        <time>2022-10-02T12:19:15.000Z</time>
      </trkpt>
      <trkpt lat="45.85423" lon="4.66956">
        <ele>210.0115</ele>
        <time>2022-10-02T12:19:16.000Z</time>
      </trkpt>
      <trkpt lat="45.85429" lon="4.66958">
        <ele>209.22769</ele>
        <time>2022-10-02T12:19:17.000Z</time>
      </trkpt>
      <trkpt lat="45.85437" lon="4.66957">
        <ele>209.18371</ele>
        <time>2022-10-02T12:19:18.000Z</time>
      </trkpt>
      <trkpt lat="45.85444" lon="4.66959">
        <ele>208.50346</ele>
        <time>2022-10-02T12:19:19.000Z</time>
      </trkpt>
      <trkpt lat="45.85452" lon="4.6696">
        <ele>208.17089</ele>
        <time>2022-10-02T12:19:20.000Z</time>
      </trkpt>
      <trkpt lat="45.85459" lon="4.6696">
        <ele>208.01531</ele>
        <time>2022-10-02T12:19:21.000Z</time>
      </trkpt>
      <trkpt lat="45.85465" lon="4.66957">
        <ele>207.93581</ele>
        <time>2022-10-02T12:19:22.000Z</time>
      </trkpt>
      <trkpt lat="45.85471" lon="4.66957">
        <ele>207.07433</ele>
        <time>2022-10-02T12:19:23.000Z</time>
      </trkpt>
      <trkpt lat="45.85479" lon="4.66956">
        <ele>205.67998</ele>
        <time>2022-10-02T12:19:24.000Z</time>
      </trkpt>
      <trkpt lat="45.85484" lon="4.66954">
        <ele>205.40635</ele>
        <time>2022-10-02T12:19:25.000Z</time>
      </trkpt>
      <trkpt lat="45.85489" lon="4.66952">
        <ele>205.13078</ele>
        <time>2022-10-02T12:19:26.000Z</time>
      </trkpt>
      <trkpt lat="45.85495" lon="4.6695">
        <ele>205.11587</ele>
        <time>2022-10-02T12:19:27.000Z</time>
      </trkpt>
      <trkpt lat="45.855" lon="4.6695">
        <ele>204.71804</ele>
        <time>2022-10-02T12:19:28.000Z</time>
      </trkpt>
      <trkpt lat="45.85505" lon="4.66949">
        <ele>204.32764</ele>
        <time>2022-10-02T12:19:29.000Z</time>
      </trkpt>
      <trkpt lat="45.85509" lon="4.66948">
        <ele>204.65601</ele>
        <time>2022-10-02T12:19:30.000Z</time>
      </trkpt>
      <trkpt lat="45.85513" lon="4.66947">
        <ele>204.9443</ele>
        <time>2022-10-02T12:19:31.000Z</time>
      </trkpt>
      <trkpt lat="45.85517" lon="4.66945">
        <ele>205.66054</ele>
        <time>2022-10-02T12:19:32.000Z</time>
      </trkpt>
      <trkpt lat="45.8552" lon="4.66944">
        <ele>206.23305</ele>
        <time>2022-10-02T12:19:33.000Z</time>
      </trkpt>
      <trkpt lat="45.85524" lon="4.66945">
        <ele>206.3864</ele>
        <time>2022-10-02T12:19:34.000Z</time>
      </trkpt>
      <trkpt lat="45.85527" lon="4.66945">
        <ele>206.36876</ele>
        <time>2022-10-02T12:19:35.000Z</time>
      </trkpt>
      <trkpt lat="45.85528" lon="4.66951">
        <ele>205.17159</ele>
        <time>2022-10-02T12:19:36.000Z</time>
      </trkpt>
      <trkpt lat="45.85527" lon="4.6696">
        <ele>203.83267</ele>
        <time>2022-10-02T12:19:37.000Z</time>
      </trkpt>
      <trkpt lat="45.85528" lon="4.66966">
        <ele>203.54218</ele>
        <time>2022-10-02T12:19:38.000Z</time>
      </trkpt>
      <trkpt lat="45.8553" lon="4.66974">
        <ele>204.23943</ele>
        <time>2022-10-02T12:19:39.000Z</time>
      </trkpt>
      <trkpt lat="45.85533" lon="4.66979">
        <ele>204.61207</ele>
        <time>2022-10-02T12:19:40.000Z</time>
      </trkpt>
      <trkpt lat="45.85535" lon="4.66984">
        <ele>205.01286</ele>
        <time>2022-10-02T12:19:41.000Z</time>
      </trkpt>
      <trkpt lat="45.85537" lon="4.6699">
        <ele>204.95731</ele>
        <time>2022-10-02T12:19:42.000Z</time>
      </trkpt>
      <trkpt lat="45.85539" lon="4.66996">
        <ele>205.07561</ele>
        <time>2022-10-02T12:19:43.000Z</time>
      </trkpt>
      <trkpt lat="45.85541" lon="4.67002">
        <ele>204.64321</ele>
        <time>2022-10-02T12:19:44.000Z</time>
      </trkpt>
      <trkpt lat="45.85544" lon="4.67008">
        <ele>204.42865</ele>
        <time>2022-10-02T12:19:45.000Z</time>
      </trkpt>
      <trkpt lat="45.85545" lon="4.67014">
        <ele>205.20359</ele>
        <time>2022-10-02T12:19:46.000Z</time>
      </trkpt>
      <trkpt lat="45.85547" lon="4.6702">
        <ele>205.98503</ele>
        <time>2022-10-02T12:19:47.000Z</time>
      </trkpt>
      <trkpt lat="45.85549" lon="4.67025">
        <ele>206.57058</ele>
        <time>2022-10-02T12:19:48.000Z</time>
      </trkpt>
      <trkpt lat="45.85552" lon="4.6703">
        <ele>206.79173</ele>
        <time>2022-10-02T12:19:49.000Z</time>
      </trkpt>
      <trkpt lat="45.85555" lon="4.67035">
        <ele>206.4096</ele>
        <time>2022-10-02T12:19:50.000Z</time>
      </trkpt>
      <trkpt lat="45.85558" lon="4.67044">
        <ele>205.57804</ele>
        <time>2022-10-02T12:19:51.000Z</time>
      </trkpt>
      <trkpt lat="45.85561" lon="4.67051">
        <ele>205.00289</ele>
        <time>2022-10-02T12:19:52.000Z</time>
      </trkpt>
      <trkpt lat="45.85563" lon="4.67059">
        <ele>204.95652</ele>
        <time>2022-10-02T12:19:53.000Z</time>
      </trkpt>
      <trkpt lat="45.85567" lon="4.67067">
        <ele>204.77597</ele>
        <time>2022-10-02T12:19:54.000Z</time>
      </trkpt>
      <trkpt lat="45.8557" lon="4.67074">
        <ele>205.00413</ele>
        <time>2022-10-02T12:19:55.000Z</time>
      </trkpt>
      <trkpt lat="45.85573" lon="4.67081">
        <ele>205.21912</ele>
        <time>2022-10-02T12:19:56.000Z</time>
      </trkpt>
      <trkpt lat="45.85576" lon="4.67088">
        <ele>205.08003</ele>
        <time>2022-10-02T12:19:57.000Z</time>
      </trkpt>
      <trkpt lat="45.85577" lon="4.67094">
        <ele>205.11566</ele>
        <time>2022-10-02T12:19:58.000Z</time>
      </trkpt>
      <trkpt lat="45.8558" lon="4.67101">
        <ele>204.22095</ele>
        <time>2022-10-02T12:19:59.000Z</time>
      </trkpt>
      <trkpt lat="45.85582" lon="4.6711">
        <ele>203.24777</ele>
        <time>2022-10-02T12:20:00.000Z</time>
      </trkpt>
      <trkpt lat="45.85585" lon="4.67117">
        <ele>202.95408</ele>
        <time>2022-10-02T12:20:01.000Z</time>
      </trkpt>
      <trkpt lat="45.85586" lon="4.67124">
        <ele>203.68</ele>
        <time>2022-10-02T12:20:02.000Z</time>
      </trkpt>
      <trkpt lat="45.85589" lon="4.67131">
        <ele>205.16016</ele>
        <time>2022-10-02T12:20:03.000Z</time>
      </trkpt>
      <trkpt lat="45.85591" lon="4.67137">
        <ele>206.8447</ele>
        <time>2022-10-02T12:20:04.000Z</time>
      </trkpt>
      <trkpt lat="45.85593" lon="4.67139">
        <ele>207.11993</ele>
        <time>2022-10-02T12:20:05.000Z</time>
      </trkpt>
      <trkpt lat="45.85594" lon="4.67148">
        <ele>208.91149</ele>
        <time>2022-10-02T12:20:06.000Z</time>
      </trkpt>
      <trkpt lat="45.85596" lon="4.67154">
        <ele>209.59833</ele>
        <time>2022-10-02T12:20:07.000Z</time>
      </trkpt>
      <trkpt lat="45.85595" lon="4.67161">
        <ele>211.38266</ele>
        <time>2022-10-02T12:20:08.000Z</time>
      </trkpt>
      <trkpt lat="45.85599" lon="4.67166">
        <ele>210.65095</ele>
        <time>2022-10-02T12:20:09.000Z</time>
      </trkpt>
      <trkpt lat="45.856" lon="4.67169">
        <ele>210.52323</ele>
        <time>2022-10-02T12:20:10.000Z</time>
      </trkpt>
      <trkpt lat="45.85601" lon="4.67174">
        <ele>210.99642</ele>
        <time>2022-10-02T12:20:11.000Z</time>
      </trkpt>
      <trkpt lat="45.85605" lon="4.67179">
        <ele>209.49775</ele>
        <time>2022-10-02T12:20:12.000Z</time>
      </trkpt>
      <trkpt lat="45.85606" lon="4.67186">
        <ele>211.26376</ele>
        <time>2022-10-02T12:20:13.000Z</time>
      </trkpt>
      <trkpt lat="45.85609" lon="4.67193">
        <ele>211.02085</ele>
        <time>2022-10-02T12:20:14.000Z</time>
      </trkpt>
      <trkpt lat="45.85611" lon="4.67196">
        <ele>210.18763</ele>
        <time>2022-10-02T12:20:15.000Z</time>
      </trkpt>
      <trkpt lat="45.8561" lon="4.67201">
        <ele>212.52515</ele>
        <time>2022-10-02T12:20:16.000Z</time>
      </trkpt>
      <trkpt lat="45.85617" lon="4.67205">
        <ele>210.28734</ele>
        <time>2022-10-02T12:20:17.000Z</time>
      </trkpt>
      <trkpt lat="45.85621" lon="4.67208">
        <ele>209.69315</ele>
        <time>2022-10-02T12:20:18.000Z</time>
      </trkpt>
      <trkpt lat="45.85625" lon="4.67211">
        <ele>210.03293</ele>
        <time>2022-10-02T12:20:19.000Z</time>
      </trkpt>
      <trkpt lat="45.85631" lon="4.67215">
        <ele>209.08926</ele>
        <time>2022-10-02T12:20:20.000Z</time>
      </trkpt>
      <trkpt lat="45.85634" lon="4.6722">
        <ele>209.89376</ele>
        <time>2022-10-02T12:20:21.000Z</time>
      </trkpt>
      <trkpt lat="45.85639" lon="4.67221">
        <ele>208.20691</ele>
        <time>2022-10-02T12:20:22.000Z</time>
      </trkpt>
      <trkpt lat="45.85642" lon="4.67225">
        <ele>208.08466</ele>
        <time>2022-10-02T12:20:23.000Z</time>
      </trkpt>
      <trkpt lat="45.85646" lon="4.67226">
        <ele>206.3109</ele>
        <time>2022-10-02T12:20:24.000Z</time>
      </trkpt>
      <trkpt lat="45.85651" lon="4.67229">
        <ele>204.75089</ele>
        <time>2022-10-02T12:20:25.000Z</time>
      </trkpt>
      <trkpt lat="45.85652" lon="4.67232">
        <ele>205.11039</ele>
        <time>2022-10-02T12:20:26.000Z</time>
      </trkpt>
      <trkpt lat="45.8566" lon="4.67236">
        <ele>203.07138</ele>
        <time>2022-10-02T12:20:27.000Z</time>
      </trkpt>
      <trkpt lat="45.85666" lon="4.6724">
        <ele>203.04074</ele>
        <time>2022-10-02T12:20:28.000Z</time>
      </trkpt>
      <trkpt lat="45.85674" lon="4.67245">
        <ele>204.1322</ele>
        <time>2022-10-02T12:20:29.000Z</time>
      </trkpt>
      <trkpt lat="45.85679" lon="4.67249">
        <ele>205.07344</ele>
        <time>2022-10-02T12:20:30.000Z</time>
      </trkpt>
      <trkpt lat="45.85683" lon="4.67252">
        <ele>205.67067</ele>
        <time>2022-10-02T12:20:31.000Z</time>
      </trkpt>
      <trkpt lat="45.85688" lon="4.67257">
        <ele>206.05187</ele>
        <time>2022-10-02T12:20:32.000Z</time>
      </trkpt>
      <trkpt lat="45.85694" lon="4.67262">
        <ele>205.64454</ele>
        <time>2022-10-02T12:20:33.000Z</time>
      </trkpt>
      <trkpt lat="45.85699" lon="4.67266">
        <ele>205.43775</ele>
        <time>2022-10-02T12:20:34.000Z</time>
      </trkpt>
      <trkpt lat="45.85703" lon="4.6727">
        <ele>205.62319</ele>
        <time>2022-10-02T12:20:35.000Z</time>
      </trkpt>
      <trkpt lat="45.85707" lon="4.67276">
        <ele>207.24582</ele>
        <time>2022-10-02T12:20:36.000Z</time>
      </trkpt>
      <trkpt lat="45.85709" lon="4.67281">
        <ele>209.33856</ele>
        <time>2022-10-02T12:20:37.000Z</time>
      </trkpt>
      <trkpt lat="45.85712" lon="4.67285">
        <ele>209.55484</ele>
        <time>2022-10-02T12:20:38.000Z</time>
      </trkpt>
      <trkpt lat="45.85714" lon="4.67291">
        <ele>211.02262</ele>
        <time>2022-10-02T12:20:39.000Z</time>
      </trkpt>
      <trkpt lat="45.85719" lon="4.67296">
        <ele>209.13999</ele>
        <time>2022-10-02T12:20:40.000Z</time>
      </trkpt>
      <trkpt lat="45.85722" lon="4.67299">
        <ele>208.6896</ele>
        <time>2022-10-02T12:20:41.000Z</time>
      </trkpt>
      <trkpt lat="45.85728" lon="4.67303">
        <ele>207.23171</ele>
        <time>2022-10-02T12:20:42.000Z</time>
      </trkpt>
      <trkpt lat="45.85732" lon="4.67307">
        <ele>207.52167</ele>
        <time>2022-10-02T12:20:43.000Z</time>
      </trkpt>
      <trkpt lat="45.85736" lon="4.6731">
        <ele>207.35307</ele>
        <time>2022-10-02T12:20:44.000Z</time>
      </trkpt>
      <trkpt lat="45.85743" lon="4.67315">
        <ele>206.49696</ele>
        <time>2022-10-02T12:20:45.000Z</time>
      </trkpt>
      <trkpt lat="45.85747" lon="4.6732">
        <ele>206.01483</ele>
        <time>2022-10-02T12:20:46.000Z</time>
      </trkpt>
      <trkpt lat="45.85751" lon="4.67325">
        <ele>205.27521</ele>
        <time>2022-10-02T12:20:47.000Z</time>
      </trkpt>
      <trkpt lat="45.85749" lon="4.67332">
        <ele>206.62963</ele>
        <time>2022-10-02T12:20:48.000Z</time>
      </trkpt>
      <trkpt lat="45.8575" lon="4.67336">
        <ele>206.13358</ele>
        <time>2022-10-02T12:20:49.000Z</time>
      </trkpt>
      <trkpt lat="45.8575" lon="4.67339">
        <ele>205.90812</ele>
        <time>2022-10-02T12:20:50.000Z</time>
      </trkpt>
      <trkpt lat="45.85754" lon="4.67342">
        <ele>204.85745</ele>
        <time>2022-10-02T12:20:51.000Z</time>
      </trkpt>
      <trkpt lat="45.85754" lon="4.67342">
        <ele>204.85745</ele>
        <time>2022-10-02T12:20:51.000Z</time>
      </trkpt>
      <trkpt lat="45.85756" lon="4.67345">
        <ele>204.33466</ele>
        <time>2022-10-02T12:20:52.000Z</time>
      </trkpt>
      <trkpt lat="45.85758" lon="4.6735">
        <ele>203.97196</ele>
        <time>2022-10-02T12:20:53.000Z</time>
      </trkpt>
      <trkpt lat="45.8576" lon="4.67355">
        <ele>203.74244</ele>
        <time>2022-10-02T12:20:54.000Z</time>
      </trkpt>
      <trkpt lat="45.85759" lon="4.67359">
        <ele>203.84717</ele>
        <time>2022-10-02T12:20:55.000Z</time>
      </trkpt>
      <trkpt lat="45.85759" lon="4.67363">
        <ele>204.02054</ele>
        <time>2022-10-02T12:20:56.000Z</time>
      </trkpt>
      <trkpt lat="45.85757" lon="4.67366">
        <ele>204.42952</ele>
        <time>2022-10-02T12:20:57.000Z</time>
      </trkpt>
      <trkpt lat="45.85755" lon="4.6737">
        <ele>205.02503</ele>
        <time>2022-10-02T12:20:58.000Z</time>
      </trkpt>
      <trkpt lat="45.85753" lon="4.67374">
        <ele>205.79352</ele>
        <time>2022-10-02T12:20:59.000Z</time>
      </trkpt>
      <trkpt lat="45.85751" lon="4.67378">
        <ele>206.61949</ele>
        <time>2022-10-02T12:21:00.000Z</time>
      </trkpt>
      <trkpt lat="45.85749" lon="4.67382">
        <ele>207.36909</ele>
        <time>2022-10-02T12:21:01.000Z</time>
      </trkpt>
      <trkpt lat="45.85747" lon="4.67386">
        <ele>207.78611</ele>
        <time>2022-10-02T12:21:02.000Z</time>
      </trkpt>
      <trkpt lat="45.85745" lon="4.67391">
        <ele>207.82477</ele>
        <time>2022-10-02T12:21:03.000Z</time>
      </trkpt>
      <trkpt lat="45.85743" lon="4.67396">
        <ele>207.43737</ele>
        <time>2022-10-02T12:21:04.000Z</time>
      </trkpt>
      <trkpt lat="45.85741" lon="4.674">
        <ele>206.76152</ele>
        <time>2022-10-02T12:21:05.000Z</time>
      </trkpt>
      <trkpt lat="45.85739" lon="4.67405">
        <ele>206.04256</ele>
        <time>2022-10-02T12:21:06.000Z</time>
      </trkpt>
      <trkpt lat="45.85737" lon="4.6741">
        <ele>205.39098</ele>
        <time>2022-10-02T12:21:07.000Z</time>
      </trkpt>
      <trkpt lat="45.85736" lon="4.67415">
        <ele>204.97218</ele>
        <time>2022-10-02T12:21:08.000Z</time>
      </trkpt>
      <trkpt lat="45.85734" lon="4.67419">
        <ele>204.7949</ele>
        <time>2022-10-02T12:21:09.000Z</time>
      </trkpt>
      <trkpt lat="45.85732" lon="4.67422">
        <ele>204.81617</ele>
        <time>2022-10-02T12:21:10.000Z</time>
      </trkpt>
      <trkpt lat="45.8573" lon="4.67426">
        <ele>205.00181</ele>
        <time>2022-10-02T12:21:11.000Z</time>
      </trkpt>
      <trkpt lat="45.85728" lon="4.67429">
        <ele>205.39757</ele>
        <time>2022-10-02T12:21:12.000Z</time>
      </trkpt>
      <trkpt lat="45.85726" lon="4.67433">
        <ele>205.83447</ele>
        <time>2022-10-02T12:21:13.000Z</time>
      </trkpt>
      <trkpt lat="45.85725" lon="4.67438">
        <ele>206.28407</ele>
        <time>2022-10-02T12:21:14.000Z</time>
      </trkpt>
      <trkpt lat="45.85723" lon="4.67443">
        <ele>206.54322</ele>
        <time>2022-10-02T12:21:15.000Z</time>
      </trkpt>
      <trkpt lat="45.85721" lon="4.67447">
        <ele>206.57549</ele>
        <time>2022-10-02T12:21:16.000Z</time>
      </trkpt>
      <trkpt lat="45.85719" lon="4.6745">
        <ele>206.35456</ele>
        <time>2022-10-02T12:21:17.000Z</time>
      </trkpt>
      <trkpt lat="45.85718" lon="4.67453">
        <ele>205.94011</ele>
        <time>2022-10-02T12:21:18.000Z</time>
      </trkpt>
      <trkpt lat="45.85715" lon="4.67457">
        <ele>205.35994</ele>
        <time>2022-10-02T12:21:19.000Z</time>
      </trkpt>
      <trkpt lat="45.85713" lon="4.67462">
        <ele>204.88718</ele>
        <time>2022-10-02T12:21:20.000Z</time>
      </trkpt>
      <trkpt lat="45.85712" lon="4.67468">
        <ele>204.95593</ele>
        <time>2022-10-02T12:21:21.000Z</time>
      </trkpt>
      <trkpt lat="45.85709" lon="4.67474">
        <ele>205.38272</ele>
        <time>2022-10-02T12:21:22.000Z</time>
      </trkpt>
      <trkpt lat="45.85705" lon="4.6748">
        <ele>206.17018</ele>
        <time>2022-10-02T12:21:23.000Z</time>
      </trkpt>
      <trkpt lat="45.85701" lon="4.67486">
        <ele>206.65724</ele>
        <time>2022-10-02T12:21:24.000Z</time>
      </trkpt>
      <trkpt lat="45.85698" lon="4.67491">
        <ele>206.22725</ele>
        <time>2022-10-02T12:21:25.000Z</time>
      </trkpt>
      <trkpt lat="45.85694" lon="4.67498">
        <ele>205.54003</ele>
        <time>2022-10-02T12:21:26.000Z</time>
      </trkpt>
      <trkpt lat="45.8569" lon="4.67504">
        <ele>205.3953</ele>
        <time>2022-10-02T12:21:27.000Z</time>
      </trkpt>
      <trkpt lat="45.85686" lon="4.67509">
        <ele>205.70219</ele>
        <time>2022-10-02T12:21:28.000Z</time>
      </trkpt>
      <trkpt lat="45.85683" lon="4.67515">
        <ele>206.25791</ele>
        <time>2022-10-02T12:21:29.000Z</time>
      </trkpt>
      <trkpt lat="45.85679" lon="4.67518">
        <ele>206.35827</ele>
        <time>2022-10-02T12:21:30.000Z</time>
      </trkpt>
      <trkpt lat="45.85674" lon="4.67522">
        <ele>205.72902</ele>
        <time>2022-10-02T12:21:31.000Z</time>
      </trkpt>
      <trkpt lat="45.85669" lon="4.67525">
        <ele>204.75371</ele>
        <time>2022-10-02T12:21:32.000Z</time>
      </trkpt>
      <trkpt lat="45.85665" lon="4.6753">
        <ele>204.23105</ele>
        <time>2022-10-02T12:21:33.000Z</time>
      </trkpt>
      <trkpt lat="45.8566" lon="4.67534">
        <ele>204.38787</ele>
        <time>2022-10-02T12:21:34.000Z</time>
      </trkpt>
      <trkpt lat="45.85655" lon="4.67538">
        <ele>205.11619</ele>
        <time>2022-10-02T12:21:35.000Z</time>
      </trkpt>
      <trkpt lat="45.85651" lon="4.67542">
        <ele>205.50121</ele>
        <time>2022-10-02T12:21:36.000Z</time>
      </trkpt>
      <trkpt lat="45.85646" lon="4.67547">
        <ele>204.88258</ele>
        <time>2022-10-02T12:21:37.000Z</time>
      </trkpt>
      <trkpt lat="45.85641" lon="4.67551">
        <ele>203.94936</ele>
        <time>2022-10-02T12:21:38.000Z</time>
      </trkpt>
      <trkpt lat="45.85635" lon="4.67555">
        <ele>203.64316</ele>
        <time>2022-10-02T12:21:39.000Z</time>
      </trkpt>
      <trkpt lat="45.8563" lon="4.6756">
        <ele>204.4688</ele>
        <time>2022-10-02T12:21:40.000Z</time>
      </trkpt>
      <trkpt lat="45.85625" lon="4.67565">
        <ele>205.58358</ele>
        <time>2022-10-02T12:21:41.000Z</time>
      </trkpt>
      <trkpt lat="45.85619" lon="4.6757">
        <ele>206.0195</ele>
        <time>2022-10-02T12:21:42.000Z</time>
      </trkpt>
      <trkpt lat="45.85614" lon="4.67575">
        <ele>205.63177</ele>
        <time>2022-10-02T12:21:43.000Z</time>
      </trkpt>
      <trkpt lat="45.85608" lon="4.6758">
        <ele>205.01186</ele>
        <time>2022-10-02T12:21:44.000Z</time>
      </trkpt>
      <trkpt lat="45.85602" lon="4.67585">
        <ele>204.92893</ele>
        <time>2022-10-02T12:21:45.000Z</time>
      </trkpt>
      <trkpt lat="45.85597" lon="4.67591">
        <ele>204.90146</ele>
        <time>2022-10-02T12:21:46.000Z</time>
      </trkpt>
      <trkpt lat="45.85592" lon="4.67597">
        <ele>205.10878</ele>
        <time>2022-10-02T12:21:47.000Z</time>
      </trkpt>
      <trkpt lat="45.85586" lon="4.67604">
        <ele>204.87952</ele>
        <time>2022-10-02T12:21:48.000Z</time>
      </trkpt>
      <trkpt lat="45.8558" lon="4.67612">
        <ele>203.28613</ele>
        <time>2022-10-02T12:21:49.000Z</time>
      </trkpt>
      <trkpt lat="45.85576" lon="4.67618">
        <ele>202.04062</ele>
        <time>2022-10-02T12:21:50.000Z</time>
      </trkpt>
      <trkpt lat="45.85575" lon="4.67625">
        <ele>202.00078</ele>
        <time>2022-10-02T12:21:51.000Z</time>
      </trkpt>
      <trkpt lat="45.8557" lon="4.67631">
        <ele>202.70603</ele>
        <time>2022-10-02T12:21:52.000Z</time>
      </trkpt>
      <trkpt lat="45.85565" lon="4.67634">
        <ele>203.7822</ele>
        <time>2022-10-02T12:21:53.000Z</time>
      </trkpt>
      <trkpt lat="45.85559" lon="4.67637">
        <ele>204.4768</ele>
        <time>2022-10-02T12:21:54.000Z</time>
      </trkpt>
      <trkpt lat="45.85553" lon="4.6764">
        <ele>204.44734</ele>
        <time>2022-10-02T12:21:55.000Z</time>
      </trkpt>
      <trkpt lat="45.85546" lon="4.67648">
        <ele>202.8136</ele>
        <time>2022-10-02T12:21:56.000Z</time>
      </trkpt>
      <trkpt lat="45.85539" lon="4.67649">
        <ele>202.6989</ele>
        <time>2022-10-02T12:21:57.000Z</time>
      </trkpt>
      <trkpt lat="45.85533" lon="4.67657">
        <ele>202.39318</ele>
        <time>2022-10-02T12:21:58.000Z</time>
      </trkpt>
      <trkpt lat="45.85527" lon="4.67666">
        <ele>202.84801</ele>
        <time>2022-10-02T12:21:59.000Z</time>
      </trkpt>
      <trkpt lat="45.85524" lon="4.67678">
        <ele>202.89063</ele>
        <time>2022-10-02T12:22:00.000Z</time>
      </trkpt>
      <trkpt lat="45.85518" lon="4.67688">
        <ele>203.07623</ele>
        <time>2022-10-02T12:22:01.000Z</time>
      </trkpt>
      <trkpt lat="45.85513" lon="4.67701">
        <ele>202.92972</ele>
        <time>2022-10-02T12:22:02.000Z</time>
      </trkpt>
      <trkpt lat="45.8551" lon="4.67705">
        <ele>202.84373</ele>
        <time>2022-10-02T12:22:03.000Z</time>
      </trkpt>
      <trkpt lat="45.85504" lon="4.67714">
        <ele>202.52014</ele>
        <time>2022-10-02T12:22:04.000Z</time>
      </trkpt>
      <trkpt lat="45.85502" lon="4.67719">
        <ele>202.40714</ele>
        <time>2022-10-02T12:22:05.000Z</time>
      </trkpt>
      <trkpt lat="45.85499" lon="4.67727">
        <ele>202.68957</ele>
        <time>2022-10-02T12:22:06.000Z</time>
      </trkpt>
      <trkpt lat="45.85497" lon="4.67736">
        <ele>202.8744</ele>
        <time>2022-10-02T12:22:07.000Z</time>
      </trkpt>
      <trkpt lat="45.85494" lon="4.67747">
        <ele>203.09571</ele>
        <time>2022-10-02T12:22:08.000Z</time>
      </trkpt>
      <trkpt lat="45.8549" lon="4.67757">
        <ele>202.60938</ele>
        <time>2022-10-02T12:22:09.000Z</time>
      </trkpt>
      <trkpt lat="45.85489" lon="4.67764">
        <ele>201.9908</ele>
        <time>2022-10-02T12:22:10.000Z</time>
      </trkpt>
      <trkpt lat="45.85487" lon="4.67767">
        <ele>201.73485</ele>
        <time>2022-10-02T12:22:11.000Z</time>
      </trkpt>
      <trkpt lat="45.85488" lon="4.67778">
        <ele>202.3228</ele>
        <time>2022-10-02T12:22:12.000Z</time>
      </trkpt>
      <trkpt lat="45.85488" lon="4.67781">
        <ele>202.71696</ele>
        <time>2022-10-02T12:22:13.000Z</time>
      </trkpt>
      <trkpt lat="45.85487" lon="4.6779">
        <ele>204.44716</ele>
        <time>2022-10-02T12:22:14.000Z</time>
      </trkpt>
      <trkpt lat="45.8549" lon="4.67799">
        <ele>203.72645</ele>
        <time>2022-10-02T12:22:15.000Z</time>
      </trkpt>
      <trkpt lat="45.85495" lon="4.67804">
        <ele>200.1509</ele>
        <time>2022-10-02T12:22:16.000Z</time>
      </trkpt>
      <trkpt lat="45.85495" lon="4.67815">
        <ele>200.55345</ele>
        <time>2022-10-02T12:22:17.000Z</time>
      </trkpt>
      <trkpt lat="45.85495" lon="4.67826">
        <ele>201.11118</ele>
        <time>2022-10-02T12:22:18.000Z</time>
      </trkpt>
      <trkpt lat="45.85497" lon="4.67835">
        <ele>201.5495</ele>
        <time>2022-10-02T12:22:19.000Z</time>
      </trkpt>
      <trkpt lat="45.85497" lon="4.67847">
        <ele>205.5194</ele>
        <time>2022-10-02T12:22:20.000Z</time>
      </trkpt>
      <trkpt lat="45.85497" lon="4.67855">
        <ele>209.59443</ele>
        <time>2022-10-02T12:22:21.000Z</time>
      </trkpt>
      <trkpt lat="45.85494" lon="4.67864">
        <ele>214.64892</ele>
        <time>2022-10-02T12:22:22.000Z</time>
      </trkpt>
      <trkpt lat="45.85497" lon="4.67875">
        <ele>214.87093</ele>
        <time>2022-10-02T12:22:23.000Z</time>
      </trkpt>
      <trkpt lat="45.85498" lon="4.67883">
        <ele>214.93125</ele>
        <time>2022-10-02T12:22:24.000Z</time>
      </trkpt>
      <trkpt lat="45.85497" lon="4.67891">
        <ele>215.56622</ele>
        <time>2022-10-02T12:22:25.000Z</time>
      </trkpt>
      <trkpt lat="45.85499" lon="4.67899">
        <ele>213.93249</ele>
        <time>2022-10-02T12:22:26.000Z</time>
      </trkpt>
      <trkpt lat="45.85498" lon="4.67905">
        <ele>214.86276</ele>
        <time>2022-10-02T12:22:27.000Z</time>
      </trkpt>
      <trkpt lat="45.855" lon="4.67911">
        <ele>214.18342</ele>
        <time>2022-10-02T12:22:28.000Z</time>
      </trkpt>
      <trkpt lat="45.85503" lon="4.67915">
        <ele>211.60922</ele>
        <time>2022-10-02T12:22:29.000Z</time>
      </trkpt>
      <trkpt lat="45.85505" lon="4.67918">
        <ele>210.50097</ele>
        <time>2022-10-02T12:22:30.000Z</time>
      </trkpt>
      <trkpt lat="45.85507" lon="4.6792">
        <ele>209.0642</ele>
        <time>2022-10-02T12:22:31.000Z</time>
      </trkpt>
      <trkpt lat="45.85508" lon="4.67923">
        <ele>207.67293</ele>
        <time>2022-10-02T12:22:32.000Z</time>
      </trkpt>
      <trkpt lat="45.85509" lon="4.67926">
        <ele>207.12672</ele>
        <time>2022-10-02T12:22:33.000Z</time>
      </trkpt>
      <trkpt lat="45.8551" lon="4.6793">
        <ele>206.63038</ele>
        <time>2022-10-02T12:22:34.000Z</time>
      </trkpt>
      <trkpt lat="45.85512" lon="4.67934">
        <ele>205.57792</ele>
        <time>2022-10-02T12:22:35.000Z</time>
      </trkpt>
      <trkpt lat="45.85513" lon="4.67938">
        <ele>204.57964</ele>
        <time>2022-10-02T12:22:36.000Z</time>
      </trkpt>
      <trkpt lat="45.85515" lon="4.67941">
        <ele>203.66546</ele>
        <time>2022-10-02T12:22:37.000Z</time>
      </trkpt>
      <trkpt lat="45.85517" lon="4.67945">
        <ele>203.07444</ele>
        <time>2022-10-02T12:22:38.000Z</time>
      </trkpt>
      <trkpt lat="45.85519" lon="4.67947">
        <ele>202.65785</ele>
        <time>2022-10-02T12:22:39.000Z</time>
      </trkpt>
      <trkpt lat="45.85521" lon="4.67951">
        <ele>202.40643</ele>
        <time>2022-10-02T12:22:41.000Z</time>
      </trkpt>
      <trkpt lat="45.85518" lon="4.67951">
        <ele>202.9253</ele>
        <time>2022-10-02T12:22:43.000Z</time>
      </trkpt>
      <trkpt lat="45.85516" lon="4.67951">
        <ele>203.32767</ele>
        <time>2022-10-02T12:22:46.000Z</time>
      </trkpt>
      <trkpt lat="45.85518" lon="4.67954">
        <ele>203.06519</ele>
        <time>2022-10-02T12:22:50.000Z</time>
      </trkpt>
      <trkpt lat="45.85519" lon="4.6796">
        <ele>202.95579</ele>
        <time>2022-10-02T12:22:52.000Z</time>
      </trkpt>
      <trkpt lat="45.8552" lon="4.67963">
        <ele>202.92118</ele>
        <time>2022-10-02T12:22:53.000Z</time>
      </trkpt>
      <trkpt lat="45.85521" lon="4.67968">
        <ele>202.8559</ele>
        <time>2022-10-02T12:22:54.000Z</time>
      </trkpt>
      <trkpt lat="45.85522" lon="4.67972">
        <ele>202.69184</ele>
        <time>2022-10-02T12:22:55.000Z</time>
      </trkpt>
      <trkpt lat="45.85526" lon="4.67979">
        <ele>202.33876</ele>
        <time>2022-10-02T12:22:56.000Z</time>
      </trkpt>
      <trkpt lat="45.85528" lon="4.67986">
        <ele>201.87243</ele>
        <time>2022-10-02T12:22:57.000Z</time>
      </trkpt>
      <trkpt lat="45.8553" lon="4.67993">
        <ele>201.41596</ele>
        <time>2022-10-02T12:22:58.000Z</time>
      </trkpt>
      <trkpt lat="45.85531" lon="4.68001">
        <ele>201.17273</ele>
        <time>2022-10-02T12:22:59.000Z</time>
      </trkpt>
      <trkpt lat="45.85533" lon="4.68008">
        <ele>200.87508</ele>
        <time>2022-10-02T12:23:00.000Z</time>
      </trkpt>
      <trkpt lat="45.85536" lon="4.68014">
        <ele>200.42659</ele>
        <time>2022-10-02T12:23:01.000Z</time>
      </trkpt>
      <trkpt lat="45.85538" lon="4.68021">
        <ele>200.12555</ele>
        <time>2022-10-02T12:23:02.000Z</time>
      </trkpt>
      <trkpt lat="45.85541" lon="4.68029">
        <ele>199.921</ele>
        <time>2022-10-02T12:23:03.000Z</time>
      </trkpt>
      <trkpt lat="45.85543" lon="4.68037">
        <ele>199.90996</ele>
        <time>2022-10-02T12:23:04.000Z</time>
      </trkpt>
      <trkpt lat="45.85545" lon="4.68045">
        <ele>199.952</ele>
        <time>2022-10-02T12:23:05.000Z</time>
      </trkpt>
      <trkpt lat="45.85549" lon="4.68051">
        <ele>199.95989</ele>
        <time>2022-10-02T12:23:06.000Z</time>
      </trkpt>
      <trkpt lat="45.85553" lon="4.68057">
        <ele>199.8377</ele>
        <time>2022-10-02T12:23:07.000Z</time>
      </trkpt>
      <trkpt lat="45.85555" lon="4.68063">
        <ele>199.7373</ele>
        <time>2022-10-02T12:23:08.000Z</time>
      </trkpt>
      <trkpt lat="45.85558" lon="4.6807">
        <ele>199.63631</ele>
        <time>2022-10-02T12:23:09.000Z</time>
      </trkpt>
      <trkpt lat="45.8556" lon="4.68076">
        <ele>199.57245</ele>
        <time>2022-10-02T12:23:10.000Z</time>
      </trkpt>
      <trkpt lat="45.85562" lon="4.68082">
        <ele>199.63344</ele>
        <time>2022-10-02T12:23:11.000Z</time>
      </trkpt>
      <trkpt lat="45.85564" lon="4.68088">
        <ele>199.68252</ele>
        <time>2022-10-02T12:23:12.000Z</time>
      </trkpt>
      <trkpt lat="45.85568" lon="4.68094">
        <ele>199.74934</ele>
        <time>2022-10-02T12:23:13.000Z</time>
      </trkpt>
      <trkpt lat="45.85572" lon="4.681">
        <ele>199.74664</ele>
        <time>2022-10-02T12:23:14.000Z</time>
      </trkpt>
      <trkpt lat="45.85576" lon="4.68106">
        <ele>199.62964</ele>
        <time>2022-10-02T12:23:15.000Z</time>
      </trkpt>
      <trkpt lat="45.85578" lon="4.68112">
        <ele>199.48041</ele>
        <time>2022-10-02T12:23:16.000Z</time>
      </trkpt>
      <trkpt lat="45.85579" lon="4.68118">
        <ele>199.37771</ele>
        <time>2022-10-02T12:23:17.000Z</time>
      </trkpt>
      <trkpt lat="45.85581" lon="4.68123">
        <ele>199.25575</ele>
        <time>2022-10-02T12:23:18.000Z</time>
      </trkpt>
      <trkpt lat="45.85583" lon="4.68127">
        <ele>199.26522</ele>
        <time>2022-10-02T12:23:19.000Z</time>
      </trkpt>
      <trkpt lat="45.85586" lon="4.68131">
        <ele>199.26389</ele>
        <time>2022-10-02T12:23:20.000Z</time>
      </trkpt>
      <trkpt lat="45.85589" lon="4.68135">
        <ele>199.31991</ele>
        <time>2022-10-02T12:23:21.000Z</time>
      </trkpt>
      <trkpt lat="45.85592" lon="4.68138">
        <ele>199.34552</ele>
        <time>2022-10-02T12:23:22.000Z</time>
      </trkpt>
      <trkpt lat="45.85595" lon="4.68143">
        <ele>199.39097</ele>
        <time>2022-10-02T12:23:23.000Z</time>
      </trkpt>
      <trkpt lat="45.85597" lon="4.68146">
        <ele>199.42709</ele>
        <time>2022-10-02T12:23:24.000Z</time>
      </trkpt>
      <trkpt lat="45.85599" lon="4.68149">
        <ele>199.36443</ele>
        <time>2022-10-02T12:23:25.000Z</time>
      </trkpt>
      <trkpt lat="45.85601" lon="4.68151">
        <ele>199.30901</ele>
        <time>2022-10-02T12:23:26.000Z</time>
      </trkpt>
      <trkpt lat="45.85603" lon="4.68155">
        <ele>199.26117</ele>
        <time>2022-10-02T12:23:27.000Z</time>
      </trkpt>
      <trkpt lat="45.85605" lon="4.68158">
        <ele>199.17268</ele>
        <time>2022-10-02T12:23:28.000Z</time>
      </trkpt>
      <trkpt lat="45.85607" lon="4.68161">
        <ele>199.07913</ele>
        <time>2022-10-02T12:23:29.000Z</time>
      </trkpt>
      <trkpt lat="45.85609" lon="4.68164">
        <ele>199.0018</ele>
        <time>2022-10-02T12:23:30.000Z</time>
      </trkpt>
      <trkpt lat="45.8561" lon="4.68167">
        <ele>198.94899</ele>
        <time>2022-10-02T12:23:31.000Z</time>
      </trkpt>
      <trkpt lat="45.85612" lon="4.68168">
        <ele>198.72616</ele>
        <time>2022-10-02T12:23:32.000Z</time>
      </trkpt>
      <trkpt lat="45.85615" lon="4.68168">
        <ele>198.35282</ele>
        <time>2022-10-02T12:23:33.000Z</time>
      </trkpt>
      <trkpt lat="45.85617" lon="4.68168">
        <ele>198.02966</ele>
        <time>2022-10-02T12:23:34.000Z</time>
      </trkpt>
      <trkpt lat="45.85619" lon="4.68169">
        <ele>197.74977</ele>
        <time>2022-10-02T12:23:36.000Z</time>
      </trkpt>
      <trkpt lat="45.85623" lon="4.68168">
        <ele>197.16003</ele>
        <time>2022-10-02T12:23:38.000Z</time>
      </trkpt>
      <trkpt lat="45.85624" lon="4.68166">
        <ele>196.76243</ele>
        <time>2022-10-02T12:23:39.000Z</time>
      </trkpt>
      <trkpt lat="45.85626" lon="4.68163">
        <ele>196.40501</ele>
        <time>2022-10-02T12:23:40.000Z</time>
      </trkpt>
      <trkpt lat="45.85628" lon="4.68159">
        <ele>196.15851</ele>
        <time>2022-10-02T12:23:41.000Z</time>
      </trkpt>
      <trkpt lat="45.85629" lon="4.68156">
        <ele>195.98118</ele>
        <time>2022-10-02T12:23:42.000Z</time>
      </trkpt>
      <trkpt lat="45.85631" lon="4.68153">
        <ele>195.90767</ele>
        <time>2022-10-02T12:23:43.000Z</time>
      </trkpt>
      <trkpt lat="45.85633" lon="4.68149">
        <ele>195.95508</ele>
        <time>2022-10-02T12:23:44.000Z</time>
      </trkpt>
      <trkpt lat="45.85634" lon="4.68146">
        <ele>196.10517</ele>
        <time>2022-10-02T12:23:45.000Z</time>
      </trkpt>
      <trkpt lat="45.85635" lon="4.68143">
        <ele>196.30897</ele>
        <time>2022-10-02T12:23:46.000Z</time>
      </trkpt>
      <trkpt lat="45.85637" lon="4.68141">
        <ele>196.56664</ele>
        <time>2022-10-02T12:23:47.000Z</time>
      </trkpt>
      <trkpt lat="45.85639" lon="4.68138">
        <ele>196.91648</ele>
        <time>2022-10-02T12:23:48.000Z</time>
      </trkpt>
      <trkpt lat="45.85641" lon="4.68136">
        <ele>197.25531</ele>
        <time>2022-10-02T12:23:49.000Z</time>
      </trkpt>
      <trkpt lat="45.85643" lon="4.68133">
        <ele>197.76872</ele>
        <time>2022-10-02T12:23:51.000Z</time>
      </trkpt>
      <trkpt lat="45.85644" lon="4.68129">
        <ele>198.10165</ele>
        <time>2022-10-02T12:23:53.000Z</time>
      </trkpt>
      <trkpt lat="45.85643" lon="4.68127">
        <ele>198.15562</ele>
        <time>2022-10-02T12:23:54.000Z</time>
      </trkpt>
      <trkpt lat="45.85642" lon="4.68125">
        <ele>198.15078</ele>
        <time>2022-10-02T12:23:55.000Z</time>
      </trkpt>
      <trkpt lat="45.85641" lon="4.68122">
        <ele>198.19413</ele>
        <time>2022-10-02T12:23:56.000Z</time>
      </trkpt>
      <trkpt lat="45.85641" lon="4.68119">
        <ele>198.39218</ele>
        <time>2022-10-02T12:23:57.000Z</time>
      </trkpt>
      <trkpt lat="45.85642" lon="4.68117">
        <ele>198.75228</ele>
        <time>2022-10-02T12:23:58.000Z</time>
      </trkpt>
      <trkpt lat="45.85645" lon="4.68116">
        <ele>199.09801</ele>
        <time>2022-10-02T12:23:59.000Z</time>
      </trkpt>
      <trkpt lat="45.85648" lon="4.68118">
        <ele>199.21134</ele>
        <time>2022-10-02T12:24:00.000Z</time>
      </trkpt>
      <trkpt lat="45.8565" lon="4.68122">
        <ele>199.0931</ele>
        <time>2022-10-02T12:24:01.000Z</time>
      </trkpt>
      <trkpt lat="45.8565" lon="4.68127">
        <ele>198.82888</ele>
        <time>2022-10-02T12:24:02.000Z</time>
      </trkpt>
      <trkpt lat="45.85651" lon="4.68133">
        <ele>198.49694</ele>
        <time>2022-10-02T12:24:03.000Z</time>
      </trkpt>
      <trkpt lat="45.85652" lon="4.68138">
        <ele>198.06558</ele>
        <time>2022-10-02T12:24:04.000Z</time>
      </trkpt>
      <trkpt lat="45.85653" lon="4.68144">
        <ele>197.65006</ele>
        <time>2022-10-02T12:24:05.000Z</time>
      </trkpt>
      <trkpt lat="45.85655" lon="4.68149">
        <ele>197.34827</ele>
        <time>2022-10-02T12:24:06.000Z</time>
      </trkpt>
      <trkpt lat="45.85658" lon="4.68153">
        <ele>197.22494</ele>
        <time>2022-10-02T12:24:07.000Z</time>
      </trkpt>
      <trkpt lat="45.8566" lon="4.68156">
        <ele>197.27828</ele>
        <time>2022-10-02T12:24:08.000Z</time>
      </trkpt>
      <trkpt lat="45.85663" lon="4.68159">
        <ele>197.39606</ele>
        <time>2022-10-02T12:24:09.000Z</time>
      </trkpt>
      <trkpt lat="45.85666" lon="4.68162">
        <ele>197.54018</ele>
        <time>2022-10-02T12:24:10.000Z</time>
      </trkpt>
      <trkpt lat="45.85669" lon="4.68166">
        <ele>197.6266</ele>
        <time>2022-10-02T12:24:11.000Z</time>
      </trkpt>
      <trkpt lat="45.85673" lon="4.68169">
        <ele>197.6355</ele>
        <time>2022-10-02T12:24:12.000Z</time>
      </trkpt>
      <trkpt lat="45.85676" lon="4.68172">
        <ele>197.64109</ele>
        <time>2022-10-02T12:24:13.000Z</time>
      </trkpt>
      <trkpt lat="45.85679" lon="4.68175">
        <ele>197.706</ele>
        <time>2022-10-02T12:24:14.000Z</time>
      </trkpt>
      <trkpt lat="45.85682" lon="4.68179">
        <ele>197.76074</ele>
        <time>2022-10-02T12:24:15.000Z</time>
      </trkpt>
      <trkpt lat="45.85685" lon="4.68182">
        <ele>197.8543</ele>
        <time>2022-10-02T12:24:16.000Z</time>
      </trkpt>
      <trkpt lat="45.85687" lon="4.68187">
        <ele>197.95739</ele>
        <time>2022-10-02T12:24:17.000Z</time>
      </trkpt>
      <trkpt lat="45.8569" lon="4.68192">
        <ele>198.06055</ele>
        <time>2022-10-02T12:24:18.000Z</time>
      </trkpt>
      <trkpt lat="45.85693" lon="4.68197">
        <ele>198.05335</ele>
        <time>2022-10-02T12:24:19.000Z</time>
      </trkpt>
      <trkpt lat="45.85695" lon="4.68202">
        <ele>197.89704</ele>
        <time>2022-10-02T12:24:20.000Z</time>
      </trkpt>
      <trkpt lat="45.85697" lon="4.68207">
        <ele>197.7462</ele>
        <time>2022-10-02T12:24:21.000Z</time>
      </trkpt>
      <trkpt lat="45.857" lon="4.68212">
        <ele>197.74817</ele>
        <time>2022-10-02T12:24:22.000Z</time>
      </trkpt>
      <trkpt lat="45.85702" lon="4.68215">
        <ele>197.96981</ele>
        <time>2022-10-02T12:24:23.000Z</time>
      </trkpt>
      <trkpt lat="45.85705" lon="4.68219">
        <ele>198.30439</ele>
        <time>2022-10-02T12:24:24.000Z</time>
      </trkpt>
      <trkpt lat="45.85707" lon="4.68223">
        <ele>198.66829</ele>
        <time>2022-10-02T12:24:25.000Z</time>
      </trkpt>
      <trkpt lat="45.8571" lon="4.68227">
        <ele>198.99915</ele>
        <time>2022-10-02T12:24:26.000Z</time>
      </trkpt>
      <trkpt lat="45.85713" lon="4.68231">
        <ele>199.07388</ele>
        <time>2022-10-02T12:24:27.000Z</time>
      </trkpt>
      <trkpt lat="45.85715" lon="4.68236">
        <ele>198.82809</ele>
        <time>2022-10-02T12:24:28.000Z</time>
      </trkpt>
      <trkpt lat="45.85718" lon="4.6824">
        <ele>198.36282</ele>
        <time>2022-10-02T12:24:29.000Z</time>
      </trkpt>
      <trkpt lat="45.85722" lon="4.68245">
        <ele>197.99551</ele>
        <time>2022-10-02T12:24:30.000Z</time>
      </trkpt>
      <trkpt lat="45.85726" lon="4.68248">
        <ele>197.94043</ele>
        <time>2022-10-02T12:24:31.000Z</time>
      </trkpt>
      <trkpt lat="45.85732" lon="4.68251">
        <ele>198.47331</ele>
        <time>2022-10-02T12:24:32.000Z</time>
      </trkpt>
      <trkpt lat="45.85736" lon="4.68255">
        <ele>198.61411</ele>
        <time>2022-10-02T12:24:33.000Z</time>
      </trkpt>
      <trkpt lat="45.8574" lon="4.68258">
        <ele>198.67498</ele>
        <time>2022-10-02T12:24:34.000Z</time>
      </trkpt>
      <trkpt lat="45.85745" lon="4.68263">
        <ele>198.41661</ele>
        <time>2022-10-02T12:24:35.000Z</time>
      </trkpt>
      <trkpt lat="45.85749" lon="4.68267">
        <ele>197.93568</ele>
        <time>2022-10-02T12:24:36.000Z</time>
      </trkpt>
      <trkpt lat="45.85754" lon="4.68272">
        <ele>197.42477</ele>
        <time>2022-10-02T12:24:37.000Z</time>
      </trkpt>
      <trkpt lat="45.85758" lon="4.68277">
        <ele>197.12626</ele>
        <time>2022-10-02T12:24:38.000Z</time>
      </trkpt>
      <trkpt lat="45.85762" lon="4.68282">
        <ele>196.98117</ele>
        <time>2022-10-02T12:24:39.000Z</time>
      </trkpt>
      <trkpt lat="45.85767" lon="4.68287">
        <ele>197.17247</ele>
        <time>2022-10-02T12:24:40.000Z</time>
      </trkpt>
      <trkpt lat="45.85771" lon="4.68292">
        <ele>197.44038</ele>
        <time>2022-10-02T12:24:41.000Z</time>
      </trkpt>
      <trkpt lat="45.85774" lon="4.68295">
        <ele>197.6675</ele>
        <time>2022-10-02T12:24:42.000Z</time>
      </trkpt>
      <trkpt lat="45.85778" lon="4.68301">
        <ele>197.6052</ele>
        <time>2022-10-02T12:24:43.000Z</time>
      </trkpt>
      <trkpt lat="45.85782" lon="4.68306">
        <ele>197.36246</ele>
        <time>2022-10-02T12:24:44.000Z</time>
      </trkpt>
      <trkpt lat="45.85785" lon="4.68312">
        <ele>196.89504</ele>
        <time>2022-10-02T12:24:45.000Z</time>
      </trkpt>
      <trkpt lat="45.85791" lon="4.68315">
        <ele>196.96499</ele>
        <time>2022-10-02T12:24:46.000Z</time>
      </trkpt>
      <trkpt lat="45.85796" lon="4.68318">
        <ele>197.16827</ele>
        <time>2022-10-02T12:24:47.000Z</time>
      </trkpt>
      <trkpt lat="45.858" lon="4.68321">
        <ele>197.41843</ele>
        <time>2022-10-02T12:24:48.000Z</time>
      </trkpt>
      <trkpt lat="45.85804" lon="4.68324">
        <ele>197.57803</ele>
        <time>2022-10-02T12:24:49.000Z</time>
      </trkpt>
      <trkpt lat="45.85808" lon="4.68328">
        <ele>197.55058</ele>
        <time>2022-10-02T12:24:50.000Z</time>
      </trkpt>
      <trkpt lat="45.85812" lon="4.68332">
        <ele>197.39942</ele>
        <time>2022-10-02T12:24:51.000Z</time>
      </trkpt>
      <trkpt lat="45.85816" lon="4.68337">
        <ele>197.17932</ele>
        <time>2022-10-02T12:24:52.000Z</time>
      </trkpt>
      <trkpt lat="45.8582" lon="4.6834">
        <ele>197.13113</ele>
        <time>2022-10-02T12:24:53.000Z</time>
      </trkpt>
      <trkpt lat="45.85823" lon="4.68346">
        <ele>197.00936</ele>
        <time>2022-10-02T12:24:54.000Z</time>
      </trkpt>
      <trkpt lat="45.85825" lon="4.68351">
        <ele>197.01166</ele>
        <time>2022-10-02T12:24:55.000Z</time>
      </trkpt>
      <trkpt lat="45.85828" lon="4.68357">
        <ele>197.01825</ele>
        <time>2022-10-02T12:24:56.000Z</time>
      </trkpt>
      <trkpt lat="45.85831" lon="4.68363">
        <ele>197.1101</ele>
        <time>2022-10-02T12:24:57.000Z</time>
      </trkpt>
      <trkpt lat="45.85836" lon="4.68366">
        <ele>197.4809</ele>
        <time>2022-10-02T12:24:58.000Z</time>
      </trkpt>
      <trkpt lat="45.8584" lon="4.68371">
        <ele>197.75087</ele>
        <time>2022-10-02T12:24:59.000Z</time>
      </trkpt>
      <trkpt lat="45.85843" lon="4.68376">
        <ele>197.93241</ele>
        <time>2022-10-02T12:25:00.000Z</time>
      </trkpt>
      <trkpt lat="45.85846" lon="4.68382">
        <ele>197.99937</ele>
        <time>2022-10-02T12:25:01.000Z</time>
      </trkpt>
      <trkpt lat="45.85848" lon="4.68387">
        <ele>197.93992</ele>
        <time>2022-10-02T12:25:02.000Z</time>
      </trkpt>
      <trkpt lat="45.8585" lon="4.68392">
        <ele>197.822</ele>
        <time>2022-10-02T12:25:03.000Z</time>
      </trkpt>
      <trkpt lat="45.85852" lon="4.68396">
        <ele>197.72547</ele>
        <time>2022-10-02T12:25:04.000Z</time>
      </trkpt>
      <trkpt lat="45.85854" lon="4.684">
        <ele>197.59283</ele>
        <time>2022-10-02T12:25:05.000Z</time>
      </trkpt>
      <trkpt lat="45.85855" lon="4.68404">
        <ele>197.41555</ele>
        <time>2022-10-02T12:25:06.000Z</time>
      </trkpt>
      <trkpt lat="45.85857" lon="4.68409">
        <ele>197.32106</ele>
        <time>2022-10-02T12:25:07.000Z</time>
      </trkpt>
      <trkpt lat="45.85857" lon="4.68414">
        <ele>197.21987</ele>
        <time>2022-10-02T12:25:08.000Z</time>
      </trkpt>
      <trkpt lat="45.85859" lon="4.68419">
        <ele>197.37892</ele>
        <time>2022-10-02T12:25:09.000Z</time>
      </trkpt>
      <trkpt lat="45.8586" lon="4.68424">
        <ele>197.54816</ele>
        <time>2022-10-02T12:25:10.000Z</time>
      </trkpt>
      <trkpt lat="45.85862" lon="4.68429">
        <ele>197.80606</ele>
        <time>2022-10-02T12:25:11.000Z</time>
      </trkpt>
      <trkpt lat="45.85863" lon="4.68434">
        <ele>198.01507</ele>
        <time>2022-10-02T12:25:12.000Z</time>
      </trkpt>
      <trkpt lat="45.85863" lon="4.68439">
        <ele>198.09043</ele>
        <time>2022-10-02T12:25:13.000Z</time>
      </trkpt>
      <trkpt lat="45.85864" lon="4.68444">
        <ele>198.1459</ele>
        <time>2022-10-02T12:25:14.000Z</time>
      </trkpt>
      <trkpt lat="45.85865" lon="4.6845">
        <ele>198.18532</ele>
        <time>2022-10-02T12:25:15.000Z</time>
      </trkpt>
      <trkpt lat="45.85865" lon="4.68456">
        <ele>198.24732</ele>
        <time>2022-10-02T12:25:16.000Z</time>
      </trkpt>
      <trkpt lat="45.85866" lon="4.68461">
        <ele>198.35312</ele>
        <time>2022-10-02T12:25:17.000Z</time>
      </trkpt>
      <trkpt lat="45.85867" lon="4.68467">
        <ele>198.49288</ele>
        <time>2022-10-02T12:25:18.000Z</time>
      </trkpt>
      <trkpt lat="45.85868" lon="4.68473">
        <ele>198.62336</ele>
        <time>2022-10-02T12:25:19.000Z</time>
      </trkpt>
      <trkpt lat="45.85869" lon="4.6848">
        <ele>198.70197</ele>
        <time>2022-10-02T12:25:20.000Z</time>
      </trkpt>
      <trkpt lat="45.8587" lon="4.68486">
        <ele>198.71823</ele>
        <time>2022-10-02T12:25:21.000Z</time>
      </trkpt>
      <trkpt lat="45.85871" lon="4.68492">
        <ele>198.62493</ele>
        <time>2022-10-02T12:25:22.000Z</time>
      </trkpt>
      <trkpt lat="45.85872" lon="4.68498">
        <ele>198.43234</ele>
        <time>2022-10-02T12:25:23.000Z</time>
      </trkpt>
      <trkpt lat="45.85874" lon="4.68506">
        <ele>198.09366</ele>
        <time>2022-10-02T12:25:24.000Z</time>
      </trkpt>
      <trkpt lat="45.85875" lon="4.68512">
        <ele>197.82135</ele>
        <time>2022-10-02T12:25:25.000Z</time>
      </trkpt>
      <trkpt lat="45.85875" lon="4.68518">
        <ele>197.57114</ele>
        <time>2022-10-02T12:25:26.000Z</time>
      </trkpt>
      <trkpt lat="45.85876" lon="4.68524">
        <ele>197.38003</ele>
        <time>2022-10-02T12:25:27.000Z</time>
      </trkpt>
      <trkpt lat="45.85877" lon="4.68531">
        <ele>197.16248</ele>
        <time>2022-10-02T12:25:28.000Z</time>
      </trkpt>
      <trkpt lat="45.85878" lon="4.68538">
        <ele>196.95208</ele>
        <time>2022-10-02T12:25:29.000Z</time>
      </trkpt>
      <trkpt lat="45.85878" lon="4.68544">
        <ele>196.82293</ele>
        <time>2022-10-02T12:25:30.000Z</time>
      </trkpt>
      <trkpt lat="45.85879" lon="4.68552">
        <ele>196.82107</ele>
        <time>2022-10-02T12:25:31.000Z</time>
      </trkpt>
      <trkpt lat="45.85877" lon="4.68563">
        <ele>196.29089</ele>
        <time>2022-10-02T12:25:32.000Z</time>
      </trkpt>
      <trkpt lat="45.85878" lon="4.68569">
        <ele>196.37646</ele>
        <time>2022-10-02T12:25:33.000Z</time>
      </trkpt>
      <trkpt lat="45.85879" lon="4.68577">
        <ele>196.70772</ele>
        <time>2022-10-02T12:25:34.000Z</time>
      </trkpt>
      <trkpt lat="45.8588" lon="4.68583">
        <ele>196.9392</ele>
        <time>2022-10-02T12:25:35.000Z</time>
      </trkpt>
      <trkpt lat="45.85881" lon="4.68587">
        <ele>197.22052</ele>
        <time>2022-10-02T12:25:36.000Z</time>
      </trkpt>
      <trkpt lat="45.85883" lon="4.68592">
        <ele>197.57131</ele>
        <time>2022-10-02T12:25:37.000Z</time>
      </trkpt>
      <trkpt lat="45.85884" lon="4.68597">
        <ele>197.89326</ele>
        <time>2022-10-02T12:25:38.000Z</time>
      </trkpt>
      <trkpt lat="45.85885" lon="4.68602">
        <ele>198.03066</ele>
        <time>2022-10-02T12:25:39.000Z</time>
      </trkpt>
      <trkpt lat="45.85885" lon="4.68607">
        <ele>197.93802</ele>
        <time>2022-10-02T12:25:40.000Z</time>
      </trkpt>
      <trkpt lat="45.85885" lon="4.68611">
        <ele>198.03557</ele>
        <time>2022-10-02T12:25:41.000Z</time>
      </trkpt>
      <trkpt lat="45.85886" lon="4.68616">
        <ele>198.09314</ele>
        <time>2022-10-02T12:25:42.000Z</time>
      </trkpt>
      <trkpt lat="45.85886" lon="4.68621">
        <ele>198.16854</ele>
        <time>2022-10-02T12:25:43.000Z</time>
      </trkpt>
      <trkpt lat="45.85886" lon="4.68625">
        <ele>198.19837</ele>
        <time>2022-10-02T12:25:44.000Z</time>
      </trkpt>
      <trkpt lat="45.85887" lon="4.6863">
        <ele>198.24425</ele>
        <time>2022-10-02T12:25:45.000Z</time>
      </trkpt>
      <trkpt lat="45.85887" lon="4.68635">
        <ele>198.27611</ele>
        <time>2022-10-02T12:25:46.000Z</time>
      </trkpt>
      <trkpt lat="45.85887" lon="4.6864">
        <ele>198.30633</ele>
        <time>2022-10-02T12:25:47.000Z</time>
      </trkpt>
      <trkpt lat="45.85887" lon="4.68645">
        <ele>198.31011</ele>
        <time>2022-10-02T12:25:48.000Z</time>
      </trkpt>
      <trkpt lat="45.85887" lon="4.6865">
        <ele>198.2998</ele>
        <time>2022-10-02T12:25:49.000Z</time>
      </trkpt>
      <trkpt lat="45.85887" lon="4.68654">
        <ele>198.26169</ele>
        <time>2022-10-02T12:25:50.000Z</time>
      </trkpt>
      <trkpt lat="45.85887" lon="4.68659">
        <ele>198.22938</ele>
        <time>2022-10-02T12:25:51.000Z</time>
      </trkpt>
      <trkpt lat="45.85886" lon="4.68665">
        <ele>198.16659</ele>
        <time>2022-10-02T12:25:52.000Z</time>
      </trkpt>
      <trkpt lat="45.85886" lon="4.6867">
        <ele>198.10169</ele>
        <time>2022-10-02T12:25:53.000Z</time>
      </trkpt>
      <trkpt lat="45.85885" lon="4.68675">
        <ele>198.02495</ele>
        <time>2022-10-02T12:25:54.000Z</time>
      </trkpt>
      <trkpt lat="45.85885" lon="4.68679">
        <ele>197.99436</ele>
        <time>2022-10-02T12:25:55.000Z</time>
      </trkpt>
      <trkpt lat="45.85885" lon="4.68683">
        <ele>198.01215</ele>
        <time>2022-10-02T12:25:56.000Z</time>
      </trkpt>
      <trkpt lat="45.85885" lon="4.68688">
        <ele>198.00954</ele>
        <time>2022-10-02T12:25:57.000Z</time>
      </trkpt>
      <trkpt lat="45.85885" lon="4.68693">
        <ele>198.01709</ele>
        <time>2022-10-02T12:25:58.000Z</time>
      </trkpt>
      <trkpt lat="45.85885" lon="4.68698">
        <ele>198.00316</ele>
        <time>2022-10-02T12:25:59.000Z</time>
      </trkpt>
      <trkpt lat="45.85884" lon="4.68703">
        <ele>198.00368</ele>
        <time>2022-10-02T12:26:00.000Z</time>
      </trkpt>
      <trkpt lat="45.85884" lon="4.68707">
        <ele>197.99967</ele>
        <time>2022-10-02T12:26:01.000Z</time>
      </trkpt>
      <trkpt lat="45.85884" lon="4.68712">
        <ele>197.94345</ele>
        <time>2022-10-02T12:26:02.000Z</time>
      </trkpt>
      <trkpt lat="45.85883" lon="4.68716">
        <ele>197.89623</ele>
        <time>2022-10-02T12:26:03.000Z</time>
      </trkpt>
      <trkpt lat="45.85883" lon="4.68725">
        <ele>197.80573</ele>
        <time>2022-10-02T12:26:05.000Z</time>
      </trkpt>
      <trkpt lat="45.85882" lon="4.68729">
        <ele>197.72423</ele>
        <time>2022-10-02T12:26:06.000Z</time>
      </trkpt>
      <trkpt lat="45.85881" lon="4.68733">
        <ele>197.61347</ele>
        <time>2022-10-02T12:26:07.000Z</time>
      </trkpt>
      <trkpt lat="45.85881" lon="4.68738">
        <ele>197.48896</ele>
        <time>2022-10-02T12:26:08.000Z</time>
      </trkpt>
      <trkpt lat="45.8588" lon="4.68742">
        <ele>197.27953</ele>
        <time>2022-10-02T12:26:09.000Z</time>
      </trkpt>
      <trkpt lat="45.85879" lon="4.68747">
        <ele>197.06589</ele>
        <time>2022-10-02T12:26:10.000Z</time>
      </trkpt>
      <trkpt lat="45.85878" lon="4.68751">
        <ele>196.85006</ele>
        <time>2022-10-02T12:26:11.000Z</time>
      </trkpt>
      <trkpt lat="45.85877" lon="4.68755">
        <ele>196.60589</ele>
        <time>2022-10-02T12:26:12.000Z</time>
      </trkpt>
      <trkpt lat="45.85876" lon="4.68759">
        <ele>196.32775</ele>
        <time>2022-10-02T12:26:13.000Z</time>
      </trkpt>
      <trkpt lat="45.85876" lon="4.68763">
        <ele>196.12648</ele>
        <time>2022-10-02T12:26:14.000Z</time>
      </trkpt>
      <trkpt lat="45.85875" lon="4.68767">
        <ele>195.96031</ele>
        <time>2022-10-02T12:26:15.000Z</time>
      </trkpt>
      <trkpt lat="45.85874" lon="4.68765">
        <ele>195.74312</ele>
        <time>2022-10-02T12:26:25.000Z</time>
      </trkpt>
      <trkpt lat="45.85872" lon="4.68764">
        <ele>195.39633</ele>
        <time>2022-10-02T12:26:48.000Z</time>
      </trkpt>
      <trkpt lat="45.85871" lon="4.68761">
        <ele>195.29021</ele>
        <time>2022-10-02T12:26:52.000Z</time>
      </trkpt>
      <trkpt lat="45.85873" lon="4.68764">
        <ele>195.67503</ele>
        <time>2022-10-02T12:27:03.000Z</time>
      </trkpt>
      <trkpt lat="45.85873" lon="4.68768">
        <ele>195.59346</ele>
        <time>2022-10-02T12:27:05.000Z</time>
      </trkpt>
      <trkpt lat="45.85873" lon="4.68771">
        <ele>195.48741</ele>
        <time>2022-10-02T12:27:06.000Z</time>
      </trkpt>
      <trkpt lat="45.85872" lon="4.68774">
        <ele>195.33884</ele>
        <time>2022-10-02T12:27:07.000Z</time>
      </trkpt>
      <trkpt lat="45.85871" lon="4.68778">
        <ele>195.18332</ele>
        <time>2022-10-02T12:27:08.000Z</time>
      </trkpt>
      <trkpt lat="45.8587" lon="4.68782">
        <ele>195.0475</ele>
        <time>2022-10-02T12:27:09.000Z</time>
      </trkpt>
      <trkpt lat="45.85869" lon="4.68786">
        <ele>194.94549</ele>
        <time>2022-10-02T12:27:10.000Z</time>
      </trkpt>
      <trkpt lat="45.85868" lon="4.68792">
        <ele>194.83333</ele>
        <time>2022-10-02T12:27:11.000Z</time>
      </trkpt>
      <trkpt lat="45.85867" lon="4.68797">
        <ele>194.728</ele>
        <time>2022-10-02T12:27:12.000Z</time>
      </trkpt>
      <trkpt lat="45.85867" lon="4.68804">
        <ele>194.71429</ele>
        <time>2022-10-02T12:27:13.000Z</time>
      </trkpt>
      <trkpt lat="45.85866" lon="4.68809">
        <ele>194.81796</ele>
        <time>2022-10-02T12:27:14.000Z</time>
      </trkpt>
      <trkpt lat="45.85866" lon="4.68815">
        <ele>195.08619</ele>
        <time>2022-10-02T12:27:15.000Z</time>
      </trkpt>
      <trkpt lat="45.85865" lon="4.68821">
        <ele>195.51144</ele>
        <time>2022-10-02T12:27:16.000Z</time>
      </trkpt>
      <trkpt lat="45.85865" lon="4.68826">
        <ele>196.05333</ele>
        <time>2022-10-02T12:27:17.000Z</time>
      </trkpt>
      <trkpt lat="45.85864" lon="4.68831">
        <ele>196.64621</ele>
        <time>2022-10-02T12:27:18.000Z</time>
      </trkpt>
      <trkpt lat="45.85864" lon="4.68836">
        <ele>197.26078</ele>
        <time>2022-10-02T12:27:19.000Z</time>
      </trkpt>
      <trkpt lat="45.85864" lon="4.68842">
        <ele>197.82519</ele>
        <time>2022-10-02T12:27:20.000Z</time>
      </trkpt>
      <trkpt lat="45.85864" lon="4.68849">
        <ele>198.13564</ele>
        <time>2022-10-02T12:27:21.000Z</time>
      </trkpt>
      <trkpt lat="45.85863" lon="4.68855">
        <ele>198.22623</ele>
        <time>2022-10-02T12:27:22.000Z</time>
      </trkpt>
      <trkpt lat="45.85863" lon="4.68861">
        <ele>198.18719</ele>
        <time>2022-10-02T12:27:23.000Z</time>
      </trkpt>
      <trkpt lat="45.85863" lon="4.68867">
        <ele>198.089</ele>
        <time>2022-10-02T12:27:24.000Z</time>
      </trkpt>
      <trkpt lat="45.85863" lon="4.68873">
        <ele>197.98981</ele>
        <time>2022-10-02T12:27:25.000Z</time>
      </trkpt>
      <trkpt lat="45.85863" lon="4.6888">
        <ele>197.9742</ele>
        <time>2022-10-02T12:27:26.000Z</time>
      </trkpt>
      <trkpt lat="45.85863" lon="4.68886">
        <ele>197.96699</ele>
        <time>2022-10-02T12:27:27.000Z</time>
      </trkpt>
      <trkpt lat="45.85862" lon="4.68893">
        <ele>197.95327</ele>
        <time>2022-10-02T12:27:28.000Z</time>
      </trkpt>
      <trkpt lat="45.85862" lon="4.68902">
        <ele>197.94155</ele>
        <time>2022-10-02T12:27:29.000Z</time>
      </trkpt>
      <trkpt lat="45.85862" lon="4.68906">
        <ele>197.93921</ele>
        <time>2022-10-02T12:27:30.000Z</time>
      </trkpt>
      <trkpt lat="45.8586" lon="4.68912">
        <ele>197.7744</ele>
        <time>2022-10-02T12:27:31.000Z</time>
      </trkpt>
      <trkpt lat="45.85859" lon="4.68918">
        <ele>197.70607</ele>
        <time>2022-10-02T12:27:32.000Z</time>
      </trkpt>
      <trkpt lat="45.85859" lon="4.68923">
        <ele>197.68659</ele>
        <time>2022-10-02T12:27:33.000Z</time>
      </trkpt>
      <trkpt lat="45.85859" lon="4.68931">
        <ele>197.70247</ele>
        <time>2022-10-02T12:27:34.000Z</time>
      </trkpt>
      <trkpt lat="45.85858" lon="4.68939">
        <ele>197.62147</ele>
        <time>2022-10-02T12:27:35.000Z</time>
      </trkpt>
      <trkpt lat="45.85858" lon="4.68947">
        <ele>197.68585</ele>
        <time>2022-10-02T12:27:36.000Z</time>
      </trkpt>
      <trkpt lat="45.85859" lon="4.68954">
        <ele>197.79393</ele>
        <time>2022-10-02T12:27:37.000Z</time>
      </trkpt>
      <trkpt lat="45.85859" lon="4.68959">
        <ele>197.81848</ele>
        <time>2022-10-02T12:27:38.000Z</time>
      </trkpt>
      <trkpt lat="45.85859" lon="4.68965">
        <ele>197.90788</ele>
        <time>2022-10-02T12:27:39.000Z</time>
      </trkpt>
      <trkpt lat="45.85859" lon="4.68972">
        <ele>197.93736</ele>
        <time>2022-10-02T12:27:40.000Z</time>
      </trkpt>
      <trkpt lat="45.8586" lon="4.68979">
        <ele>197.99424</ele>
        <time>2022-10-02T12:27:41.000Z</time>
      </trkpt>
      <trkpt lat="45.85862" lon="4.68986">
        <ele>198.00341</ele>
        <time>2022-10-02T12:27:42.000Z</time>
      </trkpt>
      <trkpt lat="45.85863" lon="4.68992">
        <ele>197.99155</ele>
        <time>2022-10-02T12:27:43.000Z</time>
      </trkpt>
      <trkpt lat="45.85864" lon="4.68997">
        <ele>197.95432</ele>
        <time>2022-10-02T12:27:44.000Z</time>
      </trkpt>
      <trkpt lat="45.85866" lon="4.69004">
        <ele>197.9027</ele>
        <time>2022-10-02T12:27:45.000Z</time>
      </trkpt>
      <trkpt lat="45.85867" lon="4.69011">
        <ele>197.87218</ele>
        <time>2022-10-02T12:27:46.000Z</time>
      </trkpt>
      <trkpt lat="45.85869" lon="4.69018">
        <ele>197.86677</ele>
        <time>2022-10-02T12:27:47.000Z</time>
      </trkpt>
      <trkpt lat="45.85871" lon="4.69021">
        <ele>197.83272</ele>
        <time>2022-10-02T12:27:48.000Z</time>
      </trkpt>
      <trkpt lat="45.85873" lon="4.69025">
        <ele>197.82492</ele>
        <time>2022-10-02T12:27:49.000Z</time>
      </trkpt>
      <trkpt lat="45.85873" lon="4.6903">
        <ele>197.8381</ele>
        <time>2022-10-02T12:27:50.000Z</time>
      </trkpt>
      <trkpt lat="45.85871" lon="4.69035">
        <ele>197.85759</ele>
        <time>2022-10-02T12:27:51.000Z</time>
      </trkpt>
      <trkpt lat="45.85869" lon="4.69039">
        <ele>197.84248</ele>
        <time>2022-10-02T12:27:52.000Z</time>
      </trkpt>
      <trkpt lat="45.85868" lon="4.69045">
        <ele>197.77616</ele>
        <time>2022-10-02T12:27:53.000Z</time>
      </trkpt>
      <trkpt lat="45.85865" lon="4.69049">
        <ele>197.66882</ele>
        <time>2022-10-02T12:27:54.000Z</time>
      </trkpt>
      <trkpt lat="45.85864" lon="4.69056">
        <ele>197.51219</ele>
        <time>2022-10-02T12:27:55.000Z</time>
      </trkpt>
      <trkpt lat="45.85863" lon="4.69062">
        <ele>197.35926</ele>
        <time>2022-10-02T12:27:56.000Z</time>
      </trkpt>
      <trkpt lat="45.85862" lon="4.69068">
        <ele>197.23118</ele>
        <time>2022-10-02T12:27:57.000Z</time>
      </trkpt>
      <trkpt lat="45.85862" lon="4.69073">
        <ele>197.15761</ele>
        <time>2022-10-02T12:27:58.000Z</time>
      </trkpt>
      <trkpt lat="45.85862" lon="4.69078">
        <ele>197.11388</ele>
        <time>2022-10-02T12:27:59.000Z</time>
      </trkpt>
      <trkpt lat="45.85863" lon="4.69084">
        <ele>197.09215</ele>
        <time>2022-10-02T12:28:00.000Z</time>
      </trkpt>
      <trkpt lat="45.85863" lon="4.69089">
        <ele>197.06815</ele>
        <time>2022-10-02T12:28:01.000Z</time>
      </trkpt>
      <trkpt lat="45.85862" lon="4.69095">
        <ele>197.05154</ele>
        <time>2022-10-02T12:28:02.000Z</time>
      </trkpt>
      <trkpt lat="45.85859" lon="4.69101">
        <ele>197.01996</ele>
        <time>2022-10-02T12:28:03.000Z</time>
      </trkpt>
      <trkpt lat="45.85857" lon="4.69109">
        <ele>197.0831</ele>
        <time>2022-10-02T12:28:04.000Z</time>
      </trkpt>
      <trkpt lat="45.85855" lon="4.69114">
        <ele>197.17569</ele>
        <time>2022-10-02T12:28:05.000Z</time>
      </trkpt>
      <trkpt lat="45.85854" lon="4.69122">
        <ele>197.33738</ele>
        <time>2022-10-02T12:28:06.000Z</time>
      </trkpt>
      <trkpt lat="45.85853" lon="4.69128">
        <ele>197.43047</ele>
        <time>2022-10-02T12:28:07.000Z</time>
      </trkpt>
      <trkpt lat="45.85852" lon="4.69133">
        <ele>197.45405</ele>
        <time>2022-10-02T12:28:08.000Z</time>
      </trkpt>
      <trkpt lat="45.85852" lon="4.69138">
        <ele>197.42703</ele>
        <time>2022-10-02T12:28:09.000Z</time>
      </trkpt>
      <trkpt lat="45.85848" lon="4.69146">
        <ele>197.24555</ele>
        <time>2022-10-02T12:28:10.000Z</time>
      </trkpt>
      <trkpt lat="45.85847" lon="4.69152">
        <ele>197.11273</ele>
        <time>2022-10-02T12:28:11.000Z</time>
      </trkpt>
      <trkpt lat="45.85845" lon="4.69161">
        <ele>196.95967</ele>
        <time>2022-10-02T12:28:12.000Z</time>
      </trkpt>
      <trkpt lat="45.85844" lon="4.69171">
        <ele>196.88891</ele>
        <time>2022-10-02T12:28:13.000Z</time>
      </trkpt>
      <trkpt lat="45.85842" lon="4.69183">
        <ele>196.8442</ele>
        <time>2022-10-02T12:28:14.000Z</time>
      </trkpt>
      <trkpt lat="45.8584" lon="4.6919">
        <ele>196.81348</ele>
        <time>2022-10-02T12:28:15.000Z</time>
      </trkpt>
      <trkpt lat="45.85841" lon="4.69194">
        <ele>196.82859</ele>
        <time>2022-10-02T12:28:16.000Z</time>
      </trkpt>
      <trkpt lat="45.85838" lon="4.692">
        <ele>196.83195</ele>
        <time>2022-10-02T12:28:17.000Z</time>
      </trkpt>
      <trkpt lat="45.85838" lon="4.69208">
        <ele>196.96106</ele>
        <time>2022-10-02T12:28:18.000Z</time>
      </trkpt>
      <trkpt lat="45.85838" lon="4.69217">
        <ele>197.19331</ele>
        <time>2022-10-02T12:28:19.000Z</time>
      </trkpt>
      <trkpt lat="45.85837" lon="4.69224">
        <ele>197.3553</ele>
        <time>2022-10-02T12:28:20.000Z</time>
      </trkpt>
      <trkpt lat="45.85835" lon="4.69232">
        <ele>197.42479</ele>
        <time>2022-10-02T12:28:21.000Z</time>
      </trkpt>
      <trkpt lat="45.85834" lon="4.69238">
        <ele>197.40649</ele>
        <time>2022-10-02T12:28:22.000Z</time>
      </trkpt>
      <trkpt lat="45.85831" lon="4.69246">
        <ele>197.31138</ele>
        <time>2022-10-02T12:28:23.000Z</time>
      </trkpt>
      <trkpt lat="45.85831" lon="4.69251">
        <ele>197.27562</ele>
        <time>2022-10-02T12:28:24.000Z</time>
      </trkpt>
      <trkpt lat="45.85831" lon="4.69258">
        <ele>197.20744</ele>
        <time>2022-10-02T12:28:25.000Z</time>
      </trkpt>
      <trkpt lat="45.85832" lon="4.69265">
        <ele>197.15352</ele>
        <time>2022-10-02T12:28:26.000Z</time>
      </trkpt>
      <trkpt lat="45.85831" lon="4.69273">
        <ele>197.0165</ele>
        <time>2022-10-02T12:28:27.000Z</time>
      </trkpt>
      <trkpt lat="45.85833" lon="4.69282">
        <ele>196.88533</ele>
        <time>2022-10-02T12:28:28.000Z</time>
      </trkpt>
      <trkpt lat="45.85835" lon="4.69291">
        <ele>196.81793</ele>
        <time>2022-10-02T12:28:29.000Z</time>
      </trkpt>
      <trkpt lat="45.85837" lon="4.69301">
        <ele>196.87857</ele>
        <time>2022-10-02T12:28:30.000Z</time>
      </trkpt>
      <trkpt lat="45.85837" lon="4.69311">
        <ele>197.0678</ele>
        <time>2022-10-02T12:28:31.000Z</time>
      </trkpt>
      <trkpt lat="45.85838" lon="4.6932">
        <ele>197.30522</ele>
        <time>2022-10-02T12:28:32.000Z</time>
      </trkpt>
      <trkpt lat="45.85843" lon="4.69327">
        <ele>197.57045</ele>
        <time>2022-10-02T12:28:33.000Z</time>
      </trkpt>
      <trkpt lat="45.85841" lon="4.69336">
        <ele>197.50426</ele>
        <time>2022-10-02T12:28:34.000Z</time>
      </trkpt>
      <trkpt lat="45.85843" lon="4.69345">
        <ele>197.45244</ele>
        <time>2022-10-02T12:28:35.000Z</time>
      </trkpt>
      <trkpt lat="45.85846" lon="4.69353">
        <ele>197.39391</ele>
        <time>2022-10-02T12:28:36.000Z</time>
      </trkpt>
      <trkpt lat="45.85851" lon="4.6936">
        <ele>197.34997</ele>
        <time>2022-10-02T12:28:37.000Z</time>
      </trkpt>
      <trkpt lat="45.85851" lon="4.69366">
        <ele>197.27799</ele>
        <time>2022-10-02T12:28:38.000Z</time>
      </trkpt>
      <trkpt lat="45.8585" lon="4.69371">
        <ele>197.20597</ele>
        <time>2022-10-02T12:28:39.000Z</time>
      </trkpt>
      <trkpt lat="45.85846" lon="4.69374">
        <ele>197.10259</ele>
        <time>2022-10-02T12:28:40.000Z</time>
      </trkpt>
      <trkpt lat="45.85845" lon="4.69377">
        <ele>197.00493</ele>
        <time>2022-10-02T12:28:41.000Z</time>
      </trkpt>
      <trkpt lat="45.85842" lon="4.6938">
        <ele>196.83588</ele>
        <time>2022-10-02T12:28:42.000Z</time>
      </trkpt>
      <trkpt lat="45.85839" lon="4.69386">
        <ele>196.6508</ele>
        <time>2022-10-02T12:28:43.000Z</time>
      </trkpt>
      <trkpt lat="45.85836" lon="4.69391">
        <ele>196.53832</ele>
        <time>2022-10-02T12:28:44.000Z</time>
      </trkpt>
      <trkpt lat="45.85834" lon="4.69396">
        <ele>196.49296</ele>
        <time>2022-10-02T12:28:45.000Z</time>
      </trkpt>
      <trkpt lat="45.85832" lon="4.69399">
        <ele>196.50099</ele>
        <time>2022-10-02T12:28:46.000Z</time>
      </trkpt>
      <trkpt lat="45.85829" lon="4.69403">
        <ele>196.48083</ele>
        <time>2022-10-02T12:28:47.000Z</time>
      </trkpt>
      <trkpt lat="45.85827" lon="4.69409">
        <ele>196.40131</ele>
        <time>2022-10-02T12:28:48.000Z</time>
      </trkpt>
      <trkpt lat="45.85823" lon="4.69414">
        <ele>196.08115</ele>
        <time>2022-10-02T12:28:49.000Z</time>
      </trkpt>
      <trkpt lat="45.85822" lon="4.69418">
        <ele>195.823</ele>
        <time>2022-10-02T12:28:50.000Z</time>
      </trkpt>
      <trkpt lat="45.85822" lon="4.69421">
        <ele>195.77758</ele>
        <time>2022-10-02T12:28:51.000Z</time>
      </trkpt>
      <trkpt lat="45.85821" lon="4.69427">
        <ele>195.50973</ele>
        <time>2022-10-02T12:28:52.000Z</time>
      </trkpt>
      <trkpt lat="45.8582" lon="4.69434">
        <ele>195.2311</ele>
        <time>2022-10-02T12:28:53.000Z</time>
      </trkpt>
      <trkpt lat="45.85821" lon="4.69442">
        <ele>195.20351</ele>
        <time>2022-10-02T12:28:54.000Z</time>
      </trkpt>
      <trkpt lat="45.85823" lon="4.69446">
        <ele>195.45077</ele>
        <time>2022-10-02T12:28:55.000Z</time>
      </trkpt>
      <trkpt lat="45.85823" lon="4.69455">
        <ele>195.45634</ele>
        <time>2022-10-02T12:28:56.000Z</time>
      </trkpt>
      <trkpt lat="45.85823" lon="4.69461">
        <ele>195.38318</ele>
        <time>2022-10-02T12:28:57.000Z</time>
      </trkpt>
      <trkpt lat="45.85823" lon="4.69467">
        <ele>195.4719</ele>
        <time>2022-10-02T12:28:58.000Z</time>
      </trkpt>
      <trkpt lat="45.85824" lon="4.69474">
        <ele>195.59302</ele>
        <time>2022-10-02T12:28:59.000Z</time>
      </trkpt>
      <trkpt lat="45.85826" lon="4.6948">
        <ele>195.9797</ele>
        <time>2022-10-02T12:29:00.000Z</time>
      </trkpt>
      <trkpt lat="45.85828" lon="4.69483">
        <ele>196.18824</ele>
        <time>2022-10-02T12:29:01.000Z</time>
      </trkpt>
      <trkpt lat="45.8583" lon="4.69488">
        <ele>196.37526</ele>
        <time>2022-10-02T12:29:02.000Z</time>
      </trkpt>
      <trkpt lat="45.8583" lon="4.69495">
        <ele>196.38423</ele>
        <time>2022-10-02T12:29:03.000Z</time>
      </trkpt>
      <trkpt lat="45.85831" lon="4.69503">
        <ele>196.41611</ele>
        <time>2022-10-02T12:29:04.000Z</time>
      </trkpt>
      <trkpt lat="45.85832" lon="4.69508">
        <ele>196.47717</ele>
        <time>2022-10-02T12:29:05.000Z</time>
      </trkpt>
      <trkpt lat="45.85832" lon="4.69517">
        <ele>196.42901</ele>
        <time>2022-10-02T12:29:06.000Z</time>
      </trkpt>
      <trkpt lat="45.85833" lon="4.69524">
        <ele>196.43987</ele>
        <time>2022-10-02T12:29:07.000Z</time>
      </trkpt>
      <trkpt lat="45.85832" lon="4.6953">
        <ele>196.38654</ele>
        <time>2022-10-02T12:29:08.000Z</time>
      </trkpt>
      <trkpt lat="45.85833" lon="4.69537">
        <ele>196.32259</ele>
        <time>2022-10-02T12:29:09.000Z</time>
      </trkpt>
      <trkpt lat="45.85831" lon="4.69544">
        <ele>196.20462</ele>
        <time>2022-10-02T12:29:10.000Z</time>
      </trkpt>
      <trkpt lat="45.85832" lon="4.6955">
        <ele>196.1794</ele>
        <time>2022-10-02T12:29:11.000Z</time>
      </trkpt>
      <trkpt lat="45.85833" lon="4.69557">
        <ele>196.18009</ele>
        <time>2022-10-02T12:29:12.000Z</time>
      </trkpt>
      <trkpt lat="45.85834" lon="4.69562">
        <ele>196.20836</ele>
        <time>2022-10-02T12:29:13.000Z</time>
      </trkpt>
      <trkpt lat="45.85834" lon="4.69573">
        <ele>196.24527</ele>
        <time>2022-10-02T12:29:14.000Z</time>
      </trkpt>
      <trkpt lat="45.85836" lon="4.6958">
        <ele>196.31463</ele>
        <time>2022-10-02T12:29:15.000Z</time>
      </trkpt>
      <trkpt lat="45.85838" lon="4.69587">
        <ele>196.32894</ele>
        <time>2022-10-02T12:29:16.000Z</time>
      </trkpt>
      <trkpt lat="45.85839" lon="4.69594">
        <ele>196.316</ele>
        <time>2022-10-02T12:29:17.000Z</time>
      </trkpt>
      <trkpt lat="45.85842" lon="4.69598">
        <ele>196.35178</ele>
        <time>2022-10-02T12:29:18.000Z</time>
      </trkpt>
      <trkpt lat="45.85844" lon="4.69606">
        <ele>196.36039</ele>
        <time>2022-10-02T12:29:19.000Z</time>
      </trkpt>
      <trkpt lat="45.85845" lon="4.69613">
        <ele>196.34127</ele>
        <time>2022-10-02T12:29:20.000Z</time>
      </trkpt>
      <trkpt lat="45.85847" lon="4.6962">
        <ele>196.3176</ele>
        <time>2022-10-02T12:29:21.000Z</time>
      </trkpt>
      <trkpt lat="45.85849" lon="4.69626">
        <ele>196.27297</ele>
        <time>2022-10-02T12:29:22.000Z</time>
      </trkpt>
      <trkpt lat="45.8585" lon="4.69633">
        <ele>196.18686</ele>
        <time>2022-10-02T12:29:23.000Z</time>
      </trkpt>
      <trkpt lat="45.85852" lon="4.69641">
        <ele>196.09769</ele>
        <time>2022-10-02T12:29:24.000Z</time>
      </trkpt>
      <trkpt lat="45.85854" lon="4.69648">
        <ele>196.0033</ele>
        <time>2022-10-02T12:29:25.000Z</time>
      </trkpt>
      <trkpt lat="45.85856" lon="4.69655">
        <ele>195.85004</ele>
        <time>2022-10-02T12:29:26.000Z</time>
      </trkpt>
      <trkpt lat="45.85859" lon="4.69662">
        <ele>195.79551</ele>
        <time>2022-10-02T12:29:27.000Z</time>
      </trkpt>
      <trkpt lat="45.85862" lon="4.69669">
        <ele>195.71456</ele>
        <time>2022-10-02T12:29:28.000Z</time>
      </trkpt>
      <trkpt lat="45.85864" lon="4.69675">
        <ele>195.60691</ele>
        <time>2022-10-02T12:29:29.000Z</time>
      </trkpt>
      <trkpt lat="45.85866" lon="4.69682">
        <ele>195.59372</ele>
        <time>2022-10-02T12:29:30.000Z</time>
      </trkpt>
      <trkpt lat="45.85868" lon="4.69688">
        <ele>195.73866</ele>
        <time>2022-10-02T12:29:31.000Z</time>
      </trkpt>
      <trkpt lat="45.85872" lon="4.69694">
        <ele>196.11062</ele>
        <time>2022-10-02T12:29:32.000Z</time>
      </trkpt>
      <trkpt lat="45.85872" lon="4.69701">
        <ele>196.2907</ele>
        <time>2022-10-02T12:29:33.000Z</time>
      </trkpt>
      <trkpt lat="45.85876" lon="4.69705">
        <ele>196.52787</ele>
        <time>2022-10-02T12:29:34.000Z</time>
      </trkpt>
      <trkpt lat="45.8588" lon="4.69713">
        <ele>196.46627</ele>
        <time>2022-10-02T12:29:35.000Z</time>
      </trkpt>
      <trkpt lat="45.85884" lon="4.69719">
        <ele>196.11435</ele>
        <time>2022-10-02T12:29:36.000Z</time>
      </trkpt>
      <trkpt lat="45.85887" lon="4.69726">
        <ele>195.76637</ele>
        <time>2022-10-02T12:29:37.000Z</time>
      </trkpt>
      <trkpt lat="45.85891" lon="4.69734">
        <ele>195.65186</ele>
        <time>2022-10-02T12:29:38.000Z</time>
      </trkpt>
      <trkpt lat="45.85894" lon="4.69739">
        <ele>195.73197</ele>
        <time>2022-10-02T12:29:39.000Z</time>
      </trkpt>
      <trkpt lat="45.85892" lon="4.69746">
        <ele>195.43461</ele>
        <time>2022-10-02T12:29:40.000Z</time>
      </trkpt>
      <trkpt lat="45.85895" lon="4.69751">
        <ele>195.39358</ele>
        <time>2022-10-02T12:29:41.000Z</time>
      </trkpt>
      <trkpt lat="45.85896" lon="4.69761">
        <ele>194.78586</ele>
        <time>2022-10-02T12:29:42.000Z</time>
      </trkpt>
      <trkpt lat="45.859" lon="4.69767">
        <ele>194.62507</ele>
        <time>2022-10-02T12:29:43.000Z</time>
      </trkpt>
      <trkpt lat="45.85903" lon="4.69771">
        <ele>194.61515</ele>
        <time>2022-10-02T12:29:44.000Z</time>
      </trkpt>
      <trkpt lat="45.85908" lon="4.69774">
        <ele>195.10379</ele>
        <time>2022-10-02T12:29:45.000Z</time>
      </trkpt>
      <trkpt lat="45.85912" lon="4.69779">
        <ele>195.43751</ele>
        <time>2022-10-02T12:29:46.000Z</time>
      </trkpt>
      <trkpt lat="45.85915" lon="4.69784">
        <ele>195.56173</ele>
        <time>2022-10-02T12:29:47.000Z</time>
      </trkpt>
      <trkpt lat="45.8592" lon="4.69787">
        <ele>195.585</ele>
        <time>2022-10-02T12:29:48.000Z</time>
      </trkpt>
      <trkpt lat="45.85924" lon="4.69792">
        <ele>195.43789</ele>
        <time>2022-10-02T12:29:49.000Z</time>
      </trkpt>
      <trkpt lat="45.85929" lon="4.69796">
        <ele>195.39234</ele>
        <time>2022-10-02T12:29:50.000Z</time>
      </trkpt>
      <trkpt lat="45.85934" lon="4.69797">
        <ele>195.59193</ele>
        <time>2022-10-02T12:29:51.000Z</time>
      </trkpt>
      <trkpt lat="45.8594" lon="4.69799">
        <ele>195.71673</ele>
        <time>2022-10-02T12:29:52.000Z</time>
      </trkpt>
      <trkpt lat="45.85943" lon="4.69806">
        <ele>195.71666</ele>
        <time>2022-10-02T12:29:53.000Z</time>
      </trkpt>
      <trkpt lat="45.85948" lon="4.69809">
        <ele>195.63774</ele>
        <time>2022-10-02T12:29:54.000Z</time>
      </trkpt>
      <trkpt lat="45.85952" lon="4.69817">
        <ele>195.4595</ele>
        <time>2022-10-02T12:29:55.000Z</time>
      </trkpt>
      <trkpt lat="45.85954" lon="4.69827">
        <ele>195.32698</ele>
        <time>2022-10-02T12:29:56.000Z</time>
      </trkpt>
      <trkpt lat="45.85961" lon="4.69829">
        <ele>195.53465</ele>
        <time>2022-10-02T12:29:57.000Z</time>
      </trkpt>
      <trkpt lat="45.85964" lon="4.69831">
        <ele>195.63968</ele>
        <time>2022-10-02T12:29:58.000Z</time>
      </trkpt>
      <trkpt lat="45.85969" lon="4.69834">
        <ele>195.78226</ele>
        <time>2022-10-02T12:29:59.000Z</time>
      </trkpt>
      <trkpt lat="45.85973" lon="4.69838">
        <ele>195.92128</ele>
        <time>2022-10-02T12:30:00.000Z</time>
      </trkpt>
      <trkpt lat="45.85977" lon="4.69843">
        <ele>195.97666</ele>
        <time>2022-10-02T12:30:01.000Z</time>
      </trkpt>
      <trkpt lat="45.85979" lon="4.69848">
        <ele>195.91279</ele>
        <time>2022-10-02T12:30:02.000Z</time>
      </trkpt>
      <trkpt lat="45.85983" lon="4.69853">
        <ele>195.70873</ele>
        <time>2022-10-02T12:30:03.000Z</time>
      </trkpt>
      <trkpt lat="45.85987" lon="4.69857">
        <ele>195.46631</ele>
        <time>2022-10-02T12:30:04.000Z</time>
      </trkpt>
      <trkpt lat="45.85991" lon="4.69861">
        <ele>195.2661</ele>
        <time>2022-10-02T12:30:05.000Z</time>
      </trkpt>
      <trkpt lat="45.85993" lon="4.69866">
        <ele>195.05288</ele>
        <time>2022-10-02T12:30:06.000Z</time>
      </trkpt>
      <trkpt lat="45.85998" lon="4.6987">
        <ele>195.13156</ele>
        <time>2022-10-02T12:30:07.000Z</time>
      </trkpt>
      <trkpt lat="45.86002" lon="4.69872">
        <ele>195.2886</ele>
        <time>2022-10-02T12:30:08.000Z</time>
      </trkpt>
      <trkpt lat="45.86008" lon="4.69874">
        <ele>195.47738</ele>
        <time>2022-10-02T12:30:09.000Z</time>
      </trkpt>
      <trkpt lat="45.86013" lon="4.69877">
        <ele>195.54894</ele>
        <time>2022-10-02T12:30:10.000Z</time>
      </trkpt>
      <trkpt lat="45.86017" lon="4.6988">
        <ele>195.56707</ele>
        <time>2022-10-02T12:30:11.000Z</time>
      </trkpt>
      <trkpt lat="45.8602" lon="4.69881">
        <ele>195.55043</ele>
        <time>2022-10-02T12:30:12.000Z</time>
      </trkpt>
      <trkpt lat="45.86025" lon="4.69881">
        <ele>195.56839</ele>
        <time>2022-10-02T12:30:13.000Z</time>
      </trkpt>
      <trkpt lat="45.86029" lon="4.6988">
        <ele>195.60036</ele>
        <time>2022-10-02T12:30:14.000Z</time>
      </trkpt>
      <trkpt lat="45.86033" lon="4.69879">
        <ele>195.5913</ele>
        <time>2022-10-02T12:30:15.000Z</time>
      </trkpt>
      <trkpt lat="45.86038" lon="4.69879">
        <ele>195.53071</ele>
        <time>2022-10-02T12:30:16.000Z</time>
      </trkpt>
      <trkpt lat="45.86046" lon="4.69878">
        <ele>195.42189</ele>
        <time>2022-10-02T12:30:17.000Z</time>
      </trkpt>
      <trkpt lat="45.8605" lon="4.69876">
        <ele>195.34061</ele>
        <time>2022-10-02T12:30:18.000Z</time>
      </trkpt>
      <trkpt lat="45.86056" lon="4.69876">
        <ele>195.32622</ele>
        <time>2022-10-02T12:30:19.000Z</time>
      </trkpt>
      <trkpt lat="45.86062" lon="4.69875">
        <ele>195.32524</ele>
        <time>2022-10-02T12:30:20.000Z</time>
      </trkpt>
      <trkpt lat="45.86067" lon="4.69874">
        <ele>195.28902</ele>
        <time>2022-10-02T12:30:21.000Z</time>
      </trkpt>
      <trkpt lat="45.86071" lon="4.69874">
        <ele>195.24524</ele>
        <time>2022-10-02T12:30:22.000Z</time>
      </trkpt>
      <trkpt lat="45.86076" lon="4.69872">
        <ele>195.13077</ele>
        <time>2022-10-02T12:30:23.000Z</time>
      </trkpt>
      <trkpt lat="45.86082" lon="4.69871">
        <ele>194.99644</ele>
        <time>2022-10-02T12:30:24.000Z</time>
      </trkpt>
      <trkpt lat="45.86087" lon="4.69869">
        <ele>194.86208</ele>
        <time>2022-10-02T12:30:25.000Z</time>
      </trkpt>
      <trkpt lat="45.86092" lon="4.69868">
        <ele>194.77173</ele>
        <time>2022-10-02T12:30:26.000Z</time>
      </trkpt>
      <trkpt lat="45.86095" lon="4.69867">
        <ele>194.72924</ele>
        <time>2022-10-02T12:30:27.000Z</time>
      </trkpt>
      <trkpt lat="45.86098" lon="4.69864">
        <ele>194.69917</ele>
        <time>2022-10-02T12:30:28.000Z</time>
      </trkpt>
      <trkpt lat="45.86103" lon="4.69862">
        <ele>194.71264</ele>
        <time>2022-10-02T12:30:29.000Z</time>
      </trkpt>
      <trkpt lat="45.86106" lon="4.69859">
        <ele>194.77916</ele>
        <time>2022-10-02T12:30:30.000Z</time>
      </trkpt>
      <trkpt lat="45.8611" lon="4.69856">
        <ele>194.88705</ele>
        <time>2022-10-02T12:30:31.000Z</time>
      </trkpt>
      <trkpt lat="45.86114" lon="4.69853">
        <ele>195.02764</ele>
        <time>2022-10-02T12:30:32.000Z</time>
      </trkpt>
      <trkpt lat="45.86118" lon="4.69848">
        <ele>195.14447</ele>
        <time>2022-10-02T12:30:33.000Z</time>
      </trkpt>
      <trkpt lat="45.86123" lon="4.69844">
        <ele>195.24564</ele>
        <time>2022-10-02T12:30:34.000Z</time>
      </trkpt>
      <trkpt lat="45.86126" lon="4.69839">
        <ele>195.27554</ele>
        <time>2022-10-02T12:30:35.000Z</time>
      </trkpt>
      <trkpt lat="45.86129" lon="4.69836">
        <ele>195.26152</ele>
        <time>2022-10-02T12:30:36.000Z</time>
      </trkpt>
      <trkpt lat="45.86133" lon="4.69833">
        <ele>195.21714</ele>
        <time>2022-10-02T12:30:37.000Z</time>
      </trkpt>
      <trkpt lat="45.86139" lon="4.69828">
        <ele>195.10541</ele>
        <time>2022-10-02T12:30:38.000Z</time>
      </trkpt>
      <trkpt lat="45.86144" lon="4.69824">
        <ele>195.00978</ele>
        <time>2022-10-02T12:30:39.000Z</time>
      </trkpt>
      <trkpt lat="45.86149" lon="4.6982">
        <ele>195.0055</ele>
        <time>2022-10-02T12:30:40.000Z</time>
      </trkpt>
      <trkpt lat="45.86154" lon="4.69817">
        <ele>195.05411</ele>
        <time>2022-10-02T12:30:41.000Z</time>
      </trkpt>
      <trkpt lat="45.86159" lon="4.69814">
        <ele>195.09367</ele>
        <time>2022-10-02T12:30:42.000Z</time>
      </trkpt>
      <trkpt lat="45.86164" lon="4.6981">
        <ele>195.08321</ele>
        <time>2022-10-02T12:30:43.000Z</time>
      </trkpt>
      <trkpt lat="45.86169" lon="4.69804">
        <ele>195.01045</ele>
        <time>2022-10-02T12:30:44.000Z</time>
      </trkpt>
      <trkpt lat="45.86174" lon="4.698">
        <ele>194.87991</ele>
        <time>2022-10-02T12:30:45.000Z</time>
      </trkpt>
      <trkpt lat="45.8618" lon="4.69797">
        <ele>194.73055</ele>
        <time>2022-10-02T12:30:46.000Z</time>
      </trkpt>
      <trkpt lat="45.86184" lon="4.69793">
        <ele>194.63353</ele>
        <time>2022-10-02T12:30:47.000Z</time>
      </trkpt>
      <trkpt lat="45.86189" lon="4.6979">
        <ele>194.64804</ele>
        <time>2022-10-02T12:30:48.000Z</time>
      </trkpt>
      <trkpt lat="45.86194" lon="4.69787">
        <ele>194.81512</ele>
        <time>2022-10-02T12:30:49.000Z</time>
      </trkpt>
      <trkpt lat="45.86199" lon="4.69785">
        <ele>195.02169</ele>
        <time>2022-10-02T12:30:50.000Z</time>
      </trkpt>
      <trkpt lat="45.86204" lon="4.69782">
        <ele>195.19507</ele>
        <time>2022-10-02T12:30:51.000Z</time>
      </trkpt>
      <trkpt lat="45.86209" lon="4.69778">
        <ele>195.16875</ele>
        <time>2022-10-02T12:30:52.000Z</time>
      </trkpt>
      <trkpt lat="45.86212" lon="4.69774">
        <ele>195.01445</ele>
        <time>2022-10-02T12:30:53.000Z</time>
      </trkpt>
      <trkpt lat="45.86216" lon="4.6977">
        <ele>194.87192</ele>
        <time>2022-10-02T12:30:54.000Z</time>
      </trkpt>
      <trkpt lat="45.8622" lon="4.69766">
        <ele>194.75357</ele>
        <time>2022-10-02T12:30:55.000Z</time>
      </trkpt>
      <trkpt lat="45.86225" lon="4.69762">
        <ele>194.80573</ele>
        <time>2022-10-02T12:30:56.000Z</time>
      </trkpt>
      <trkpt lat="45.8623" lon="4.69758">
        <ele>194.92158</ele>
        <time>2022-10-02T12:30:57.000Z</time>
      </trkpt>
      <trkpt lat="45.86235" lon="4.69754">
        <ele>195.036</ele>
        <time>2022-10-02T12:30:58.000Z</time>
      </trkpt>
      <trkpt lat="45.86239" lon="4.69751">
        <ele>195.12039</ele>
        <time>2022-10-02T12:30:59.000Z</time>
      </trkpt>
      <trkpt lat="45.86244" lon="4.6975">
        <ele>195.14404</ele>
        <time>2022-10-02T12:31:00.000Z</time>
      </trkpt>
      <trkpt lat="45.86248" lon="4.69749">
        <ele>195.11694</ele>
        <time>2022-10-02T12:31:01.000Z</time>
      </trkpt>
      <trkpt lat="45.86254" lon="4.69748">
        <ele>194.95226</ele>
        <time>2022-10-02T12:31:02.000Z</time>
      </trkpt>
      <trkpt lat="45.8626" lon="4.69749">
        <ele>194.5864</ele>
        <time>2022-10-02T12:31:03.000Z</time>
      </trkpt>
      <trkpt lat="45.86264" lon="4.69748">
        <ele>194.12595</ele>
        <time>2022-10-02T12:31:04.000Z</time>
      </trkpt>
      <trkpt lat="45.86268" lon="4.69748">
        <ele>193.72555</ele>
        <time>2022-10-02T12:31:05.000Z</time>
      </trkpt>
      <trkpt lat="45.86273" lon="4.69747">
        <ele>193.38179</ele>
        <time>2022-10-02T12:31:06.000Z</time>
      </trkpt>
      <trkpt lat="45.86278" lon="4.69747">
        <ele>193.1793</ele>
        <time>2022-10-02T12:31:07.000Z</time>
      </trkpt>
      <trkpt lat="45.86284" lon="4.69746">
        <ele>193.08112</ele>
        <time>2022-10-02T12:31:08.000Z</time>
      </trkpt>
      <trkpt lat="45.86289" lon="4.69746">
        <ele>193.09468</ele>
        <time>2022-10-02T12:31:09.000Z</time>
      </trkpt>
      <trkpt lat="45.86295" lon="4.69746">
        <ele>193.14013</ele>
        <time>2022-10-02T12:31:10.000Z</time>
      </trkpt>
      <trkpt lat="45.86299" lon="4.69747">
        <ele>193.22853</ele>
        <time>2022-10-02T12:31:11.000Z</time>
      </trkpt>
      <trkpt lat="45.86304" lon="4.69747">
        <ele>193.58152</ele>
        <time>2022-10-02T12:31:12.000Z</time>
      </trkpt>
      <trkpt lat="45.86308" lon="4.69748">
        <ele>193.91864</ele>
        <time>2022-10-02T12:31:13.000Z</time>
      </trkpt>
      <trkpt lat="45.86313" lon="4.69751">
        <ele>194.5581</ele>
        <time>2022-10-02T12:31:14.000Z</time>
      </trkpt>
      <trkpt lat="45.86318" lon="4.69752">
        <ele>195.13504</ele>
        <time>2022-10-02T12:31:15.000Z</time>
      </trkpt>
      <trkpt lat="45.86322" lon="4.69756">
        <ele>195.5036</ele>
        <time>2022-10-02T12:31:16.000Z</time>
      </trkpt>
      <trkpt lat="45.86325" lon="4.69758">
        <ele>195.60136</ele>
        <time>2022-10-02T12:31:17.000Z</time>
      </trkpt>
      <trkpt lat="45.86328" lon="4.69762">
        <ele>195.53224</ele>
        <time>2022-10-02T12:31:18.000Z</time>
      </trkpt>
      <trkpt lat="45.86332" lon="4.69767">
        <ele>195.01569</ele>
        <time>2022-10-02T12:31:19.000Z</time>
      </trkpt>
      <trkpt lat="45.86334" lon="4.69772">
        <ele>194.19561</ele>
        <time>2022-10-02T12:31:20.000Z</time>
      </trkpt>
      <trkpt lat="45.86337" lon="4.69778">
        <ele>193.17356</ele>
        <time>2022-10-02T12:31:21.000Z</time>
      </trkpt>
      <trkpt lat="45.86339" lon="4.69783">
        <ele>192.25102</ele>
        <time>2022-10-02T12:31:22.000Z</time>
      </trkpt>
      <trkpt lat="45.86342" lon="4.69789">
        <ele>191.56185</ele>
        <time>2022-10-02T12:31:23.000Z</time>
      </trkpt>
      <trkpt lat="45.86346" lon="4.69794">
        <ele>191.45543</ele>
        <time>2022-10-02T12:31:24.000Z</time>
      </trkpt>
      <trkpt lat="45.8635" lon="4.69798">
        <ele>191.941</ele>
        <time>2022-10-02T12:31:25.000Z</time>
      </trkpt>
      <trkpt lat="45.86354" lon="4.69802">
        <ele>192.41818</ele>
        <time>2022-10-02T12:31:26.000Z</time>
      </trkpt>
      <trkpt lat="45.86357" lon="4.69807">
        <ele>192.62856</ele>
        <time>2022-10-02T12:31:27.000Z</time>
      </trkpt>
      <trkpt lat="45.86362" lon="4.69812">
        <ele>192.62313</ele>
        <time>2022-10-02T12:31:28.000Z</time>
      </trkpt>
      <trkpt lat="45.86367" lon="4.69817">
        <ele>192.31695</ele>
        <time>2022-10-02T12:31:29.000Z</time>
      </trkpt>
      <trkpt lat="45.86369" lon="4.69824">
        <ele>191.84756</ele>
        <time>2022-10-02T12:31:30.000Z</time>
      </trkpt>
      <trkpt lat="45.86374" lon="4.6983">
        <ele>192.17868</ele>
        <time>2022-10-02T12:31:31.000Z</time>
      </trkpt>
      <trkpt lat="45.86379" lon="4.69839">
        <ele>193.24015</ele>
        <time>2022-10-02T12:31:32.000Z</time>
      </trkpt>
      <trkpt lat="45.86382" lon="4.69843">
        <ele>194.00426</ele>
        <time>2022-10-02T12:31:33.000Z</time>
      </trkpt>
      <trkpt lat="45.86386" lon="4.69848">
        <ele>194.558</ele>
        <time>2022-10-02T12:31:34.000Z</time>
      </trkpt>
      <trkpt lat="45.8639" lon="4.69854">
        <ele>194.72658</ele>
        <time>2022-10-02T12:31:35.000Z</time>
      </trkpt>
      <trkpt lat="45.86393" lon="4.6986">
        <ele>194.68193</ele>
        <time>2022-10-02T12:31:36.000Z</time>
      </trkpt>
      <trkpt lat="45.86394" lon="4.69866">
        <ele>194.39612</ele>
        <time>2022-10-02T12:31:37.000Z</time>
      </trkpt>
      <trkpt lat="45.86396" lon="4.69873">
        <ele>193.8724</ele>
        <time>2022-10-02T12:31:38.000Z</time>
      </trkpt>
      <trkpt lat="45.86397" lon="4.69879">
        <ele>193.53458</ele>
        <time>2022-10-02T12:31:39.000Z</time>
      </trkpt>
      <trkpt lat="45.86398" lon="4.69884">
        <ele>193.39877</ele>
        <time>2022-10-02T12:31:40.000Z</time>
      </trkpt>
      <trkpt lat="45.86399" lon="4.69894">
        <ele>193.25127</ele>
        <time>2022-10-02T12:31:41.000Z</time>
      </trkpt>
      <trkpt lat="45.86401" lon="4.699">
        <ele>193.64129</ele>
        <time>2022-10-02T12:31:42.000Z</time>
      </trkpt>
      <trkpt lat="45.86403" lon="4.69909">
        <ele>194.04563</ele>
        <time>2022-10-02T12:31:43.000Z</time>
      </trkpt>
      <trkpt lat="45.86403" lon="4.69917">
        <ele>194.20638</ele>
        <time>2022-10-02T12:31:44.000Z</time>
      </trkpt>
      <trkpt lat="45.86405" lon="4.69924">
        <ele>194.58681</ele>
        <time>2022-10-02T12:31:45.000Z</time>
      </trkpt>
      <trkpt lat="45.86404" lon="4.69934">
        <ele>194.55665</ele>
        <time>2022-10-02T12:31:46.000Z</time>
      </trkpt>
      <trkpt lat="45.86404" lon="4.69942">
        <ele>194.44953</ele>
        <time>2022-10-02T12:31:47.000Z</time>
      </trkpt>
      <trkpt lat="45.86405" lon="4.69948">
        <ele>194.47711</ele>
        <time>2022-10-02T12:31:48.000Z</time>
      </trkpt>
      <trkpt lat="45.86405" lon="4.69956">
        <ele>194.44832</ele>
        <time>2022-10-02T12:31:49.000Z</time>
      </trkpt>
      <trkpt lat="45.86404" lon="4.69962">
        <ele>194.25049</ele>
        <time>2022-10-02T12:31:50.000Z</time>
      </trkpt>
      <trkpt lat="45.86404" lon="4.69969">
        <ele>194.06702</ele>
        <time>2022-10-02T12:31:51.000Z</time>
      </trkpt>
      <trkpt lat="45.86403" lon="4.69973">
        <ele>193.94573</ele>
        <time>2022-10-02T12:31:52.000Z</time>
      </trkpt>
      <trkpt lat="45.86402" lon="4.69981">
        <ele>193.4864</ele>
        <time>2022-10-02T12:31:53.000Z</time>
      </trkpt>
      <trkpt lat="45.86401" lon="4.69992">
        <ele>193.14961</ele>
        <time>2022-10-02T12:31:54.000Z</time>
      </trkpt>
      <trkpt lat="45.86402" lon="4.69999">
        <ele>193.46198</ele>
        <time>2022-10-02T12:31:55.000Z</time>
      </trkpt>
      <trkpt lat="45.86402" lon="4.70006">
        <ele>193.4009</ele>
        <time>2022-10-02T12:31:56.000Z</time>
      </trkpt>
      <trkpt lat="45.86401" lon="4.70014">
        <ele>193.21778</ele>
        <time>2022-10-02T12:31:57.000Z</time>
      </trkpt>
      <trkpt lat="45.86401" lon="4.70023">
        <ele>193.36126</ele>
        <time>2022-10-02T12:31:58.000Z</time>
      </trkpt>
      <trkpt lat="45.86401" lon="4.70029">
        <ele>193.40359</ele>
        <time>2022-10-02T12:31:59.000Z</time>
      </trkpt>
      <trkpt lat="45.86398" lon="4.70036">
        <ele>192.89421</ele>
        <time>2022-10-02T12:32:00.000Z</time>
      </trkpt>
      <trkpt lat="45.86397" lon="4.70045">
        <ele>192.77991</ele>
        <time>2022-10-02T12:32:01.000Z</time>
      </trkpt>
      <trkpt lat="45.86395" lon="4.70053">
        <ele>192.81323</ele>
        <time>2022-10-02T12:32:02.000Z</time>
      </trkpt>
      <trkpt lat="45.86394" lon="4.70059">
        <ele>192.98707</ele>
        <time>2022-10-02T12:32:03.000Z</time>
      </trkpt>
      <trkpt lat="45.86391" lon="4.70066">
        <ele>193.31046</ele>
        <time>2022-10-02T12:32:04.000Z</time>
      </trkpt>
      <trkpt lat="45.86389" lon="4.70074">
        <ele>194.0941</ele>
        <time>2022-10-02T12:32:05.000Z</time>
      </trkpt>
      <trkpt lat="45.86388" lon="4.70082">
        <ele>194.7965</ele>
        <time>2022-10-02T12:32:06.000Z</time>
      </trkpt>
      <trkpt lat="45.86386" lon="4.70087">
        <ele>195.00885</ele>
        <time>2022-10-02T12:32:07.000Z</time>
      </trkpt>
      <trkpt lat="45.86383" lon="4.70095">
        <ele>194.93089</ele>
        <time>2022-10-02T12:32:08.000Z</time>
      </trkpt>
      <trkpt lat="45.86382" lon="4.70104">
        <ele>194.64105</ele>
        <time>2022-10-02T12:32:09.000Z</time>
      </trkpt>
      <trkpt lat="45.86381" lon="4.70112">
        <ele>194.32344</ele>
        <time>2022-10-02T12:32:10.000Z</time>
      </trkpt>
      <trkpt lat="45.86381" lon="4.7012">
        <ele>194.20005</ele>
        <time>2022-10-02T12:32:11.000Z</time>
      </trkpt>
      <trkpt lat="45.86378" lon="4.70128">
        <ele>193.99861</ele>
        <time>2022-10-02T12:32:12.000Z</time>
      </trkpt>
      <trkpt lat="45.86376" lon="4.70137">
        <ele>193.96295</ele>
        <time>2022-10-02T12:32:13.000Z</time>
      </trkpt>
      <trkpt lat="45.86375" lon="4.70146">
        <ele>194.03253</ele>
        <time>2022-10-02T12:32:14.000Z</time>
      </trkpt>
      <trkpt lat="45.86372" lon="4.70153">
        <ele>194.23014</ele>
        <time>2022-10-02T12:32:15.000Z</time>
      </trkpt>
      <trkpt lat="45.8637" lon="4.7016">
        <ele>194.26709</ele>
        <time>2022-10-02T12:32:16.000Z</time>
      </trkpt>
      <trkpt lat="45.86369" lon="4.70168">
        <ele>194.20198</ele>
        <time>2022-10-02T12:32:17.000Z</time>
      </trkpt>
      <trkpt lat="45.86366" lon="4.70173">
        <ele>194.17552</ele>
        <time>2022-10-02T12:32:18.000Z</time>
      </trkpt>
      <trkpt lat="45.86363" lon="4.7018">
        <ele>194.08739</ele>
        <time>2022-10-02T12:32:19.000Z</time>
      </trkpt>
      <trkpt lat="45.8636" lon="4.70185">
        <ele>194.08362</ele>
        <time>2022-10-02T12:32:20.000Z</time>
      </trkpt>
      <trkpt lat="45.86356" lon="4.70192">
        <ele>194.15745</ele>
        <time>2022-10-02T12:32:21.000Z</time>
      </trkpt>
      <trkpt lat="45.86351" lon="4.70195">
        <ele>194.36767</ele>
        <time>2022-10-02T12:32:22.000Z</time>
      </trkpt>
      <trkpt lat="45.86345" lon="4.70202">
        <ele>194.40748</ele>
        <time>2022-10-02T12:32:23.000Z</time>
      </trkpt>
      <trkpt lat="45.86342" lon="4.70208">
        <ele>194.30504</ele>
        <time>2022-10-02T12:32:24.000Z</time>
      </trkpt>
      <trkpt lat="45.86339" lon="4.70214">
        <ele>194.15889</ele>
        <time>2022-10-02T12:32:25.000Z</time>
      </trkpt>
      <trkpt lat="45.86337" lon="4.7022">
        <ele>194.08081</ele>
        <time>2022-10-02T12:32:26.000Z</time>
      </trkpt>
      <trkpt lat="45.86335" lon="4.70223">
        <ele>194.00443</ele>
        <time>2022-10-02T12:32:27.000Z</time>
      </trkpt>
      <trkpt lat="45.86333" lon="4.70229">
        <ele>193.99117</ele>
        <time>2022-10-02T12:32:28.000Z</time>
      </trkpt>
      <trkpt lat="45.8633" lon="4.70236">
        <ele>194.10125</ele>
        <time>2022-10-02T12:32:29.000Z</time>
      </trkpt>
      <trkpt lat="45.86327" lon="4.70244">
        <ele>194.32655</ele>
        <time>2022-10-02T12:32:30.000Z</time>
      </trkpt>
      <trkpt lat="45.86328" lon="4.70253">
        <ele>194.38679</ele>
        <time>2022-10-02T12:32:31.000Z</time>
      </trkpt>
      <trkpt lat="45.86326" lon="4.70261">
        <ele>194.42513</ele>
        <time>2022-10-02T12:32:32.000Z</time>
      </trkpt>
      <trkpt lat="45.86326" lon="4.70269">
        <ele>194.35665</ele>
        <time>2022-10-02T12:32:33.000Z</time>
      </trkpt>
      <trkpt lat="45.86326" lon="4.70274">
        <ele>194.30896</ele>
        <time>2022-10-02T12:32:34.000Z</time>
      </trkpt>
      <trkpt lat="45.86324" lon="4.70281">
        <ele>194.29638</ele>
        <time>2022-10-02T12:32:35.000Z</time>
      </trkpt>
      <trkpt lat="45.86322" lon="4.70289">
        <ele>194.25732</ele>
        <time>2022-10-02T12:32:36.000Z</time>
      </trkpt>
      <trkpt lat="45.86323" lon="4.70298">
        <ele>194.1939</ele>
        <time>2022-10-02T12:32:37.000Z</time>
      </trkpt>
      <trkpt lat="45.86324" lon="4.70309">
        <ele>194.11131</ele>
        <time>2022-10-02T12:32:38.000Z</time>
      </trkpt>
      <trkpt lat="45.86328" lon="4.70311">
        <ele>194.09707</ele>
        <time>2022-10-02T12:32:39.000Z</time>
      </trkpt>
      <trkpt lat="45.86331" lon="4.70316">
        <ele>194.0507</ele>
        <time>2022-10-02T12:32:40.000Z</time>
      </trkpt>
      <trkpt lat="45.86333" lon="4.70323">
        <ele>193.99687</ele>
        <time>2022-10-02T12:32:41.000Z</time>
      </trkpt>
      <trkpt lat="45.86337" lon="4.70327">
        <ele>193.92561</ele>
        <time>2022-10-02T12:32:42.000Z</time>
      </trkpt>
      <trkpt lat="45.86341" lon="4.70331">
        <ele>193.80649</ele>
        <time>2022-10-02T12:32:43.000Z</time>
      </trkpt>
      <trkpt lat="45.86348" lon="4.70334">
        <ele>193.58448</ele>
        <time>2022-10-02T12:32:44.000Z</time>
      </trkpt>
      <trkpt lat="45.86352" lon="4.70336">
        <ele>193.44163</ele>
        <time>2022-10-02T12:32:45.000Z</time>
      </trkpt>
      <trkpt lat="45.86357" lon="4.70339">
        <ele>193.31873</ele>
        <time>2022-10-02T12:32:46.000Z</time>
      </trkpt>
      <trkpt lat="45.8636" lon="4.70342">
        <ele>193.27253</ele>
        <time>2022-10-02T12:32:47.000Z</time>
      </trkpt>
      <trkpt lat="45.86364" lon="4.70345">
        <ele>193.22918</ele>
        <time>2022-10-02T12:32:48.000Z</time>
      </trkpt>
      <trkpt lat="45.86368" lon="4.70348">
        <ele>193.20916</ele>
        <time>2022-10-02T12:32:49.000Z</time>
      </trkpt>
      <trkpt lat="45.86372" lon="4.70353">
        <ele>193.20358</ele>
        <time>2022-10-02T12:32:50.000Z</time>
      </trkpt>
      <trkpt lat="45.86374" lon="4.70359">
        <ele>193.21159</ele>
        <time>2022-10-02T12:32:51.000Z</time>
      </trkpt>
      <trkpt lat="45.86379" lon="4.70365">
        <ele>193.17054</ele>
        <time>2022-10-02T12:32:52.000Z</time>
      </trkpt>
      <trkpt lat="45.86381" lon="4.70373">
        <ele>193.15294</ele>
        <time>2022-10-02T12:32:53.000Z</time>
      </trkpt>
      <trkpt lat="45.86386" lon="4.70378">
        <ele>193.064</ele>
        <time>2022-10-02T12:32:54.000Z</time>
      </trkpt>
      <trkpt lat="45.86387" lon="4.70385">
        <ele>192.99281</ele>
        <time>2022-10-02T12:32:55.000Z</time>
      </trkpt>
      <trkpt lat="45.8639" lon="4.70393">
        <ele>192.88432</ele>
        <time>2022-10-02T12:32:56.000Z</time>
      </trkpt>
      <trkpt lat="45.86391" lon="4.70401">
        <ele>192.82038</ele>
        <time>2022-10-02T12:32:57.000Z</time>
      </trkpt>
      <trkpt lat="45.86391" lon="4.70409">
        <ele>192.80497</ele>
        <time>2022-10-02T12:32:58.000Z</time>
      </trkpt>
      <trkpt lat="45.86393" lon="4.70417">
        <ele>192.7891</ele>
        <time>2022-10-02T12:32:59.000Z</time>
      </trkpt>
      <trkpt lat="45.86394" lon="4.70423">
        <ele>192.78983</ele>
        <time>2022-10-02T12:33:00.000Z</time>
      </trkpt>
      <trkpt lat="45.86393" lon="4.70428">
        <ele>192.81678</ele>
        <time>2022-10-02T12:33:01.000Z</time>
      </trkpt>
      <trkpt lat="45.86392" lon="4.70436">
        <ele>192.86567</ele>
        <time>2022-10-02T12:33:02.000Z</time>
      </trkpt>
      <trkpt lat="45.86389" lon="4.70442">
        <ele>192.95336</ele>
        <time>2022-10-02T12:33:03.000Z</time>
      </trkpt>
      <trkpt lat="45.86386" lon="4.70449">
        <ele>193.00707</ele>
        <time>2022-10-02T12:33:04.000Z</time>
      </trkpt>
      <trkpt lat="45.86383" lon="4.70454">
        <ele>193.00969</ele>
        <time>2022-10-02T12:33:05.000Z</time>
      </trkpt>
      <trkpt lat="45.86379" lon="4.70461">
        <ele>192.97073</ele>
        <time>2022-10-02T12:33:06.000Z</time>
      </trkpt>
      <trkpt lat="45.86377" lon="4.70465">
        <ele>192.93283</ele>
        <time>2022-10-02T12:33:07.000Z</time>
      </trkpt>
      <trkpt lat="45.86374" lon="4.70471">
        <ele>192.88694</ele>
        <time>2022-10-02T12:33:08.000Z</time>
      </trkpt>
      <trkpt lat="45.86372" lon="4.70479">
        <ele>192.84574</ele>
        <time>2022-10-02T12:33:09.000Z</time>
      </trkpt>
      <trkpt lat="45.8637" lon="4.70488">
        <ele>192.80344</ele>
        <time>2022-10-02T12:33:10.000Z</time>
      </trkpt>
      <trkpt lat="45.86371" lon="4.70494">
        <ele>192.77592</ele>
        <time>2022-10-02T12:33:11.000Z</time>
      </trkpt>
      <trkpt lat="45.86371" lon="4.70504">
        <ele>192.77692</ele>
        <time>2022-10-02T12:33:12.000Z</time>
      </trkpt>
      <trkpt lat="45.86373" lon="4.70512">
        <ele>192.83703</ele>
        <time>2022-10-02T12:33:13.000Z</time>
      </trkpt>
      <trkpt lat="45.86374" lon="4.7052">
        <ele>192.94399</ele>
        <time>2022-10-02T12:33:14.000Z</time>
      </trkpt>
      <trkpt lat="45.86373" lon="4.70533">
        <ele>193.09909</ele>
        <time>2022-10-02T12:33:15.000Z</time>
      </trkpt>
      <trkpt lat="45.86375" lon="4.70542">
        <ele>193.05591</ele>
        <time>2022-10-02T12:33:16.000Z</time>
      </trkpt>
      <trkpt lat="45.86377" lon="4.70553">
        <ele>192.90255</ele>
        <time>2022-10-02T12:33:17.000Z</time>
      </trkpt>
      <trkpt lat="45.86381" lon="4.70561">
        <ele>192.71469</ele>
        <time>2022-10-02T12:33:18.000Z</time>
      </trkpt>
      <trkpt lat="45.86388" lon="4.70564">
        <ele>192.49411</ele>
        <time>2022-10-02T12:33:19.000Z</time>
      </trkpt>
      <trkpt lat="45.86393" lon="4.70565">
        <ele>192.35187</ele>
        <time>2022-10-02T12:33:20.000Z</time>
      </trkpt>
      <trkpt lat="45.86398" lon="4.70563">
        <ele>192.08331</ele>
        <time>2022-10-02T12:33:21.000Z</time>
      </trkpt>
      <trkpt lat="45.86404" lon="4.70561">
        <ele>191.77818</ele>
        <time>2022-10-02T12:33:22.000Z</time>
      </trkpt>
      <trkpt lat="45.86409" lon="4.70558">
        <ele>191.57506</ele>
        <time>2022-10-02T12:33:23.000Z</time>
      </trkpt>
      <trkpt lat="45.86415" lon="4.70556">
        <ele>191.55028</ele>
        <time>2022-10-02T12:33:24.000Z</time>
      </trkpt>
      <trkpt lat="45.86421" lon="4.70554">
        <ele>191.58218</ele>
        <time>2022-10-02T12:33:25.000Z</time>
      </trkpt>
      <trkpt lat="45.86424" lon="4.70551">
        <ele>191.5278</ele>
        <time>2022-10-02T12:33:26.000Z</time>
      </trkpt>
      <trkpt lat="45.86429" lon="4.70552">
        <ele>191.44743</ele>
        <time>2022-10-02T12:33:27.000Z</time>
      </trkpt>
      <trkpt lat="45.86435" lon="4.70553">
        <ele>191.30216</ele>
        <time>2022-10-02T12:33:28.000Z</time>
      </trkpt>
      <trkpt lat="45.86438" lon="4.70552">
        <ele>191.14696</ele>
        <time>2022-10-02T12:33:29.000Z</time>
      </trkpt>
      <trkpt lat="45.86442" lon="4.70551">
        <ele>190.98619</ele>
        <time>2022-10-02T12:33:30.000Z</time>
      </trkpt>
      <trkpt lat="45.86446" lon="4.7055">
        <ele>190.88903</ele>
        <time>2022-10-02T12:33:31.000Z</time>
      </trkpt>
      <trkpt lat="45.8645" lon="4.7055">
        <ele>190.89019</ele>
        <time>2022-10-02T12:33:32.000Z</time>
      </trkpt>
      <trkpt lat="45.86455" lon="4.70549">
        <ele>190.92313</ele>
        <time>2022-10-02T12:33:33.000Z</time>
      </trkpt>
      <trkpt lat="45.86459" lon="4.70548">
        <ele>190.99401</ele>
        <time>2022-10-02T12:33:34.000Z</time>
      </trkpt>
      <trkpt lat="45.86464" lon="4.70549">
        <ele>191.08595</ele>
        <time>2022-10-02T12:33:35.000Z</time>
      </trkpt>
      <trkpt lat="45.86472" lon="4.7055">
        <ele>191.02896</ele>
        <time>2022-10-02T12:33:36.000Z</time>
      </trkpt>
      <trkpt lat="45.86476" lon="4.70552">
        <ele>190.9315</ele>
        <time>2022-10-02T12:33:38.000Z</time>
      </trkpt>
      <trkpt lat="45.86482" lon="4.70553">
        <ele>190.72843</ele>
        <time>2022-10-02T12:33:39.000Z</time>
      </trkpt>
      <trkpt lat="45.86491" lon="4.70554">
        <ele>190.49303</ele>
        <time>2022-10-02T12:33:40.000Z</time>
      </trkpt>
      <trkpt lat="45.86496" lon="4.70556">
        <ele>190.51921</ele>
        <time>2022-10-02T12:33:41.000Z</time>
      </trkpt>
      <trkpt lat="45.86503" lon="4.70559">
        <ele>190.75885</ele>
        <time>2022-10-02T12:33:42.000Z</time>
      </trkpt>
      <trkpt lat="45.86509" lon="4.70562">
        <ele>191.05719</ele>
        <time>2022-10-02T12:33:43.000Z</time>
      </trkpt>
      <trkpt lat="45.86516" lon="4.70567">
        <ele>191.24706</ele>
        <time>2022-10-02T12:33:44.000Z</time>
      </trkpt>
      <trkpt lat="45.86521" lon="4.70573">
        <ele>191.20451</ele>
        <time>2022-10-02T12:33:45.000Z</time>
      </trkpt>
      <trkpt lat="45.86525" lon="4.70581">
        <ele>191.0104</ele>
        <time>2022-10-02T12:33:46.000Z</time>
      </trkpt>
      <trkpt lat="45.86529" lon="4.7059">
        <ele>190.64084</ele>
        <time>2022-10-02T12:33:47.000Z</time>
      </trkpt>
      <trkpt lat="45.86534" lon="4.70598">
        <ele>190.26502</ele>
        <time>2022-10-02T12:33:48.000Z</time>
      </trkpt>
      <trkpt lat="45.86536" lon="4.70605">
        <ele>190.15689</ele>
        <time>2022-10-02T12:33:49.000Z</time>
      </trkpt>
      <trkpt lat="45.86539" lon="4.70613">
        <ele>190.19714</ele>
        <time>2022-10-02T12:33:50.000Z</time>
      </trkpt>
      <trkpt lat="45.86543" lon="4.70618">
        <ele>190.29973</ele>
        <time>2022-10-02T12:33:51.000Z</time>
      </trkpt>
      <trkpt lat="45.86547" lon="4.70622">
        <ele>190.4654</ele>
        <time>2022-10-02T12:33:52.000Z</time>
      </trkpt>
      <trkpt lat="45.86551" lon="4.70625">
        <ele>190.58173</ele>
        <time>2022-10-02T12:33:53.000Z</time>
      </trkpt>
      <trkpt lat="45.86555" lon="4.70628">
        <ele>190.70372</ele>
        <time>2022-10-02T12:33:54.000Z</time>
      </trkpt>
      <trkpt lat="45.86561" lon="4.70627">
        <ele>190.74014</ele>
        <time>2022-10-02T12:33:55.000Z</time>
      </trkpt>
      <trkpt lat="45.86564" lon="4.70625">
        <ele>190.75367</ele>
        <time>2022-10-02T12:33:56.000Z</time>
      </trkpt>
      <trkpt lat="45.86568" lon="4.70626">
        <ele>190.80524</ele>
        <time>2022-10-02T12:33:57.000Z</time>
      </trkpt>
      <trkpt lat="45.86575" lon="4.70627">
        <ele>190.88329</ele>
        <time>2022-10-02T12:33:58.000Z</time>
      </trkpt>
      <trkpt lat="45.86581" lon="4.70625">
        <ele>190.9027</ele>
        <time>2022-10-02T12:33:59.000Z</time>
      </trkpt>
      <trkpt lat="45.86589" lon="4.7062">
        <ele>190.93739</ele>
        <time>2022-10-02T12:34:00.000Z</time>
      </trkpt>
      <trkpt lat="45.86592" lon="4.70622">
        <ele>190.94123</ele>
        <time>2022-10-02T12:34:01.000Z</time>
      </trkpt>
      <trkpt lat="45.86596" lon="4.70623">
        <ele>190.90992</ele>
        <time>2022-10-02T12:34:02.000Z</time>
      </trkpt>
      <trkpt lat="45.86603" lon="4.70626">
        <ele>190.75747</ele>
        <time>2022-10-02T12:34:03.000Z</time>
      </trkpt>
      <trkpt lat="45.86607" lon="4.70631">
        <ele>190.57078</ele>
        <time>2022-10-02T12:34:04.000Z</time>
      </trkpt>
      <trkpt lat="45.8661" lon="4.70635">
        <ele>190.40709</ele>
        <time>2022-10-02T12:34:05.000Z</time>
      </trkpt>
      <trkpt lat="45.86613" lon="4.7064">
        <ele>190.27566</ele>
        <time>2022-10-02T12:34:06.000Z</time>
      </trkpt>
      <trkpt lat="45.86617" lon="4.7064">
        <ele>190.03354</ele>
        <time>2022-10-02T12:34:07.000Z</time>
      </trkpt>
      <trkpt lat="45.8662" lon="4.7064">
        <ele>189.87716</ele>
        <time>2022-10-02T12:34:08.000Z</time>
      </trkpt>
      <trkpt lat="45.86624" lon="4.70638">
        <ele>189.76266</ele>
        <time>2022-10-02T12:34:09.000Z</time>
      </trkpt>
      <trkpt lat="45.86628" lon="4.70637">
        <ele>189.75044</ele>
        <time>2022-10-02T12:34:10.000Z</time>
      </trkpt>
      <trkpt lat="45.86632" lon="4.70634">
        <ele>189.81946</ele>
        <time>2022-10-02T12:34:11.000Z</time>
      </trkpt>
      <trkpt lat="45.86633" lon="4.70629">
        <ele>189.73122</ele>
        <time>2022-10-02T12:34:12.000Z</time>
      </trkpt>
      <trkpt lat="45.86633" lon="4.70622">
        <ele>189.56181</ele>
        <time>2022-10-02T12:34:13.000Z</time>
      </trkpt>
      <trkpt lat="45.86634" lon="4.70617">
        <ele>189.54039</ele>
        <time>2022-10-02T12:34:14.000Z</time>
      </trkpt>
      <trkpt lat="45.86635" lon="4.70611">
        <ele>189.64658</ele>
        <time>2022-10-02T12:34:15.000Z</time>
      </trkpt>
      <trkpt lat="45.86638" lon="4.70607">
        <ele>189.86977</ele>
        <time>2022-10-02T12:34:16.000Z</time>
      </trkpt>
      <trkpt lat="45.86641" lon="4.70603">
        <ele>190.14212</ele>
        <time>2022-10-02T12:34:17.000Z</time>
      </trkpt>
      <trkpt lat="45.86644" lon="4.70601">
        <ele>190.36821</ele>
        <time>2022-10-02T12:34:18.000Z</time>
      </trkpt>
      <trkpt lat="45.86648" lon="4.706">
        <ele>190.49485</ele>
        <time>2022-10-02T12:34:19.000Z</time>
      </trkpt>
      <trkpt lat="45.86652" lon="4.70599">
        <ele>190.55762</ele>
        <time>2022-10-02T12:34:20.000Z</time>
      </trkpt>
      <trkpt lat="45.86656" lon="4.70599">
        <ele>190.56013</ele>
        <time>2022-10-02T12:34:21.000Z</time>
      </trkpt>
      <trkpt lat="45.86659" lon="4.70601">
        <ele>190.50864</ele>
        <time>2022-10-02T12:34:22.000Z</time>
      </trkpt>
      <trkpt lat="45.8666" lon="4.70605">
        <ele>190.38326</ele>
        <time>2022-10-02T12:34:24.000Z</time>
      </trkpt>
      <trkpt lat="45.86662" lon="4.70609">
        <ele>190.26142</ele>
        <time>2022-10-02T12:34:26.000Z</time>
      </trkpt>
      <trkpt lat="45.86664" lon="4.70612">
        <ele>190.18921</ele>
        <time>2022-10-02T12:34:27.000Z</time>
      </trkpt>
      <trkpt lat="45.86666" lon="4.70616">
        <ele>190.0612</ele>
        <time>2022-10-02T12:34:28.000Z</time>
      </trkpt>
      <trkpt lat="45.86669" lon="4.70622">
        <ele>189.87219</ele>
        <time>2022-10-02T12:34:29.000Z</time>
      </trkpt>
      <trkpt lat="45.86673" lon="4.70627">
        <ele>189.68022</ele>
        <time>2022-10-02T12:34:30.000Z</time>
      </trkpt>
      <trkpt lat="45.86676" lon="4.70634">
        <ele>189.49607</ele>
        <time>2022-10-02T12:34:31.000Z</time>
      </trkpt>
      <trkpt lat="45.86684" lon="4.70646">
        <ele>189.5041</ele>
        <time>2022-10-02T12:34:32.000Z</time>
      </trkpt>
      <trkpt lat="45.86687" lon="4.70653">
        <ele>189.50024</ele>
        <time>2022-10-02T12:34:33.000Z</time>
      </trkpt>
      <trkpt lat="45.86691" lon="4.70661">
        <ele>189.49472</ele>
        <time>2022-10-02T12:34:34.000Z</time>
      </trkpt>
      <trkpt lat="45.86695" lon="4.70667">
        <ele>189.57561</ele>
        <time>2022-10-02T12:34:35.000Z</time>
      </trkpt>
      <trkpt lat="45.86698" lon="4.70673">
        <ele>189.76223</ele>
        <time>2022-10-02T12:34:36.000Z</time>
      </trkpt>
      <trkpt lat="45.86703" lon="4.70678">
        <ele>190.05903</ele>
        <time>2022-10-02T12:34:37.000Z</time>
      </trkpt>
      <trkpt lat="45.86707" lon="4.70682">
        <ele>190.29215</ele>
        <time>2022-10-02T12:34:38.000Z</time>
      </trkpt>
      <trkpt lat="45.8671" lon="4.70687">
        <ele>190.38598</ele>
        <time>2022-10-02T12:34:39.000Z</time>
      </trkpt>
      <trkpt lat="45.86714" lon="4.70694">
        <ele>190.32105</ele>
        <time>2022-10-02T12:34:40.000Z</time>
      </trkpt>
      <trkpt lat="45.86718" lon="4.70698">
        <ele>190.16754</ele>
        <time>2022-10-02T12:34:41.000Z</time>
      </trkpt>
      <trkpt lat="45.86722" lon="4.70704">
        <ele>189.9177</ele>
        <time>2022-10-02T12:34:42.000Z</time>
      </trkpt>
      <trkpt lat="45.86727" lon="4.70711">
        <ele>189.54711</ele>
        <time>2022-10-02T12:34:43.000Z</time>
      </trkpt>
      <trkpt lat="45.86732" lon="4.70716">
        <ele>189.32285</ele>
        <time>2022-10-02T12:34:44.000Z</time>
      </trkpt>
      <trkpt lat="45.86736" lon="4.70716">
        <ele>189.30454</ele>
        <time>2022-10-02T12:34:45.000Z</time>
      </trkpt>
      <trkpt lat="45.8674" lon="4.70717">
        <ele>189.39239</ele>
        <time>2022-10-02T12:34:46.000Z</time>
      </trkpt>
      <trkpt lat="45.86745" lon="4.70718">
        <ele>189.71348</ele>
        <time>2022-10-02T12:34:47.000Z</time>
      </trkpt>
      <trkpt lat="45.86747" lon="4.70718">
        <ele>189.90614</ele>
        <time>2022-10-02T12:34:48.000Z</time>
      </trkpt>
      <trkpt lat="45.86749" lon="4.70725">
        <ele>190.13745</ele>
        <time>2022-10-02T12:34:50.000Z</time>
      </trkpt>
      <trkpt lat="45.8675" lon="4.70733">
        <ele>190.29642</ele>
        <time>2022-10-02T12:34:51.000Z</time>
      </trkpt>
      <trkpt lat="45.86751" lon="4.7074">
        <ele>190.4015</ele>
        <time>2022-10-02T12:34:52.000Z</time>
      </trkpt>
      <trkpt lat="45.86753" lon="4.70747">
        <ele>190.57917</ele>
        <time>2022-10-02T12:34:53.000Z</time>
      </trkpt>
      <trkpt lat="45.86754" lon="4.70752">
        <ele>190.65495</ele>
        <time>2022-10-02T12:34:54.000Z</time>
      </trkpt>
      <trkpt lat="45.86755" lon="4.70758">
        <ele>190.66581</ele>
        <time>2022-10-02T12:34:55.000Z</time>
      </trkpt>
      <trkpt lat="45.86756" lon="4.70766">
        <ele>190.61499</ele>
        <time>2022-10-02T12:34:56.000Z</time>
      </trkpt>
      <trkpt lat="45.86758" lon="4.70774">
        <ele>190.5434</ele>
        <time>2022-10-02T12:34:57.000Z</time>
      </trkpt>
      <trkpt lat="45.86762" lon="4.7078">
        <ele>190.5647</ele>
        <time>2022-10-02T12:34:58.000Z</time>
      </trkpt>
      <trkpt lat="45.86765" lon="4.70786">
        <ele>190.59187</ele>
        <time>2022-10-02T12:34:59.000Z</time>
      </trkpt>
      <trkpt lat="45.86769" lon="4.70793">
        <ele>190.58495</ele>
        <time>2022-10-02T12:35:00.000Z</time>
      </trkpt>
      <trkpt lat="45.86771" lon="4.70801">
        <ele>190.46747</ele>
        <time>2022-10-02T12:35:01.000Z</time>
      </trkpt>
      <trkpt lat="45.86775" lon="4.70807">
        <ele>190.21511</ele>
        <time>2022-10-02T12:35:02.000Z</time>
      </trkpt>
      <trkpt lat="45.8678" lon="4.70816">
        <ele>189.67536</ele>
        <time>2022-10-02T12:35:03.000Z</time>
      </trkpt>
      <trkpt lat="45.86784" lon="4.70818">
        <ele>189.74308</ele>
        <time>2022-10-02T12:35:04.000Z</time>
      </trkpt>
      <trkpt lat="45.86788" lon="4.70821">
        <ele>189.86262</ele>
        <time>2022-10-02T12:35:05.000Z</time>
      </trkpt>
      <trkpt lat="45.86794" lon="4.70822">
        <ele>190.34625</ele>
        <time>2022-10-02T12:35:06.000Z</time>
      </trkpt>
      <trkpt lat="45.86798" lon="4.70824">
        <ele>190.6954</ele>
        <time>2022-10-02T12:35:07.000Z</time>
      </trkpt>
      <trkpt lat="45.86802" lon="4.70828">
        <ele>191.03595</ele>
        <time>2022-10-02T12:35:08.000Z</time>
      </trkpt>
      <trkpt lat="45.86807" lon="4.70834">
        <ele>191.20605</ele>
        <time>2022-10-02T12:35:09.000Z</time>
      </trkpt>
      <trkpt lat="45.86813" lon="4.70836">
        <ele>191.10386</ele>
        <time>2022-10-02T12:35:10.000Z</time>
      </trkpt>
      <trkpt lat="45.86816" lon="4.70844">
        <ele>190.80864</ele>
        <time>2022-10-02T12:35:11.000Z</time>
      </trkpt>
      <trkpt lat="45.86819" lon="4.70854">
        <ele>190.54112</ele>
        <time>2022-10-02T12:35:12.000Z</time>
      </trkpt>
      <trkpt lat="45.86822" lon="4.70861">
        <ele>190.50327</ele>
        <time>2022-10-02T12:35:13.000Z</time>
      </trkpt>
      <trkpt lat="45.86825" lon="4.7087">
        <ele>190.44409</ele>
        <time>2022-10-02T12:35:14.000Z</time>
      </trkpt>
      <trkpt lat="45.86828" lon="4.70876">
        <ele>190.33608</ele>
        <time>2022-10-02T12:35:15.000Z</time>
      </trkpt>
      <trkpt lat="45.86831" lon="4.70882">
        <ele>190.04888</ele>
        <time>2022-10-02T12:35:16.000Z</time>
      </trkpt>
      <trkpt lat="45.86834" lon="4.70894">
        <ele>189.44626</ele>
        <time>2022-10-02T12:35:17.000Z</time>
      </trkpt>
      <trkpt lat="45.86837" lon="4.70899">
        <ele>189.53293</ele>
        <time>2022-10-02T12:35:18.000Z</time>
      </trkpt>
      <trkpt lat="45.8684" lon="4.70904">
        <ele>189.71357</ele>
        <time>2022-10-02T12:35:19.000Z</time>
      </trkpt>
      <trkpt lat="45.86842" lon="4.70911">
        <ele>189.77433</ele>
        <time>2022-10-02T12:35:20.000Z</time>
      </trkpt>
      <trkpt lat="45.86847" lon="4.7092">
        <ele>189.79108</ele>
        <time>2022-10-02T12:35:22.000Z</time>
      </trkpt>
      <trkpt lat="45.86851" lon="4.70928">
        <ele>189.76866</ele>
        <time>2022-10-02T12:35:23.000Z</time>
      </trkpt>
      <trkpt lat="45.86853" lon="4.70935">
        <ele>189.67649</ele>
        <time>2022-10-02T12:35:24.000Z</time>
      </trkpt>
      <trkpt lat="45.86854" lon="4.70943">
        <ele>189.59535</ele>
        <time>2022-10-02T12:35:25.000Z</time>
      </trkpt>
      <trkpt lat="45.86858" lon="4.70949">
        <ele>189.75378</ele>
        <time>2022-10-02T12:35:26.000Z</time>
      </trkpt>
      <trkpt lat="45.8686" lon="4.70956">
        <ele>189.60958</ele>
        <time>2022-10-02T12:35:27.000Z</time>
      </trkpt>
      <trkpt lat="45.86863" lon="4.70964">
        <ele>189.54795</ele>
        <time>2022-10-02T12:35:28.000Z</time>
      </trkpt>
      <trkpt lat="45.86863" lon="4.70972">
        <ele>189.39414</ele>
        <time>2022-10-02T12:35:29.000Z</time>
      </trkpt>
      <trkpt lat="45.86864" lon="4.70979">
        <ele>189.40066</ele>
        <time>2022-10-02T12:35:30.000Z</time>
      </trkpt>
      <trkpt lat="45.86865" lon="4.70987">
        <ele>189.51129</ele>
        <time>2022-10-02T12:35:31.000Z</time>
      </trkpt>
      <trkpt lat="45.86865" lon="4.70994">
        <ele>189.5742</ele>
        <time>2022-10-02T12:35:32.000Z</time>
      </trkpt>
      <trkpt lat="45.86865" lon="4.71003">
        <ele>189.52969</ele>
        <time>2022-10-02T12:35:33.000Z</time>
      </trkpt>
      <trkpt lat="45.86865" lon="4.71011">
        <ele>189.40931</ele>
        <time>2022-10-02T12:35:34.000Z</time>
      </trkpt>
      <trkpt lat="45.86866" lon="4.71019">
        <ele>189.21652</ele>
        <time>2022-10-02T12:35:35.000Z</time>
      </trkpt>
      <trkpt lat="45.86867" lon="4.71027">
        <ele>189.04031</ele>
        <time>2022-10-02T12:35:36.000Z</time>
      </trkpt>
      <trkpt lat="45.8687" lon="4.7103">
        <ele>189.22313</ele>
        <time>2022-10-02T12:35:37.000Z</time>
      </trkpt>
      <trkpt lat="45.86872" lon="4.71033">
        <ele>189.44136</ele>
        <time>2022-10-02T12:35:38.000Z</time>
      </trkpt>
      <trkpt lat="45.86873" lon="4.71038">
        <ele>189.57417</ele>
        <time>2022-10-02T12:35:39.000Z</time>
      </trkpt>
      <trkpt lat="45.86876" lon="4.71043">
        <ele>189.86598</ele>
        <time>2022-10-02T12:35:40.000Z</time>
      </trkpt>
      <trkpt lat="45.86878" lon="4.71047">
        <ele>190.18773</ele>
        <time>2022-10-02T12:35:41.000Z</time>
      </trkpt>
      <trkpt lat="45.8688" lon="4.71049">
        <ele>190.56755</ele>
        <time>2022-10-02T12:35:42.000Z</time>
      </trkpt>
      <trkpt lat="45.86883" lon="4.71052">
        <ele>190.95275</ele>
        <time>2022-10-02T12:35:43.000Z</time>
      </trkpt>
      <trkpt lat="45.86884" lon="4.71054">
        <ele>191.13927</ele>
        <time>2022-10-02T12:35:44.000Z</time>
      </trkpt>
      <trkpt lat="45.86884" lon="4.71054">
        <ele>191.13927</ele>
        <time>2022-10-02T12:35:44.000Z</time>
      </trkpt>
      <trkpt lat="45.86884" lon="4.71058">
        <ele>191.177</ele>
        <time>2022-10-02T12:35:45.000Z</time>
      </trkpt>
      <trkpt lat="45.86886" lon="4.71059">
        <ele>191.35822</ele>
        <time>2022-10-02T12:35:46.000Z</time>
      </trkpt>
      <trkpt lat="45.86888" lon="4.71061">
        <ele>191.50247</ele>
        <time>2022-10-02T12:35:48.000Z</time>
      </trkpt>
      <trkpt lat="45.86887" lon="4.71064">
        <ele>191.44949</ele>
        <time>2022-10-02T12:35:53.000Z</time>
      </trkpt>
      <trkpt lat="45.86885" lon="4.71065">
        <ele>191.26668</ele>
        <time>2022-10-02T12:35:55.000Z</time>
      </trkpt>
      <trkpt lat="45.86883" lon="4.71067">
        <ele>191.02473</ele>
        <time>2022-10-02T12:35:58.000Z</time>
      </trkpt>
      <trkpt lat="45.86882" lon="4.71069">
        <ele>190.78934</ele>
        <time>2022-10-02T12:36:02.000Z</time>
      </trkpt>
      <trkpt lat="45.8688" lon="4.7107">
        <ele>190.4624</ele>
        <time>2022-10-02T12:36:03.000Z</time>
      </trkpt>
      <trkpt lat="45.86877" lon="4.71072">
        <ele>190.02165</ele>
        <time>2022-10-02T12:36:04.000Z</time>
      </trkpt>
      <trkpt lat="45.86874" lon="4.71073">
        <ele>189.51345</ele>
        <time>2022-10-02T12:36:05.000Z</time>
      </trkpt>
      <trkpt lat="45.86872" lon="4.71075">
        <ele>189.03936</ele>
        <time>2022-10-02T12:36:06.000Z</time>
      </trkpt>
      <trkpt lat="45.86869" lon="4.71076">
        <ele>188.62945</ele>
        <time>2022-10-02T12:36:07.000Z</time>
      </trkpt>
      <trkpt lat="45.86866" lon="4.71078">
        <ele>188.2988</ele>
        <time>2022-10-02T12:36:08.000Z</time>
      </trkpt>
      <trkpt lat="45.86864" lon="4.71078">
        <ele>188.07663</ele>
        <time>2022-10-02T12:36:09.000Z</time>
      </trkpt>
      <trkpt lat="45.86861" lon="4.71078">
        <ele>187.89775</ele>
        <time>2022-10-02T12:36:10.000Z</time>
      </trkpt>
      <trkpt lat="45.86859" lon="4.71078">
        <ele>187.74186</ele>
        <time>2022-10-02T12:36:11.000Z</time>
      </trkpt>
      <trkpt lat="45.86856" lon="4.71078">
        <ele>187.6273</ele>
        <time>2022-10-02T12:36:12.000Z</time>
      </trkpt>
      <trkpt lat="45.86853" lon="4.71078">
        <ele>187.55</ele>
        <time>2022-10-02T12:36:13.000Z</time>
      </trkpt>
      <trkpt lat="45.86851" lon="4.71077">
        <ele>187.51783</ele>
        <time>2022-10-02T12:36:14.000Z</time>
      </trkpt>
      <trkpt lat="45.86848" lon="4.71077">
        <ele>187.53899</ele>
        <time>2022-10-02T12:36:15.000Z</time>
      </trkpt>
      <trkpt lat="45.86845" lon="4.71077">
        <ele>187.62456</ele>
        <time>2022-10-02T12:36:16.000Z</time>
      </trkpt>
      <trkpt lat="45.86843" lon="4.71076">
        <ele>187.76812</ele>
        <time>2022-10-02T12:36:17.000Z</time>
      </trkpt>
      <trkpt lat="45.8684" lon="4.71076">
        <ele>188.03222</ele>
        <time>2022-10-02T12:36:18.000Z</time>
      </trkpt>
      <trkpt lat="45.86837" lon="4.71076">
        <ele>188.40236</ele>
        <time>2022-10-02T12:36:19.000Z</time>
      </trkpt>
      <trkpt lat="45.86835" lon="4.71077">
        <ele>188.85584</ele>
        <time>2022-10-02T12:36:20.000Z</time>
      </trkpt>
      <trkpt lat="45.86832" lon="4.71077">
        <ele>189.33589</ele>
        <time>2022-10-02T12:36:21.000Z</time>
      </trkpt>
      <trkpt lat="45.8683" lon="4.71076">
        <ele>189.82186</ele>
        <time>2022-10-02T12:36:22.000Z</time>
      </trkpt>
      <trkpt lat="45.86827" lon="4.71076">
        <ele>190.36551</ele>
        <time>2022-10-02T12:36:23.000Z</time>
      </trkpt>
      <trkpt lat="45.86824" lon="4.71076">
        <ele>190.88175</ele>
        <time>2022-10-02T12:36:24.000Z</time>
      </trkpt>
      <trkpt lat="45.86821" lon="4.71076">
        <ele>191.2321</ele>
        <time>2022-10-02T12:36:25.000Z</time>
      </trkpt>
      <trkpt lat="45.86818" lon="4.71075">
        <ele>191.40442</ele>
        <time>2022-10-02T12:36:26.000Z</time>
      </trkpt>
      <trkpt lat="45.86816" lon="4.71075">
        <ele>191.49519</ele>
        <time>2022-10-02T12:36:28.000Z</time>
      </trkpt>
      <trkpt lat="45.86818" lon="4.71074">
        <ele>191.42764</ele>
        <time>2022-10-02T12:36:32.000Z</time>
      </trkpt>
      <trkpt lat="45.86818" lon="4.71072">
        <ele>191.37385</ele>
        <time>2022-10-02T12:36:44.000Z</time>
      </trkpt>
      <trkpt lat="45.86817" lon="4.71073">
        <ele>191.45753</ele>
        <time>2022-10-02T12:36:54.000Z</time>
      </trkpt>
      <trkpt lat="45.86818" lon="4.71071">
        <ele>191.39629</ele>
        <time>2022-10-02T12:37:17.000Z</time>
      </trkpt>
      <trkpt lat="45.86822" lon="4.71068">
        <ele>191.07447</ele>
        <time>2022-10-02T12:37:19.000Z</time>
      </trkpt>
      <trkpt lat="45.86824" lon="4.71066">
        <ele>190.76924</ele>
        <time>2022-10-02T12:37:20.000Z</time>
      </trkpt>
      <trkpt lat="45.86826" lon="4.71064">
        <ele>190.4354</ele>
        <time>2022-10-02T12:37:21.000Z</time>
      </trkpt>
      <trkpt lat="45.86828" lon="4.71062">
        <ele>190.16828</ele>
        <time>2022-10-02T12:37:22.000Z</time>
      </trkpt>
      <trkpt lat="45.86828" lon="4.71059">
        <ele>190.01534</ele>
        <time>2022-10-02T12:37:23.000Z</time>
      </trkpt>
      <trkpt lat="45.86828" lon="4.71055">
        <ele>190.0818</ele>
        <time>2022-10-02T12:37:24.000Z</time>
      </trkpt>
      <trkpt lat="45.86827" lon="4.71049">
        <ele>190.3919</ele>
        <time>2022-10-02T12:37:25.000Z</time>
      </trkpt>
      <trkpt lat="45.86826" lon="4.71044">
        <ele>190.79785</ele>
        <time>2022-10-02T12:37:26.000Z</time>
      </trkpt>
      <trkpt lat="45.86824" lon="4.71039">
        <ele>191.13566</ele>
        <time>2022-10-02T12:37:27.000Z</time>
      </trkpt>
      <trkpt lat="45.86822" lon="4.71033">
        <ele>191.26585</ele>
        <time>2022-10-02T12:37:28.000Z</time>
      </trkpt>
      <trkpt lat="45.86819" lon="4.71027">
        <ele>191.08343</ele>
        <time>2022-10-02T12:37:29.000Z</time>
      </trkpt>
      <trkpt lat="45.86817" lon="4.71021">
        <ele>190.77812</ele>
        <time>2022-10-02T12:37:30.000Z</time>
      </trkpt>
      <trkpt lat="45.86814" lon="4.71016">
        <ele>190.59317</ele>
        <time>2022-10-02T12:37:31.000Z</time>
      </trkpt>
      <trkpt lat="45.86811" lon="4.71011">
        <ele>190.59884</ele>
        <time>2022-10-02T12:37:32.000Z</time>
      </trkpt>
      <trkpt lat="45.86809" lon="4.71006">
        <ele>190.75689</ele>
        <time>2022-10-02T12:37:33.000Z</time>
      </trkpt>
      <trkpt lat="45.86807" lon="4.71001">
        <ele>191.01364</ele>
        <time>2022-10-02T12:37:34.000Z</time>
      </trkpt>
      <trkpt lat="45.86805" lon="4.70996">
        <ele>191.31853</ele>
        <time>2022-10-02T12:37:35.000Z</time>
      </trkpt>
      <trkpt lat="45.86803" lon="4.70991">
        <ele>191.60992</ele>
        <time>2022-10-02T12:37:36.000Z</time>
      </trkpt>
      <trkpt lat="45.86801" lon="4.70987">
        <ele>191.8918</ele>
        <time>2022-10-02T12:37:37.000Z</time>
      </trkpt>
      <trkpt lat="45.86799" lon="4.70982">
        <ele>192.13388</ele>
        <time>2022-10-02T12:37:38.000Z</time>
      </trkpt>
      <trkpt lat="45.86797" lon="4.70978">
        <ele>192.26994</ele>
        <time>2022-10-02T12:37:39.000Z</time>
      </trkpt>
      <trkpt lat="45.86794" lon="4.70973">
        <ele>192.26732</ele>
        <time>2022-10-02T12:37:40.000Z</time>
      </trkpt>
      <trkpt lat="45.86791" lon="4.70969">
        <ele>192.16099</ele>
        <time>2022-10-02T12:37:41.000Z</time>
      </trkpt>
      <trkpt lat="45.86788" lon="4.70964">
        <ele>192.00074</ele>
        <time>2022-10-02T12:37:42.000Z</time>
      </trkpt>
      <trkpt lat="45.86785" lon="4.7096">
        <ele>191.87976</ele>
        <time>2022-10-02T12:37:43.000Z</time>
      </trkpt>
      <trkpt lat="45.86782" lon="4.70955">
        <ele>191.87033</ele>
        <time>2022-10-02T12:37:44.000Z</time>
      </trkpt>
      <trkpt lat="45.86779" lon="4.70951">
        <ele>191.96825</ele>
        <time>2022-10-02T12:37:45.000Z</time>
      </trkpt>
      <trkpt lat="45.86776" lon="4.70947">
        <ele>192.0988</ele>
        <time>2022-10-02T12:37:46.000Z</time>
      </trkpt>
      <trkpt lat="45.86772" lon="4.70943">
        <ele>192.1713</ele>
        <time>2022-10-02T12:37:47.000Z</time>
      </trkpt>
      <trkpt lat="45.86769" lon="4.70939">
        <ele>192.15917</ele>
        <time>2022-10-02T12:37:48.000Z</time>
      </trkpt>
      <trkpt lat="45.86766" lon="4.70935">
        <ele>192.06736</ele>
        <time>2022-10-02T12:37:49.000Z</time>
      </trkpt>
      <trkpt lat="45.86762" lon="4.7093">
        <ele>191.9702</ele>
        <time>2022-10-02T12:37:50.000Z</time>
      </trkpt>
      <trkpt lat="45.86759" lon="4.70926">
        <ele>191.94366</ele>
        <time>2022-10-02T12:37:51.000Z</time>
      </trkpt>
      <trkpt lat="45.86755" lon="4.70921">
        <ele>192.00952</ele>
        <time>2022-10-02T12:37:52.000Z</time>
      </trkpt>
      <trkpt lat="45.86753" lon="4.70916">
        <ele>192.10075</ele>
        <time>2022-10-02T12:37:53.000Z</time>
      </trkpt>
      <trkpt lat="45.86749" lon="4.7091">
        <ele>192.1277</ele>
        <time>2022-10-02T12:37:54.000Z</time>
      </trkpt>
      <trkpt lat="45.86744" lon="4.70904">
        <ele>191.99207</ele>
        <time>2022-10-02T12:37:55.000Z</time>
      </trkpt>
      <trkpt lat="45.8674" lon="4.70899">
        <ele>191.78767</ele>
        <time>2022-10-02T12:37:56.000Z</time>
      </trkpt>
      <trkpt lat="45.86736" lon="4.70896">
        <ele>191.63893</ele>
        <time>2022-10-02T12:37:57.000Z</time>
      </trkpt>
      <trkpt lat="45.86732" lon="4.70892">
        <ele>191.586</ele>
        <time>2022-10-02T12:37:58.000Z</time>
      </trkpt>
      <trkpt lat="45.86727" lon="4.70889">
        <ele>191.62807</ele>
        <time>2022-10-02T12:37:59.000Z</time>
      </trkpt>
      <trkpt lat="45.86723" lon="4.70886">
        <ele>191.76096</ele>
        <time>2022-10-02T12:38:00.000Z</time>
      </trkpt>
      <trkpt lat="45.86721" lon="4.70884">
        <ele>191.82627</ele>
        <time>2022-10-02T12:38:01.000Z</time>
      </trkpt>
      <trkpt lat="45.86717" lon="4.70883">
        <ele>191.96425</ele>
        <time>2022-10-02T12:38:02.000Z</time>
      </trkpt>
      <trkpt lat="45.86712" lon="4.70881">
        <ele>192.11632</ele>
        <time>2022-10-02T12:38:03.000Z</time>
      </trkpt>
      <trkpt lat="45.86709" lon="4.70879">
        <ele>192.17346</ele>
        <time>2022-10-02T12:38:04.000Z</time>
      </trkpt>
      <trkpt lat="45.86705" lon="4.70877">
        <ele>192.17566</ele>
        <time>2022-10-02T12:38:05.000Z</time>
      </trkpt>
      <trkpt lat="45.867" lon="4.70875">
        <ele>192.11255</ele>
        <time>2022-10-02T12:38:06.000Z</time>
      </trkpt>
      <trkpt lat="45.86697" lon="4.70872">
        <ele>192.00497</ele>
        <time>2022-10-02T12:38:07.000Z</time>
      </trkpt>
      <trkpt lat="45.86692" lon="4.7087">
        <ele>191.86845</ele>
        <time>2022-10-02T12:38:08.000Z</time>
      </trkpt>
      <trkpt lat="45.86688" lon="4.70865">
        <ele>191.60968</ele>
        <time>2022-10-02T12:38:09.000Z</time>
      </trkpt>
      <trkpt lat="45.86684" lon="4.70864">
        <ele>191.50573</ele>
        <time>2022-10-02T12:38:10.000Z</time>
      </trkpt>
      <trkpt lat="45.8668" lon="4.70862">
        <ele>191.47756</ele>
        <time>2022-10-02T12:38:11.000Z</time>
      </trkpt>
      <trkpt lat="45.86676" lon="4.70862">
        <ele>191.45324</ele>
        <time>2022-10-02T12:38:12.000Z</time>
      </trkpt>
      <trkpt lat="45.86672" lon="4.7086">
        <ele>191.40819</ele>
        <time>2022-10-02T12:38:13.000Z</time>
      </trkpt>
      <trkpt lat="45.86665" lon="4.7086">
        <ele>191.44667</ele>
        <time>2022-10-02T12:38:14.000Z</time>
      </trkpt>
      <trkpt lat="45.86657" lon="4.7086">
        <ele>191.46554</ele>
        <time>2022-10-02T12:38:15.000Z</time>
      </trkpt>
      <trkpt lat="45.86652" lon="4.70861">
        <ele>191.581</ele>
        <time>2022-10-02T12:38:16.000Z</time>
      </trkpt>
      <trkpt lat="45.86649" lon="4.70859">
        <ele>191.25062</ele>
        <time>2022-10-02T12:38:17.000Z</time>
      </trkpt>
      <trkpt lat="45.86643" lon="4.70858">
        <ele>191.16449</ele>
        <time>2022-10-02T12:38:18.000Z</time>
      </trkpt>
      <trkpt lat="45.86638" lon="4.7086">
        <ele>191.40989</ele>
        <time>2022-10-02T12:38:19.000Z</time>
      </trkpt>
      <trkpt lat="45.86634" lon="4.7086">
        <ele>191.39368</ele>
        <time>2022-10-02T12:38:20.000Z</time>
      </trkpt>
      <trkpt lat="45.8663" lon="4.7086">
        <ele>191.37819</ele>
        <time>2022-10-02T12:38:21.000Z</time>
      </trkpt>
      <trkpt lat="45.86624" lon="4.70859">
        <ele>191.32953</ele>
        <time>2022-10-02T12:38:22.000Z</time>
      </trkpt>
      <trkpt lat="45.86619" lon="4.70856">
        <ele>190.99626</ele>
        <time>2022-10-02T12:38:23.000Z</time>
      </trkpt>
      <trkpt lat="45.86615" lon="4.70855">
        <ele>190.90316</ele>
        <time>2022-10-02T12:38:24.000Z</time>
      </trkpt>
      <trkpt lat="45.86609" lon="4.70855">
        <ele>190.84695</ele>
        <time>2022-10-02T12:38:25.000Z</time>
      </trkpt>
      <trkpt lat="45.86605" lon="4.70854">
        <ele>190.77466</ele>
        <time>2022-10-02T12:38:26.000Z</time>
      </trkpt>
      <trkpt lat="45.86601" lon="4.70857">
        <ele>191.09388</ele>
        <time>2022-10-02T12:38:27.000Z</time>
      </trkpt>
      <trkpt lat="45.86597" lon="4.70857">
        <ele>191.03354</ele>
        <time>2022-10-02T12:38:28.000Z</time>
      </trkpt>
      <trkpt lat="45.86592" lon="4.70856">
        <ele>190.95851</ele>
        <time>2022-10-02T12:38:29.000Z</time>
      </trkpt>
      <trkpt lat="45.86587" lon="4.70859">
        <ele>191.13558</ele>
        <time>2022-10-02T12:38:30.000Z</time>
      </trkpt>
      <trkpt lat="45.86582" lon="4.70856">
        <ele>190.79797</ele>
        <time>2022-10-02T12:38:31.000Z</time>
      </trkpt>
      <trkpt lat="45.86576" lon="4.70853">
        <ele>190.54942</ele>
        <time>2022-10-02T12:38:32.000Z</time>
      </trkpt>
      <trkpt lat="45.8657" lon="4.70855">
        <ele>190.71883</ele>
        <time>2022-10-02T12:38:33.000Z</time>
      </trkpt>
      <trkpt lat="45.86565" lon="4.70855">
        <ele>190.79408</ele>
        <time>2022-10-02T12:38:34.000Z</time>
      </trkpt>
      <trkpt lat="45.8656" lon="4.70856">
        <ele>190.867</ele>
        <time>2022-10-02T12:38:35.000Z</time>
      </trkpt>
      <trkpt lat="45.86556" lon="4.70854">
        <ele>190.74087</ele>
        <time>2022-10-02T12:38:36.000Z</time>
      </trkpt>
      <trkpt lat="45.8655" lon="4.70854">
        <ele>190.82248</ele>
        <time>2022-10-02T12:38:37.000Z</time>
      </trkpt>
      <trkpt lat="45.86546" lon="4.70854">
        <ele>190.81861</ele>
        <time>2022-10-02T12:38:38.000Z</time>
      </trkpt>
      <trkpt lat="45.86542" lon="4.70854">
        <ele>190.90607</ele>
        <time>2022-10-02T12:38:39.000Z</time>
      </trkpt>
      <trkpt lat="45.86538" lon="4.70855">
        <ele>191.15814</ele>
        <time>2022-10-02T12:38:40.000Z</time>
      </trkpt>
      <trkpt lat="45.86534" lon="4.70854">
        <ele>191.10798</ele>
        <time>2022-10-02T12:38:41.000Z</time>
      </trkpt>
      <trkpt lat="45.86529" lon="4.70856">
        <ele>191.30652</ele>
        <time>2022-10-02T12:38:42.000Z</time>
      </trkpt>
      <trkpt lat="45.86525" lon="4.70856">
        <ele>191.25048</ele>
        <time>2022-10-02T12:38:43.000Z</time>
      </trkpt>
      <trkpt lat="45.86521" lon="4.70857">
        <ele>191.29684</ele>
        <time>2022-10-02T12:38:44.000Z</time>
      </trkpt>
      <trkpt lat="45.86517" lon="4.70859">
        <ele>191.44793</ele>
        <time>2022-10-02T12:38:45.000Z</time>
      </trkpt>
      <trkpt lat="45.86513" lon="4.70862">
        <ele>191.5997</ele>
        <time>2022-10-02T12:38:46.000Z</time>
      </trkpt>
      <trkpt lat="45.86511" lon="4.70868">
        <ele>191.78014</ele>
        <time>2022-10-02T12:38:47.000Z</time>
      </trkpt>
      <trkpt lat="45.86509" lon="4.70872">
        <ele>191.88483</ele>
        <time>2022-10-02T12:38:48.000Z</time>
      </trkpt>
      <trkpt lat="45.86509" lon="4.70877">
        <ele>192.0013</ele>
        <time>2022-10-02T12:38:49.000Z</time>
      </trkpt>
      <trkpt lat="45.86509" lon="4.70881">
        <ele>192.09108</ele>
        <time>2022-10-02T12:38:50.000Z</time>
      </trkpt>
      <trkpt lat="45.8651" lon="4.70885">
        <ele>192.14537</ele>
        <time>2022-10-02T12:38:51.000Z</time>
      </trkpt>
      <trkpt lat="45.8651" lon="4.70888">
        <ele>192.18622</ele>
        <time>2022-10-02T12:38:52.000Z</time>
      </trkpt>
      <trkpt lat="45.86508" lon="4.70892">
        <ele>192.22373</ele>
        <time>2022-10-02T12:38:53.000Z</time>
      </trkpt>
      <trkpt lat="45.86506" lon="4.70895">
        <ele>192.26792</ele>
        <time>2022-10-02T12:38:54.000Z</time>
      </trkpt>
      <trkpt lat="45.86503" lon="4.70898">
        <ele>192.31878</ele>
        <time>2022-10-02T12:38:55.000Z</time>
      </trkpt>
      <trkpt lat="45.865" lon="4.70901">
        <ele>192.37094</ele>
        <time>2022-10-02T12:38:56.000Z</time>
      </trkpt>
      <trkpt lat="45.86496" lon="4.70905">
        <ele>192.42216</ele>
        <time>2022-10-02T12:38:57.000Z</time>
      </trkpt>
      <trkpt lat="45.86493" lon="4.70908">
        <ele>192.45415</ele>
        <time>2022-10-02T12:38:58.000Z</time>
      </trkpt>
      <trkpt lat="45.8649" lon="4.70912">
        <ele>192.45621</ele>
        <time>2022-10-02T12:38:59.000Z</time>
      </trkpt>
      <trkpt lat="45.86488" lon="4.70917">
        <ele>192.42484</ele>
        <time>2022-10-02T12:39:00.000Z</time>
      </trkpt>
      <trkpt lat="45.86486" lon="4.70921">
        <ele>192.37646</ele>
        <time>2022-10-02T12:39:01.000Z</time>
      </trkpt>
      <trkpt lat="45.86484" lon="4.70927">
        <ele>192.32545</ele>
        <time>2022-10-02T12:39:02.000Z</time>
      </trkpt>
      <trkpt lat="45.86484" lon="4.70934">
        <ele>192.27597</ele>
        <time>2022-10-02T12:39:03.000Z</time>
      </trkpt>
      <trkpt lat="45.86484" lon="4.7094">
        <ele>192.20662</ele>
        <time>2022-10-02T12:39:04.000Z</time>
      </trkpt>
      <trkpt lat="45.86484" lon="4.70947">
        <ele>192.13312</ele>
        <time>2022-10-02T12:39:05.000Z</time>
      </trkpt>
      <trkpt lat="45.86485" lon="4.70956">
        <ele>192.08402</ele>
        <time>2022-10-02T12:39:06.000Z</time>
      </trkpt>
      <trkpt lat="45.86485" lon="4.70963">
        <ele>192.09615</ele>
        <time>2022-10-02T12:39:07.000Z</time>
      </trkpt>
      <trkpt lat="45.86482" lon="4.7097">
        <ele>192.12865</ele>
        <time>2022-10-02T12:39:08.000Z</time>
      </trkpt>
      <trkpt lat="45.8648" lon="4.7097">
        <ele>192.09251</ele>
        <time>2022-10-02T12:39:09.000Z</time>
      </trkpt>
      <trkpt lat="45.86476" lon="4.70971">
        <ele>192.01522</ele>
        <time>2022-10-02T12:39:10.000Z</time>
      </trkpt>
      <trkpt lat="45.86471" lon="4.7097">
        <ele>191.89915</ele>
        <time>2022-10-02T12:39:11.000Z</time>
      </trkpt>
      <trkpt lat="45.86467" lon="4.70968">
        <ele>191.79391</ele>
        <time>2022-10-02T12:39:12.000Z</time>
      </trkpt>
      <trkpt lat="45.86461" lon="4.70967">
        <ele>191.72897</ele>
        <time>2022-10-02T12:39:13.000Z</time>
      </trkpt>
      <trkpt lat="45.86456" lon="4.70966">
        <ele>191.72007</ele>
        <time>2022-10-02T12:39:14.000Z</time>
      </trkpt>
      <trkpt lat="45.86451" lon="4.70967">
        <ele>191.7338</ele>
        <time>2022-10-02T12:39:15.000Z</time>
      </trkpt>
      <trkpt lat="45.86446" lon="4.70967">
        <ele>191.77073</ele>
        <time>2022-10-02T12:39:16.000Z</time>
      </trkpt>
      <trkpt lat="45.86441" lon="4.70967">
        <ele>191.82039</ele>
        <time>2022-10-02T12:39:17.000Z</time>
      </trkpt>
      <trkpt lat="45.86436" lon="4.70968">
        <ele>191.86888</ele>
        <time>2022-10-02T12:39:18.000Z</time>
      </trkpt>
      <trkpt lat="45.86432" lon="4.7097">
        <ele>191.92877</ele>
        <time>2022-10-02T12:39:19.000Z</time>
      </trkpt>
      <trkpt lat="45.86427" lon="4.70971">
        <ele>192.01196</ele>
        <time>2022-10-02T12:39:20.000Z</time>
      </trkpt>
      <trkpt lat="45.86422" lon="4.70974">
        <ele>192.1153</ele>
        <time>2022-10-02T12:39:21.000Z</time>
      </trkpt>
      <trkpt lat="45.86417" lon="4.70977">
        <ele>192.196</ele>
        <time>2022-10-02T12:39:22.000Z</time>
      </trkpt>
      <trkpt lat="45.86413" lon="4.70978">
        <ele>192.23164</ele>
        <time>2022-10-02T12:39:23.000Z</time>
      </trkpt>
      <trkpt lat="45.86407" lon="4.70981">
        <ele>192.21557</ele>
        <time>2022-10-02T12:39:24.000Z</time>
      </trkpt>
      <trkpt lat="45.86402" lon="4.70984">
        <ele>192.13804</ele>
        <time>2022-10-02T12:39:25.000Z</time>
      </trkpt>
      <trkpt lat="45.86397" lon="4.70986">
        <ele>192.07549</ele>
        <time>2022-10-02T12:39:26.000Z</time>
      </trkpt>
      <trkpt lat="45.86393" lon="4.70989">
        <ele>192.02388</ele>
        <time>2022-10-02T12:39:27.000Z</time>
      </trkpt>
      <trkpt lat="45.86388" lon="4.70991">
        <ele>192.02703</ele>
        <time>2022-10-02T12:39:28.000Z</time>
      </trkpt>
      <trkpt lat="45.86383" lon="4.70994">
        <ele>192.07025</ele>
        <time>2022-10-02T12:39:29.000Z</time>
      </trkpt>
      <trkpt lat="45.86379" lon="4.70995">
        <ele>192.13018</ele>
        <time>2022-10-02T12:39:30.000Z</time>
      </trkpt>
      <trkpt lat="45.86374" lon="4.70998">
        <ele>192.20941</ele>
        <time>2022-10-02T12:39:31.000Z</time>
      </trkpt>
      <trkpt lat="45.86369" lon="4.71001">
        <ele>192.27244</ele>
        <time>2022-10-02T12:39:32.000Z</time>
      </trkpt>
      <trkpt lat="45.86363" lon="4.71005">
        <ele>192.28677</ele>
        <time>2022-10-02T12:39:33.000Z</time>
      </trkpt>
      <trkpt lat="45.86356" lon="4.71009">
        <ele>192.19641</ele>
        <time>2022-10-02T12:39:34.000Z</time>
      </trkpt>
      <trkpt lat="45.86351" lon="4.7101">
        <ele>192.11647</ele>
        <time>2022-10-02T12:39:35.000Z</time>
      </trkpt>
      <trkpt lat="45.86344" lon="4.71011">
        <ele>192.0884</ele>
        <time>2022-10-02T12:39:36.000Z</time>
      </trkpt>
      <trkpt lat="45.86339" lon="4.71012">
        <ele>192.093</ele>
        <time>2022-10-02T12:39:37.000Z</time>
      </trkpt>
      <trkpt lat="45.86335" lon="4.71012">
        <ele>192.11314</ele>
        <time>2022-10-02T12:39:38.000Z</time>
      </trkpt>
      <trkpt lat="45.8633" lon="4.71012">
        <ele>192.15691</ele>
        <time>2022-10-02T12:39:39.000Z</time>
      </trkpt>
      <trkpt lat="45.86325" lon="4.71012">
        <ele>192.21078</ele>
        <time>2022-10-02T12:39:40.000Z</time>
      </trkpt>
      <trkpt lat="45.8632" lon="4.71012">
        <ele>192.3201</ele>
        <time>2022-10-02T12:39:41.000Z</time>
      </trkpt>
      <trkpt lat="45.86315" lon="4.71011">
        <ele>192.46819</ele>
        <time>2022-10-02T12:39:42.000Z</time>
      </trkpt>
      <trkpt lat="45.8631" lon="4.71011">
        <ele>192.60701</ele>
        <time>2022-10-02T12:39:43.000Z</time>
      </trkpt>
      <trkpt lat="45.86304" lon="4.71011">
        <ele>192.72346</ele>
        <time>2022-10-02T12:39:44.000Z</time>
      </trkpt>
      <trkpt lat="45.86299" lon="4.7101">
        <ele>192.74743</ele>
        <time>2022-10-02T12:39:45.000Z</time>
      </trkpt>
      <trkpt lat="45.86294" lon="4.7101">
        <ele>192.70743</ele>
        <time>2022-10-02T12:39:46.000Z</time>
      </trkpt>
      <trkpt lat="45.86289" lon="4.7101">
        <ele>192.64686</ele>
        <time>2022-10-02T12:39:47.000Z</time>
      </trkpt>
      <trkpt lat="45.86285" lon="4.71008">
        <ele>192.66802</ele>
        <time>2022-10-02T12:39:48.000Z</time>
      </trkpt>
      <trkpt lat="45.86279" lon="4.71009">
        <ele>192.74464</ele>
        <time>2022-10-02T12:39:49.000Z</time>
      </trkpt>
      <trkpt lat="45.86273" lon="4.7101">
        <ele>193.04109</ele>
        <time>2022-10-02T12:39:50.000Z</time>
      </trkpt>
      <trkpt lat="45.86267" lon="4.71011">
        <ele>193.41103</ele>
        <time>2022-10-02T12:39:51.000Z</time>
      </trkpt>
      <trkpt lat="45.86261" lon="4.71012">
        <ele>193.79484</ele>
        <time>2022-10-02T12:39:52.000Z</time>
      </trkpt>
      <trkpt lat="45.86257" lon="4.71008">
        <ele>193.88659</ele>
        <time>2022-10-02T12:39:53.000Z</time>
      </trkpt>
      <trkpt lat="45.86254" lon="4.71003">
        <ele>193.79755</ele>
        <time>2022-10-02T12:39:54.000Z</time>
      </trkpt>
      <trkpt lat="45.86251" lon="4.70999">
        <ele>193.69377</ele>
        <time>2022-10-02T12:39:55.000Z</time>
      </trkpt>
      <trkpt lat="45.86249" lon="4.70995">
        <ele>193.55285</ele>
        <time>2022-10-02T12:39:56.000Z</time>
      </trkpt>
      <trkpt lat="45.86245" lon="4.70992">
        <ele>193.53974</ele>
        <time>2022-10-02T12:39:57.000Z</time>
      </trkpt>
      <trkpt lat="45.86241" lon="4.7099">
        <ele>193.55842</ele>
        <time>2022-10-02T12:39:58.000Z</time>
      </trkpt>
      <trkpt lat="45.86237" lon="4.70986">
        <ele>193.51571</ele>
        <time>2022-10-02T12:39:59.000Z</time>
      </trkpt>
      <trkpt lat="45.86233" lon="4.70983">
        <ele>193.58604</ele>
        <time>2022-10-02T12:40:00.000Z</time>
      </trkpt>
      <trkpt lat="45.86228" lon="4.70982">
        <ele>193.77493</ele>
        <time>2022-10-02T12:40:01.000Z</time>
      </trkpt>
      <trkpt lat="45.86223" lon="4.70981">
        <ele>194.0331</ele>
        <time>2022-10-02T12:40:02.000Z</time>
      </trkpt>
      <trkpt lat="45.86217" lon="4.70985">
        <ele>194.34008</ele>
        <time>2022-10-02T12:40:03.000Z</time>
      </trkpt>
      <trkpt lat="45.86214" lon="4.7099">
        <ele>194.51371</ele>
        <time>2022-10-02T12:40:04.000Z</time>
      </trkpt>
      <trkpt lat="45.86211" lon="4.70994">
        <ele>194.59887</ele>
        <time>2022-10-02T12:40:05.000Z</time>
      </trkpt>
      <trkpt lat="45.86208" lon="4.71">
        <ele>194.62306</ele>
        <time>2022-10-02T12:40:06.000Z</time>
      </trkpt>
      <trkpt lat="45.86205" lon="4.71003">
        <ele>194.58116</ele>
        <time>2022-10-02T12:40:07.000Z</time>
      </trkpt>
      <trkpt lat="45.86203" lon="4.7101">
        <ele>194.49516</ele>
        <time>2022-10-02T12:40:08.000Z</time>
      </trkpt>
      <trkpt lat="45.86198" lon="4.71014">
        <ele>194.34799</ele>
        <time>2022-10-02T12:40:09.000Z</time>
      </trkpt>
      <trkpt lat="45.86194" lon="4.71018">
        <ele>194.23986</ele>
        <time>2022-10-02T12:40:10.000Z</time>
      </trkpt>
      <trkpt lat="45.86189" lon="4.71022">
        <ele>194.15252</ele>
        <time>2022-10-02T12:40:11.000Z</time>
      </trkpt>
      <trkpt lat="45.86185" lon="4.71026">
        <ele>194.08346</ele>
        <time>2022-10-02T12:40:12.000Z</time>
      </trkpt>
      <trkpt lat="45.8618" lon="4.71028">
        <ele>194.02465</ele>
        <time>2022-10-02T12:40:13.000Z</time>
      </trkpt>
      <trkpt lat="45.86175" lon="4.71031">
        <ele>193.98</ele>
        <time>2022-10-02T12:40:14.000Z</time>
      </trkpt>
      <trkpt lat="45.8617" lon="4.71032">
        <ele>193.96068</ele>
        <time>2022-10-02T12:40:15.000Z</time>
      </trkpt>
      <trkpt lat="45.86166" lon="4.71034">
        <ele>193.97612</ele>
        <time>2022-10-02T12:40:16.000Z</time>
      </trkpt>
      <trkpt lat="45.86162" lon="4.71035">
        <ele>194.0133</ele>
        <time>2022-10-02T12:40:17.000Z</time>
      </trkpt>
      <trkpt lat="45.86159" lon="4.71034">
        <ele>194.08568</ele>
        <time>2022-10-02T12:40:18.000Z</time>
      </trkpt>
      <trkpt lat="45.86157" lon="4.71034">
        <ele>194.12906</ele>
        <time>2022-10-02T12:40:19.000Z</time>
      </trkpt>
      <trkpt lat="45.86156" lon="4.71036">
        <ele>194.07153</ele>
        <time>2022-10-02T12:40:27.000Z</time>
      </trkpt>
      <trkpt lat="45.86154" lon="4.71037">
        <ele>194.09477</ele>
        <time>2022-10-02T12:40:32.000Z</time>
      </trkpt>
      <trkpt lat="45.86152" lon="4.7104">
        <ele>194.03941</ele>
        <time>2022-10-02T12:40:33.000Z</time>
      </trkpt>
      <trkpt lat="45.8615" lon="4.71041">
        <ele>194.03525</ele>
        <time>2022-10-02T12:40:34.000Z</time>
      </trkpt>
      <trkpt lat="45.86147" lon="4.71041">
        <ele>194.06432</ele>
        <time>2022-10-02T12:40:35.000Z</time>
      </trkpt>
      <trkpt lat="45.86145" lon="4.71041">
        <ele>194.10656</ele>
        <time>2022-10-02T12:40:36.000Z</time>
      </trkpt>
      <trkpt lat="45.86142" lon="4.71042">
        <ele>194.16706</ele>
        <time>2022-10-02T12:40:37.000Z</time>
      </trkpt>
      <trkpt lat="45.86139" lon="4.71044">
        <ele>194.23112</ele>
        <time>2022-10-02T12:40:38.000Z</time>
      </trkpt>
      <trkpt lat="45.86135" lon="4.71046">
        <ele>194.3322</ele>
        <time>2022-10-02T12:40:39.000Z</time>
      </trkpt>
      <trkpt lat="45.86131" lon="4.71048">
        <ele>194.44728</ele>
        <time>2022-10-02T12:40:40.000Z</time>
      </trkpt>
      <trkpt lat="45.86128" lon="4.71051">
        <ele>194.5665</ele>
        <time>2022-10-02T12:40:41.000Z</time>
      </trkpt>
      <trkpt lat="45.86125" lon="4.71056">
        <ele>194.68356</ele>
        <time>2022-10-02T12:40:42.000Z</time>
      </trkpt>
      <trkpt lat="45.86123" lon="4.71061">
        <ele>194.81782</ele>
        <time>2022-10-02T12:40:43.000Z</time>
      </trkpt>
      <trkpt lat="45.86121" lon="4.71067">
        <ele>194.93979</ele>
        <time>2022-10-02T12:40:44.000Z</time>
      </trkpt>
      <trkpt lat="45.86119" lon="4.71072">
        <ele>195.03531</ele>
        <time>2022-10-02T12:40:45.000Z</time>
      </trkpt>
      <trkpt lat="45.86118" lon="4.71078">
        <ele>195.09059</ele>
        <time>2022-10-02T12:40:46.000Z</time>
      </trkpt>
      <trkpt lat="45.86116" lon="4.71083">
        <ele>195.0889</ele>
        <time>2022-10-02T12:40:47.000Z</time>
      </trkpt>
      <trkpt lat="45.86115" lon="4.71089">
        <ele>195.02641</ele>
        <time>2022-10-02T12:40:48.000Z</time>
      </trkpt>
      <trkpt lat="45.86113" lon="4.71094">
        <ele>194.95211</ele>
        <time>2022-10-02T12:40:49.000Z</time>
      </trkpt>
      <trkpt lat="45.86111" lon="4.71098">
        <ele>194.83274</ele>
        <time>2022-10-02T12:40:50.000Z</time>
      </trkpt>
      <trkpt lat="45.86109" lon="4.71103">
        <ele>194.70437</ele>
        <time>2022-10-02T12:40:51.000Z</time>
      </trkpt>
      <trkpt lat="45.86107" lon="4.71108">
        <ele>194.58857</ele>
        <time>2022-10-02T12:40:52.000Z</time>
      </trkpt>
      <trkpt lat="45.86105" lon="4.71114">
        <ele>194.51598</ele>
        <time>2022-10-02T12:40:53.000Z</time>
      </trkpt>
      <trkpt lat="45.86103" lon="4.71124">
        <ele>194.47675</ele>
        <time>2022-10-02T12:40:54.000Z</time>
      </trkpt>
      <trkpt lat="45.861" lon="4.71128">
        <ele>194.50836</ele>
        <time>2022-10-02T12:40:55.000Z</time>
      </trkpt>
      <trkpt lat="45.86097" lon="4.71135">
        <ele>194.579</ele>
        <time>2022-10-02T12:40:56.000Z</time>
      </trkpt>
      <trkpt lat="45.86093" lon="4.71132">
        <ele>194.67947</ele>
        <time>2022-10-02T12:40:57.000Z</time>
      </trkpt>
      <trkpt lat="45.86088" lon="4.71128">
        <ele>194.82159</ele>
        <time>2022-10-02T12:40:58.000Z</time>
      </trkpt>
      <trkpt lat="45.86086" lon="4.71131">
        <ele>194.87338</ele>
        <time>2022-10-02T12:40:59.000Z</time>
      </trkpt>
      <trkpt lat="45.86083" lon="4.71125">
        <ele>195.03239</ele>
        <time>2022-10-02T12:41:00.000Z</time>
      </trkpt>
      <trkpt lat="45.86079" lon="4.71122">
        <ele>195.18265</ele>
        <time>2022-10-02T12:41:01.000Z</time>
      </trkpt>
      <trkpt lat="45.86074" lon="4.71116">
        <ele>195.2882</ele>
        <time>2022-10-02T12:41:02.000Z</time>
      </trkpt>
      <trkpt lat="45.86071" lon="4.71111">
        <ele>195.28266</ele>
        <time>2022-10-02T12:41:03.000Z</time>
      </trkpt>
      <trkpt lat="45.86067" lon="4.71109">
        <ele>195.21506</ele>
        <time>2022-10-02T12:41:04.000Z</time>
      </trkpt>
      <trkpt lat="45.86064" lon="4.71105">
        <ele>195.11754</ele>
        <time>2022-10-02T12:41:05.000Z</time>
      </trkpt>
      <trkpt lat="45.8606" lon="4.71099">
        <ele>195.05559</ele>
        <time>2022-10-02T12:41:06.000Z</time>
      </trkpt>
      <trkpt lat="45.86056" lon="4.71095">
        <ele>195.0677</ele>
        <time>2022-10-02T12:41:07.000Z</time>
      </trkpt>
      <trkpt lat="45.86052" lon="4.71089">
        <ele>195.15772</ele>
        <time>2022-10-02T12:41:08.000Z</time>
      </trkpt>
      <trkpt lat="45.86048" lon="4.71083">
        <ele>195.23083</ele>
        <time>2022-10-02T12:41:09.000Z</time>
      </trkpt>
      <trkpt lat="45.86045" lon="4.71079">
        <ele>195.25507</ele>
        <time>2022-10-02T12:41:10.000Z</time>
      </trkpt>
      <trkpt lat="45.86042" lon="4.71075">
        <ele>195.25339</ele>
        <time>2022-10-02T12:41:11.000Z</time>
      </trkpt>
      <trkpt lat="45.86042" lon="4.7107">
        <ele>195.24736</ele>
        <time>2022-10-02T12:41:12.000Z</time>
      </trkpt>
      <trkpt lat="45.8604" lon="4.71066">
        <ele>195.24497</ele>
        <time>2022-10-02T12:41:13.000Z</time>
      </trkpt>
      <trkpt lat="45.86037" lon="4.71059">
        <ele>195.27588</ele>
        <time>2022-10-02T12:41:14.000Z</time>
      </trkpt>
      <trkpt lat="45.86035" lon="4.71053">
        <ele>195.33768</ele>
        <time>2022-10-02T12:41:15.000Z</time>
      </trkpt>
      <trkpt lat="45.86033" lon="4.71046">
        <ele>195.42359</ele>
        <time>2022-10-02T12:41:16.000Z</time>
      </trkpt>
      <trkpt lat="45.86033" lon="4.71041">
        <ele>195.46339</ele>
        <time>2022-10-02T12:41:17.000Z</time>
      </trkpt>
      <trkpt lat="45.86031" lon="4.71037">
        <ele>195.49665</ele>
        <time>2022-10-02T12:41:18.000Z</time>
      </trkpt>
      <trkpt lat="45.8603" lon="4.71032">
        <ele>195.52396</ele>
        <time>2022-10-02T12:41:19.000Z</time>
      </trkpt>
      <trkpt lat="45.8603" lon="4.71028">
        <ele>195.54183</ele>
        <time>2022-10-02T12:41:20.000Z</time>
      </trkpt>
      <trkpt lat="45.86027" lon="4.71025">
        <ele>195.57252</ele>
        <time>2022-10-02T12:41:21.000Z</time>
      </trkpt>
      <trkpt lat="45.86024" lon="4.71019">
        <ele>195.60112</ele>
        <time>2022-10-02T12:41:22.000Z</time>
      </trkpt>
      <trkpt lat="45.86021" lon="4.71013">
        <ele>195.63384</ele>
        <time>2022-10-02T12:41:23.000Z</time>
      </trkpt>
      <trkpt lat="45.86018" lon="4.7101">
        <ele>195.67102</ele>
        <time>2022-10-02T12:41:24.000Z</time>
      </trkpt>
      <trkpt lat="45.86014" lon="4.71008">
        <ele>195.7167</ele>
        <time>2022-10-02T12:41:25.000Z</time>
      </trkpt>
      <trkpt lat="45.8601" lon="4.71002">
        <ele>195.73046</ele>
        <time>2022-10-02T12:41:26.000Z</time>
      </trkpt>
      <trkpt lat="45.86006" lon="4.70996">
        <ele>195.71246</ele>
        <time>2022-10-02T12:41:27.000Z</time>
      </trkpt>
      <trkpt lat="45.86001" lon="4.7099">
        <ele>195.67369</ele>
        <time>2022-10-02T12:41:28.000Z</time>
      </trkpt>
      <trkpt lat="45.85998" lon="4.70988">
        <ele>195.64848</ele>
        <time>2022-10-02T12:41:29.000Z</time>
      </trkpt>
      <trkpt lat="45.85993" lon="4.70983">
        <ele>195.59811</ele>
        <time>2022-10-02T12:41:30.000Z</time>
      </trkpt>
      <trkpt lat="45.85988" lon="4.70979">
        <ele>195.56133</ele>
        <time>2022-10-02T12:41:31.000Z</time>
      </trkpt>
      <trkpt lat="45.85983" lon="4.70976">
        <ele>195.56964</ele>
        <time>2022-10-02T12:41:32.000Z</time>
      </trkpt>
      <trkpt lat="45.85978" lon="4.70975">
        <ele>195.62308</ele>
        <time>2022-10-02T12:41:33.000Z</time>
      </trkpt>
      <trkpt lat="45.85974" lon="4.70976">
        <ele>195.68542</ele>
        <time>2022-10-02T12:41:34.000Z</time>
      </trkpt>
      <trkpt lat="45.85969" lon="4.70975">
        <ele>195.74382</ele>
        <time>2022-10-02T12:41:35.000Z</time>
      </trkpt>
      <trkpt lat="45.85964" lon="4.70972">
        <ele>195.7487</ele>
        <time>2022-10-02T12:41:36.000Z</time>
      </trkpt>
      <trkpt lat="45.8596" lon="4.70972">
        <ele>195.74182</ele>
        <time>2022-10-02T12:41:37.000Z</time>
      </trkpt>
      <trkpt lat="45.85955" lon="4.70972">
        <ele>195.71165</ele>
        <time>2022-10-02T12:41:38.000Z</time>
      </trkpt>
      <trkpt lat="45.85949" lon="4.70971">
        <ele>195.67695</ele>
        <time>2022-10-02T12:41:39.000Z</time>
      </trkpt>
      <trkpt lat="45.85944" lon="4.70972">
        <ele>195.65897</ele>
        <time>2022-10-02T12:41:40.000Z</time>
      </trkpt>
      <trkpt lat="45.8594" lon="4.70973">
        <ele>195.66026</ele>
        <time>2022-10-02T12:41:41.000Z</time>
      </trkpt>
      <trkpt lat="45.85935" lon="4.70973">
        <ele>195.66856</ele>
        <time>2022-10-02T12:41:42.000Z</time>
      </trkpt>
      <trkpt lat="45.85929" lon="4.70975">
        <ele>195.70853</ele>
        <time>2022-10-02T12:41:43.000Z</time>
      </trkpt>
      <trkpt lat="45.85923" lon="4.70977">
        <ele>195.77596</ele>
        <time>2022-10-02T12:41:44.000Z</time>
      </trkpt>
      <trkpt lat="45.85919" lon="4.7098">
        <ele>195.87819</ele>
        <time>2022-10-02T12:41:45.000Z</time>
      </trkpt>
      <trkpt lat="45.85914" lon="4.70983">
        <ele>196.00266</ele>
        <time>2022-10-02T12:41:46.000Z</time>
      </trkpt>
      <trkpt lat="45.85911" lon="4.70985">
        <ele>196.12272</ele>
        <time>2022-10-02T12:41:47.000Z</time>
      </trkpt>
      <trkpt lat="45.85906" lon="4.70989">
        <ele>196.27112</ele>
        <time>2022-10-02T12:41:48.000Z</time>
      </trkpt>
      <trkpt lat="45.85902" lon="4.70992">
        <ele>196.4005</ele>
        <time>2022-10-02T12:41:49.000Z</time>
      </trkpt>
      <trkpt lat="45.85897" lon="4.70997">
        <ele>196.488</ele>
        <time>2022-10-02T12:41:50.000Z</time>
      </trkpt>
      <trkpt lat="45.85894" lon="4.71">
        <ele>196.48894</ele>
        <time>2022-10-02T12:41:51.000Z</time>
      </trkpt>
      <trkpt lat="45.85891" lon="4.71004">
        <ele>196.46589</ele>
        <time>2022-10-02T12:41:52.000Z</time>
      </trkpt>
      <trkpt lat="45.85887" lon="4.71008">
        <ele>196.41549</ele>
        <time>2022-10-02T12:41:53.000Z</time>
      </trkpt>
      <trkpt lat="45.85882" lon="4.7101">
        <ele>196.35554</ele>
        <time>2022-10-02T12:41:54.000Z</time>
      </trkpt>
      <trkpt lat="45.85877" lon="4.71014">
        <ele>196.38253</ele>
        <time>2022-10-02T12:41:55.000Z</time>
      </trkpt>
      <trkpt lat="45.85873" lon="4.71019">
        <ele>196.5139</ele>
        <time>2022-10-02T12:41:56.000Z</time>
      </trkpt>
      <trkpt lat="45.85869" lon="4.71023">
        <ele>196.70855</ele>
        <time>2022-10-02T12:41:57.000Z</time>
      </trkpt>
      <trkpt lat="45.85866" lon="4.71028">
        <ele>196.87112</ele>
        <time>2022-10-02T12:41:58.000Z</time>
      </trkpt>
      <trkpt lat="45.85862" lon="4.71033">
        <ele>196.99707</ele>
        <time>2022-10-02T12:41:59.000Z</time>
      </trkpt>
      <trkpt lat="45.85858" lon="4.71037">
        <ele>197.07019</ele>
        <time>2022-10-02T12:42:00.000Z</time>
      </trkpt>
      <trkpt lat="45.85854" lon="4.71042">
        <ele>197.0844</ele>
        <time>2022-10-02T12:42:01.000Z</time>
      </trkpt>
      <trkpt lat="45.85851" lon="4.71047">
        <ele>197.03339</ele>
        <time>2022-10-02T12:42:02.000Z</time>
      </trkpt>
      <trkpt lat="45.85849" lon="4.7105">
        <ele>196.99874</ele>
        <time>2022-10-02T12:42:03.000Z</time>
      </trkpt>
      <trkpt lat="45.85846" lon="4.71053">
        <ele>196.9776</ele>
        <time>2022-10-02T12:42:04.000Z</time>
      </trkpt>
      <trkpt lat="45.85841" lon="4.71057">
        <ele>196.973</ele>
        <time>2022-10-02T12:42:05.000Z</time>
      </trkpt>
      <trkpt lat="45.85838" lon="4.71062">
        <ele>197.00387</ele>
        <time>2022-10-02T12:42:06.000Z</time>
      </trkpt>
      <trkpt lat="45.85836" lon="4.71067">
        <ele>197.05234</ele>
        <time>2022-10-02T12:42:07.000Z</time>
      </trkpt>
      <trkpt lat="45.85832" lon="4.71071">
        <ele>197.11934</ele>
        <time>2022-10-02T12:42:08.000Z</time>
      </trkpt>
      <trkpt lat="45.85831" lon="4.71076">
        <ele>197.12785</ele>
        <time>2022-10-02T12:42:09.000Z</time>
      </trkpt>
      <trkpt lat="45.8583" lon="4.71081">
        <ele>197.12584</ele>
        <time>2022-10-02T12:42:10.000Z</time>
      </trkpt>
      <trkpt lat="45.85827" lon="4.71088">
        <ele>197.09496</ele>
        <time>2022-10-02T12:42:12.000Z</time>
      </trkpt>
      <trkpt lat="45.85824" lon="4.71093">
        <ele>197.05777</ele>
        <time>2022-10-02T12:42:13.000Z</time>
      </trkpt>
      <trkpt lat="45.85821" lon="4.71097">
        <ele>197.03094</ele>
        <time>2022-10-02T12:42:14.000Z</time>
      </trkpt>
      <trkpt lat="45.85819" lon="4.71102">
        <ele>197.04252</ele>
        <time>2022-10-02T12:42:15.000Z</time>
      </trkpt>
      <trkpt lat="45.85816" lon="4.71106">
        <ele>197.13631</ele>
        <time>2022-10-02T12:42:16.000Z</time>
      </trkpt>
      <trkpt lat="45.85814" lon="4.7111">
        <ele>197.30349</ele>
        <time>2022-10-02T12:42:17.000Z</time>
      </trkpt>
      <trkpt lat="45.85811" lon="4.71114">
        <ele>197.48855</ele>
        <time>2022-10-02T12:42:18.000Z</time>
      </trkpt>
      <trkpt lat="45.85809" lon="4.71118">
        <ele>197.6986</ele>
        <time>2022-10-02T12:42:19.000Z</time>
      </trkpt>
      <trkpt lat="45.85806" lon="4.71121">
        <ele>197.94245</ele>
        <time>2022-10-02T12:42:20.000Z</time>
      </trkpt>
      <trkpt lat="45.85803" lon="4.71124">
        <ele>198.18287</ele>
        <time>2022-10-02T12:42:21.000Z</time>
      </trkpt>
      <trkpt lat="45.858" lon="4.71128">
        <ele>198.42651</ele>
        <time>2022-10-02T12:42:22.000Z</time>
      </trkpt>
      <trkpt lat="45.85798" lon="4.71132">
        <ele>198.62145</ele>
        <time>2022-10-02T12:42:23.000Z</time>
      </trkpt>
      <trkpt lat="45.85796" lon="4.71135">
        <ele>198.78239</ele>
        <time>2022-10-02T12:42:24.000Z</time>
      </trkpt>
      <trkpt lat="45.85794" lon="4.71138">
        <ele>198.90929</ele>
        <time>2022-10-02T12:42:25.000Z</time>
      </trkpt>
      <trkpt lat="45.85792" lon="4.7114">
        <ele>199.02848</ele>
        <time>2022-10-02T12:42:26.000Z</time>
      </trkpt>
      <trkpt lat="45.8579" lon="4.71142">
        <ele>199.16</ele>
        <time>2022-10-02T12:42:27.000Z</time>
      </trkpt>
      <trkpt lat="45.85787" lon="4.71144">
        <ele>199.35992</ele>
        <time>2022-10-02T12:42:28.000Z</time>
      </trkpt>
      <trkpt lat="45.85784" lon="4.71146">
        <ele>199.65626</ele>
        <time>2022-10-02T12:42:29.000Z</time>
      </trkpt>
      <trkpt lat="45.85781" lon="4.71149">
        <ele>200.10686</ele>
        <time>2022-10-02T12:42:30.000Z</time>
      </trkpt>
      <trkpt lat="45.85778" lon="4.71153">
        <ele>200.48923</ele>
        <time>2022-10-02T12:42:31.000Z</time>
      </trkpt>
      <trkpt lat="45.85777" lon="4.71158">
        <ele>200.67965</ele>
        <time>2022-10-02T12:42:32.000Z</time>
      </trkpt>
      <trkpt lat="45.85776" lon="4.71162">
        <ele>200.84602</ele>
        <time>2022-10-02T12:42:33.000Z</time>
      </trkpt>
      <trkpt lat="45.85774" lon="4.71165">
        <ele>201.0752</ele>
        <time>2022-10-02T12:42:34.000Z</time>
      </trkpt>
      <trkpt lat="45.85772" lon="4.71166">
        <ele>201.40603</ele>
        <time>2022-10-02T12:42:35.000Z</time>
      </trkpt>
      <trkpt lat="45.85771" lon="4.71164">
        <ele>201.80598</ele>
        <time>2022-10-02T12:42:36.000Z</time>
      </trkpt>
      <trkpt lat="45.85769" lon="4.7116">
        <ele>202.20702</ele>
        <time>2022-10-02T12:42:37.000Z</time>
      </trkpt>
      <trkpt lat="45.85768" lon="4.71155">
        <ele>202.55248</ele>
        <time>2022-10-02T12:42:38.000Z</time>
      </trkpt>
      <trkpt lat="45.85767" lon="4.7115">
        <ele>202.8522</ele>
        <time>2022-10-02T12:42:39.000Z</time>
      </trkpt>
      <trkpt lat="45.85766" lon="4.71145">
        <ele>203.12604</ele>
        <time>2022-10-02T12:42:40.000Z</time>
      </trkpt>
      <trkpt lat="45.85765" lon="4.71139">
        <ele>203.32195</ele>
        <time>2022-10-02T12:42:41.000Z</time>
      </trkpt>
      <trkpt lat="45.85765" lon="4.71133">
        <ele>203.39419</ele>
        <time>2022-10-02T12:42:42.000Z</time>
      </trkpt>
      <trkpt lat="45.85765" lon="4.71128">
        <ele>203.33794</ele>
        <time>2022-10-02T12:42:43.000Z</time>
      </trkpt>
      <trkpt lat="45.85765" lon="4.71124">
        <ele>203.36808</ele>
        <time>2022-10-02T12:42:44.000Z</time>
      </trkpt>
      <trkpt lat="45.85764" lon="4.71121">
        <ele>203.38012</ele>
        <time>2022-10-02T12:42:45.000Z</time>
      </trkpt>
      <trkpt lat="45.85763" lon="4.71117">
        <ele>203.42881</ele>
        <time>2022-10-02T12:42:46.000Z</time>
      </trkpt>
      <trkpt lat="45.85763" lon="4.71114">
        <ele>203.38532</ele>
        <time>2022-10-02T12:42:47.000Z</time>
      </trkpt>
      <trkpt lat="45.85762" lon="4.7111">
        <ele>203.43477</ele>
        <time>2022-10-02T12:42:48.000Z</time>
      </trkpt>
      <trkpt lat="45.85759" lon="4.71107">
        <ele>203.7269</ele>
        <time>2022-10-02T12:42:49.000Z</time>
      </trkpt>
      <trkpt lat="45.85756" lon="4.71105">
        <ele>204.12979</ele>
        <time>2022-10-02T12:42:50.000Z</time>
      </trkpt>
      <trkpt lat="45.85753" lon="4.71102">
        <ele>204.61503</ele>
        <time>2022-10-02T12:42:51.000Z</time>
      </trkpt>
      <trkpt lat="45.8575" lon="4.71099">
        <ele>205.12469</ele>
        <time>2022-10-02T12:42:52.000Z</time>
      </trkpt>
      <trkpt lat="45.85747" lon="4.71097">
        <ele>205.61148</ele>
        <time>2022-10-02T12:42:53.000Z</time>
      </trkpt>
      <trkpt lat="45.85745" lon="4.71096">
        <ele>206.06613</ele>
        <time>2022-10-02T12:42:54.000Z</time>
      </trkpt>
      <trkpt lat="45.85742" lon="4.71094">
        <ele>206.46113</ele>
        <time>2022-10-02T12:42:55.000Z</time>
      </trkpt>
      <trkpt lat="45.85739" lon="4.71092">
        <ele>206.80966</ele>
        <time>2022-10-02T12:42:56.000Z</time>
      </trkpt>
      <trkpt lat="45.85737" lon="4.7109">
        <ele>207.13549</ele>
        <time>2022-10-02T12:42:57.000Z</time>
      </trkpt>
      <trkpt lat="45.85734" lon="4.71089">
        <ele>207.50186</ele>
        <time>2022-10-02T12:42:58.000Z</time>
      </trkpt>
      <trkpt lat="45.85732" lon="4.71088">
        <ele>207.83577</ele>
        <time>2022-10-02T12:42:59.000Z</time>
      </trkpt>
      <trkpt lat="45.8573" lon="4.71087">
        <ele>208.2129</ele>
        <time>2022-10-02T12:43:00.000Z</time>
      </trkpt>
      <trkpt lat="45.85727" lon="4.71085">
        <ele>208.6599</ele>
        <time>2022-10-02T12:43:01.000Z</time>
      </trkpt>
      <trkpt lat="45.85725" lon="4.71083">
        <ele>209.24593</ele>
        <time>2022-10-02T12:43:02.000Z</time>
      </trkpt>
      <trkpt lat="45.85722" lon="4.71081">
        <ele>209.88656</ele>
        <time>2022-10-02T12:43:03.000Z</time>
      </trkpt>
      <trkpt lat="45.85719" lon="4.71079">
        <ele>210.54098</ele>
        <time>2022-10-02T12:43:04.000Z</time>
      </trkpt>
      <trkpt lat="45.85716" lon="4.71076">
        <ele>211.17662</ele>
        <time>2022-10-02T12:43:05.000Z</time>
      </trkpt>
      <trkpt lat="45.85713" lon="4.71074">
        <ele>211.66565</ele>
        <time>2022-10-02T12:43:06.000Z</time>
      </trkpt>
      <trkpt lat="45.8571" lon="4.71072">
        <ele>212.0162</ele>
        <time>2022-10-02T12:43:07.000Z</time>
      </trkpt>
      <trkpt lat="45.85707" lon="4.7107">
        <ele>212.23722</ele>
        <time>2022-10-02T12:43:08.000Z</time>
      </trkpt>
      <trkpt lat="45.85704" lon="4.71067">
        <ele>212.38299</ele>
        <time>2022-10-02T12:43:09.000Z</time>
      </trkpt>
      <trkpt lat="45.85702" lon="4.71064">
        <ele>212.45059</ele>
        <time>2022-10-02T12:43:10.000Z</time>
      </trkpt>
      <trkpt lat="45.857" lon="4.71061">
        <ele>212.5019</ele>
        <time>2022-10-02T12:43:11.000Z</time>
      </trkpt>
      <trkpt lat="45.85697" lon="4.71058">
        <ele>212.60986</ele>
        <time>2022-10-02T12:43:12.000Z</time>
      </trkpt>
      <trkpt lat="45.85694" lon="4.71055">
        <ele>212.80562</ele>
        <time>2022-10-02T12:43:13.000Z</time>
      </trkpt>
      <trkpt lat="45.85692" lon="4.71053">
        <ele>213.04508</ele>
        <time>2022-10-02T12:43:14.000Z</time>
      </trkpt>
      <trkpt lat="45.85689" lon="4.71052">
        <ele>213.36799</ele>
        <time>2022-10-02T12:43:15.000Z</time>
      </trkpt>
      <trkpt lat="45.85686" lon="4.71051">
        <ele>213.68055</ele>
        <time>2022-10-02T12:43:16.000Z</time>
      </trkpt>
      <trkpt lat="45.85684" lon="4.7105">
        <ele>213.97854</ele>
        <time>2022-10-02T12:43:17.000Z</time>
      </trkpt>
      <trkpt lat="45.85681" lon="4.71049">
        <ele>214.29203</ele>
        <time>2022-10-02T12:43:18.000Z</time>
      </trkpt>
      <trkpt lat="45.85678" lon="4.71048">
        <ele>214.58782</ele>
        <time>2022-10-02T12:43:19.000Z</time>
      </trkpt>
      <trkpt lat="45.85675" lon="4.71047">
        <ele>214.83374</ele>
        <time>2022-10-02T12:43:20.000Z</time>
      </trkpt>
      <trkpt lat="45.85672" lon="4.71046">
        <ele>215.05952</ele>
        <time>2022-10-02T12:43:21.000Z</time>
      </trkpt>
      <trkpt lat="45.85669" lon="4.71045">
        <ele>215.21899</ele>
        <time>2022-10-02T12:43:22.000Z</time>
      </trkpt>
      <trkpt lat="45.85666" lon="4.71045">
        <ele>215.32743</ele>
        <time>2022-10-02T12:43:23.000Z</time>
      </trkpt>
      <trkpt lat="45.85663" lon="4.71044">
        <ele>215.39427</ele>
        <time>2022-10-02T12:43:24.000Z</time>
      </trkpt>
      <trkpt lat="45.8566" lon="4.71043">
        <ele>215.4354</ele>
        <time>2022-10-02T12:43:25.000Z</time>
      </trkpt>
      <trkpt lat="45.85657" lon="4.71041">
        <ele>215.46984</ele>
        <time>2022-10-02T12:43:26.000Z</time>
      </trkpt>
      <trkpt lat="45.85654" lon="4.71039">
        <ele>215.53779</ele>
        <time>2022-10-02T12:43:27.000Z</time>
      </trkpt>
      <trkpt lat="45.85651" lon="4.71038">
        <ele>215.65799</ele>
        <time>2022-10-02T12:43:28.000Z</time>
      </trkpt>
      <trkpt lat="45.85647" lon="4.71036">
        <ele>215.87439</ele>
        <time>2022-10-02T12:43:29.000Z</time>
      </trkpt>
      <trkpt lat="45.85644" lon="4.71034">
        <ele>216.15642</ele>
        <time>2022-10-02T12:43:30.000Z</time>
      </trkpt>
      <trkpt lat="45.85641" lon="4.71032">
        <ele>216.45504</ele>
        <time>2022-10-02T12:43:31.000Z</time>
      </trkpt>
      <trkpt lat="45.85638" lon="4.7103">
        <ele>216.76941</ele>
        <time>2022-10-02T12:43:32.000Z</time>
      </trkpt>
      <trkpt lat="45.85636" lon="4.71027">
        <ele>217.05209</ele>
        <time>2022-10-02T12:43:33.000Z</time>
      </trkpt>
      <trkpt lat="45.85633" lon="4.71024">
        <ele>217.29289</ele>
        <time>2022-10-02T12:43:34.000Z</time>
      </trkpt>
      <trkpt lat="45.8563" lon="4.71021">
        <ele>217.44113</ele>
        <time>2022-10-02T12:43:35.000Z</time>
      </trkpt>
      <trkpt lat="45.85628" lon="4.71018">
        <ele>217.52066</ele>
        <time>2022-10-02T12:43:36.000Z</time>
      </trkpt>
      <trkpt lat="45.85625" lon="4.71015">
        <ele>217.52696</ele>
        <time>2022-10-02T12:43:37.000Z</time>
      </trkpt>
      <trkpt lat="45.85623" lon="4.7101">
        <ele>217.46255</ele>
        <time>2022-10-02T12:43:38.000Z</time>
      </trkpt>
      <trkpt lat="45.8562" lon="4.71006">
        <ele>217.41326</ele>
        <time>2022-10-02T12:43:39.000Z</time>
      </trkpt>
      <trkpt lat="45.85618" lon="4.71002">
        <ele>217.35323</ele>
        <time>2022-10-02T12:43:40.000Z</time>
      </trkpt>
      <trkpt lat="45.85615" lon="4.70998">
        <ele>217.33266</ele>
        <time>2022-10-02T12:43:41.000Z</time>
      </trkpt>
      <trkpt lat="45.85613" lon="4.70995">
        <ele>217.33402</ele>
        <time>2022-10-02T12:43:42.000Z</time>
      </trkpt>
      <trkpt lat="45.85611" lon="4.70991">
        <ele>217.3396</ele>
        <time>2022-10-02T12:43:43.000Z</time>
      </trkpt>
      <trkpt lat="45.85609" lon="4.70987">
        <ele>217.33957</ele>
        <time>2022-10-02T12:43:44.000Z</time>
      </trkpt>
      <trkpt lat="45.85607" lon="4.70984">
        <ele>217.38055</ele>
        <time>2022-10-02T12:43:45.000Z</time>
      </trkpt>
      <trkpt lat="45.85604" lon="4.70981">
        <ele>217.42735</ele>
        <time>2022-10-02T12:43:46.000Z</time>
      </trkpt>
      <trkpt lat="45.85602" lon="4.70977">
        <ele>217.39562</ele>
        <time>2022-10-02T12:43:47.000Z</time>
      </trkpt>
      <trkpt lat="45.856" lon="4.70974">
        <ele>217.37668</ele>
        <time>2022-10-02T12:43:48.000Z</time>
      </trkpt>
      <trkpt lat="45.85597" lon="4.7097">
        <ele>217.40693</ele>
        <time>2022-10-02T12:43:49.000Z</time>
      </trkpt>
      <trkpt lat="45.85594" lon="4.70966">
        <ele>217.44968</ele>
        <time>2022-10-02T12:43:50.000Z</time>
      </trkpt>
      <trkpt lat="45.85592" lon="4.70962">
        <ele>217.44376</ele>
        <time>2022-10-02T12:43:51.000Z</time>
      </trkpt>
      <trkpt lat="45.85589" lon="4.70958">
        <ele>217.44678</ele>
        <time>2022-10-02T12:43:52.000Z</time>
      </trkpt>
      <trkpt lat="45.85587" lon="4.70955">
        <ele>217.48929</ele>
        <time>2022-10-02T12:43:53.000Z</time>
      </trkpt>
      <trkpt lat="45.85584" lon="4.70951">
        <ele>217.55037</ele>
        <time>2022-10-02T12:43:54.000Z</time>
      </trkpt>
      <trkpt lat="45.85581" lon="4.70948">
        <ele>217.61355</ele>
        <time>2022-10-02T12:43:55.000Z</time>
      </trkpt>
      <trkpt lat="45.85578" lon="4.70944">
        <ele>217.62846</ele>
        <time>2022-10-02T12:43:56.000Z</time>
      </trkpt>
      <trkpt lat="45.85574" lon="4.7094">
        <ele>217.62245</ele>
        <time>2022-10-02T12:43:57.000Z</time>
      </trkpt>
      <trkpt lat="45.85572" lon="4.70936">
        <ele>217.62573</ele>
        <time>2022-10-02T12:43:58.000Z</time>
      </trkpt>
      <trkpt lat="45.85569" lon="4.70934">
        <ele>217.71785</ele>
        <time>2022-10-02T12:43:59.000Z</time>
      </trkpt>
      <trkpt lat="45.85567" lon="4.70932">
        <ele>217.91431</ele>
        <time>2022-10-02T12:44:00.000Z</time>
      </trkpt>
      <trkpt lat="45.85564" lon="4.70931">
        <ele>218.19935</ele>
        <time>2022-10-02T12:44:01.000Z</time>
      </trkpt>
      <trkpt lat="45.85561" lon="4.7093">
        <ele>218.49695</ele>
        <time>2022-10-02T12:44:02.000Z</time>
      </trkpt>
      <trkpt lat="45.85557" lon="4.70929">
        <ele>218.75373</ele>
        <time>2022-10-02T12:44:03.000Z</time>
      </trkpt>
      <trkpt lat="45.85554" lon="4.70928">
        <ele>218.95043</ele>
        <time>2022-10-02T12:44:04.000Z</time>
      </trkpt>
      <trkpt lat="45.85551" lon="4.70926">
        <ele>219.11189</ele>
        <time>2022-10-02T12:44:05.000Z</time>
      </trkpt>
      <trkpt lat="45.85548" lon="4.70925">
        <ele>219.29831</ele>
        <time>2022-10-02T12:44:06.000Z</time>
      </trkpt>
      <trkpt lat="45.85545" lon="4.70924">
        <ele>219.5092</ele>
        <time>2022-10-02T12:44:07.000Z</time>
      </trkpt>
      <trkpt lat="45.85541" lon="4.70923">
        <ele>219.74914</ele>
        <time>2022-10-02T12:44:08.000Z</time>
      </trkpt>
      <trkpt lat="45.85538" lon="4.70922">
        <ele>219.98271</ele>
        <time>2022-10-02T12:44:09.000Z</time>
      </trkpt>
      <trkpt lat="45.85534" lon="4.70922">
        <ele>220.239</ele>
        <time>2022-10-02T12:44:10.000Z</time>
      </trkpt>
      <trkpt lat="45.8553" lon="4.70922">
        <ele>220.46247</ele>
        <time>2022-10-02T12:44:11.000Z</time>
      </trkpt>
      <trkpt lat="45.85526" lon="4.70922">
        <ele>220.66856</ele>
        <time>2022-10-02T12:44:12.000Z</time>
      </trkpt>
      <trkpt lat="45.85522" lon="4.70923">
        <ele>220.84756</ele>
        <time>2022-10-02T12:44:13.000Z</time>
      </trkpt>
      <trkpt lat="45.85518" lon="4.70923">
        <ele>221.01313</ele>
        <time>2022-10-02T12:44:14.000Z</time>
      </trkpt>
      <trkpt lat="45.85514" lon="4.70924">
        <ele>221.15811</ele>
        <time>2022-10-02T12:44:15.000Z</time>
      </trkpt>
      <trkpt lat="45.85511" lon="4.70924">
        <ele>221.27274</ele>
        <time>2022-10-02T12:44:16.000Z</time>
      </trkpt>
      <trkpt lat="45.85508" lon="4.70924">
        <ele>221.36558</ele>
        <time>2022-10-02T12:44:17.000Z</time>
      </trkpt>
      <trkpt lat="45.85505" lon="4.70924">
        <ele>221.45831</ele>
        <time>2022-10-02T12:44:18.000Z</time>
      </trkpt>
      <trkpt lat="45.85502" lon="4.70924">
        <ele>221.55032</ele>
        <time>2022-10-02T12:44:19.000Z</time>
      </trkpt>
      <trkpt lat="45.85499" lon="4.70924">
        <ele>221.63063</ele>
        <time>2022-10-02T12:44:20.000Z</time>
      </trkpt>
      <trkpt lat="45.85497" lon="4.70926">
        <ele>221.69622</ele>
        <time>2022-10-02T12:44:21.000Z</time>
      </trkpt>
      <trkpt lat="45.85495" lon="4.70929">
        <ele>221.7255</ele>
        <time>2022-10-02T12:44:22.000Z</time>
      </trkpt>
      <trkpt lat="45.85494" lon="4.70934">
        <ele>221.70689</ele>
        <time>2022-10-02T12:44:23.000Z</time>
      </trkpt>
      <trkpt lat="45.85493" lon="4.70939">
        <ele>221.65488</ele>
        <time>2022-10-02T12:44:24.000Z</time>
      </trkpt>
      <trkpt lat="45.85493" lon="4.70945">
        <ele>221.58655</ele>
        <time>2022-10-02T12:44:25.000Z</time>
      </trkpt>
      <trkpt lat="45.85493" lon="4.70949">
        <ele>221.52583</ele>
        <time>2022-10-02T12:44:26.000Z</time>
      </trkpt>
      <trkpt lat="45.85493" lon="4.70954">
        <ele>221.46403</ele>
        <time>2022-10-02T12:44:27.000Z</time>
      </trkpt>
      <trkpt lat="45.85493" lon="4.70959">
        <ele>221.38475</ele>
        <time>2022-10-02T12:44:28.000Z</time>
      </trkpt>
      <trkpt lat="45.85493" lon="4.70964">
        <ele>221.3022</ele>
        <time>2022-10-02T12:44:29.000Z</time>
      </trkpt>
      <trkpt lat="45.85494" lon="4.70969">
        <ele>221.22285</ele>
        <time>2022-10-02T12:44:30.000Z</time>
      </trkpt>
      <trkpt lat="45.85494" lon="4.70974">
        <ele>221.14806</ele>
        <time>2022-10-02T12:44:31.000Z</time>
      </trkpt>
      <trkpt lat="45.85494" lon="4.7098">
        <ele>221.06063</ele>
        <time>2022-10-02T12:44:32.000Z</time>
      </trkpt>
      <trkpt lat="45.85494" lon="4.70985">
        <ele>220.97633</ele>
        <time>2022-10-02T12:44:33.000Z</time>
      </trkpt>
      <trkpt lat="45.85494" lon="4.7099">
        <ele>220.88968</ele>
        <time>2022-10-02T12:44:34.000Z</time>
      </trkpt>
      <trkpt lat="45.85494" lon="4.70995">
        <ele>220.80677</ele>
        <time>2022-10-02T12:44:35.000Z</time>
      </trkpt>
      <trkpt lat="45.85494" lon="4.71">
        <ele>220.72684</ele>
        <time>2022-10-02T12:44:36.000Z</time>
      </trkpt>
      <trkpt lat="45.85494" lon="4.71005">
        <ele>220.64</ele>
        <time>2022-10-02T12:44:37.000Z</time>
      </trkpt>
      <trkpt lat="45.85495" lon="4.7101">
        <ele>220.55559</ele>
        <time>2022-10-02T12:44:38.000Z</time>
      </trkpt>
      <trkpt lat="45.85496" lon="4.71015">
        <ele>220.46527</ele>
        <time>2022-10-02T12:44:39.000Z</time>
      </trkpt>
      <trkpt lat="45.85499" lon="4.71019">
        <ele>220.37422</ele>
        <time>2022-10-02T12:44:40.000Z</time>
      </trkpt>
      <trkpt lat="45.85502" lon="4.71022">
        <ele>220.27221</ele>
        <time>2022-10-02T12:44:41.000Z</time>
      </trkpt>
      <trkpt lat="45.85505" lon="4.71025">
        <ele>220.15321</ele>
        <time>2022-10-02T12:44:42.000Z</time>
      </trkpt>
      <trkpt lat="45.85508" lon="4.71028">
        <ele>220.00798</ele>
        <time>2022-10-02T12:44:43.000Z</time>
      </trkpt>
      <trkpt lat="45.85512" lon="4.71031">
        <ele>219.81445</ele>
        <time>2022-10-02T12:44:44.000Z</time>
      </trkpt>
      <trkpt lat="45.85517" lon="4.71038">
        <ele>219.42476</ele>
        <time>2022-10-02T12:44:45.000Z</time>
      </trkpt>
      <trkpt lat="45.85515" lon="4.71044">
        <ele>219.34383</ele>
        <time>2022-10-02T12:44:46.000Z</time>
      </trkpt>
      <trkpt lat="45.85515" lon="4.71049">
        <ele>219.17984</ele>
        <time>2022-10-02T12:44:47.000Z</time>
      </trkpt>
      <trkpt lat="45.85516" lon="4.71053">
        <ele>219.03062</ele>
        <time>2022-10-02T12:44:48.000Z</time>
      </trkpt>
      <trkpt lat="45.85517" lon="4.71058">
        <ele>218.81338</ele>
        <time>2022-10-02T12:44:49.000Z</time>
      </trkpt>
      <trkpt lat="45.85518" lon="4.7106">
        <ele>218.68921</ele>
        <time>2022-10-02T12:44:50.000Z</time>
      </trkpt>
      <trkpt lat="45.85517" lon="4.71074">
        <ele>218.45615</ele>
        <time>2022-10-02T12:44:51.000Z</time>
      </trkpt>
      <trkpt lat="45.85516" lon="4.71083">
        <ele>218.23741</ele>
        <time>2022-10-02T12:44:52.000Z</time>
      </trkpt>
      <trkpt lat="45.85515" lon="4.71092">
        <ele>217.90974</ele>
        <time>2022-10-02T12:44:53.000Z</time>
      </trkpt>
      <trkpt lat="45.85516" lon="4.71104">
        <ele>217.30118</ele>
        <time>2022-10-02T12:44:54.000Z</time>
      </trkpt>
      <trkpt lat="45.85517" lon="4.7111">
        <ele>216.97421</ele>
        <time>2022-10-02T12:44:55.000Z</time>
      </trkpt>
      <trkpt lat="45.85517" lon="4.71121">
        <ele>216.20841</ele>
        <time>2022-10-02T12:44:57.000Z</time>
      </trkpt>
      <trkpt lat="45.85517" lon="4.71128">
        <ele>215.5821</ele>
        <time>2022-10-02T12:44:58.000Z</time>
      </trkpt>
      <trkpt lat="45.85515" lon="4.71135">
        <ele>215.17631</ele>
        <time>2022-10-02T12:44:59.000Z</time>
      </trkpt>
      <trkpt lat="45.85511" lon="4.71141">
        <ele>214.89152</ele>
        <time>2022-10-02T12:45:00.000Z</time>
      </trkpt>
      <trkpt lat="45.85509" lon="4.71145">
        <ele>214.53787</ele>
        <time>2022-10-02T12:45:01.000Z</time>
      </trkpt>
      <trkpt lat="45.85508" lon="4.71147">
        <ele>214.25132</ele>
        <time>2022-10-02T12:45:02.000Z</time>
      </trkpt>
      <trkpt lat="45.85506" lon="4.7115">
        <ele>213.96796</ele>
        <time>2022-10-02T12:45:03.000Z</time>
      </trkpt>
      <trkpt lat="45.85504" lon="4.71154">
        <ele>213.38203</ele>
        <time>2022-10-02T12:45:04.000Z</time>
      </trkpt>
      <trkpt lat="45.85502" lon="4.71157">
        <ele>212.77507</ele>
        <time>2022-10-02T12:45:05.000Z</time>
      </trkpt>
      <trkpt lat="45.85499" lon="4.71161">
        <ele>212.0804</ele>
        <time>2022-10-02T12:45:06.000Z</time>
      </trkpt>
      <trkpt lat="45.85496" lon="4.71164">
        <ele>211.30593</ele>
        <time>2022-10-02T12:45:07.000Z</time>
      </trkpt>
      <trkpt lat="45.85493" lon="4.71167">
        <ele>210.63029</ele>
        <time>2022-10-02T12:45:08.000Z</time>
      </trkpt>
      <trkpt lat="45.85492" lon="4.71169">
        <ele>210.14576</ele>
        <time>2022-10-02T12:45:09.000Z</time>
      </trkpt>
      <trkpt lat="45.8549" lon="4.71171">
        <ele>209.72462</ele>
        <time>2022-10-02T12:45:10.000Z</time>
      </trkpt>
      <trkpt lat="45.85489" lon="4.71174">
        <ele>209.0561</ele>
        <time>2022-10-02T12:45:12.000Z</time>
      </trkpt>
      <trkpt lat="45.85488" lon="4.71179">
        <ele>208.1563</ele>
        <time>2022-10-02T12:45:14.000Z</time>
      </trkpt>
      <trkpt lat="45.85488" lon="4.71183">
        <ele>207.5715</ele>
        <time>2022-10-02T12:45:15.000Z</time>
      </trkpt>
      <trkpt lat="45.85487" lon="4.71187">
        <ele>207.02234</ele>
        <time>2022-10-02T12:45:16.000Z</time>
      </trkpt>
      <trkpt lat="45.85487" lon="4.71192">
        <ele>206.39005</ele>
        <time>2022-10-02T12:45:17.000Z</time>
      </trkpt>
      <trkpt lat="45.85486" lon="4.71196">
        <ele>205.78833</ele>
        <time>2022-10-02T12:45:18.000Z</time>
      </trkpt>
      <trkpt lat="45.85485" lon="4.712">
        <ele>205.21668</ele>
        <time>2022-10-02T12:45:19.000Z</time>
      </trkpt>
      <trkpt lat="45.85484" lon="4.71205">
        <ele>204.62225</ele>
        <time>2022-10-02T12:45:20.000Z</time>
      </trkpt>
      <trkpt lat="45.85483" lon="4.7121">
        <ele>204.07534</ele>
        <time>2022-10-02T12:45:21.000Z</time>
      </trkpt>
      <trkpt lat="45.85483" lon="4.71214">
        <ele>203.71534</ele>
        <time>2022-10-02T12:45:22.000Z</time>
      </trkpt>
      <trkpt lat="45.85482" lon="4.71217">
        <ele>203.46823</ele>
        <time>2022-10-02T12:45:23.000Z</time>
      </trkpt>
      <trkpt lat="45.85482" lon="4.7122">
        <ele>203.2673</ele>
        <time>2022-10-02T12:45:24.000Z</time>
      </trkpt>
      <trkpt lat="45.85481" lon="4.71224">
        <ele>203.01678</ele>
        <time>2022-10-02T12:45:25.000Z</time>
      </trkpt>
      <trkpt lat="45.85482" lon="4.71227">
        <ele>202.78377</ele>
        <time>2022-10-02T12:45:26.000Z</time>
      </trkpt>
      <trkpt lat="45.85482" lon="4.7123">
        <ele>202.60527</ele>
        <time>2022-10-02T12:45:27.000Z</time>
      </trkpt>
      <trkpt lat="45.85483" lon="4.71233">
        <ele>202.44414</ele>
        <time>2022-10-02T12:45:28.000Z</time>
      </trkpt>
      <trkpt lat="45.85483" lon="4.71237">
        <ele>202.3105</ele>
        <time>2022-10-02T12:45:29.000Z</time>
      </trkpt>
      <trkpt lat="45.85484" lon="4.71239">
        <ele>202.24336</ele>
        <time>2022-10-02T12:45:30.000Z</time>
      </trkpt>
      <trkpt lat="45.85488" lon="4.7124">
        <ele>202.19061</ele>
        <time>2022-10-02T12:45:32.000Z</time>
      </trkpt>
      <trkpt lat="45.8549" lon="4.7124">
        <ele>202.15997</ele>
        <time>2022-10-02T12:45:33.000Z</time>
      </trkpt>
      <trkpt lat="45.85493" lon="4.71241">
        <ele>202.11755</ele>
        <time>2022-10-02T12:45:34.000Z</time>
      </trkpt>
      <trkpt lat="45.85495" lon="4.71241">
        <ele>202.07993</ele>
        <time>2022-10-02T12:45:35.000Z</time>
      </trkpt>
      <trkpt lat="45.85497" lon="4.71241">
        <ele>202.0453</ele>
        <time>2022-10-02T12:45:36.000Z</time>
      </trkpt>
      <trkpt lat="45.855" lon="4.71242">
        <ele>202.00756</ele>
        <time>2022-10-02T12:45:37.000Z</time>
      </trkpt>
      <trkpt lat="45.85503" lon="4.71243">
        <ele>201.97432</ele>
        <time>2022-10-02T12:45:38.000Z</time>
      </trkpt>
      <trkpt lat="45.85506" lon="4.71243">
        <ele>201.95477</ele>
        <time>2022-10-02T12:45:39.000Z</time>
      </trkpt>
      <trkpt lat="45.85508" lon="4.71244">
        <ele>201.95186</ele>
        <time>2022-10-02T12:45:40.000Z</time>
      </trkpt>
      <trkpt lat="45.85511" lon="4.71245">
        <ele>202.00325</ele>
        <time>2022-10-02T12:45:41.000Z</time>
      </trkpt>
      <trkpt lat="45.85514" lon="4.71247">
        <ele>202.10649</ele>
        <time>2022-10-02T12:45:42.000Z</time>
      </trkpt>
      <trkpt lat="45.85517" lon="4.71249">
        <ele>202.27244</ele>
        <time>2022-10-02T12:45:43.000Z</time>
      </trkpt>
      <trkpt lat="45.8552" lon="4.71252">
        <ele>202.53068</ele>
        <time>2022-10-02T12:45:44.000Z</time>
      </trkpt>
      <trkpt lat="45.85523" lon="4.71254">
        <ele>202.81285</ele>
        <time>2022-10-02T12:45:45.000Z</time>
      </trkpt>
      <trkpt lat="45.85526" lon="4.71256">
        <ele>203.13723</ele>
        <time>2022-10-02T12:45:46.000Z</time>
      </trkpt>
      <trkpt lat="45.85528" lon="4.71258">
        <ele>203.51312</ele>
        <time>2022-10-02T12:45:47.000Z</time>
      </trkpt>
      <trkpt lat="45.85531" lon="4.71261">
        <ele>203.94147</ele>
        <time>2022-10-02T12:45:48.000Z</time>
      </trkpt>
      <trkpt lat="45.85534" lon="4.71263">
        <ele>204.40946</ele>
        <time>2022-10-02T12:45:49.000Z</time>
      </trkpt>
      <trkpt lat="45.85537" lon="4.71265">
        <ele>205.04539</ele>
        <time>2022-10-02T12:45:50.000Z</time>
      </trkpt>
      <trkpt lat="45.85539" lon="4.71267">
        <ele>205.70005</ele>
        <time>2022-10-02T12:45:51.000Z</time>
      </trkpt>
      <trkpt lat="45.85542" lon="4.71269">
        <ele>206.24996</ele>
        <time>2022-10-02T12:45:52.000Z</time>
      </trkpt>
      <trkpt lat="45.85544" lon="4.71271">
        <ele>206.80535</ele>
        <time>2022-10-02T12:45:53.000Z</time>
      </trkpt>
      <trkpt lat="45.85546" lon="4.71273">
        <ele>207.41202</ele>
        <time>2022-10-02T12:45:54.000Z</time>
      </trkpt>
      <trkpt lat="45.85549" lon="4.71276">
        <ele>208.06266</ele>
        <time>2022-10-02T12:45:55.000Z</time>
      </trkpt>
      <trkpt lat="45.85551" lon="4.71278">
        <ele>208.70696</ele>
        <time>2022-10-02T12:45:56.000Z</time>
      </trkpt>
      <trkpt lat="45.85553" lon="4.7128">
        <ele>209.26491</ele>
        <time>2022-10-02T12:45:57.000Z</time>
      </trkpt>
      <trkpt lat="45.85556" lon="4.71281">
        <ele>209.72845</ele>
        <time>2022-10-02T12:45:58.000Z</time>
      </trkpt>
      <trkpt lat="45.85558" lon="4.71282">
        <ele>210.03295</ele>
        <time>2022-10-02T12:45:59.000Z</time>
      </trkpt>
      <trkpt lat="45.8556" lon="4.71282">
        <ele>210.33366</ele>
        <time>2022-10-02T12:46:00.000Z</time>
      </trkpt>
      <trkpt lat="45.85562" lon="4.71283">
        <ele>210.61315</ele>
        <time>2022-10-02T12:46:01.000Z</time>
      </trkpt>
      <trkpt lat="45.85564" lon="4.71283">
        <ele>210.94096</ele>
        <time>2022-10-02T12:46:02.000Z</time>
      </trkpt>
      <trkpt lat="45.85567" lon="4.71284">
        <ele>211.28479</ele>
        <time>2022-10-02T12:46:03.000Z</time>
      </trkpt>
      <trkpt lat="45.85569" lon="4.71284">
        <ele>211.58692</ele>
        <time>2022-10-02T12:46:04.000Z</time>
      </trkpt>
      <trkpt lat="45.85571" lon="4.71285">
        <ele>211.84909</ele>
        <time>2022-10-02T12:46:05.000Z</time>
      </trkpt>
      <trkpt lat="45.85574" lon="4.71285">
        <ele>212.16562</ele>
        <time>2022-10-02T12:46:06.000Z</time>
      </trkpt>
      <trkpt lat="45.85577" lon="4.71286">
        <ele>212.62913</ele>
        <time>2022-10-02T12:46:07.000Z</time>
      </trkpt>
      <trkpt lat="45.85579" lon="4.71287">
        <ele>213.09208</ele>
        <time>2022-10-02T12:46:08.000Z</time>
      </trkpt>
      <trkpt lat="45.85581" lon="4.71289">
        <ele>213.58791</ele>
        <time>2022-10-02T12:46:09.000Z</time>
      </trkpt>
      <trkpt lat="45.85584" lon="4.71291">
        <ele>214.14833</ele>
        <time>2022-10-02T12:46:10.000Z</time>
      </trkpt>
      <trkpt lat="45.85586" lon="4.71294">
        <ele>214.96032</ele>
        <time>2022-10-02T12:46:11.000Z</time>
      </trkpt>
      <trkpt lat="45.85588" lon="4.71297">
        <ele>215.77446</ele>
        <time>2022-10-02T12:46:12.000Z</time>
      </trkpt>
      <trkpt lat="45.85591" lon="4.713">
        <ele>216.43155</ele>
        <time>2022-10-02T12:46:13.000Z</time>
      </trkpt>
      <trkpt lat="45.85591" lon="4.71303">
        <ele>216.95817</ele>
        <time>2022-10-02T12:46:14.000Z</time>
      </trkpt>
      <trkpt lat="45.85589" lon="4.71306">
        <ele>217.46825</ele>
        <time>2022-10-02T12:46:15.000Z</time>
      </trkpt>
      <trkpt lat="45.85587" lon="4.71308">
        <ele>217.78744</ele>
        <time>2022-10-02T12:46:16.000Z</time>
      </trkpt>
      <trkpt lat="45.85584" lon="4.71309">
        <ele>217.97724</ele>
        <time>2022-10-02T12:46:17.000Z</time>
      </trkpt>
      <trkpt lat="45.85581" lon="4.71311">
        <ele>218.25865</ele>
        <time>2022-10-02T12:46:18.000Z</time>
      </trkpt>
      <trkpt lat="45.85577" lon="4.71313">
        <ele>218.59275</ele>
        <time>2022-10-02T12:46:19.000Z</time>
      </trkpt>
      <trkpt lat="45.85574" lon="4.71315">
        <ele>218.88882</ele>
        <time>2022-10-02T12:46:20.000Z</time>
      </trkpt>
      <trkpt lat="45.85571" lon="4.71317">
        <ele>219.15438</ele>
        <time>2022-10-02T12:46:21.000Z</time>
      </trkpt>
      <trkpt lat="45.85568" lon="4.71318">
        <ele>219.34653</ele>
        <time>2022-10-02T12:46:22.000Z</time>
      </trkpt>
      <trkpt lat="45.85564" lon="4.7132">
        <ele>219.50893</ele>
        <time>2022-10-02T12:46:23.000Z</time>
      </trkpt>
      <trkpt lat="45.85561" lon="4.71321">
        <ele>219.71862</ele>
        <time>2022-10-02T12:46:24.000Z</time>
      </trkpt>
      <trkpt lat="45.85558" lon="4.71323">
        <ele>219.9581</ele>
        <time>2022-10-02T12:46:25.000Z</time>
      </trkpt>
      <trkpt lat="45.85555" lon="4.71324">
        <ele>220.22212</ele>
        <time>2022-10-02T12:46:26.000Z</time>
      </trkpt>
      <trkpt lat="45.85552" lon="4.71326">
        <ele>220.50841</ele>
        <time>2022-10-02T12:46:27.000Z</time>
      </trkpt>
      <trkpt lat="45.85548" lon="4.71327">
        <ele>220.8189</ele>
        <time>2022-10-02T12:46:28.000Z</time>
      </trkpt>
      <trkpt lat="45.85545" lon="4.71329">
        <ele>221.0962</ele>
        <time>2022-10-02T12:46:29.000Z</time>
      </trkpt>
      <trkpt lat="45.85542" lon="4.71329">
        <ele>221.30286</ele>
        <time>2022-10-02T12:46:30.000Z</time>
      </trkpt>
      <trkpt lat="45.85539" lon="4.7133">
        <ele>221.48916</ele>
        <time>2022-10-02T12:46:31.000Z</time>
      </trkpt>
      <trkpt lat="45.85536" lon="4.7133">
        <ele>221.67556</ele>
        <time>2022-10-02T12:46:32.000Z</time>
      </trkpt>
      <trkpt lat="45.85533" lon="4.71331">
        <ele>221.93022</ele>
        <time>2022-10-02T12:46:33.000Z</time>
      </trkpt>
      <trkpt lat="45.8553" lon="4.71332">
        <ele>222.30952</ele>
        <time>2022-10-02T12:46:34.000Z</time>
      </trkpt>
      <trkpt lat="45.85526" lon="4.71334">
        <ele>222.75481</ele>
        <time>2022-10-02T12:46:35.000Z</time>
      </trkpt>
      <trkpt lat="45.85523" lon="4.71335">
        <ele>223.21858</ele>
        <time>2022-10-02T12:46:36.000Z</time>
      </trkpt>
      <trkpt lat="45.8552" lon="4.71336">
        <ele>223.68761</ele>
        <time>2022-10-02T12:46:37.000Z</time>
      </trkpt>
      <trkpt lat="45.85516" lon="4.71337">
        <ele>224.13056</ele>
        <time>2022-10-02T12:46:38.000Z</time>
      </trkpt>
      <trkpt lat="45.85513" lon="4.71338">
        <ele>224.50255</ele>
        <time>2022-10-02T12:46:39.000Z</time>
      </trkpt>
      <trkpt lat="45.85509" lon="4.71339">
        <ele>224.83292</ele>
        <time>2022-10-02T12:46:40.000Z</time>
      </trkpt>
      <trkpt lat="45.85505" lon="4.71339">
        <ele>225.14973</ele>
        <time>2022-10-02T12:46:41.000Z</time>
      </trkpt>
      <trkpt lat="45.85502" lon="4.71339">
        <ele>225.46465</ele>
        <time>2022-10-02T12:46:42.000Z</time>
      </trkpt>
      <trkpt lat="45.85499" lon="4.7134">
        <ele>225.77309</ele>
        <time>2022-10-02T12:46:43.000Z</time>
      </trkpt>
      <trkpt lat="45.85495" lon="4.7134">
        <ele>226.11644</ele>
        <time>2022-10-02T12:46:44.000Z</time>
      </trkpt>
      <trkpt lat="45.85492" lon="4.71341">
        <ele>226.45835</ele>
        <time>2022-10-02T12:46:45.000Z</time>
      </trkpt>
      <trkpt lat="45.85489" lon="4.71342">
        <ele>226.84499</ele>
        <time>2022-10-02T12:46:46.000Z</time>
      </trkpt>
      <trkpt lat="45.85485" lon="4.71343">
        <ele>227.24001</ele>
        <time>2022-10-02T12:46:47.000Z</time>
      </trkpt>
      <trkpt lat="45.85482" lon="4.71345">
        <ele>227.64333</ele>
        <time>2022-10-02T12:46:48.000Z</time>
      </trkpt>
      <trkpt lat="45.85479" lon="4.71346">
        <ele>228.04113</ele>
        <time>2022-10-02T12:46:49.000Z</time>
      </trkpt>
      <trkpt lat="45.85476" lon="4.71348">
        <ele>228.39436</ele>
        <time>2022-10-02T12:46:50.000Z</time>
      </trkpt>
      <trkpt lat="45.85473" lon="4.71349">
        <ele>228.68916</ele>
        <time>2022-10-02T12:46:51.000Z</time>
      </trkpt>
      <trkpt lat="45.8547" lon="4.7135">
        <ele>228.9548</ele>
        <time>2022-10-02T12:46:52.000Z</time>
      </trkpt>
      <trkpt lat="45.85467" lon="4.71351">
        <ele>229.21296</ele>
        <time>2022-10-02T12:46:53.000Z</time>
      </trkpt>
      <trkpt lat="45.85464" lon="4.71352">
        <ele>229.49189</ele>
        <time>2022-10-02T12:46:54.000Z</time>
      </trkpt>
      <trkpt lat="45.85462" lon="4.71354">
        <ele>229.86058</ele>
        <time>2022-10-02T12:46:55.000Z</time>
      </trkpt>
      <trkpt lat="45.8546" lon="4.71356">
        <ele>230.24417</ele>
        <time>2022-10-02T12:46:56.000Z</time>
      </trkpt>
      <trkpt lat="45.85458" lon="4.71358">
        <ele>230.57011</ele>
        <time>2022-10-02T12:46:57.000Z</time>
      </trkpt>
      <trkpt lat="45.85456" lon="4.7136">
        <ele>230.86449</ele>
        <time>2022-10-02T12:46:58.000Z</time>
      </trkpt>
      <trkpt lat="45.85454" lon="4.71362">
        <ele>231.15354</ele>
        <time>2022-10-02T12:46:59.000Z</time>
      </trkpt>
      <trkpt lat="45.85452" lon="4.71364">
        <ele>231.45578</ele>
        <time>2022-10-02T12:47:00.000Z</time>
      </trkpt>
      <trkpt lat="45.8545" lon="4.71366">
        <ele>231.78104</ele>
        <time>2022-10-02T12:47:01.000Z</time>
      </trkpt>
      <trkpt lat="45.85449" lon="4.71368">
        <ele>232.08339</ele>
        <time>2022-10-02T12:47:02.000Z</time>
      </trkpt>
      <trkpt lat="45.85447" lon="4.71369">
        <ele>232.33568</ele>
        <time>2022-10-02T12:47:03.000Z</time>
      </trkpt>
      <trkpt lat="45.85444" lon="4.71371">
        <ele>232.57898</ele>
        <time>2022-10-02T12:47:04.000Z</time>
      </trkpt>
      <trkpt lat="45.85442" lon="4.71373">
        <ele>232.81846</ele>
        <time>2022-10-02T12:47:05.000Z</time>
      </trkpt>
      <trkpt lat="45.85439" lon="4.71374">
        <ele>233.04632</ele>
        <time>2022-10-02T12:47:06.000Z</time>
      </trkpt>
      <trkpt lat="45.85437" lon="4.71375">
        <ele>233.22628</ele>
        <time>2022-10-02T12:47:07.000Z</time>
      </trkpt>
      <trkpt lat="45.85435" lon="4.71377">
        <ele>233.41735</ele>
        <time>2022-10-02T12:47:08.000Z</time>
      </trkpt>
      <trkpt lat="45.85433" lon="4.71378">
        <ele>233.59222</ele>
        <time>2022-10-02T12:47:09.000Z</time>
      </trkpt>
      <trkpt lat="45.85431" lon="4.7138">
        <ele>233.74739</ele>
        <time>2022-10-02T12:47:10.000Z</time>
      </trkpt>
      <trkpt lat="45.85429" lon="4.71381">
        <ele>233.9083</ele>
        <time>2022-10-02T12:47:11.000Z</time>
      </trkpt>
      <trkpt lat="45.85426" lon="4.71383">
        <ele>234.06127</ele>
        <time>2022-10-02T12:47:12.000Z</time>
      </trkpt>
      <trkpt lat="45.85424" lon="4.71384">
        <ele>234.19023</ele>
        <time>2022-10-02T12:47:13.000Z</time>
      </trkpt>
      <trkpt lat="45.85423" lon="4.71385">
        <ele>234.29731</ele>
        <time>2022-10-02T12:47:14.000Z</time>
      </trkpt>
      <trkpt lat="45.85419" lon="4.71387">
        <ele>234.58625</ele>
        <time>2022-10-02T12:47:16.000Z</time>
      </trkpt>
      <trkpt lat="45.85417" lon="4.71388">
        <ele>234.79019</ele>
        <time>2022-10-02T12:47:17.000Z</time>
      </trkpt>
      <trkpt lat="45.85416" lon="4.7139">
        <ele>234.99154</ele>
        <time>2022-10-02T12:47:18.000Z</time>
      </trkpt>
      <trkpt lat="45.85414" lon="4.71392">
        <ele>235.18679</ele>
        <time>2022-10-02T12:47:19.000Z</time>
      </trkpt>
      <trkpt lat="45.85412" lon="4.71394">
        <ele>235.40495</ele>
        <time>2022-10-02T12:47:20.000Z</time>
      </trkpt>
      <trkpt lat="45.8541" lon="4.71396">
        <ele>235.60456</ele>
        <time>2022-10-02T12:47:21.000Z</time>
      </trkpt>
      <trkpt lat="45.85408" lon="4.71399">
        <ele>235.79006</ele>
        <time>2022-10-02T12:47:22.000Z</time>
      </trkpt>
      <trkpt lat="45.85406" lon="4.71401">
        <ele>235.97879</ele>
        <time>2022-10-02T12:47:23.000Z</time>
      </trkpt>
      <trkpt lat="45.85404" lon="4.71402">
        <ele>236.15134</ele>
        <time>2022-10-02T12:47:24.000Z</time>
      </trkpt>
      <trkpt lat="45.85402" lon="4.71404">
        <ele>236.30296</ele>
        <time>2022-10-02T12:47:25.000Z</time>
      </trkpt>
      <trkpt lat="45.854" lon="4.71405">
        <ele>236.45875</ele>
        <time>2022-10-02T12:47:26.000Z</time>
      </trkpt>
      <trkpt lat="45.85398" lon="4.71406">
        <ele>236.66274</ele>
        <time>2022-10-02T12:47:27.000Z</time>
      </trkpt>
      <trkpt lat="45.85395" lon="4.71408">
        <ele>236.90792</ele>
        <time>2022-10-02T12:47:28.000Z</time>
      </trkpt>
      <trkpt lat="45.85393" lon="4.7141">
        <ele>237.16399</ele>
        <time>2022-10-02T12:47:29.000Z</time>
      </trkpt>
      <trkpt lat="45.8539" lon="4.71412">
        <ele>237.42997</ele>
        <time>2022-10-02T12:47:30.000Z</time>
      </trkpt>
      <trkpt lat="45.85388" lon="4.71413">
        <ele>237.68253</ele>
        <time>2022-10-02T12:47:31.000Z</time>
      </trkpt>
      <trkpt lat="45.85386" lon="4.71415">
        <ele>237.95104</ele>
        <time>2022-10-02T12:47:32.000Z</time>
      </trkpt>
      <trkpt lat="45.85383" lon="4.71417">
        <ele>238.29006</ele>
        <time>2022-10-02T12:47:33.000Z</time>
      </trkpt>
      <trkpt lat="45.85379" lon="4.7142">
        <ele>238.65987</ele>
        <time>2022-10-02T12:47:34.000Z</time>
      </trkpt>
      <trkpt lat="45.85377" lon="4.71422">
        <ele>238.99251</ele>
        <time>2022-10-02T12:47:35.000Z</time>
      </trkpt>
      <trkpt lat="45.85374" lon="4.71424">
        <ele>239.38439</ele>
        <time>2022-10-02T12:47:36.000Z</time>
      </trkpt>
      <trkpt lat="45.85371" lon="4.71427">
        <ele>239.79888</ele>
        <time>2022-10-02T12:47:37.000Z</time>
      </trkpt>
      <trkpt lat="45.85368" lon="4.7143">
        <ele>240.18901</ele>
        <time>2022-10-02T12:47:38.000Z</time>
      </trkpt>
      <trkpt lat="45.85366" lon="4.71433">
        <ele>240.56339</ele>
        <time>2022-10-02T12:47:39.000Z</time>
      </trkpt>
      <trkpt lat="45.85363" lon="4.71435">
        <ele>240.95899</ele>
        <time>2022-10-02T12:47:40.000Z</time>
      </trkpt>
      <trkpt lat="45.8536" lon="4.71438">
        <ele>241.326</ele>
        <time>2022-10-02T12:47:41.000Z</time>
      </trkpt>
      <trkpt lat="45.85358" lon="4.71441">
        <ele>241.67102</ele>
        <time>2022-10-02T12:47:42.000Z</time>
      </trkpt>
      <trkpt lat="45.85355" lon="4.71444">
        <ele>241.95961</ele>
        <time>2022-10-02T12:47:43.000Z</time>
      </trkpt>
      <trkpt lat="45.85353" lon="4.71446">
        <ele>242.25078</ele>
        <time>2022-10-02T12:47:44.000Z</time>
      </trkpt>
      <trkpt lat="45.8535" lon="4.71448">
        <ele>242.58906</ele>
        <time>2022-10-02T12:47:45.000Z</time>
      </trkpt>
      <trkpt lat="45.85347" lon="4.71451">
        <ele>243.01395</ele>
        <time>2022-10-02T12:47:46.000Z</time>
      </trkpt>
      <trkpt lat="45.85344" lon="4.71454">
        <ele>243.50611</ele>
        <time>2022-10-02T12:47:47.000Z</time>
      </trkpt>
      <trkpt lat="45.85341" lon="4.71456">
        <ele>243.91892</ele>
        <time>2022-10-02T12:47:48.000Z</time>
      </trkpt>
      <trkpt lat="45.85338" lon="4.71459">
        <ele>244.26556</ele>
        <time>2022-10-02T12:47:49.000Z</time>
      </trkpt>
      <trkpt lat="45.85335" lon="4.71462">
        <ele>244.47867</ele>
        <time>2022-10-02T12:47:50.000Z</time>
      </trkpt>
      <trkpt lat="45.85333" lon="4.71465">
        <ele>244.66811</ele>
        <time>2022-10-02T12:47:51.000Z</time>
      </trkpt>
      <trkpt lat="45.8533" lon="4.71469">
        <ele>244.89002</ele>
        <time>2022-10-02T12:47:52.000Z</time>
      </trkpt>
      <trkpt lat="45.85327" lon="4.71471">
        <ele>245.12421</ele>
        <time>2022-10-02T12:47:53.000Z</time>
      </trkpt>
      <trkpt lat="45.85324" lon="4.71474">
        <ele>245.37157</ele>
        <time>2022-10-02T12:47:54.000Z</time>
      </trkpt>
      <trkpt lat="45.85321" lon="4.71477">
        <ele>245.59213</ele>
        <time>2022-10-02T12:47:55.000Z</time>
      </trkpt>
      <trkpt lat="45.85318" lon="4.7148">
        <ele>245.77626</ele>
        <time>2022-10-02T12:47:56.000Z</time>
      </trkpt>
      <trkpt lat="45.85315" lon="4.71483">
        <ele>245.91422</ele>
        <time>2022-10-02T12:47:57.000Z</time>
      </trkpt>
      <trkpt lat="45.85312" lon="4.71486">
        <ele>245.9244</ele>
        <time>2022-10-02T12:47:58.000Z</time>
      </trkpt>
      <trkpt lat="45.85309" lon="4.71489">
        <ele>245.88093</ele>
        <time>2022-10-02T12:47:59.000Z</time>
      </trkpt>
      <trkpt lat="45.85306" lon="4.71491">
        <ele>245.78836</ele>
        <time>2022-10-02T12:48:00.000Z</time>
      </trkpt>
      <trkpt lat="45.85304" lon="4.71494">
        <ele>245.6578</ele>
        <time>2022-10-02T12:48:01.000Z</time>
      </trkpt>
      <trkpt lat="45.85301" lon="4.71497">
        <ele>245.55663</ele>
        <time>2022-10-02T12:48:02.000Z</time>
      </trkpt>
      <trkpt lat="45.85299" lon="4.71499">
        <ele>245.53891</ele>
        <time>2022-10-02T12:48:03.000Z</time>
      </trkpt>
      <trkpt lat="45.85296" lon="4.71501">
        <ele>245.59614</ele>
        <time>2022-10-02T12:48:04.000Z</time>
      </trkpt>
      <trkpt lat="45.85293" lon="4.71503">
        <ele>245.5986</ele>
        <time>2022-10-02T12:48:05.000Z</time>
      </trkpt>
      <trkpt lat="45.8529" lon="4.71506">
        <ele>245.53098</ele>
        <time>2022-10-02T12:48:06.000Z</time>
      </trkpt>
      <trkpt lat="45.85287" lon="4.71508">
        <ele>245.44217</ele>
        <time>2022-10-02T12:48:07.000Z</time>
      </trkpt>
      <trkpt lat="45.85284" lon="4.71511">
        <ele>245.3164</ele>
        <time>2022-10-02T12:48:08.000Z</time>
      </trkpt>
      <trkpt lat="45.85281" lon="4.71513">
        <ele>245.14483</ele>
        <time>2022-10-02T12:48:09.000Z</time>
      </trkpt>
      <trkpt lat="45.85278" lon="4.71516">
        <ele>244.89933</ele>
        <time>2022-10-02T12:48:10.000Z</time>
      </trkpt>
      <trkpt lat="45.85275" lon="4.71519">
        <ele>244.61955</ele>
        <time>2022-10-02T12:48:11.000Z</time>
      </trkpt>
      <trkpt lat="45.85272" lon="4.71522">
        <ele>244.3266</ele>
        <time>2022-10-02T12:48:12.000Z</time>
      </trkpt>
      <trkpt lat="45.85269" lon="4.71525">
        <ele>244.02209</ele>
        <time>2022-10-02T12:48:13.000Z</time>
      </trkpt>
      <trkpt lat="45.85265" lon="4.71528">
        <ele>243.73581</ele>
        <time>2022-10-02T12:48:14.000Z</time>
      </trkpt>
      <trkpt lat="45.85261" lon="4.71531">
        <ele>243.44672</ele>
        <time>2022-10-02T12:48:15.000Z</time>
      </trkpt>
      <trkpt lat="45.85257" lon="4.71533">
        <ele>243.12566</ele>
        <time>2022-10-02T12:48:16.000Z</time>
      </trkpt>
      <trkpt lat="45.85254" lon="4.71534">
        <ele>242.77203</ele>
        <time>2022-10-02T12:48:17.000Z</time>
      </trkpt>
      <trkpt lat="45.8525" lon="4.71536">
        <ele>242.385</ele>
        <time>2022-10-02T12:48:18.000Z</time>
      </trkpt>
      <trkpt lat="45.85246" lon="4.71538">
        <ele>241.96437</ele>
        <time>2022-10-02T12:48:19.000Z</time>
      </trkpt>
      <trkpt lat="45.85242" lon="4.7154">
        <ele>241.5491</ele>
        <time>2022-10-02T12:48:20.000Z</time>
      </trkpt>
      <trkpt lat="45.85238" lon="4.71541">
        <ele>241.14726</ele>
        <time>2022-10-02T12:48:21.000Z</time>
      </trkpt>
      <trkpt lat="45.85234" lon="4.71543">
        <ele>240.73139</ele>
        <time>2022-10-02T12:48:22.000Z</time>
      </trkpt>
      <trkpt lat="45.8523" lon="4.71544">
        <ele>240.30028</ele>
        <time>2022-10-02T12:48:23.000Z</time>
      </trkpt>
      <trkpt lat="45.85226" lon="4.71546">
        <ele>239.79882</ele>
        <time>2022-10-02T12:48:24.000Z</time>
      </trkpt>
      <trkpt lat="45.85221" lon="4.71547">
        <ele>239.33892</ele>
        <time>2022-10-02T12:48:25.000Z</time>
      </trkpt>
      <trkpt lat="45.85217" lon="4.7155">
        <ele>238.99871</ele>
        <time>2022-10-02T12:48:26.000Z</time>
      </trkpt>
      <trkpt lat="45.85213" lon="4.71551">
        <ele>238.71537</ele>
        <time>2022-10-02T12:48:27.000Z</time>
      </trkpt>
      <trkpt lat="45.8521" lon="4.71552">
        <ele>238.4114</ele>
        <time>2022-10-02T12:48:28.000Z</time>
      </trkpt>
      <trkpt lat="45.85206" lon="4.71553">
        <ele>238.06403</ele>
        <time>2022-10-02T12:48:29.000Z</time>
      </trkpt>
      <trkpt lat="45.85203" lon="4.71554">
        <ele>237.72534</ele>
        <time>2022-10-02T12:48:30.000Z</time>
      </trkpt>
      <trkpt lat="45.85199" lon="4.71554">
        <ele>237.40286</ele>
        <time>2022-10-02T12:48:31.000Z</time>
      </trkpt>
      <trkpt lat="45.85196" lon="4.71554">
        <ele>237.08407</ele>
        <time>2022-10-02T12:48:32.000Z</time>
      </trkpt>
      <trkpt lat="45.85193" lon="4.71555">
        <ele>236.84364</ele>
        <time>2022-10-02T12:48:33.000Z</time>
      </trkpt>
      <trkpt lat="45.85189" lon="4.71556">
        <ele>236.71146</ele>
        <time>2022-10-02T12:48:34.000Z</time>
      </trkpt>
      <trkpt lat="45.85185" lon="4.71559">
        <ele>236.74874</ele>
        <time>2022-10-02T12:48:35.000Z</time>
      </trkpt>
      <trkpt lat="45.85182" lon="4.71561">
        <ele>236.89004</ele>
        <time>2022-10-02T12:48:36.000Z</time>
      </trkpt>
      <trkpt lat="45.85179" lon="4.71564">
        <ele>237.01563</ele>
        <time>2022-10-02T12:48:37.000Z</time>
      </trkpt>
      <trkpt lat="45.85175" lon="4.71566">
        <ele>237.08695</ele>
        <time>2022-10-02T12:48:38.000Z</time>
      </trkpt>
      <trkpt lat="45.85172" lon="4.71568">
        <ele>237.17412</ele>
        <time>2022-10-02T12:48:39.000Z</time>
      </trkpt>
      <trkpt lat="45.85169" lon="4.7157">
        <ele>237.27194</ele>
        <time>2022-10-02T12:48:40.000Z</time>
      </trkpt>
      <trkpt lat="45.85166" lon="4.71572">
        <ele>237.32027</ele>
        <time>2022-10-02T12:48:41.000Z</time>
      </trkpt>
      <trkpt lat="45.85162" lon="4.71573">
        <ele>237.37578</ele>
        <time>2022-10-02T12:48:42.000Z</time>
      </trkpt>
      <trkpt lat="45.85158" lon="4.71575">
        <ele>237.43796</ele>
        <time>2022-10-02T12:48:43.000Z</time>
      </trkpt>
      <trkpt lat="45.85154" lon="4.71576">
        <ele>237.40905</ele>
        <time>2022-10-02T12:48:44.000Z</time>
      </trkpt>
      <trkpt lat="45.8515" lon="4.71578">
        <ele>237.38582</ele>
        <time>2022-10-02T12:48:45.000Z</time>
      </trkpt>
      <trkpt lat="45.85146" lon="4.71579">
        <ele>237.40907</ele>
        <time>2022-10-02T12:48:46.000Z</time>
      </trkpt>
      <trkpt lat="45.85142" lon="4.7158">
        <ele>237.41852</ele>
        <time>2022-10-02T12:48:47.000Z</time>
      </trkpt>
      <trkpt lat="45.85138" lon="4.7158">
        <ele>237.49348</ele>
        <time>2022-10-02T12:48:48.000Z</time>
      </trkpt>
      <trkpt lat="45.85134" lon="4.71579">
        <ele>237.50562</ele>
        <time>2022-10-02T12:48:49.000Z</time>
      </trkpt>
      <trkpt lat="45.85129" lon="4.71579">
        <ele>237.31484</ele>
        <time>2022-10-02T12:48:50.000Z</time>
      </trkpt>
      <trkpt lat="45.85125" lon="4.71578">
        <ele>236.82037</ele>
        <time>2022-10-02T12:48:51.000Z</time>
      </trkpt>
      <trkpt lat="45.85121" lon="4.71578">
        <ele>236.00279</ele>
        <time>2022-10-02T12:48:52.000Z</time>
      </trkpt>
      <trkpt lat="45.85117" lon="4.71578">
        <ele>234.90567</ele>
        <time>2022-10-02T12:48:53.000Z</time>
      </trkpt>
      <trkpt lat="45.85113" lon="4.7158">
        <ele>233.5274</ele>
        <time>2022-10-02T12:48:54.000Z</time>
      </trkpt>
      <trkpt lat="45.85109" lon="4.71583">
        <ele>231.74985</ele>
        <time>2022-10-02T12:48:55.000Z</time>
      </trkpt>
      <trkpt lat="45.85105" lon="4.71586">
        <ele>229.85161</ele>
        <time>2022-10-02T12:48:56.000Z</time>
      </trkpt>
      <trkpt lat="45.85101" lon="4.7159">
        <ele>228.57262</ele>
        <time>2022-10-02T12:48:57.000Z</time>
      </trkpt>
      <trkpt lat="45.85097" lon="4.71593">
        <ele>228.54263</ele>
        <time>2022-10-02T12:48:58.000Z</time>
      </trkpt>
      <trkpt lat="45.85093" lon="4.71596">
        <ele>229.57969</ele>
        <time>2022-10-02T12:48:59.000Z</time>
      </trkpt>
      <trkpt lat="45.85089" lon="4.71599">
        <ele>231.46628</ele>
        <time>2022-10-02T12:49:00.000Z</time>
      </trkpt>
      <trkpt lat="45.85084" lon="4.71602">
        <ele>233.84664</ele>
        <time>2022-10-02T12:49:01.000Z</time>
      </trkpt>
      <trkpt lat="45.8508" lon="4.71605">
        <ele>236.04224</ele>
        <time>2022-10-02T12:49:02.000Z</time>
      </trkpt>
      <trkpt lat="45.85076" lon="4.71607">
        <ele>237.51278</ele>
        <time>2022-10-02T12:49:03.000Z</time>
      </trkpt>
      <trkpt lat="45.85072" lon="4.7161">
        <ele>238.34992</ele>
        <time>2022-10-02T12:49:04.000Z</time>
      </trkpt>
      <trkpt lat="45.85069" lon="4.71612">
        <ele>238.89091</ele>
        <time>2022-10-02T12:49:05.000Z</time>
      </trkpt>
      <trkpt lat="45.85065" lon="4.71613">
        <ele>239.22224</ele>
        <time>2022-10-02T12:49:06.000Z</time>
      </trkpt>
      <trkpt lat="45.85061" lon="4.71615">
        <ele>239.4692</ele>
        <time>2022-10-02T12:49:07.000Z</time>
      </trkpt>
      <trkpt lat="45.85058" lon="4.71619">
        <ele>239.88658</ele>
        <time>2022-10-02T12:49:08.000Z</time>
      </trkpt>
      <trkpt lat="45.85054" lon="4.71621">
        <ele>240.28322</ele>
        <time>2022-10-02T12:49:09.000Z</time>
      </trkpt>
      <trkpt lat="45.8505" lon="4.71624">
        <ele>240.63217</ele>
        <time>2022-10-02T12:49:10.000Z</time>
      </trkpt>
      <trkpt lat="45.85047" lon="4.71626">
        <ele>240.86147</ele>
        <time>2022-10-02T12:49:11.000Z</time>
      </trkpt>
      <trkpt lat="45.85043" lon="4.71628">
        <ele>241.07053</ele>
        <time>2022-10-02T12:49:12.000Z</time>
      </trkpt>
      <trkpt lat="45.85039" lon="4.7163">
        <ele>241.24884</ele>
        <time>2022-10-02T12:49:13.000Z</time>
      </trkpt>
      <trkpt lat="45.85035" lon="4.71632">
        <ele>241.42575</ele>
        <time>2022-10-02T12:49:14.000Z</time>
      </trkpt>
      <trkpt lat="45.85031" lon="4.71633">
        <ele>241.55084</ele>
        <time>2022-10-02T12:49:15.000Z</time>
      </trkpt>
      <trkpt lat="45.85028" lon="4.71635">
        <ele>241.70485</ele>
        <time>2022-10-02T12:49:16.000Z</time>
      </trkpt>
      <trkpt lat="45.85024" lon="4.71637">
        <ele>241.90245</ele>
        <time>2022-10-02T12:49:17.000Z</time>
      </trkpt>
      <trkpt lat="45.8502" lon="4.7164">
        <ele>242.1695</ele>
        <time>2022-10-02T12:49:18.000Z</time>
      </trkpt>
      <trkpt lat="45.85017" lon="4.71643">
        <ele>242.45221</ele>
        <time>2022-10-02T12:49:19.000Z</time>
      </trkpt>
      <trkpt lat="45.85014" lon="4.71646">
        <ele>242.69498</ele>
        <time>2022-10-02T12:49:20.000Z</time>
      </trkpt>
      <trkpt lat="45.85011" lon="4.71648">
        <ele>242.91063</ele>
        <time>2022-10-02T12:49:21.000Z</time>
      </trkpt>
      <trkpt lat="45.85008" lon="4.7165">
        <ele>243.107</ele>
        <time>2022-10-02T12:49:22.000Z</time>
      </trkpt>
      <trkpt lat="45.85006" lon="4.71652">
        <ele>243.3138</ele>
        <time>2022-10-02T12:49:23.000Z</time>
      </trkpt>
      <trkpt lat="45.85003" lon="4.71654">
        <ele>243.52813</ele>
        <time>2022-10-02T12:49:24.000Z</time>
      </trkpt>
      <trkpt lat="45.85" lon="4.71655">
        <ele>243.72639</ele>
        <time>2022-10-02T12:49:25.000Z</time>
      </trkpt>
      <trkpt lat="45.84997" lon="4.71657">
        <ele>243.98315</ele>
        <time>2022-10-02T12:49:26.000Z</time>
      </trkpt>
      <trkpt lat="45.84993" lon="4.71659">
        <ele>244.28303</ele>
        <time>2022-10-02T12:49:27.000Z</time>
      </trkpt>
      <trkpt lat="45.8499" lon="4.71661">
        <ele>244.57273</ele>
        <time>2022-10-02T12:49:28.000Z</time>
      </trkpt>
      <trkpt lat="45.84986" lon="4.71662">
        <ele>244.86419</ele>
        <time>2022-10-02T12:49:29.000Z</time>
      </trkpt>
      <trkpt lat="45.84982" lon="4.71662">
        <ele>245.13731</ele>
        <time>2022-10-02T12:49:30.000Z</time>
      </trkpt>
      <trkpt lat="45.84978" lon="4.71663">
        <ele>245.47431</ele>
        <time>2022-10-02T12:49:31.000Z</time>
      </trkpt>
      <trkpt lat="45.84974" lon="4.71664">
        <ele>245.83555</ele>
        <time>2022-10-02T12:49:32.000Z</time>
      </trkpt>
      <trkpt lat="45.84969" lon="4.71664">
        <ele>246.19309</ele>
        <time>2022-10-02T12:49:33.000Z</time>
      </trkpt>
      <trkpt lat="45.84965" lon="4.71665">
        <ele>246.48351</ele>
        <time>2022-10-02T12:49:34.000Z</time>
      </trkpt>
      <trkpt lat="45.84961" lon="4.71665">
        <ele>246.77357</ele>
        <time>2022-10-02T12:49:35.000Z</time>
      </trkpt>
      <trkpt lat="45.84958" lon="4.71664">
        <ele>246.95363</ele>
        <time>2022-10-02T12:49:36.000Z</time>
      </trkpt>
      <trkpt lat="45.84954" lon="4.71664">
        <ele>247.11196</ele>
        <time>2022-10-02T12:49:37.000Z</time>
      </trkpt>
      <trkpt lat="45.84951" lon="4.71663">
        <ele>247.2676</ele>
        <time>2022-10-02T12:49:38.000Z</time>
      </trkpt>
      <trkpt lat="45.84947" lon="4.71663">
        <ele>247.44366</ele>
        <time>2022-10-02T12:49:39.000Z</time>
      </trkpt>
      <trkpt lat="45.84943" lon="4.71662">
        <ele>247.55104</ele>
        <time>2022-10-02T12:49:40.000Z</time>
      </trkpt>
      <trkpt lat="45.8494" lon="4.71661">
        <ele>247.61194</ele>
        <time>2022-10-02T12:49:41.000Z</time>
      </trkpt>
      <trkpt lat="45.84937" lon="4.7166">
        <ele>247.65755</ele>
        <time>2022-10-02T12:49:42.000Z</time>
      </trkpt>
      <trkpt lat="45.84934" lon="4.71659">
        <ele>247.7255</ele>
        <time>2022-10-02T12:49:43.000Z</time>
      </trkpt>
      <trkpt lat="45.8493" lon="4.71658">
        <ele>247.76314</ele>
        <time>2022-10-02T12:49:44.000Z</time>
      </trkpt>
      <trkpt lat="45.84926" lon="4.71658">
        <ele>247.81294</ele>
        <time>2022-10-02T12:49:45.000Z</time>
      </trkpt>
      <trkpt lat="45.84923" lon="4.71657">
        <ele>247.83516</ele>
        <time>2022-10-02T12:49:46.000Z</time>
      </trkpt>
      <trkpt lat="45.8492" lon="4.71657">
        <ele>247.89442</ele>
        <time>2022-10-02T12:49:47.000Z</time>
      </trkpt>
      <trkpt lat="45.84916" lon="4.71656">
        <ele>247.94458</ele>
        <time>2022-10-02T12:49:48.000Z</time>
      </trkpt>
      <trkpt lat="45.84913" lon="4.71656">
        <ele>248.0096</ele>
        <time>2022-10-02T12:49:49.000Z</time>
      </trkpt>
      <trkpt lat="45.8491" lon="4.71656">
        <ele>248.07542</ele>
        <time>2022-10-02T12:49:50.000Z</time>
      </trkpt>
      <trkpt lat="45.84907" lon="4.71656">
        <ele>248.14673</ele>
        <time>2022-10-02T12:49:51.000Z</time>
      </trkpt>
      <trkpt lat="45.84903" lon="4.71656">
        <ele>248.24832</ele>
        <time>2022-10-02T12:49:52.000Z</time>
      </trkpt>
      <trkpt lat="45.849" lon="4.71657">
        <ele>248.36197</ele>
        <time>2022-10-02T12:49:53.000Z</time>
      </trkpt>
      <trkpt lat="45.84897" lon="4.71658">
        <ele>248.49493</ele>
        <time>2022-10-02T12:49:54.000Z</time>
      </trkpt>
      <trkpt lat="45.84893" lon="4.71659">
        <ele>248.66231</ele>
        <time>2022-10-02T12:49:55.000Z</time>
      </trkpt>
      <trkpt lat="45.8489" lon="4.71661">
        <ele>248.85023</ele>
        <time>2022-10-02T12:49:56.000Z</time>
      </trkpt>
      <trkpt lat="45.84887" lon="4.71663">
        <ele>249.02844</ele>
        <time>2022-10-02T12:49:57.000Z</time>
      </trkpt>
      <trkpt lat="45.84885" lon="4.71665">
        <ele>249.17202</ele>
        <time>2022-10-02T12:49:58.000Z</time>
      </trkpt>
      <trkpt lat="45.84881" lon="4.71666">
        <ele>249.25962</ele>
        <time>2022-10-02T12:49:59.000Z</time>
      </trkpt>
      <trkpt lat="45.84878" lon="4.71668">
        <ele>249.30213</ele>
        <time>2022-10-02T12:50:00.000Z</time>
      </trkpt>
      <trkpt lat="45.84875" lon="4.71669">
        <ele>249.38893</ele>
        <time>2022-10-02T12:50:01.000Z</time>
      </trkpt>
      <trkpt lat="45.84873" lon="4.71671">
        <ele>249.52944</ele>
        <time>2022-10-02T12:50:02.000Z</time>
      </trkpt>
      <trkpt lat="45.84871" lon="4.71674">
        <ele>249.65628</ele>
        <time>2022-10-02T12:50:03.000Z</time>
      </trkpt>
      <trkpt lat="45.84868" lon="4.71676">
        <ele>249.73533</ele>
        <time>2022-10-02T12:50:04.000Z</time>
      </trkpt>
      <trkpt lat="45.84866" lon="4.71678">
        <ele>249.74913</ele>
        <time>2022-10-02T12:50:05.000Z</time>
      </trkpt>
      <trkpt lat="45.84863" lon="4.71679">
        <ele>249.72195</ele>
        <time>2022-10-02T12:50:06.000Z</time>
      </trkpt>
      <trkpt lat="45.8486" lon="4.7168">
        <ele>249.64668</ele>
        <time>2022-10-02T12:50:07.000Z</time>
      </trkpt>
      <trkpt lat="45.84857" lon="4.71682">
        <ele>249.55024</ele>
        <time>2022-10-02T12:50:08.000Z</time>
      </trkpt>
      <trkpt lat="45.84853" lon="4.71682">
        <ele>249.37464</ele>
        <time>2022-10-02T12:50:09.000Z</time>
      </trkpt>
      <trkpt lat="45.84849" lon="4.71684">
        <ele>249.23529</ele>
        <time>2022-10-02T12:50:10.000Z</time>
      </trkpt>
      <trkpt lat="45.84845" lon="4.71685">
        <ele>249.1343</ele>
        <time>2022-10-02T12:50:11.000Z</time>
      </trkpt>
      <trkpt lat="45.84842" lon="4.71687">
        <ele>249.05542</ele>
        <time>2022-10-02T12:50:12.000Z</time>
      </trkpt>
      <trkpt lat="45.84839" lon="4.71689">
        <ele>249.0155</ele>
        <time>2022-10-02T12:50:13.000Z</time>
      </trkpt>
      <trkpt lat="45.84835" lon="4.7169">
        <ele>248.96024</ele>
        <time>2022-10-02T12:50:14.000Z</time>
      </trkpt>
      <trkpt lat="45.84832" lon="4.71692">
        <ele>248.88752</ele>
        <time>2022-10-02T12:50:15.000Z</time>
      </trkpt>
      <trkpt lat="45.84828" lon="4.71693">
        <ele>248.82218</ele>
        <time>2022-10-02T12:50:16.000Z</time>
      </trkpt>
      <trkpt lat="45.84824" lon="4.71696">
        <ele>248.78983</ele>
        <time>2022-10-02T12:50:17.000Z</time>
      </trkpt>
      <trkpt lat="45.8482" lon="4.71698">
        <ele>248.81161</ele>
        <time>2022-10-02T12:50:18.000Z</time>
      </trkpt>
      <trkpt lat="45.84816" lon="4.71701">
        <ele>248.84241</ele>
        <time>2022-10-02T12:50:19.000Z</time>
      </trkpt>
      <trkpt lat="45.84812" lon="4.71704">
        <ele>248.82661</ele>
        <time>2022-10-02T12:50:20.000Z</time>
      </trkpt>
      <trkpt lat="45.84808" lon="4.71707">
        <ele>248.72278</ele>
        <time>2022-10-02T12:50:21.000Z</time>
      </trkpt>
      <trkpt lat="45.84804" lon="4.7171">
        <ele>248.5433</ele>
        <time>2022-10-02T12:50:22.000Z</time>
      </trkpt>
      <trkpt lat="45.848" lon="4.71713">
        <ele>248.25798</ele>
        <time>2022-10-02T12:50:23.000Z</time>
      </trkpt>
      <trkpt lat="45.84796" lon="4.71715">
        <ele>247.99441</ele>
        <time>2022-10-02T12:50:24.000Z</time>
      </trkpt>
      <trkpt lat="45.84793" lon="4.71717">
        <ele>247.77868</ele>
        <time>2022-10-02T12:50:25.000Z</time>
      </trkpt>
      <trkpt lat="45.84789" lon="4.71719">
        <ele>247.59676</ele>
        <time>2022-10-02T12:50:26.000Z</time>
      </trkpt>
      <trkpt lat="45.84785" lon="4.71721">
        <ele>247.43114</ele>
        <time>2022-10-02T12:50:27.000Z</time>
      </trkpt>
      <trkpt lat="45.84779" lon="4.71722">
        <ele>247.17437</ele>
        <time>2022-10-02T12:50:28.000Z</time>
      </trkpt>
      <trkpt lat="45.84774" lon="4.71724">
        <ele>247.0888</ele>
        <time>2022-10-02T12:50:29.000Z</time>
      </trkpt>
      <trkpt lat="45.84771" lon="4.71728">
        <ele>247.1362</ele>
        <time>2022-10-02T12:50:30.000Z</time>
      </trkpt>
      <trkpt lat="45.84767" lon="4.71734">
        <ele>247.16683</ele>
        <time>2022-10-02T12:50:31.000Z</time>
      </trkpt>
      <trkpt lat="45.84762" lon="4.71736">
        <ele>247.01639</ele>
        <time>2022-10-02T12:50:32.000Z</time>
      </trkpt>
      <trkpt lat="45.84756" lon="4.71741">
        <ele>246.73563</ele>
        <time>2022-10-02T12:50:33.000Z</time>
      </trkpt>
      <trkpt lat="45.84751" lon="4.71744">
        <ele>246.40861</ele>
        <time>2022-10-02T12:50:34.000Z</time>
      </trkpt>
      <trkpt lat="45.84746" lon="4.71748">
        <ele>246.1511</ele>
        <time>2022-10-02T12:50:35.000Z</time>
      </trkpt>
      <trkpt lat="45.84742" lon="4.71749">
        <ele>246.07229</ele>
        <time>2022-10-02T12:50:36.000Z</time>
      </trkpt>
      <trkpt lat="45.84738" lon="4.71752">
        <ele>246.23322</ele>
        <time>2022-10-02T12:50:37.000Z</time>
      </trkpt>
      <trkpt lat="45.84734" lon="4.71754">
        <ele>246.42776</ele>
        <time>2022-10-02T12:50:38.000Z</time>
      </trkpt>
      <trkpt lat="45.8473" lon="4.71757">
        <ele>246.77606</ele>
        <time>2022-10-02T12:50:39.000Z</time>
      </trkpt>
      <trkpt lat="45.84727" lon="4.71759">
        <ele>246.98133</ele>
        <time>2022-10-02T12:50:40.000Z</time>
      </trkpt>
      <trkpt lat="45.84723" lon="4.7176">
        <ele>247.03002</ele>
        <time>2022-10-02T12:50:41.000Z</time>
      </trkpt>
      <trkpt lat="45.84718" lon="4.71763">
        <ele>247.05842</ele>
        <time>2022-10-02T12:50:42.000Z</time>
      </trkpt>
      <trkpt lat="45.84713" lon="4.71762">
        <ele>246.77789</ele>
        <time>2022-10-02T12:50:43.000Z</time>
      </trkpt>
      <trkpt lat="45.84707" lon="4.71763">
        <ele>246.67442</ele>
        <time>2022-10-02T12:50:44.000Z</time>
      </trkpt>
      <trkpt lat="45.84705" lon="4.71764">
        <ele>246.59142</ele>
        <time>2022-10-02T12:50:45.000Z</time>
      </trkpt>
      <trkpt lat="45.84702" lon="4.71766">
        <ele>246.61882</ele>
        <time>2022-10-02T12:50:46.000Z</time>
      </trkpt>
      <trkpt lat="45.84697" lon="4.71769">
        <ele>246.53339</ele>
        <time>2022-10-02T12:50:47.000Z</time>
      </trkpt>
      <trkpt lat="45.84691" lon="4.71771">
        <ele>246.30057</ele>
        <time>2022-10-02T12:50:48.000Z</time>
      </trkpt>
      <trkpt lat="45.84686" lon="4.71774">
        <ele>245.89637</ele>
        <time>2022-10-02T12:50:49.000Z</time>
      </trkpt>
      <trkpt lat="45.84682" lon="4.71776">
        <ele>245.5954</ele>
        <time>2022-10-02T12:50:50.000Z</time>
      </trkpt>
      <trkpt lat="45.84677" lon="4.7178">
        <ele>245.39524</ele>
        <time>2022-10-02T12:50:51.000Z</time>
      </trkpt>
      <trkpt lat="45.84674" lon="4.71782">
        <ele>245.34933</ele>
        <time>2022-10-02T12:50:52.000Z</time>
      </trkpt>
      <trkpt lat="45.8467" lon="4.71784">
        <ele>245.44883</ele>
        <time>2022-10-02T12:50:53.000Z</time>
      </trkpt>
      <trkpt lat="45.84664" lon="4.71788">
        <ele>245.62356</ele>
        <time>2022-10-02T12:50:54.000Z</time>
      </trkpt>
      <trkpt lat="45.84657" lon="4.71792">
        <ele>245.89446</ele>
        <time>2022-10-02T12:50:55.000Z</time>
      </trkpt>
      <trkpt lat="45.84652" lon="4.71802">
        <ele>246.68698</ele>
        <time>2022-10-02T12:50:56.000Z</time>
      </trkpt>
      <trkpt lat="45.84646" lon="4.71802">
        <ele>246.64419</ele>
        <time>2022-10-02T12:50:57.000Z</time>
      </trkpt>
      <trkpt lat="45.84641" lon="4.71809">
        <ele>247.20652</ele>
        <time>2022-10-02T12:50:58.000Z</time>
      </trkpt>
      <trkpt lat="45.84636" lon="4.71811">
        <ele>247.39209</ele>
        <time>2022-10-02T12:50:59.000Z</time>
      </trkpt>
      <trkpt lat="45.84629" lon="4.71811">
        <ele>247.3314</ele>
        <time>2022-10-02T12:51:00.000Z</time>
      </trkpt>
      <trkpt lat="45.84625" lon="4.71813">
        <ele>247.75138</ele>
        <time>2022-10-02T12:51:01.000Z</time>
      </trkpt>
      <trkpt lat="45.8462" lon="4.71814">
        <ele>248.03805</ele>
        <time>2022-10-02T12:51:02.000Z</time>
      </trkpt>
      <trkpt lat="45.84617" lon="4.71815">
        <ele>248.2755</ele>
        <time>2022-10-02T12:51:03.000Z</time>
      </trkpt>
      <trkpt lat="45.84612" lon="4.71817">
        <ele>248.83062</ele>
        <time>2022-10-02T12:51:04.000Z</time>
      </trkpt>
      <trkpt lat="45.84608" lon="4.71821">
        <ele>249.63686</ele>
        <time>2022-10-02T12:51:05.000Z</time>
      </trkpt>
      <trkpt lat="45.84604" lon="4.71822">
        <ele>249.85682</ele>
        <time>2022-10-02T12:51:06.000Z</time>
      </trkpt>
      <trkpt lat="45.84599" lon="4.71824">
        <ele>250.08934</ele>
        <time>2022-10-02T12:51:07.000Z</time>
      </trkpt>
      <trkpt lat="45.84596" lon="4.71826">
        <ele>250.42466</ele>
        <time>2022-10-02T12:51:08.000Z</time>
      </trkpt>
      <trkpt lat="45.84593" lon="4.71827">
        <ele>250.26073</ele>
        <time>2022-10-02T12:51:09.000Z</time>
      </trkpt>
      <trkpt lat="45.84589" lon="4.71829">
        <ele>250.30406</ele>
        <time>2022-10-02T12:51:10.000Z</time>
      </trkpt>
      <trkpt lat="45.84584" lon="4.71831">
        <ele>250.21255</ele>
        <time>2022-10-02T12:51:11.000Z</time>
      </trkpt>
      <trkpt lat="45.8458" lon="4.71836">
        <ele>250.53712</ele>
        <time>2022-10-02T12:51:12.000Z</time>
      </trkpt>
      <trkpt lat="45.84577" lon="4.71835">
        <ele>250.35044</ele>
        <time>2022-10-02T12:51:13.000Z</time>
      </trkpt>
      <trkpt lat="45.84573" lon="4.71837">
        <ele>250.46344</ele>
        <time>2022-10-02T12:51:14.000Z</time>
      </trkpt>
      <trkpt lat="45.8457" lon="4.7184">
        <ele>250.67213</ele>
        <time>2022-10-02T12:51:15.000Z</time>
      </trkpt>
      <trkpt lat="45.84567" lon="4.71842">
        <ele>250.87188</ele>
        <time>2022-10-02T12:51:16.000Z</time>
      </trkpt>
      <trkpt lat="45.84563" lon="4.71843">
        <ele>250.97807</ele>
        <time>2022-10-02T12:51:17.000Z</time>
      </trkpt>
      <trkpt lat="45.84559" lon="4.71845">
        <ele>251.18161</ele>
        <time>2022-10-02T12:51:18.000Z</time>
      </trkpt>
      <trkpt lat="45.84555" lon="4.71847">
        <ele>251.42205</ele>
        <time>2022-10-02T12:51:19.000Z</time>
      </trkpt>
      <trkpt lat="45.84551" lon="4.71849">
        <ele>251.70287</ele>
        <time>2022-10-02T12:51:20.000Z</time>
      </trkpt>
      <trkpt lat="45.84547" lon="4.71852">
        <ele>252.02092</ele>
        <time>2022-10-02T12:51:21.000Z</time>
      </trkpt>
      <trkpt lat="45.84544" lon="4.71853">
        <ele>252.27528</ele>
        <time>2022-10-02T12:51:22.000Z</time>
      </trkpt>
      <trkpt lat="45.8454" lon="4.71855">
        <ele>252.51976</ele>
        <time>2022-10-02T12:51:23.000Z</time>
      </trkpt>
      <trkpt lat="45.84537" lon="4.71858">
        <ele>252.75123</ele>
        <time>2022-10-02T12:51:24.000Z</time>
      </trkpt>
      <trkpt lat="45.84534" lon="4.71861">
        <ele>252.99985</ele>
        <time>2022-10-02T12:51:25.000Z</time>
      </trkpt>
      <trkpt lat="45.84531" lon="4.71864">
        <ele>253.19168</ele>
        <time>2022-10-02T12:51:26.000Z</time>
      </trkpt>
      <trkpt lat="45.84528" lon="4.71867">
        <ele>253.28873</ele>
        <time>2022-10-02T12:51:27.000Z</time>
      </trkpt>
      <trkpt lat="45.84525" lon="4.71869">
        <ele>253.37365</ele>
        <time>2022-10-02T12:51:28.000Z</time>
      </trkpt>
      <trkpt lat="45.84521" lon="4.71872">
        <ele>253.41916</ele>
        <time>2022-10-02T12:51:29.000Z</time>
      </trkpt>
      <trkpt lat="45.84518" lon="4.71875">
        <ele>253.50206</ele>
        <time>2022-10-02T12:51:30.000Z</time>
      </trkpt>
      <trkpt lat="45.84516" lon="4.71878">
        <ele>253.59399</ele>
        <time>2022-10-02T12:51:31.000Z</time>
      </trkpt>
      <trkpt lat="45.84514" lon="4.71881">
        <ele>253.68664</ele>
        <time>2022-10-02T12:51:32.000Z</time>
      </trkpt>
      <trkpt lat="45.84511" lon="4.71884">
        <ele>253.78476</ele>
        <time>2022-10-02T12:51:33.000Z</time>
      </trkpt>
      <trkpt lat="45.84507" lon="4.71888">
        <ele>253.88023</ele>
        <time>2022-10-02T12:51:34.000Z</time>
      </trkpt>
      <trkpt lat="45.84503" lon="4.71891">
        <ele>253.93233</ele>
        <time>2022-10-02T12:51:35.000Z</time>
      </trkpt>
      <trkpt lat="45.845" lon="4.71895">
        <ele>253.99146</ele>
        <time>2022-10-02T12:51:36.000Z</time>
      </trkpt>
      <trkpt lat="45.84496" lon="4.71898">
        <ele>254.03861</ele>
        <time>2022-10-02T12:51:37.000Z</time>
      </trkpt>
      <trkpt lat="45.84493" lon="4.71901">
        <ele>254.14332</ele>
        <time>2022-10-02T12:51:38.000Z</time>
      </trkpt>
      <trkpt lat="45.84489" lon="4.71904">
        <ele>254.21799</ele>
        <time>2022-10-02T12:51:39.000Z</time>
      </trkpt>
      <trkpt lat="45.84485" lon="4.71907">
        <ele>254.29204</ele>
        <time>2022-10-02T12:51:40.000Z</time>
      </trkpt>
      <trkpt lat="45.84481" lon="4.7191">
        <ele>254.30071</ele>
        <time>2022-10-02T12:51:41.000Z</time>
      </trkpt>
      <trkpt lat="45.84477" lon="4.71913">
        <ele>254.3231</ele>
        <time>2022-10-02T12:51:42.000Z</time>
      </trkpt>
      <trkpt lat="45.84473" lon="4.71916">
        <ele>254.35974</ele>
        <time>2022-10-02T12:51:43.000Z</time>
      </trkpt>
      <trkpt lat="45.84469" lon="4.71918">
        <ele>254.43315</ele>
        <time>2022-10-02T12:51:44.000Z</time>
      </trkpt>
      <trkpt lat="45.84465" lon="4.71921">
        <ele>254.62195</ele>
        <time>2022-10-02T12:51:45.000Z</time>
      </trkpt>
      <trkpt lat="45.8446" lon="4.71923">
        <ele>254.93206</ele>
        <time>2022-10-02T12:51:46.000Z</time>
      </trkpt>
      <trkpt lat="45.84456" lon="4.71925">
        <ele>255.33012</ele>
        <time>2022-10-02T12:51:47.000Z</time>
      </trkpt>
      <trkpt lat="45.84452" lon="4.71927">
        <ele>255.73839</ele>
        <time>2022-10-02T12:51:48.000Z</time>
      </trkpt>
      <trkpt lat="45.84447" lon="4.71929">
        <ele>256.11389</ele>
        <time>2022-10-02T12:51:49.000Z</time>
      </trkpt>
      <trkpt lat="45.84443" lon="4.7193">
        <ele>256.38794</ele>
        <time>2022-10-02T12:51:50.000Z</time>
      </trkpt>
      <trkpt lat="45.84438" lon="4.71931">
        <ele>256.52445</ele>
        <time>2022-10-02T12:51:51.000Z</time>
      </trkpt>
      <trkpt lat="45.84434" lon="4.71931">
        <ele>256.61713</ele>
        <time>2022-10-02T12:51:52.000Z</time>
      </trkpt>
      <trkpt lat="45.8443" lon="4.71932">
        <ele>256.64761</ele>
        <time>2022-10-02T12:51:53.000Z</time>
      </trkpt>
      <trkpt lat="45.84426" lon="4.71933">
        <ele>256.69127</ele>
        <time>2022-10-02T12:51:54.000Z</time>
      </trkpt>
      <trkpt lat="45.84422" lon="4.71933">
        <ele>256.74425</ele>
        <time>2022-10-02T12:51:55.000Z</time>
      </trkpt>
      <trkpt lat="45.84419" lon="4.71934">
        <ele>256.81642</ele>
        <time>2022-10-02T12:51:56.000Z</time>
      </trkpt>
      <trkpt lat="45.84415" lon="4.71934">
        <ele>256.92445</ele>
        <time>2022-10-02T12:51:57.000Z</time>
      </trkpt>
      <trkpt lat="45.84411" lon="4.71936">
        <ele>257.10283</ele>
        <time>2022-10-02T12:51:58.000Z</time>
      </trkpt>
      <trkpt lat="45.84408" lon="4.71937">
        <ele>257.30802</ele>
        <time>2022-10-02T12:51:59.000Z</time>
      </trkpt>
      <trkpt lat="45.84404" lon="4.71939">
        <ele>257.55695</ele>
        <time>2022-10-02T12:52:00.000Z</time>
      </trkpt>
      <trkpt lat="45.844" lon="4.7194">
        <ele>257.7973</ele>
        <time>2022-10-02T12:52:01.000Z</time>
      </trkpt>
      <trkpt lat="45.84396" lon="4.71941">
        <ele>257.95187</ele>
        <time>2022-10-02T12:52:02.000Z</time>
      </trkpt>
      <trkpt lat="45.84393" lon="4.71943">
        <ele>258.11628</ele>
        <time>2022-10-02T12:52:03.000Z</time>
      </trkpt>
      <trkpt lat="45.84389" lon="4.71944">
        <ele>258.25589</ele>
        <time>2022-10-02T12:52:04.000Z</time>
      </trkpt>
      <trkpt lat="45.84385" lon="4.71945">
        <ele>258.45418</ele>
        <time>2022-10-02T12:52:05.000Z</time>
      </trkpt>
      <trkpt lat="45.84381" lon="4.71946">
        <ele>258.60621</ele>
        <time>2022-10-02T12:52:06.000Z</time>
      </trkpt>
      <trkpt lat="45.84377" lon="4.71948">
        <ele>258.77989</ele>
        <time>2022-10-02T12:52:07.000Z</time>
      </trkpt>
      <trkpt lat="45.84373" lon="4.7195">
        <ele>258.97153</ele>
        <time>2022-10-02T12:52:08.000Z</time>
      </trkpt>
      <trkpt lat="45.8437" lon="4.71951">
        <ele>259.10384</ele>
        <time>2022-10-02T12:52:09.000Z</time>
      </trkpt>
      <trkpt lat="45.84366" lon="4.71952">
        <ele>259.18943</ele>
        <time>2022-10-02T12:52:10.000Z</time>
      </trkpt>
      <trkpt lat="45.84363" lon="4.71953">
        <ele>259.21979</ele>
        <time>2022-10-02T12:52:11.000Z</time>
      </trkpt>
      <trkpt lat="45.8436" lon="4.71954">
        <ele>259.22052</ele>
        <time>2022-10-02T12:52:12.000Z</time>
      </trkpt>
      <trkpt lat="45.84357" lon="4.71955">
        <ele>259.21473</ele>
        <time>2022-10-02T12:52:13.000Z</time>
      </trkpt>
      <trkpt lat="45.84354" lon="4.71955">
        <ele>259.19794</ele>
        <time>2022-10-02T12:52:14.000Z</time>
      </trkpt>
      <trkpt lat="45.84351" lon="4.71956">
        <ele>259.20567</ele>
        <time>2022-10-02T12:52:15.000Z</time>
      </trkpt>
      <trkpt lat="45.84349" lon="4.71957">
        <ele>259.22332</ele>
        <time>2022-10-02T12:52:16.000Z</time>
      </trkpt>
      <trkpt lat="45.84346" lon="4.71958">
        <ele>259.25049</ele>
        <time>2022-10-02T12:52:17.000Z</time>
      </trkpt>
      <trkpt lat="45.84343" lon="4.71959">
        <ele>259.27806</ele>
        <time>2022-10-02T12:52:18.000Z</time>
      </trkpt>
      <trkpt lat="45.8434" lon="4.7196">
        <ele>259.32931</ele>
        <time>2022-10-02T12:52:19.000Z</time>
      </trkpt>
      <trkpt lat="45.84338" lon="4.71961">
        <ele>259.40446</ele>
        <time>2022-10-02T12:52:20.000Z</time>
      </trkpt>
      <trkpt lat="45.84335" lon="4.71963">
        <ele>259.53777</ele>
        <time>2022-10-02T12:52:21.000Z</time>
      </trkpt>
      <trkpt lat="45.84332" lon="4.71964">
        <ele>259.69674</ele>
        <time>2022-10-02T12:52:22.000Z</time>
      </trkpt>
      <trkpt lat="45.84329" lon="4.71966">
        <ele>259.87884</ele>
        <time>2022-10-02T12:52:23.000Z</time>
      </trkpt>
      <trkpt lat="45.84325" lon="4.71968">
        <ele>260.04704</ele>
        <time>2022-10-02T12:52:24.000Z</time>
      </trkpt>
      <trkpt lat="45.84322" lon="4.7197">
        <ele>260.2141</ele>
        <time>2022-10-02T12:52:25.000Z</time>
      </trkpt>
      <trkpt lat="45.84319" lon="4.7197">
        <ele>260.27704</ele>
        <time>2022-10-02T12:52:26.000Z</time>
      </trkpt>
      <trkpt lat="45.84317" lon="4.71971">
        <ele>260.33566</ele>
        <time>2022-10-02T12:52:27.000Z</time>
      </trkpt>
      <trkpt lat="45.84314" lon="4.71972">
        <ele>260.39491</ele>
        <time>2022-10-02T12:52:28.000Z</time>
      </trkpt>
      <trkpt lat="45.84312" lon="4.71973">
        <ele>260.47156</ele>
        <time>2022-10-02T12:52:29.000Z</time>
      </trkpt>
      <trkpt lat="45.84309" lon="4.71974">
        <ele>260.5686</ele>
        <time>2022-10-02T12:52:30.000Z</time>
      </trkpt>
      <trkpt lat="45.84307" lon="4.71975">
        <ele>260.73807</ele>
        <time>2022-10-02T12:52:31.000Z</time>
      </trkpt>
      <trkpt lat="45.84304" lon="4.71977">
        <ele>260.91357</ele>
        <time>2022-10-02T12:52:32.000Z</time>
      </trkpt>
      <trkpt lat="45.84301" lon="4.71979">
        <ele>261.10815</ele>
        <time>2022-10-02T12:52:33.000Z</time>
      </trkpt>
      <trkpt lat="45.84297" lon="4.7198">
        <ele>261.31008</ele>
        <time>2022-10-02T12:52:34.000Z</time>
      </trkpt>
      <trkpt lat="45.84294" lon="4.71982">
        <ele>261.50537</ele>
        <time>2022-10-02T12:52:35.000Z</time>
      </trkpt>
      <trkpt lat="45.84291" lon="4.71983">
        <ele>261.7051</ele>
        <time>2022-10-02T12:52:36.000Z</time>
      </trkpt>
      <trkpt lat="45.84288" lon="4.71984">
        <ele>261.86957</ele>
        <time>2022-10-02T12:52:37.000Z</time>
      </trkpt>
      <trkpt lat="45.84285" lon="4.71986">
        <ele>262.06115</ele>
        <time>2022-10-02T12:52:38.000Z</time>
      </trkpt>
      <trkpt lat="45.84283" lon="4.71988">
        <ele>262.32034</ele>
        <time>2022-10-02T12:52:39.000Z</time>
      </trkpt>
      <trkpt lat="45.8428" lon="4.7199">
        <ele>262.6126</ele>
        <time>2022-10-02T12:52:40.000Z</time>
      </trkpt>
      <trkpt lat="45.84277" lon="4.71992">
        <ele>262.86553</ele>
        <time>2022-10-02T12:52:41.000Z</time>
      </trkpt>
      <trkpt lat="45.84274" lon="4.71993">
        <ele>263.07496</ele>
        <time>2022-10-02T12:52:42.000Z</time>
      </trkpt>
      <trkpt lat="45.84271" lon="4.71995">
        <ele>263.31547</ele>
        <time>2022-10-02T12:52:43.000Z</time>
      </trkpt>
      <trkpt lat="45.84268" lon="4.71996">
        <ele>263.52274</ele>
        <time>2022-10-02T12:52:44.000Z</time>
      </trkpt>
      <trkpt lat="45.84265" lon="4.71998">
        <ele>263.71423</ele>
        <time>2022-10-02T12:52:45.000Z</time>
      </trkpt>
      <trkpt lat="45.84263" lon="4.71999">
        <ele>263.89455</ele>
        <time>2022-10-02T12:52:46.000Z</time>
      </trkpt>
      <trkpt lat="45.8426" lon="4.72001">
        <ele>264.09436</ele>
        <time>2022-10-02T12:52:47.000Z</time>
      </trkpt>
      <trkpt lat="45.84257" lon="4.72002">
        <ele>264.32354</ele>
        <time>2022-10-02T12:52:48.000Z</time>
      </trkpt>
      <trkpt lat="45.84254" lon="4.72004">
        <ele>264.55734</ele>
        <time>2022-10-02T12:52:49.000Z</time>
      </trkpt>
      <trkpt lat="45.84251" lon="4.72006">
        <ele>264.83523</ele>
        <time>2022-10-02T12:52:50.000Z</time>
      </trkpt>
      <trkpt lat="45.84249" lon="4.72007">
        <ele>265.10973</ele>
        <time>2022-10-02T12:52:51.000Z</time>
      </trkpt>
      <trkpt lat="45.84246" lon="4.72009">
        <ele>265.35602</ele>
        <time>2022-10-02T12:52:52.000Z</time>
      </trkpt>
      <trkpt lat="45.84243" lon="4.7201">
        <ele>265.56171</ele>
        <time>2022-10-02T12:52:53.000Z</time>
      </trkpt>
      <trkpt lat="45.8424" lon="4.72011">
        <ele>265.76939</ele>
        <time>2022-10-02T12:52:54.000Z</time>
      </trkpt>
      <trkpt lat="45.84237" lon="4.72012">
        <ele>265.98474</ele>
        <time>2022-10-02T12:52:55.000Z</time>
      </trkpt>
      <trkpt lat="45.84235" lon="4.72013">
        <ele>266.21658</ele>
        <time>2022-10-02T12:52:56.000Z</time>
      </trkpt>
      <trkpt lat="45.84233" lon="4.72015">
        <ele>266.45259</ele>
        <time>2022-10-02T12:52:57.000Z</time>
      </trkpt>
      <trkpt lat="45.84231" lon="4.72017">
        <ele>266.70842</ele>
        <time>2022-10-02T12:52:58.000Z</time>
      </trkpt>
      <trkpt lat="45.84229" lon="4.72018">
        <ele>266.92059</ele>
        <time>2022-10-02T12:52:59.000Z</time>
      </trkpt>
      <trkpt lat="45.84227" lon="4.7202">
        <ele>267.1161</ele>
        <time>2022-10-02T12:53:00.000Z</time>
      </trkpt>
      <trkpt lat="45.84225" lon="4.72021">
        <ele>267.28349</ele>
        <time>2022-10-02T12:53:01.000Z</time>
      </trkpt>
      <trkpt lat="45.84222" lon="4.72022">
        <ele>267.4168</ele>
        <time>2022-10-02T12:53:02.000Z</time>
      </trkpt>
      <trkpt lat="45.8422" lon="4.72023">
        <ele>267.52427</ele>
        <time>2022-10-02T12:53:03.000Z</time>
      </trkpt>
      <trkpt lat="45.84218" lon="4.72023">
        <ele>267.55053</ele>
        <time>2022-10-02T12:53:04.000Z</time>
      </trkpt>
      <trkpt lat="45.84215" lon="4.72024">
        <ele>267.61147</ele>
        <time>2022-10-02T12:53:05.000Z</time>
      </trkpt>
      <trkpt lat="45.84213" lon="4.72025">
        <ele>267.67768</ele>
        <time>2022-10-02T12:53:06.000Z</time>
      </trkpt>
      <trkpt lat="45.84211" lon="4.72026">
        <ele>267.76098</ele>
        <time>2022-10-02T12:53:07.000Z</time>
      </trkpt>
      <trkpt lat="45.84209" lon="4.72028">
        <ele>267.81156</ele>
        <time>2022-10-02T12:53:08.000Z</time>
      </trkpt>
      <trkpt lat="45.84207" lon="4.72029">
        <ele>267.86668</ele>
        <time>2022-10-02T12:53:09.000Z</time>
      </trkpt>
      <trkpt lat="45.84204" lon="4.72031">
        <ele>267.8994</ele>
        <time>2022-10-02T12:53:10.000Z</time>
      </trkpt>
      <trkpt lat="45.84202" lon="4.72033">
        <ele>267.93136</ele>
        <time>2022-10-02T12:53:11.000Z</time>
      </trkpt>
      <trkpt lat="45.84199" lon="4.72035">
        <ele>267.95432</ele>
        <time>2022-10-02T12:53:12.000Z</time>
      </trkpt>
      <trkpt lat="45.84196" lon="4.72036">
        <ele>267.97764</ele>
        <time>2022-10-02T12:53:13.000Z</time>
      </trkpt>
      <trkpt lat="45.84194" lon="4.72038">
        <ele>268.03824</ele>
        <time>2022-10-02T12:53:14.000Z</time>
      </trkpt>
      <trkpt lat="45.84191" lon="4.72041">
        <ele>268.14253</ele>
        <time>2022-10-02T12:53:15.000Z</time>
      </trkpt>
      <trkpt lat="45.84188" lon="4.72043">
        <ele>268.26817</ele>
        <time>2022-10-02T12:53:16.000Z</time>
      </trkpt>
      <trkpt lat="45.84186" lon="4.72045">
        <ele>268.40839</ele>
        <time>2022-10-02T12:53:17.000Z</time>
      </trkpt>
      <trkpt lat="45.84181" lon="4.72049">
        <ele>268.72493</ele>
        <time>2022-10-02T12:53:19.000Z</time>
      </trkpt>
      <trkpt lat="45.84178" lon="4.72051">
        <ele>268.8945</ele>
        <time>2022-10-02T12:53:20.000Z</time>
      </trkpt>
      <trkpt lat="45.84176" lon="4.72054">
        <ele>269.0737</ele>
        <time>2022-10-02T12:53:21.000Z</time>
      </trkpt>
      <trkpt lat="45.84173" lon="4.72056">
        <ele>269.21531</ele>
        <time>2022-10-02T12:53:22.000Z</time>
      </trkpt>
      <trkpt lat="45.8417" lon="4.72059">
        <ele>269.31205</ele>
        <time>2022-10-02T12:53:23.000Z</time>
      </trkpt>
      <trkpt lat="45.84167" lon="4.72061">
        <ele>269.41611</ele>
        <time>2022-10-02T12:53:24.000Z</time>
      </trkpt>
      <trkpt lat="45.84164" lon="4.72064">
        <ele>269.52173</ele>
        <time>2022-10-02T12:53:25.000Z</time>
      </trkpt>
      <trkpt lat="45.84161" lon="4.72066">
        <ele>269.65978</ele>
        <time>2022-10-02T12:53:26.000Z</time>
      </trkpt>
      <trkpt lat="45.84158" lon="4.72069">
        <ele>269.82862</ele>
        <time>2022-10-02T12:53:27.000Z</time>
      </trkpt>
      <trkpt lat="45.84155" lon="4.72071">
        <ele>270.00934</ele>
        <time>2022-10-02T12:53:28.000Z</time>
      </trkpt>
      <trkpt lat="45.84153" lon="4.72074">
        <ele>270.21373</ele>
        <time>2022-10-02T12:53:29.000Z</time>
      </trkpt>
      <trkpt lat="45.8415" lon="4.72077">
        <ele>270.41361</ele>
        <time>2022-10-02T12:53:30.000Z</time>
      </trkpt>
      <trkpt lat="45.84148" lon="4.72079">
        <ele>270.59463</ele>
        <time>2022-10-02T12:53:31.000Z</time>
      </trkpt>
      <trkpt lat="45.84145" lon="4.72082">
        <ele>270.73806</ele>
        <time>2022-10-02T12:53:32.000Z</time>
      </trkpt>
      <trkpt lat="45.84143" lon="4.72084">
        <ele>270.86132</ele>
        <time>2022-10-02T12:53:33.000Z</time>
      </trkpt>
      <trkpt lat="45.84141" lon="4.72086">
        <ele>270.98262</ele>
        <time>2022-10-02T12:53:34.000Z</time>
      </trkpt>
      <trkpt lat="45.84138" lon="4.72089">
        <ele>271.07612</ele>
        <time>2022-10-02T12:53:35.000Z</time>
      </trkpt>
      <trkpt lat="45.84136" lon="4.72091">
        <ele>271.16881</ele>
        <time>2022-10-02T12:53:36.000Z</time>
      </trkpt>
      <trkpt lat="45.84134" lon="4.72093">
        <ele>271.25684</ele>
        <time>2022-10-02T12:53:37.000Z</time>
      </trkpt>
      <trkpt lat="45.84131" lon="4.72096">
        <ele>271.33111</ele>
        <time>2022-10-02T12:53:38.000Z</time>
      </trkpt>
      <trkpt lat="45.84129" lon="4.72099">
        <ele>271.41413</ele>
        <time>2022-10-02T12:53:39.000Z</time>
      </trkpt>
      <trkpt lat="45.84126" lon="4.72101">
        <ele>271.48655</ele>
        <time>2022-10-02T12:53:40.000Z</time>
      </trkpt>
      <trkpt lat="45.84124" lon="4.72104">
        <ele>271.54809</ele>
        <time>2022-10-02T12:53:41.000Z</time>
      </trkpt>
      <trkpt lat="45.84121" lon="4.72106">
        <ele>271.61882</ele>
        <time>2022-10-02T12:53:42.000Z</time>
      </trkpt>
      <trkpt lat="45.84119" lon="4.72109">
        <ele>271.66775</ele>
        <time>2022-10-02T12:53:43.000Z</time>
      </trkpt>
      <trkpt lat="45.84116" lon="4.7211">
        <ele>271.69407</ele>
        <time>2022-10-02T12:53:44.000Z</time>
      </trkpt>
      <trkpt lat="45.84113" lon="4.72112">
        <ele>271.70161</ele>
        <time>2022-10-02T12:53:45.000Z</time>
      </trkpt>
      <trkpt lat="45.8411" lon="4.72114">
        <ele>271.7288</ele>
        <time>2022-10-02T12:53:46.000Z</time>
      </trkpt>
      <trkpt lat="45.84107" lon="4.72116">
        <ele>271.71789</ele>
        <time>2022-10-02T12:53:47.000Z</time>
      </trkpt>
      <trkpt lat="45.84104" lon="4.72118">
        <ele>271.6716</ele>
        <time>2022-10-02T12:53:48.000Z</time>
      </trkpt>
      <trkpt lat="45.841" lon="4.7212">
        <ele>271.596</ele>
        <time>2022-10-02T12:53:49.000Z</time>
      </trkpt>
      <trkpt lat="45.84096" lon="4.72122">
        <ele>271.4874</ele>
        <time>2022-10-02T12:53:50.000Z</time>
      </trkpt>
      <trkpt lat="45.84093" lon="4.72124">
        <ele>271.36759</ele>
        <time>2022-10-02T12:53:51.000Z</time>
      </trkpt>
      <trkpt lat="45.84089" lon="4.72126">
        <ele>271.22453</ele>
        <time>2022-10-02T12:53:52.000Z</time>
      </trkpt>
      <trkpt lat="45.84085" lon="4.72128">
        <ele>271.0953</ele>
        <time>2022-10-02T12:53:53.000Z</time>
      </trkpt>
      <trkpt lat="45.84082" lon="4.7213">
        <ele>271.01752</ele>
        <time>2022-10-02T12:53:54.000Z</time>
      </trkpt>
      <trkpt lat="45.84078" lon="4.72132">
        <ele>270.96744</ele>
        <time>2022-10-02T12:53:55.000Z</time>
      </trkpt>
      <trkpt lat="45.84074" lon="4.72135">
        <ele>270.93552</ele>
        <time>2022-10-02T12:53:56.000Z</time>
      </trkpt>
      <trkpt lat="45.8407" lon="4.72137">
        <ele>270.88636</ele>
        <time>2022-10-02T12:53:57.000Z</time>
      </trkpt>
      <trkpt lat="45.84066" lon="4.7214">
        <ele>270.84774</ele>
        <time>2022-10-02T12:53:58.000Z</time>
      </trkpt>
      <trkpt lat="45.84061" lon="4.72142">
        <ele>270.83308</ele>
        <time>2022-10-02T12:53:59.000Z</time>
      </trkpt>
      <trkpt lat="45.84057" lon="4.72145">
        <ele>270.81287</ele>
        <time>2022-10-02T12:54:00.000Z</time>
      </trkpt>
      <trkpt lat="45.84052" lon="4.72147">
        <ele>270.72333</ele>
        <time>2022-10-02T12:54:01.000Z</time>
      </trkpt>
      <trkpt lat="45.84048" lon="4.72149">
        <ele>270.70184</ele>
        <time>2022-10-02T12:54:02.000Z</time>
      </trkpt>
      <trkpt lat="45.84044" lon="4.72152">
        <ele>270.65303</ele>
        <time>2022-10-02T12:54:03.000Z</time>
      </trkpt>
      <trkpt lat="45.84039" lon="4.72154">
        <ele>270.52921</ele>
        <time>2022-10-02T12:54:04.000Z</time>
      </trkpt>
      <trkpt lat="45.84035" lon="4.72155">
        <ele>270.43282</ele>
        <time>2022-10-02T12:54:05.000Z</time>
      </trkpt>
      <trkpt lat="45.84031" lon="4.72157">
        <ele>270.38564</ele>
        <time>2022-10-02T12:54:06.000Z</time>
      </trkpt>
      <trkpt lat="45.84026" lon="4.72158">
        <ele>270.33551</ele>
        <time>2022-10-02T12:54:07.000Z</time>
      </trkpt>
      <trkpt lat="45.84021" lon="4.72159">
        <ele>270.3252</ele>
        <time>2022-10-02T12:54:08.000Z</time>
      </trkpt>
      <trkpt lat="45.84017" lon="4.72159">
        <ele>270.2811</ele>
        <time>2022-10-02T12:54:09.000Z</time>
      </trkpt>
      <trkpt lat="45.84013" lon="4.72159">
        <ele>270.24439</ele>
        <time>2022-10-02T12:54:10.000Z</time>
      </trkpt>
      <trkpt lat="45.8401" lon="4.72161">
        <ele>270.2083</ele>
        <time>2022-10-02T12:54:11.000Z</time>
      </trkpt>
      <trkpt lat="45.84007" lon="4.72161">
        <ele>270.16941</ele>
        <time>2022-10-02T12:54:12.000Z</time>
      </trkpt>
      <trkpt lat="45.84005" lon="4.72161">
        <ele>270.12349</ele>
        <time>2022-10-02T12:54:13.000Z</time>
      </trkpt>
      <trkpt lat="45.84001" lon="4.72158">
        <ele>269.99264</ele>
        <time>2022-10-02T12:54:14.000Z</time>
      </trkpt>
      <trkpt lat="45.83998" lon="4.7216">
        <ele>269.95931</ele>
        <time>2022-10-02T12:54:15.000Z</time>
      </trkpt>
      <trkpt lat="45.83995" lon="4.72162">
        <ele>269.99436</ele>
        <time>2022-10-02T12:54:16.000Z</time>
      </trkpt>
      <trkpt lat="45.83992" lon="4.72162">
        <ele>269.95539</ele>
        <time>2022-10-02T12:54:17.000Z</time>
      </trkpt>
      <trkpt lat="45.83988" lon="4.72163">
        <ele>269.92809</ele>
        <time>2022-10-02T12:54:18.000Z</time>
      </trkpt>
      <trkpt lat="45.83985" lon="4.72162">
        <ele>269.86619</ele>
        <time>2022-10-02T12:54:19.000Z</time>
      </trkpt>
      <trkpt lat="45.83982" lon="4.72162">
        <ele>269.82533</ele>
        <time>2022-10-02T12:54:20.000Z</time>
      </trkpt>
      <trkpt lat="45.83978" lon="4.72162">
        <ele>269.78671</ele>
        <time>2022-10-02T12:54:21.000Z</time>
      </trkpt>
      <trkpt lat="45.83974" lon="4.72162">
        <ele>269.74235</ele>
        <time>2022-10-02T12:54:22.000Z</time>
      </trkpt>
      <trkpt lat="45.8397" lon="4.72161">
        <ele>269.6987</ele>
        <time>2022-10-02T12:54:23.000Z</time>
      </trkpt>
      <trkpt lat="45.83967" lon="4.7216">
        <ele>269.66733</ele>
        <time>2022-10-02T12:54:24.000Z</time>
      </trkpt>
      <trkpt lat="45.83963" lon="4.72159">
        <ele>269.64447</ele>
        <time>2022-10-02T12:54:25.000Z</time>
      </trkpt>
      <trkpt lat="45.83959" lon="4.72158">
        <ele>269.63918</ele>
        <time>2022-10-02T12:54:26.000Z</time>
      </trkpt>
      <trkpt lat="45.83956" lon="4.72157">
        <ele>269.63916</ele>
        <time>2022-10-02T12:54:27.000Z</time>
      </trkpt>
      <trkpt lat="45.83953" lon="4.72156">
        <ele>269.64336</ele>
        <time>2022-10-02T12:54:28.000Z</time>
      </trkpt>
      <trkpt lat="45.83949" lon="4.72155">
        <ele>269.64804</ele>
        <time>2022-10-02T12:54:29.000Z</time>
      </trkpt>
      <trkpt lat="45.83947" lon="4.72154">
        <ele>269.65331</ele>
        <time>2022-10-02T12:54:30.000Z</time>
      </trkpt>
      <trkpt lat="45.83944" lon="4.72153">
        <ele>269.65822</ele>
        <time>2022-10-02T12:54:31.000Z</time>
      </trkpt>
      <trkpt lat="45.83941" lon="4.72152">
        <ele>269.66104</ele>
        <time>2022-10-02T12:54:32.000Z</time>
      </trkpt>
      <trkpt lat="45.83938" lon="4.72151">
        <ele>269.66346</ele>
        <time>2022-10-02T12:54:33.000Z</time>
      </trkpt>
      <trkpt lat="45.83935" lon="4.72151">
        <ele>269.66708</ele>
        <time>2022-10-02T12:54:34.000Z</time>
      </trkpt>
      <trkpt lat="45.83932" lon="4.72151">
        <ele>269.67092</ele>
        <time>2022-10-02T12:54:35.000Z</time>
      </trkpt>
      <trkpt lat="45.83934" lon="4.7215">
        <ele>269.67074</ele>
        <time>2022-10-02T12:55:07.000Z</time>
      </trkpt>
      <trkpt lat="45.83933" lon="4.72152">
        <ele>269.66162</ele>
        <time>2022-10-02T12:58:00.000Z</time>
      </trkpt>
      <trkpt lat="45.83931" lon="4.72154">
        <ele>269.6468</ele>
        <time>2022-10-02T12:58:01.000Z</time>
      </trkpt>
      <trkpt lat="45.8393" lon="4.72157">
        <ele>269.62257</ele>
        <time>2022-10-02T12:58:02.000Z</time>
      </trkpt>
      <trkpt lat="45.8393" lon="4.72157">
        <ele>269.62257</ele>
        <time>2022-10-02T12:58:02.000Z</time>
      </trkpt>
      <trkpt lat="45.8393" lon="4.72161">
        <ele>269.5883</ele>
        <time>2022-10-02T12:58:03.000Z</time>
      </trkpt>
      <trkpt lat="45.83931" lon="4.72164">
        <ele>269.56296</ele>
        <time>2022-10-02T12:58:04.000Z</time>
      </trkpt>
      <trkpt lat="45.83933" lon="4.72167">
        <ele>269.55721</ele>
        <time>2022-10-02T12:58:05.000Z</time>
      </trkpt>
      <trkpt lat="45.83935" lon="4.72171">
        <ele>269.56201</ele>
        <time>2022-10-02T12:58:06.000Z</time>
      </trkpt>
      <trkpt lat="45.83937" lon="4.72174">
        <ele>269.56759</ele>
        <time>2022-10-02T12:58:07.000Z</time>
      </trkpt>
      <trkpt lat="45.83939" lon="4.72177">
        <ele>269.57176</ele>
        <time>2022-10-02T12:58:08.000Z</time>
      </trkpt>
      <trkpt lat="45.83941" lon="4.7218">
        <ele>269.56209</ele>
        <time>2022-10-02T12:58:09.000Z</time>
      </trkpt>
      <trkpt lat="45.83942" lon="4.72184">
        <ele>269.53752</ele>
        <time>2022-10-02T12:58:10.000Z</time>
      </trkpt>
      <trkpt lat="45.83943" lon="4.72189">
        <ele>269.4974</ele>
        <time>2022-10-02T12:58:11.000Z</time>
      </trkpt>
      <trkpt lat="45.83944" lon="4.72195">
        <ele>269.4558</ele>
        <time>2022-10-02T12:58:12.000Z</time>
      </trkpt>
      <trkpt lat="45.83946" lon="4.722">
        <ele>269.4424</ele>
        <time>2022-10-02T12:58:13.000Z</time>
      </trkpt>
      <trkpt lat="45.83949" lon="4.72206">
        <ele>269.4596</ele>
        <time>2022-10-02T12:58:14.000Z</time>
      </trkpt>
      <trkpt lat="45.83952" lon="4.72211">
        <ele>269.4827</ele>
        <time>2022-10-02T12:58:15.000Z</time>
      </trkpt>
      <trkpt lat="45.83955" lon="4.72216">
        <ele>269.50429</ele>
        <time>2022-10-02T12:58:16.000Z</time>
      </trkpt>
      <trkpt lat="45.83958" lon="4.72221">
        <ele>269.50571</ele>
        <time>2022-10-02T12:58:17.000Z</time>
      </trkpt>
      <trkpt lat="45.83961" lon="4.72226">
        <ele>269.49821</ele>
        <time>2022-10-02T12:58:18.000Z</time>
      </trkpt>
      <trkpt lat="45.83964" lon="4.72231">
        <ele>269.49037</ele>
        <time>2022-10-02T12:58:19.000Z</time>
      </trkpt>
      <trkpt lat="45.83968" lon="4.72237">
        <ele>269.49492</ele>
        <time>2022-10-02T12:58:20.000Z</time>
      </trkpt>
      <trkpt lat="45.83971" lon="4.72242">
        <ele>269.49952</ele>
        <time>2022-10-02T12:58:21.000Z</time>
      </trkpt>
      <trkpt lat="45.83974" lon="4.72248">
        <ele>269.46948</ele>
        <time>2022-10-02T12:58:22.000Z</time>
      </trkpt>
      <trkpt lat="45.83977" lon="4.72253">
        <ele>269.40189</ele>
        <time>2022-10-02T12:58:23.000Z</time>
      </trkpt>
      <trkpt lat="45.83982" lon="4.72258">
        <ele>269.32427</ele>
        <time>2022-10-02T12:58:24.000Z</time>
      </trkpt>
      <trkpt lat="45.83987" lon="4.72263">
        <ele>269.25219</ele>
        <time>2022-10-02T12:58:25.000Z</time>
      </trkpt>
      <trkpt lat="45.83989" lon="4.7227">
        <ele>269.16301</ele>
        <time>2022-10-02T12:58:26.000Z</time>
      </trkpt>
      <trkpt lat="45.83993" lon="4.72275">
        <ele>269.15109</ele>
        <time>2022-10-02T12:58:27.000Z</time>
      </trkpt>
      <trkpt lat="45.83995" lon="4.7228">
        <ele>269.12545</ele>
        <time>2022-10-02T12:58:28.000Z</time>
      </trkpt>
      <trkpt lat="45.83999" lon="4.72287">
        <ele>269.01227</ele>
        <time>2022-10-02T12:58:29.000Z</time>
      </trkpt>
      <trkpt lat="45.84002" lon="4.72293">
        <ele>268.80143</ele>
        <time>2022-10-02T12:58:30.000Z</time>
      </trkpt>
      <trkpt lat="45.84005" lon="4.72298">
        <ele>268.53021</ele>
        <time>2022-10-02T12:58:31.000Z</time>
      </trkpt>
      <trkpt lat="45.84008" lon="4.72305">
        <ele>268.12972</ele>
        <time>2022-10-02T12:58:32.000Z</time>
      </trkpt>
      <trkpt lat="45.84005" lon="4.72311">
        <ele>267.92471</ele>
        <time>2022-10-02T12:58:33.000Z</time>
      </trkpt>
      <trkpt lat="45.84004" lon="4.72316">
        <ele>267.6673</ele>
        <time>2022-10-02T12:58:34.000Z</time>
      </trkpt>
      <trkpt lat="45.84" lon="4.72319">
        <ele>267.69866</ele>
        <time>2022-10-02T12:58:35.000Z</time>
      </trkpt>
      <trkpt lat="45.83997" lon="4.72323">
        <ele>267.55215</ele>
        <time>2022-10-02T12:58:36.000Z</time>
      </trkpt>
      <trkpt lat="45.83993" lon="4.72328">
        <ele>267.33413</ele>
        <time>2022-10-02T12:58:37.000Z</time>
      </trkpt>
      <trkpt lat="45.8399" lon="4.72334">
        <ele>267.09357</ele>
        <time>2022-10-02T12:58:38.000Z</time>
      </trkpt>
      <trkpt lat="45.83988" lon="4.72338">
        <ele>266.8611</ele>
        <time>2022-10-02T12:58:39.000Z</time>
      </trkpt>
      <trkpt lat="45.83983" lon="4.72342">
        <ele>266.61999</ele>
        <time>2022-10-02T12:58:40.000Z</time>
      </trkpt>
      <trkpt lat="45.8398" lon="4.72343">
        <ele>266.49311</ele>
        <time>2022-10-02T12:58:41.000Z</time>
      </trkpt>
      <trkpt lat="45.83974" lon="4.72346">
        <ele>266.08428</ele>
        <time>2022-10-02T12:58:42.000Z</time>
      </trkpt>
      <trkpt lat="45.83968" lon="4.7235">
        <ele>265.49712</ele>
        <time>2022-10-02T12:58:43.000Z</time>
      </trkpt>
      <trkpt lat="45.83964" lon="4.72353">
        <ele>265.00229</ele>
        <time>2022-10-02T12:58:44.000Z</time>
      </trkpt>
      <trkpt lat="45.8396" lon="4.72359">
        <ele>264.37922</ele>
        <time>2022-10-02T12:58:45.000Z</time>
      </trkpt>
      <trkpt lat="45.83954" lon="4.72363">
        <ele>264.02471</ele>
        <time>2022-10-02T12:58:46.000Z</time>
      </trkpt>
      <trkpt lat="45.83948" lon="4.72369">
        <ele>263.50525</ele>
        <time>2022-10-02T12:58:47.000Z</time>
      </trkpt>
      <trkpt lat="45.83942" lon="4.72371">
        <ele>263.19667</ele>
        <time>2022-10-02T12:58:48.000Z</time>
      </trkpt>
      <trkpt lat="45.83936" lon="4.72374">
        <ele>262.67146</ele>
        <time>2022-10-02T12:58:49.000Z</time>
      </trkpt>
      <trkpt lat="45.83929" lon="4.72378">
        <ele>261.85986</ele>
        <time>2022-10-02T12:58:50.000Z</time>
      </trkpt>
      <trkpt lat="45.83923" lon="4.72381">
        <ele>261.29832</ele>
        <time>2022-10-02T12:58:51.000Z</time>
      </trkpt>
      <trkpt lat="45.83915" lon="4.72385">
        <ele>260.54778</ele>
        <time>2022-10-02T12:58:52.000Z</time>
      </trkpt>
      <trkpt lat="45.83906" lon="4.7239">
        <ele>259.76993</ele>
        <time>2022-10-02T12:58:53.000Z</time>
      </trkpt>
      <trkpt lat="45.83899" lon="4.72392">
        <ele>259.3958</ele>
        <time>2022-10-02T12:58:54.000Z</time>
      </trkpt>
      <trkpt lat="45.83891" lon="4.72394">
        <ele>258.84409</ele>
        <time>2022-10-02T12:58:55.000Z</time>
      </trkpt>
      <trkpt lat="45.83884" lon="4.724">
        <ele>257.92784</ele>
        <time>2022-10-02T12:58:56.000Z</time>
      </trkpt>
      <trkpt lat="45.83875" lon="4.72409">
        <ele>256.86574</ele>
        <time>2022-10-02T12:58:57.000Z</time>
      </trkpt>
      <trkpt lat="45.8387" lon="4.72411">
        <ele>256.58947</ele>
        <time>2022-10-02T12:58:58.000Z</time>
      </trkpt>
      <trkpt lat="45.83863" lon="4.72417">
        <ele>256.23083</ele>
        <time>2022-10-02T12:58:59.000Z</time>
      </trkpt>
      <trkpt lat="45.83857" lon="4.7242">
        <ele>256.12826</ele>
        <time>2022-10-02T12:59:00.000Z</time>
      </trkpt>
      <trkpt lat="45.83855" lon="4.72426">
        <ele>255.85735</ele>
        <time>2022-10-02T12:59:01.000Z</time>
      </trkpt>
      <trkpt lat="45.83851" lon="4.72435">
        <ele>255.58764</ele>
        <time>2022-10-02T12:59:02.000Z</time>
      </trkpt>
      <trkpt lat="45.83847" lon="4.72441">
        <ele>255.50103</ele>
        <time>2022-10-02T12:59:03.000Z</time>
      </trkpt>
      <trkpt lat="45.83843" lon="4.72448">
        <ele>255.45928</ele>
        <time>2022-10-02T12:59:04.000Z</time>
      </trkpt>
      <trkpt lat="45.83839" lon="4.72456">
        <ele>255.34025</ele>
        <time>2022-10-02T12:59:05.000Z</time>
      </trkpt>
      <trkpt lat="45.83837" lon="4.72465">
        <ele>255.05549</ele>
        <time>2022-10-02T12:59:06.000Z</time>
      </trkpt>
      <trkpt lat="45.83837" lon="4.72472">
        <ele>254.82433</ele>
        <time>2022-10-02T12:59:07.000Z</time>
      </trkpt>
      <trkpt lat="45.83839" lon="4.72482">
        <ele>254.39992</ele>
        <time>2022-10-02T12:59:08.000Z</time>
      </trkpt>
      <trkpt lat="45.83838" lon="4.72487">
        <ele>254.24233</ele>
        <time>2022-10-02T12:59:09.000Z</time>
      </trkpt>
      <trkpt lat="45.83841" lon="4.72497">
        <ele>253.87323</ele>
        <time>2022-10-02T12:59:10.000Z</time>
      </trkpt>
      <trkpt lat="45.83841" lon="4.72509">
        <ele>253.49699</ele>
        <time>2022-10-02T12:59:11.000Z</time>
      </trkpt>
      <trkpt lat="45.83841" lon="4.72512">
        <ele>253.41201</ele>
        <time>2022-10-02T12:59:12.000Z</time>
      </trkpt>
      <trkpt lat="45.83837" lon="4.72517">
        <ele>253.22443</ele>
        <time>2022-10-02T12:59:13.000Z</time>
      </trkpt>
      <trkpt lat="45.83836" lon="4.72523">
        <ele>253.04454</ele>
        <time>2022-10-02T12:59:14.000Z</time>
      </trkpt>
      <trkpt lat="45.83835" lon="4.72527">
        <ele>252.95731</ele>
        <time>2022-10-02T12:59:15.000Z</time>
      </trkpt>
      <trkpt lat="45.83833" lon="4.72536">
        <ele>252.81494</ele>
        <time>2022-10-02T12:59:16.000Z</time>
      </trkpt>
      <trkpt lat="45.83832" lon="4.72543">
        <ele>252.73333</ele>
        <time>2022-10-02T12:59:17.000Z</time>
      </trkpt>
      <trkpt lat="45.83831" lon="4.72552">
        <ele>252.64316</ele>
        <time>2022-10-02T12:59:18.000Z</time>
      </trkpt>
      <trkpt lat="45.83831" lon="4.72559">
        <ele>252.54942</ele>
        <time>2022-10-02T12:59:20.000Z</time>
      </trkpt>
      <trkpt lat="45.83828" lon="4.72563">
        <ele>252.54041</ele>
        <time>2022-10-02T12:59:21.000Z</time>
      </trkpt>
      <trkpt lat="45.83828" lon="4.72569">
        <ele>252.4855</ele>
        <time>2022-10-02T12:59:22.000Z</time>
      </trkpt>
      <trkpt lat="45.83827" lon="4.72574">
        <ele>252.46563</ele>
        <time>2022-10-02T12:59:23.000Z</time>
      </trkpt>
      <trkpt lat="45.83825" lon="4.7258">
        <ele>252.48359</ele>
        <time>2022-10-02T12:59:24.000Z</time>
      </trkpt>
      <trkpt lat="45.83823" lon="4.72585">
        <ele>252.54013</ele>
        <time>2022-10-02T12:59:25.000Z</time>
      </trkpt>
      <trkpt lat="45.83821" lon="4.72589">
        <ele>252.64955</ele>
        <time>2022-10-02T12:59:26.000Z</time>
      </trkpt>
      <trkpt lat="45.83817" lon="4.72593">
        <ele>252.84317</ele>
        <time>2022-10-02T12:59:27.000Z</time>
      </trkpt>
      <trkpt lat="45.83813" lon="4.72594">
        <ele>253.01137</ele>
        <time>2022-10-02T12:59:28.000Z</time>
      </trkpt>
      <trkpt lat="45.83809" lon="4.72596">
        <ele>253.19903</ele>
        <time>2022-10-02T12:59:29.000Z</time>
      </trkpt>
      <trkpt lat="45.83806" lon="4.72596">
        <ele>253.36356</ele>
        <time>2022-10-02T12:59:30.000Z</time>
      </trkpt>
      <trkpt lat="45.83802" lon="4.72598">
        <ele>253.52916</ele>
        <time>2022-10-02T12:59:31.000Z</time>
      </trkpt>
      <trkpt lat="45.83798" lon="4.72599">
        <ele>253.68676</ele>
        <time>2022-10-02T12:59:32.000Z</time>
      </trkpt>
      <trkpt lat="45.83795" lon="4.726">
        <ele>253.8338</ele>
        <time>2022-10-02T12:59:33.000Z</time>
      </trkpt>
      <trkpt lat="45.83791" lon="4.72601">
        <ele>253.98839</ele>
        <time>2022-10-02T12:59:34.000Z</time>
      </trkpt>
      <trkpt lat="45.83788" lon="4.72602">
        <ele>254.13541</ele>
        <time>2022-10-02T12:59:35.000Z</time>
      </trkpt>
      <trkpt lat="45.83785" lon="4.72604">
        <ele>254.29014</ele>
        <time>2022-10-02T12:59:36.000Z</time>
      </trkpt>
      <trkpt lat="45.83781" lon="4.72605">
        <ele>254.49561</ele>
        <time>2022-10-02T12:59:37.000Z</time>
      </trkpt>
      <trkpt lat="45.83777" lon="4.72607">
        <ele>254.73494</ele>
        <time>2022-10-02T12:59:38.000Z</time>
      </trkpt>
      <trkpt lat="45.83773" lon="4.72609">
        <ele>254.99604</ele>
        <time>2022-10-02T12:59:39.000Z</time>
      </trkpt>
      <trkpt lat="45.83769" lon="4.72611">
        <ele>255.2286</ele>
        <time>2022-10-02T12:59:40.000Z</time>
      </trkpt>
      <trkpt lat="45.83764" lon="4.72613">
        <ele>255.47335</ele>
        <time>2022-10-02T12:59:41.000Z</time>
      </trkpt>
      <trkpt lat="45.8376" lon="4.72615">
        <ele>255.64543</ele>
        <time>2022-10-02T12:59:42.000Z</time>
      </trkpt>
      <trkpt lat="45.83758" lon="4.72616">
        <ele>255.78651</ele>
        <time>2022-10-02T12:59:43.000Z</time>
      </trkpt>
      <trkpt lat="45.83755" lon="4.72617">
        <ele>255.93452</ele>
        <time>2022-10-02T12:59:44.000Z</time>
      </trkpt>
      <trkpt lat="45.83752" lon="4.72618">
        <ele>256.11299</ele>
        <time>2022-10-02T12:59:45.000Z</time>
      </trkpt>
      <trkpt lat="45.83749" lon="4.7262">
        <ele>256.27982</ele>
        <time>2022-10-02T12:59:46.000Z</time>
      </trkpt>
      <trkpt lat="45.83746" lon="4.72621">
        <ele>256.45918</ele>
        <time>2022-10-02T12:59:47.000Z</time>
      </trkpt>
      <trkpt lat="45.83742" lon="4.72623">
        <ele>256.67198</ele>
        <time>2022-10-02T12:59:48.000Z</time>
      </trkpt>
      <trkpt lat="45.83738" lon="4.72624">
        <ele>256.89432</ele>
        <time>2022-10-02T12:59:49.000Z</time>
      </trkpt>
      <trkpt lat="45.83735" lon="4.72625">
        <ele>257.09845</ele>
        <time>2022-10-02T12:59:50.000Z</time>
      </trkpt>
      <trkpt lat="45.83731" lon="4.72626">
        <ele>257.30806</ele>
        <time>2022-10-02T12:59:51.000Z</time>
      </trkpt>
      <trkpt lat="45.83728" lon="4.72628">
        <ele>257.55126</ele>
        <time>2022-10-02T12:59:52.000Z</time>
      </trkpt>
      <trkpt lat="45.83724" lon="4.7263">
        <ele>257.79319</ele>
        <time>2022-10-02T12:59:53.000Z</time>
      </trkpt>
      <trkpt lat="45.8372" lon="4.72632">
        <ele>258.02232</ele>
        <time>2022-10-02T12:59:54.000Z</time>
      </trkpt>
      <trkpt lat="45.83716" lon="4.72634">
        <ele>258.24184</ele>
        <time>2022-10-02T12:59:55.000Z</time>
      </trkpt>
      <trkpt lat="45.83712" lon="4.72636">
        <ele>258.48883</ele>
        <time>2022-10-02T12:59:56.000Z</time>
      </trkpt>
      <trkpt lat="45.83708" lon="4.72638">
        <ele>258.73081</ele>
        <time>2022-10-02T12:59:57.000Z</time>
      </trkpt>
      <trkpt lat="45.83705" lon="4.7264">
        <ele>258.98506</ele>
        <time>2022-10-02T12:59:58.000Z</time>
      </trkpt>
      <trkpt lat="45.83702" lon="4.72642">
        <ele>259.23913</ele>
        <time>2022-10-02T12:59:59.000Z</time>
      </trkpt>
      <trkpt lat="45.83698" lon="4.72643">
        <ele>259.51232</ele>
        <time>2022-10-02T13:00:00.000Z</time>
      </trkpt>
      <trkpt lat="45.83695" lon="4.72645">
        <ele>259.77066</ele>
        <time>2022-10-02T13:00:01.000Z</time>
      </trkpt>
      <trkpt lat="45.83692" lon="4.72646">
        <ele>259.99444</ele>
        <time>2022-10-02T13:00:02.000Z</time>
      </trkpt>
      <trkpt lat="45.83689" lon="4.72647">
        <ele>260.20123</ele>
        <time>2022-10-02T13:00:03.000Z</time>
      </trkpt>
      <trkpt lat="45.83686" lon="4.72647">
        <ele>260.39842</ele>
        <time>2022-10-02T13:00:04.000Z</time>
      </trkpt>
      <trkpt lat="45.83683" lon="4.72648">
        <ele>260.57768</ele>
        <time>2022-10-02T13:00:05.000Z</time>
      </trkpt>
      <trkpt lat="45.8368" lon="4.72649">
        <ele>260.75097</ele>
        <time>2022-10-02T13:00:06.000Z</time>
      </trkpt>
      <trkpt lat="45.83677" lon="4.7265">
        <ele>260.90696</ele>
        <time>2022-10-02T13:00:07.000Z</time>
      </trkpt>
      <trkpt lat="45.83675" lon="4.72651">
        <ele>261.0434</ele>
        <time>2022-10-02T13:00:08.000Z</time>
      </trkpt>
      <trkpt lat="45.83672" lon="4.72651">
        <ele>261.15479</ele>
        <time>2022-10-02T13:00:09.000Z</time>
      </trkpt>
      <trkpt lat="45.8367" lon="4.72651">
        <ele>261.24962</ele>
        <time>2022-10-02T13:00:10.000Z</time>
      </trkpt>
      <trkpt lat="45.83668" lon="4.72651">
        <ele>261.4015</ele>
        <time>2022-10-02T13:00:11.000Z</time>
      </trkpt>
      <trkpt lat="45.83664" lon="4.72652">
        <ele>261.60809</ele>
        <time>2022-10-02T13:00:12.000Z</time>
      </trkpt>
      <trkpt lat="45.83661" lon="4.72653">
        <ele>261.78479</ele>
        <time>2022-10-02T13:00:13.000Z</time>
      </trkpt>
      <trkpt lat="45.83659" lon="4.72653">
        <ele>261.94808</ele>
        <time>2022-10-02T13:00:14.000Z</time>
      </trkpt>
      <trkpt lat="45.83656" lon="4.72654">
        <ele>262.12171</ele>
        <time>2022-10-02T13:00:15.000Z</time>
      </trkpt>
      <trkpt lat="45.83653" lon="4.72655">
        <ele>262.31942</ele>
        <time>2022-10-02T13:00:16.000Z</time>
      </trkpt>
      <trkpt lat="45.8365" lon="4.72656">
        <ele>262.50319</ele>
        <time>2022-10-02T13:00:17.000Z</time>
      </trkpt>
      <trkpt lat="45.83648" lon="4.72657">
        <ele>262.66189</ele>
        <time>2022-10-02T13:00:18.000Z</time>
      </trkpt>
      <trkpt lat="45.83646" lon="4.72657">
        <ele>262.82442</ele>
        <time>2022-10-02T13:00:19.000Z</time>
      </trkpt>
      <trkpt lat="45.83644" lon="4.72658">
        <ele>263.0202</ele>
        <time>2022-10-02T13:00:20.000Z</time>
      </trkpt>
      <trkpt lat="45.83641" lon="4.72659">
        <ele>263.23188</ele>
        <time>2022-10-02T13:00:21.000Z</time>
      </trkpt>
      <trkpt lat="45.83639" lon="4.7266">
        <ele>263.4611</ele>
        <time>2022-10-02T13:00:22.000Z</time>
      </trkpt>
      <trkpt lat="45.83637" lon="4.72662">
        <ele>263.71294</ele>
        <time>2022-10-02T13:00:23.000Z</time>
      </trkpt>
      <trkpt lat="45.83634" lon="4.72665">
        <ele>263.99601</ele>
        <time>2022-10-02T13:00:24.000Z</time>
      </trkpt>
      <trkpt lat="45.83631" lon="4.72668">
        <ele>264.25774</ele>
        <time>2022-10-02T13:00:25.000Z</time>
      </trkpt>
      <trkpt lat="45.83629" lon="4.72671">
        <ele>264.45384</ele>
        <time>2022-10-02T13:00:26.000Z</time>
      </trkpt>
      <trkpt lat="45.83627" lon="4.72674">
        <ele>264.63567</ele>
        <time>2022-10-02T13:00:27.000Z</time>
      </trkpt>
      <trkpt lat="45.83625" lon="4.72677">
        <ele>264.80087</ele>
        <time>2022-10-02T13:00:28.000Z</time>
      </trkpt>
      <trkpt lat="45.83623" lon="4.72679">
        <ele>264.96673</ele>
        <time>2022-10-02T13:00:29.000Z</time>
      </trkpt>
      <trkpt lat="45.83621" lon="4.72681">
        <ele>265.11532</ele>
        <time>2022-10-02T13:00:30.000Z</time>
      </trkpt>
      <trkpt lat="45.83618" lon="4.72682">
        <ele>265.26984</ele>
        <time>2022-10-02T13:00:31.000Z</time>
      </trkpt>
      <trkpt lat="45.83616" lon="4.72683">
        <ele>265.43418</ele>
        <time>2022-10-02T13:00:32.000Z</time>
      </trkpt>
      <trkpt lat="45.83614" lon="4.72684">
        <ele>265.61517</ele>
        <time>2022-10-02T13:00:33.000Z</time>
      </trkpt>
      <trkpt lat="45.83612" lon="4.72684">
        <ele>265.83565</ele>
        <time>2022-10-02T13:00:34.000Z</time>
      </trkpt>
      <trkpt lat="45.8361" lon="4.72684">
        <ele>266.0257</ele>
        <time>2022-10-02T13:00:35.000Z</time>
      </trkpt>
      <trkpt lat="45.83608" lon="4.72684">
        <ele>266.21039</ele>
        <time>2022-10-02T13:00:36.000Z</time>
      </trkpt>
      <trkpt lat="45.83605" lon="4.72685">
        <ele>266.39094</ele>
        <time>2022-10-02T13:00:37.000Z</time>
      </trkpt>
      <trkpt lat="45.83603" lon="4.72687">
        <ele>266.57063</ele>
        <time>2022-10-02T13:00:38.000Z</time>
      </trkpt>
      <trkpt lat="45.83599" lon="4.7269">
        <ele>266.86648</ele>
        <time>2022-10-02T13:00:39.000Z</time>
      </trkpt>
      <trkpt lat="45.83596" lon="4.72692">
        <ele>267.11532</ele>
        <time>2022-10-02T13:00:40.000Z</time>
      </trkpt>
      <trkpt lat="45.83593" lon="4.72693">
        <ele>267.34681</ele>
        <time>2022-10-02T13:00:41.000Z</time>
      </trkpt>
      <trkpt lat="45.83591" lon="4.72695">
        <ele>267.5905</ele>
        <time>2022-10-02T13:00:42.000Z</time>
      </trkpt>
      <trkpt lat="45.83589" lon="4.72696">
        <ele>267.83814</ele>
        <time>2022-10-02T13:00:43.000Z</time>
      </trkpt>
      <trkpt lat="45.83586" lon="4.72697">
        <ele>268.10808</ele>
        <time>2022-10-02T13:00:44.000Z</time>
      </trkpt>
      <trkpt lat="45.83583" lon="4.72699">
        <ele>268.3858</ele>
        <time>2022-10-02T13:00:45.000Z</time>
      </trkpt>
      <trkpt lat="45.8358" lon="4.72701">
        <ele>268.69623</ele>
        <time>2022-10-02T13:00:46.000Z</time>
      </trkpt>
      <trkpt lat="45.83577" lon="4.72702">
        <ele>269.00777</ele>
        <time>2022-10-02T13:00:47.000Z</time>
      </trkpt>
      <trkpt lat="45.83574" lon="4.72704">
        <ele>269.22795</ele>
        <time>2022-10-02T13:00:48.000Z</time>
      </trkpt>
      <trkpt lat="45.83571" lon="4.72707">
        <ele>269.36117</ele>
        <time>2022-10-02T13:00:49.000Z</time>
      </trkpt>
      <trkpt lat="45.83567" lon="4.72709">
        <ele>269.47516</ele>
        <time>2022-10-02T13:00:50.000Z</time>
      </trkpt>
      <trkpt lat="45.83564" lon="4.72711">
        <ele>269.59409</ele>
        <time>2022-10-02T13:00:51.000Z</time>
      </trkpt>
      <trkpt lat="45.83561" lon="4.72712">
        <ele>269.70798</ele>
        <time>2022-10-02T13:00:52.000Z</time>
      </trkpt>
      <trkpt lat="45.83558" lon="4.72713">
        <ele>269.80043</ele>
        <time>2022-10-02T13:00:53.000Z</time>
      </trkpt>
      <trkpt lat="45.83555" lon="4.72715">
        <ele>269.88158</ele>
        <time>2022-10-02T13:00:54.000Z</time>
      </trkpt>
      <trkpt lat="45.83551" lon="4.72718">
        <ele>269.86794</ele>
        <time>2022-10-02T13:00:55.000Z</time>
      </trkpt>
      <trkpt lat="45.83546" lon="4.72721">
        <ele>269.70067</ele>
        <time>2022-10-02T13:00:56.000Z</time>
      </trkpt>
      <trkpt lat="45.83542" lon="4.72724">
        <ele>269.52856</ele>
        <time>2022-10-02T13:00:57.000Z</time>
      </trkpt>
      <trkpt lat="45.83537" lon="4.72727">
        <ele>269.45068</ele>
        <time>2022-10-02T13:00:58.000Z</time>
      </trkpt>
      <trkpt lat="45.83533" lon="4.72729">
        <ele>269.48436</ele>
        <time>2022-10-02T13:00:59.000Z</time>
      </trkpt>
      <trkpt lat="45.83529" lon="4.7273">
        <ele>269.68459</ele>
        <time>2022-10-02T13:01:00.000Z</time>
      </trkpt>
      <trkpt lat="45.83524" lon="4.72731">
        <ele>269.89976</ele>
        <time>2022-10-02T13:01:01.000Z</time>
      </trkpt>
      <trkpt lat="45.83519" lon="4.72732">
        <ele>270.03213</ele>
        <time>2022-10-02T13:01:02.000Z</time>
      </trkpt>
      <trkpt lat="45.83515" lon="4.72734">
        <ele>270.01551</ele>
        <time>2022-10-02T13:01:03.000Z</time>
      </trkpt>
      <trkpt lat="45.8351" lon="4.72737">
        <ele>269.82975</ele>
        <time>2022-10-02T13:01:04.000Z</time>
      </trkpt>
      <trkpt lat="45.83506" lon="4.7274">
        <ele>269.58164</ele>
        <time>2022-10-02T13:01:05.000Z</time>
      </trkpt>
      <trkpt lat="45.83501" lon="4.72743">
        <ele>269.26582</ele>
        <time>2022-10-02T13:01:06.000Z</time>
      </trkpt>
      <trkpt lat="45.83496" lon="4.72746">
        <ele>269.13574</ele>
        <time>2022-10-02T13:01:07.000Z</time>
      </trkpt>
      <trkpt lat="45.83492" lon="4.72747">
        <ele>269.08369</ele>
        <time>2022-10-02T13:01:08.000Z</time>
      </trkpt>
      <trkpt lat="45.83487" lon="4.72748">
        <ele>269.14172</ele>
        <time>2022-10-02T13:01:09.000Z</time>
      </trkpt>
      <trkpt lat="45.83483" lon="4.72749">
        <ele>269.18103</ele>
        <time>2022-10-02T13:01:10.000Z</time>
      </trkpt>
      <trkpt lat="45.83477" lon="4.72751">
        <ele>269.23882</ele>
        <time>2022-10-02T13:01:11.000Z</time>
      </trkpt>
      <trkpt lat="45.83472" lon="4.72752">
        <ele>269.3225</ele>
        <time>2022-10-02T13:01:12.000Z</time>
      </trkpt>
      <trkpt lat="45.83467" lon="4.72753">
        <ele>269.478</ele>
        <time>2022-10-02T13:01:13.000Z</time>
      </trkpt>
      <trkpt lat="45.83463" lon="4.72754">
        <ele>269.58419</ele>
        <time>2022-10-02T13:01:14.000Z</time>
      </trkpt>
      <trkpt lat="45.83458" lon="4.72755">
        <ele>269.78898</ele>
        <time>2022-10-02T13:01:15.000Z</time>
      </trkpt>
      <trkpt lat="45.83453" lon="4.72755">
        <ele>270.01902</ele>
        <time>2022-10-02T13:01:16.000Z</time>
      </trkpt>
      <trkpt lat="45.83448" lon="4.72756">
        <ele>270.22208</ele>
        <time>2022-10-02T13:01:17.000Z</time>
      </trkpt>
      <trkpt lat="45.8344" lon="4.72758">
        <ele>270.51935</ele>
        <time>2022-10-02T13:01:18.000Z</time>
      </trkpt>
      <trkpt lat="45.83432" lon="4.72762">
        <ele>270.53521</ele>
        <time>2022-10-02T13:01:19.000Z</time>
      </trkpt>
      <trkpt lat="45.83429" lon="4.72772">
        <ele>269.89682</ele>
        <time>2022-10-02T13:01:20.000Z</time>
      </trkpt>
      <trkpt lat="45.83431" lon="4.72776">
        <ele>269.49769</ele>
        <time>2022-10-02T13:01:21.000Z</time>
      </trkpt>
      <trkpt lat="45.8343" lon="4.72784">
        <ele>269.18788</ele>
        <time>2022-10-02T13:01:22.000Z</time>
      </trkpt>
      <trkpt lat="45.8343" lon="4.72792">
        <ele>268.77044</ele>
        <time>2022-10-02T13:01:23.000Z</time>
      </trkpt>
      <trkpt lat="45.83429" lon="4.728">
        <ele>268.48084</ele>
        <time>2022-10-02T13:01:24.000Z</time>
      </trkpt>
      <trkpt lat="45.83429" lon="4.72806">
        <ele>268.19401</ele>
        <time>2022-10-02T13:01:25.000Z</time>
      </trkpt>
      <trkpt lat="45.83428" lon="4.72812">
        <ele>268.02236</ele>
        <time>2022-10-02T13:01:26.000Z</time>
      </trkpt>
      <trkpt lat="45.83428" lon="4.72819">
        <ele>267.80016</ele>
        <time>2022-10-02T13:01:27.000Z</time>
      </trkpt>
      <trkpt lat="45.83427" lon="4.72827">
        <ele>267.72827</ele>
        <time>2022-10-02T13:01:28.000Z</time>
      </trkpt>
      <trkpt lat="45.83428" lon="4.72833">
        <ele>267.50869</ele>
        <time>2022-10-02T13:01:29.000Z</time>
      </trkpt>
      <trkpt lat="45.83429" lon="4.72841">
        <ele>267.34263</ele>
        <time>2022-10-02T13:01:30.000Z</time>
      </trkpt>
      <trkpt lat="45.8343" lon="4.72847">
        <ele>267.35723</ele>
        <time>2022-10-02T13:01:31.000Z</time>
      </trkpt>
      <trkpt lat="45.83431" lon="4.72853">
        <ele>267.32812</ele>
        <time>2022-10-02T13:01:32.000Z</time>
      </trkpt>
      <trkpt lat="45.83433" lon="4.72859">
        <ele>267.39402</ele>
        <time>2022-10-02T13:01:33.000Z</time>
      </trkpt>
      <trkpt lat="45.83434" lon="4.72864">
        <ele>267.54387</ele>
        <time>2022-10-02T13:01:34.000Z</time>
      </trkpt>
      <trkpt lat="45.83435" lon="4.7287">
        <ele>267.79982</ele>
        <time>2022-10-02T13:01:35.000Z</time>
      </trkpt>
      <trkpt lat="45.83436" lon="4.72877">
        <ele>268.19943</ele>
        <time>2022-10-02T13:01:36.000Z</time>
      </trkpt>
      <trkpt lat="45.83437" lon="4.72882">
        <ele>268.53387</ele>
        <time>2022-10-02T13:01:37.000Z</time>
      </trkpt>
      <trkpt lat="45.83437" lon="4.72885">
        <ele>268.78395</ele>
        <time>2022-10-02T13:01:38.000Z</time>
      </trkpt>
      <trkpt lat="45.83438" lon="4.72889">
        <ele>269.13605</ele>
        <time>2022-10-02T13:01:39.000Z</time>
      </trkpt>
      <trkpt lat="45.83438" lon="4.72894">
        <ele>269.59551</ele>
        <time>2022-10-02T13:01:40.000Z</time>
      </trkpt>
      <trkpt lat="45.83439" lon="4.72899">
        <ele>270.12369</ele>
        <time>2022-10-02T13:01:41.000Z</time>
      </trkpt>
      <trkpt lat="45.8344" lon="4.72904">
        <ele>270.70896</ele>
        <time>2022-10-02T13:01:42.000Z</time>
      </trkpt>
      <trkpt lat="45.83442" lon="4.7291">
        <ele>271.36609</ele>
        <time>2022-10-02T13:01:43.000Z</time>
      </trkpt>
      <trkpt lat="45.83442" lon="4.7291">
        <ele>271.36609</ele>
        <time>2022-10-02T13:01:43.000Z</time>
      </trkpt>
      <trkpt lat="45.83445" lon="4.72914">
        <ele>271.81192</ele>
        <time>2022-10-02T13:01:44.000Z</time>
      </trkpt>
      <trkpt lat="45.83446" lon="4.72916">
        <ele>272.07155</ele>
        <time>2022-10-02T13:01:45.000Z</time>
      </trkpt>
      <trkpt lat="45.83448" lon="4.72919">
        <ele>272.34703</ele>
        <time>2022-10-02T13:01:46.000Z</time>
      </trkpt>
      <trkpt lat="45.83449" lon="4.72923">
        <ele>272.74409</ele>
        <time>2022-10-02T13:01:47.000Z</time>
      </trkpt>
      <trkpt lat="45.8345" lon="4.72927">
        <ele>273.13153</ele>
        <time>2022-10-02T13:01:48.000Z</time>
      </trkpt>
      <trkpt lat="45.8345" lon="4.7293">
        <ele>273.47639</ele>
        <time>2022-10-02T13:01:49.000Z</time>
      </trkpt>
      <trkpt lat="45.83451" lon="4.72935">
        <ele>273.86655</ele>
        <time>2022-10-02T13:01:50.000Z</time>
      </trkpt>
      <trkpt lat="45.83453" lon="4.72939">
        <ele>274.2276</ele>
        <time>2022-10-02T13:01:51.000Z</time>
      </trkpt>
      <trkpt lat="45.83454" lon="4.72944">
        <ele>274.56936</ele>
        <time>2022-10-02T13:01:52.000Z</time>
      </trkpt>
      <trkpt lat="45.83455" lon="4.72948">
        <ele>274.8607</ele>
        <time>2022-10-02T13:01:53.000Z</time>
      </trkpt>
      <trkpt lat="45.83456" lon="4.72953">
        <ele>275.13518</ele>
        <time>2022-10-02T13:01:54.000Z</time>
      </trkpt>
      <trkpt lat="45.83456" lon="4.72956">
        <ele>275.38593</ele>
        <time>2022-10-02T13:01:55.000Z</time>
      </trkpt>
      <trkpt lat="45.83456" lon="4.7296">
        <ele>275.63072</ele>
        <time>2022-10-02T13:01:56.000Z</time>
      </trkpt>
      <trkpt lat="45.83457" lon="4.72964">
        <ele>275.91288</ele>
        <time>2022-10-02T13:01:58.000Z</time>
      </trkpt>
      <trkpt lat="45.83458" lon="4.72967">
        <ele>276.01844</ele>
        <time>2022-10-02T13:01:59.000Z</time>
      </trkpt>
      <trkpt lat="45.83459" lon="4.7297">
        <ele>276.08312</ele>
        <time>2022-10-02T13:02:00.000Z</time>
      </trkpt>
      <trkpt lat="45.8346" lon="4.72974">
        <ele>276.21971</ele>
        <time>2022-10-02T13:02:01.000Z</time>
      </trkpt>
      <trkpt lat="45.83462" lon="4.72979">
        <ele>276.35025</ele>
        <time>2022-10-02T13:02:02.000Z</time>
      </trkpt>
      <trkpt lat="45.83463" lon="4.72983">
        <ele>276.44396</ele>
        <time>2022-10-02T13:02:03.000Z</time>
      </trkpt>
      <trkpt lat="45.83463" lon="4.72987">
        <ele>276.56479</ele>
        <time>2022-10-02T13:02:04.000Z</time>
      </trkpt>
      <trkpt lat="45.83464" lon="4.72991">
        <ele>276.66946</ele>
        <time>2022-10-02T13:02:05.000Z</time>
      </trkpt>
      <trkpt lat="45.83465" lon="4.72996">
        <ele>276.75684</ele>
        <time>2022-10-02T13:02:06.000Z</time>
      </trkpt>
      <trkpt lat="45.83466" lon="4.73001">
        <ele>276.82218</ele>
        <time>2022-10-02T13:02:07.000Z</time>
      </trkpt>
      <trkpt lat="45.83467" lon="4.73006">
        <ele>276.88187</ele>
        <time>2022-10-02T13:02:08.000Z</time>
      </trkpt>
      <trkpt lat="45.83468" lon="4.7301">
        <ele>276.87179</ele>
        <time>2022-10-02T13:02:09.000Z</time>
      </trkpt>
      <trkpt lat="45.8347" lon="4.73013">
        <ele>276.88077</ele>
        <time>2022-10-02T13:02:10.000Z</time>
      </trkpt>
      <trkpt lat="45.83471" lon="4.73017">
        <ele>276.90476</ele>
        <time>2022-10-02T13:02:11.000Z</time>
      </trkpt>
      <trkpt lat="45.83472" lon="4.7302">
        <ele>276.91743</ele>
        <time>2022-10-02T13:02:12.000Z</time>
      </trkpt>
      <trkpt lat="45.83473" lon="4.73024">
        <ele>276.94829</ele>
        <time>2022-10-02T13:02:13.000Z</time>
      </trkpt>
      <trkpt lat="45.83475" lon="4.73027">
        <ele>276.93172</ele>
        <time>2022-10-02T13:02:14.000Z</time>
      </trkpt>
      <trkpt lat="45.83477" lon="4.7303">
        <ele>276.86401</ele>
        <time>2022-10-02T13:02:15.000Z</time>
      </trkpt>
      <trkpt lat="45.8348" lon="4.73034">
        <ele>276.77028</ele>
        <time>2022-10-02T13:02:16.000Z</time>
      </trkpt>
      <trkpt lat="45.83482" lon="4.73037">
        <ele>276.67385</ele>
        <time>2022-10-02T13:02:17.000Z</time>
      </trkpt>
      <trkpt lat="45.83485" lon="4.7304">
        <ele>276.58161</ele>
        <time>2022-10-02T13:02:18.000Z</time>
      </trkpt>
      <trkpt lat="45.83488" lon="4.73042">
        <ele>276.51454</ele>
        <time>2022-10-02T13:02:19.000Z</time>
      </trkpt>
      <trkpt lat="45.83491" lon="4.73046">
        <ele>276.53592</ele>
        <time>2022-10-02T13:02:20.000Z</time>
      </trkpt>
      <trkpt lat="45.83493" lon="4.73049">
        <ele>276.61941</ele>
        <time>2022-10-02T13:02:21.000Z</time>
      </trkpt>
      <trkpt lat="45.83495" lon="4.73052">
        <ele>276.76496</ele>
        <time>2022-10-02T13:02:22.000Z</time>
      </trkpt>
      <trkpt lat="45.83497" lon="4.73055">
        <ele>276.97278</ele>
        <time>2022-10-02T13:02:23.000Z</time>
      </trkpt>
      <trkpt lat="45.835" lon="4.73058">
        <ele>277.19129</ele>
        <time>2022-10-02T13:02:24.000Z</time>
      </trkpt>
      <trkpt lat="45.83502" lon="4.73061">
        <ele>277.41172</ele>
        <time>2022-10-02T13:02:25.000Z</time>
      </trkpt>
      <trkpt lat="45.83505" lon="4.73063">
        <ele>277.64074</ele>
        <time>2022-10-02T13:02:26.000Z</time>
      </trkpt>
      <trkpt lat="45.83508" lon="4.73065">
        <ele>277.89638</ele>
        <time>2022-10-02T13:02:27.000Z</time>
      </trkpt>
      <trkpt lat="45.83511" lon="4.73067">
        <ele>278.15195</ele>
        <time>2022-10-02T13:02:28.000Z</time>
      </trkpt>
      <trkpt lat="45.83514" lon="4.73068">
        <ele>278.34004</ele>
        <time>2022-10-02T13:02:29.000Z</time>
      </trkpt>
      <trkpt lat="45.83517" lon="4.73068">
        <ele>278.50491</ele>
        <time>2022-10-02T13:02:30.000Z</time>
      </trkpt>
      <trkpt lat="45.8352" lon="4.73067">
        <ele>278.61968</ele>
        <time>2022-10-02T13:02:31.000Z</time>
      </trkpt>
      <trkpt lat="45.83523" lon="4.73066">
        <ele>278.71481</ele>
        <time>2022-10-02T13:02:32.000Z</time>
      </trkpt>
      <trkpt lat="45.83525" lon="4.73066">
        <ele>278.78472</ele>
        <time>2022-10-02T13:02:33.000Z</time>
      </trkpt>
      <trkpt lat="45.83527" lon="4.73065">
        <ele>278.84201</ele>
        <time>2022-10-02T13:02:34.000Z</time>
      </trkpt>
      <trkpt lat="45.8353" lon="4.73064">
        <ele>278.93972</ele>
        <time>2022-10-02T13:02:35.000Z</time>
      </trkpt>
      <trkpt lat="45.83532" lon="4.73064">
        <ele>279.09982</ele>
        <time>2022-10-02T13:02:36.000Z</time>
      </trkpt>
      <trkpt lat="45.83535" lon="4.73063">
        <ele>279.3043</ele>
        <time>2022-10-02T13:02:37.000Z</time>
      </trkpt>
      <trkpt lat="45.83538" lon="4.73063">
        <ele>279.49777</ele>
        <time>2022-10-02T13:02:38.000Z</time>
      </trkpt>
      <trkpt lat="45.8354" lon="4.73062">
        <ele>279.59039</ele>
        <time>2022-10-02T13:02:39.000Z</time>
      </trkpt>
      <trkpt lat="45.83542" lon="4.7306">
        <ele>279.63439</ele>
        <time>2022-10-02T13:02:41.000Z</time>
      </trkpt>
      <trkpt lat="45.83544" lon="4.73059">
        <ele>279.73437</ele>
        <time>2022-10-02T13:02:42.000Z</time>
      </trkpt>
      <trkpt lat="45.83547" lon="4.73059">
        <ele>279.84733</ele>
        <time>2022-10-02T13:02:43.000Z</time>
      </trkpt>
      <trkpt lat="45.83549" lon="4.73058">
        <ele>279.95519</ele>
        <time>2022-10-02T13:02:44.000Z</time>
      </trkpt>
      <trkpt lat="45.83551" lon="4.73058">
        <ele>280.07128</ele>
        <time>2022-10-02T13:02:45.000Z</time>
      </trkpt>
      <trkpt lat="45.83555" lon="4.73058">
        <ele>280.23028</ele>
        <time>2022-10-02T13:02:47.000Z</time>
      </trkpt>
      <trkpt lat="45.83557" lon="4.73058">
        <ele>280.35593</ele>
        <time>2022-10-02T13:02:48.000Z</time>
      </trkpt>
      <trkpt lat="45.8356" lon="4.73058">
        <ele>280.46144</ele>
        <time>2022-10-02T13:02:49.000Z</time>
      </trkpt>
      <trkpt lat="45.83563" lon="4.73058">
        <ele>280.54823</ele>
        <time>2022-10-02T13:02:50.000Z</time>
      </trkpt>
      <trkpt lat="45.83566" lon="4.73057">
        <ele>280.60583</ele>
        <time>2022-10-02T13:02:51.000Z</time>
      </trkpt>
      <trkpt lat="45.83569" lon="4.73057">
        <ele>280.63607</ele>
        <time>2022-10-02T13:02:52.000Z</time>
      </trkpt>
      <trkpt lat="45.83572" lon="4.73056">
        <ele>280.63769</ele>
        <time>2022-10-02T13:02:53.000Z</time>
      </trkpt>
      <trkpt lat="45.83576" lon="4.73055">
        <ele>280.60537</ele>
        <time>2022-10-02T13:02:54.000Z</time>
      </trkpt>
      <trkpt lat="45.8358" lon="4.73053">
        <ele>280.53677</ele>
        <time>2022-10-02T13:02:55.000Z</time>
      </trkpt>
      <trkpt lat="45.83583" lon="4.73052">
        <ele>280.44502</ele>
        <time>2022-10-02T13:02:56.000Z</time>
      </trkpt>
      <trkpt lat="45.83586" lon="4.73051">
        <ele>280.3238</ele>
        <time>2022-10-02T13:02:57.000Z</time>
      </trkpt>
      <trkpt lat="45.8359" lon="4.73049">
        <ele>280.16036</ele>
        <time>2022-10-02T13:02:58.000Z</time>
      </trkpt>
      <trkpt lat="45.83594" lon="4.73047">
        <ele>279.94623</ele>
        <time>2022-10-02T13:02:59.000Z</time>
      </trkpt>
      <trkpt lat="45.83599" lon="4.73045">
        <ele>279.69969</ele>
        <time>2022-10-02T13:03:00.000Z</time>
      </trkpt>
      <trkpt lat="45.83606" lon="4.73042">
        <ele>279.20505</ele>
        <time>2022-10-02T13:03:01.000Z</time>
      </trkpt>
      <trkpt lat="45.83609" lon="4.73039">
        <ele>278.93239</ele>
        <time>2022-10-02T13:03:02.000Z</time>
      </trkpt>
      <trkpt lat="45.83615" lon="4.73036">
        <ele>278.4724</ele>
        <time>2022-10-02T13:03:03.000Z</time>
      </trkpt>
      <trkpt lat="45.83619" lon="4.73033">
        <ele>278.14593</ele>
        <time>2022-10-02T13:03:04.000Z</time>
      </trkpt>
      <trkpt lat="45.83625" lon="4.73031">
        <ele>277.55842</ele>
        <time>2022-10-02T13:03:05.000Z</time>
      </trkpt>
      <trkpt lat="45.83632" lon="4.73031">
        <ele>276.901</ele>
        <time>2022-10-02T13:03:06.000Z</time>
      </trkpt>
      <trkpt lat="45.83637" lon="4.73028">
        <ele>276.36434</ele>
        <time>2022-10-02T13:03:07.000Z</time>
      </trkpt>
      <trkpt lat="45.83645" lon="4.73027">
        <ele>275.40759</ele>
        <time>2022-10-02T13:03:08.000Z</time>
      </trkpt>
      <trkpt lat="45.83651" lon="4.73027">
        <ele>274.5935</ele>
        <time>2022-10-02T13:03:09.000Z</time>
      </trkpt>
      <trkpt lat="45.83659" lon="4.73027">
        <ele>273.5161</ele>
        <time>2022-10-02T13:03:10.000Z</time>
      </trkpt>
      <trkpt lat="45.83666" lon="4.73026">
        <ele>272.61713</ele>
        <time>2022-10-02T13:03:11.000Z</time>
      </trkpt>
      <trkpt lat="45.83676" lon="4.73026">
        <ele>271.18734</ele>
        <time>2022-10-02T13:03:12.000Z</time>
      </trkpt>
      <trkpt lat="45.83685" lon="4.73025">
        <ele>269.95844</ele>
        <time>2022-10-02T13:03:13.000Z</time>
      </trkpt>
      <trkpt lat="45.83695" lon="4.73023">
        <ele>268.74953</ele>
        <time>2022-10-02T13:03:14.000Z</time>
      </trkpt>
      <trkpt lat="45.83703" lon="4.73019">
        <ele>267.87672</ele>
        <time>2022-10-02T13:03:15.000Z</time>
      </trkpt>
      <trkpt lat="45.8371" lon="4.73018">
        <ele>267.11114</ele>
        <time>2022-10-02T13:03:16.000Z</time>
      </trkpt>
      <trkpt lat="45.83713" lon="4.7302">
        <ele>266.83018</ele>
        <time>2022-10-02T13:03:17.000Z</time>
      </trkpt>
      <trkpt lat="45.83716" lon="4.73024">
        <ele>266.56042</ele>
        <time>2022-10-02T13:03:18.000Z</time>
      </trkpt>
      <trkpt lat="45.83719" lon="4.73029">
        <ele>266.34084</ele>
        <time>2022-10-02T13:03:19.000Z</time>
      </trkpt>
      <trkpt lat="45.83723" lon="4.73033">
        <ele>266.19053</ele>
        <time>2022-10-02T13:03:20.000Z</time>
      </trkpt>
      <trkpt lat="45.83724" lon="4.73043">
        <ele>266.25033</ele>
        <time>2022-10-02T13:03:21.000Z</time>
      </trkpt>
      <trkpt lat="45.83726" lon="4.73046">
        <ele>266.28182</ele>
        <time>2022-10-02T13:03:22.000Z</time>
      </trkpt>
      <trkpt lat="45.83729" lon="4.73051">
        <ele>266.41089</ele>
        <time>2022-10-02T13:03:23.000Z</time>
      </trkpt>
      <trkpt lat="45.8373" lon="4.73056">
        <ele>266.63181</ele>
        <time>2022-10-02T13:03:24.000Z</time>
      </trkpt>
      <trkpt lat="45.8373" lon="4.73063">
        <ele>266.96891</ele>
        <time>2022-10-02T13:03:25.000Z</time>
      </trkpt>
      <trkpt lat="45.83728" lon="4.73066">
        <ele>267.13354</ele>
        <time>2022-10-02T13:03:26.000Z</time>
      </trkpt>
      <trkpt lat="45.83729" lon="4.7307">
        <ele>267.40551</ele>
        <time>2022-10-02T13:03:27.000Z</time>
      </trkpt>
      <trkpt lat="45.83731" lon="4.73074">
        <ele>267.86253</ele>
        <time>2022-10-02T13:03:28.000Z</time>
      </trkpt>
      <trkpt lat="45.83733" lon="4.73077">
        <ele>268.26598</ele>
        <time>2022-10-02T13:03:29.000Z</time>
      </trkpt>
      <trkpt lat="45.83736" lon="4.73081">
        <ele>268.90047</ele>
        <time>2022-10-02T13:03:30.000Z</time>
      </trkpt>
      <trkpt lat="45.83738" lon="4.73085">
        <ele>269.54098</ele>
        <time>2022-10-02T13:03:31.000Z</time>
      </trkpt>
      <trkpt lat="45.83739" lon="4.73089">
        <ele>270.12858</ele>
        <time>2022-10-02T13:03:32.000Z</time>
      </trkpt>
      <trkpt lat="45.8374" lon="4.73093">
        <ele>270.71226</ele>
        <time>2022-10-02T13:03:33.000Z</time>
      </trkpt>
      <trkpt lat="45.83742" lon="4.73097">
        <ele>271.36375</ele>
        <time>2022-10-02T13:03:34.000Z</time>
      </trkpt>
      <trkpt lat="45.83743" lon="4.73101">
        <ele>272.0272</ele>
        <time>2022-10-02T13:03:35.000Z</time>
      </trkpt>
      <trkpt lat="45.83743" lon="4.73105">
        <ele>272.69573</ele>
        <time>2022-10-02T13:03:36.000Z</time>
      </trkpt>
      <trkpt lat="45.83745" lon="4.73108">
        <ele>273.36862</ele>
        <time>2022-10-02T13:03:37.000Z</time>
      </trkpt>
      <trkpt lat="45.83746" lon="4.73112">
        <ele>274.03719</ele>
        <time>2022-10-02T13:03:38.000Z</time>
      </trkpt>
      <trkpt lat="45.83747" lon="4.73117">
        <ele>274.76535</ele>
        <time>2022-10-02T13:03:39.000Z</time>
      </trkpt>
      <trkpt lat="45.83749" lon="4.73122">
        <ele>275.60924</ele>
        <time>2022-10-02T13:03:40.000Z</time>
      </trkpt>
      <trkpt lat="45.8375" lon="4.73127">
        <ele>276.34652</ele>
        <time>2022-10-02T13:03:41.000Z</time>
      </trkpt>
      <trkpt lat="45.83752" lon="4.73132">
        <ele>276.94587</ele>
        <time>2022-10-02T13:03:42.000Z</time>
      </trkpt>
      <trkpt lat="45.83754" lon="4.73137">
        <ele>277.51604</ele>
        <time>2022-10-02T13:03:43.000Z</time>
      </trkpt>
      <trkpt lat="45.83757" lon="4.73142">
        <ele>278.0544</ele>
        <time>2022-10-02T13:03:44.000Z</time>
      </trkpt>
      <trkpt lat="45.83759" lon="4.73147">
        <ele>278.50362</ele>
        <time>2022-10-02T13:03:45.000Z</time>
      </trkpt>
      <trkpt lat="45.83762" lon="4.73151">
        <ele>278.88755</ele>
        <time>2022-10-02T13:03:46.000Z</time>
      </trkpt>
      <trkpt lat="45.83764" lon="4.73156">
        <ele>279.23608</ele>
        <time>2022-10-02T13:03:47.000Z</time>
      </trkpt>
      <trkpt lat="45.83766" lon="4.73161">
        <ele>279.54057</ele>
        <time>2022-10-02T13:03:48.000Z</time>
      </trkpt>
      <trkpt lat="45.83768" lon="4.73165">
        <ele>279.80388</ele>
        <time>2022-10-02T13:03:49.000Z</time>
      </trkpt>
      <trkpt lat="45.83769" lon="4.7317">
        <ele>280.02286</ele>
        <time>2022-10-02T13:03:50.000Z</time>
      </trkpt>
      <trkpt lat="45.83769" lon="4.73174">
        <ele>280.18449</ele>
        <time>2022-10-02T13:03:51.000Z</time>
      </trkpt>
      <trkpt lat="45.83769" lon="4.73177">
        <ele>280.3083</ele>
        <time>2022-10-02T13:03:52.000Z</time>
      </trkpt>
      <trkpt lat="45.83767" lon="4.7318">
        <ele>280.40166</ele>
        <time>2022-10-02T13:03:53.000Z</time>
      </trkpt>
      <trkpt lat="45.83766" lon="4.73183">
        <ele>280.46765</ele>
        <time>2022-10-02T13:03:54.000Z</time>
      </trkpt>
      <trkpt lat="45.83764" lon="4.73185">
        <ele>280.51453</ele>
        <time>2022-10-02T13:03:55.000Z</time>
      </trkpt>
      <trkpt lat="45.83762" lon="4.73187">
        <ele>280.5565</ele>
        <time>2022-10-02T13:03:56.000Z</time>
      </trkpt>
      <trkpt lat="45.8376" lon="4.7319">
        <ele>280.5939</ele>
        <time>2022-10-02T13:03:57.000Z</time>
      </trkpt>
      <trkpt lat="45.83757" lon="4.73192">
        <ele>280.62319</ele>
        <time>2022-10-02T13:03:58.000Z</time>
      </trkpt>
      <trkpt lat="45.83754" lon="4.73195">
        <ele>280.64757</ele>
        <time>2022-10-02T13:03:59.000Z</time>
      </trkpt>
      <trkpt lat="45.83751" lon="4.73198">
        <ele>280.66071</ele>
        <time>2022-10-02T13:04:00.000Z</time>
      </trkpt>
      <trkpt lat="45.83749" lon="4.732">
        <ele>280.66433</ele>
        <time>2022-10-02T13:04:01.000Z</time>
      </trkpt>
      <trkpt lat="45.83746" lon="4.73201">
        <ele>280.66851</ele>
        <time>2022-10-02T13:04:02.000Z</time>
      </trkpt>
      <trkpt lat="45.83744" lon="4.73202">
        <ele>280.67509</ele>
        <time>2022-10-02T13:04:03.000Z</time>
      </trkpt>
      <trkpt lat="45.83742" lon="4.73204">
        <ele>280.69408</ele>
        <time>2022-10-02T13:04:04.000Z</time>
      </trkpt>
      <trkpt lat="45.8374" lon="4.73206">
        <ele>280.72425</ele>
        <time>2022-10-02T13:04:05.000Z</time>
      </trkpt>
      <trkpt lat="45.83738" lon="4.73208">
        <ele>280.76407</ele>
        <time>2022-10-02T13:04:06.000Z</time>
      </trkpt>
      <trkpt lat="45.83735" lon="4.73211">
        <ele>280.80361</ele>
        <time>2022-10-02T13:04:07.000Z</time>
      </trkpt>
      <trkpt lat="45.83734" lon="4.73212">
        <ele>280.83677</ele>
        <time>2022-10-02T13:04:08.000Z</time>
      </trkpt>
      <trkpt lat="45.83731" lon="4.73214">
        <ele>280.86748</ele>
        <time>2022-10-02T13:04:21.000Z</time>
      </trkpt>
      <trkpt lat="45.83729" lon="4.73216">
        <ele>280.93517</ele>
        <time>2022-10-02T13:04:23.000Z</time>
      </trkpt>
      <trkpt lat="45.83727" lon="4.73218">
        <ele>280.98166</ele>
        <time>2022-10-02T13:04:24.000Z</time>
      </trkpt>
      <trkpt lat="45.83725" lon="4.7322">
        <ele>281.03952</ele>
        <time>2022-10-02T13:04:25.000Z</time>
      </trkpt>
      <trkpt lat="45.83723" lon="4.73222">
        <ele>281.09631</ele>
        <time>2022-10-02T13:04:26.000Z</time>
      </trkpt>
      <trkpt lat="45.8372" lon="4.73226">
        <ele>281.22322</ele>
        <time>2022-10-02T13:04:28.000Z</time>
      </trkpt>
      <trkpt lat="45.83718" lon="4.73229">
        <ele>281.31847</ele>
        <time>2022-10-02T13:04:29.000Z</time>
      </trkpt>
      <trkpt lat="45.83717" lon="4.73231">
        <ele>281.40679</ele>
        <time>2022-10-02T13:04:30.000Z</time>
      </trkpt>
      <trkpt lat="45.83715" lon="4.73232">
        <ele>281.48699</ele>
        <time>2022-10-02T13:04:31.000Z</time>
      </trkpt>
      <trkpt lat="45.83714" lon="4.73235">
        <ele>281.58522</ele>
        <time>2022-10-02T13:04:32.000Z</time>
      </trkpt>
      <trkpt lat="45.83712" lon="4.73237">
        <ele>281.70276</ele>
        <time>2022-10-02T13:04:33.000Z</time>
      </trkpt>
      <trkpt lat="45.8371" lon="4.7324">
        <ele>281.83298</ele>
        <time>2022-10-02T13:04:34.000Z</time>
      </trkpt>
      <trkpt lat="45.83708" lon="4.73242">
        <ele>281.97579</ele>
        <time>2022-10-02T13:04:35.000Z</time>
      </trkpt>
      <trkpt lat="45.83707" lon="4.73245">
        <ele>282.12104</ele>
        <time>2022-10-02T13:04:36.000Z</time>
      </trkpt>
      <trkpt lat="45.83705" lon="4.73248">
        <ele>282.27587</ele>
        <time>2022-10-02T13:04:37.000Z</time>
      </trkpt>
      <trkpt lat="45.83703" lon="4.73251">
        <ele>282.44196</ele>
        <time>2022-10-02T13:04:38.000Z</time>
      </trkpt>
      <trkpt lat="45.83702" lon="4.73254">
        <ele>282.57687</ele>
        <time>2022-10-02T13:04:39.000Z</time>
      </trkpt>
      <trkpt lat="45.83701" lon="4.73257">
        <ele>282.69753</ele>
        <time>2022-10-02T13:04:40.000Z</time>
      </trkpt>
      <trkpt lat="45.83699" lon="4.73259">
        <ele>282.80702</ele>
        <time>2022-10-02T13:04:41.000Z</time>
      </trkpt>
      <trkpt lat="45.83698" lon="4.73261">
        <ele>282.9127</ele>
        <time>2022-10-02T13:04:42.000Z</time>
      </trkpt>
      <trkpt lat="45.83696" lon="4.73262">
        <ele>283.00161</ele>
        <time>2022-10-02T13:04:43.000Z</time>
      </trkpt>
      <trkpt lat="45.83694" lon="4.73265">
        <ele>283.16428</ele>
        <time>2022-10-02T13:04:45.000Z</time>
      </trkpt>
      <trkpt lat="45.83692" lon="4.73267">
        <ele>283.26739</ele>
        <time>2022-10-02T13:04:46.000Z</time>
      </trkpt>
      <trkpt lat="45.83691" lon="4.73269">
        <ele>283.37355</ele>
        <time>2022-10-02T13:04:47.000Z</time>
      </trkpt>
      <trkpt lat="45.83689" lon="4.73272">
        <ele>283.49357</ele>
        <time>2022-10-02T13:04:48.000Z</time>
      </trkpt>
      <trkpt lat="45.83688" lon="4.73275">
        <ele>283.62954</ele>
        <time>2022-10-02T13:04:49.000Z</time>
      </trkpt>
      <trkpt lat="45.83686" lon="4.73277">
        <ele>283.72189</ele>
        <time>2022-10-02T13:04:50.000Z</time>
      </trkpt>
      <trkpt lat="45.83684" lon="4.73281">
        <ele>283.92265</ele>
        <time>2022-10-02T13:04:52.000Z</time>
      </trkpt>
      <trkpt lat="45.83682" lon="4.73284">
        <ele>284.04564</ele>
        <time>2022-10-02T13:04:53.000Z</time>
      </trkpt>
      <trkpt lat="45.83681" lon="4.73287">
        <ele>284.16745</ele>
        <time>2022-10-02T13:04:54.000Z</time>
      </trkpt>
      <trkpt lat="45.83679" lon="4.7329">
        <ele>284.28135</ele>
        <time>2022-10-02T13:04:55.000Z</time>
      </trkpt>
      <trkpt lat="45.83678" lon="4.73294">
        <ele>284.40375</ele>
        <time>2022-10-02T13:04:56.000Z</time>
      </trkpt>
      <trkpt lat="45.83676" lon="4.73297">
        <ele>284.53669</ele>
        <time>2022-10-02T13:04:57.000Z</time>
      </trkpt>
      <trkpt lat="45.83673" lon="4.733">
        <ele>284.69318</ele>
        <time>2022-10-02T13:04:58.000Z</time>
      </trkpt>
      <trkpt lat="45.83671" lon="4.73303">
        <ele>284.84732</ele>
        <time>2022-10-02T13:04:59.000Z</time>
      </trkpt>
      <trkpt lat="45.83668" lon="4.73306">
        <ele>284.99821</ele>
        <time>2022-10-02T13:05:00.000Z</time>
      </trkpt>
      <trkpt lat="45.83667" lon="4.73308">
        <ele>285.11741</ele>
        <time>2022-10-02T13:05:01.000Z</time>
      </trkpt>
      <trkpt lat="45.83665" lon="4.73311">
        <ele>285.24305</ele>
        <time>2022-10-02T13:05:02.000Z</time>
      </trkpt>
      <trkpt lat="45.83662" lon="4.73314">
        <ele>285.39343</ele>
        <time>2022-10-02T13:05:03.000Z</time>
      </trkpt>
      <trkpt lat="45.8366" lon="4.73317">
        <ele>285.53379</ele>
        <time>2022-10-02T13:05:04.000Z</time>
      </trkpt>
      <trkpt lat="45.83658" lon="4.7332">
        <ele>285.67896</ele>
        <time>2022-10-02T13:05:05.000Z</time>
      </trkpt>
      <trkpt lat="45.83656" lon="4.73322">
        <ele>285.78909</ele>
        <time>2022-10-02T13:05:06.000Z</time>
      </trkpt>
      <trkpt lat="45.83654" lon="4.73324">
        <ele>285.87492</ele>
        <time>2022-10-02T13:05:07.000Z</time>
      </trkpt>
      <trkpt lat="45.83653" lon="4.73327">
        <ele>285.93562</ele>
        <time>2022-10-02T13:05:08.000Z</time>
      </trkpt>
      <trkpt lat="45.83652" lon="4.7333">
        <ele>285.98313</ele>
        <time>2022-10-02T13:05:09.000Z</time>
      </trkpt>
      <trkpt lat="45.8365" lon="4.73334">
        <ele>286.01865</ele>
        <time>2022-10-02T13:05:10.000Z</time>
      </trkpt>
      <trkpt lat="45.83649" lon="4.73338">
        <ele>286.05078</ele>
        <time>2022-10-02T13:05:11.000Z</time>
      </trkpt>
      <trkpt lat="45.83648" lon="4.73342">
        <ele>286.07867</ele>
        <time>2022-10-02T13:05:12.000Z</time>
      </trkpt>
      <trkpt lat="45.83647" lon="4.73347">
        <ele>286.11665</ele>
        <time>2022-10-02T13:05:13.000Z</time>
      </trkpt>
      <trkpt lat="45.83646" lon="4.73353">
        <ele>286.17347</ele>
        <time>2022-10-02T13:05:14.000Z</time>
      </trkpt>
      <trkpt lat="45.83644" lon="4.73358">
        <ele>286.24033</ele>
        <time>2022-10-02T13:05:15.000Z</time>
      </trkpt>
      <trkpt lat="45.83644" lon="4.73363">
        <ele>286.2907</ele>
        <time>2022-10-02T13:05:16.000Z</time>
      </trkpt>
      <trkpt lat="45.83643" lon="4.73368">
        <ele>286.31342</ele>
        <time>2022-10-02T13:05:17.000Z</time>
      </trkpt>
      <trkpt lat="45.83643" lon="4.73373">
        <ele>286.34272</ele>
        <time>2022-10-02T13:05:18.000Z</time>
      </trkpt>
      <trkpt lat="45.83643" lon="4.73378">
        <ele>286.36258</ele>
        <time>2022-10-02T13:05:19.000Z</time>
      </trkpt>
      <trkpt lat="45.83643" lon="4.73384">
        <ele>286.37046</ele>
        <time>2022-10-02T13:05:20.000Z</time>
      </trkpt>
      <trkpt lat="45.83643" lon="4.73389">
        <ele>286.39455</ele>
        <time>2022-10-02T13:05:21.000Z</time>
      </trkpt>
      <trkpt lat="45.83644" lon="4.73394">
        <ele>286.42827</ele>
        <time>2022-10-02T13:05:22.000Z</time>
      </trkpt>
      <trkpt lat="45.83644" lon="4.73399">
        <ele>286.45347</ele>
        <time>2022-10-02T13:05:23.000Z</time>
      </trkpt>
      <trkpt lat="45.83645" lon="4.73403">
        <ele>286.46666</ele>
        <time>2022-10-02T13:05:24.000Z</time>
      </trkpt>
      <trkpt lat="45.83646" lon="4.73407">
        <ele>286.47704</ele>
        <time>2022-10-02T13:05:25.000Z</time>
      </trkpt>
      <trkpt lat="45.83647" lon="4.73411">
        <ele>286.49712</ele>
        <time>2022-10-02T13:05:26.000Z</time>
      </trkpt>
      <trkpt lat="45.83648" lon="4.73415">
        <ele>286.54234</ele>
        <time>2022-10-02T13:05:27.000Z</time>
      </trkpt>
      <trkpt lat="45.83648" lon="4.73418">
        <ele>286.60521</ele>
        <time>2022-10-02T13:05:28.000Z</time>
      </trkpt>
      <trkpt lat="45.83649" lon="4.73422">
        <ele>286.6821</ele>
        <time>2022-10-02T13:05:29.000Z</time>
      </trkpt>
      <trkpt lat="45.8365" lon="4.73427">
        <ele>286.78866</ele>
        <time>2022-10-02T13:05:30.000Z</time>
      </trkpt>
      <trkpt lat="45.83651" lon="4.73431">
        <ele>286.87061</ele>
        <time>2022-10-02T13:05:31.000Z</time>
      </trkpt>
      <trkpt lat="45.83652" lon="4.73435">
        <ele>286.9818</ele>
        <time>2022-10-02T13:05:32.000Z</time>
      </trkpt>
      <trkpt lat="45.83653" lon="4.73438">
        <ele>287.09824</ele>
        <time>2022-10-02T13:05:33.000Z</time>
      </trkpt>
      <trkpt lat="45.83653" lon="4.73442">
        <ele>287.23141</ele>
        <time>2022-10-02T13:05:34.000Z</time>
      </trkpt>
      <trkpt lat="45.83654" lon="4.73446">
        <ele>287.37345</ele>
        <time>2022-10-02T13:05:35.000Z</time>
      </trkpt>
      <trkpt lat="45.83655" lon="4.7345">
        <ele>287.51607</ele>
        <time>2022-10-02T13:05:36.000Z</time>
      </trkpt>
      <trkpt lat="45.83656" lon="4.73454">
        <ele>287.65289</ele>
        <time>2022-10-02T13:05:37.000Z</time>
      </trkpt>
      <trkpt lat="45.83657" lon="4.73458">
        <ele>287.79249</ele>
        <time>2022-10-02T13:05:38.000Z</time>
      </trkpt>
      <trkpt lat="45.83658" lon="4.73462">
        <ele>287.94888</ele>
        <time>2022-10-02T13:05:39.000Z</time>
      </trkpt>
      <trkpt lat="45.8366" lon="4.73466">
        <ele>288.12091</ele>
        <time>2022-10-02T13:05:40.000Z</time>
      </trkpt>
      <trkpt lat="45.83661" lon="4.7347">
        <ele>288.28625</ele>
        <time>2022-10-02T13:05:41.000Z</time>
      </trkpt>
      <trkpt lat="45.83662" lon="4.73474">
        <ele>288.42446</ele>
        <time>2022-10-02T13:05:42.000Z</time>
      </trkpt>
      <trkpt lat="45.83663" lon="4.73477">
        <ele>288.55364</ele>
        <time>2022-10-02T13:05:43.000Z</time>
      </trkpt>
      <trkpt lat="45.83665" lon="4.7348">
        <ele>288.67135</ele>
        <time>2022-10-02T13:05:44.000Z</time>
      </trkpt>
      <trkpt lat="45.83666" lon="4.73483">
        <ele>288.79021</ele>
        <time>2022-10-02T13:05:45.000Z</time>
      </trkpt>
      <trkpt lat="45.83668" lon="4.73487">
        <ele>288.90702</ele>
        <time>2022-10-02T13:05:46.000Z</time>
      </trkpt>
      <trkpt lat="45.83671" lon="4.73491">
        <ele>289.01777</ele>
        <time>2022-10-02T13:05:47.000Z</time>
      </trkpt>
      <trkpt lat="45.83673" lon="4.73494">
        <ele>289.10661</ele>
        <time>2022-10-02T13:05:48.000Z</time>
      </trkpt>
      <trkpt lat="45.83675" lon="4.73498">
        <ele>289.18836</ele>
        <time>2022-10-02T13:05:49.000Z</time>
      </trkpt>
      <trkpt lat="45.83677" lon="4.73502">
        <ele>289.25679</ele>
        <time>2022-10-02T13:05:50.000Z</time>
      </trkpt>
      <trkpt lat="45.83678" lon="4.73506">
        <ele>289.33478</ele>
        <time>2022-10-02T13:05:51.000Z</time>
      </trkpt>
      <trkpt lat="45.83679" lon="4.7351">
        <ele>289.41365</ele>
        <time>2022-10-02T13:05:52.000Z</time>
      </trkpt>
      <trkpt lat="45.8368" lon="4.73515">
        <ele>289.48872</ele>
        <time>2022-10-02T13:05:53.000Z</time>
      </trkpt>
      <trkpt lat="45.83682" lon="4.73519">
        <ele>289.54771</ele>
        <time>2022-10-02T13:05:54.000Z</time>
      </trkpt>
      <trkpt lat="45.83683" lon="4.73524">
        <ele>289.58212</ele>
        <time>2022-10-02T13:05:55.000Z</time>
      </trkpt>
      <trkpt lat="45.83685" lon="4.73528">
        <ele>289.60019</ele>
        <time>2022-10-02T13:05:56.000Z</time>
      </trkpt>
      <trkpt lat="45.83687" lon="4.73532">
        <ele>289.62741</ele>
        <time>2022-10-02T13:05:57.000Z</time>
      </trkpt>
      <trkpt lat="45.83688" lon="4.73536">
        <ele>289.65141</ele>
        <time>2022-10-02T13:05:58.000Z</time>
      </trkpt>
      <trkpt lat="45.8369" lon="4.73541">
        <ele>289.66901</ele>
        <time>2022-10-02T13:05:59.000Z</time>
      </trkpt>
      <trkpt lat="45.83692" lon="4.73545">
        <ele>289.6782</ele>
        <time>2022-10-02T13:06:00.000Z</time>
      </trkpt>
      <trkpt lat="45.83693" lon="4.7355">
        <ele>289.65922</ele>
        <time>2022-10-02T13:06:01.000Z</time>
      </trkpt>
      <trkpt lat="45.83695" lon="4.73554">
        <ele>289.61754</ele>
        <time>2022-10-02T13:06:02.000Z</time>
      </trkpt>
      <trkpt lat="45.83697" lon="4.73558">
        <ele>289.54196</ele>
        <time>2022-10-02T13:06:03.000Z</time>
      </trkpt>
      <trkpt lat="45.83699" lon="4.73562">
        <ele>289.44208</ele>
        <time>2022-10-02T13:06:04.000Z</time>
      </trkpt>
      <trkpt lat="45.83701" lon="4.73566">
        <ele>289.33592</ele>
        <time>2022-10-02T13:06:05.000Z</time>
      </trkpt>
      <trkpt lat="45.83703" lon="4.73569">
        <ele>289.21378</ele>
        <time>2022-10-02T13:06:06.000Z</time>
      </trkpt>
      <trkpt lat="45.83706" lon="4.73573">
        <ele>289.06507</ele>
        <time>2022-10-02T13:06:07.000Z</time>
      </trkpt>
      <trkpt lat="45.83709" lon="4.73576">
        <ele>288.83208</ele>
        <time>2022-10-02T13:06:08.000Z</time>
      </trkpt>
      <trkpt lat="45.83714" lon="4.73578">
        <ele>288.55299</ele>
        <time>2022-10-02T13:06:09.000Z</time>
      </trkpt>
      <trkpt lat="45.83718" lon="4.73577">
        <ele>288.24659</ele>
        <time>2022-10-02T13:06:10.000Z</time>
      </trkpt>
      <trkpt lat="45.83723" lon="4.73568">
        <ele>287.76852</ele>
        <time>2022-10-02T13:06:11.000Z</time>
      </trkpt>
      <trkpt lat="45.83728" lon="4.73571">
        <ele>287.51185</ele>
        <time>2022-10-02T13:06:12.000Z</time>
      </trkpt>
      <trkpt lat="45.83733" lon="4.73574">
        <ele>287.19714</ele>
        <time>2022-10-02T13:06:13.000Z</time>
      </trkpt>
      <trkpt lat="45.83738" lon="4.73575">
        <ele>286.88701</ele>
        <time>2022-10-02T13:06:14.000Z</time>
      </trkpt>
      <trkpt lat="45.83743" lon="4.7358">
        <ele>286.59335</ele>
        <time>2022-10-02T13:06:15.000Z</time>
      </trkpt>
      <trkpt lat="45.83748" lon="4.73586">
        <ele>286.2801</ele>
        <time>2022-10-02T13:06:16.000Z</time>
      </trkpt>
      <trkpt lat="45.83753" lon="4.73589">
        <ele>286.00585</ele>
        <time>2022-10-02T13:06:17.000Z</time>
      </trkpt>
      <trkpt lat="45.83759" lon="4.7359">
        <ele>285.60759</ele>
        <time>2022-10-02T13:06:18.000Z</time>
      </trkpt>
      <trkpt lat="45.83763" lon="4.7359">
        <ele>285.40708</ele>
        <time>2022-10-02T13:06:19.000Z</time>
      </trkpt>
      <trkpt lat="45.83768" lon="4.73586">
        <ele>285.06547</ele>
        <time>2022-10-02T13:06:20.000Z</time>
      </trkpt>
      <trkpt lat="45.83774" lon="4.73584">
        <ele>284.73</ele>
        <time>2022-10-02T13:06:21.000Z</time>
      </trkpt>
      <trkpt lat="45.83779" lon="4.7358">
        <ele>284.45058</ele>
        <time>2022-10-02T13:06:22.000Z</time>
      </trkpt>
      <trkpt lat="45.83785" lon="4.73578">
        <ele>284.16086</ele>
        <time>2022-10-02T13:06:23.000Z</time>
      </trkpt>
      <trkpt lat="45.83788" lon="4.73579">
        <ele>283.9914</ele>
        <time>2022-10-02T13:06:24.000Z</time>
      </trkpt>
      <trkpt lat="45.83791" lon="4.73577">
        <ele>283.88472</ele>
        <time>2022-10-02T13:06:26.000Z</time>
      </trkpt>
      <trkpt lat="45.83788" lon="4.73577">
        <ele>284.00634</ele>
        <time>2022-10-02T13:06:27.000Z</time>
      </trkpt>
      <trkpt lat="45.8379" lon="4.73576">
        <ele>283.88248</ele>
        <time>2022-10-02T13:06:28.000Z</time>
      </trkpt>
      <trkpt lat="45.83793" lon="4.73574">
        <ele>283.7581</ele>
        <time>2022-10-02T13:06:31.000Z</time>
      </trkpt>
      <trkpt lat="45.83795" lon="4.73573">
        <ele>283.67138</ele>
        <time>2022-10-02T13:06:33.000Z</time>
      </trkpt>
      <trkpt lat="45.83797" lon="4.7357">
        <ele>283.54008</ele>
        <time>2022-10-02T13:06:38.000Z</time>
      </trkpt>
      <trkpt lat="45.83799" lon="4.73569">
        <ele>283.42541</ele>
        <time>2022-10-02T13:06:39.000Z</time>
      </trkpt>
      <trkpt lat="45.83801" lon="4.73568">
        <ele>283.29357</ele>
        <time>2022-10-02T13:06:40.000Z</time>
      </trkpt>
      <trkpt lat="45.83804" lon="4.73566">
        <ele>283.13797</ele>
        <time>2022-10-02T13:06:41.000Z</time>
      </trkpt>
      <trkpt lat="45.83807" lon="4.73565">
        <ele>282.96287</ele>
        <time>2022-10-02T13:06:42.000Z</time>
      </trkpt>
      <trkpt lat="45.8381" lon="4.73564">
        <ele>282.80313</ele>
        <time>2022-10-02T13:06:43.000Z</time>
      </trkpt>
      <trkpt lat="45.83813" lon="4.73563">
        <ele>282.65541</ele>
        <time>2022-10-02T13:06:44.000Z</time>
      </trkpt>
      <trkpt lat="45.83817" lon="4.73562">
        <ele>282.52346</ele>
        <time>2022-10-02T13:06:45.000Z</time>
      </trkpt>
      <trkpt lat="45.8382" lon="4.73559">
        <ele>282.37614</ele>
        <time>2022-10-02T13:06:46.000Z</time>
      </trkpt>
      <trkpt lat="45.83824" lon="4.73556">
        <ele>282.22882</ele>
        <time>2022-10-02T13:06:47.000Z</time>
      </trkpt>
      <trkpt lat="45.83827" lon="4.73552">
        <ele>282.07899</ele>
        <time>2022-10-02T13:06:48.000Z</time>
      </trkpt>
      <trkpt lat="45.83831" lon="4.73546">
        <ele>281.87226</ele>
        <time>2022-10-02T13:06:49.000Z</time>
      </trkpt>
      <trkpt lat="45.83838" lon="4.7354">
        <ele>281.40217</ele>
        <time>2022-10-02T13:06:50.000Z</time>
      </trkpt>
      <trkpt lat="45.83843" lon="4.73534">
        <ele>281.03805</ele>
        <time>2022-10-02T13:06:51.000Z</time>
      </trkpt>
      <trkpt lat="45.83846" lon="4.73529">
        <ele>280.85044</ele>
        <time>2022-10-02T13:06:52.000Z</time>
      </trkpt>
      <trkpt lat="45.8385" lon="4.73526">
        <ele>280.69972</ele>
        <time>2022-10-02T13:06:53.000Z</time>
      </trkpt>
      <trkpt lat="45.83856" lon="4.73523">
        <ele>280.52093</ele>
        <time>2022-10-02T13:06:54.000Z</time>
      </trkpt>
      <trkpt lat="45.83858" lon="4.7352">
        <ele>280.42682</ele>
        <time>2022-10-02T13:06:55.000Z</time>
      </trkpt>
      <trkpt lat="45.83863" lon="4.73514">
        <ele>280.18413</ele>
        <time>2022-10-02T13:06:56.000Z</time>
      </trkpt>
      <trkpt lat="45.83866" lon="4.7351">
        <ele>279.97674</ele>
        <time>2022-10-02T13:06:57.000Z</time>
      </trkpt>
      <trkpt lat="45.8387" lon="4.73503">
        <ele>279.63116</ele>
        <time>2022-10-02T13:06:58.000Z</time>
      </trkpt>
      <trkpt lat="45.83872" lon="4.73499">
        <ele>279.4202</ele>
        <time>2022-10-02T13:06:59.000Z</time>
      </trkpt>
      <trkpt lat="45.83875" lon="4.735">
        <ele>279.36079</ele>
        <time>2022-10-02T13:07:00.000Z</time>
      </trkpt>
      <trkpt lat="45.83877" lon="4.73504">
        <ele>279.49261</ele>
        <time>2022-10-02T13:07:01.000Z</time>
      </trkpt>
      <trkpt lat="45.83879" lon="4.73506">
        <ele>279.50151</ele>
        <time>2022-10-02T13:07:02.000Z</time>
      </trkpt>
      <trkpt lat="45.83881" lon="4.73509">
        <ele>279.46525</ele>
        <time>2022-10-02T13:07:03.000Z</time>
      </trkpt>
      <trkpt lat="45.83884" lon="4.73509">
        <ele>279.3274</ele>
        <time>2022-10-02T13:07:04.000Z</time>
      </trkpt>
      <trkpt lat="45.83886" lon="4.7351">
        <ele>279.19519</ele>
        <time>2022-10-02T13:07:05.000Z</time>
      </trkpt>
      <trkpt lat="45.83888" lon="4.73512">
        <ele>279.11655</ele>
        <time>2022-10-02T13:07:06.000Z</time>
      </trkpt>
      <trkpt lat="45.8389" lon="4.73514">
        <ele>278.94897</ele>
        <time>2022-10-02T13:07:08.000Z</time>
      </trkpt>
      <trkpt lat="45.83893" lon="4.73515">
        <ele>278.81345</ele>
        <time>2022-10-02T13:07:09.000Z</time>
      </trkpt>
      <trkpt lat="45.83896" lon="4.73513">
        <ele>278.61218</ele>
        <time>2022-10-02T13:07:11.000Z</time>
      </trkpt>
      <trkpt lat="45.83898" lon="4.73512">
        <ele>278.52445</ele>
        <time>2022-10-02T13:07:12.000Z</time>
      </trkpt>
      <trkpt lat="45.839" lon="4.7351">
        <ele>278.45426</ele>
        <time>2022-10-02T13:07:13.000Z</time>
      </trkpt>
      <trkpt lat="45.83902" lon="4.73507">
        <ele>278.41014</ele>
        <time>2022-10-02T13:07:14.000Z</time>
      </trkpt>
      <trkpt lat="45.83904" lon="4.73505">
        <ele>278.38924</ele>
        <time>2022-10-02T13:07:15.000Z</time>
      </trkpt>
      <trkpt lat="45.83907" lon="4.73502">
        <ele>278.36827</ele>
        <time>2022-10-02T13:07:16.000Z</time>
      </trkpt>
      <trkpt lat="45.8391" lon="4.73499">
        <ele>278.3174</ele>
        <time>2022-10-02T13:07:17.000Z</time>
      </trkpt>
      <trkpt lat="45.83913" lon="4.73496">
        <ele>278.21854</ele>
        <time>2022-10-02T13:07:18.000Z</time>
      </trkpt>
      <trkpt lat="45.83917" lon="4.73493">
        <ele>278.07254</ele>
        <time>2022-10-02T13:07:19.000Z</time>
      </trkpt>
      <trkpt lat="45.8392" lon="4.73489">
        <ele>277.9011</ele>
        <time>2022-10-02T13:07:20.000Z</time>
      </trkpt>
      <trkpt lat="45.83924" lon="4.73486">
        <ele>277.77796</ele>
        <time>2022-10-02T13:07:21.000Z</time>
      </trkpt>
      <trkpt lat="45.83928" lon="4.73483">
        <ele>277.75233</ele>
        <time>2022-10-02T13:07:22.000Z</time>
      </trkpt>
      <trkpt lat="45.83932" lon="4.73481">
        <ele>277.81415</ele>
        <time>2022-10-02T13:07:23.000Z</time>
      </trkpt>
      <trkpt lat="45.83937" lon="4.7348">
        <ele>277.91515</ele>
        <time>2022-10-02T13:07:24.000Z</time>
      </trkpt>
      <trkpt lat="45.83941" lon="4.7348">
        <ele>278.00162</ele>
        <time>2022-10-02T13:07:25.000Z</time>
      </trkpt>
      <trkpt lat="45.83945" lon="4.7348">
        <ele>278.03915</ele>
        <time>2022-10-02T13:07:26.000Z</time>
      </trkpt>
      <trkpt lat="45.83948" lon="4.73479">
        <ele>277.9952</ele>
        <time>2022-10-02T13:07:27.000Z</time>
      </trkpt>
      <trkpt lat="45.83952" lon="4.73478">
        <ele>277.89538</ele>
        <time>2022-10-02T13:07:28.000Z</time>
      </trkpt>
      <trkpt lat="45.83956" lon="4.73475">
        <ele>277.76736</ele>
        <time>2022-10-02T13:07:29.000Z</time>
      </trkpt>
      <trkpt lat="45.8396" lon="4.73474">
        <ele>277.62136</ele>
        <time>2022-10-02T13:07:30.000Z</time>
      </trkpt>
      <trkpt lat="45.83964" lon="4.73478">
        <ele>277.47462</ele>
        <time>2022-10-02T13:07:31.000Z</time>
      </trkpt>
      <trkpt lat="45.83966" lon="4.73485">
        <ele>277.39752</ele>
        <time>2022-10-02T13:07:32.000Z</time>
      </trkpt>
      <trkpt lat="45.83969" lon="4.73489">
        <ele>277.26465</ele>
        <time>2022-10-02T13:07:33.000Z</time>
      </trkpt>
      <trkpt lat="45.83972" lon="4.73494">
        <ele>277.05388</ele>
        <time>2022-10-02T13:07:34.000Z</time>
      </trkpt>
      <trkpt lat="45.83976" lon="4.735">
        <ele>276.78032</ele>
        <time>2022-10-02T13:07:35.000Z</time>
      </trkpt>
      <trkpt lat="45.83981" lon="4.73506">
        <ele>276.41434</ele>
        <time>2022-10-02T13:07:36.000Z</time>
      </trkpt>
      <trkpt lat="45.83983" lon="4.73512">
        <ele>276.24058</ele>
        <time>2022-10-02T13:07:37.000Z</time>
      </trkpt>
      <trkpt lat="45.83986" lon="4.7352">
        <ele>275.89142</ele>
        <time>2022-10-02T13:07:38.000Z</time>
      </trkpt>
      <trkpt lat="45.8399" lon="4.73527">
        <ele>275.3956</ele>
        <time>2022-10-02T13:07:39.000Z</time>
      </trkpt>
      <trkpt lat="45.83994" lon="4.73536">
        <ele>274.83092</ele>
        <time>2022-10-02T13:07:40.000Z</time>
      </trkpt>
      <trkpt lat="45.83999" lon="4.73543">
        <ele>274.27087</ele>
        <time>2022-10-02T13:07:41.000Z</time>
      </trkpt>
      <trkpt lat="45.84003" lon="4.73548">
        <ele>273.77504</ele>
        <time>2022-10-02T13:07:42.000Z</time>
      </trkpt>
      <trkpt lat="45.84008" lon="4.73551">
        <ele>273.41709</ele>
        <time>2022-10-02T13:07:43.000Z</time>
      </trkpt>
      <trkpt lat="45.84009" lon="4.73553">
        <ele>273.24984</ele>
        <time>2022-10-02T13:07:44.000Z</time>
      </trkpt>
      <trkpt lat="45.84013" lon="4.73559">
        <ele>272.86825</ele>
        <time>2022-10-02T13:07:45.000Z</time>
      </trkpt>
      <trkpt lat="45.84014" lon="4.73563">
        <ele>272.74485</ele>
        <time>2022-10-02T13:07:46.000Z</time>
      </trkpt>
      <trkpt lat="45.84013" lon="4.73568">
        <ele>272.74952</ele>
        <time>2022-10-02T13:07:47.000Z</time>
      </trkpt>
      <trkpt lat="45.84011" lon="4.73571">
        <ele>272.8302</ele>
        <time>2022-10-02T13:07:48.000Z</time>
      </trkpt>
      <trkpt lat="45.8401" lon="4.73576">
        <ele>272.87027</ele>
        <time>2022-10-02T13:07:49.000Z</time>
      </trkpt>
      <trkpt lat="45.84009" lon="4.7358">
        <ele>272.82764</ele>
        <time>2022-10-02T13:07:50.000Z</time>
      </trkpt>
      <trkpt lat="45.84009" lon="4.73585">
        <ele>272.71199</ele>
        <time>2022-10-02T13:07:51.000Z</time>
      </trkpt>
      <trkpt lat="45.84008" lon="4.7359">
        <ele>272.54255</ele>
        <time>2022-10-02T13:07:52.000Z</time>
      </trkpt>
      <trkpt lat="45.84007" lon="4.73595">
        <ele>272.25859</ele>
        <time>2022-10-02T13:07:53.000Z</time>
      </trkpt>
      <trkpt lat="45.84005" lon="4.736">
        <ele>271.8423</ele>
        <time>2022-10-02T13:07:54.000Z</time>
      </trkpt>
      <trkpt lat="45.84002" lon="4.73606">
        <ele>271.27287</ele>
        <time>2022-10-02T13:07:55.000Z</time>
      </trkpt>
      <trkpt lat="45.83999" lon="4.73611">
        <ele>270.63101</ele>
        <time>2022-10-02T13:07:56.000Z</time>
      </trkpt>
      <trkpt lat="45.83993" lon="4.73616">
        <ele>270.0489</ele>
        <time>2022-10-02T13:07:57.000Z</time>
      </trkpt>
      <trkpt lat="45.83988" lon="4.7362">
        <ele>269.99738</ele>
        <time>2022-10-02T13:07:58.000Z</time>
      </trkpt>
      <trkpt lat="45.83982" lon="4.73622">
        <ele>270.63342</ele>
        <time>2022-10-02T13:07:59.000Z</time>
      </trkpt>
      <trkpt lat="45.83976" lon="4.73625">
        <ele>271.37655</ele>
        <time>2022-10-02T13:08:00.000Z</time>
      </trkpt>
      <trkpt lat="45.8397" lon="4.73626">
        <ele>272.12466</ele>
        <time>2022-10-02T13:08:01.000Z</time>
      </trkpt>
      <trkpt lat="45.83966" lon="4.73631">
        <ele>271.79726</ele>
        <time>2022-10-02T13:08:02.000Z</time>
      </trkpt>
      <trkpt lat="45.83961" lon="4.73635">
        <ele>271.7893</ele>
        <time>2022-10-02T13:08:03.000Z</time>
      </trkpt>
      <trkpt lat="45.83956" lon="4.73639">
        <ele>271.86514</ele>
        <time>2022-10-02T13:08:04.000Z</time>
      </trkpt>
      <trkpt lat="45.83953" lon="4.73644">
        <ele>271.87238</ele>
        <time>2022-10-02T13:08:05.000Z</time>
      </trkpt>
      <trkpt lat="45.83951" lon="4.73648">
        <ele>271.84974</ele>
        <time>2022-10-02T13:08:06.000Z</time>
      </trkpt>
      <trkpt lat="45.83948" lon="4.73654">
        <ele>272.26708</ele>
        <time>2022-10-02T13:08:07.000Z</time>
      </trkpt>
      <trkpt lat="45.83945" lon="4.7366">
        <ele>272.67196</ele>
        <time>2022-10-02T13:08:08.000Z</time>
      </trkpt>
      <trkpt lat="45.83948" lon="4.73657">
        <ele>272.07725</ele>
        <time>2022-10-02T13:08:09.000Z</time>
      </trkpt>
      <trkpt lat="45.83952" lon="4.73658">
        <ele>270.94334</ele>
        <time>2022-10-02T13:08:10.000Z</time>
      </trkpt>
      <trkpt lat="45.83956" lon="4.7366">
        <ele>269.78715</ele>
        <time>2022-10-02T13:08:11.000Z</time>
      </trkpt>
      <trkpt lat="45.83959" lon="4.73663">
        <ele>268.87989</ele>
        <time>2022-10-02T13:08:12.000Z</time>
      </trkpt>
      <trkpt lat="45.83961" lon="4.73666">
        <ele>268.327</ele>
        <time>2022-10-02T13:08:13.000Z</time>
      </trkpt>
      <trkpt lat="45.8396" lon="4.73671">
        <ele>268.58405</ele>
        <time>2022-10-02T13:08:15.000Z</time>
      </trkpt>
      <trkpt lat="45.83963" lon="4.73672">
        <ele>267.91015</ele>
        <time>2022-10-02T13:08:16.000Z</time>
      </trkpt>
      <trkpt lat="45.83965" lon="4.73674">
        <ele>267.59164</ele>
        <time>2022-10-02T13:08:17.000Z</time>
      </trkpt>
      <trkpt lat="45.83966" lon="4.73678">
        <ele>267.40941</ele>
        <time>2022-10-02T13:08:18.000Z</time>
      </trkpt>
      <trkpt lat="45.83966" lon="4.73682">
        <ele>267.38046</ele>
        <time>2022-10-02T13:08:19.000Z</time>
      </trkpt>
      <trkpt lat="45.83966" lon="4.73686">
        <ele>267.32315</ele>
        <time>2022-10-02T13:08:20.000Z</time>
      </trkpt>
      <trkpt lat="45.83965" lon="4.7369">
        <ele>267.25963</ele>
        <time>2022-10-02T13:08:21.000Z</time>
      </trkpt>
      <trkpt lat="45.83965" lon="4.73695">
        <ele>267.18059</ele>
        <time>2022-10-02T13:08:22.000Z</time>
      </trkpt>
      <trkpt lat="45.83964" lon="4.73698">
        <ele>267.16013</ele>
        <time>2022-10-02T13:08:23.000Z</time>
      </trkpt>
      <trkpt lat="45.83962" lon="4.73701">
        <ele>267.14876</ele>
        <time>2022-10-02T13:08:24.000Z</time>
      </trkpt>
      <trkpt lat="45.8396" lon="4.73703">
        <ele>267.1358</ele>
        <time>2022-10-02T13:08:25.000Z</time>
      </trkpt>
      <trkpt lat="45.83956" lon="4.73704">
        <ele>267.12101</ele>
        <time>2022-10-02T13:08:26.000Z</time>
      </trkpt>
      <trkpt lat="45.83953" lon="4.73705">
        <ele>267.04805</ele>
        <time>2022-10-02T13:08:27.000Z</time>
      </trkpt>
      <trkpt lat="45.83949" lon="4.73706">
        <ele>266.97911</ele>
        <time>2022-10-02T13:08:28.000Z</time>
      </trkpt>
      <trkpt lat="45.83946" lon="4.73708">
        <ele>266.88032</ele>
        <time>2022-10-02T13:08:29.000Z</time>
      </trkpt>
      <trkpt lat="45.83943" lon="4.73709">
        <ele>266.92728</ele>
        <time>2022-10-02T13:08:30.000Z</time>
      </trkpt>
      <trkpt lat="45.8394" lon="4.7371">
        <ele>267.35879</ele>
        <time>2022-10-02T13:08:31.000Z</time>
      </trkpt>
      <trkpt lat="45.83936" lon="4.7371">
        <ele>268.13644</ele>
        <time>2022-10-02T13:08:32.000Z</time>
      </trkpt>
      <trkpt lat="45.83933" lon="4.73712">
        <ele>269.12614</ele>
        <time>2022-10-02T13:08:33.000Z</time>
      </trkpt>
      <trkpt lat="45.83929" lon="4.73715">
        <ele>270.06099</ele>
        <time>2022-10-02T13:08:34.000Z</time>
      </trkpt>
      <trkpt lat="45.83927" lon="4.73718">
        <ele>270.87692</ele>
        <time>2022-10-02T13:08:35.000Z</time>
      </trkpt>
      <trkpt lat="45.83925" lon="4.73728">
        <ele>271.1291</ele>
        <time>2022-10-02T13:08:36.000Z</time>
      </trkpt>
      <trkpt lat="45.83923" lon="4.73737">
        <ele>271.64642</ele>
        <time>2022-10-02T13:08:37.000Z</time>
      </trkpt>
      <trkpt lat="45.83921" lon="4.73744">
        <ele>271.76381</ele>
        <time>2022-10-02T13:08:38.000Z</time>
      </trkpt>
      <trkpt lat="45.83921" lon="4.73753">
        <ele>271.02482</ele>
        <time>2022-10-02T13:08:39.000Z</time>
      </trkpt>
      <trkpt lat="45.8392" lon="4.73763">
        <ele>269.83678</ele>
        <time>2022-10-02T13:08:40.000Z</time>
      </trkpt>
      <trkpt lat="45.83925" lon="4.73771">
        <ele>267.52674</ele>
        <time>2022-10-02T13:08:41.000Z</time>
      </trkpt>
      <trkpt lat="45.8393" lon="4.73781">
        <ele>265.17904</ele>
        <time>2022-10-02T13:08:42.000Z</time>
      </trkpt>
      <trkpt lat="45.83933" lon="4.73789">
        <ele>263.80218</ele>
        <time>2022-10-02T13:08:43.000Z</time>
      </trkpt>
      <trkpt lat="45.83935" lon="4.73797">
        <ele>263.00926</ele>
        <time>2022-10-02T13:08:44.000Z</time>
      </trkpt>
      <trkpt lat="45.83941" lon="4.738">
        <ele>262.34938</ele>
        <time>2022-10-02T13:08:45.000Z</time>
      </trkpt>
      <trkpt lat="45.83946" lon="4.73807">
        <ele>261.69341</ele>
        <time>2022-10-02T13:08:46.000Z</time>
      </trkpt>
      <trkpt lat="45.83951" lon="4.73811">
        <ele>261.11797</ele>
        <time>2022-10-02T13:08:47.000Z</time>
      </trkpt>
      <trkpt lat="45.83956" lon="4.7382">
        <ele>261.28237</ele>
        <time>2022-10-02T13:08:48.000Z</time>
      </trkpt>
      <trkpt lat="45.83963" lon="4.7383">
        <ele>263.50697</ele>
        <time>2022-10-02T13:08:49.000Z</time>
      </trkpt>
      <trkpt lat="45.8397" lon="4.73835">
        <ele>264.01064</ele>
        <time>2022-10-02T13:08:50.000Z</time>
      </trkpt>
      <trkpt lat="45.83976" lon="4.73847">
        <ele>262.69065</ele>
        <time>2022-10-02T13:08:51.000Z</time>
      </trkpt>
      <trkpt lat="45.83982" lon="4.73845">
        <ele>260.32336</ele>
        <time>2022-10-02T13:08:52.000Z</time>
      </trkpt>
      <trkpt lat="45.83991" lon="4.73848">
        <ele>258.76912</ele>
        <time>2022-10-02T13:08:53.000Z</time>
      </trkpt>
      <trkpt lat="45.84002" lon="4.73847">
        <ele>258.50294</ele>
        <time>2022-10-02T13:08:54.000Z</time>
      </trkpt>
      <trkpt lat="45.84011" lon="4.73842">
        <ele>258.64009</ele>
        <time>2022-10-02T13:08:55.000Z</time>
      </trkpt>
      <trkpt lat="45.84018" lon="4.7384">
        <ele>258.79404</ele>
        <time>2022-10-02T13:08:56.000Z</time>
      </trkpt>
      <trkpt lat="45.84026" lon="4.73838">
        <ele>258.99937</ele>
        <time>2022-10-02T13:08:57.000Z</time>
      </trkpt>
      <trkpt lat="45.84033" lon="4.73835">
        <ele>258.95852</ele>
        <time>2022-10-02T13:08:58.000Z</time>
      </trkpt>
      <trkpt lat="45.8404" lon="4.73837">
        <ele>258.38285</ele>
        <time>2022-10-02T13:08:59.000Z</time>
      </trkpt>
      <trkpt lat="45.84045" lon="4.73832">
        <ele>258.14361</ele>
        <time>2022-10-02T13:09:00.000Z</time>
      </trkpt>
      <trkpt lat="45.84053" lon="4.73829">
        <ele>257.54501</ele>
        <time>2022-10-02T13:09:01.000Z</time>
      </trkpt>
      <trkpt lat="45.8406" lon="4.73826">
        <ele>257.17363</ele>
        <time>2022-10-02T13:09:02.000Z</time>
      </trkpt>
      <trkpt lat="45.84067" lon="4.73824">
        <ele>257.0258</ele>
        <time>2022-10-02T13:09:03.000Z</time>
      </trkpt>
      <trkpt lat="45.84075" lon="4.73822">
        <ele>256.96676</ele>
        <time>2022-10-02T13:09:04.000Z</time>
      </trkpt>
      <trkpt lat="45.84079" lon="4.73822">
        <ele>256.94781</ele>
        <time>2022-10-02T13:09:05.000Z</time>
      </trkpt>
      <trkpt lat="45.84084" lon="4.73821">
        <ele>256.97049</ele>
        <time>2022-10-02T13:09:06.000Z</time>
      </trkpt>
      <trkpt lat="45.84092" lon="4.73824">
        <ele>257.19569</ele>
        <time>2022-10-02T13:09:07.000Z</time>
      </trkpt>
      <trkpt lat="45.84096" lon="4.73824">
        <ele>257.2895</ele>
        <time>2022-10-02T13:09:08.000Z</time>
      </trkpt>
      <trkpt lat="45.841" lon="4.73823">
        <ele>257.34007</ele>
        <time>2022-10-02T13:09:09.000Z</time>
      </trkpt>
      <trkpt lat="45.84103" lon="4.73822">
        <ele>257.36334</ele>
        <time>2022-10-02T13:09:10.000Z</time>
      </trkpt>
      <trkpt lat="45.84105" lon="4.73823">
        <ele>257.41366</ele>
        <time>2022-10-02T13:09:11.000Z</time>
      </trkpt>
      <trkpt lat="45.84108" lon="4.73823">
        <ele>257.48137</ele>
        <time>2022-10-02T13:09:12.000Z</time>
      </trkpt>
      <trkpt lat="45.84112" lon="4.73822">
        <ele>257.54426</ele>
        <time>2022-10-02T13:09:13.000Z</time>
      </trkpt>
      <trkpt lat="45.84116" lon="4.73823">
        <ele>257.66065</ele>
        <time>2022-10-02T13:09:14.000Z</time>
      </trkpt>
      <trkpt lat="45.84119" lon="4.73822">
        <ele>257.69281</ele>
        <time>2022-10-02T13:09:15.000Z</time>
      </trkpt>
      <trkpt lat="45.84123" lon="4.73823">
        <ele>257.78152</ele>
        <time>2022-10-02T13:09:16.000Z</time>
      </trkpt>
      <trkpt lat="45.84125" lon="4.73823">
        <ele>257.86461</ele>
        <time>2022-10-02T13:09:17.000Z</time>
      </trkpt>
      <trkpt lat="45.84129" lon="4.73825">
        <ele>258.0018</ele>
        <time>2022-10-02T13:09:18.000Z</time>
      </trkpt>
      <trkpt lat="45.84132" lon="4.73826">
        <ele>258.10655</ele>
        <time>2022-10-02T13:09:19.000Z</time>
      </trkpt>
      <trkpt lat="45.84134" lon="4.73826">
        <ele>258.17688</ele>
        <time>2022-10-02T13:09:20.000Z</time>
      </trkpt>
      <trkpt lat="45.84138" lon="4.73826">
        <ele>258.27309</ele>
        <time>2022-10-02T13:09:21.000Z</time>
      </trkpt>
      <trkpt lat="45.84141" lon="4.73826">
        <ele>258.36405</ele>
        <time>2022-10-02T13:09:22.000Z</time>
      </trkpt>
      <trkpt lat="45.84143" lon="4.73826">
        <ele>258.449</ele>
        <time>2022-10-02T13:09:23.000Z</time>
      </trkpt>
      <trkpt lat="45.84146" lon="4.73826">
        <ele>258.5425</ele>
        <time>2022-10-02T13:09:24.000Z</time>
      </trkpt>
      <trkpt lat="45.84148" lon="4.73825">
        <ele>258.62693</ele>
        <time>2022-10-02T13:09:25.000Z</time>
      </trkpt>
      <trkpt lat="45.84151" lon="4.73826">
        <ele>258.7252</ele>
        <time>2022-10-02T13:09:26.000Z</time>
      </trkpt>
      <trkpt lat="45.84152" lon="4.73827">
        <ele>258.86086</ele>
        <time>2022-10-02T13:09:27.000Z</time>
      </trkpt>
      <trkpt lat="45.84153" lon="4.7383">
        <ele>259.0564</ele>
        <time>2022-10-02T13:09:28.000Z</time>
      </trkpt>
      <trkpt lat="45.84154" lon="4.73833">
        <ele>259.24897</ele>
        <time>2022-10-02T13:09:29.000Z</time>
      </trkpt>
      <trkpt lat="45.84154" lon="4.73836">
        <ele>259.48253</ele>
        <time>2022-10-02T13:09:30.000Z</time>
      </trkpt>
      <trkpt lat="45.84154" lon="4.73841">
        <ele>259.77265</ele>
        <time>2022-10-02T13:09:31.000Z</time>
      </trkpt>
      <trkpt lat="45.84154" lon="4.73844">
        <ele>259.9955</ele>
        <time>2022-10-02T13:09:32.000Z</time>
      </trkpt>
      <trkpt lat="45.84152" lon="4.73847">
        <ele>260.19666</ele>
        <time>2022-10-02T13:09:33.000Z</time>
      </trkpt>
      <trkpt lat="45.8415" lon="4.7385">
        <ele>260.32747</ele>
        <time>2022-10-02T13:09:34.000Z</time>
      </trkpt>
      <trkpt lat="45.8415" lon="4.7385">
        <ele>260.32747</ele>
        <time>2022-10-02T13:09:34.000Z</time>
      </trkpt>
      <trkpt lat="45.84148" lon="4.73852">
        <ele>260.43604</ele>
        <time>2022-10-02T13:09:35.000Z</time>
      </trkpt>
      <trkpt lat="45.84145" lon="4.73854">
        <ele>260.53998</ele>
        <time>2022-10-02T13:09:36.000Z</time>
      </trkpt>
      <trkpt lat="45.84143" lon="4.73856">
        <ele>260.6349</ele>
        <time>2022-10-02T13:09:37.000Z</time>
      </trkpt>
      <trkpt lat="45.84142" lon="4.73857">
        <ele>260.72588</ele>
        <time>2022-10-02T13:09:38.000Z</time>
      </trkpt>
      <trkpt lat="45.8414" lon="4.73859">
        <ele>260.89025</ele>
        <time>2022-10-02T13:09:39.000Z</time>
      </trkpt>
      <trkpt lat="45.84139" lon="4.73863">
        <ele>261.15923</ele>
        <time>2022-10-02T13:09:40.000Z</time>
      </trkpt>
      <trkpt lat="45.84137" lon="4.73866">
        <ele>261.44554</ele>
        <time>2022-10-02T13:09:41.000Z</time>
      </trkpt>
      <trkpt lat="45.84136" lon="4.73869">
        <ele>261.75622</ele>
        <time>2022-10-02T13:09:42.000Z</time>
      </trkpt>
      <trkpt lat="45.84134" lon="4.73873">
        <ele>262.05762</ele>
        <time>2022-10-02T13:09:43.000Z</time>
      </trkpt>
      <trkpt lat="45.84132" lon="4.73876">
        <ele>262.32184</ele>
        <time>2022-10-02T13:09:44.000Z</time>
      </trkpt>
      <trkpt lat="45.84131" lon="4.73879">
        <ele>262.63955</ele>
        <time>2022-10-02T13:09:45.000Z</time>
      </trkpt>
      <trkpt lat="45.8413" lon="4.73882">
        <ele>262.89744</ele>
        <time>2022-10-02T13:09:46.000Z</time>
      </trkpt>
      <trkpt lat="45.84129" lon="4.73884">
        <ele>263.10636</ele>
        <time>2022-10-02T13:09:47.000Z</time>
      </trkpt>
      <trkpt lat="45.84127" lon="4.73887">
        <ele>263.38525</ele>
        <time>2022-10-02T13:09:48.000Z</time>
      </trkpt>
      <trkpt lat="45.84126" lon="4.73889">
        <ele>263.60969</ele>
        <time>2022-10-02T13:09:49.000Z</time>
      </trkpt>
      <trkpt lat="45.84124" lon="4.73891">
        <ele>263.78682</ele>
        <time>2022-10-02T13:09:50.000Z</time>
      </trkpt>
      <trkpt lat="45.84122" lon="4.73894">
        <ele>263.96168</ele>
        <time>2022-10-02T13:09:51.000Z</time>
      </trkpt>
      <trkpt lat="45.8412" lon="4.73896">
        <ele>264.13926</ele>
        <time>2022-10-02T13:09:52.000Z</time>
      </trkpt>
      <trkpt lat="45.84118" lon="4.73898">
        <ele>264.328</ele>
        <time>2022-10-02T13:09:53.000Z</time>
      </trkpt>
      <trkpt lat="45.84117" lon="4.739">
        <ele>264.4565</ele>
        <time>2022-10-02T13:09:54.000Z</time>
      </trkpt>
      <trkpt lat="45.84115" lon="4.73902">
        <ele>264.53809</ele>
        <time>2022-10-02T13:09:55.000Z</time>
      </trkpt>
      <trkpt lat="45.84113" lon="4.73904">
        <ele>264.60623</ele>
        <time>2022-10-02T13:09:56.000Z</time>
      </trkpt>
      <trkpt lat="45.84111" lon="4.73907">
        <ele>264.69319</ele>
        <time>2022-10-02T13:09:57.000Z</time>
      </trkpt>
      <trkpt lat="45.84109" lon="4.73909">
        <ele>264.76174</ele>
        <time>2022-10-02T13:09:58.000Z</time>
      </trkpt>
      <trkpt lat="45.84108" lon="4.73911">
        <ele>264.92617</ele>
        <time>2022-10-02T13:09:59.000Z</time>
      </trkpt>
      <trkpt lat="45.84106" lon="4.73914">
        <ele>265.09442</ele>
        <time>2022-10-02T13:10:00.000Z</time>
      </trkpt>
      <trkpt lat="45.84105" lon="4.73916">
        <ele>265.23099</ele>
        <time>2022-10-02T13:10:01.000Z</time>
      </trkpt>
      <trkpt lat="45.84103" lon="4.73919">
        <ele>265.38955</ele>
        <time>2022-10-02T13:10:02.000Z</time>
      </trkpt>
      <trkpt lat="45.84101" lon="4.73922">
        <ele>265.46523</ele>
        <time>2022-10-02T13:10:03.000Z</time>
      </trkpt>
      <trkpt lat="45.841" lon="4.73924">
        <ele>265.53245</ele>
        <time>2022-10-02T13:10:04.000Z</time>
      </trkpt>
      <trkpt lat="45.84098" lon="4.73927">
        <ele>265.65874</ele>
        <time>2022-10-02T13:10:05.000Z</time>
      </trkpt>
      <trkpt lat="45.84096" lon="4.7393">
        <ele>265.78335</ele>
        <time>2022-10-02T13:10:06.000Z</time>
      </trkpt>
      <trkpt lat="45.84095" lon="4.73932">
        <ele>265.88436</ele>
        <time>2022-10-02T13:10:07.000Z</time>
      </trkpt>
      <trkpt lat="45.84093" lon="4.73935">
        <ele>265.95162</ele>
        <time>2022-10-02T13:10:08.000Z</time>
      </trkpt>
      <trkpt lat="45.84091" lon="4.73938">
        <ele>265.98427</ele>
        <time>2022-10-02T13:10:09.000Z</time>
      </trkpt>
      <trkpt lat="45.84089" lon="4.73942">
        <ele>265.94143</ele>
        <time>2022-10-02T13:10:10.000Z</time>
      </trkpt>
      <trkpt lat="45.84086" lon="4.73945">
        <ele>265.8444</ele>
        <time>2022-10-02T13:10:11.000Z</time>
      </trkpt>
      <trkpt lat="45.84084" lon="4.73947">
        <ele>265.64427</ele>
        <time>2022-10-02T13:10:12.000Z</time>
      </trkpt>
      <trkpt lat="45.84081" lon="4.73949">
        <ele>265.40675</ele>
        <time>2022-10-02T13:10:13.000Z</time>
      </trkpt>
      <trkpt lat="45.84079" lon="4.73952">
        <ele>265.24945</ele>
        <time>2022-10-02T13:10:14.000Z</time>
      </trkpt>
      <trkpt lat="45.84077" lon="4.73953">
        <ele>265.1013</ele>
        <time>2022-10-02T13:10:15.000Z</time>
      </trkpt>
      <trkpt lat="45.84075" lon="4.73956">
        <ele>264.95599</ele>
        <time>2022-10-02T13:10:16.000Z</time>
      </trkpt>
      <trkpt lat="45.84073" lon="4.73958">
        <ele>264.86136</ele>
        <time>2022-10-02T13:10:17.000Z</time>
      </trkpt>
      <trkpt lat="45.8407" lon="4.73961">
        <ele>264.75947</ele>
        <time>2022-10-02T13:10:18.000Z</time>
      </trkpt>
      <trkpt lat="45.84068" lon="4.73964">
        <ele>264.77616</ele>
        <time>2022-10-02T13:10:19.000Z</time>
      </trkpt>
      <trkpt lat="45.84066" lon="4.73967">
        <ele>264.80891</ele>
        <time>2022-10-02T13:10:20.000Z</time>
      </trkpt>
      <trkpt lat="45.84065" lon="4.7397">
        <ele>264.8174</ele>
        <time>2022-10-02T13:10:21.000Z</time>
      </trkpt>
      <trkpt lat="45.84063" lon="4.73972">
        <ele>264.79411</ele>
        <time>2022-10-02T13:10:22.000Z</time>
      </trkpt>
      <trkpt lat="45.84062" lon="4.73974">
        <ele>264.71608</ele>
        <time>2022-10-02T13:10:23.000Z</time>
      </trkpt>
      <trkpt lat="45.8406" lon="4.73975">
        <ele>264.56233</ele>
        <time>2022-10-02T13:10:24.000Z</time>
      </trkpt>
      <trkpt lat="45.84058" lon="4.73977">
        <ele>264.50452</ele>
        <time>2022-10-02T13:10:25.000Z</time>
      </trkpt>
      <trkpt lat="45.84056" lon="4.73981">
        <ele>264.52956</ele>
        <time>2022-10-02T13:10:26.000Z</time>
      </trkpt>
      <trkpt lat="45.84054" lon="4.73985">
        <ele>264.74355</ele>
        <time>2022-10-02T13:10:27.000Z</time>
      </trkpt>
      <trkpt lat="45.84052" lon="4.73989">
        <ele>264.98302</ele>
        <time>2022-10-02T13:10:28.000Z</time>
      </trkpt>
      <trkpt lat="45.84051" lon="4.73994">
        <ele>265.28191</ele>
        <time>2022-10-02T13:10:29.000Z</time>
      </trkpt>
      <trkpt lat="45.84049" lon="4.73999">
        <ele>265.58898</ele>
        <time>2022-10-02T13:10:30.000Z</time>
      </trkpt>
      <trkpt lat="45.84046" lon="4.74004">
        <ele>265.84443</ele>
        <time>2022-10-02T13:10:31.000Z</time>
      </trkpt>
      <trkpt lat="45.84044" lon="4.7401">
        <ele>266.02875</ele>
        <time>2022-10-02T13:10:32.000Z</time>
      </trkpt>
      <trkpt lat="45.84041" lon="4.74015">
        <ele>266.16472</ele>
        <time>2022-10-02T13:10:33.000Z</time>
      </trkpt>
      <trkpt lat="45.84039" lon="4.74021">
        <ele>266.3953</ele>
        <time>2022-10-02T13:10:34.000Z</time>
      </trkpt>
      <trkpt lat="45.84036" lon="4.74036">
        <ele>267.39215</ele>
        <time>2022-10-02T13:10:35.000Z</time>
      </trkpt>
      <trkpt lat="45.84034" lon="4.74043">
        <ele>267.70097</ele>
        <time>2022-10-02T13:10:36.000Z</time>
      </trkpt>
      <trkpt lat="45.84031" lon="4.74046">
        <ele>267.56238</ele>
        <time>2022-10-02T13:10:37.000Z</time>
      </trkpt>
      <trkpt lat="45.84029" lon="4.74052">
        <ele>267.62111</ele>
        <time>2022-10-02T13:10:38.000Z</time>
      </trkpt>
      <trkpt lat="45.84027" lon="4.74055">
        <ele>267.57899</ele>
        <time>2022-10-02T13:10:39.000Z</time>
      </trkpt>
      <trkpt lat="45.84023" lon="4.7406">
        <ele>267.34553</ele>
        <time>2022-10-02T13:10:40.000Z</time>
      </trkpt>
      <trkpt lat="45.84021" lon="4.74066">
        <ele>267.52668</ele>
        <time>2022-10-02T13:10:41.000Z</time>
      </trkpt>
      <trkpt lat="45.84017" lon="4.74069">
        <ele>267.2952</ele>
        <time>2022-10-02T13:10:42.000Z</time>
      </trkpt>
      <trkpt lat="45.84016" lon="4.74072">
        <ele>267.39466</ele>
        <time>2022-10-02T13:10:43.000Z</time>
      </trkpt>
      <trkpt lat="45.84014" lon="4.74076">
        <ele>267.36453</ele>
        <time>2022-10-02T13:10:44.000Z</time>
      </trkpt>
      <trkpt lat="45.84011" lon="4.74079">
        <ele>267.10208</ele>
        <time>2022-10-02T13:10:45.000Z</time>
      </trkpt>
      <trkpt lat="45.84008" lon="4.74082">
        <ele>266.91455</ele>
        <time>2022-10-02T13:10:46.000Z</time>
      </trkpt>
      <trkpt lat="45.84005" lon="4.74087">
        <ele>266.79357</ele>
        <time>2022-10-02T13:10:47.000Z</time>
      </trkpt>
      <trkpt lat="45.84003" lon="4.74091">
        <ele>266.65241</ele>
        <time>2022-10-02T13:10:48.000Z</time>
      </trkpt>
      <trkpt lat="45.84001" lon="4.74094">
        <ele>266.53547</ele>
        <time>2022-10-02T13:10:49.000Z</time>
      </trkpt>
      <trkpt lat="45.83998" lon="4.74096">
        <ele>266.3569</ele>
        <time>2022-10-02T13:10:50.000Z</time>
      </trkpt>
      <trkpt lat="45.83997" lon="4.74098">
        <ele>266.20688</ele>
        <time>2022-10-02T13:10:51.000Z</time>
      </trkpt>
      <trkpt lat="45.83995" lon="4.74101">
        <ele>266.1676</ele>
        <time>2022-10-02T13:10:52.000Z</time>
      </trkpt>
      <trkpt lat="45.83994" lon="4.74104">
        <ele>266.19175</ele>
        <time>2022-10-02T13:10:53.000Z</time>
      </trkpt>
      <trkpt lat="45.83993" lon="4.74106">
        <ele>266.288</ele>
        <time>2022-10-02T13:10:54.000Z</time>
      </trkpt>
      <trkpt lat="45.83992" lon="4.7411">
        <ele>266.48492</ele>
        <time>2022-10-02T13:10:55.000Z</time>
      </trkpt>
      <trkpt lat="45.83991" lon="4.74114">
        <ele>266.70605</ele>
        <time>2022-10-02T13:10:56.000Z</time>
      </trkpt>
      <trkpt lat="45.8399" lon="4.74119">
        <ele>266.89659</ele>
        <time>2022-10-02T13:10:57.000Z</time>
      </trkpt>
      <trkpt lat="45.83989" lon="4.74123">
        <ele>266.99941</ele>
        <time>2022-10-02T13:10:58.000Z</time>
      </trkpt>
      <trkpt lat="45.83987" lon="4.74127">
        <ele>267.04069</ele>
        <time>2022-10-02T13:10:59.000Z</time>
      </trkpt>
      <trkpt lat="45.83986" lon="4.74131">
        <ele>267.13245</ele>
        <time>2022-10-02T13:11:00.000Z</time>
      </trkpt>
      <trkpt lat="45.83986" lon="4.74135">
        <ele>267.35334</ele>
        <time>2022-10-02T13:11:01.000Z</time>
      </trkpt>
      <trkpt lat="45.83985" lon="4.74139">
        <ele>267.55068</ele>
        <time>2022-10-02T13:11:02.000Z</time>
      </trkpt>
      <trkpt lat="45.83984" lon="4.74144">
        <ele>267.80969</ele>
        <time>2022-10-02T13:11:03.000Z</time>
      </trkpt>
      <trkpt lat="45.83983" lon="4.74149">
        <ele>267.9777</ele>
        <time>2022-10-02T13:11:04.000Z</time>
      </trkpt>
      <trkpt lat="45.83982" lon="4.74153">
        <ele>268.12346</ele>
        <time>2022-10-02T13:11:05.000Z</time>
      </trkpt>
      <trkpt lat="45.83981" lon="4.74158">
        <ele>268.35182</ele>
        <time>2022-10-02T13:11:06.000Z</time>
      </trkpt>
      <trkpt lat="45.8398" lon="4.74164">
        <ele>268.65869</ele>
        <time>2022-10-02T13:11:07.000Z</time>
      </trkpt>
      <trkpt lat="45.83979" lon="4.7417">
        <ele>268.85106</ele>
        <time>2022-10-02T13:11:08.000Z</time>
      </trkpt>
      <trkpt lat="45.83977" lon="4.74176">
        <ele>269.1231</ele>
        <time>2022-10-02T13:11:09.000Z</time>
      </trkpt>
      <trkpt lat="45.83976" lon="4.74182">
        <ele>269.44237</ele>
        <time>2022-10-02T13:11:10.000Z</time>
      </trkpt>
      <trkpt lat="45.83975" lon="4.74188">
        <ele>269.67469</ele>
        <time>2022-10-02T13:11:11.000Z</time>
      </trkpt>
      <trkpt lat="45.83974" lon="4.74193">
        <ele>269.75521</ele>
        <time>2022-10-02T13:11:12.000Z</time>
      </trkpt>
      <trkpt lat="45.83972" lon="4.74199">
        <ele>269.76167</ele>
        <time>2022-10-02T13:11:13.000Z</time>
      </trkpt>
      <trkpt lat="45.83971" lon="4.74205">
        <ele>269.67725</ele>
        <time>2022-10-02T13:11:14.000Z</time>
      </trkpt>
      <trkpt lat="45.83969" lon="4.7421">
        <ele>269.55006</ele>
        <time>2022-10-02T13:11:15.000Z</time>
      </trkpt>
      <trkpt lat="45.83968" lon="4.74215">
        <ele>269.39373</ele>
        <time>2022-10-02T13:11:16.000Z</time>
      </trkpt>
      <trkpt lat="45.83966" lon="4.74221">
        <ele>269.17265</ele>
        <time>2022-10-02T13:11:17.000Z</time>
      </trkpt>
      <trkpt lat="45.83965" lon="4.74227">
        <ele>268.98403</ele>
        <time>2022-10-02T13:11:18.000Z</time>
      </trkpt>
      <trkpt lat="45.83964" lon="4.74233">
        <ele>268.76904</ele>
        <time>2022-10-02T13:11:19.000Z</time>
      </trkpt>
      <trkpt lat="45.83962" lon="4.74238">
        <ele>268.50734</ele>
        <time>2022-10-02T13:11:20.000Z</time>
      </trkpt>
      <trkpt lat="45.83961" lon="4.74244">
        <ele>268.16893</ele>
        <time>2022-10-02T13:11:21.000Z</time>
      </trkpt>
      <trkpt lat="45.83959" lon="4.7425">
        <ele>267.83012</ele>
        <time>2022-10-02T13:11:22.000Z</time>
      </trkpt>
      <trkpt lat="45.83959" lon="4.74254">
        <ele>267.6937</ele>
        <time>2022-10-02T13:11:23.000Z</time>
      </trkpt>
      <trkpt lat="45.83959" lon="4.74259">
        <ele>267.57755</ele>
        <time>2022-10-02T13:11:24.000Z</time>
      </trkpt>
      <trkpt lat="45.83959" lon="4.74264">
        <ele>267.46517</ele>
        <time>2022-10-02T13:11:25.000Z</time>
      </trkpt>
      <trkpt lat="45.83959" lon="4.74268">
        <ele>267.36789</ele>
        <time>2022-10-02T13:11:26.000Z</time>
      </trkpt>
      <trkpt lat="45.83959" lon="4.74272">
        <ele>267.25007</ele>
        <time>2022-10-02T13:11:27.000Z</time>
      </trkpt>
      <trkpt lat="45.83959" lon="4.74276">
        <ele>267.13058</ele>
        <time>2022-10-02T13:11:28.000Z</time>
      </trkpt>
      <trkpt lat="45.83959" lon="4.7428">
        <ele>266.93537</ele>
        <time>2022-10-02T13:11:29.000Z</time>
      </trkpt>
      <trkpt lat="45.83957" lon="4.74284">
        <ele>266.50591</ele>
        <time>2022-10-02T13:11:30.000Z</time>
      </trkpt>
      <trkpt lat="45.83955" lon="4.74287">
        <ele>266.07552</ele>
        <time>2022-10-02T13:11:31.000Z</time>
      </trkpt>
      <trkpt lat="45.83952" lon="4.74289">
        <ele>265.65536</ele>
        <time>2022-10-02T13:11:32.000Z</time>
      </trkpt>
      <trkpt lat="45.83949" lon="4.7429">
        <ele>265.32576</ele>
        <time>2022-10-02T13:11:33.000Z</time>
      </trkpt>
      <trkpt lat="45.83947" lon="4.74293">
        <ele>265.0404</ele>
        <time>2022-10-02T13:11:35.000Z</time>
      </trkpt>
      <trkpt lat="45.83947" lon="4.74296">
        <ele>265.01947</ele>
        <time>2022-10-02T13:11:36.000Z</time>
      </trkpt>
      <trkpt lat="45.83947" lon="4.74301">
        <ele>265.0062</ele>
        <time>2022-10-02T13:11:38.000Z</time>
      </trkpt>
      <trkpt lat="45.83946" lon="4.74304">
        <ele>264.94829</ele>
        <time>2022-10-02T13:11:39.000Z</time>
      </trkpt>
      <trkpt lat="45.83945" lon="4.74308">
        <ele>264.92986</ele>
        <time>2022-10-02T13:11:40.000Z</time>
      </trkpt>
      <trkpt lat="45.83944" lon="4.74312">
        <ele>264.93909</ele>
        <time>2022-10-02T13:11:41.000Z</time>
      </trkpt>
      <trkpt lat="45.83944" lon="4.74316">
        <ele>265.00009</ele>
        <time>2022-10-02T13:11:42.000Z</time>
      </trkpt>
      <trkpt lat="45.83944" lon="4.7432">
        <ele>265.09218</ele>
        <time>2022-10-02T13:11:43.000Z</time>
      </trkpt>
      <trkpt lat="45.83944" lon="4.74325">
        <ele>265.20927</ele>
        <time>2022-10-02T13:11:44.000Z</time>
      </trkpt>
      <trkpt lat="45.83944" lon="4.74329">
        <ele>265.33099</ele>
        <time>2022-10-02T13:11:45.000Z</time>
      </trkpt>
      <trkpt lat="45.83944" lon="4.74333">
        <ele>265.45638</ele>
        <time>2022-10-02T13:11:46.000Z</time>
      </trkpt>
      <trkpt lat="45.83945" lon="4.74336">
        <ele>265.59887</ele>
        <time>2022-10-02T13:11:47.000Z</time>
      </trkpt>
      <trkpt lat="45.83946" lon="4.74339">
        <ele>265.75396</ele>
        <time>2022-10-02T13:11:48.000Z</time>
      </trkpt>
      <trkpt lat="45.83946" lon="4.74342">
        <ele>265.8989</ele>
        <time>2022-10-02T13:11:49.000Z</time>
      </trkpt>
      <trkpt lat="45.83947" lon="4.74345">
        <ele>266.06913</ele>
        <time>2022-10-02T13:11:50.000Z</time>
      </trkpt>
      <trkpt lat="45.83947" lon="4.74348">
        <ele>266.26502</ele>
        <time>2022-10-02T13:11:51.000Z</time>
      </trkpt>
      <trkpt lat="45.83947" lon="4.74353">
        <ele>266.43026</ele>
        <time>2022-10-02T13:11:52.000Z</time>
      </trkpt>
      <trkpt lat="45.83945" lon="4.74358">
        <ele>266.5613</ele>
        <time>2022-10-02T13:11:53.000Z</time>
      </trkpt>
      <trkpt lat="45.83944" lon="4.74361">
        <ele>266.62796</ele>
        <time>2022-10-02T13:11:54.000Z</time>
      </trkpt>
      <trkpt lat="45.83943" lon="4.74365">
        <ele>266.71524</ele>
        <time>2022-10-02T13:11:56.000Z</time>
      </trkpt>
      <trkpt lat="45.83943" lon="4.74368">
        <ele>266.75935</ele>
        <time>2022-10-02T13:11:57.000Z</time>
      </trkpt>
      <trkpt lat="45.83942" lon="4.74373">
        <ele>266.83505</ele>
        <time>2022-10-02T13:11:58.000Z</time>
      </trkpt>
      <trkpt lat="45.83941" lon="4.74378">
        <ele>266.89388</ele>
        <time>2022-10-02T13:11:59.000Z</time>
      </trkpt>
      <trkpt lat="45.83939" lon="4.74384">
        <ele>266.99322</ele>
        <time>2022-10-02T13:12:00.000Z</time>
      </trkpt>
      <trkpt lat="45.83937" lon="4.7439">
        <ele>267.14327</ele>
        <time>2022-10-02T13:12:01.000Z</time>
      </trkpt>
      <trkpt lat="45.83935" lon="4.74397">
        <ele>267.41571</ele>
        <time>2022-10-02T13:12:02.000Z</time>
      </trkpt>
      <trkpt lat="45.83933" lon="4.74404">
        <ele>267.74082</ele>
        <time>2022-10-02T13:12:03.000Z</time>
      </trkpt>
      <trkpt lat="45.83932" lon="4.74409">
        <ele>268.0662</ele>
        <time>2022-10-02T13:12:04.000Z</time>
      </trkpt>
      <trkpt lat="45.8393" lon="4.74415">
        <ele>268.40873</ele>
        <time>2022-10-02T13:12:05.000Z</time>
      </trkpt>
      <trkpt lat="45.83928" lon="4.74419">
        <ele>268.71141</ele>
        <time>2022-10-02T13:12:06.000Z</time>
      </trkpt>
      <trkpt lat="45.83927" lon="4.74423">
        <ele>268.91667</ele>
        <time>2022-10-02T13:12:07.000Z</time>
      </trkpt>
      <trkpt lat="45.83925" lon="4.74427">
        <ele>269.10839</ele>
        <time>2022-10-02T13:12:08.000Z</time>
      </trkpt>
      <trkpt lat="45.83923" lon="4.74431">
        <ele>269.32961</ele>
        <time>2022-10-02T13:12:09.000Z</time>
      </trkpt>
      <trkpt lat="45.83921" lon="4.74436">
        <ele>269.57339</ele>
        <time>2022-10-02T13:12:10.000Z</time>
      </trkpt>
      <trkpt lat="45.83919" lon="4.7444">
        <ele>269.84436</ele>
        <time>2022-10-02T13:12:11.000Z</time>
      </trkpt>
      <trkpt lat="45.83917" lon="4.74445">
        <ele>270.06096</ele>
        <time>2022-10-02T13:12:12.000Z</time>
      </trkpt>
      <trkpt lat="45.83915" lon="4.7445">
        <ele>270.27418</ele>
        <time>2022-10-02T13:12:13.000Z</time>
      </trkpt>
      <trkpt lat="45.83913" lon="4.74454">
        <ele>270.44159</ele>
        <time>2022-10-02T13:12:14.000Z</time>
      </trkpt>
      <trkpt lat="45.83911" lon="4.74459">
        <ele>270.59637</ele>
        <time>2022-10-02T13:12:15.000Z</time>
      </trkpt>
      <trkpt lat="45.83909" lon="4.74463">
        <ele>270.71337</ele>
        <time>2022-10-02T13:12:16.000Z</time>
      </trkpt>
      <trkpt lat="45.83907" lon="4.74468">
        <ele>270.76447</ele>
        <time>2022-10-02T13:12:17.000Z</time>
      </trkpt>
      <trkpt lat="45.83905" lon="4.74472">
        <ele>270.72512</ele>
        <time>2022-10-02T13:12:18.000Z</time>
      </trkpt>
      <trkpt lat="45.83903" lon="4.74475">
        <ele>270.6835</ele>
        <time>2022-10-02T13:12:19.000Z</time>
      </trkpt>
      <trkpt lat="45.83902" lon="4.74479">
        <ele>270.69391</ele>
        <time>2022-10-02T13:12:20.000Z</time>
      </trkpt>
      <trkpt lat="45.839" lon="4.74484">
        <ele>270.75881</ele>
        <time>2022-10-02T13:12:21.000Z</time>
      </trkpt>
      <trkpt lat="45.83899" lon="4.74488">
        <ele>270.77619</ele>
        <time>2022-10-02T13:12:22.000Z</time>
      </trkpt>
      <trkpt lat="45.83897" lon="4.74494">
        <ele>270.81725</ele>
        <time>2022-10-02T13:12:23.000Z</time>
      </trkpt>
      <trkpt lat="45.83897" lon="4.745">
        <ele>270.94431</ele>
        <time>2022-10-02T13:12:24.000Z</time>
      </trkpt>
      <trkpt lat="45.83896" lon="4.74505">
        <ele>271.10135</ele>
        <time>2022-10-02T13:12:25.000Z</time>
      </trkpt>
      <trkpt lat="45.83896" lon="4.74509">
        <ele>271.30087</ele>
        <time>2022-10-02T13:12:26.000Z</time>
      </trkpt>
      <trkpt lat="45.83896" lon="4.74514">
        <ele>271.49591</ele>
        <time>2022-10-02T13:12:27.000Z</time>
      </trkpt>
      <trkpt lat="45.83896" lon="4.74519">
        <ele>271.55622</ele>
        <time>2022-10-02T13:12:28.000Z</time>
      </trkpt>
      <trkpt lat="45.83896" lon="4.74524">
        <ele>271.68042</ele>
        <time>2022-10-02T13:12:29.000Z</time>
      </trkpt>
      <trkpt lat="45.83896" lon="4.74528">
        <ele>271.81829</ele>
        <time>2022-10-02T13:12:30.000Z</time>
      </trkpt>
      <trkpt lat="45.83897" lon="4.74533">
        <ele>271.97206</ele>
        <time>2022-10-02T13:12:31.000Z</time>
      </trkpt>
      <trkpt lat="45.83898" lon="4.74538">
        <ele>272.19404</ele>
        <time>2022-10-02T13:12:32.000Z</time>
      </trkpt>
      <trkpt lat="45.83899" lon="4.74543">
        <ele>272.4216</ele>
        <time>2022-10-02T13:12:33.000Z</time>
      </trkpt>
      <trkpt lat="45.839" lon="4.74548">
        <ele>272.54789</ele>
        <time>2022-10-02T13:12:34.000Z</time>
      </trkpt>
      <trkpt lat="45.83901" lon="4.74554">
        <ele>272.51929</ele>
        <time>2022-10-02T13:12:35.000Z</time>
      </trkpt>
      <trkpt lat="45.83902" lon="4.74559">
        <ele>272.43394</ele>
        <time>2022-10-02T13:12:36.000Z</time>
      </trkpt>
      <trkpt lat="45.83903" lon="4.74564">
        <ele>272.30707</ele>
        <time>2022-10-02T13:12:37.000Z</time>
      </trkpt>
      <trkpt lat="45.83904" lon="4.7457">
        <ele>271.97978</ele>
        <time>2022-10-02T13:12:38.000Z</time>
      </trkpt>
      <trkpt lat="45.83905" lon="4.74576">
        <ele>271.49034</ele>
        <time>2022-10-02T13:12:39.000Z</time>
      </trkpt>
      <trkpt lat="45.83905" lon="4.74582">
        <ele>271.01508</ele>
        <time>2022-10-02T13:12:40.000Z</time>
      </trkpt>
      <trkpt lat="45.83904" lon="4.74588">
        <ele>270.63177</ele>
        <time>2022-10-02T13:12:41.000Z</time>
      </trkpt>
      <trkpt lat="45.83902" lon="4.74594">
        <ele>270.24728</ele>
        <time>2022-10-02T13:12:42.000Z</time>
      </trkpt>
      <trkpt lat="45.83901" lon="4.74601">
        <ele>270.00428</ele>
        <time>2022-10-02T13:12:43.000Z</time>
      </trkpt>
      <trkpt lat="45.83899" lon="4.74606">
        <ele>269.93146</ele>
        <time>2022-10-02T13:12:44.000Z</time>
      </trkpt>
      <trkpt lat="45.83897" lon="4.74611">
        <ele>270.0094</ele>
        <time>2022-10-02T13:12:45.000Z</time>
      </trkpt>
      <trkpt lat="45.83895" lon="4.74616">
        <ele>270.17099</ele>
        <time>2022-10-02T13:12:46.000Z</time>
      </trkpt>
      <trkpt lat="45.83892" lon="4.7462">
        <ele>270.36199</ele>
        <time>2022-10-02T13:12:47.000Z</time>
      </trkpt>
      <trkpt lat="45.8389" lon="4.74623">
        <ele>270.48831</ele>
        <time>2022-10-02T13:12:48.000Z</time>
      </trkpt>
      <trkpt lat="45.83887" lon="4.74626">
        <ele>270.62665</ele>
        <time>2022-10-02T13:12:49.000Z</time>
      </trkpt>
      <trkpt lat="45.83884" lon="4.74628">
        <ele>270.73393</ele>
        <time>2022-10-02T13:12:50.000Z</time>
      </trkpt>
      <trkpt lat="45.83882" lon="4.7463">
        <ele>270.81988</ele>
        <time>2022-10-02T13:12:51.000Z</time>
      </trkpt>
      <trkpt lat="45.83879" lon="4.74632">
        <ele>270.85789</ele>
        <time>2022-10-02T13:12:52.000Z</time>
      </trkpt>
      <trkpt lat="45.83877" lon="4.74634">
        <ele>270.83286</ele>
        <time>2022-10-02T13:12:53.000Z</time>
      </trkpt>
      <trkpt lat="45.83875" lon="4.74636">
        <ele>270.81403</ele>
        <time>2022-10-02T13:12:54.000Z</time>
      </trkpt>
      <trkpt lat="45.83873" lon="4.74638">
        <ele>270.86397</ele>
        <time>2022-10-02T13:12:55.000Z</time>
      </trkpt>
      <trkpt lat="45.83871" lon="4.7464">
        <ele>270.95611</ele>
        <time>2022-10-02T13:12:56.000Z</time>
      </trkpt>
      <trkpt lat="45.83869" lon="4.74643">
        <ele>271.11621</ele>
        <time>2022-10-02T13:12:57.000Z</time>
      </trkpt>
      <trkpt lat="45.83868" lon="4.74647">
        <ele>271.37697</ele>
        <time>2022-10-02T13:12:58.000Z</time>
      </trkpt>
      <trkpt lat="45.83867" lon="4.74651">
        <ele>271.73039</ele>
        <time>2022-10-02T13:12:59.000Z</time>
      </trkpt>
      <trkpt lat="45.83866" lon="4.74655">
        <ele>272.10243</ele>
        <time>2022-10-02T13:13:00.000Z</time>
      </trkpt>
      <trkpt lat="45.83864" lon="4.74659">
        <ele>272.36422</ele>
        <time>2022-10-02T13:13:01.000Z</time>
      </trkpt>
      <trkpt lat="45.83861" lon="4.74662">
        <ele>272.5409</ele>
        <time>2022-10-02T13:13:02.000Z</time>
      </trkpt>
      <trkpt lat="45.8386" lon="4.74666">
        <ele>272.75476</ele>
        <time>2022-10-02T13:13:03.000Z</time>
      </trkpt>
      <trkpt lat="45.83858" lon="4.7467">
        <ele>272.94893</ele>
        <time>2022-10-02T13:13:04.000Z</time>
      </trkpt>
      <trkpt lat="45.83857" lon="4.74673">
        <ele>273.07478</ele>
        <time>2022-10-02T13:13:05.000Z</time>
      </trkpt>
      <trkpt lat="45.83855" lon="4.74675">
        <ele>273.03336</ele>
        <time>2022-10-02T13:13:06.000Z</time>
      </trkpt>
      <trkpt lat="45.83854" lon="4.74678">
        <ele>273.04101</ele>
        <time>2022-10-02T13:13:07.000Z</time>
      </trkpt>
      <trkpt lat="45.83852" lon="4.74681">
        <ele>272.98817</ele>
        <time>2022-10-02T13:13:08.000Z</time>
      </trkpt>
      <trkpt lat="45.8385" lon="4.74683">
        <ele>272.90642</ele>
        <time>2022-10-02T13:13:09.000Z</time>
      </trkpt>
      <trkpt lat="45.83848" lon="4.74686">
        <ele>272.78408</ele>
        <time>2022-10-02T13:13:10.000Z</time>
      </trkpt>
      <trkpt lat="45.83846" lon="4.74689">
        <ele>272.67193</ele>
        <time>2022-10-02T13:13:11.000Z</time>
      </trkpt>
      <trkpt lat="45.83843" lon="4.74691">
        <ele>272.49939</ele>
        <time>2022-10-02T13:13:12.000Z</time>
      </trkpt>
      <trkpt lat="45.8384" lon="4.74693">
        <ele>272.39156</ele>
        <time>2022-10-02T13:13:13.000Z</time>
      </trkpt>
      <trkpt lat="45.83837" lon="4.74696">
        <ele>272.35286</ele>
        <time>2022-10-02T13:13:14.000Z</time>
      </trkpt>
      <trkpt lat="45.83834" lon="4.74698">
        <ele>272.41185</ele>
        <time>2022-10-02T13:13:15.000Z</time>
      </trkpt>
      <trkpt lat="45.83831" lon="4.74701">
        <ele>272.61553</ele>
        <time>2022-10-02T13:13:16.000Z</time>
      </trkpt>
      <trkpt lat="45.83828" lon="4.74703">
        <ele>272.96766</ele>
        <time>2022-10-02T13:13:17.000Z</time>
      </trkpt>
      <trkpt lat="45.83825" lon="4.74706">
        <ele>273.34049</ele>
        <time>2022-10-02T13:13:18.000Z</time>
      </trkpt>
      <trkpt lat="45.83822" lon="4.74708">
        <ele>273.72178</ele>
        <time>2022-10-02T13:13:19.000Z</time>
      </trkpt>
      <trkpt lat="45.8382" lon="4.7471">
        <ele>274.08152</ele>
        <time>2022-10-02T13:13:20.000Z</time>
      </trkpt>
      <trkpt lat="45.83817" lon="4.74712">
        <ele>274.41548</ele>
        <time>2022-10-02T13:13:21.000Z</time>
      </trkpt>
      <trkpt lat="45.83815" lon="4.74714">
        <ele>274.70873</ele>
        <time>2022-10-02T13:13:22.000Z</time>
      </trkpt>
      <trkpt lat="45.83812" lon="4.74717">
        <ele>274.98256</ele>
        <time>2022-10-02T13:13:23.000Z</time>
      </trkpt>
      <trkpt lat="45.8381" lon="4.74719">
        <ele>275.17968</ele>
        <time>2022-10-02T13:13:24.000Z</time>
      </trkpt>
      <trkpt lat="45.83807" lon="4.74721">
        <ele>275.33264</ele>
        <time>2022-10-02T13:13:25.000Z</time>
      </trkpt>
      <trkpt lat="45.83805" lon="4.74723">
        <ele>275.5123</ele>
        <time>2022-10-02T13:13:26.000Z</time>
      </trkpt>
      <trkpt lat="45.83803" lon="4.74726">
        <ele>275.66997</ele>
        <time>2022-10-02T13:13:27.000Z</time>
      </trkpt>
      <trkpt lat="45.83801" lon="4.74729">
        <ele>275.89287</ele>
        <time>2022-10-02T13:13:28.000Z</time>
      </trkpt>
      <trkpt lat="45.83798" lon="4.74732">
        <ele>276.11922</ele>
        <time>2022-10-02T13:13:29.000Z</time>
      </trkpt>
      <trkpt lat="45.83797" lon="4.74734">
        <ele>276.25367</ele>
        <time>2022-10-02T13:13:30.000Z</time>
      </trkpt>
      <trkpt lat="45.83795" lon="4.74736">
        <ele>276.29545</ele>
        <time>2022-10-02T13:13:31.000Z</time>
      </trkpt>
      <trkpt lat="45.83792" lon="4.74738">
        <ele>276.31724</ele>
        <time>2022-10-02T13:13:32.000Z</time>
      </trkpt>
      <trkpt lat="45.8379" lon="4.74741">
        <ele>276.4444</ele>
        <time>2022-10-02T13:13:33.000Z</time>
      </trkpt>
      <trkpt lat="45.83788" lon="4.74744">
        <ele>276.60751</ele>
        <time>2022-10-02T13:13:34.000Z</time>
      </trkpt>
      <trkpt lat="45.83787" lon="4.74748">
        <ele>276.78994</ele>
        <time>2022-10-02T13:13:35.000Z</time>
      </trkpt>
      <trkpt lat="45.83785" lon="4.74751">
        <ele>276.97173</ele>
        <time>2022-10-02T13:13:36.000Z</time>
      </trkpt>
      <trkpt lat="45.83783" lon="4.74754">
        <ele>277.16843</ele>
        <time>2022-10-02T13:13:37.000Z</time>
      </trkpt>
      <trkpt lat="45.83782" lon="4.74759">
        <ele>277.42359</ele>
        <time>2022-10-02T13:13:38.000Z</time>
      </trkpt>
      <trkpt lat="45.8378" lon="4.74763">
        <ele>277.77999</ele>
        <time>2022-10-02T13:13:39.000Z</time>
      </trkpt>
      <trkpt lat="45.83779" lon="4.74766">
        <ele>277.95652</ele>
        <time>2022-10-02T13:13:40.000Z</time>
      </trkpt>
      <trkpt lat="45.83778" lon="4.7477">
        <ele>278.0477</ele>
        <time>2022-10-02T13:13:41.000Z</time>
      </trkpt>
      <trkpt lat="45.83775" lon="4.74774">
        <ele>278.0455</ele>
        <time>2022-10-02T13:13:42.000Z</time>
      </trkpt>
      <trkpt lat="45.83773" lon="4.74777">
        <ele>277.9171</ele>
        <time>2022-10-02T13:13:43.000Z</time>
      </trkpt>
      <trkpt lat="45.8377" lon="4.74782">
        <ele>277.70652</ele>
        <time>2022-10-02T13:13:44.000Z</time>
      </trkpt>
      <trkpt lat="45.83767" lon="4.74786">
        <ele>277.57969</ele>
        <time>2022-10-02T13:13:45.000Z</time>
      </trkpt>
      <trkpt lat="45.83764" lon="4.7479">
        <ele>277.42314</ele>
        <time>2022-10-02T13:13:46.000Z</time>
      </trkpt>
      <trkpt lat="45.83761" lon="4.74795">
        <ele>277.32648</ele>
        <time>2022-10-02T13:13:47.000Z</time>
      </trkpt>
      <trkpt lat="45.83758" lon="4.74799">
        <ele>277.09506</ele>
        <time>2022-10-02T13:13:48.000Z</time>
      </trkpt>
      <trkpt lat="45.83754" lon="4.74804">
        <ele>276.80761</ele>
        <time>2022-10-02T13:13:49.000Z</time>
      </trkpt>
      <trkpt lat="45.8375" lon="4.74809">
        <ele>276.40076</ele>
        <time>2022-10-02T13:13:50.000Z</time>
      </trkpt>
      <trkpt lat="45.83746" lon="4.74813">
        <ele>276.04279</ele>
        <time>2022-10-02T13:13:51.000Z</time>
      </trkpt>
      <trkpt lat="45.83742" lon="4.74817">
        <ele>275.79339</ele>
        <time>2022-10-02T13:13:52.000Z</time>
      </trkpt>
      <trkpt lat="45.83739" lon="4.74821">
        <ele>275.6797</ele>
        <time>2022-10-02T13:13:53.000Z</time>
      </trkpt>
      <trkpt lat="45.83735" lon="4.74825">
        <ele>275.58811</ele>
        <time>2022-10-02T13:13:54.000Z</time>
      </trkpt>
      <trkpt lat="45.83732" lon="4.74829">
        <ele>275.60999</ele>
        <time>2022-10-02T13:13:55.000Z</time>
      </trkpt>
      <trkpt lat="45.83728" lon="4.74832">
        <ele>275.55321</ele>
        <time>2022-10-02T13:13:56.000Z</time>
      </trkpt>
      <trkpt lat="45.83723" lon="4.74836">
        <ele>275.50296</ele>
        <time>2022-10-02T13:13:57.000Z</time>
      </trkpt>
      <trkpt lat="45.83718" lon="4.74839">
        <ele>275.60625</ele>
        <time>2022-10-02T13:13:58.000Z</time>
      </trkpt>
      <trkpt lat="45.83713" lon="4.74843">
        <ele>275.90267</ele>
        <time>2022-10-02T13:13:59.000Z</time>
      </trkpt>
      <trkpt lat="45.83708" lon="4.74847">
        <ele>276.3069</ele>
        <time>2022-10-02T13:14:00.000Z</time>
      </trkpt>
      <trkpt lat="45.83696" lon="4.74858">
        <ele>277.20808</ele>
        <time>2022-10-02T13:14:01.000Z</time>
      </trkpt>
      <trkpt lat="45.83692" lon="4.74859">
        <ele>276.98215</ele>
        <time>2022-10-02T13:14:02.000Z</time>
      </trkpt>
      <trkpt lat="45.83688" lon="4.74861">
        <ele>276.94356</ele>
        <time>2022-10-02T13:14:03.000Z</time>
      </trkpt>
      <trkpt lat="45.83686" lon="4.74865">
        <ele>277.28739</ele>
        <time>2022-10-02T13:14:04.000Z</time>
      </trkpt>
      <trkpt lat="45.83683" lon="4.74868">
        <ele>277.40677</ele>
        <time>2022-10-02T13:14:05.000Z</time>
      </trkpt>
      <trkpt lat="45.8368" lon="4.74872">
        <ele>277.82716</ele>
        <time>2022-10-02T13:14:06.000Z</time>
      </trkpt>
      <trkpt lat="45.83678" lon="4.74872">
        <ele>277.59709</ele>
        <time>2022-10-02T13:14:07.000Z</time>
      </trkpt>
      <trkpt lat="45.83674" lon="4.74874">
        <ele>277.67279</ele>
        <time>2022-10-02T13:14:08.000Z</time>
      </trkpt>
      <trkpt lat="45.83672" lon="4.74874">
        <ele>277.37187</ele>
        <time>2022-10-02T13:14:09.000Z</time>
      </trkpt>
      <trkpt lat="45.83666" lon="4.74878">
        <ele>277.48457</ele>
        <time>2022-10-02T13:14:10.000Z</time>
      </trkpt>
      <trkpt lat="45.83664" lon="4.74879">
        <ele>277.51955</ele>
        <time>2022-10-02T13:14:11.000Z</time>
      </trkpt>
      <trkpt lat="45.83663" lon="4.74882">
        <ele>277.82195</ele>
        <time>2022-10-02T13:14:12.000Z</time>
      </trkpt>
      <trkpt lat="45.83661" lon="4.74885">
        <ele>278.11694</ele>
        <time>2022-10-02T13:14:13.000Z</time>
      </trkpt>
      <trkpt lat="45.83659" lon="4.74889">
        <ele>278.46083</ele>
        <time>2022-10-02T13:14:14.000Z</time>
      </trkpt>
      <trkpt lat="45.83657" lon="4.74893">
        <ele>278.77426</ele>
        <time>2022-10-02T13:14:15.000Z</time>
      </trkpt>
      <trkpt lat="45.83655" lon="4.74897">
        <ele>278.99632</ele>
        <time>2022-10-02T13:14:16.000Z</time>
      </trkpt>
      <trkpt lat="45.83653" lon="4.74901">
        <ele>279.12187</ele>
        <time>2022-10-02T13:14:17.000Z</time>
      </trkpt>
      <trkpt lat="45.83651" lon="4.74905">
        <ele>279.25186</ele>
        <time>2022-10-02T13:14:18.000Z</time>
      </trkpt>
      <trkpt lat="45.83649" lon="4.74909">
        <ele>279.34059</ele>
        <time>2022-10-02T13:14:19.000Z</time>
      </trkpt>
      <trkpt lat="45.83647" lon="4.74914">
        <ele>279.39734</ele>
        <time>2022-10-02T13:14:20.000Z</time>
      </trkpt>
      <trkpt lat="45.83645" lon="4.74919">
        <ele>279.39951</ele>
        <time>2022-10-02T13:14:21.000Z</time>
      </trkpt>
      <trkpt lat="45.83644" lon="4.74923">
        <ele>279.40871</ele>
        <time>2022-10-02T13:14:22.000Z</time>
      </trkpt>
      <trkpt lat="45.83642" lon="4.74927">
        <ele>279.3689</ele>
        <time>2022-10-02T13:14:23.000Z</time>
      </trkpt>
      <trkpt lat="45.83641" lon="4.74931">
        <ele>279.32453</ele>
        <time>2022-10-02T13:14:24.000Z</time>
      </trkpt>
      <trkpt lat="45.83639" lon="4.74935">
        <ele>279.18287</ele>
        <time>2022-10-02T13:14:25.000Z</time>
      </trkpt>
      <trkpt lat="45.83638" lon="4.7494">
        <ele>279.04932</ele>
        <time>2022-10-02T13:14:26.000Z</time>
      </trkpt>
      <trkpt lat="45.83636" lon="4.74945">
        <ele>278.99481</ele>
        <time>2022-10-02T13:14:27.000Z</time>
      </trkpt>
      <trkpt lat="45.83635" lon="4.74951">
        <ele>278.95208</ele>
        <time>2022-10-02T13:14:28.000Z</time>
      </trkpt>
      <trkpt lat="45.83633" lon="4.74959">
        <ele>278.96639</ele>
        <time>2022-10-02T13:14:29.000Z</time>
      </trkpt>
      <trkpt lat="45.83632" lon="4.74973">
        <ele>279.58825</ele>
        <time>2022-10-02T13:14:30.000Z</time>
      </trkpt>
      <trkpt lat="45.83631" lon="4.7498">
        <ele>279.51874</ele>
        <time>2022-10-02T13:14:31.000Z</time>
      </trkpt>
      <trkpt lat="45.83629" lon="4.74988">
        <ele>279.68568</ele>
        <time>2022-10-02T13:14:32.000Z</time>
      </trkpt>
      <trkpt lat="45.83627" lon="4.74991">
        <ele>279.39637</ele>
        <time>2022-10-02T13:14:33.000Z</time>
      </trkpt>
      <trkpt lat="45.83624" lon="4.74997">
        <ele>279.00665</ele>
        <time>2022-10-02T13:14:34.000Z</time>
      </trkpt>
      <trkpt lat="45.83626" lon="4.75002">
        <ele>279.33698</ele>
        <time>2022-10-02T13:14:35.000Z</time>
      </trkpt>
      <trkpt lat="45.83622" lon="4.75013">
        <ele>278.78708</ele>
        <time>2022-10-02T13:14:36.000Z</time>
      </trkpt>
      <trkpt lat="45.83622" lon="4.75018">
        <ele>278.80497</ele>
        <time>2022-10-02T13:14:37.000Z</time>
      </trkpt>
      <trkpt lat="45.83618" lon="4.75026">
        <ele>278.72134</ele>
        <time>2022-10-02T13:14:38.000Z</time>
      </trkpt>
      <trkpt lat="45.83618" lon="4.75032">
        <ele>279.08246</ele>
        <time>2022-10-02T13:14:39.000Z</time>
      </trkpt>
      <trkpt lat="45.83613" lon="4.75037">
        <ele>278.95062</ele>
        <time>2022-10-02T13:14:40.000Z</time>
      </trkpt>
      <trkpt lat="45.83613" lon="4.75044">
        <ele>279.59416</ele>
        <time>2022-10-02T13:14:41.000Z</time>
      </trkpt>
      <trkpt lat="45.8361" lon="4.75051">
        <ele>279.98693</ele>
        <time>2022-10-02T13:14:42.000Z</time>
      </trkpt>
      <trkpt lat="45.83605" lon="4.75052">
        <ele>279.58768</ele>
        <time>2022-10-02T13:14:43.000Z</time>
      </trkpt>
      <trkpt lat="45.836" lon="4.75056">
        <ele>279.45999</ele>
        <time>2022-10-02T13:14:44.000Z</time>
      </trkpt>
      <trkpt lat="45.83596" lon="4.75059">
        <ele>279.34264</ele>
        <time>2022-10-02T13:14:45.000Z</time>
      </trkpt>
      <trkpt lat="45.83594" lon="4.75064">
        <ele>279.57394</ele>
        <time>2022-10-02T13:14:46.000Z</time>
      </trkpt>
      <trkpt lat="45.83592" lon="4.75067">
        <ele>279.65643</ele>
        <time>2022-10-02T13:14:47.000Z</time>
      </trkpt>
      <trkpt lat="45.83591" lon="4.75073">
        <ele>279.79147</ele>
        <time>2022-10-02T13:14:48.000Z</time>
      </trkpt>
      <trkpt lat="45.83589" lon="4.75077">
        <ele>279.87027</ele>
        <time>2022-10-02T13:14:49.000Z</time>
      </trkpt>
      <trkpt lat="45.83588" lon="4.7508">
        <ele>279.8556</ele>
        <time>2022-10-02T13:14:50.000Z</time>
      </trkpt>
      <trkpt lat="45.83587" lon="4.75083">
        <ele>279.97259</ele>
        <time>2022-10-02T13:14:51.000Z</time>
      </trkpt>
      <trkpt lat="45.83584" lon="4.75088">
        <ele>280.11097</ele>
        <time>2022-10-02T13:14:52.000Z</time>
      </trkpt>
      <trkpt lat="45.83582" lon="4.75092">
        <ele>280.21587</ele>
        <time>2022-10-02T13:14:53.000Z</time>
      </trkpt>
      <trkpt lat="45.83581" lon="4.75095">
        <ele>280.4816</ele>
        <time>2022-10-02T13:14:54.000Z</time>
      </trkpt>
      <trkpt lat="45.83579" lon="4.751">
        <ele>280.87043</ele>
        <time>2022-10-02T13:14:55.000Z</time>
      </trkpt>
      <trkpt lat="45.83576" lon="4.75105">
        <ele>281.10024</ele>
        <time>2022-10-02T13:14:56.000Z</time>
      </trkpt>
      <trkpt lat="45.83573" lon="4.7511">
        <ele>281.30369</ele>
        <time>2022-10-02T13:14:57.000Z</time>
      </trkpt>
      <trkpt lat="45.83569" lon="4.75115">
        <ele>281.41118</ele>
        <time>2022-10-02T13:14:58.000Z</time>
      </trkpt>
      <trkpt lat="45.83567" lon="4.75119">
        <ele>281.58059</ele>
        <time>2022-10-02T13:14:59.000Z</time>
      </trkpt>
      <trkpt lat="45.83564" lon="4.75123">
        <ele>281.72511</ele>
        <time>2022-10-02T13:15:00.000Z</time>
      </trkpt>
      <trkpt lat="45.83561" lon="4.75126">
        <ele>281.89542</ele>
        <time>2022-10-02T13:15:01.000Z</time>
      </trkpt>
      <trkpt lat="45.83559" lon="4.75129">
        <ele>282.04743</ele>
        <time>2022-10-02T13:15:02.000Z</time>
      </trkpt>
      <trkpt lat="45.83557" lon="4.75131">
        <ele>282.2328</ele>
        <time>2022-10-02T13:15:03.000Z</time>
      </trkpt>
      <trkpt lat="45.83556" lon="4.75133">
        <ele>282.46441</ele>
        <time>2022-10-02T13:15:04.000Z</time>
      </trkpt>
      <trkpt lat="45.83554" lon="4.75135">
        <ele>282.63797</ele>
        <time>2022-10-02T13:15:05.000Z</time>
      </trkpt>
      <trkpt lat="45.83552" lon="4.75137">
        <ele>282.68031</ele>
        <time>2022-10-02T13:15:06.000Z</time>
      </trkpt>
      <trkpt lat="45.8355" lon="4.75139">
        <ele>282.74023</ele>
        <time>2022-10-02T13:15:07.000Z</time>
      </trkpt>
      <trkpt lat="45.83548" lon="4.75141">
        <ele>282.95336</ele>
        <time>2022-10-02T13:15:08.000Z</time>
      </trkpt>
      <trkpt lat="45.83547" lon="4.75144">
        <ele>283.2882</ele>
        <time>2022-10-02T13:15:09.000Z</time>
      </trkpt>
      <trkpt lat="45.83544" lon="4.75148">
        <ele>283.53217</ele>
        <time>2022-10-02T13:15:10.000Z</time>
      </trkpt>
      <trkpt lat="45.83541" lon="4.75151">
        <ele>283.47377</ele>
        <time>2022-10-02T13:15:11.000Z</time>
      </trkpt>
      <trkpt lat="45.83538" lon="4.75154">
        <ele>283.3115</ele>
        <time>2022-10-02T13:15:12.000Z</time>
      </trkpt>
      <trkpt lat="45.83534" lon="4.75157">
        <ele>283.24205</ele>
        <time>2022-10-02T13:15:13.000Z</time>
      </trkpt>
      <trkpt lat="45.83531" lon="4.75161">
        <ele>283.18346</ele>
        <time>2022-10-02T13:15:14.000Z</time>
      </trkpt>
      <trkpt lat="45.83527" lon="4.75165">
        <ele>283.09104</ele>
        <time>2022-10-02T13:15:15.000Z</time>
      </trkpt>
      <trkpt lat="45.83523" lon="4.75169">
        <ele>282.92368</ele>
        <time>2022-10-02T13:15:16.000Z</time>
      </trkpt>
      <trkpt lat="45.83518" lon="4.75178">
        <ele>282.89729</ele>
        <time>2022-10-02T13:15:17.000Z</time>
      </trkpt>
      <trkpt lat="45.83514" lon="4.75184">
        <ele>282.49244</ele>
        <time>2022-10-02T13:15:18.000Z</time>
      </trkpt>
      <trkpt lat="45.8351" lon="4.7519">
        <ele>282.28683</ele>
        <time>2022-10-02T13:15:19.000Z</time>
      </trkpt>
      <trkpt lat="45.83504" lon="4.75194">
        <ele>282.22217</ele>
        <time>2022-10-02T13:15:20.000Z</time>
      </trkpt>
      <trkpt lat="45.83498" lon="4.75196">
        <ele>282.4941</ele>
        <time>2022-10-02T13:15:21.000Z</time>
      </trkpt>
      <trkpt lat="45.83494" lon="4.75196">
        <ele>282.48614</ele>
        <time>2022-10-02T13:15:22.000Z</time>
      </trkpt>
      <trkpt lat="45.83489" lon="4.75198">
        <ele>282.90438</ele>
        <time>2022-10-02T13:15:23.000Z</time>
      </trkpt>
      <trkpt lat="45.83484" lon="4.75197">
        <ele>282.96513</ele>
        <time>2022-10-02T13:15:24.000Z</time>
      </trkpt>
      <trkpt lat="45.83479" lon="4.75199">
        <ele>283.51271</ele>
        <time>2022-10-02T13:15:25.000Z</time>
      </trkpt>
      <trkpt lat="45.83475" lon="4.75201">
        <ele>284.10386</ele>
        <time>2022-10-02T13:15:26.000Z</time>
      </trkpt>
      <trkpt lat="45.83471" lon="4.75203">
        <ele>284.62387</ele>
        <time>2022-10-02T13:15:27.000Z</time>
      </trkpt>
      <trkpt lat="45.83466" lon="4.75204">
        <ele>284.86502</ele>
        <time>2022-10-02T13:15:28.000Z</time>
      </trkpt>
      <trkpt lat="45.83462" lon="4.75207">
        <ele>285.27607</ele>
        <time>2022-10-02T13:15:29.000Z</time>
      </trkpt>
      <trkpt lat="45.8346" lon="4.75211">
        <ele>286.23177</ele>
        <time>2022-10-02T13:15:30.000Z</time>
      </trkpt>
      <trkpt lat="45.83454" lon="4.75212">
        <ele>285.67077</ele>
        <time>2022-10-02T13:15:31.000Z</time>
      </trkpt>
      <trkpt lat="45.83451" lon="4.75214">
        <ele>285.59606</ele>
        <time>2022-10-02T13:15:32.000Z</time>
      </trkpt>
      <trkpt lat="45.83446" lon="4.75215">
        <ele>285.32888</ele>
        <time>2022-10-02T13:15:33.000Z</time>
      </trkpt>
      <trkpt lat="45.83442" lon="4.7522">
        <ele>285.93142</ele>
        <time>2022-10-02T13:15:34.000Z</time>
      </trkpt>
      <trkpt lat="45.83438" lon="4.75221">
        <ele>285.46208</ele>
        <time>2022-10-02T13:15:35.000Z</time>
      </trkpt>
      <trkpt lat="45.83435" lon="4.75222">
        <ele>285.31649</ele>
        <time>2022-10-02T13:15:36.000Z</time>
      </trkpt>
      <trkpt lat="45.83432" lon="4.75224">
        <ele>285.14847</ele>
        <time>2022-10-02T13:15:37.000Z</time>
      </trkpt>
      <trkpt lat="45.83429" lon="4.75225">
        <ele>285.01549</ele>
        <time>2022-10-02T13:15:38.000Z</time>
      </trkpt>
      <trkpt lat="45.83425" lon="4.75227">
        <ele>284.86996</ele>
        <time>2022-10-02T13:15:39.000Z</time>
      </trkpt>
      <trkpt lat="45.83422" lon="4.7523">
        <ele>284.93672</ele>
        <time>2022-10-02T13:15:40.000Z</time>
      </trkpt>
      <trkpt lat="45.83419" lon="4.75245">
        <ele>286.90566</ele>
        <time>2022-10-02T13:15:41.000Z</time>
      </trkpt>
      <trkpt lat="45.83415" lon="4.75255">
        <ele>287.17874</ele>
        <time>2022-10-02T13:15:42.000Z</time>
      </trkpt>
      <trkpt lat="45.83418" lon="4.75255">
        <ele>287.88741</ele>
        <time>2022-10-02T13:15:43.000Z</time>
      </trkpt>
      <trkpt lat="45.83418" lon="4.75259">
        <ele>288.48456</ele>
        <time>2022-10-02T13:15:44.000Z</time>
      </trkpt>
      <trkpt lat="45.83417" lon="4.75265">
        <ele>288.95294</ele>
        <time>2022-10-02T13:15:46.000Z</time>
      </trkpt>
      <trkpt lat="45.83414" lon="4.75267">
        <ele>288.24262</ele>
        <time>2022-10-02T13:15:47.000Z</time>
      </trkpt>
      <trkpt lat="45.83412" lon="4.75267">
        <ele>287.29277</ele>
        <time>2022-10-02T13:15:48.000Z</time>
      </trkpt>
      <trkpt lat="45.83409" lon="4.75269">
        <ele>286.51884</ele>
        <time>2022-10-02T13:15:49.000Z</time>
      </trkpt>
      <trkpt lat="45.83406" lon="4.75272">
        <ele>285.90008</ele>
        <time>2022-10-02T13:15:50.000Z</time>
      </trkpt>
      <trkpt lat="45.83402" lon="4.75275">
        <ele>285.08317</ele>
        <time>2022-10-02T13:15:51.000Z</time>
      </trkpt>
      <trkpt lat="45.83399" lon="4.7528">
        <ele>284.50601</ele>
        <time>2022-10-02T13:15:52.000Z</time>
      </trkpt>
      <trkpt lat="45.83394" lon="4.75281">
        <ele>283.95316</ele>
        <time>2022-10-02T13:15:53.000Z</time>
      </trkpt>
      <trkpt lat="45.83393" lon="4.75282">
        <ele>283.79942</ele>
        <time>2022-10-02T13:15:54.000Z</time>
      </trkpt>
      <trkpt lat="45.83389" lon="4.75284">
        <ele>283.66866</ele>
        <time>2022-10-02T13:15:56.000Z</time>
      </trkpt>
      <trkpt lat="45.83387" lon="4.75285">
        <ele>283.58693</ele>
        <time>2022-10-02T13:15:57.000Z</time>
      </trkpt>
      <trkpt lat="45.83384" lon="4.75286">
        <ele>283.53208</ele>
        <time>2022-10-02T13:15:58.000Z</time>
      </trkpt>
      <trkpt lat="45.8338" lon="4.75286">
        <ele>283.53395</ele>
        <time>2022-10-02T13:15:59.000Z</time>
      </trkpt>
      <trkpt lat="45.83376" lon="4.75287">
        <ele>283.60832</ele>
        <time>2022-10-02T13:16:00.000Z</time>
      </trkpt>
      <trkpt lat="45.83371" lon="4.75286">
        <ele>283.86795</ele>
        <time>2022-10-02T13:16:01.000Z</time>
      </trkpt>
      <trkpt lat="45.83368" lon="4.75286">
        <ele>284.22161</ele>
        <time>2022-10-02T13:16:02.000Z</time>
      </trkpt>
      <trkpt lat="45.83364" lon="4.75286">
        <ele>284.61908</ele>
        <time>2022-10-02T13:16:03.000Z</time>
      </trkpt>
      <trkpt lat="45.8336" lon="4.75286">
        <ele>285.01229</ele>
        <time>2022-10-02T13:16:04.000Z</time>
      </trkpt>
      <trkpt lat="45.83355" lon="4.75287">
        <ele>285.38902</ele>
        <time>2022-10-02T13:16:05.000Z</time>
      </trkpt>
      <trkpt lat="45.83351" lon="4.7529">
        <ele>285.68398</ele>
        <time>2022-10-02T13:16:06.000Z</time>
      </trkpt>
      <trkpt lat="45.83347" lon="4.75291">
        <ele>285.84012</ele>
        <time>2022-10-02T13:16:07.000Z</time>
      </trkpt>
      <trkpt lat="45.83343" lon="4.75294">
        <ele>285.98409</ele>
        <time>2022-10-02T13:16:08.000Z</time>
      </trkpt>
      <trkpt lat="45.8334" lon="4.75296">
        <ele>286.06051</ele>
        <time>2022-10-02T13:16:09.000Z</time>
      </trkpt>
      <trkpt lat="45.83337" lon="4.75298">
        <ele>286.18672</ele>
        <time>2022-10-02T13:16:10.000Z</time>
      </trkpt>
      <trkpt lat="45.83333" lon="4.75302">
        <ele>286.40394</ele>
        <time>2022-10-02T13:16:11.000Z</time>
      </trkpt>
      <trkpt lat="45.8333" lon="4.75305">
        <ele>286.53971</ele>
        <time>2022-10-02T13:16:12.000Z</time>
      </trkpt>
      <trkpt lat="45.83326" lon="4.75307">
        <ele>286.44745</ele>
        <time>2022-10-02T13:16:13.000Z</time>
      </trkpt>
      <trkpt lat="45.83323" lon="4.75308">
        <ele>286.20188</ele>
        <time>2022-10-02T13:16:14.000Z</time>
      </trkpt>
      <trkpt lat="45.83318" lon="4.7531">
        <ele>285.87131</ele>
        <time>2022-10-02T13:16:15.000Z</time>
      </trkpt>
      <trkpt lat="45.83314" lon="4.75311">
        <ele>285.54966</ele>
        <time>2022-10-02T13:16:16.000Z</time>
      </trkpt>
      <trkpt lat="45.83309" lon="4.75313">
        <ele>285.4057</ele>
        <time>2022-10-02T13:16:17.000Z</time>
      </trkpt>
      <trkpt lat="45.83306" lon="4.75315">
        <ele>285.41857</ele>
        <time>2022-10-02T13:16:18.000Z</time>
      </trkpt>
      <trkpt lat="45.83302" lon="4.75318">
        <ele>285.54153</ele>
        <time>2022-10-02T13:16:19.000Z</time>
      </trkpt>
      <trkpt lat="45.83299" lon="4.75321">
        <ele>285.71209</ele>
        <time>2022-10-02T13:16:20.000Z</time>
      </trkpt>
      <trkpt lat="45.83295" lon="4.75324">
        <ele>285.84696</ele>
        <time>2022-10-02T13:16:21.000Z</time>
      </trkpt>
      <trkpt lat="45.83291" lon="4.75327">
        <ele>285.99209</ele>
        <time>2022-10-02T13:16:22.000Z</time>
      </trkpt>
      <trkpt lat="45.83287" lon="4.7533">
        <ele>286.17043</ele>
        <time>2022-10-02T13:16:23.000Z</time>
      </trkpt>
      <trkpt lat="45.83282" lon="4.75333">
        <ele>286.46803</ele>
        <time>2022-10-02T13:16:24.000Z</time>
      </trkpt>
      <trkpt lat="45.83278" lon="4.75336">
        <ele>286.85314</ele>
        <time>2022-10-02T13:16:25.000Z</time>
      </trkpt>
      <trkpt lat="45.83273" lon="4.75338">
        <ele>287.27037</ele>
        <time>2022-10-02T13:16:26.000Z</time>
      </trkpt>
      <trkpt lat="45.83268" lon="4.7534">
        <ele>287.6848</ele>
        <time>2022-10-02T13:16:27.000Z</time>
      </trkpt>
      <trkpt lat="45.83264" lon="4.75342">
        <ele>287.99395</ele>
        <time>2022-10-02T13:16:28.000Z</time>
      </trkpt>
      <trkpt lat="45.83259" lon="4.75344">
        <ele>288.38299</ele>
        <time>2022-10-02T13:16:29.000Z</time>
      </trkpt>
      <trkpt lat="45.83254" lon="4.75346">
        <ele>288.79692</ele>
        <time>2022-10-02T13:16:30.000Z</time>
      </trkpt>
      <trkpt lat="45.8325" lon="4.75348">
        <ele>289.21806</ele>
        <time>2022-10-02T13:16:31.000Z</time>
      </trkpt>
      <trkpt lat="45.83245" lon="4.7535">
        <ele>289.67517</ele>
        <time>2022-10-02T13:16:32.000Z</time>
      </trkpt>
      <trkpt lat="45.83241" lon="4.75353">
        <ele>290.33321</ele>
        <time>2022-10-02T13:16:33.000Z</time>
      </trkpt>
      <trkpt lat="45.83237" lon="4.75355">
        <ele>290.84557</ele>
        <time>2022-10-02T13:16:34.000Z</time>
      </trkpt>
      <trkpt lat="45.83234" lon="4.75358">
        <ele>291.42381</ele>
        <time>2022-10-02T13:16:35.000Z</time>
      </trkpt>
      <trkpt lat="45.83231" lon="4.7536">
        <ele>291.95255</ele>
        <time>2022-10-02T13:16:36.000Z</time>
      </trkpt>
      <trkpt lat="45.83229" lon="4.75362">
        <ele>292.52754</ele>
        <time>2022-10-02T13:16:37.000Z</time>
      </trkpt>
      <trkpt lat="45.83226" lon="4.75364">
        <ele>292.90232</ele>
        <time>2022-10-02T13:16:38.000Z</time>
      </trkpt>
      <trkpt lat="45.83223" lon="4.75364">
        <ele>292.82176</ele>
        <time>2022-10-02T13:16:39.000Z</time>
      </trkpt>
      <trkpt lat="45.83221" lon="4.75363">
        <ele>292.6205</ele>
        <time>2022-10-02T13:16:40.000Z</time>
      </trkpt>
      <trkpt lat="45.83218" lon="4.75362">
        <ele>292.20683</ele>
        <time>2022-10-02T13:16:41.000Z</time>
      </trkpt>
      <trkpt lat="45.83215" lon="4.75361">
        <ele>291.84521</ele>
        <time>2022-10-02T13:16:42.000Z</time>
      </trkpt>
      <trkpt lat="45.83212" lon="4.7536">
        <ele>291.61881</ele>
        <time>2022-10-02T13:16:43.000Z</time>
      </trkpt>
      <trkpt lat="45.83209" lon="4.7536">
        <ele>291.49232</ele>
        <time>2022-10-02T13:16:44.000Z</time>
      </trkpt>
      <trkpt lat="45.83207" lon="4.7536">
        <ele>291.43756</ele>
        <time>2022-10-02T13:16:45.000Z</time>
      </trkpt>
      <trkpt lat="45.83204" lon="4.7536">
        <ele>291.36499</ele>
        <time>2022-10-02T13:16:46.000Z</time>
      </trkpt>
      <trkpt lat="45.83201" lon="4.75359">
        <ele>291.21283</ele>
        <time>2022-10-02T13:16:47.000Z</time>
      </trkpt>
      <trkpt lat="45.83199" lon="4.75358">
        <ele>290.89809</ele>
        <time>2022-10-02T13:16:48.000Z</time>
      </trkpt>
      <trkpt lat="45.83196" lon="4.75358">
        <ele>290.60071</ele>
        <time>2022-10-02T13:16:49.000Z</time>
      </trkpt>
      <trkpt lat="45.83193" lon="4.75357">
        <ele>290.26059</ele>
        <time>2022-10-02T13:16:51.000Z</time>
      </trkpt>
      <trkpt lat="45.83191" lon="4.75357">
        <ele>290.16651</ele>
        <time>2022-10-02T13:16:52.000Z</time>
      </trkpt>
      <trkpt lat="45.83188" lon="4.75358">
        <ele>290.07567</ele>
        <time>2022-10-02T13:16:53.000Z</time>
      </trkpt>
      <trkpt lat="45.83185" lon="4.75359">
        <ele>290.08318</ele>
        <time>2022-10-02T13:16:54.000Z</time>
      </trkpt>
      <trkpt lat="45.83182" lon="4.7536">
        <ele>290.10564</ele>
        <time>2022-10-02T13:16:55.000Z</time>
      </trkpt>
      <trkpt lat="45.8318" lon="4.75361">
        <ele>290.07212</ele>
        <time>2022-10-02T13:16:56.000Z</time>
      </trkpt>
      <trkpt lat="45.83177" lon="4.75362">
        <ele>289.99265</ele>
        <time>2022-10-02T13:16:57.000Z</time>
      </trkpt>
      <trkpt lat="45.83175" lon="4.75363">
        <ele>289.99374</ele>
        <time>2022-10-02T13:16:58.000Z</time>
      </trkpt>
      <trkpt lat="45.83172" lon="4.75365">
        <ele>290.11221</ele>
        <time>2022-10-02T13:16:59.000Z</time>
      </trkpt>
      <trkpt lat="45.8317" lon="4.75367">
        <ele>290.32706</ele>
        <time>2022-10-02T13:17:00.000Z</time>
      </trkpt>
      <trkpt lat="45.83167" lon="4.75369">
        <ele>290.40884</ele>
        <time>2022-10-02T13:17:01.000Z</time>
      </trkpt>
      <trkpt lat="45.83164" lon="4.7537">
        <ele>290.49768</ele>
        <time>2022-10-02T13:17:02.000Z</time>
      </trkpt>
      <trkpt lat="45.83161" lon="4.75372">
        <ele>290.65166</ele>
        <time>2022-10-02T13:17:03.000Z</time>
      </trkpt>
      <trkpt lat="45.83158" lon="4.75374">
        <ele>290.92412</ele>
        <time>2022-10-02T13:17:04.000Z</time>
      </trkpt>
      <trkpt lat="45.83154" lon="4.75377">
        <ele>291.22494</ele>
        <time>2022-10-02T13:17:05.000Z</time>
      </trkpt>
      <trkpt lat="45.83151" lon="4.75378">
        <ele>291.39619</ele>
        <time>2022-10-02T13:17:06.000Z</time>
      </trkpt>
      <trkpt lat="45.83147" lon="4.7538">
        <ele>291.60323</ele>
        <time>2022-10-02T13:17:07.000Z</time>
      </trkpt>
      <trkpt lat="45.83143" lon="4.75381">
        <ele>291.94651</ele>
        <time>2022-10-02T13:17:08.000Z</time>
      </trkpt>
      <trkpt lat="45.83138" lon="4.75384">
        <ele>292.49764</ele>
        <time>2022-10-02T13:17:09.000Z</time>
      </trkpt>
      <trkpt lat="45.83134" lon="4.75386">
        <ele>292.65256</ele>
        <time>2022-10-02T13:17:10.000Z</time>
      </trkpt>
      <trkpt lat="45.8313" lon="4.75386">
        <ele>292.60168</ele>
        <time>2022-10-02T13:17:11.000Z</time>
      </trkpt>
      <trkpt lat="45.83127" lon="4.75386">
        <ele>292.45523</ele>
        <time>2022-10-02T13:17:12.000Z</time>
      </trkpt>
      <trkpt lat="45.83124" lon="4.75384">
        <ele>292.10132</ele>
        <time>2022-10-02T13:17:13.000Z</time>
      </trkpt>
      <trkpt lat="45.8312" lon="4.75382">
        <ele>291.67967</ele>
        <time>2022-10-02T13:17:14.000Z</time>
      </trkpt>
      <trkpt lat="45.83115" lon="4.75381">
        <ele>291.21837</ele>
        <time>2022-10-02T13:17:15.000Z</time>
      </trkpt>
      <trkpt lat="45.83102" lon="4.75379">
        <ele>290.19605</ele>
        <time>2022-10-02T13:17:16.000Z</time>
      </trkpt>
      <trkpt lat="45.83099" lon="4.75379">
        <ele>289.889</ele>
        <time>2022-10-02T13:17:17.000Z</time>
      </trkpt>
      <trkpt lat="45.83092" lon="4.75379">
        <ele>289.31728</ele>
        <time>2022-10-02T13:17:18.000Z</time>
      </trkpt>
      <trkpt lat="45.83088" lon="4.75382">
        <ele>289.8192</ele>
        <time>2022-10-02T13:17:19.000Z</time>
      </trkpt>
      <trkpt lat="45.83083" lon="4.75384">
        <ele>290.31965</ele>
        <time>2022-10-02T13:17:20.000Z</time>
      </trkpt>
      <trkpt lat="45.8308" lon="4.75386">
        <ele>290.94709</ele>
        <time>2022-10-02T13:17:21.000Z</time>
      </trkpt>
      <trkpt lat="45.83076" lon="4.75389">
        <ele>291.53769</ele>
        <time>2022-10-02T13:17:22.000Z</time>
      </trkpt>
      <trkpt lat="45.83072" lon="4.75388">
        <ele>291.58883</ele>
        <time>2022-10-02T13:17:23.000Z</time>
      </trkpt>
      <trkpt lat="45.83069" lon="4.75389">
        <ele>291.71499</ele>
        <time>2022-10-02T13:17:24.000Z</time>
      </trkpt>
      <trkpt lat="45.83066" lon="4.75388">
        <ele>291.80727</ele>
        <time>2022-10-02T13:17:25.000Z</time>
      </trkpt>
      <trkpt lat="45.83063" lon="4.75389">
        <ele>291.7904</ele>
        <time>2022-10-02T13:17:26.000Z</time>
      </trkpt>
      <trkpt lat="45.8306" lon="4.75392">
        <ele>291.50528</ele>
        <time>2022-10-02T13:17:27.000Z</time>
      </trkpt>
      <trkpt lat="45.83057" lon="4.75392">
        <ele>291.4782</ele>
        <time>2022-10-02T13:17:28.000Z</time>
      </trkpt>
      <trkpt lat="45.83053" lon="4.75392">
        <ele>291.43514</ele>
        <time>2022-10-02T13:17:29.000Z</time>
      </trkpt>
      <trkpt lat="45.8305" lon="4.75391">
        <ele>291.47418</ele>
        <time>2022-10-02T13:17:30.000Z</time>
      </trkpt>
      <trkpt lat="45.83047" lon="4.75391">
        <ele>291.54958</ele>
        <time>2022-10-02T13:17:31.000Z</time>
      </trkpt>
      <trkpt lat="45.83045" lon="4.75391">
        <ele>291.56034</ele>
        <time>2022-10-02T13:17:32.000Z</time>
      </trkpt>
      <trkpt lat="45.83042" lon="4.75392">
        <ele>291.58267</ele>
        <time>2022-10-02T13:17:33.000Z</time>
      </trkpt>
      <trkpt lat="45.8304" lon="4.75392">
        <ele>291.65663</ele>
        <time>2022-10-02T13:17:34.000Z</time>
      </trkpt>
      <trkpt lat="45.83038" lon="4.75392">
        <ele>291.8023</ele>
        <time>2022-10-02T13:17:35.000Z</time>
      </trkpt>
      <trkpt lat="45.83035" lon="4.75391">
        <ele>292.05392</ele>
        <time>2022-10-02T13:17:36.000Z</time>
      </trkpt>
      <trkpt lat="45.83033" lon="4.75391">
        <ele>292.15299</ele>
        <time>2022-10-02T13:17:37.000Z</time>
      </trkpt>
      <trkpt lat="45.8303" lon="4.75392">
        <ele>292.20846</ele>
        <time>2022-10-02T13:17:38.000Z</time>
      </trkpt>
      <trkpt lat="45.83027" lon="4.75394">
        <ele>292.35985</ele>
        <time>2022-10-02T13:17:39.000Z</time>
      </trkpt>
      <trkpt lat="45.83024" lon="4.75396">
        <ele>292.67</ele>
        <time>2022-10-02T13:17:40.000Z</time>
      </trkpt>
      <trkpt lat="45.83021" lon="4.75398">
        <ele>293.06057</ele>
        <time>2022-10-02T13:17:41.000Z</time>
      </trkpt>
      <trkpt lat="45.83019" lon="4.75399">
        <ele>293.48972</ele>
        <time>2022-10-02T13:17:42.000Z</time>
      </trkpt>
      <trkpt lat="45.83017" lon="4.75401">
        <ele>293.94005</ele>
        <time>2022-10-02T13:17:43.000Z</time>
      </trkpt>
      <trkpt lat="45.83015" lon="4.75403">
        <ele>294.35253</ele>
        <time>2022-10-02T13:17:44.000Z</time>
      </trkpt>
      <trkpt lat="45.83012" lon="4.75405">
        <ele>294.87542</ele>
        <time>2022-10-02T13:17:45.000Z</time>
      </trkpt>
      <trkpt lat="45.8301" lon="4.75408">
        <ele>295.37478</ele>
        <time>2022-10-02T13:17:46.000Z</time>
      </trkpt>
      <trkpt lat="45.83007" lon="4.7541">
        <ele>295.63935</ele>
        <time>2022-10-02T13:17:47.000Z</time>
      </trkpt>
      <trkpt lat="45.83005" lon="4.75413">
        <ele>295.60376</ele>
        <time>2022-10-02T13:17:48.000Z</time>
      </trkpt>
      <trkpt lat="45.83003" lon="4.75417">
        <ele>295.27734</ele>
        <time>2022-10-02T13:17:49.000Z</time>
      </trkpt>
      <trkpt lat="45.83" lon="4.75421">
        <ele>294.6556</ele>
        <time>2022-10-02T13:17:50.000Z</time>
      </trkpt>
      <trkpt lat="45.82996" lon="4.75425">
        <ele>294.09567</ele>
        <time>2022-10-02T13:17:51.000Z</time>
      </trkpt>
      <trkpt lat="45.82992" lon="4.75429">
        <ele>293.93771</ele>
        <time>2022-10-02T13:17:52.000Z</time>
      </trkpt>
      <trkpt lat="45.82989" lon="4.75433">
        <ele>294.07484</ele>
        <time>2022-10-02T13:17:53.000Z</time>
      </trkpt>
      <trkpt lat="45.82985" lon="4.75438">
        <ele>294.10577</ele>
        <time>2022-10-02T13:17:54.000Z</time>
      </trkpt>
      <trkpt lat="45.82982" lon="4.75442">
        <ele>293.80836</ele>
        <time>2022-10-02T13:17:55.000Z</time>
      </trkpt>
      <trkpt lat="45.8298" lon="4.75446">
        <ele>293.47183</ele>
        <time>2022-10-02T13:17:56.000Z</time>
      </trkpt>
      <trkpt lat="45.82979" lon="4.75449">
        <ele>293.19628</ele>
        <time>2022-10-02T13:17:57.000Z</time>
      </trkpt>
      <trkpt lat="45.82979" lon="4.75452">
        <ele>293.08608</ele>
        <time>2022-10-02T13:17:58.000Z</time>
      </trkpt>
      <trkpt lat="45.82978" lon="4.75455">
        <ele>293.0383</ele>
        <time>2022-10-02T13:17:59.000Z</time>
      </trkpt>
      <trkpt lat="45.82978" lon="4.75458">
        <ele>292.91553</ele>
        <time>2022-10-02T13:18:00.000Z</time>
      </trkpt>
      <trkpt lat="45.82976" lon="4.75461">
        <ele>292.84779</ele>
        <time>2022-10-02T13:18:01.000Z</time>
      </trkpt>
      <trkpt lat="45.82975" lon="4.75464">
        <ele>292.81823</ele>
        <time>2022-10-02T13:18:02.000Z</time>
      </trkpt>
      <trkpt lat="45.82973" lon="4.75467">
        <ele>292.93936</ele>
        <time>2022-10-02T13:18:03.000Z</time>
      </trkpt>
      <trkpt lat="45.82971" lon="4.7547">
        <ele>293.24298</ele>
        <time>2022-10-02T13:18:04.000Z</time>
      </trkpt>
      <trkpt lat="45.82969" lon="4.75474">
        <ele>293.8681</ele>
        <time>2022-10-02T13:18:05.000Z</time>
      </trkpt>
      <trkpt lat="45.82967" lon="4.75479">
        <ele>294.60214</ele>
        <time>2022-10-02T13:18:06.000Z</time>
      </trkpt>
      <trkpt lat="45.82965" lon="4.75485">
        <ele>295.1892</ele>
        <time>2022-10-02T13:18:07.000Z</time>
      </trkpt>
      <trkpt lat="45.82963" lon="4.75492">
        <ele>295.38719</ele>
        <time>2022-10-02T13:18:08.000Z</time>
      </trkpt>
      <trkpt lat="45.82962" lon="4.75499">
        <ele>295.70492</ele>
        <time>2022-10-02T13:18:09.000Z</time>
      </trkpt>
      <trkpt lat="45.8296" lon="4.75504">
        <ele>295.9238</ele>
        <time>2022-10-02T13:18:10.000Z</time>
      </trkpt>
      <trkpt lat="45.82958" lon="4.75509">
        <ele>296.23466</ele>
        <time>2022-10-02T13:18:11.000Z</time>
      </trkpt>
      <trkpt lat="45.82957" lon="4.75513">
        <ele>296.49144</ele>
        <time>2022-10-02T13:18:12.000Z</time>
      </trkpt>
      <trkpt lat="45.82955" lon="4.75517">
        <ele>296.74977</ele>
        <time>2022-10-02T13:18:13.000Z</time>
      </trkpt>
      <trkpt lat="45.82953" lon="4.75521">
        <ele>296.83119</ele>
        <time>2022-10-02T13:18:14.000Z</time>
      </trkpt>
      <trkpt lat="45.8295" lon="4.75525">
        <ele>296.79277</ele>
        <time>2022-10-02T13:18:15.000Z</time>
      </trkpt>
      <trkpt lat="45.82948" lon="4.75528">
        <ele>296.69414</ele>
        <time>2022-10-02T13:18:16.000Z</time>
      </trkpt>
      <trkpt lat="45.82945" lon="4.7553">
        <ele>296.4444</ele>
        <time>2022-10-02T13:18:17.000Z</time>
      </trkpt>
      <trkpt lat="45.82943" lon="4.75532">
        <ele>296.18609</ele>
        <time>2022-10-02T13:18:18.000Z</time>
      </trkpt>
      <trkpt lat="45.82941" lon="4.75533">
        <ele>295.95971</ele>
        <time>2022-10-02T13:18:19.000Z</time>
      </trkpt>
      <trkpt lat="45.8294" lon="4.75534">
        <ele>295.82098</ele>
        <time>2022-10-02T13:18:21.000Z</time>
      </trkpt>
      <trkpt lat="45.82938" lon="4.75537">
        <ele>295.8454</ele>
        <time>2022-10-02T13:18:23.000Z</time>
      </trkpt>
      <trkpt lat="45.82936" lon="4.75539">
        <ele>295.79704</ele>
        <time>2022-10-02T13:18:25.000Z</time>
      </trkpt>
      <trkpt lat="45.82933" lon="4.75542">
        <ele>295.72919</ele>
        <time>2022-10-02T13:18:27.000Z</time>
      </trkpt>
      <trkpt lat="45.82932" lon="4.75544">
        <ele>295.78267</ele>
        <time>2022-10-02T13:18:30.000Z</time>
      </trkpt>
      <trkpt lat="45.8293" lon="4.75546">
        <ele>295.92833</ele>
        <time>2022-10-02T13:18:35.000Z</time>
      </trkpt>
      <trkpt lat="45.82929" lon="4.75548">
        <ele>296.10583</ele>
        <time>2022-10-02T13:20:00.000Z</time>
      </trkpt>
      <trkpt lat="45.82927" lon="4.75548">
        <ele>295.88113</ele>
        <time>2022-10-02T13:20:22.000Z</time>
      </trkpt>
      <trkpt lat="45.82925" lon="4.75549">
        <ele>295.80592</ele>
        <time>2022-10-02T13:20:26.000Z</time>
      </trkpt>
      <trkpt lat="45.82924" lon="4.75551">
        <ele>296.07401</ele>
        <time>2022-10-02T13:20:28.000Z</time>
      </trkpt>
      <trkpt lat="45.82922" lon="4.75553">
        <ele>296.29221</ele>
        <time>2022-10-02T13:20:29.000Z</time>
      </trkpt>
      <trkpt lat="45.82921" lon="4.75555">
        <ele>296.58079</ele>
        <time>2022-10-02T13:20:30.000Z</time>
      </trkpt>
      <trkpt lat="45.8292" lon="4.75558">
        <ele>296.87036</ele>
        <time>2022-10-02T13:20:31.000Z</time>
      </trkpt>
      <trkpt lat="45.82918" lon="4.7556">
        <ele>297.18815</ele>
        <time>2022-10-02T13:20:32.000Z</time>
      </trkpt>
      <trkpt lat="45.82916" lon="4.75563">
        <ele>297.44054</ele>
        <time>2022-10-02T13:20:33.000Z</time>
      </trkpt>
      <trkpt lat="45.82914" lon="4.75565">
        <ele>297.53272</ele>
        <time>2022-10-02T13:20:34.000Z</time>
      </trkpt>
      <trkpt lat="45.82912" lon="4.75566">
        <ele>297.54883</ele>
        <time>2022-10-02T13:20:35.000Z</time>
      </trkpt>
      <trkpt lat="45.8291" lon="4.75569">
        <ele>297.54414</ele>
        <time>2022-10-02T13:20:36.000Z</time>
      </trkpt>
      <trkpt lat="45.82907" lon="4.75571">
        <ele>297.50515</ele>
        <time>2022-10-02T13:20:37.000Z</time>
      </trkpt>
      <trkpt lat="45.82905" lon="4.75572">
        <ele>297.43585</ele>
        <time>2022-10-02T13:20:38.000Z</time>
      </trkpt>
      <trkpt lat="45.82903" lon="4.75574">
        <ele>297.33521</ele>
        <time>2022-10-02T13:20:39.000Z</time>
      </trkpt>
      <trkpt lat="45.82901" lon="4.75575">
        <ele>297.26243</ele>
        <time>2022-10-02T13:20:40.000Z</time>
      </trkpt>
      <trkpt lat="45.82898" lon="4.75576">
        <ele>297.286</ele>
        <time>2022-10-02T13:20:41.000Z</time>
      </trkpt>
      <trkpt lat="45.82896" lon="4.75577">
        <ele>297.3809</ele>
        <time>2022-10-02T13:20:42.000Z</time>
      </trkpt>
      <trkpt lat="45.82894" lon="4.75578">
        <ele>297.52308</ele>
        <time>2022-10-02T13:20:43.000Z</time>
      </trkpt>
      <trkpt lat="45.82893" lon="4.7558">
        <ele>297.70914</ele>
        <time>2022-10-02T13:20:44.000Z</time>
      </trkpt>
      <trkpt lat="45.8289" lon="4.75583">
        <ele>298.08681</ele>
        <time>2022-10-02T13:20:46.000Z</time>
      </trkpt>
      <trkpt lat="45.82888" lon="4.75586">
        <ele>298.57965</ele>
        <time>2022-10-02T13:20:48.000Z</time>
      </trkpt>
      <trkpt lat="45.82886" lon="4.7559">
        <ele>299.13118</ele>
        <time>2022-10-02T13:20:50.000Z</time>
      </trkpt>
      <trkpt lat="45.82885" lon="4.75593">
        <ele>299.55578</ele>
        <time>2022-10-02T13:20:51.000Z</time>
      </trkpt>
      <trkpt lat="45.82884" lon="4.75595">
        <ele>299.92983</ele>
        <time>2022-10-02T13:20:52.000Z</time>
      </trkpt>
      <trkpt lat="45.82883" lon="4.75597">
        <ele>300.23814</ele>
        <time>2022-10-02T13:20:53.000Z</time>
      </trkpt>
      <trkpt lat="45.8288" lon="4.75599">
        <ele>300.45843</ele>
        <time>2022-10-02T13:20:54.000Z</time>
      </trkpt>
      <trkpt lat="45.82878" lon="4.756">
        <ele>300.60499</ele>
        <time>2022-10-02T13:20:55.000Z</time>
      </trkpt>
      <trkpt lat="45.82875" lon="4.75602">
        <ele>300.78725</ele>
        <time>2022-10-02T13:20:56.000Z</time>
      </trkpt>
      <trkpt lat="45.82872" lon="4.75603">
        <ele>301.00863</ele>
        <time>2022-10-02T13:20:57.000Z</time>
      </trkpt>
      <trkpt lat="45.82869" lon="4.75605">
        <ele>301.24397</ele>
        <time>2022-10-02T13:20:58.000Z</time>
      </trkpt>
      <trkpt lat="45.82867" lon="4.75607">
        <ele>301.4957</ele>
        <time>2022-10-02T13:20:59.000Z</time>
      </trkpt>
      <trkpt lat="45.82865" lon="4.75609">
        <ele>301.7331</ele>
        <time>2022-10-02T13:21:00.000Z</time>
      </trkpt>
      <trkpt lat="45.82862" lon="4.75612">
        <ele>301.96452</ele>
        <time>2022-10-02T13:21:01.000Z</time>
      </trkpt>
      <trkpt lat="45.8286" lon="4.75615">
        <ele>302.16266</ele>
        <time>2022-10-02T13:21:02.000Z</time>
      </trkpt>
      <trkpt lat="45.82858" lon="4.75619">
        <ele>302.33387</ele>
        <time>2022-10-02T13:21:03.000Z</time>
      </trkpt>
      <trkpt lat="45.82856" lon="4.75623">
        <ele>302.41153</ele>
        <time>2022-10-02T13:21:04.000Z</time>
      </trkpt>
      <trkpt lat="45.82853" lon="4.75626">
        <ele>302.39429</ele>
        <time>2022-10-02T13:21:05.000Z</time>
      </trkpt>
      <trkpt lat="45.8285" lon="4.7563">
        <ele>302.35604</ele>
        <time>2022-10-02T13:21:06.000Z</time>
      </trkpt>
      <trkpt lat="45.82847" lon="4.75634">
        <ele>302.32623</ele>
        <time>2022-10-02T13:21:07.000Z</time>
      </trkpt>
      <trkpt lat="45.82845" lon="4.75638">
        <ele>302.3178</ele>
        <time>2022-10-02T13:21:08.000Z</time>
      </trkpt>
      <trkpt lat="45.82842" lon="4.75642">
        <ele>302.38693</ele>
        <time>2022-10-02T13:21:09.000Z</time>
      </trkpt>
      <trkpt lat="45.8284" lon="4.75646">
        <ele>302.48829</ele>
        <time>2022-10-02T13:21:10.000Z</time>
      </trkpt>
      <trkpt lat="45.82838" lon="4.7565">
        <ele>302.51482</ele>
        <time>2022-10-02T13:21:11.000Z</time>
      </trkpt>
      <trkpt lat="45.82835" lon="4.75655">
        <ele>302.42676</ele>
        <time>2022-10-02T13:21:12.000Z</time>
      </trkpt>
      <trkpt lat="45.82831" lon="4.7566">
        <ele>302.21185</ele>
        <time>2022-10-02T13:21:13.000Z</time>
      </trkpt>
      <trkpt lat="45.82828" lon="4.75665">
        <ele>302.04648</ele>
        <time>2022-10-02T13:21:14.000Z</time>
      </trkpt>
      <trkpt lat="45.82825" lon="4.7567">
        <ele>302.02137</ele>
        <time>2022-10-02T13:21:15.000Z</time>
      </trkpt>
      <trkpt lat="45.82821" lon="4.75675">
        <ele>302.20334</ele>
        <time>2022-10-02T13:21:16.000Z</time>
      </trkpt>
      <trkpt lat="45.82818" lon="4.75681">
        <ele>302.39504</ele>
        <time>2022-10-02T13:21:17.000Z</time>
      </trkpt>
      <trkpt lat="45.82814" lon="4.75686">
        <ele>302.24157</ele>
        <time>2022-10-02T13:21:18.000Z</time>
      </trkpt>
      <trkpt lat="45.82811" lon="4.75691">
        <ele>301.8225</ele>
        <time>2022-10-02T13:21:19.000Z</time>
      </trkpt>
      <trkpt lat="45.82809" lon="4.75695">
        <ele>301.35248</ele>
        <time>2022-10-02T13:21:20.000Z</time>
      </trkpt>
      <trkpt lat="45.82807" lon="4.757">
        <ele>301.10092</ele>
        <time>2022-10-02T13:21:21.000Z</time>
      </trkpt>
      <trkpt lat="45.82806" lon="4.75705">
        <ele>301.07751</ele>
        <time>2022-10-02T13:21:22.000Z</time>
      </trkpt>
      <trkpt lat="45.82804" lon="4.75709">
        <ele>301.28308</ele>
        <time>2022-10-02T13:21:23.000Z</time>
      </trkpt>
      <trkpt lat="45.82803" lon="4.75713">
        <ele>301.70883</ele>
        <time>2022-10-02T13:21:24.000Z</time>
      </trkpt>
      <trkpt lat="45.82801" lon="4.75718">
        <ele>302.33252</ele>
        <time>2022-10-02T13:21:25.000Z</time>
      </trkpt>
      <trkpt lat="45.828" lon="4.75721">
        <ele>302.77311</ele>
        <time>2022-10-02T13:21:26.000Z</time>
      </trkpt>
      <trkpt lat="45.828" lon="4.75723">
        <ele>303.23265</ele>
        <time>2022-10-02T13:21:27.000Z</time>
      </trkpt>
      <trkpt lat="45.82798" lon="4.75727">
        <ele>303.63685</ele>
        <time>2022-10-02T13:21:28.000Z</time>
      </trkpt>
      <trkpt lat="45.82797" lon="4.7573">
        <ele>303.94359</ele>
        <time>2022-10-02T13:21:29.000Z</time>
      </trkpt>
      <trkpt lat="45.82795" lon="4.75735">
        <ele>304.01844</ele>
        <time>2022-10-02T13:21:30.000Z</time>
      </trkpt>
      <trkpt lat="45.82793" lon="4.7574">
        <ele>303.94093</ele>
        <time>2022-10-02T13:21:31.000Z</time>
      </trkpt>
      <trkpt lat="45.82791" lon="4.75746">
        <ele>303.92455</ele>
        <time>2022-10-02T13:21:32.000Z</time>
      </trkpt>
      <trkpt lat="45.8279" lon="4.75751">
        <ele>303.99424</ele>
        <time>2022-10-02T13:21:33.000Z</time>
      </trkpt>
      <trkpt lat="45.8279" lon="4.75757">
        <ele>304.49779</ele>
        <time>2022-10-02T13:21:34.000Z</time>
      </trkpt>
      <trkpt lat="45.8279" lon="4.75763">
        <ele>305.16955</ele>
        <time>2022-10-02T13:21:35.000Z</time>
      </trkpt>
      <trkpt lat="45.82791" lon="4.7577">
        <ele>305.89418</ele>
        <time>2022-10-02T13:21:36.000Z</time>
      </trkpt>
      <trkpt lat="45.82788" lon="4.75788">
        <ele>305.36337</ele>
        <time>2022-10-02T13:21:37.000Z</time>
      </trkpt>
      <trkpt lat="45.82785" lon="4.75796">
        <ele>304.50662</ele>
        <time>2022-10-02T13:21:38.000Z</time>
      </trkpt>
      <trkpt lat="45.82783" lon="4.75802">
        <ele>304.10164</ele>
        <time>2022-10-02T13:21:39.000Z</time>
      </trkpt>
      <trkpt lat="45.82776" lon="4.75808">
        <ele>302.41007</ele>
        <time>2022-10-02T13:21:40.000Z</time>
      </trkpt>
      <trkpt lat="45.82774" lon="4.75811">
        <ele>301.92816</ele>
        <time>2022-10-02T13:21:41.000Z</time>
      </trkpt>
      <trkpt lat="45.82772" lon="4.75815">
        <ele>301.75437</ele>
        <time>2022-10-02T13:21:42.000Z</time>
      </trkpt>
      <trkpt lat="45.82768" lon="4.75821">
        <ele>301.4747</ele>
        <time>2022-10-02T13:21:43.000Z</time>
      </trkpt>
      <trkpt lat="45.82765" lon="4.75826">
        <ele>301.5398</ele>
        <time>2022-10-02T13:21:44.000Z</time>
      </trkpt>
      <trkpt lat="45.82759" lon="4.75831">
        <ele>301.50884</ele>
        <time>2022-10-02T13:21:45.000Z</time>
      </trkpt>
      <trkpt lat="45.82754" lon="4.75835">
        <ele>301.55029</ele>
        <time>2022-10-02T13:21:46.000Z</time>
      </trkpt>
      <trkpt lat="45.82751" lon="4.75841">
        <ele>301.78512</ele>
        <time>2022-10-02T13:21:47.000Z</time>
      </trkpt>
      <trkpt lat="45.82747" lon="4.75849">
        <ele>302.19115</ele>
        <time>2022-10-02T13:21:48.000Z</time>
      </trkpt>
      <trkpt lat="45.82742" lon="4.75856">
        <ele>302.76482</ele>
        <time>2022-10-02T13:21:49.000Z</time>
      </trkpt>
      <trkpt lat="45.82737" lon="4.75862">
        <ele>303.30937</ele>
        <time>2022-10-02T13:21:50.000Z</time>
      </trkpt>
      <trkpt lat="45.82734" lon="4.75865">
        <ele>303.66032</ele>
        <time>2022-10-02T13:21:51.000Z</time>
      </trkpt>
      <trkpt lat="45.82732" lon="4.75868">
        <ele>303.94691</ele>
        <time>2022-10-02T13:21:52.000Z</time>
      </trkpt>
      <trkpt lat="45.8273" lon="4.75871">
        <ele>304.27651</ele>
        <time>2022-10-02T13:21:53.000Z</time>
      </trkpt>
      <trkpt lat="45.82727" lon="4.75874">
        <ele>304.6749</ele>
        <time>2022-10-02T13:21:54.000Z</time>
      </trkpt>
      <trkpt lat="45.82724" lon="4.75877">
        <ele>305.12494</ele>
        <time>2022-10-02T13:21:55.000Z</time>
      </trkpt>
      <trkpt lat="45.82722" lon="4.7588">
        <ele>305.49237</ele>
        <time>2022-10-02T13:21:56.000Z</time>
      </trkpt>
      <trkpt lat="45.8272" lon="4.75881">
        <ele>305.75758</ele>
        <time>2022-10-02T13:21:57.000Z</time>
      </trkpt>
      <trkpt lat="45.82718" lon="4.75884">
        <ele>306.21252</ele>
        <time>2022-10-02T13:21:59.000Z</time>
      </trkpt>
      <trkpt lat="45.82715" lon="4.75887">
        <ele>306.81699</ele>
        <time>2022-10-02T13:22:01.000Z</time>
      </trkpt>
      <trkpt lat="45.82713" lon="4.75889">
        <ele>307.1348</ele>
        <time>2022-10-02T13:22:02.000Z</time>
      </trkpt>
      <trkpt lat="45.82711" lon="4.7589">
        <ele>307.4553</ele>
        <time>2022-10-02T13:22:03.000Z</time>
      </trkpt>
      <trkpt lat="45.82709" lon="4.75892">
        <ele>307.7601</ele>
        <time>2022-10-02T13:22:04.000Z</time>
      </trkpt>
      <trkpt lat="45.82707" lon="4.75894">
        <ele>308.18348</ele>
        <time>2022-10-02T13:22:05.000Z</time>
      </trkpt>
      <trkpt lat="45.82705" lon="4.75895">
        <ele>308.58417</ele>
        <time>2022-10-02T13:22:06.000Z</time>
      </trkpt>
      <trkpt lat="45.82703" lon="4.75898">
        <ele>309.11705</ele>
        <time>2022-10-02T13:22:07.000Z</time>
      </trkpt>
      <trkpt lat="45.82701" lon="4.75901">
        <ele>309.64497</ele>
        <time>2022-10-02T13:22:08.000Z</time>
      </trkpt>
      <trkpt lat="45.82699" lon="4.75902">
        <ele>309.89209</ele>
        <time>2022-10-02T13:22:09.000Z</time>
      </trkpt>
      <trkpt lat="45.82696" lon="4.75905">
        <ele>310.22359</ele>
        <time>2022-10-02T13:22:11.000Z</time>
      </trkpt>
      <trkpt lat="45.82693" lon="4.75907">
        <ele>310.46257</ele>
        <time>2022-10-02T13:22:12.000Z</time>
      </trkpt>
      <trkpt lat="45.82691" lon="4.75909">
        <ele>310.70532</ele>
        <time>2022-10-02T13:22:13.000Z</time>
      </trkpt>
      <trkpt lat="45.82689" lon="4.75911">
        <ele>310.88424</ele>
        <time>2022-10-02T13:22:14.000Z</time>
      </trkpt>
      <trkpt lat="45.82687" lon="4.75913">
        <ele>311.13806</ele>
        <time>2022-10-02T13:22:15.000Z</time>
      </trkpt>
      <trkpt lat="45.82685" lon="4.75915">
        <ele>311.45867</ele>
        <time>2022-10-02T13:22:16.000Z</time>
      </trkpt>
      <trkpt lat="45.82683" lon="4.75918">
        <ele>311.94093</ele>
        <time>2022-10-02T13:22:17.000Z</time>
      </trkpt>
      <trkpt lat="45.82681" lon="4.75921">
        <ele>312.59507</ele>
        <time>2022-10-02T13:22:18.000Z</time>
      </trkpt>
      <trkpt lat="45.82679" lon="4.75923">
        <ele>313.04599</ele>
        <time>2022-10-02T13:22:19.000Z</time>
      </trkpt>
      <trkpt lat="45.82676" lon="4.75925">
        <ele>313.48987</ele>
        <time>2022-10-02T13:22:20.000Z</time>
      </trkpt>
      <trkpt lat="45.82673" lon="4.75928">
        <ele>313.95937</ele>
        <time>2022-10-02T13:22:21.000Z</time>
      </trkpt>
      <trkpt lat="45.8267" lon="4.75931">
        <ele>314.1399</ele>
        <time>2022-10-02T13:22:22.000Z</time>
      </trkpt>
      <trkpt lat="45.82667" lon="4.75933">
        <ele>313.85891</ele>
        <time>2022-10-02T13:22:23.000Z</time>
      </trkpt>
      <trkpt lat="45.82664" lon="4.75937">
        <ele>313.53101</ele>
        <time>2022-10-02T13:22:24.000Z</time>
      </trkpt>
      <trkpt lat="45.82661" lon="4.7594">
        <ele>313.42357</ele>
        <time>2022-10-02T13:22:25.000Z</time>
      </trkpt>
      <trkpt lat="45.82659" lon="4.75943">
        <ele>313.45665</ele>
        <time>2022-10-02T13:22:26.000Z</time>
      </trkpt>
      <trkpt lat="45.82656" lon="4.75946">
        <ele>313.86801</ele>
        <time>2022-10-02T13:22:27.000Z</time>
      </trkpt>
      <trkpt lat="45.82654" lon="4.7595">
        <ele>314.67845</ele>
        <time>2022-10-02T13:22:28.000Z</time>
      </trkpt>
      <trkpt lat="45.82651" lon="4.75954">
        <ele>315.74635</ele>
        <time>2022-10-02T13:22:29.000Z</time>
      </trkpt>
      <trkpt lat="45.82648" lon="4.75958">
        <ele>316.80359</ele>
        <time>2022-10-02T13:22:30.000Z</time>
      </trkpt>
      <trkpt lat="45.82646" lon="4.75963">
        <ele>317.62547</ele>
        <time>2022-10-02T13:22:31.000Z</time>
      </trkpt>
      <trkpt lat="45.82643" lon="4.75967">
        <ele>317.93624</ele>
        <time>2022-10-02T13:22:32.000Z</time>
      </trkpt>
      <trkpt lat="45.82641" lon="4.75971">
        <ele>317.90324</ele>
        <time>2022-10-02T13:22:33.000Z</time>
      </trkpt>
      <trkpt lat="45.82638" lon="4.75975">
        <ele>317.773</ele>
        <time>2022-10-02T13:22:34.000Z</time>
      </trkpt>
      <trkpt lat="45.82636" lon="4.75978">
        <ele>317.68463</ele>
        <time>2022-10-02T13:22:35.000Z</time>
      </trkpt>
      <trkpt lat="45.82633" lon="4.75983">
        <ele>317.80394</ele>
        <time>2022-10-02T13:22:36.000Z</time>
      </trkpt>
      <trkpt lat="45.82629" lon="4.75989">
        <ele>318.30186</ele>
        <time>2022-10-02T13:22:37.000Z</time>
      </trkpt>
      <trkpt lat="45.82626" lon="4.75994">
        <ele>318.98633</ele>
        <time>2022-10-02T13:22:38.000Z</time>
      </trkpt>
      <trkpt lat="45.82623" lon="4.75998">
        <ele>319.55045</ele>
        <time>2022-10-02T13:22:39.000Z</time>
      </trkpt>
      <trkpt lat="45.82621" lon="4.76002">
        <ele>319.90074</ele>
        <time>2022-10-02T13:22:40.000Z</time>
      </trkpt>
      <trkpt lat="45.82618" lon="4.76006">
        <ele>320.08411</ele>
        <time>2022-10-02T13:22:41.000Z</time>
      </trkpt>
      <trkpt lat="45.82614" lon="4.7601">
        <ele>320.09779</ele>
        <time>2022-10-02T13:22:42.000Z</time>
      </trkpt>
      <trkpt lat="45.82611" lon="4.76014">
        <ele>319.9102</ele>
        <time>2022-10-02T13:22:43.000Z</time>
      </trkpt>
      <trkpt lat="45.82608" lon="4.76019">
        <ele>319.63562</ele>
        <time>2022-10-02T13:22:44.000Z</time>
      </trkpt>
      <trkpt lat="45.82605" lon="4.76023">
        <ele>319.4766</ele>
        <time>2022-10-02T13:22:45.000Z</time>
      </trkpt>
      <trkpt lat="45.82602" lon="4.76027">
        <ele>319.61301</ele>
        <time>2022-10-02T13:22:46.000Z</time>
      </trkpt>
      <trkpt lat="45.82599" lon="4.76032">
        <ele>319.97522</ele>
        <time>2022-10-02T13:22:47.000Z</time>
      </trkpt>
      <trkpt lat="45.82595" lon="4.76037">
        <ele>320.40122</ele>
        <time>2022-10-02T13:22:48.000Z</time>
      </trkpt>
      <trkpt lat="45.82592" lon="4.7604">
        <ele>320.66678</ele>
        <time>2022-10-02T13:22:49.000Z</time>
      </trkpt>
      <trkpt lat="45.82589" lon="4.76043">
        <ele>320.82467</ele>
        <time>2022-10-02T13:22:50.000Z</time>
      </trkpt>
      <trkpt lat="45.82586" lon="4.76046">
        <ele>320.89575</ele>
        <time>2022-10-02T13:22:51.000Z</time>
      </trkpt>
      <trkpt lat="45.82584" lon="4.76049">
        <ele>320.92803</ele>
        <time>2022-10-02T13:22:52.000Z</time>
      </trkpt>
      <trkpt lat="45.82582" lon="4.76051">
        <ele>320.9383</ele>
        <time>2022-10-02T13:22:53.000Z</time>
      </trkpt>
      <trkpt lat="45.82579" lon="4.76054">
        <ele>321.00059</ele>
        <time>2022-10-02T13:22:54.000Z</time>
      </trkpt>
      <trkpt lat="45.82577" lon="4.76056">
        <ele>321.16348</ele>
        <time>2022-10-02T13:22:55.000Z</time>
      </trkpt>
      <trkpt lat="45.82574" lon="4.76059">
        <ele>321.32475</ele>
        <time>2022-10-02T13:22:56.000Z</time>
      </trkpt>
      <trkpt lat="45.82571" lon="4.7606">
        <ele>321.45684</ele>
        <time>2022-10-02T13:22:57.000Z</time>
      </trkpt>
      <trkpt lat="45.82569" lon="4.76062">
        <ele>321.60084</ele>
        <time>2022-10-02T13:22:58.000Z</time>
      </trkpt>
      <trkpt lat="45.82567" lon="4.76064">
        <ele>321.77558</ele>
        <time>2022-10-02T13:22:59.000Z</time>
      </trkpt>
      <trkpt lat="45.82565" lon="4.76066">
        <ele>321.93372</ele>
        <time>2022-10-02T13:23:00.000Z</time>
      </trkpt>
      <trkpt lat="45.82562" lon="4.76068">
        <ele>322.0977</ele>
        <time>2022-10-02T13:23:01.000Z</time>
      </trkpt>
      <trkpt lat="45.8256" lon="4.76071">
        <ele>322.2733</ele>
        <time>2022-10-02T13:23:02.000Z</time>
      </trkpt>
      <trkpt lat="45.82558" lon="4.76075">
        <ele>322.46074</ele>
        <time>2022-10-02T13:23:03.000Z</time>
      </trkpt>
      <trkpt lat="45.82556" lon="4.76079">
        <ele>322.66718</ele>
        <time>2022-10-02T13:23:04.000Z</time>
      </trkpt>
      <trkpt lat="45.82553" lon="4.76082">
        <ele>322.9273</ele>
        <time>2022-10-02T13:23:05.000Z</time>
      </trkpt>
      <trkpt lat="45.8255" lon="4.76085">
        <ele>323.33739</ele>
        <time>2022-10-02T13:23:06.000Z</time>
      </trkpt>
      <trkpt lat="45.82547" lon="4.76088">
        <ele>323.93921</ele>
        <time>2022-10-02T13:23:07.000Z</time>
      </trkpt>
      <trkpt lat="45.82545" lon="4.7609">
        <ele>324.4027</ele>
        <time>2022-10-02T13:23:08.000Z</time>
      </trkpt>
      <trkpt lat="45.82543" lon="4.76092">
        <ele>324.79581</ele>
        <time>2022-10-02T13:23:09.000Z</time>
      </trkpt>
      <trkpt lat="45.82541" lon="4.76093">
        <ele>325.25872</ele>
        <time>2022-10-02T13:23:10.000Z</time>
      </trkpt>
      <trkpt lat="45.82539" lon="4.76096">
        <ele>325.9124</ele>
        <time>2022-10-02T13:23:12.000Z</time>
      </trkpt>
      <trkpt lat="45.82537" lon="4.76101">
        <ele>326.75344</ele>
        <time>2022-10-02T13:23:14.000Z</time>
      </trkpt>
      <trkpt lat="45.82535" lon="4.76104">
        <ele>327.26814</ele>
        <time>2022-10-02T13:23:15.000Z</time>
      </trkpt>
      <trkpt lat="45.82534" lon="4.76108">
        <ele>327.70255</ele>
        <time>2022-10-02T13:23:16.000Z</time>
      </trkpt>
      <trkpt lat="45.82534" lon="4.76111">
        <ele>328.05147</ele>
        <time>2022-10-02T13:23:17.000Z</time>
      </trkpt>
      <trkpt lat="45.82535" lon="4.76114">
        <ele>328.29696</ele>
        <time>2022-10-02T13:23:18.000Z</time>
      </trkpt>
      <trkpt lat="45.82536" lon="4.76118">
        <ele>328.5468</ele>
        <time>2022-10-02T13:23:19.000Z</time>
      </trkpt>
      <trkpt lat="45.82536" lon="4.76122">
        <ele>328.76054</ele>
        <time>2022-10-02T13:23:20.000Z</time>
      </trkpt>
      <trkpt lat="45.82537" lon="4.76125">
        <ele>328.90978</ele>
        <time>2022-10-02T13:23:21.000Z</time>
      </trkpt>
      <trkpt lat="45.82538" lon="4.76128">
        <ele>329.0017</ele>
        <time>2022-10-02T13:23:22.000Z</time>
      </trkpt>
      <trkpt lat="45.82539" lon="4.76131">
        <ele>329.14368</ele>
        <time>2022-10-02T13:23:23.000Z</time>
      </trkpt>
      <trkpt lat="45.82539" lon="4.76134">
        <ele>329.29538</ele>
        <time>2022-10-02T13:23:24.000Z</time>
      </trkpt>
      <trkpt lat="45.82538" lon="4.76137">
        <ele>329.46301</ele>
        <time>2022-10-02T13:23:25.000Z</time>
      </trkpt>
      <trkpt lat="45.82538" lon="4.7614">
        <ele>329.62307</ele>
        <time>2022-10-02T13:23:26.000Z</time>
      </trkpt>
      <trkpt lat="45.82537" lon="4.76143">
        <ele>329.79712</ele>
        <time>2022-10-02T13:23:27.000Z</time>
      </trkpt>
      <trkpt lat="45.82535" lon="4.76146">
        <ele>330.03887</ele>
        <time>2022-10-02T13:23:28.000Z</time>
      </trkpt>
      <trkpt lat="45.82534" lon="4.7615">
        <ele>330.31604</ele>
        <time>2022-10-02T13:23:29.000Z</time>
      </trkpt>
      <trkpt lat="45.82532" lon="4.76153">
        <ele>330.7106</ele>
        <time>2022-10-02T13:23:30.000Z</time>
      </trkpt>
      <trkpt lat="45.82529" lon="4.76156">
        <ele>331.31833</ele>
        <time>2022-10-02T13:23:31.000Z</time>
      </trkpt>
      <trkpt lat="45.82525" lon="4.76159">
        <ele>332.19907</ele>
        <time>2022-10-02T13:23:32.000Z</time>
      </trkpt>
      <trkpt lat="45.82522" lon="4.76161">
        <ele>333.16766</ele>
        <time>2022-10-02T13:23:33.000Z</time>
      </trkpt>
      <trkpt lat="45.82519" lon="4.76164">
        <ele>334.07336</ele>
        <time>2022-10-02T13:23:34.000Z</time>
      </trkpt>
      <trkpt lat="45.82516" lon="4.76167">
        <ele>334.87172</ele>
        <time>2022-10-02T13:23:35.000Z</time>
      </trkpt>
      <trkpt lat="45.82513" lon="4.7617">
        <ele>335.3847</ele>
        <time>2022-10-02T13:23:36.000Z</time>
      </trkpt>
      <trkpt lat="45.82511" lon="4.76173">
        <ele>335.67197</ele>
        <time>2022-10-02T13:23:37.000Z</time>
      </trkpt>
      <trkpt lat="45.82508" lon="4.76177">
        <ele>335.80234</ele>
        <time>2022-10-02T13:23:38.000Z</time>
      </trkpt>
      <trkpt lat="45.82506" lon="4.7618">
        <ele>335.88904</ele>
        <time>2022-10-02T13:23:39.000Z</time>
      </trkpt>
      <trkpt lat="45.82505" lon="4.76184">
        <ele>336.01729</ele>
        <time>2022-10-02T13:23:40.000Z</time>
      </trkpt>
      <trkpt lat="45.82504" lon="4.76187">
        <ele>336.1626</ele>
        <time>2022-10-02T13:23:41.000Z</time>
      </trkpt>
      <trkpt lat="45.82503" lon="4.7619">
        <ele>336.29708</ele>
        <time>2022-10-02T13:23:42.000Z</time>
      </trkpt>
      <trkpt lat="45.82502" lon="4.76193">
        <ele>336.40842</ele>
        <time>2022-10-02T13:23:43.000Z</time>
      </trkpt>
      <trkpt lat="45.825" lon="4.76197">
        <ele>336.60085</ele>
        <time>2022-10-02T13:23:45.000Z</time>
      </trkpt>
      <trkpt lat="45.82499" lon="4.76201">
        <ele>336.79945</ele>
        <time>2022-10-02T13:23:47.000Z</time>
      </trkpt>
      <trkpt lat="45.82499" lon="4.76206">
        <ele>337.01559</ele>
        <time>2022-10-02T13:23:49.000Z</time>
      </trkpt>
      <trkpt lat="45.82499" lon="4.7621">
        <ele>337.21173</ele>
        <time>2022-10-02T13:23:51.000Z</time>
      </trkpt>
      <trkpt lat="45.82498" lon="4.76213">
        <ele>337.30012</ele>
        <time>2022-10-02T13:23:52.000Z</time>
      </trkpt>
      <trkpt lat="45.82496" lon="4.76214">
        <ele>337.33878</ele>
        <time>2022-10-02T13:23:53.000Z</time>
      </trkpt>
      <trkpt lat="45.82494" lon="4.76214">
        <ele>337.31839</ele>
        <time>2022-10-02T13:23:54.000Z</time>
      </trkpt>
      <trkpt lat="45.82491" lon="4.76213">
        <ele>337.25736</ele>
        <time>2022-10-02T13:23:55.000Z</time>
      </trkpt>
      <trkpt lat="45.82491" lon="4.76213">
        <ele>337.25736</ele>
        <time>2022-10-02T13:23:55.000Z</time>
      </trkpt>
      <trkpt lat="45.82488" lon="4.76212">
        <ele>337.16277</ele>
        <time>2022-10-02T13:23:56.000Z</time>
      </trkpt>
      <trkpt lat="45.82485" lon="4.7621">
        <ele>337.06597</ele>
        <time>2022-10-02T13:23:57.000Z</time>
      </trkpt>
      <trkpt lat="45.82482" lon="4.76208">
        <ele>336.99146</ele>
        <time>2022-10-02T13:23:58.000Z</time>
      </trkpt>
      <trkpt lat="45.82479" lon="4.76207">
        <ele>336.94155</ele>
        <time>2022-10-02T13:23:59.000Z</time>
      </trkpt>
      <trkpt lat="45.82476" lon="4.76207">
        <ele>336.9165</ele>
        <time>2022-10-02T13:24:00.000Z</time>
      </trkpt>
      <trkpt lat="45.82472" lon="4.76207">
        <ele>336.92108</ele>
        <time>2022-10-02T13:24:01.000Z</time>
      </trkpt>
      <trkpt lat="45.82469" lon="4.76208">
        <ele>336.96083</ele>
        <time>2022-10-02T13:24:02.000Z</time>
      </trkpt>
      <trkpt lat="45.82465" lon="4.76211">
        <ele>337.05935</ele>
        <time>2022-10-02T13:24:03.000Z</time>
      </trkpt>
      <trkpt lat="45.8246" lon="4.76214">
        <ele>337.20082</ele>
        <time>2022-10-02T13:24:04.000Z</time>
      </trkpt>
      <trkpt lat="45.82457" lon="4.76218">
        <ele>337.31675</ele>
        <time>2022-10-02T13:24:05.000Z</time>
      </trkpt>
      <trkpt lat="45.82454" lon="4.76222">
        <ele>337.44502</ele>
        <time>2022-10-02T13:24:06.000Z</time>
      </trkpt>
      <trkpt lat="45.82451" lon="4.76226">
        <ele>337.59427</ele>
        <time>2022-10-02T13:24:07.000Z</time>
      </trkpt>
      <trkpt lat="45.8245" lon="4.76231">
        <ele>337.75063</ele>
        <time>2022-10-02T13:24:08.000Z</time>
      </trkpt>
      <trkpt lat="45.82449" lon="4.76236">
        <ele>337.8835</ele>
        <time>2022-10-02T13:24:09.000Z</time>
      </trkpt>
      <trkpt lat="45.82449" lon="4.76241">
        <ele>337.99709</ele>
        <time>2022-10-02T13:24:10.000Z</time>
      </trkpt>
      <trkpt lat="45.82448" lon="4.76246">
        <ele>338.0753</ele>
        <time>2022-10-02T13:24:11.000Z</time>
      </trkpt>
      <trkpt lat="45.82448" lon="4.76251">
        <ele>338.11823</ele>
        <time>2022-10-02T13:24:12.000Z</time>
      </trkpt>
      <trkpt lat="45.82447" lon="4.76256">
        <ele>338.12707</ele>
        <time>2022-10-02T13:24:13.000Z</time>
      </trkpt>
      <trkpt lat="45.82446" lon="4.7626">
        <ele>338.11843</ele>
        <time>2022-10-02T13:24:14.000Z</time>
      </trkpt>
      <trkpt lat="45.82444" lon="4.76264">
        <ele>338.09834</ele>
        <time>2022-10-02T13:24:15.000Z</time>
      </trkpt>
      <trkpt lat="45.82442" lon="4.76268">
        <ele>338.06867</ele>
        <time>2022-10-02T13:24:16.000Z</time>
      </trkpt>
      <trkpt lat="45.82439" lon="4.76272">
        <ele>338.03445</ele>
        <time>2022-10-02T13:24:17.000Z</time>
      </trkpt>
      <trkpt lat="45.82436" lon="4.76275">
        <ele>338.00952</ele>
        <time>2022-10-02T13:24:18.000Z</time>
      </trkpt>
      <trkpt lat="45.82433" lon="4.76277">
        <ele>337.99599</ele>
        <time>2022-10-02T13:24:19.000Z</time>
      </trkpt>
      <trkpt lat="45.82429" lon="4.76278">
        <ele>337.99098</ele>
        <time>2022-10-02T13:24:20.000Z</time>
      </trkpt>
      <trkpt lat="45.82426" lon="4.76279">
        <ele>337.99118</ele>
        <time>2022-10-02T13:24:21.000Z</time>
      </trkpt>
      <trkpt lat="45.82423" lon="4.76279">
        <ele>337.99443</ele>
        <time>2022-10-02T13:24:22.000Z</time>
      </trkpt>
      <trkpt lat="45.82421" lon="4.7628">
        <ele>337.99242</ele>
        <time>2022-10-02T13:24:23.000Z</time>
      </trkpt>
      <trkpt lat="45.82417" lon="4.7628">
        <ele>337.97339</ele>
        <time>2022-10-02T13:24:24.000Z</time>
      </trkpt>
      <trkpt lat="45.82414" lon="4.7628">
        <ele>337.93544</ele>
        <time>2022-10-02T13:24:25.000Z</time>
      </trkpt>
      <trkpt lat="45.82412" lon="4.76278">
        <ele>337.92155</ele>
        <time>2022-10-02T13:24:26.000Z</time>
      </trkpt>
      <trkpt lat="45.82411" lon="4.76275">
        <ele>338.00107</ele>
        <time>2022-10-02T13:24:27.000Z</time>
      </trkpt>
      <trkpt lat="45.82412" lon="4.76271">
        <ele>338.06103</ele>
        <time>2022-10-02T13:24:28.000Z</time>
      </trkpt>
      <trkpt lat="45.82415" lon="4.76268">
        <ele>337.97252</ele>
        <time>2022-10-02T13:24:29.000Z</time>
      </trkpt>
      <trkpt lat="45.82419" lon="4.76267">
        <ele>337.87195</ele>
        <time>2022-10-02T13:24:30.000Z</time>
      </trkpt>
      <trkpt lat="45.82423" lon="4.76267">
        <ele>337.84129</ele>
        <time>2022-10-02T13:24:31.000Z</time>
      </trkpt>
      <trkpt lat="45.82427" lon="4.76265">
        <ele>337.85739</ele>
        <time>2022-10-02T13:24:32.000Z</time>
      </trkpt>
      <trkpt lat="45.82431" lon="4.76262">
        <ele>337.92875</ele>
        <time>2022-10-02T13:24:33.000Z</time>
      </trkpt>
      <trkpt lat="45.82434" lon="4.76257">
        <ele>338.04194</ele>
        <time>2022-10-02T13:24:34.000Z</time>
      </trkpt>
      <trkpt lat="45.82435" lon="4.76251">
        <ele>338.14421</ele>
        <time>2022-10-02T13:24:35.000Z</time>
      </trkpt>
      <trkpt lat="45.82435" lon="4.76244">
        <ele>338.21047</ele>
        <time>2022-10-02T13:24:36.000Z</time>
      </trkpt>
      <trkpt lat="45.82434" lon="4.76237">
        <ele>338.36208</ele>
        <time>2022-10-02T13:24:37.000Z</time>
      </trkpt>
      <trkpt lat="45.82432" lon="4.76231">
        <ele>338.69743</ele>
        <time>2022-10-02T13:24:38.000Z</time>
      </trkpt>
      <trkpt lat="45.8243" lon="4.76226">
        <ele>339.23102</ele>
        <time>2022-10-02T13:24:39.000Z</time>
      </trkpt>
      <trkpt lat="45.82429" lon="4.7622">
        <ele>339.91931</ele>
        <time>2022-10-02T13:24:40.000Z</time>
      </trkpt>
      <trkpt lat="45.82427" lon="4.76215">
        <ele>340.61777</ele>
        <time>2022-10-02T13:24:41.000Z</time>
      </trkpt>
      <trkpt lat="45.82425" lon="4.7621">
        <ele>341.12053</ele>
        <time>2022-10-02T13:24:42.000Z</time>
      </trkpt>
      <trkpt lat="45.82422" lon="4.76205">
        <ele>341.34272</ele>
        <time>2022-10-02T13:24:43.000Z</time>
      </trkpt>
      <trkpt lat="45.8242" lon="4.76201">
        <ele>341.35149</ele>
        <time>2022-10-02T13:24:44.000Z</time>
      </trkpt>
      <trkpt lat="45.82417" lon="4.76196">
        <ele>341.08307</ele>
        <time>2022-10-02T13:24:45.000Z</time>
      </trkpt>
      <trkpt lat="45.82415" lon="4.76192">
        <ele>340.63019</ele>
        <time>2022-10-02T13:24:46.000Z</time>
      </trkpt>
      <trkpt lat="45.82413" lon="4.76187">
        <ele>340.15362</ele>
        <time>2022-10-02T13:24:47.000Z</time>
      </trkpt>
      <trkpt lat="45.8241" lon="4.76182">
        <ele>339.77627</ele>
        <time>2022-10-02T13:24:48.000Z</time>
      </trkpt>
      <trkpt lat="45.82409" lon="4.76178">
        <ele>339.58747</ele>
        <time>2022-10-02T13:24:49.000Z</time>
      </trkpt>
      <trkpt lat="45.82407" lon="4.76173">
        <ele>339.45826</ele>
        <time>2022-10-02T13:24:50.000Z</time>
      </trkpt>
      <trkpt lat="45.82405" lon="4.76167">
        <ele>339.38448</ele>
        <time>2022-10-02T13:24:51.000Z</time>
      </trkpt>
      <trkpt lat="45.82403" lon="4.76162">
        <ele>339.3227</ele>
        <time>2022-10-02T13:24:52.000Z</time>
      </trkpt>
      <trkpt lat="45.82402" lon="4.76157">
        <ele>339.28449</ele>
        <time>2022-10-02T13:24:53.000Z</time>
      </trkpt>
      <trkpt lat="45.824" lon="4.76152">
        <ele>339.25298</ele>
        <time>2022-10-02T13:24:54.000Z</time>
      </trkpt>
      <trkpt lat="45.82397" lon="4.76146">
        <ele>339.27471</ele>
        <time>2022-10-02T13:24:55.000Z</time>
      </trkpt>
      <trkpt lat="45.82395" lon="4.76142">
        <ele>339.29473</ele>
        <time>2022-10-02T13:24:56.000Z</time>
      </trkpt>
      <trkpt lat="45.82392" lon="4.76135">
        <ele>339.40832</ele>
        <time>2022-10-02T13:24:57.000Z</time>
      </trkpt>
      <trkpt lat="45.82387" lon="4.76128">
        <ele>339.63617</ele>
        <time>2022-10-02T13:24:58.000Z</time>
      </trkpt>
      <trkpt lat="45.82384" lon="4.76121">
        <ele>339.64771</ele>
        <time>2022-10-02T13:24:59.000Z</time>
      </trkpt>
      <trkpt lat="45.8238" lon="4.76115">
        <ele>339.6714</ele>
        <time>2022-10-02T13:25:00.000Z</time>
      </trkpt>
      <trkpt lat="45.82376" lon="4.76108">
        <ele>339.62493</ele>
        <time>2022-10-02T13:25:01.000Z</time>
      </trkpt>
      <trkpt lat="45.82373" lon="4.76103">
        <ele>339.57341</ele>
        <time>2022-10-02T13:25:02.000Z</time>
      </trkpt>
      <trkpt lat="45.8237" lon="4.76097">
        <ele>339.4483</ele>
        <time>2022-10-02T13:25:03.000Z</time>
      </trkpt>
      <trkpt lat="45.82368" lon="4.76092">
        <ele>339.33184</ele>
        <time>2022-10-02T13:25:04.000Z</time>
      </trkpt>
      <trkpt lat="45.82365" lon="4.76085">
        <ele>339.20834</ele>
        <time>2022-10-02T13:25:05.000Z</time>
      </trkpt>
      <trkpt lat="45.82361" lon="4.76078">
        <ele>339.14677</ele>
        <time>2022-10-02T13:25:06.000Z</time>
      </trkpt>
      <trkpt lat="45.82358" lon="4.76072">
        <ele>339.02717</ele>
        <time>2022-10-02T13:25:07.000Z</time>
      </trkpt>
      <trkpt lat="45.82357" lon="4.76068">
        <ele>338.89601</ele>
        <time>2022-10-02T13:25:08.000Z</time>
      </trkpt>
      <trkpt lat="45.82354" lon="4.7606">
        <ele>338.80991</ele>
        <time>2022-10-02T13:25:09.000Z</time>
      </trkpt>
      <trkpt lat="45.8235" lon="4.7605">
        <ele>338.70397</ele>
        <time>2022-10-02T13:25:10.000Z</time>
      </trkpt>
      <trkpt lat="45.82347" lon="4.76042">
        <ele>338.7213</ele>
        <time>2022-10-02T13:25:11.000Z</time>
      </trkpt>
      <trkpt lat="45.82344" lon="4.76031">
        <ele>338.84725</ele>
        <time>2022-10-02T13:25:12.000Z</time>
      </trkpt>
      <trkpt lat="45.82341" lon="4.76022">
        <ele>339.04197</ele>
        <time>2022-10-02T13:25:13.000Z</time>
      </trkpt>
      <trkpt lat="45.82341" lon="4.76014">
        <ele>339.11733</ele>
        <time>2022-10-02T13:25:14.000Z</time>
      </trkpt>
      <trkpt lat="45.8234" lon="4.76007">
        <ele>339.28059</ele>
        <time>2022-10-02T13:25:15.000Z</time>
      </trkpt>
      <trkpt lat="45.8234" lon="4.76001">
        <ele>339.37765</ele>
        <time>2022-10-02T13:25:16.000Z</time>
      </trkpt>
      <trkpt lat="45.82339" lon="4.75993">
        <ele>339.5446</ele>
        <time>2022-10-02T13:25:17.000Z</time>
      </trkpt>
      <trkpt lat="45.8234" lon="4.75986">
        <ele>339.60577</ele>
        <time>2022-10-02T13:25:18.000Z</time>
      </trkpt>
      <trkpt lat="45.82341" lon="4.75977">
        <ele>339.53129</ele>
        <time>2022-10-02T13:25:19.000Z</time>
      </trkpt>
      <trkpt lat="45.82341" lon="4.75971">
        <ele>339.47796</ele>
        <time>2022-10-02T13:25:20.000Z</time>
      </trkpt>
      <trkpt lat="45.82341" lon="4.75965">
        <ele>339.47285</ele>
        <time>2022-10-02T13:25:21.000Z</time>
      </trkpt>
      <trkpt lat="45.8234" lon="4.75957">
        <ele>339.48025</ele>
        <time>2022-10-02T13:25:22.000Z</time>
      </trkpt>
      <trkpt lat="45.8234" lon="4.75951">
        <ele>339.48322</ele>
        <time>2022-10-02T13:25:23.000Z</time>
      </trkpt>
      <trkpt lat="45.82341" lon="4.75944">
        <ele>339.48199</ele>
        <time>2022-10-02T13:25:24.000Z</time>
      </trkpt>
      <trkpt lat="45.82341" lon="4.75938">
        <ele>339.52587</ele>
        <time>2022-10-02T13:25:25.000Z</time>
      </trkpt>
      <trkpt lat="45.82341" lon="4.75931">
        <ele>339.56771</ele>
        <time>2022-10-02T13:25:26.000Z</time>
      </trkpt>
      <trkpt lat="45.82341" lon="4.75925">
        <ele>339.60162</ele>
        <time>2022-10-02T13:25:27.000Z</time>
      </trkpt>
      <trkpt lat="45.82341" lon="4.75919">
        <ele>339.66273</ele>
        <time>2022-10-02T13:25:28.000Z</time>
      </trkpt>
      <trkpt lat="45.8234" lon="4.75912">
        <ele>339.73388</ele>
        <time>2022-10-02T13:25:29.000Z</time>
      </trkpt>
      <trkpt lat="45.8234" lon="4.75906">
        <ele>339.78604</ele>
        <time>2022-10-02T13:25:30.000Z</time>
      </trkpt>
      <trkpt lat="45.8234" lon="4.75902">
        <ele>339.81066</ele>
        <time>2022-10-02T13:25:31.000Z</time>
      </trkpt>
      <trkpt lat="45.8234" lon="4.75899">
        <ele>339.81523</ele>
        <time>2022-10-02T13:25:32.000Z</time>
      </trkpt>
      <trkpt lat="45.8234" lon="4.75892">
        <ele>339.83925</ele>
        <time>2022-10-02T13:25:33.000Z</time>
      </trkpt>
      <trkpt lat="45.8234" lon="4.75886">
        <ele>339.8793</ele>
        <time>2022-10-02T13:25:34.000Z</time>
      </trkpt>
      <trkpt lat="45.82339" lon="4.7588">
        <ele>339.87934</ele>
        <time>2022-10-02T13:25:35.000Z</time>
      </trkpt>
      <trkpt lat="45.82338" lon="4.75874">
        <ele>339.86105</ele>
        <time>2022-10-02T13:25:36.000Z</time>
      </trkpt>
      <trkpt lat="45.82339" lon="4.75868">
        <ele>339.79992</ele>
        <time>2022-10-02T13:25:37.000Z</time>
      </trkpt>
      <trkpt lat="45.82339" lon="4.75861">
        <ele>339.73276</ele>
        <time>2022-10-02T13:25:38.000Z</time>
      </trkpt>
      <trkpt lat="45.82339" lon="4.75855">
        <ele>339.6798</ele>
        <time>2022-10-02T13:25:39.000Z</time>
      </trkpt>
      <trkpt lat="45.82339" lon="4.75849">
        <ele>339.63918</ele>
        <time>2022-10-02T13:25:40.000Z</time>
      </trkpt>
      <trkpt lat="45.82338" lon="4.75839">
        <ele>339.61563</ele>
        <time>2022-10-02T13:25:41.000Z</time>
      </trkpt>
      <trkpt lat="45.82337" lon="4.75833">
        <ele>339.59012</ele>
        <time>2022-10-02T13:25:42.000Z</time>
      </trkpt>
      <trkpt lat="45.82338" lon="4.75828">
        <ele>339.52121</ele>
        <time>2022-10-02T13:25:43.000Z</time>
      </trkpt>
      <trkpt lat="45.82338" lon="4.75821">
        <ele>339.42315</ele>
        <time>2022-10-02T13:25:44.000Z</time>
      </trkpt>
      <trkpt lat="45.82338" lon="4.75815">
        <ele>339.31944</ele>
        <time>2022-10-02T13:25:45.000Z</time>
      </trkpt>
      <trkpt lat="45.82338" lon="4.75807">
        <ele>339.1495</ele>
        <time>2022-10-02T13:25:46.000Z</time>
      </trkpt>
      <trkpt lat="45.82338" lon="4.758">
        <ele>338.99075</ele>
        <time>2022-10-02T13:25:47.000Z</time>
      </trkpt>
      <trkpt lat="45.82339" lon="4.75794">
        <ele>338.83259</ele>
        <time>2022-10-02T13:25:48.000Z</time>
      </trkpt>
      <trkpt lat="45.82339" lon="4.75787">
        <ele>338.64843</ele>
        <time>2022-10-02T13:25:49.000Z</time>
      </trkpt>
      <trkpt lat="45.82338" lon="4.75779">
        <ele>338.33785</ele>
        <time>2022-10-02T13:25:50.000Z</time>
      </trkpt>
      <trkpt lat="45.8234" lon="4.75775">
        <ele>338.18384</ele>
        <time>2022-10-02T13:25:51.000Z</time>
      </trkpt>
      <trkpt lat="45.82341" lon="4.75767">
        <ele>337.96354</ele>
        <time>2022-10-02T13:25:52.000Z</time>
      </trkpt>
      <trkpt lat="45.82343" lon="4.7576">
        <ele>337.9586</ele>
        <time>2022-10-02T13:25:53.000Z</time>
      </trkpt>
      <trkpt lat="45.82344" lon="4.75751">
        <ele>338.19521</ele>
        <time>2022-10-02T13:25:54.000Z</time>
      </trkpt>
      <trkpt lat="45.82343" lon="4.75742">
        <ele>338.62458</ele>
        <time>2022-10-02T13:25:55.000Z</time>
      </trkpt>
      <trkpt lat="45.82345" lon="4.75737">
        <ele>338.93023</ele>
        <time>2022-10-02T13:25:56.000Z</time>
      </trkpt>
      <trkpt lat="45.82348" lon="4.7573">
        <ele>339.23122</ele>
        <time>2022-10-02T13:25:57.000Z</time>
      </trkpt>
      <trkpt lat="45.8235" lon="4.75724">
        <ele>339.37217</ele>
        <time>2022-10-02T13:25:58.000Z</time>
      </trkpt>
      <trkpt lat="45.82352" lon="4.75719">
        <ele>339.44487</ele>
        <time>2022-10-02T13:25:59.000Z</time>
      </trkpt>
      <trkpt lat="45.82354" lon="4.75717">
        <ele>339.40747</ele>
        <time>2022-10-02T13:26:00.000Z</time>
      </trkpt>
      <trkpt lat="45.82356" lon="4.75712">
        <ele>339.39517</ele>
        <time>2022-10-02T13:26:01.000Z</time>
      </trkpt>
      <trkpt lat="45.82358" lon="4.75706">
        <ele>339.47328</ele>
        <time>2022-10-02T13:26:02.000Z</time>
      </trkpt>
      <trkpt lat="45.82359" lon="4.75701">
        <ele>339.49772</ele>
        <time>2022-10-02T13:26:03.000Z</time>
      </trkpt>
      <trkpt lat="45.8236" lon="4.75695">
        <ele>339.55126</ele>
        <time>2022-10-02T13:26:04.000Z</time>
      </trkpt>
      <trkpt lat="45.82362" lon="4.75688">
        <ele>339.56988</ele>
        <time>2022-10-02T13:26:05.000Z</time>
      </trkpt>
      <trkpt lat="45.82363" lon="4.75683">
        <ele>339.64333</ele>
        <time>2022-10-02T13:26:06.000Z</time>
      </trkpt>
      <trkpt lat="45.82365" lon="4.75677">
        <ele>339.73973</ele>
        <time>2022-10-02T13:26:07.000Z</time>
      </trkpt>
      <trkpt lat="45.82367" lon="4.75673">
        <ele>339.86614</ele>
        <time>2022-10-02T13:26:08.000Z</time>
      </trkpt>
      <trkpt lat="45.8237" lon="4.7567">
        <ele>340.0521</ele>
        <time>2022-10-02T13:26:09.000Z</time>
      </trkpt>
      <trkpt lat="45.82372" lon="4.75664">
        <ele>340.43441</ele>
        <time>2022-10-02T13:26:10.000Z</time>
      </trkpt>
      <trkpt lat="45.82375" lon="4.7566">
        <ele>340.67217</ele>
        <time>2022-10-02T13:26:11.000Z</time>
      </trkpt>
      <trkpt lat="45.82376" lon="4.75654">
        <ele>340.94236</ele>
        <time>2022-10-02T13:26:12.000Z</time>
      </trkpt>
      <trkpt lat="45.82377" lon="4.75649">
        <ele>341.10475</ele>
        <time>2022-10-02T13:26:13.000Z</time>
      </trkpt>
      <trkpt lat="45.82379" lon="4.75644">
        <ele>341.18158</ele>
        <time>2022-10-02T13:26:14.000Z</time>
      </trkpt>
      <trkpt lat="45.82381" lon="4.75638">
        <ele>341.11457</ele>
        <time>2022-10-02T13:26:15.000Z</time>
      </trkpt>
      <trkpt lat="45.82383" lon="4.75634">
        <ele>340.98242</ele>
        <time>2022-10-02T13:26:16.000Z</time>
      </trkpt>
      <trkpt lat="45.82384" lon="4.75629">
        <ele>341.04777</ele>
        <time>2022-10-02T13:26:17.000Z</time>
      </trkpt>
      <trkpt lat="45.82386" lon="4.75623">
        <ele>341.15181</ele>
        <time>2022-10-02T13:26:18.000Z</time>
      </trkpt>
      <trkpt lat="45.82386" lon="4.75618">
        <ele>341.43861</ele>
        <time>2022-10-02T13:26:19.000Z</time>
      </trkpt>
      <trkpt lat="45.82387" lon="4.75612">
        <ele>341.83856</ele>
        <time>2022-10-02T13:26:20.000Z</time>
      </trkpt>
      <trkpt lat="45.82387" lon="4.75606">
        <ele>342.2535</ele>
        <time>2022-10-02T13:26:21.000Z</time>
      </trkpt>
      <trkpt lat="45.82387" lon="4.75601">
        <ele>342.61015</ele>
        <time>2022-10-02T13:26:22.000Z</time>
      </trkpt>
      <trkpt lat="45.82387" lon="4.75595">
        <ele>342.8648</ele>
        <time>2022-10-02T13:26:23.000Z</time>
      </trkpt>
      <trkpt lat="45.82386" lon="4.7559">
        <ele>343.06506</ele>
        <time>2022-10-02T13:26:24.000Z</time>
      </trkpt>
      <trkpt lat="45.82385" lon="4.75585">
        <ele>343.28156</ele>
        <time>2022-10-02T13:26:25.000Z</time>
      </trkpt>
      <trkpt lat="45.82384" lon="4.75579">
        <ele>343.5521</ele>
        <time>2022-10-02T13:26:26.000Z</time>
      </trkpt>
      <trkpt lat="45.82383" lon="4.75575">
        <ele>343.85941</ele>
        <time>2022-10-02T13:26:27.000Z</time>
      </trkpt>
      <trkpt lat="45.82382" lon="4.7557">
        <ele>344.21443</ele>
        <time>2022-10-02T13:26:28.000Z</time>
      </trkpt>
      <trkpt lat="45.8238" lon="4.75565">
        <ele>344.5747</ele>
        <time>2022-10-02T13:26:29.000Z</time>
      </trkpt>
      <trkpt lat="45.82379" lon="4.75561">
        <ele>344.97083</ele>
        <time>2022-10-02T13:26:30.000Z</time>
      </trkpt>
      <trkpt lat="45.82377" lon="4.75556">
        <ele>345.37842</ele>
        <time>2022-10-02T13:26:31.000Z</time>
      </trkpt>
      <trkpt lat="45.82375" lon="4.75551">
        <ele>345.7589</ele>
        <time>2022-10-02T13:26:32.000Z</time>
      </trkpt>
      <trkpt lat="45.82374" lon="4.75546">
        <ele>346.08294</ele>
        <time>2022-10-02T13:26:33.000Z</time>
      </trkpt>
      <trkpt lat="45.82372" lon="4.75541">
        <ele>346.34525</ele>
        <time>2022-10-02T13:26:34.000Z</time>
      </trkpt>
      <trkpt lat="45.82371" lon="4.75536">
        <ele>346.56643</ele>
        <time>2022-10-02T13:26:35.000Z</time>
      </trkpt>
      <trkpt lat="45.82369" lon="4.75531">
        <ele>346.75967</ele>
        <time>2022-10-02T13:26:36.000Z</time>
      </trkpt>
      <trkpt lat="45.82367" lon="4.75527">
        <ele>346.93096</ele>
        <time>2022-10-02T13:26:37.000Z</time>
      </trkpt>
      <trkpt lat="45.82366" lon="4.75522">
        <ele>347.13405</ele>
        <time>2022-10-02T13:26:38.000Z</time>
      </trkpt>
      <trkpt lat="45.82364" lon="4.75517">
        <ele>347.3757</ele>
        <time>2022-10-02T13:26:39.000Z</time>
      </trkpt>
      <trkpt lat="45.82363" lon="4.75513">
        <ele>347.65897</ele>
        <time>2022-10-02T13:26:40.000Z</time>
      </trkpt>
      <trkpt lat="45.82361" lon="4.75508">
        <ele>347.97879</ele>
        <time>2022-10-02T13:26:41.000Z</time>
      </trkpt>
      <trkpt lat="45.8236" lon="4.75504">
        <ele>348.31013</ele>
        <time>2022-10-02T13:26:42.000Z</time>
      </trkpt>
      <trkpt lat="45.82359" lon="4.75499">
        <ele>348.62295</ele>
        <time>2022-10-02T13:26:43.000Z</time>
      </trkpt>
      <trkpt lat="45.82357" lon="4.75495">
        <ele>348.94993</ele>
        <time>2022-10-02T13:26:44.000Z</time>
      </trkpt>
      <trkpt lat="45.82356" lon="4.7549">
        <ele>349.23578</ele>
        <time>2022-10-02T13:26:45.000Z</time>
      </trkpt>
      <trkpt lat="45.82355" lon="4.75486">
        <ele>349.48165</ele>
        <time>2022-10-02T13:26:46.000Z</time>
      </trkpt>
      <trkpt lat="45.82354" lon="4.75482">
        <ele>349.71475</ele>
        <time>2022-10-02T13:26:47.000Z</time>
      </trkpt>
      <trkpt lat="45.82352" lon="4.75478">
        <ele>349.91399</ele>
        <time>2022-10-02T13:26:48.000Z</time>
      </trkpt>
      <trkpt lat="45.82351" lon="4.75474">
        <ele>350.08447</ele>
        <time>2022-10-02T13:26:49.000Z</time>
      </trkpt>
      <trkpt lat="45.8235" lon="4.75469">
        <ele>350.22824</ele>
        <time>2022-10-02T13:26:50.000Z</time>
      </trkpt>
      <trkpt lat="45.8235" lon="4.75466">
        <ele>350.36339</ele>
        <time>2022-10-02T13:26:51.000Z</time>
      </trkpt>
      <trkpt lat="45.82349" lon="4.75462">
        <ele>350.50787</ele>
        <time>2022-10-02T13:26:52.000Z</time>
      </trkpt>
      <trkpt lat="45.82348" lon="4.75458">
        <ele>350.63729</ele>
        <time>2022-10-02T13:26:53.000Z</time>
      </trkpt>
      <trkpt lat="45.82347" lon="4.75454">
        <ele>350.75479</ele>
        <time>2022-10-02T13:26:54.000Z</time>
      </trkpt>
      <trkpt lat="45.82346" lon="4.7545">
        <ele>350.87549</ele>
        <time>2022-10-02T13:26:55.000Z</time>
      </trkpt>
      <trkpt lat="45.82345" lon="4.75447">
        <ele>350.99179</ele>
        <time>2022-10-02T13:26:56.000Z</time>
      </trkpt>
      <trkpt lat="45.82344" lon="4.75443">
        <ele>351.11305</ele>
        <time>2022-10-02T13:26:57.000Z</time>
      </trkpt>
      <trkpt lat="45.82343" lon="4.75439">
        <ele>351.2555</ele>
        <time>2022-10-02T13:26:58.000Z</time>
      </trkpt>
      <trkpt lat="45.82342" lon="4.75435">
        <ele>351.43052</ele>
        <time>2022-10-02T13:26:59.000Z</time>
      </trkpt>
      <trkpt lat="45.82341" lon="4.75431">
        <ele>351.65703</ele>
        <time>2022-10-02T13:27:00.000Z</time>
      </trkpt>
      <trkpt lat="45.8234" lon="4.75426">
        <ele>351.95512</ele>
        <time>2022-10-02T13:27:01.000Z</time>
      </trkpt>
      <trkpt lat="45.82339" lon="4.75422">
        <ele>352.29683</ele>
        <time>2022-10-02T13:27:02.000Z</time>
      </trkpt>
      <trkpt lat="45.82338" lon="4.75417">
        <ele>352.68303</ele>
        <time>2022-10-02T13:27:03.000Z</time>
      </trkpt>
      <trkpt lat="45.82337" lon="4.75412">
        <ele>353.09254</ele>
        <time>2022-10-02T13:27:04.000Z</time>
      </trkpt>
      <trkpt lat="45.82335" lon="4.75406">
        <ele>353.49987</ele>
        <time>2022-10-02T13:27:05.000Z</time>
      </trkpt>
      <trkpt lat="45.82334" lon="4.75401">
        <ele>353.84341</ele>
        <time>2022-10-02T13:27:06.000Z</time>
      </trkpt>
      <trkpt lat="45.82333" lon="4.75396">
        <ele>354.14366</ele>
        <time>2022-10-02T13:27:07.000Z</time>
      </trkpt>
      <trkpt lat="45.82331" lon="4.75391">
        <ele>354.40009</ele>
        <time>2022-10-02T13:27:08.000Z</time>
      </trkpt>
      <trkpt lat="45.8233" lon="4.75386">
        <ele>354.63796</ele>
        <time>2022-10-02T13:27:09.000Z</time>
      </trkpt>
      <trkpt lat="45.82329" lon="4.75381">
        <ele>354.86412</ele>
        <time>2022-10-02T13:27:10.000Z</time>
      </trkpt>
      <trkpt lat="45.82328" lon="4.75376">
        <ele>355.10948</ele>
        <time>2022-10-02T13:27:11.000Z</time>
      </trkpt>
      <trkpt lat="45.82326" lon="4.7537">
        <ele>355.37533</ele>
        <time>2022-10-02T13:27:12.000Z</time>
      </trkpt>
      <trkpt lat="45.82325" lon="4.75365">
        <ele>355.59119</ele>
        <time>2022-10-02T13:27:13.000Z</time>
      </trkpt>
      <trkpt lat="45.82323" lon="4.75361">
        <ele>355.75946</ele>
        <time>2022-10-02T13:27:14.000Z</time>
      </trkpt>
      <trkpt lat="45.82322" lon="4.75356">
        <ele>355.9054</ele>
        <time>2022-10-02T13:27:15.000Z</time>
      </trkpt>
      <trkpt lat="45.8232" lon="4.7535">
        <ele>356.08319</ele>
        <time>2022-10-02T13:27:16.000Z</time>
      </trkpt>
      <trkpt lat="45.82318" lon="4.75345">
        <ele>356.33641</ele>
        <time>2022-10-02T13:27:17.000Z</time>
      </trkpt>
      <trkpt lat="45.82316" lon="4.7534">
        <ele>356.69187</ele>
        <time>2022-10-02T13:27:18.000Z</time>
      </trkpt>
      <trkpt lat="45.82313" lon="4.75335">
        <ele>357.14174</ele>
        <time>2022-10-02T13:27:19.000Z</time>
      </trkpt>
      <trkpt lat="45.82308" lon="4.75331">
        <ele>357.5866</ele>
        <time>2022-10-02T13:27:20.000Z</time>
      </trkpt>
      <trkpt lat="45.82304" lon="4.75327">
        <ele>357.93569</ele>
        <time>2022-10-02T13:27:21.000Z</time>
      </trkpt>
      <trkpt lat="45.823" lon="4.75323">
        <ele>358.14514</ele>
        <time>2022-10-02T13:27:22.000Z</time>
      </trkpt>
      <trkpt lat="45.82296" lon="4.75321">
        <ele>358.26221</ele>
        <time>2022-10-02T13:27:23.000Z</time>
      </trkpt>
      <trkpt lat="45.82291" lon="4.75317">
        <ele>358.45535</ele>
        <time>2022-10-02T13:27:24.000Z</time>
      </trkpt>
      <trkpt lat="45.82287" lon="4.75313">
        <ele>358.73558</ele>
        <time>2022-10-02T13:27:25.000Z</time>
      </trkpt>
      <trkpt lat="45.82282" lon="4.7531">
        <ele>359.01268</ele>
        <time>2022-10-02T13:27:26.000Z</time>
      </trkpt>
      <trkpt lat="45.82278" lon="4.75308">
        <ele>359.32132</ele>
        <time>2022-10-02T13:27:27.000Z</time>
      </trkpt>
      <trkpt lat="45.82274" lon="4.75303">
        <ele>359.89133</ele>
        <time>2022-10-02T13:27:28.000Z</time>
      </trkpt>
      <trkpt lat="45.8227" lon="4.753">
        <ele>360.49918</ele>
        <time>2022-10-02T13:27:29.000Z</time>
      </trkpt>
      <trkpt lat="45.82266" lon="4.75296">
        <ele>361.21873</ele>
        <time>2022-10-02T13:27:30.000Z</time>
      </trkpt>
      <trkpt lat="45.82261" lon="4.75293">
        <ele>361.98501</ele>
        <time>2022-10-02T13:27:31.000Z</time>
      </trkpt>
      <trkpt lat="45.82256" lon="4.75289">
        <ele>362.7136</ele>
        <time>2022-10-02T13:27:32.000Z</time>
      </trkpt>
      <trkpt lat="45.82253" lon="4.75287">
        <ele>363.15165</ele>
        <time>2022-10-02T13:27:33.000Z</time>
      </trkpt>
      <trkpt lat="45.82248" lon="4.75284">
        <ele>363.72518</ele>
        <time>2022-10-02T13:27:34.000Z</time>
      </trkpt>
      <trkpt lat="45.82244" lon="4.7528">
        <ele>364.36482</ele>
        <time>2022-10-02T13:27:35.000Z</time>
      </trkpt>
      <trkpt lat="45.8224" lon="4.75278">
        <ele>364.83091</ele>
        <time>2022-10-02T13:27:36.000Z</time>
      </trkpt>
      <trkpt lat="45.82237" lon="4.75275">
        <ele>365.35193</ele>
        <time>2022-10-02T13:27:37.000Z</time>
      </trkpt>
      <trkpt lat="45.82232" lon="4.75272">
        <ele>365.84912</ele>
        <time>2022-10-02T13:27:38.000Z</time>
      </trkpt>
      <trkpt lat="45.82228" lon="4.75269">
        <ele>366.41133</ele>
        <time>2022-10-02T13:27:39.000Z</time>
      </trkpt>
      <trkpt lat="45.82224" lon="4.75265">
        <ele>366.93723</ele>
        <time>2022-10-02T13:27:40.000Z</time>
      </trkpt>
      <trkpt lat="45.8222" lon="4.75261">
        <ele>367.52421</ele>
        <time>2022-10-02T13:27:41.000Z</time>
      </trkpt>
      <trkpt lat="45.82216" lon="4.75256">
        <ele>368.23666</ele>
        <time>2022-10-02T13:27:42.000Z</time>
      </trkpt>
      <trkpt lat="45.82213" lon="4.75251">
        <ele>368.96291</ele>
        <time>2022-10-02T13:27:43.000Z</time>
      </trkpt>
      <trkpt lat="45.82209" lon="4.75246">
        <ele>369.71601</ele>
        <time>2022-10-02T13:27:44.000Z</time>
      </trkpt>
      <trkpt lat="45.82206" lon="4.7524">
        <ele>370.52605</ele>
        <time>2022-10-02T13:27:45.000Z</time>
      </trkpt>
      <trkpt lat="45.82203" lon="4.75234">
        <ele>371.3079</ele>
        <time>2022-10-02T13:27:46.000Z</time>
      </trkpt>
      <trkpt lat="45.822" lon="4.75229">
        <ele>371.91188</ele>
        <time>2022-10-02T13:27:47.000Z</time>
      </trkpt>
      <trkpt lat="45.82197" lon="4.75223">
        <ele>372.51895</ele>
        <time>2022-10-02T13:27:48.000Z</time>
      </trkpt>
      <trkpt lat="45.82194" lon="4.75217">
        <ele>373.03905</ele>
        <time>2022-10-02T13:27:49.000Z</time>
      </trkpt>
      <trkpt lat="45.82191" lon="4.75211">
        <ele>373.43923</ele>
        <time>2022-10-02T13:27:50.000Z</time>
      </trkpt>
      <trkpt lat="45.82189" lon="4.75205">
        <ele>373.69346</ele>
        <time>2022-10-02T13:27:51.000Z</time>
      </trkpt>
      <trkpt lat="45.82186" lon="4.75198">
        <ele>373.85258</ele>
        <time>2022-10-02T13:27:52.000Z</time>
      </trkpt>
      <trkpt lat="45.82184" lon="4.75191">
        <ele>373.8898</ele>
        <time>2022-10-02T13:27:53.000Z</time>
      </trkpt>
      <trkpt lat="45.82182" lon="4.75184">
        <ele>373.89386</ele>
        <time>2022-10-02T13:27:54.000Z</time>
      </trkpt>
      <trkpt lat="45.82183" lon="4.75177">
        <ele>373.89984</ele>
        <time>2022-10-02T13:27:55.000Z</time>
      </trkpt>
      <trkpt lat="45.82183" lon="4.7517">
        <ele>373.89912</ele>
        <time>2022-10-02T13:27:56.000Z</time>
      </trkpt>
      <trkpt lat="45.82181" lon="4.75165">
        <ele>373.8709</ele>
        <time>2022-10-02T13:27:57.000Z</time>
      </trkpt>
      <trkpt lat="45.8218" lon="4.7516">
        <ele>373.82503</ele>
        <time>2022-10-02T13:27:58.000Z</time>
      </trkpt>
      <trkpt lat="45.82182" lon="4.75154">
        <ele>373.76806</ele>
        <time>2022-10-02T13:27:59.000Z</time>
      </trkpt>
      <trkpt lat="45.82183" lon="4.75149">
        <ele>373.73119</ele>
        <time>2022-10-02T13:28:00.000Z</time>
      </trkpt>
      <trkpt lat="45.82185" lon="4.75145">
        <ele>373.72489</ele>
        <time>2022-10-02T13:28:01.000Z</time>
      </trkpt>
      <trkpt lat="45.82185" lon="4.75141">
        <ele>373.72569</ele>
        <time>2022-10-02T13:28:02.000Z</time>
      </trkpt>
      <trkpt lat="45.82188" lon="4.75137">
        <ele>373.79323</ele>
        <time>2022-10-02T13:28:03.000Z</time>
      </trkpt>
      <trkpt lat="45.82189" lon="4.75131">
        <ele>373.85394</ele>
        <time>2022-10-02T13:28:04.000Z</time>
      </trkpt>
      <trkpt lat="45.8219" lon="4.75127">
        <ele>373.91005</ele>
        <time>2022-10-02T13:28:05.000Z</time>
      </trkpt>
      <trkpt lat="45.82192" lon="4.75121">
        <ele>373.96016</ele>
        <time>2022-10-02T13:28:06.000Z</time>
      </trkpt>
      <trkpt lat="45.82193" lon="4.75117">
        <ele>374.00031</ele>
        <time>2022-10-02T13:28:07.000Z</time>
      </trkpt>
      <trkpt lat="45.82195" lon="4.75112">
        <ele>374.01214</ele>
        <time>2022-10-02T13:28:08.000Z</time>
      </trkpt>
      <trkpt lat="45.82196" lon="4.75108">
        <ele>374.00666</ele>
        <time>2022-10-02T13:28:09.000Z</time>
      </trkpt>
      <trkpt lat="45.82197" lon="4.75103">
        <ele>373.99673</ele>
        <time>2022-10-02T13:28:10.000Z</time>
      </trkpt>
      <trkpt lat="45.82198" lon="4.75099">
        <ele>373.98467</ele>
        <time>2022-10-02T13:28:11.000Z</time>
      </trkpt>
      <trkpt lat="45.822" lon="4.75095">
        <ele>373.96619</ele>
        <time>2022-10-02T13:28:12.000Z</time>
      </trkpt>
      <trkpt lat="45.82201" lon="4.7509">
        <ele>373.93743</ele>
        <time>2022-10-02T13:28:13.000Z</time>
      </trkpt>
      <trkpt lat="45.82202" lon="4.75085">
        <ele>373.896</ele>
        <time>2022-10-02T13:28:14.000Z</time>
      </trkpt>
      <trkpt lat="45.82204" lon="4.7508">
        <ele>373.83887</ele>
        <time>2022-10-02T13:28:15.000Z</time>
      </trkpt>
      <trkpt lat="45.82205" lon="4.75074">
        <ele>373.76851</ele>
        <time>2022-10-02T13:28:16.000Z</time>
      </trkpt>
      <trkpt lat="45.82207" lon="4.75069">
        <ele>373.7026</ele>
        <time>2022-10-02T13:28:17.000Z</time>
      </trkpt>
      <trkpt lat="45.82208" lon="4.75063">
        <ele>373.64062</ele>
        <time>2022-10-02T13:28:18.000Z</time>
      </trkpt>
      <trkpt lat="45.82209" lon="4.75056">
        <ele>373.54045</ele>
        <time>2022-10-02T13:28:19.000Z</time>
      </trkpt>
      <trkpt lat="45.82211" lon="4.7505">
        <ele>373.46055</ele>
        <time>2022-10-02T13:28:20.000Z</time>
      </trkpt>
      <trkpt lat="45.82212" lon="4.75046">
        <ele>373.39952</ele>
        <time>2022-10-02T13:28:21.000Z</time>
      </trkpt>
      <trkpt lat="45.82214" lon="4.75042">
        <ele>373.32627</ele>
        <time>2022-10-02T13:28:22.000Z</time>
      </trkpt>
      <trkpt lat="45.82215" lon="4.75037">
        <ele>373.20372</ele>
        <time>2022-10-02T13:28:23.000Z</time>
      </trkpt>
      <trkpt lat="45.82216" lon="4.75032">
        <ele>373.05735</ele>
        <time>2022-10-02T13:28:24.000Z</time>
      </trkpt>
      <trkpt lat="45.82217" lon="4.75026">
        <ele>372.89873</ele>
        <time>2022-10-02T13:28:25.000Z</time>
      </trkpt>
      <trkpt lat="45.82219" lon="4.75022">
        <ele>372.88096</ele>
        <time>2022-10-02T13:28:26.000Z</time>
      </trkpt>
      <trkpt lat="45.82221" lon="4.75017">
        <ele>372.83327</ele>
        <time>2022-10-02T13:28:27.000Z</time>
      </trkpt>
      <trkpt lat="45.82222" lon="4.75012">
        <ele>372.76394</ele>
        <time>2022-10-02T13:28:28.000Z</time>
      </trkpt>
      <trkpt lat="45.82223" lon="4.75007">
        <ele>372.71902</ele>
        <time>2022-10-02T13:28:29.000Z</time>
      </trkpt>
      <trkpt lat="45.82225" lon="4.75002">
        <ele>372.67412</ele>
        <time>2022-10-02T13:28:30.000Z</time>
      </trkpt>
      <trkpt lat="45.82226" lon="4.74996">
        <ele>372.60869</ele>
        <time>2022-10-02T13:28:31.000Z</time>
      </trkpt>
      <trkpt lat="45.82228" lon="4.7499">
        <ele>372.57622</ele>
        <time>2022-10-02T13:28:32.000Z</time>
      </trkpt>
      <trkpt lat="45.82229" lon="4.74984">
        <ele>372.52529</ele>
        <time>2022-10-02T13:28:33.000Z</time>
      </trkpt>
      <trkpt lat="45.8223" lon="4.74977">
        <ele>372.47761</ele>
        <time>2022-10-02T13:28:34.000Z</time>
      </trkpt>
      <trkpt lat="45.82233" lon="4.74968">
        <ele>372.46098</ele>
        <time>2022-10-02T13:28:35.000Z</time>
      </trkpt>
      <trkpt lat="45.82235" lon="4.74961">
        <ele>372.42444</ele>
        <time>2022-10-02T13:28:36.000Z</time>
      </trkpt>
      <trkpt lat="45.82236" lon="4.74954">
        <ele>372.29728</ele>
        <time>2022-10-02T13:28:37.000Z</time>
      </trkpt>
      <trkpt lat="45.82237" lon="4.74947">
        <ele>372.19244</ele>
        <time>2022-10-02T13:28:38.000Z</time>
      </trkpt>
      <trkpt lat="45.8224" lon="4.74942">
        <ele>372.20196</ele>
        <time>2022-10-02T13:28:39.000Z</time>
      </trkpt>
      <trkpt lat="45.82242" lon="4.74938">
        <ele>372.16162</ele>
        <time>2022-10-02T13:28:40.000Z</time>
      </trkpt>
      <trkpt lat="45.82246" lon="4.74936">
        <ele>372.09747</ele>
        <time>2022-10-02T13:28:41.000Z</time>
      </trkpt>
      <trkpt lat="45.82249" lon="4.74931">
        <ele>371.87144</ele>
        <time>2022-10-02T13:28:42.000Z</time>
      </trkpt>
      <trkpt lat="45.82252" lon="4.74924">
        <ele>371.60122</ele>
        <time>2022-10-02T13:28:43.000Z</time>
      </trkpt>
      <trkpt lat="45.82254" lon="4.74919">
        <ele>371.40464</ele>
        <time>2022-10-02T13:28:44.000Z</time>
      </trkpt>
      <trkpt lat="45.82256" lon="4.74913">
        <ele>371.29998</ele>
        <time>2022-10-02T13:28:45.000Z</time>
      </trkpt>
      <trkpt lat="45.82257" lon="4.74907">
        <ele>371.29925</ele>
        <time>2022-10-02T13:28:46.000Z</time>
      </trkpt>
      <trkpt lat="45.82257" lon="4.74901">
        <ele>371.34395</ele>
        <time>2022-10-02T13:28:47.000Z</time>
      </trkpt>
      <trkpt lat="45.82257" lon="4.74894">
        <ele>371.40028</ele>
        <time>2022-10-02T13:28:48.000Z</time>
      </trkpt>
      <trkpt lat="45.82257" lon="4.74887">
        <ele>371.43233</ele>
        <time>2022-10-02T13:28:49.000Z</time>
      </trkpt>
      <trkpt lat="45.82258" lon="4.74881">
        <ele>371.41671</ele>
        <time>2022-10-02T13:28:50.000Z</time>
      </trkpt>
      <trkpt lat="45.82258" lon="4.74872">
        <ele>371.38414</ele>
        <time>2022-10-02T13:28:51.000Z</time>
      </trkpt>
      <trkpt lat="45.8226" lon="4.74865">
        <ele>371.39265</ele>
        <time>2022-10-02T13:28:52.000Z</time>
      </trkpt>
      <trkpt lat="45.82261" lon="4.7486">
        <ele>371.42352</ele>
        <time>2022-10-02T13:28:53.000Z</time>
      </trkpt>
      <trkpt lat="45.82263" lon="4.74852">
        <ele>371.45937</ele>
        <time>2022-10-02T13:28:54.000Z</time>
      </trkpt>
      <trkpt lat="45.82265" lon="4.74846">
        <ele>371.51384</ele>
        <time>2022-10-02T13:28:55.000Z</time>
      </trkpt>
      <trkpt lat="45.8227" lon="4.74846">
        <ele>371.80265</ele>
        <time>2022-10-02T13:28:56.000Z</time>
      </trkpt>
      <trkpt lat="45.82273" lon="4.74846">
        <ele>371.97496</ele>
        <time>2022-10-02T13:28:57.000Z</time>
      </trkpt>
      <trkpt lat="45.82276" lon="4.74845">
        <ele>372.1579</ele>
        <time>2022-10-02T13:28:58.000Z</time>
      </trkpt>
      <trkpt lat="45.8228" lon="4.74844">
        <ele>372.32602</ele>
        <time>2022-10-02T13:28:59.000Z</time>
      </trkpt>
      <trkpt lat="45.82282" lon="4.74842">
        <ele>372.45845</ele>
        <time>2022-10-02T13:29:00.000Z</time>
      </trkpt>
      <trkpt lat="45.82285" lon="4.7484">
        <ele>372.63179</ele>
        <time>2022-10-02T13:29:01.000Z</time>
      </trkpt>
      <trkpt lat="45.82289" lon="4.74837">
        <ele>372.82676</ele>
        <time>2022-10-02T13:29:02.000Z</time>
      </trkpt>
      <trkpt lat="45.82292" lon="4.74838">
        <ele>372.90694</ele>
        <time>2022-10-02T13:29:03.000Z</time>
      </trkpt>
      <trkpt lat="45.82296" lon="4.74837">
        <ele>373.04913</ele>
        <time>2022-10-02T13:29:04.000Z</time>
      </trkpt>
      <trkpt lat="45.82299" lon="4.74836">
        <ele>373.15539</ele>
        <time>2022-10-02T13:29:05.000Z</time>
      </trkpt>
      <trkpt lat="45.82303" lon="4.74836">
        <ele>373.23631</ele>
        <time>2022-10-02T13:29:06.000Z</time>
      </trkpt>
      <trkpt lat="45.82308" lon="4.74836">
        <ele>373.2567</ele>
        <time>2022-10-02T13:29:07.000Z</time>
      </trkpt>
      <trkpt lat="45.82312" lon="4.74835">
        <ele>373.21606</ele>
        <time>2022-10-02T13:29:08.000Z</time>
      </trkpt>
      <trkpt lat="45.82316" lon="4.74835">
        <ele>373.12425</ele>
        <time>2022-10-02T13:29:09.000Z</time>
      </trkpt>
      <trkpt lat="45.8232" lon="4.74835">
        <ele>373.04185</ele>
        <time>2022-10-02T13:29:10.000Z</time>
      </trkpt>
      <trkpt lat="45.82324" lon="4.74834">
        <ele>372.99264</ele>
        <time>2022-10-02T13:29:11.000Z</time>
      </trkpt>
      <trkpt lat="45.82328" lon="4.74834">
        <ele>373.01423</ele>
        <time>2022-10-02T13:29:12.000Z</time>
      </trkpt>
      <trkpt lat="45.82332" lon="4.74834">
        <ele>373.07616</ele>
        <time>2022-10-02T13:29:13.000Z</time>
      </trkpt>
      <trkpt lat="45.82336" lon="4.74834">
        <ele>373.16608</ele>
        <time>2022-10-02T13:29:14.000Z</time>
      </trkpt>
      <trkpt lat="45.82339" lon="4.74834">
        <ele>373.26299</ele>
        <time>2022-10-02T13:29:15.000Z</time>
      </trkpt>
      <trkpt lat="45.82342" lon="4.74834">
        <ele>373.35673</ele>
        <time>2022-10-02T13:29:16.000Z</time>
      </trkpt>
      <trkpt lat="45.82346" lon="4.74834">
        <ele>373.50266</ele>
        <time>2022-10-02T13:29:17.000Z</time>
      </trkpt>
      <trkpt lat="45.8235" lon="4.74835">
        <ele>373.75132</ele>
        <time>2022-10-02T13:29:18.000Z</time>
      </trkpt>
      <trkpt lat="45.82354" lon="4.74835">
        <ele>374.07981</ele>
        <time>2022-10-02T13:29:19.000Z</time>
      </trkpt>
      <trkpt lat="45.82358" lon="4.74834">
        <ele>374.45041</ele>
        <time>2022-10-02T13:29:20.000Z</time>
      </trkpt>
      <trkpt lat="45.82361" lon="4.74833">
        <ele>374.81002</ele>
        <time>2022-10-02T13:29:21.000Z</time>
      </trkpt>
      <trkpt lat="45.82363" lon="4.74832">
        <ele>375.13217</ele>
        <time>2022-10-02T13:29:22.000Z</time>
      </trkpt>
      <trkpt lat="45.82366" lon="4.74831">
        <ele>375.52444</ele>
        <time>2022-10-02T13:29:23.000Z</time>
      </trkpt>
      <trkpt lat="45.82369" lon="4.7483">
        <ele>375.9708</ele>
        <time>2022-10-02T13:29:24.000Z</time>
      </trkpt>
      <trkpt lat="45.82372" lon="4.74828">
        <ele>376.46498</ele>
        <time>2022-10-02T13:29:25.000Z</time>
      </trkpt>
      <trkpt lat="45.82375" lon="4.74826">
        <ele>377.09562</ele>
        <time>2022-10-02T13:29:26.000Z</time>
      </trkpt>
      <trkpt lat="45.82379" lon="4.74824">
        <ele>377.79612</ele>
        <time>2022-10-02T13:29:27.000Z</time>
      </trkpt>
      <trkpt lat="45.82381" lon="4.74822">
        <ele>378.43135</ele>
        <time>2022-10-02T13:29:28.000Z</time>
      </trkpt>
      <trkpt lat="45.82384" lon="4.7482">
        <ele>379.12011</ele>
        <time>2022-10-02T13:29:29.000Z</time>
      </trkpt>
      <trkpt lat="45.82387" lon="4.74818">
        <ele>379.82004</ele>
        <time>2022-10-02T13:29:30.000Z</time>
      </trkpt>
      <trkpt lat="45.8239" lon="4.74815">
        <ele>380.39039</ele>
        <time>2022-10-02T13:29:31.000Z</time>
      </trkpt>
      <trkpt lat="45.82393" lon="4.74811">
        <ele>380.83684</ele>
        <time>2022-10-02T13:29:32.000Z</time>
      </trkpt>
      <trkpt lat="45.82394" lon="4.74807">
        <ele>381.18174</ele>
        <time>2022-10-02T13:29:33.000Z</time>
      </trkpt>
      <trkpt lat="45.82395" lon="4.74803">
        <ele>381.4843</ele>
        <time>2022-10-02T13:29:34.000Z</time>
      </trkpt>
      <trkpt lat="45.82396" lon="4.74799">
        <ele>381.68264</ele>
        <time>2022-10-02T13:29:35.000Z</time>
      </trkpt>
      <trkpt lat="45.82397" lon="4.74796">
        <ele>381.83047</ele>
        <time>2022-10-02T13:29:36.000Z</time>
      </trkpt>
      <trkpt lat="45.82398" lon="4.74793">
        <ele>381.95588</ele>
        <time>2022-10-02T13:29:37.000Z</time>
      </trkpt>
      <trkpt lat="45.82399" lon="4.74789">
        <ele>382.08333</ele>
        <time>2022-10-02T13:29:38.000Z</time>
      </trkpt>
      <trkpt lat="45.82401" lon="4.74786">
        <ele>382.18309</ele>
        <time>2022-10-02T13:29:39.000Z</time>
      </trkpt>
      <trkpt lat="45.82402" lon="4.74782">
        <ele>382.29702</ele>
        <time>2022-10-02T13:29:40.000Z</time>
      </trkpt>
      <trkpt lat="45.82403" lon="4.74778">
        <ele>382.41793</ele>
        <time>2022-10-02T13:29:41.000Z</time>
      </trkpt>
      <trkpt lat="45.82404" lon="4.74773">
        <ele>382.5465</ele>
        <time>2022-10-02T13:29:42.000Z</time>
      </trkpt>
      <trkpt lat="45.82405" lon="4.74768">
        <ele>382.65998</ele>
        <time>2022-10-02T13:29:43.000Z</time>
      </trkpt>
      <trkpt lat="45.82407" lon="4.74764">
        <ele>382.74377</ele>
        <time>2022-10-02T13:29:44.000Z</time>
      </trkpt>
      <trkpt lat="45.82409" lon="4.74759">
        <ele>382.75892</ele>
        <time>2022-10-02T13:29:45.000Z</time>
      </trkpt>
      <trkpt lat="45.82412" lon="4.74756">
        <ele>382.66911</ele>
        <time>2022-10-02T13:29:46.000Z</time>
      </trkpt>
      <trkpt lat="45.82415" lon="4.74753">
        <ele>382.4579</ele>
        <time>2022-10-02T13:29:47.000Z</time>
      </trkpt>
      <trkpt lat="45.82418" lon="4.7475">
        <ele>382.10178</ele>
        <time>2022-10-02T13:29:48.000Z</time>
      </trkpt>
      <trkpt lat="45.82422" lon="4.74749">
        <ele>381.70313</ele>
        <time>2022-10-02T13:29:49.000Z</time>
      </trkpt>
      <trkpt lat="45.82424" lon="4.74749">
        <ele>381.37882</ele>
        <time>2022-10-02T13:29:50.000Z</time>
      </trkpt>
      <trkpt lat="45.82427" lon="4.7475">
        <ele>381.10395</ele>
        <time>2022-10-02T13:29:51.000Z</time>
      </trkpt>
      <trkpt lat="45.82429" lon="4.7475">
        <ele>380.76983</ele>
        <time>2022-10-02T13:29:52.000Z</time>
      </trkpt>
      <trkpt lat="45.82432" lon="4.74749">
        <ele>380.18549</ele>
        <time>2022-10-02T13:29:53.000Z</time>
      </trkpt>
      <trkpt lat="45.82436" lon="4.74747">
        <ele>379.44366</ele>
        <time>2022-10-02T13:29:54.000Z</time>
      </trkpt>
      <trkpt lat="45.82439" lon="4.74746">
        <ele>378.74317</ele>
        <time>2022-10-02T13:29:55.000Z</time>
      </trkpt>
      <trkpt lat="45.82443" lon="4.74744">
        <ele>378.19483</ele>
        <time>2022-10-02T13:29:56.000Z</time>
      </trkpt>
      <trkpt lat="45.82445" lon="4.74743">
        <ele>377.96055</ele>
        <time>2022-10-02T13:29:57.000Z</time>
      </trkpt>
      <trkpt lat="45.82448" lon="4.74743">
        <ele>377.93567</ele>
        <time>2022-10-02T13:29:58.000Z</time>
      </trkpt>
      <trkpt lat="45.82451" lon="4.74743">
        <ele>378.01369</ele>
        <time>2022-10-02T13:29:59.000Z</time>
      </trkpt>
      <trkpt lat="45.82455" lon="4.74743">
        <ele>378.15626</ele>
        <time>2022-10-02T13:30:00.000Z</time>
      </trkpt>
      <trkpt lat="45.82458" lon="4.74743">
        <ele>378.26572</ele>
        <time>2022-10-02T13:30:01.000Z</time>
      </trkpt>
      <trkpt lat="45.8246" lon="4.74743">
        <ele>378.36413</ele>
        <time>2022-10-02T13:30:02.000Z</time>
      </trkpt>
      <trkpt lat="45.82462" lon="4.74743">
        <ele>378.39981</ele>
        <time>2022-10-02T13:30:03.000Z</time>
      </trkpt>
      <trkpt lat="45.82466" lon="4.74743">
        <ele>378.38681</ele>
        <time>2022-10-02T13:30:04.000Z</time>
      </trkpt>
      <trkpt lat="45.8247" lon="4.74742">
        <ele>378.28751</ele>
        <time>2022-10-02T13:30:05.000Z</time>
      </trkpt>
      <trkpt lat="45.82475" lon="4.74742">
        <ele>378.17134</ele>
        <time>2022-10-02T13:30:06.000Z</time>
      </trkpt>
      <trkpt lat="45.82479" lon="4.74743">
        <ele>378.09311</ele>
        <time>2022-10-02T13:30:07.000Z</time>
      </trkpt>
      <trkpt lat="45.82483" lon="4.74744">
        <ele>378.06275</ele>
        <time>2022-10-02T13:30:08.000Z</time>
      </trkpt>
      <trkpt lat="45.82486" lon="4.74745">
        <ele>378.09644</ele>
        <time>2022-10-02T13:30:09.000Z</time>
      </trkpt>
      <trkpt lat="45.82489" lon="4.74748">
        <ele>378.2326</ele>
        <time>2022-10-02T13:30:10.000Z</time>
      </trkpt>
      <trkpt lat="45.82491" lon="4.7475">
        <ele>378.41258</ele>
        <time>2022-10-02T13:30:11.000Z</time>
      </trkpt>
      <trkpt lat="45.82493" lon="4.74753">
        <ele>378.57998</ele>
        <time>2022-10-02T13:30:12.000Z</time>
      </trkpt>
      <trkpt lat="45.82496" lon="4.74756">
        <ele>378.69328</ele>
        <time>2022-10-02T13:30:13.000Z</time>
      </trkpt>
      <trkpt lat="45.82498" lon="4.74759">
        <ele>378.72739</ele>
        <time>2022-10-02T13:30:14.000Z</time>
      </trkpt>
      <trkpt lat="45.825" lon="4.74762">
        <ele>378.65596</ele>
        <time>2022-10-02T13:30:15.000Z</time>
      </trkpt>
      <trkpt lat="45.82502" lon="4.74764">
        <ele>378.49468</ele>
        <time>2022-10-02T13:30:16.000Z</time>
      </trkpt>
      <trkpt lat="45.82504" lon="4.74767">
        <ele>378.18257</ele>
        <time>2022-10-02T13:30:17.000Z</time>
      </trkpt>
      <trkpt lat="45.82507" lon="4.7477">
        <ele>377.68228</ele>
        <time>2022-10-02T13:30:18.000Z</time>
      </trkpt>
      <trkpt lat="45.8251" lon="4.74773">
        <ele>377.02075</ele>
        <time>2022-10-02T13:30:19.000Z</time>
      </trkpt>
      <trkpt lat="45.82513" lon="4.74777">
        <ele>376.15936</ele>
        <time>2022-10-02T13:30:20.000Z</time>
      </trkpt>
      <trkpt lat="45.82516" lon="4.74781">
        <ele>375.29292</ele>
        <time>2022-10-02T13:30:21.000Z</time>
      </trkpt>
      <trkpt lat="45.82518" lon="4.74784">
        <ele>374.555</ele>
        <time>2022-10-02T13:30:22.000Z</time>
      </trkpt>
      <trkpt lat="45.8252" lon="4.74787">
        <ele>373.97285</ele>
        <time>2022-10-02T13:30:23.000Z</time>
      </trkpt>
      <trkpt lat="45.82523" lon="4.74789">
        <ele>373.52455</ele>
        <time>2022-10-02T13:30:24.000Z</time>
      </trkpt>
      <trkpt lat="45.82526" lon="4.74791">
        <ele>373.20588</ele>
        <time>2022-10-02T13:30:25.000Z</time>
      </trkpt>
      <trkpt lat="45.8253" lon="4.74793">
        <ele>372.99476</ele>
        <time>2022-10-02T13:30:26.000Z</time>
      </trkpt>
      <trkpt lat="45.82533" lon="4.74796">
        <ele>372.85076</ele>
        <time>2022-10-02T13:30:27.000Z</time>
      </trkpt>
      <trkpt lat="45.82537" lon="4.74798">
        <ele>372.89685</ele>
        <time>2022-10-02T13:30:28.000Z</time>
      </trkpt>
      <trkpt lat="45.82541" lon="4.748">
        <ele>373.06623</ele>
        <time>2022-10-02T13:30:29.000Z</time>
      </trkpt>
      <trkpt lat="45.82545" lon="4.74801">
        <ele>373.3226</ele>
        <time>2022-10-02T13:30:30.000Z</time>
      </trkpt>
      <trkpt lat="45.82548" lon="4.74801">
        <ele>373.54993</ele>
        <time>2022-10-02T13:30:31.000Z</time>
      </trkpt>
      <trkpt lat="45.82552" lon="4.748">
        <ele>373.7191</ele>
        <time>2022-10-02T13:30:32.000Z</time>
      </trkpt>
      <trkpt lat="45.82556" lon="4.74798">
        <ele>373.7712</ele>
        <time>2022-10-02T13:30:33.000Z</time>
      </trkpt>
      <trkpt lat="45.8256" lon="4.74795">
        <ele>373.63897</ele>
        <time>2022-10-02T13:30:34.000Z</time>
      </trkpt>
      <trkpt lat="45.82563" lon="4.74793">
        <ele>373.3557</ele>
        <time>2022-10-02T13:30:35.000Z</time>
      </trkpt>
      <trkpt lat="45.82566" lon="4.74792">
        <ele>373.12979</ele>
        <time>2022-10-02T13:30:36.000Z</time>
      </trkpt>
      <trkpt lat="45.82568" lon="4.74792">
        <ele>372.92743</ele>
        <time>2022-10-02T13:30:37.000Z</time>
      </trkpt>
      <trkpt lat="45.82571" lon="4.74791">
        <ele>372.68622</ele>
        <time>2022-10-02T13:30:38.000Z</time>
      </trkpt>
      <trkpt lat="45.82575" lon="4.74791">
        <ele>372.5205</ele>
        <time>2022-10-02T13:30:39.000Z</time>
      </trkpt>
      <trkpt lat="45.82578" lon="4.74791">
        <ele>372.38478</ele>
        <time>2022-10-02T13:30:40.000Z</time>
      </trkpt>
      <trkpt lat="45.82582" lon="4.7479">
        <ele>372.2445</ele>
        <time>2022-10-02T13:30:41.000Z</time>
      </trkpt>
      <trkpt lat="45.82585" lon="4.74789">
        <ele>372.05136</ele>
        <time>2022-10-02T13:30:42.000Z</time>
      </trkpt>
      <trkpt lat="45.82589" lon="4.74786">
        <ele>371.92137</ele>
        <time>2022-10-02T13:30:43.000Z</time>
      </trkpt>
      <trkpt lat="45.82594" lon="4.74784">
        <ele>371.95254</ele>
        <time>2022-10-02T13:30:44.000Z</time>
      </trkpt>
      <trkpt lat="45.82598" lon="4.74782">
        <ele>372.05529</ele>
        <time>2022-10-02T13:30:45.000Z</time>
      </trkpt>
      <trkpt lat="45.82603" lon="4.7478">
        <ele>372.08778</ele>
        <time>2022-10-02T13:30:46.000Z</time>
      </trkpt>
      <trkpt lat="45.82608" lon="4.74779">
        <ele>372.04488</ele>
        <time>2022-10-02T13:30:47.000Z</time>
      </trkpt>
      <trkpt lat="45.82613" lon="4.74777">
        <ele>371.95415</ele>
        <time>2022-10-02T13:30:48.000Z</time>
      </trkpt>
      <trkpt lat="45.82619" lon="4.74775">
        <ele>371.88095</ele>
        <time>2022-10-02T13:30:49.000Z</time>
      </trkpt>
      <trkpt lat="45.82623" lon="4.74772">
        <ele>371.87687</ele>
        <time>2022-10-02T13:30:50.000Z</time>
      </trkpt>
      <trkpt lat="45.82628" lon="4.74769">
        <ele>371.88947</ele>
        <time>2022-10-02T13:30:51.000Z</time>
      </trkpt>
      <trkpt lat="45.82631" lon="4.74765">
        <ele>371.87891</ele>
        <time>2022-10-02T13:30:52.000Z</time>
      </trkpt>
      <trkpt lat="45.82635" lon="4.7476">
        <ele>371.80646</ele>
        <time>2022-10-02T13:30:53.000Z</time>
      </trkpt>
      <trkpt lat="45.82638" lon="4.74755">
        <ele>371.70611</ele>
        <time>2022-10-02T13:30:54.000Z</time>
      </trkpt>
      <trkpt lat="45.82639" lon="4.7475">
        <ele>371.63119</ele>
        <time>2022-10-02T13:30:55.000Z</time>
      </trkpt>
      <trkpt lat="45.8264" lon="4.74745">
        <ele>371.59784</ele>
        <time>2022-10-02T13:30:56.000Z</time>
      </trkpt>
      <trkpt lat="45.82641" lon="4.74741">
        <ele>371.61238</ele>
        <time>2022-10-02T13:30:57.000Z</time>
      </trkpt>
      <trkpt lat="45.82641" lon="4.74735">
        <ele>371.73975</ele>
        <time>2022-10-02T13:30:58.000Z</time>
      </trkpt>
      <trkpt lat="45.82642" lon="4.74729">
        <ele>372.00303</ele>
        <time>2022-10-02T13:30:59.000Z</time>
      </trkpt>
      <trkpt lat="45.82642" lon="4.74723">
        <ele>372.34241</ele>
        <time>2022-10-02T13:31:00.000Z</time>
      </trkpt>
      <trkpt lat="45.82643" lon="4.74717">
        <ele>372.67201</ele>
        <time>2022-10-02T13:31:01.000Z</time>
      </trkpt>
      <trkpt lat="45.82643" lon="4.74712">
        <ele>372.9796</ele>
        <time>2022-10-02T13:31:02.000Z</time>
      </trkpt>
      <trkpt lat="45.82644" lon="4.74708">
        <ele>373.22009</ele>
        <time>2022-10-02T13:31:03.000Z</time>
      </trkpt>
      <trkpt lat="45.82644" lon="4.74703">
        <ele>373.44086</ele>
        <time>2022-10-02T13:31:04.000Z</time>
      </trkpt>
      <trkpt lat="45.82644" lon="4.74698">
        <ele>373.67622</ele>
        <time>2022-10-02T13:31:05.000Z</time>
      </trkpt>
      <trkpt lat="45.82644" lon="4.74693">
        <ele>373.96762</ele>
        <time>2022-10-02T13:31:06.000Z</time>
      </trkpt>
      <trkpt lat="45.82643" lon="4.74686">
        <ele>374.28053</ele>
        <time>2022-10-02T13:31:07.000Z</time>
      </trkpt>
      <trkpt lat="45.82643" lon="4.7468">
        <ele>374.53436</ele>
        <time>2022-10-02T13:31:08.000Z</time>
      </trkpt>
      <trkpt lat="45.82642" lon="4.74674">
        <ele>374.6969</ele>
        <time>2022-10-02T13:31:09.000Z</time>
      </trkpt>
      <trkpt lat="45.82642" lon="4.74669">
        <ele>374.75997</ele>
        <time>2022-10-02T13:31:10.000Z</time>
      </trkpt>
      <trkpt lat="45.82641" lon="4.74663">
        <ele>374.72582</ele>
        <time>2022-10-02T13:31:11.000Z</time>
      </trkpt>
      <trkpt lat="45.82641" lon="4.74657">
        <ele>374.645</ele>
        <time>2022-10-02T13:31:12.000Z</time>
      </trkpt>
      <trkpt lat="45.82641" lon="4.74651">
        <ele>374.54795</ele>
        <time>2022-10-02T13:31:13.000Z</time>
      </trkpt>
      <trkpt lat="45.82641" lon="4.74645">
        <ele>374.46497</ele>
        <time>2022-10-02T13:31:14.000Z</time>
      </trkpt>
      <trkpt lat="45.8264" lon="4.74641">
        <ele>374.16441</ele>
        <time>2022-10-02T13:31:15.000Z</time>
      </trkpt>
      <trkpt lat="45.82638" lon="4.74639">
        <ele>373.69126</ele>
        <time>2022-10-02T13:31:16.000Z</time>
      </trkpt>
      <trkpt lat="45.82636" lon="4.74638">
        <ele>372.99184</ele>
        <time>2022-10-02T13:31:17.000Z</time>
      </trkpt>
      <trkpt lat="45.82634" lon="4.74639">
        <ele>372.19332</ele>
        <time>2022-10-02T13:31:18.000Z</time>
      </trkpt>
      <trkpt lat="45.82631" lon="4.74639">
        <ele>371.29292</ele>
        <time>2022-10-02T13:31:19.000Z</time>
      </trkpt>
      <trkpt lat="45.82628" lon="4.74638">
        <ele>370.60478</ele>
        <time>2022-10-02T13:31:20.000Z</time>
      </trkpt>
      <trkpt lat="45.82626" lon="4.74636">
        <ele>370.33684</ele>
        <time>2022-10-02T13:31:21.000Z</time>
      </trkpt>
      <trkpt lat="45.82624" lon="4.74632">
        <ele>370.55998</ele>
        <time>2022-10-02T13:31:22.000Z</time>
      </trkpt>
      <trkpt lat="45.82622" lon="4.74629">
        <ele>371.19096</ele>
        <time>2022-10-02T13:31:23.000Z</time>
      </trkpt>
      <trkpt lat="45.8262" lon="4.74625">
        <ele>371.84975</ele>
        <time>2022-10-02T13:31:24.000Z</time>
      </trkpt>
      <trkpt lat="45.82617" lon="4.74621">
        <ele>372.23157</ele>
        <time>2022-10-02T13:31:25.000Z</time>
      </trkpt>
      <trkpt lat="45.82615" lon="4.74618">
        <ele>372.13507</ele>
        <time>2022-10-02T13:31:26.000Z</time>
      </trkpt>
      <trkpt lat="45.82612" lon="4.74615">
        <ele>371.66632</ele>
        <time>2022-10-02T13:31:27.000Z</time>
      </trkpt>
      <trkpt lat="45.8261" lon="4.74613">
        <ele>371.06459</ele>
        <time>2022-10-02T13:31:28.000Z</time>
      </trkpt>
      <trkpt lat="45.82608" lon="4.7461">
        <ele>370.47314</ele>
        <time>2022-10-02T13:31:29.000Z</time>
      </trkpt>
      <trkpt lat="45.82606" lon="4.74608">
        <ele>369.96144</ele>
        <time>2022-10-02T13:31:30.000Z</time>
      </trkpt>
      <trkpt lat="45.82604" lon="4.74605">
        <ele>369.61167</ele>
        <time>2022-10-02T13:31:31.000Z</time>
      </trkpt>
      <trkpt lat="45.82603" lon="4.74602">
        <ele>369.58856</ele>
        <time>2022-10-02T13:31:32.000Z</time>
      </trkpt>
      <trkpt lat="45.82601" lon="4.74599">
        <ele>369.78833</ele>
        <time>2022-10-02T13:31:33.000Z</time>
      </trkpt>
      <trkpt lat="45.826" lon="4.74596">
        <ele>370.09556</ele>
        <time>2022-10-02T13:31:34.000Z</time>
      </trkpt>
      <trkpt lat="45.82599" lon="4.74593">
        <ele>370.42596</ele>
        <time>2022-10-02T13:31:35.000Z</time>
      </trkpt>
      <trkpt lat="45.82597" lon="4.7459">
        <ele>370.76339</ele>
        <time>2022-10-02T13:31:36.000Z</time>
      </trkpt>
      <trkpt lat="45.82596" lon="4.74588">
        <ele>370.86505</ele>
        <time>2022-10-02T13:31:37.000Z</time>
      </trkpt>
      <trkpt lat="45.82594" lon="4.74585">
        <ele>370.69236</ele>
        <time>2022-10-02T13:31:38.000Z</time>
      </trkpt>
      <trkpt lat="45.82592" lon="4.74583">
        <ele>370.23854</ele>
        <time>2022-10-02T13:31:39.000Z</time>
      </trkpt>
      <trkpt lat="45.82589" lon="4.7458">
        <ele>369.44147</ele>
        <time>2022-10-02T13:31:40.000Z</time>
      </trkpt>
      <trkpt lat="45.82586" lon="4.74577">
        <ele>368.37947</ele>
        <time>2022-10-02T13:31:41.000Z</time>
      </trkpt>
      <trkpt lat="45.82584" lon="4.74573">
        <ele>367.37678</ele>
        <time>2022-10-02T13:31:42.000Z</time>
      </trkpt>
      <trkpt lat="45.8258" lon="4.74567">
        <ele>367.25954</ele>
        <time>2022-10-02T13:31:43.000Z</time>
      </trkpt>
      <trkpt lat="45.82577" lon="4.74557">
        <ele>369.45077</ele>
        <time>2022-10-02T13:31:44.000Z</time>
      </trkpt>
      <trkpt lat="45.82574" lon="4.74549">
        <ele>371.30418</ele>
        <time>2022-10-02T13:31:45.000Z</time>
      </trkpt>
      <trkpt lat="45.8257" lon="4.74538">
        <ele>371.40382</ele>
        <time>2022-10-02T13:31:46.000Z</time>
      </trkpt>
      <trkpt lat="45.8257" lon="4.74529">
        <ele>371.36357</ele>
        <time>2022-10-02T13:31:47.000Z</time>
      </trkpt>
      <trkpt lat="45.82566" lon="4.74523">
        <ele>370.62243</ele>
        <time>2022-10-02T13:31:48.000Z</time>
      </trkpt>
      <trkpt lat="45.82565" lon="4.74517">
        <ele>370.66277</ele>
        <time>2022-10-02T13:31:49.000Z</time>
      </trkpt>
      <trkpt lat="45.82563" lon="4.74512">
        <ele>370.60885</ele>
        <time>2022-10-02T13:31:50.000Z</time>
      </trkpt>
      <trkpt lat="45.82561" lon="4.74508">
        <ele>370.44888</ele>
        <time>2022-10-02T13:31:51.000Z</time>
      </trkpt>
      <trkpt lat="45.82558" lon="4.74504">
        <ele>370.1959</ele>
        <time>2022-10-02T13:31:52.000Z</time>
      </trkpt>
      <trkpt lat="45.82557" lon="4.745">
        <ele>369.86353</ele>
        <time>2022-10-02T13:31:53.000Z</time>
      </trkpt>
      <trkpt lat="45.82553" lon="4.74496">
        <ele>369.34156</ele>
        <time>2022-10-02T13:31:54.000Z</time>
      </trkpt>
      <trkpt lat="45.82555" lon="4.74494">
        <ele>369.21765</ele>
        <time>2022-10-02T13:31:55.000Z</time>
      </trkpt>
      <trkpt lat="45.82557" lon="4.74492">
        <ele>368.95892</ele>
        <time>2022-10-02T13:31:56.000Z</time>
      </trkpt>
      <trkpt lat="45.8256" lon="4.74489">
        <ele>368.67739</ele>
        <time>2022-10-02T13:31:57.000Z</time>
      </trkpt>
      <trkpt lat="45.82563" lon="4.74485">
        <ele>368.26681</ele>
        <time>2022-10-02T13:31:58.000Z</time>
      </trkpt>
      <trkpt lat="45.82564" lon="4.74482">
        <ele>367.94896</ele>
        <time>2022-10-02T13:31:59.000Z</time>
      </trkpt>
      <trkpt lat="45.82567" lon="4.74479">
        <ele>367.64909</ele>
        <time>2022-10-02T13:32:00.000Z</time>
      </trkpt>
      <trkpt lat="45.82569" lon="4.74476">
        <ele>367.38634</ele>
        <time>2022-10-02T13:32:01.000Z</time>
      </trkpt>
      <trkpt lat="45.82571" lon="4.74473">
        <ele>367.10107</ele>
        <time>2022-10-02T13:32:02.000Z</time>
      </trkpt>
      <trkpt lat="45.82573" lon="4.74468">
        <ele>366.63787</ele>
        <time>2022-10-02T13:32:03.000Z</time>
      </trkpt>
      <trkpt lat="45.82571" lon="4.74456">
        <ele>365.45453</ele>
        <time>2022-10-02T13:32:04.000Z</time>
      </trkpt>
      <trkpt lat="45.82571" lon="4.74448">
        <ele>364.70725</ele>
        <time>2022-10-02T13:32:05.000Z</time>
      </trkpt>
      <trkpt lat="45.82571" lon="4.74437">
        <ele>363.85794</ele>
        <time>2022-10-02T13:32:06.000Z</time>
      </trkpt>
      <trkpt lat="45.82573" lon="4.74425">
        <ele>362.89086</ele>
        <time>2022-10-02T13:32:07.000Z</time>
      </trkpt>
      <trkpt lat="45.82574" lon="4.7441">
        <ele>361.4709</ele>
        <time>2022-10-02T13:32:08.000Z</time>
      </trkpt>
      <trkpt lat="45.82573" lon="4.74397">
        <ele>360.00901</ele>
        <time>2022-10-02T13:32:09.000Z</time>
      </trkpt>
      <trkpt lat="45.82574" lon="4.74384">
        <ele>358.53404</ele>
        <time>2022-10-02T13:32:10.000Z</time>
      </trkpt>
      <trkpt lat="45.82575" lon="4.7437">
        <ele>357.58273</ele>
        <time>2022-10-02T13:32:11.000Z</time>
      </trkpt>
      <trkpt lat="45.82576" lon="4.74355">
        <ele>357.13748</ele>
        <time>2022-10-02T13:32:12.000Z</time>
      </trkpt>
      <trkpt lat="45.82576" lon="4.74341">
        <ele>356.7566</ele>
        <time>2022-10-02T13:32:13.000Z</time>
      </trkpt>
      <trkpt lat="45.82577" lon="4.74329">
        <ele>356.45649</ele>
        <time>2022-10-02T13:32:14.000Z</time>
      </trkpt>
      <trkpt lat="45.82578" lon="4.74318">
        <ele>356.22248</ele>
        <time>2022-10-02T13:32:15.000Z</time>
      </trkpt>
      <trkpt lat="45.8258" lon="4.74306">
        <ele>355.97578</ele>
        <time>2022-10-02T13:32:16.000Z</time>
      </trkpt>
      <trkpt lat="45.82581" lon="4.74293">
        <ele>355.71235</ele>
        <time>2022-10-02T13:32:17.000Z</time>
      </trkpt>
      <trkpt lat="45.82583" lon="4.74281">
        <ele>355.48939</ele>
        <time>2022-10-02T13:32:18.000Z</time>
      </trkpt>
      <trkpt lat="45.82584" lon="4.74271">
        <ele>355.37044</ele>
        <time>2022-10-02T13:32:19.000Z</time>
      </trkpt>
      <trkpt lat="45.82586" lon="4.74261">
        <ele>355.26331</ele>
        <time>2022-10-02T13:32:20.000Z</time>
      </trkpt>
      <trkpt lat="45.82588" lon="4.74252">
        <ele>355.08444</ele>
        <time>2022-10-02T13:32:21.000Z</time>
      </trkpt>
      <trkpt lat="45.82589" lon="4.74242">
        <ele>354.79973</ele>
        <time>2022-10-02T13:32:22.000Z</time>
      </trkpt>
      <trkpt lat="45.82591" lon="4.74233">
        <ele>354.50971</ele>
        <time>2022-10-02T13:32:23.000Z</time>
      </trkpt>
      <trkpt lat="45.82593" lon="4.74224">
        <ele>354.26639</ele>
        <time>2022-10-02T13:32:24.000Z</time>
      </trkpt>
      <trkpt lat="45.82594" lon="4.74215">
        <ele>354.10892</ele>
        <time>2022-10-02T13:32:25.000Z</time>
      </trkpt>
      <trkpt lat="45.82595" lon="4.74207">
        <ele>354.03667</ele>
        <time>2022-10-02T13:32:26.000Z</time>
      </trkpt>
      <trkpt lat="45.82596" lon="4.74198">
        <ele>353.9608</ele>
        <time>2022-10-02T13:32:27.000Z</time>
      </trkpt>
      <trkpt lat="45.82597" lon="4.74191">
        <ele>353.8729</ele>
        <time>2022-10-02T13:32:28.000Z</time>
      </trkpt>
      <trkpt lat="45.82599" lon="4.74183">
        <ele>353.73333</ele>
        <time>2022-10-02T13:32:29.000Z</time>
      </trkpt>
      <trkpt lat="45.82601" lon="4.74173">
        <ele>353.54057</ele>
        <time>2022-10-02T13:32:30.000Z</time>
      </trkpt>
      <trkpt lat="45.82602" lon="4.74165">
        <ele>353.27266</ele>
        <time>2022-10-02T13:32:31.000Z</time>
      </trkpt>
      <trkpt lat="45.82601" lon="4.74157">
        <ele>352.93205</ele>
        <time>2022-10-02T13:32:32.000Z</time>
      </trkpt>
      <trkpt lat="45.82602" lon="4.74149">
        <ele>352.4957</ele>
        <time>2022-10-02T13:32:33.000Z</time>
      </trkpt>
      <trkpt lat="45.82601" lon="4.74141">
        <ele>351.95827</ele>
        <time>2022-10-02T13:32:34.000Z</time>
      </trkpt>
      <trkpt lat="45.82601" lon="4.74132">
        <ele>351.36064</ele>
        <time>2022-10-02T13:32:35.000Z</time>
      </trkpt>
      <trkpt lat="45.826" lon="4.74123">
        <ele>350.64512</ele>
        <time>2022-10-02T13:32:36.000Z</time>
      </trkpt>
      <trkpt lat="45.826" lon="4.74114">
        <ele>349.97767</ele>
        <time>2022-10-02T13:32:37.000Z</time>
      </trkpt>
      <trkpt lat="45.82599" lon="4.74104">
        <ele>349.25474</ele>
        <time>2022-10-02T13:32:38.000Z</time>
      </trkpt>
      <trkpt lat="45.82598" lon="4.74094">
        <ele>348.41619</ele>
        <time>2022-10-02T13:32:39.000Z</time>
      </trkpt>
      <trkpt lat="45.82598" lon="4.74084">
        <ele>347.70551</ele>
        <time>2022-10-02T13:32:40.000Z</time>
      </trkpt>
      <trkpt lat="45.82597" lon="4.74075">
        <ele>347.02061</ele>
        <time>2022-10-02T13:32:41.000Z</time>
      </trkpt>
      <trkpt lat="45.82596" lon="4.74064">
        <ele>346.21741</ele>
        <time>2022-10-02T13:32:42.000Z</time>
      </trkpt>
      <trkpt lat="45.82596" lon="4.74053">
        <ele>345.47152</ele>
        <time>2022-10-02T13:32:43.000Z</time>
      </trkpt>
      <trkpt lat="45.82598" lon="4.74046">
        <ele>345.14684</ele>
        <time>2022-10-02T13:32:44.000Z</time>
      </trkpt>
      <trkpt lat="45.82598" lon="4.74035">
        <ele>344.45039</ele>
        <time>2022-10-02T13:32:45.000Z</time>
      </trkpt>
      <trkpt lat="45.82597" lon="4.74024">
        <ele>343.78326</ele>
        <time>2022-10-02T13:32:46.000Z</time>
      </trkpt>
      <trkpt lat="45.82595" lon="4.74014">
        <ele>343.21915</ele>
        <time>2022-10-02T13:32:47.000Z</time>
      </trkpt>
      <trkpt lat="45.82592" lon="4.74004">
        <ele>342.62542</ele>
        <time>2022-10-02T13:32:48.000Z</time>
      </trkpt>
      <trkpt lat="45.82588" lon="4.73993">
        <ele>342.07726</ele>
        <time>2022-10-02T13:32:49.000Z</time>
      </trkpt>
      <trkpt lat="45.82585" lon="4.73982">
        <ele>341.66205</ele>
        <time>2022-10-02T13:32:50.000Z</time>
      </trkpt>
      <trkpt lat="45.82582" lon="4.7397">
        <ele>341.30403</ele>
        <time>2022-10-02T13:32:51.000Z</time>
      </trkpt>
      <trkpt lat="45.82579" lon="4.73958">
        <ele>340.9225</ele>
        <time>2022-10-02T13:32:52.000Z</time>
      </trkpt>
      <trkpt lat="45.82576" lon="4.73947">
        <ele>340.55784</ele>
        <time>2022-10-02T13:32:53.000Z</time>
      </trkpt>
      <trkpt lat="45.82574" lon="4.73938">
        <ele>340.30214</ele>
        <time>2022-10-02T13:32:54.000Z</time>
      </trkpt>
      <trkpt lat="45.82572" lon="4.73928">
        <ele>340.05818</ele>
        <time>2022-10-02T13:32:55.000Z</time>
      </trkpt>
      <trkpt lat="45.8257" lon="4.73918">
        <ele>339.83742</ele>
        <time>2022-10-02T13:32:56.000Z</time>
      </trkpt>
      <trkpt lat="45.82567" lon="4.73908">
        <ele>339.65548</ele>
        <time>2022-10-02T13:32:57.000Z</time>
      </trkpt>
      <trkpt lat="45.82565" lon="4.73899">
        <ele>339.48214</ele>
        <time>2022-10-02T13:32:58.000Z</time>
      </trkpt>
      <trkpt lat="45.82564" lon="4.73889">
        <ele>339.16562</ele>
        <time>2022-10-02T13:32:59.000Z</time>
      </trkpt>
      <trkpt lat="45.82562" lon="4.73881">
        <ele>338.89587</ele>
        <time>2022-10-02T13:33:00.000Z</time>
      </trkpt>
      <trkpt lat="45.82563" lon="4.73874">
        <ele>338.65032</ele>
        <time>2022-10-02T13:33:01.000Z</time>
      </trkpt>
      <trkpt lat="45.82561" lon="4.73868">
        <ele>338.4935</ele>
        <time>2022-10-02T13:33:02.000Z</time>
      </trkpt>
      <trkpt lat="45.8256" lon="4.73863">
        <ele>338.41616</ele>
        <time>2022-10-02T13:33:03.000Z</time>
      </trkpt>
      <trkpt lat="45.82558" lon="4.73858">
        <ele>338.34956</ele>
        <time>2022-10-02T13:33:04.000Z</time>
      </trkpt>
      <trkpt lat="45.82556" lon="4.73854">
        <ele>338.25286</ele>
        <time>2022-10-02T13:33:05.000Z</time>
      </trkpt>
      <trkpt lat="45.82551" lon="4.73849">
        <ele>337.93478</ele>
        <time>2022-10-02T13:33:06.000Z</time>
      </trkpt>
      <trkpt lat="45.82547" lon="4.73845">
        <ele>337.54239</ele>
        <time>2022-10-02T13:33:07.000Z</time>
      </trkpt>
      <trkpt lat="45.82545" lon="4.73839">
        <ele>337.05087</ele>
        <time>2022-10-02T13:33:08.000Z</time>
      </trkpt>
      <trkpt lat="45.82545" lon="4.7383">
        <ele>336.63198</ele>
        <time>2022-10-02T13:33:09.000Z</time>
      </trkpt>
      <trkpt lat="45.82546" lon="4.73822">
        <ele>336.27745</ele>
        <time>2022-10-02T13:33:10.000Z</time>
      </trkpt>
      <trkpt lat="45.82548" lon="4.73815">
        <ele>336.05137</ele>
        <time>2022-10-02T13:33:11.000Z</time>
      </trkpt>
      <trkpt lat="45.82549" lon="4.73808">
        <ele>336.03905</ele>
        <time>2022-10-02T13:33:12.000Z</time>
      </trkpt>
      <trkpt lat="45.82552" lon="4.73802">
        <ele>336.30379</ele>
        <time>2022-10-02T13:33:13.000Z</time>
      </trkpt>
      <trkpt lat="45.82554" lon="4.73795">
        <ele>336.78639</ele>
        <time>2022-10-02T13:33:14.000Z</time>
      </trkpt>
      <trkpt lat="45.82556" lon="4.73789">
        <ele>337.2243</ele>
        <time>2022-10-02T13:33:15.000Z</time>
      </trkpt>
      <trkpt lat="45.82558" lon="4.73782">
        <ele>337.34087</ele>
        <time>2022-10-02T13:33:16.000Z</time>
      </trkpt>
      <trkpt lat="45.8256" lon="4.73775">
        <ele>337.11192</ele>
        <time>2022-10-02T13:33:17.000Z</time>
      </trkpt>
      <trkpt lat="45.82561" lon="4.73768">
        <ele>336.76592</ele>
        <time>2022-10-02T13:33:18.000Z</time>
      </trkpt>
      <trkpt lat="45.82558" lon="4.7376">
        <ele>337.84981</ele>
        <time>2022-10-02T13:33:19.000Z</time>
      </trkpt>
      <trkpt lat="45.82562" lon="4.73756">
        <ele>336.63757</ele>
        <time>2022-10-02T13:33:20.000Z</time>
      </trkpt>
      <trkpt lat="45.82568" lon="4.73754">
        <ele>335.30613</ele>
        <time>2022-10-02T13:33:21.000Z</time>
      </trkpt>
      <trkpt lat="45.82571" lon="4.73746">
        <ele>335.46131</ele>
        <time>2022-10-02T13:33:22.000Z</time>
      </trkpt>
      <trkpt lat="45.82573" lon="4.73741">
        <ele>335.76389</ele>
        <time>2022-10-02T13:33:23.000Z</time>
      </trkpt>
      <trkpt lat="45.82574" lon="4.73736">
        <ele>336.06917</ele>
        <time>2022-10-02T13:33:24.000Z</time>
      </trkpt>
      <trkpt lat="45.82578" lon="4.73733">
        <ele>336.52216</ele>
        <time>2022-10-02T13:33:25.000Z</time>
      </trkpt>
      <trkpt lat="45.82582" lon="4.73731">
        <ele>336.97123</ele>
        <time>2022-10-02T13:33:26.000Z</time>
      </trkpt>
      <trkpt lat="45.82587" lon="4.73728">
        <ele>337.24984</ele>
        <time>2022-10-02T13:33:27.000Z</time>
      </trkpt>
      <trkpt lat="45.8259" lon="4.73726">
        <ele>337.31654</ele>
        <time>2022-10-02T13:33:28.000Z</time>
      </trkpt>
      <trkpt lat="45.82593" lon="4.73721">
        <ele>337.12562</ele>
        <time>2022-10-02T13:33:29.000Z</time>
      </trkpt>
      <trkpt lat="45.82595" lon="4.7372">
        <ele>337.23708</ele>
        <time>2022-10-02T13:33:30.000Z</time>
      </trkpt>
      <trkpt lat="45.82598" lon="4.73722">
        <ele>337.58973</ele>
        <time>2022-10-02T13:33:31.000Z</time>
      </trkpt>
      <trkpt lat="45.82602" lon="4.73722">
        <ele>338.012</ele>
        <time>2022-10-02T13:33:32.000Z</time>
      </trkpt>
      <trkpt lat="45.82605" lon="4.73721">
        <ele>338.2601</ele>
        <time>2022-10-02T13:33:33.000Z</time>
      </trkpt>
      <trkpt lat="45.82608" lon="4.73721">
        <ele>338.6007</ele>
        <time>2022-10-02T13:33:34.000Z</time>
      </trkpt>
      <trkpt lat="45.82612" lon="4.73721">
        <ele>338.86077</ele>
        <time>2022-10-02T13:33:35.000Z</time>
      </trkpt>
      <trkpt lat="45.82615" lon="4.73721">
        <ele>339.0381</ele>
        <time>2022-10-02T13:33:36.000Z</time>
      </trkpt>
      <trkpt lat="45.82615" lon="4.73721">
        <ele>339.0381</ele>
        <time>2022-10-02T13:33:36.000Z</time>
      </trkpt>
      <trkpt lat="45.82619" lon="4.73722">
        <ele>339.08272</ele>
        <time>2022-10-02T13:33:37.000Z</time>
      </trkpt>
      <trkpt lat="45.82623" lon="4.73722">
        <ele>339.03516</ele>
        <time>2022-10-02T13:33:38.000Z</time>
      </trkpt>
      <trkpt lat="45.82627" lon="4.73722">
        <ele>338.9646</ele>
        <time>2022-10-02T13:33:39.000Z</time>
      </trkpt>
      <trkpt lat="45.82631" lon="4.73722">
        <ele>338.90647</ele>
        <time>2022-10-02T13:33:40.000Z</time>
      </trkpt>
      <trkpt lat="45.82634" lon="4.73722">
        <ele>338.89317</ele>
        <time>2022-10-02T13:33:41.000Z</time>
      </trkpt>
      <trkpt lat="45.82638" lon="4.73722">
        <ele>338.9344</ele>
        <time>2022-10-02T13:33:42.000Z</time>
      </trkpt>
      <trkpt lat="45.82642" lon="4.73721">
        <ele>339.01678</ele>
        <time>2022-10-02T13:33:43.000Z</time>
      </trkpt>
      <trkpt lat="45.82646" lon="4.7372">
        <ele>339.15999</ele>
        <time>2022-10-02T13:33:44.000Z</time>
      </trkpt>
      <trkpt lat="45.8265" lon="4.73718">
        <ele>339.39203</ele>
        <time>2022-10-02T13:33:45.000Z</time>
      </trkpt>
      <trkpt lat="45.82654" lon="4.73716">
        <ele>339.61329</ele>
        <time>2022-10-02T13:33:46.000Z</time>
      </trkpt>
      <trkpt lat="45.82657" lon="4.73713">
        <ele>339.82831</ele>
        <time>2022-10-02T13:33:47.000Z</time>
      </trkpt>
      <trkpt lat="45.82661" lon="4.73711">
        <ele>340.00948</ele>
        <time>2022-10-02T13:33:48.000Z</time>
      </trkpt>
      <trkpt lat="45.82664" lon="4.73709">
        <ele>340.15524</ele>
        <time>2022-10-02T13:33:49.000Z</time>
      </trkpt>
      <trkpt lat="45.82667" lon="4.73707">
        <ele>340.32435</ele>
        <time>2022-10-02T13:33:50.000Z</time>
      </trkpt>
      <trkpt lat="45.8267" lon="4.73704">
        <ele>340.49209</ele>
        <time>2022-10-02T13:33:51.000Z</time>
      </trkpt>
      <trkpt lat="45.82673" lon="4.73702">
        <ele>340.66382</ele>
        <time>2022-10-02T13:33:52.000Z</time>
      </trkpt>
      <trkpt lat="45.82675" lon="4.73699">
        <ele>340.81899</ele>
        <time>2022-10-02T13:33:53.000Z</time>
      </trkpt>
      <trkpt lat="45.82678" lon="4.73697">
        <ele>340.95908</ele>
        <time>2022-10-02T13:33:54.000Z</time>
      </trkpt>
      <trkpt lat="45.82681" lon="4.73694">
        <ele>341.05233</ele>
        <time>2022-10-02T13:33:55.000Z</time>
      </trkpt>
      <trkpt lat="45.82684" lon="4.73692">
        <ele>341.13076</ele>
        <time>2022-10-02T13:33:56.000Z</time>
      </trkpt>
      <trkpt lat="45.82687" lon="4.73689">
        <ele>341.23041</ele>
        <time>2022-10-02T13:33:57.000Z</time>
      </trkpt>
      <trkpt lat="45.8269" lon="4.73686">
        <ele>341.3312</ele>
        <time>2022-10-02T13:33:58.000Z</time>
      </trkpt>
      <trkpt lat="45.82693" lon="4.73682">
        <ele>341.43847</ele>
        <time>2022-10-02T13:33:59.000Z</time>
      </trkpt>
      <trkpt lat="45.82696" lon="4.7368">
        <ele>341.49476</ele>
        <time>2022-10-02T13:34:00.000Z</time>
      </trkpt>
      <trkpt lat="45.827" lon="4.73677">
        <ele>341.53345</ele>
        <time>2022-10-02T13:34:01.000Z</time>
      </trkpt>
      <trkpt lat="45.82703" lon="4.73674">
        <ele>341.52965</ele>
        <time>2022-10-02T13:34:02.000Z</time>
      </trkpt>
      <trkpt lat="45.82707" lon="4.73671">
        <ele>341.47593</ele>
        <time>2022-10-02T13:34:03.000Z</time>
      </trkpt>
      <trkpt lat="45.82711" lon="4.73666">
        <ele>341.45418</ele>
        <time>2022-10-02T13:34:04.000Z</time>
      </trkpt>
      <trkpt lat="45.82715" lon="4.73662">
        <ele>341.43016</ele>
        <time>2022-10-02T13:34:05.000Z</time>
      </trkpt>
      <trkpt lat="45.8272" lon="4.73658">
        <ele>341.35663</ele>
        <time>2022-10-02T13:34:06.000Z</time>
      </trkpt>
      <trkpt lat="45.82724" lon="4.73653">
        <ele>341.34102</ele>
        <time>2022-10-02T13:34:07.000Z</time>
      </trkpt>
      <trkpt lat="45.82728" lon="4.73649">
        <ele>341.20688</ele>
        <time>2022-10-02T13:34:08.000Z</time>
      </trkpt>
      <trkpt lat="45.82732" lon="4.73644">
        <ele>341.04596</ele>
        <time>2022-10-02T13:34:09.000Z</time>
      </trkpt>
      <trkpt lat="45.82735" lon="4.73639">
        <ele>340.92515</ele>
        <time>2022-10-02T13:34:10.000Z</time>
      </trkpt>
      <trkpt lat="45.82738" lon="4.73635">
        <ele>340.78927</ele>
        <time>2022-10-02T13:34:11.000Z</time>
      </trkpt>
      <trkpt lat="45.82743" lon="4.73631">
        <ele>340.56467</ele>
        <time>2022-10-02T13:34:12.000Z</time>
      </trkpt>
      <trkpt lat="45.82747" lon="4.73627">
        <ele>340.48297</ele>
        <time>2022-10-02T13:34:13.000Z</time>
      </trkpt>
      <trkpt lat="45.82752" lon="4.73623">
        <ele>340.23595</ele>
        <time>2022-10-02T13:34:14.000Z</time>
      </trkpt>
      <trkpt lat="45.82755" lon="4.73618">
        <ele>340.14503</ele>
        <time>2022-10-02T13:34:15.000Z</time>
      </trkpt>
      <trkpt lat="45.82759" lon="4.73612">
        <ele>339.7299</ele>
        <time>2022-10-02T13:34:16.000Z</time>
      </trkpt>
      <trkpt lat="45.82765" lon="4.73607">
        <ele>338.98075</ele>
        <time>2022-10-02T13:34:17.000Z</time>
      </trkpt>
      <trkpt lat="45.82771" lon="4.736">
        <ele>338.31492</ele>
        <time>2022-10-02T13:34:18.000Z</time>
      </trkpt>
      <trkpt lat="45.8278" lon="4.7359">
        <ele>337.44964</ele>
        <time>2022-10-02T13:34:19.000Z</time>
      </trkpt>
      <trkpt lat="45.82786" lon="4.73581">
        <ele>336.83924</ele>
        <time>2022-10-02T13:34:20.000Z</time>
      </trkpt>
      <trkpt lat="45.82792" lon="4.73572">
        <ele>336.30335</ele>
        <time>2022-10-02T13:34:21.000Z</time>
      </trkpt>
      <trkpt lat="45.82799" lon="4.73569">
        <ele>335.36564</ele>
        <time>2022-10-02T13:34:22.000Z</time>
      </trkpt>
      <trkpt lat="45.82805" lon="4.73561">
        <ele>334.74555</ele>
        <time>2022-10-02T13:34:23.000Z</time>
      </trkpt>
      <trkpt lat="45.82812" lon="4.73554">
        <ele>333.86498</ele>
        <time>2022-10-02T13:34:24.000Z</time>
      </trkpt>
      <trkpt lat="45.82819" lon="4.73547">
        <ele>333.04628</ele>
        <time>2022-10-02T13:34:25.000Z</time>
      </trkpt>
      <trkpt lat="45.82825" lon="4.73538">
        <ele>332.31949</ele>
        <time>2022-10-02T13:34:26.000Z</time>
      </trkpt>
      <trkpt lat="45.8283" lon="4.73529">
        <ele>331.95359</ele>
        <time>2022-10-02T13:34:27.000Z</time>
      </trkpt>
      <trkpt lat="45.82836" lon="4.7352">
        <ele>331.42226</ele>
        <time>2022-10-02T13:34:28.000Z</time>
      </trkpt>
      <trkpt lat="45.82841" lon="4.73511">
        <ele>330.77368</ele>
        <time>2022-10-02T13:34:29.000Z</time>
      </trkpt>
      <trkpt lat="45.82849" lon="4.73506">
        <ele>329.72563</ele>
        <time>2022-10-02T13:34:30.000Z</time>
      </trkpt>
      <trkpt lat="45.82857" lon="4.73499">
        <ele>328.85898</ele>
        <time>2022-10-02T13:34:31.000Z</time>
      </trkpt>
      <trkpt lat="45.82864" lon="4.73495">
        <ele>328.21806</ele>
        <time>2022-10-02T13:34:32.000Z</time>
      </trkpt>
      <trkpt lat="45.82872" lon="4.73484">
        <ele>327.28858</ele>
        <time>2022-10-02T13:34:33.000Z</time>
      </trkpt>
      <trkpt lat="45.82879" lon="4.73478">
        <ele>326.30149</ele>
        <time>2022-10-02T13:34:34.000Z</time>
      </trkpt>
      <trkpt lat="45.82888" lon="4.73468">
        <ele>325.22917</ele>
        <time>2022-10-02T13:34:35.000Z</time>
      </trkpt>
      <trkpt lat="45.82898" lon="4.7346">
        <ele>324.04045</ele>
        <time>2022-10-02T13:34:36.000Z</time>
      </trkpt>
      <trkpt lat="45.82905" lon="4.73452">
        <ele>323.15145</ele>
        <time>2022-10-02T13:34:37.000Z</time>
      </trkpt>
      <trkpt lat="45.8291" lon="4.73447">
        <ele>322.55543</ele>
        <time>2022-10-02T13:34:38.000Z</time>
      </trkpt>
      <trkpt lat="45.82917" lon="4.73441">
        <ele>321.74362</ele>
        <time>2022-10-02T13:34:39.000Z</time>
      </trkpt>
      <trkpt lat="45.82923" lon="4.73435">
        <ele>321.10833</ele>
        <time>2022-10-02T13:34:40.000Z</time>
      </trkpt>
      <trkpt lat="45.82928" lon="4.73424">
        <ele>320.56443</ele>
        <time>2022-10-02T13:34:41.000Z</time>
      </trkpt>
      <trkpt lat="45.82938" lon="4.73417">
        <ele>319.73458</ele>
        <time>2022-10-02T13:34:42.000Z</time>
      </trkpt>
      <trkpt lat="45.82944" lon="4.73413">
        <ele>319.28982</ele>
        <time>2022-10-02T13:34:43.000Z</time>
      </trkpt>
      <trkpt lat="45.82953" lon="4.7341">
        <ele>318.63664</ele>
        <time>2022-10-02T13:34:44.000Z</time>
      </trkpt>
      <trkpt lat="45.82961" lon="4.73406">
        <ele>318.07881</ele>
        <time>2022-10-02T13:34:45.000Z</time>
      </trkpt>
      <trkpt lat="45.82967" lon="4.73399">
        <ele>317.73964</ele>
        <time>2022-10-02T13:34:46.000Z</time>
      </trkpt>
      <trkpt lat="45.82974" lon="4.73393">
        <ele>317.31614</ele>
        <time>2022-10-02T13:34:47.000Z</time>
      </trkpt>
      <trkpt lat="45.82981" lon="4.73388">
        <ele>316.67693</ele>
        <time>2022-10-02T13:34:48.000Z</time>
      </trkpt>
      <trkpt lat="45.82987" lon="4.73381">
        <ele>316.02849</ele>
        <time>2022-10-02T13:34:49.000Z</time>
      </trkpt>
      <trkpt lat="45.82995" lon="4.73376">
        <ele>315.41679</ele>
        <time>2022-10-02T13:34:50.000Z</time>
      </trkpt>
      <trkpt lat="45.83003" lon="4.7337">
        <ele>314.81754</ele>
        <time>2022-10-02T13:34:51.000Z</time>
      </trkpt>
      <trkpt lat="45.83008" lon="4.73365">
        <ele>314.44338</ele>
        <time>2022-10-02T13:34:52.000Z</time>
      </trkpt>
      <trkpt lat="45.83092" lon="4.73279">
        <ele>305.60172</ele>
        <time>2022-10-02T13:35:04.000Z</time>
      </trkpt>
      <trkpt lat="45.83099" lon="4.73273">
        <ele>304.91724</ele>
        <time>2022-10-02T13:35:05.000Z</time>
      </trkpt>
      <trkpt lat="45.83106" lon="4.73265">
        <ele>304.14213</ele>
        <time>2022-10-02T13:35:06.000Z</time>
      </trkpt>
      <trkpt lat="45.83112" lon="4.73259">
        <ele>303.56467</ele>
        <time>2022-10-02T13:35:07.000Z</time>
      </trkpt>
      <trkpt lat="45.83117" lon="4.73255">
        <ele>303.04189</ele>
        <time>2022-10-02T13:35:08.000Z</time>
      </trkpt>
      <trkpt lat="45.83124" lon="4.73248">
        <ele>302.18921</ele>
        <time>2022-10-02T13:35:09.000Z</time>
      </trkpt>
      <trkpt lat="45.83131" lon="4.73242">
        <ele>301.46346</ele>
        <time>2022-10-02T13:35:10.000Z</time>
      </trkpt>
      <trkpt lat="45.83134" lon="4.7324">
        <ele>301.20214</ele>
        <time>2022-10-02T13:35:11.000Z</time>
      </trkpt>
      <trkpt lat="45.83136" lon="4.73235">
        <ele>300.84117</ele>
        <time>2022-10-02T13:35:12.000Z</time>
      </trkpt>
      <trkpt lat="45.83139" lon="4.73231">
        <ele>300.44039</ele>
        <time>2022-10-02T13:35:13.000Z</time>
      </trkpt>
      <trkpt lat="45.83143" lon="4.73227">
        <ele>300.03992</ele>
        <time>2022-10-02T13:35:14.000Z</time>
      </trkpt>
      <trkpt lat="45.83148" lon="4.73225">
        <ele>299.60509</ele>
        <time>2022-10-02T13:35:15.000Z</time>
      </trkpt>
      <trkpt lat="45.83153" lon="4.73218">
        <ele>298.97076</ele>
        <time>2022-10-02T13:35:16.000Z</time>
      </trkpt>
      <trkpt lat="45.83157" lon="4.7321">
        <ele>298.44549</ele>
        <time>2022-10-02T13:35:17.000Z</time>
      </trkpt>
      <trkpt lat="45.83163" lon="4.73205">
        <ele>297.92005</ele>
        <time>2022-10-02T13:35:18.000Z</time>
      </trkpt>
      <trkpt lat="45.8317" lon="4.73202">
        <ele>297.51623</ele>
        <time>2022-10-02T13:35:19.000Z</time>
      </trkpt>
      <trkpt lat="45.83176" lon="4.73195">
        <ele>297.08907</ele>
        <time>2022-10-02T13:35:20.000Z</time>
      </trkpt>
      <trkpt lat="45.83181" lon="4.73189">
        <ele>296.78393</ele>
        <time>2022-10-02T13:35:21.000Z</time>
      </trkpt>
      <trkpt lat="45.83186" lon="4.73184">
        <ele>296.51338</ele>
        <time>2022-10-02T13:35:22.000Z</time>
      </trkpt>
      <trkpt lat="45.83188" lon="4.73176">
        <ele>296.23837</ele>
        <time>2022-10-02T13:35:23.000Z</time>
      </trkpt>
      <trkpt lat="45.83191" lon="4.7317">
        <ele>295.9715</ele>
        <time>2022-10-02T13:35:24.000Z</time>
      </trkpt>
      <trkpt lat="45.83192" lon="4.73163">
        <ele>295.71481</ele>
        <time>2022-10-02T13:35:25.000Z</time>
      </trkpt>
      <trkpt lat="45.83195" lon="4.73157">
        <ele>295.50403</ele>
        <time>2022-10-02T13:35:26.000Z</time>
      </trkpt>
      <trkpt lat="45.83196" lon="4.73149">
        <ele>295.27441</ele>
        <time>2022-10-02T13:35:27.000Z</time>
      </trkpt>
      <trkpt lat="45.83198" lon="4.7314">
        <ele>294.95817</ele>
        <time>2022-10-02T13:35:28.000Z</time>
      </trkpt>
      <trkpt lat="45.83199" lon="4.7313">
        <ele>294.5955</ele>
        <time>2022-10-02T13:35:29.000Z</time>
      </trkpt>
      <trkpt lat="45.832" lon="4.73123">
        <ele>294.32295</ele>
        <time>2022-10-02T13:35:30.000Z</time>
      </trkpt>
      <trkpt lat="45.83197" lon="4.73119">
        <ele>294.07135</ele>
        <time>2022-10-02T13:35:31.000Z</time>
      </trkpt>
      <trkpt lat="45.83196" lon="4.73112">
        <ele>293.66736</ele>
        <time>2022-10-02T13:35:32.000Z</time>
      </trkpt>
      <trkpt lat="45.83197" lon="4.73106">
        <ele>293.44742</ele>
        <time>2022-10-02T13:35:33.000Z</time>
      </trkpt>
      <trkpt lat="45.832" lon="4.731">
        <ele>293.30818</ele>
        <time>2022-10-02T13:35:34.000Z</time>
      </trkpt>
      <trkpt lat="45.83202" lon="4.73095">
        <ele>293.10936</ele>
        <time>2022-10-02T13:35:35.000Z</time>
      </trkpt>
      <trkpt lat="45.83204" lon="4.7309">
        <ele>292.96405</ele>
        <time>2022-10-02T13:35:36.000Z</time>
      </trkpt>
      <trkpt lat="45.83207" lon="4.73087">
        <ele>292.93231</ele>
        <time>2022-10-02T13:35:37.000Z</time>
      </trkpt>
      <trkpt lat="45.83211" lon="4.7308">
        <ele>292.77905</ele>
        <time>2022-10-02T13:35:38.000Z</time>
      </trkpt>
      <trkpt lat="45.83215" lon="4.73075">
        <ele>292.70902</ele>
        <time>2022-10-02T13:35:39.000Z</time>
      </trkpt>
      <trkpt lat="45.83217" lon="4.73068">
        <ele>292.55842</ele>
        <time>2022-10-02T13:35:40.000Z</time>
      </trkpt>
      <trkpt lat="45.83221" lon="4.7306">
        <ele>292.49853</ele>
        <time>2022-10-02T13:35:41.000Z</time>
      </trkpt>
      <trkpt lat="45.83225" lon="4.73053">
        <ele>292.57032</ele>
        <time>2022-10-02T13:35:42.000Z</time>
      </trkpt>
      <trkpt lat="45.83227" lon="4.73048">
        <ele>292.68606</ele>
        <time>2022-10-02T13:35:43.000Z</time>
      </trkpt>
      <trkpt lat="45.83229" lon="4.73041">
        <ele>292.67481</ele>
        <time>2022-10-02T13:35:44.000Z</time>
      </trkpt>
      <trkpt lat="45.83232" lon="4.73035">
        <ele>292.84734</ele>
        <time>2022-10-02T13:35:45.000Z</time>
      </trkpt>
      <trkpt lat="45.83233" lon="4.73029">
        <ele>292.95133</ele>
        <time>2022-10-02T13:35:46.000Z</time>
      </trkpt>
      <trkpt lat="45.83235" lon="4.73022">
        <ele>293.08085</ele>
        <time>2022-10-02T13:35:47.000Z</time>
      </trkpt>
      <trkpt lat="45.83238" lon="4.73016">
        <ele>293.23277</ele>
        <time>2022-10-02T13:35:48.000Z</time>
      </trkpt>
      <trkpt lat="45.8324" lon="4.73009">
        <ele>293.33395</ele>
        <time>2022-10-02T13:35:49.000Z</time>
      </trkpt>
      <trkpt lat="45.83242" lon="4.73001">
        <ele>293.40746</ele>
        <time>2022-10-02T13:35:50.000Z</time>
      </trkpt>
      <trkpt lat="45.83245" lon="4.72995">
        <ele>293.40595</ele>
        <time>2022-10-02T13:35:51.000Z</time>
      </trkpt>
      <trkpt lat="45.83248" lon="4.72989">
        <ele>293.30058</ele>
        <time>2022-10-02T13:35:52.000Z</time>
      </trkpt>
      <trkpt lat="45.83251" lon="4.72981">
        <ele>293.04945</ele>
        <time>2022-10-02T13:35:53.000Z</time>
      </trkpt>
      <trkpt lat="45.83254" lon="4.72976">
        <ele>292.81626</ele>
        <time>2022-10-02T13:35:54.000Z</time>
      </trkpt>
      <trkpt lat="45.83258" lon="4.72968">
        <ele>292.46663</ele>
        <time>2022-10-02T13:35:55.000Z</time>
      </trkpt>
      <trkpt lat="45.83261" lon="4.72962">
        <ele>292.08379</ele>
        <time>2022-10-02T13:35:56.000Z</time>
      </trkpt>
      <trkpt lat="45.83264" lon="4.72955">
        <ele>291.63604</ele>
        <time>2022-10-02T13:35:57.000Z</time>
      </trkpt>
      <trkpt lat="45.83266" lon="4.72946">
        <ele>291.12974</ele>
        <time>2022-10-02T13:35:58.000Z</time>
      </trkpt>
      <trkpt lat="45.83269" lon="4.72937">
        <ele>290.50043</ele>
        <time>2022-10-02T13:35:59.000Z</time>
      </trkpt>
      <trkpt lat="45.83274" lon="4.72926">
        <ele>289.55123</ele>
        <time>2022-10-02T13:36:00.000Z</time>
      </trkpt>
      <trkpt lat="45.83279" lon="4.72918">
        <ele>288.63734</ele>
        <time>2022-10-02T13:36:01.000Z</time>
      </trkpt>
      <trkpt lat="45.83283" lon="4.72908">
        <ele>287.69887</ele>
        <time>2022-10-02T13:36:02.000Z</time>
      </trkpt>
      <trkpt lat="45.83286" lon="4.729">
        <ele>286.87958</ele>
        <time>2022-10-02T13:36:03.000Z</time>
      </trkpt>
      <trkpt lat="45.83289" lon="4.72893">
        <ele>286.11999</ele>
        <time>2022-10-02T13:36:04.000Z</time>
      </trkpt>
      <trkpt lat="45.83291" lon="4.72885">
        <ele>285.24018</ele>
        <time>2022-10-02T13:36:05.000Z</time>
      </trkpt>
      <trkpt lat="45.83292" lon="4.7288">
        <ele>284.58075</ele>
        <time>2022-10-02T13:36:06.000Z</time>
      </trkpt>
      <trkpt lat="45.83289" lon="4.72874">
        <ele>283.83401</ele>
        <time>2022-10-02T13:36:07.000Z</time>
      </trkpt>
      <trkpt lat="45.83288" lon="4.7287">
        <ele>283.30007</ele>
        <time>2022-10-02T13:36:08.000Z</time>
      </trkpt>
      <trkpt lat="45.83286" lon="4.72861">
        <ele>282.11019</ele>
        <time>2022-10-02T13:36:09.000Z</time>
      </trkpt>
      <trkpt lat="45.83282" lon="4.72858">
        <ele>281.77893</ele>
        <time>2022-10-02T13:36:10.000Z</time>
      </trkpt>
      <trkpt lat="45.83274" lon="4.72852">
        <ele>280.94855</ele>
        <time>2022-10-02T13:36:11.000Z</time>
      </trkpt>
      <trkpt lat="45.83266" lon="4.72847">
        <ele>280.24263</ele>
        <time>2022-10-02T13:36:12.000Z</time>
      </trkpt>
      <trkpt lat="45.8325" lon="4.72841">
        <ele>278.1427</ele>
        <time>2022-10-02T13:36:14.000Z</time>
      </trkpt>
      <trkpt lat="45.83242" lon="4.72835">
        <ele>276.41918</ele>
        <time>2022-10-02T13:36:15.000Z</time>
      </trkpt>
      <trkpt lat="45.83234" lon="4.72831">
        <ele>275.3458</ele>
        <time>2022-10-02T13:36:16.000Z</time>
      </trkpt>
      <trkpt lat="45.83229" lon="4.72832">
        <ele>275.32963</ele>
        <time>2022-10-02T13:36:17.000Z</time>
      </trkpt>
      <trkpt lat="45.83225" lon="4.7283">
        <ele>275.06321</ele>
        <time>2022-10-02T13:36:18.000Z</time>
      </trkpt>
      <trkpt lat="45.83218" lon="4.72828">
        <ele>274.6723</ele>
        <time>2022-10-02T13:36:19.000Z</time>
      </trkpt>
      <trkpt lat="45.8321" lon="4.72825">
        <ele>274.13727</ele>
        <time>2022-10-02T13:36:20.000Z</time>
      </trkpt>
      <trkpt lat="45.83206" lon="4.72812">
        <ele>273.31446</ele>
        <time>2022-10-02T13:36:21.000Z</time>
      </trkpt>
      <trkpt lat="45.83202" lon="4.72803">
        <ele>273.40538</ele>
        <time>2022-10-02T13:36:22.000Z</time>
      </trkpt>
      <trkpt lat="45.83202" lon="4.72793">
        <ele>273.81951</ele>
        <time>2022-10-02T13:36:23.000Z</time>
      </trkpt>
      <trkpt lat="45.83203" lon="4.72789">
        <ele>273.92652</ele>
        <time>2022-10-02T13:36:24.000Z</time>
      </trkpt>
      <trkpt lat="45.83205" lon="4.72785">
        <ele>273.98866</ele>
        <time>2022-10-02T13:36:25.000Z</time>
      </trkpt>
      <trkpt lat="45.83207" lon="4.72781">
        <ele>274.15559</ele>
        <time>2022-10-02T13:36:26.000Z</time>
      </trkpt>
      <trkpt lat="45.83209" lon="4.72776">
        <ele>274.35094</ele>
        <time>2022-10-02T13:36:27.000Z</time>
      </trkpt>
      <trkpt lat="45.8321" lon="4.72772">
        <ele>274.53588</ele>
        <time>2022-10-02T13:36:28.000Z</time>
      </trkpt>
      <trkpt lat="45.83209" lon="4.72768">
        <ele>275.02368</ele>
        <time>2022-10-02T13:36:29.000Z</time>
      </trkpt>
      <trkpt lat="45.83211" lon="4.72764">
        <ele>275.17134</ele>
        <time>2022-10-02T13:36:30.000Z</time>
      </trkpt>
      <trkpt lat="45.83213" lon="4.72756">
        <ele>275.80376</ele>
        <time>2022-10-02T13:36:32.000Z</time>
      </trkpt>
      <trkpt lat="45.83219" lon="4.7275">
        <ele>276.08575</ele>
        <time>2022-10-02T13:36:33.000Z</time>
      </trkpt>
      <trkpt lat="45.83222" lon="4.72746">
        <ele>276.49764</ele>
        <time>2022-10-02T13:36:34.000Z</time>
      </trkpt>
      <trkpt lat="45.83225" lon="4.72744">
        <ele>276.64901</ele>
        <time>2022-10-02T13:36:35.000Z</time>
      </trkpt>
      <trkpt lat="45.8323" lon="4.72741">
        <ele>276.97872</ele>
        <time>2022-10-02T13:36:36.000Z</time>
      </trkpt>
      <trkpt lat="45.83233" lon="4.7274">
        <ele>277.20786</ele>
        <time>2022-10-02T13:36:37.000Z</time>
      </trkpt>
      <trkpt lat="45.83236" lon="4.72739">
        <ele>277.40127</ele>
        <time>2022-10-02T13:36:38.000Z</time>
      </trkpt>
      <trkpt lat="45.8324" lon="4.72738">
        <ele>277.52709</ele>
        <time>2022-10-02T13:36:39.000Z</time>
      </trkpt>
      <trkpt lat="45.83243" lon="4.72737">
        <ele>277.74488</ele>
        <time>2022-10-02T13:36:40.000Z</time>
      </trkpt>
      <trkpt lat="45.83246" lon="4.72737">
        <ele>278.0301</ele>
        <time>2022-10-02T13:36:41.000Z</time>
      </trkpt>
      <trkpt lat="45.83249" lon="4.72735">
        <ele>278.43325</ele>
        <time>2022-10-02T13:36:42.000Z</time>
      </trkpt>
      <trkpt lat="45.83248" lon="4.72731">
        <ele>279.46442</ele>
        <time>2022-10-02T13:36:44.000Z</time>
      </trkpt>
      <trkpt lat="45.83245" lon="4.7273">
        <ele>279.66188</ele>
        <time>2022-10-02T13:36:45.000Z</time>
      </trkpt>
      <trkpt lat="45.83241" lon="4.72729">
        <ele>279.47394</ele>
        <time>2022-10-02T13:36:46.000Z</time>
      </trkpt>
      <trkpt lat="45.83236" lon="4.7273">
        <ele>279.26123</ele>
        <time>2022-10-02T13:36:47.000Z</time>
      </trkpt>
      <trkpt lat="45.83232" lon="4.72731">
        <ele>279.10207</ele>
        <time>2022-10-02T13:36:48.000Z</time>
      </trkpt>
      <trkpt lat="45.83229" lon="4.72732">
        <ele>278.93222</ele>
        <time>2022-10-02T13:36:49.000Z</time>
      </trkpt>
      <trkpt lat="45.83226" lon="4.72732">
        <ele>278.8465</ele>
        <time>2022-10-02T13:36:50.000Z</time>
      </trkpt>
      <trkpt lat="45.83224" lon="4.72732">
        <ele>278.87291</ele>
        <time>2022-10-02T13:36:51.000Z</time>
      </trkpt>
      <trkpt lat="45.83221" lon="4.72733">
        <ele>278.91934</ele>
        <time>2022-10-02T13:36:52.000Z</time>
      </trkpt>
      <trkpt lat="45.83219" lon="4.72733">
        <ele>278.89431</ele>
        <time>2022-10-02T13:36:53.000Z</time>
      </trkpt>
      <trkpt lat="45.83216" lon="4.72734">
        <ele>278.9433</ele>
        <time>2022-10-02T13:36:54.000Z</time>
      </trkpt>
      <trkpt lat="45.83213" lon="4.72733">
        <ele>279.28314</ele>
        <time>2022-10-02T13:36:55.000Z</time>
      </trkpt>
      <trkpt lat="45.83209" lon="4.72731">
        <ele>279.91559</ele>
        <time>2022-10-02T13:36:56.000Z</time>
      </trkpt>
      <trkpt lat="45.83206" lon="4.72728">
        <ele>280.61121</ele>
        <time>2022-10-02T13:36:57.000Z</time>
      </trkpt>
      <trkpt lat="45.83204" lon="4.72725">
        <ele>281.21649</ele>
        <time>2022-10-02T13:36:58.000Z</time>
      </trkpt>
      <trkpt lat="45.83201" lon="4.72723">
        <ele>281.77856</ele>
        <time>2022-10-02T13:36:59.000Z</time>
      </trkpt>
      <trkpt lat="45.83199" lon="4.72721">
        <ele>282.31725</ele>
        <time>2022-10-02T13:37:00.000Z</time>
      </trkpt>
      <trkpt lat="45.83197" lon="4.72718">
        <ele>282.8465</ele>
        <time>2022-10-02T13:37:01.000Z</time>
      </trkpt>
      <trkpt lat="45.83197" lon="4.72714">
        <ele>283.4822</ele>
        <time>2022-10-02T13:37:02.000Z</time>
      </trkpt>
      <trkpt lat="45.83197" lon="4.72707">
        <ele>284.21269</ele>
        <time>2022-10-02T13:37:03.000Z</time>
      </trkpt>
      <trkpt lat="45.83199" lon="4.72701">
        <ele>284.82604</ele>
        <time>2022-10-02T13:37:04.000Z</time>
      </trkpt>
      <trkpt lat="45.832" lon="4.72694">
        <ele>285.23604</ele>
        <time>2022-10-02T13:37:05.000Z</time>
      </trkpt>
      <trkpt lat="45.83202" lon="4.72688">
        <ele>285.53856</ele>
        <time>2022-10-02T13:37:06.000Z</time>
      </trkpt>
      <trkpt lat="45.83203" lon="4.72682">
        <ele>285.72403</ele>
        <time>2022-10-02T13:37:07.000Z</time>
      </trkpt>
      <trkpt lat="45.83204" lon="4.72675">
        <ele>285.89741</ele>
        <time>2022-10-02T13:37:08.000Z</time>
      </trkpt>
      <trkpt lat="45.83205" lon="4.72668">
        <ele>286.00481</ele>
        <time>2022-10-02T13:37:09.000Z</time>
      </trkpt>
      <trkpt lat="45.83209" lon="4.72651">
        <ele>285.769</ele>
        <time>2022-10-02T13:37:11.000Z</time>
      </trkpt>
      <trkpt lat="45.8321" lon="4.72645">
        <ele>285.5992</ele>
        <time>2022-10-02T13:37:12.000Z</time>
      </trkpt>
      <trkpt lat="45.8321" lon="4.72638">
        <ele>285.36944</ele>
        <time>2022-10-02T13:37:13.000Z</time>
      </trkpt>
      <trkpt lat="45.83211" lon="4.72628">
        <ele>285.17063</ele>
        <time>2022-10-02T13:37:14.000Z</time>
      </trkpt>
      <trkpt lat="45.83213" lon="4.72621">
        <ele>285.10435</ele>
        <time>2022-10-02T13:37:15.000Z</time>
      </trkpt>
      <trkpt lat="45.83215" lon="4.72605">
        <ele>285.08893</ele>
        <time>2022-10-02T13:37:17.000Z</time>
      </trkpt>
      <trkpt lat="45.83218" lon="4.72592">
        <ele>284.85643</ele>
        <time>2022-10-02T13:37:18.000Z</time>
      </trkpt>
      <trkpt lat="45.83215" lon="4.72583">
        <ele>284.76309</ele>
        <time>2022-10-02T13:37:19.000Z</time>
      </trkpt>
      <trkpt lat="45.83214" lon="4.72576">
        <ele>284.64228</ele>
        <time>2022-10-02T13:37:20.000Z</time>
      </trkpt>
      <trkpt lat="45.83216" lon="4.72571">
        <ele>284.34851</ele>
        <time>2022-10-02T13:37:21.000Z</time>
      </trkpt>
      <trkpt lat="45.83218" lon="4.72559">
        <ele>283.7427</ele>
        <time>2022-10-02T13:37:22.000Z</time>
      </trkpt>
      <trkpt lat="45.83221" lon="4.72547">
        <ele>282.82821</ele>
        <time>2022-10-02T13:37:23.000Z</time>
      </trkpt>
      <trkpt lat="45.83222" lon="4.72537">
        <ele>282.13618</ele>
        <time>2022-10-02T13:37:24.000Z</time>
      </trkpt>
      <trkpt lat="45.83226" lon="4.72524">
        <ele>281.48627</ele>
        <time>2022-10-02T13:37:25.000Z</time>
      </trkpt>
      <trkpt lat="45.83226" lon="4.72513">
        <ele>281.29514</ele>
        <time>2022-10-02T13:37:26.000Z</time>
      </trkpt>
      <trkpt lat="45.83229" lon="4.72503">
        <ele>281.05663</ele>
        <time>2022-10-02T13:37:27.000Z</time>
      </trkpt>
      <trkpt lat="45.83229" lon="4.72494">
        <ele>281.00255</ele>
        <time>2022-10-02T13:37:28.000Z</time>
      </trkpt>
      <trkpt lat="45.83229" lon="4.72483">
        <ele>281.04989</ele>
        <time>2022-10-02T13:37:29.000Z</time>
      </trkpt>
      <trkpt lat="45.83229" lon="4.72473">
        <ele>281.09857</ele>
        <time>2022-10-02T13:37:30.000Z</time>
      </trkpt>
      <trkpt lat="45.83229" lon="4.72464">
        <ele>281.1003</ele>
        <time>2022-10-02T13:37:31.000Z</time>
      </trkpt>
      <trkpt lat="45.83227" lon="4.72454">
        <ele>281.08877</ele>
        <time>2022-10-02T13:37:32.000Z</time>
      </trkpt>
      <trkpt lat="45.83227" lon="4.72445">
        <ele>281.12787</ele>
        <time>2022-10-02T13:37:33.000Z</time>
      </trkpt>
      <trkpt lat="45.83226" lon="4.72437">
        <ele>281.42237</ele>
        <time>2022-10-02T13:37:34.000Z</time>
      </trkpt>
      <trkpt lat="45.83225" lon="4.72429">
        <ele>282.0482</ele>
        <time>2022-10-02T13:37:35.000Z</time>
      </trkpt>
      <trkpt lat="45.83226" lon="4.72422">
        <ele>282.71856</ele>
        <time>2022-10-02T13:37:36.000Z</time>
      </trkpt>
      <trkpt lat="45.83224" lon="4.72415">
        <ele>283.65486</ele>
        <time>2022-10-02T13:37:37.000Z</time>
      </trkpt>
      <trkpt lat="45.83222" lon="4.72409">
        <ele>284.37884</ele>
        <time>2022-10-02T13:37:38.000Z</time>
      </trkpt>
      <trkpt lat="45.8322" lon="4.72395">
        <ele>285.87338</ele>
        <time>2022-10-02T13:37:40.000Z</time>
      </trkpt>
      <trkpt lat="45.83217" lon="4.72388">
        <ele>286.69766</ele>
        <time>2022-10-02T13:37:41.000Z</time>
      </trkpt>
      <trkpt lat="45.83216" lon="4.7238">
        <ele>287.39644</ele>
        <time>2022-10-02T13:37:42.000Z</time>
      </trkpt>
      <trkpt lat="45.83216" lon="4.72372">
        <ele>287.84149</ele>
        <time>2022-10-02T13:37:43.000Z</time>
      </trkpt>
      <trkpt lat="45.83215" lon="4.72366">
        <ele>288.12049</ele>
        <time>2022-10-02T13:37:44.000Z</time>
      </trkpt>
      <trkpt lat="45.83212" lon="4.72356">
        <ele>288.39806</ele>
        <time>2022-10-02T13:37:45.000Z</time>
      </trkpt>
      <trkpt lat="45.8321" lon="4.72346">
        <ele>288.60189</ele>
        <time>2022-10-02T13:37:46.000Z</time>
      </trkpt>
      <trkpt lat="45.83208" lon="4.72338">
        <ele>288.94745</ele>
        <time>2022-10-02T13:37:47.000Z</time>
      </trkpt>
      <trkpt lat="45.83205" lon="4.72329">
        <ele>289.39227</ele>
        <time>2022-10-02T13:37:48.000Z</time>
      </trkpt>
      <trkpt lat="45.83205" lon="4.72318">
        <ele>289.51667</ele>
        <time>2022-10-02T13:37:49.000Z</time>
      </trkpt>
      <trkpt lat="45.83202" lon="4.72317">
        <ele>289.68853</ele>
        <time>2022-10-02T13:37:50.000Z</time>
      </trkpt>
      <trkpt lat="45.83207" lon="4.72313">
        <ele>289.51376</ele>
        <time>2022-10-02T13:37:51.000Z</time>
      </trkpt>
      <trkpt lat="45.83208" lon="4.72308">
        <ele>289.52426</ele>
        <time>2022-10-02T13:37:53.000Z</time>
      </trkpt>
      <trkpt lat="45.8321" lon="4.72303">
        <ele>289.53502</ele>
        <time>2022-10-02T13:37:55.000Z</time>
      </trkpt>
      <trkpt lat="45.83213" lon="4.72301">
        <ele>289.50568</ele>
        <time>2022-10-02T13:37:56.000Z</time>
      </trkpt>
      <trkpt lat="45.83215" lon="4.72299">
        <ele>289.46406</ele>
        <time>2022-10-02T13:37:57.000Z</time>
      </trkpt>
      <trkpt lat="45.83219" lon="4.72296">
        <ele>289.41575</ele>
        <time>2022-10-02T13:37:59.000Z</time>
      </trkpt>
      <trkpt lat="45.83223" lon="4.72293">
        <ele>289.35771</ele>
        <time>2022-10-02T13:38:00.000Z</time>
      </trkpt>
      <trkpt lat="45.83225" lon="4.72291">
        <ele>289.30553</ele>
        <time>2022-10-02T13:38:01.000Z</time>
      </trkpt>
      <trkpt lat="45.83228" lon="4.72289">
        <ele>289.22209</ele>
        <time>2022-10-02T13:38:02.000Z</time>
      </trkpt>
      <trkpt lat="45.83231" lon="4.72285">
        <ele>289.12717</ele>
        <time>2022-10-02T13:38:03.000Z</time>
      </trkpt>
      <trkpt lat="45.83234" lon="4.72282">
        <ele>288.98621</ele>
        <time>2022-10-02T13:38:04.000Z</time>
      </trkpt>
      <trkpt lat="45.83237" lon="4.72279">
        <ele>288.82227</ele>
        <time>2022-10-02T13:38:05.000Z</time>
      </trkpt>
      <trkpt lat="45.83241" lon="4.72278">
        <ele>288.64035</ele>
        <time>2022-10-02T13:38:06.000Z</time>
      </trkpt>
      <trkpt lat="45.83244" lon="4.72275">
        <ele>288.47574</ele>
        <time>2022-10-02T13:38:07.000Z</time>
      </trkpt>
      <trkpt lat="45.83249" lon="4.72273">
        <ele>288.29648</ele>
        <time>2022-10-02T13:38:08.000Z</time>
      </trkpt>
      <trkpt lat="45.83255" lon="4.72271">
        <ele>288.02588</ele>
        <time>2022-10-02T13:38:09.000Z</time>
      </trkpt>
      <trkpt lat="45.83258" lon="4.72267">
        <ele>287.90935</ele>
        <time>2022-10-02T13:38:10.000Z</time>
      </trkpt>
      <trkpt lat="45.83262" lon="4.72263">
        <ele>287.76925</ele>
        <time>2022-10-02T13:38:11.000Z</time>
      </trkpt>
      <trkpt lat="45.83266" lon="4.72259">
        <ele>287.61944</ele>
        <time>2022-10-02T13:38:12.000Z</time>
      </trkpt>
      <trkpt lat="45.83271" lon="4.72256">
        <ele>287.46592</ele>
        <time>2022-10-02T13:38:13.000Z</time>
      </trkpt>
      <trkpt lat="45.83275" lon="4.72252">
        <ele>287.31411</ele>
        <time>2022-10-02T13:38:14.000Z</time>
      </trkpt>
      <trkpt lat="45.83279" lon="4.72247">
        <ele>287.14143</ele>
        <time>2022-10-02T13:38:15.000Z</time>
      </trkpt>
      <trkpt lat="45.83284" lon="4.72241">
        <ele>286.92569</ele>
        <time>2022-10-02T13:38:16.000Z</time>
      </trkpt>
      <trkpt lat="45.83289" lon="4.72237">
        <ele>286.72242</ele>
        <time>2022-10-02T13:38:17.000Z</time>
      </trkpt>
      <trkpt lat="45.83294" lon="4.72232">
        <ele>286.50389</ele>
        <time>2022-10-02T13:38:18.000Z</time>
      </trkpt>
      <trkpt lat="45.83298" lon="4.72228">
        <ele>286.2825</ele>
        <time>2022-10-02T13:38:19.000Z</time>
      </trkpt>
      <trkpt lat="45.83303" lon="4.72223">
        <ele>286.0132</ele>
        <time>2022-10-02T13:38:20.000Z</time>
      </trkpt>
      <trkpt lat="45.83307" lon="4.72219">
        <ele>285.76826</ele>
        <time>2022-10-02T13:38:21.000Z</time>
      </trkpt>
      <trkpt lat="45.83312" lon="4.72216">
        <ele>285.56598</ele>
        <time>2022-10-02T13:38:22.000Z</time>
      </trkpt>
      <trkpt lat="45.83317" lon="4.72212">
        <ele>285.41509</ele>
        <time>2022-10-02T13:38:23.000Z</time>
      </trkpt>
      <trkpt lat="45.83321" lon="4.7221">
        <ele>285.34573</ele>
        <time>2022-10-02T13:38:24.000Z</time>
      </trkpt>
      <trkpt lat="45.83326" lon="4.72206">
        <ele>285.26051</ele>
        <time>2022-10-02T13:38:25.000Z</time>
      </trkpt>
      <trkpt lat="45.83331" lon="4.72203">
        <ele>285.11082</ele>
        <time>2022-10-02T13:38:26.000Z</time>
      </trkpt>
      <trkpt lat="45.83336" lon="4.722">
        <ele>284.89117</ele>
        <time>2022-10-02T13:38:27.000Z</time>
      </trkpt>
      <trkpt lat="45.83341" lon="4.72197">
        <ele>284.6145</ele>
        <time>2022-10-02T13:38:28.000Z</time>
      </trkpt>
      <trkpt lat="45.83347" lon="4.72193">
        <ele>284.2012</ele>
        <time>2022-10-02T13:38:29.000Z</time>
      </trkpt>
      <trkpt lat="45.83352" lon="4.72187">
        <ele>283.77295</ele>
        <time>2022-10-02T13:38:30.000Z</time>
      </trkpt>
      <trkpt lat="45.83357" lon="4.72184">
        <ele>283.46153</ele>
        <time>2022-10-02T13:38:31.000Z</time>
      </trkpt>
      <trkpt lat="45.83363" lon="4.72183">
        <ele>283.21458</ele>
        <time>2022-10-02T13:38:32.000Z</time>
      </trkpt>
      <trkpt lat="45.83367" lon="4.72179">
        <ele>282.92594</ele>
        <time>2022-10-02T13:38:33.000Z</time>
      </trkpt>
      <trkpt lat="45.83373" lon="4.72175">
        <ele>282.67693</ele>
        <time>2022-10-02T13:38:34.000Z</time>
      </trkpt>
      <trkpt lat="45.83377" lon="4.72171">
        <ele>282.45671</ele>
        <time>2022-10-02T13:38:35.000Z</time>
      </trkpt>
      <trkpt lat="45.83382" lon="4.72166">
        <ele>282.25147</ele>
        <time>2022-10-02T13:38:36.000Z</time>
      </trkpt>
      <trkpt lat="45.83386" lon="4.72162">
        <ele>282.05551</ele>
        <time>2022-10-02T13:38:37.000Z</time>
      </trkpt>
      <trkpt lat="45.83391" lon="4.72158">
        <ele>281.83209</ele>
        <time>2022-10-02T13:38:38.000Z</time>
      </trkpt>
      <trkpt lat="45.83395" lon="4.72152">
        <ele>281.55086</ele>
        <time>2022-10-02T13:38:39.000Z</time>
      </trkpt>
      <trkpt lat="45.83399" lon="4.72145">
        <ele>281.29952</ele>
        <time>2022-10-02T13:38:40.000Z</time>
      </trkpt>
      <trkpt lat="45.83404" lon="4.72138">
        <ele>281.0834</ele>
        <time>2022-10-02T13:38:41.000Z</time>
      </trkpt>
      <trkpt lat="45.83407" lon="4.72131">
        <ele>280.86364</ele>
        <time>2022-10-02T13:38:42.000Z</time>
      </trkpt>
      <trkpt lat="45.83412" lon="4.72124">
        <ele>280.48417</ele>
        <time>2022-10-02T13:38:43.000Z</time>
      </trkpt>
      <trkpt lat="45.83414" lon="4.72115">
        <ele>280.09251</ele>
        <time>2022-10-02T13:38:44.000Z</time>
      </trkpt>
      <trkpt lat="45.83417" lon="4.72106">
        <ele>279.70287</ele>
        <time>2022-10-02T13:38:45.000Z</time>
      </trkpt>
      <trkpt lat="45.83419" lon="4.72096">
        <ele>279.38856</ele>
        <time>2022-10-02T13:38:46.000Z</time>
      </trkpt>
      <trkpt lat="45.83422" lon="4.72087">
        <ele>279.09111</ele>
        <time>2022-10-02T13:38:47.000Z</time>
      </trkpt>
      <trkpt lat="45.83423" lon="4.72078">
        <ele>278.93949</ele>
        <time>2022-10-02T13:38:48.000Z</time>
      </trkpt>
      <trkpt lat="45.83425" lon="4.72069">
        <ele>278.81807</ele>
        <time>2022-10-02T13:38:49.000Z</time>
      </trkpt>
      <trkpt lat="45.83428" lon="4.72063">
        <ele>278.69715</ele>
        <time>2022-10-02T13:38:50.000Z</time>
      </trkpt>
      <trkpt lat="45.83433" lon="4.72061">
        <ele>278.53722</ele>
        <time>2022-10-02T13:38:51.000Z</time>
      </trkpt>
      <trkpt lat="45.83438" lon="4.72058">
        <ele>278.34205</ele>
        <time>2022-10-02T13:38:52.000Z</time>
      </trkpt>
      <trkpt lat="45.83444" lon="4.72059">
        <ele>278.14271</ele>
        <time>2022-10-02T13:38:53.000Z</time>
      </trkpt>
      <trkpt lat="45.83449" lon="4.72059">
        <ele>277.99572</ele>
        <time>2022-10-02T13:38:54.000Z</time>
      </trkpt>
      <trkpt lat="45.83456" lon="4.7206">
        <ele>277.9334</ele>
        <time>2022-10-02T13:38:55.000Z</time>
      </trkpt>
      <trkpt lat="45.83461" lon="4.72061">
        <ele>277.91666</ele>
        <time>2022-10-02T13:38:56.000Z</time>
      </trkpt>
      <trkpt lat="45.83466" lon="4.7206">
        <ele>277.90928</ele>
        <time>2022-10-02T13:38:57.000Z</time>
      </trkpt>
      <trkpt lat="45.83471" lon="4.72061">
        <ele>277.89957</ele>
        <time>2022-10-02T13:38:58.000Z</time>
      </trkpt>
      <trkpt lat="45.83477" lon="4.72063">
        <ele>277.88576</ele>
        <time>2022-10-02T13:38:59.000Z</time>
      </trkpt>
      <trkpt lat="45.83482" lon="4.72064">
        <ele>277.85697</ele>
        <time>2022-10-02T13:39:00.000Z</time>
      </trkpt>
      <trkpt lat="45.83489" lon="4.72063">
        <ele>277.80396</ele>
        <time>2022-10-02T13:39:01.000Z</time>
      </trkpt>
      <trkpt lat="45.83495" lon="4.72063">
        <ele>277.72442</ele>
        <time>2022-10-02T13:39:02.000Z</time>
      </trkpt>
      <trkpt lat="45.83501" lon="4.72062">
        <ele>277.6122</ele>
        <time>2022-10-02T13:39:03.000Z</time>
      </trkpt>
      <trkpt lat="45.83508" lon="4.72062">
        <ele>277.47384</ele>
        <time>2022-10-02T13:39:04.000Z</time>
      </trkpt>
      <trkpt lat="45.83514" lon="4.72061">
        <ele>277.34958</ele>
        <time>2022-10-02T13:39:05.000Z</time>
      </trkpt>
      <trkpt lat="45.8352" lon="4.72059">
        <ele>277.22954</ele>
        <time>2022-10-02T13:39:06.000Z</time>
      </trkpt>
      <trkpt lat="45.83526" lon="4.72058">
        <ele>277.15063</ele>
        <time>2022-10-02T13:39:07.000Z</time>
      </trkpt>
      <trkpt lat="45.83532" lon="4.72057">
        <ele>277.06384</ele>
        <time>2022-10-02T13:39:08.000Z</time>
      </trkpt>
      <trkpt lat="45.83539" lon="4.72057">
        <ele>276.95972</ele>
        <time>2022-10-02T13:39:09.000Z</time>
      </trkpt>
      <trkpt lat="45.83544" lon="4.72056">
        <ele>276.86798</ele>
        <time>2022-10-02T13:39:10.000Z</time>
      </trkpt>
      <trkpt lat="45.83549" lon="4.72054">
        <ele>276.78648</ele>
        <time>2022-10-02T13:39:11.000Z</time>
      </trkpt>
      <trkpt lat="45.83555" lon="4.72053">
        <ele>276.68421</ele>
        <time>2022-10-02T13:39:12.000Z</time>
      </trkpt>
      <trkpt lat="45.83561" lon="4.72053">
        <ele>276.56092</ele>
        <time>2022-10-02T13:39:13.000Z</time>
      </trkpt>
      <trkpt lat="45.83567" lon="4.72053">
        <ele>276.45553</ele>
        <time>2022-10-02T13:39:14.000Z</time>
      </trkpt>
      <trkpt lat="45.83573" lon="4.72053">
        <ele>276.36581</ele>
        <time>2022-10-02T13:39:15.000Z</time>
      </trkpt>
      <trkpt lat="45.83578" lon="4.72052">
        <ele>276.30403</ele>
        <time>2022-10-02T13:39:16.000Z</time>
      </trkpt>
      <trkpt lat="45.83584" lon="4.72052">
        <ele>276.24181</ele>
        <time>2022-10-02T13:39:17.000Z</time>
      </trkpt>
      <trkpt lat="45.8359" lon="4.72053">
        <ele>276.14497</ele>
        <time>2022-10-02T13:39:18.000Z</time>
      </trkpt>
      <trkpt lat="45.83596" lon="4.72051">
        <ele>276.16552</ele>
        <time>2022-10-02T13:39:19.000Z</time>
      </trkpt>
      <trkpt lat="45.83603" lon="4.72049">
        <ele>276.17091</ele>
        <time>2022-10-02T13:39:20.000Z</time>
      </trkpt>
      <trkpt lat="45.83609" lon="4.72047">
        <ele>276.16998</ele>
        <time>2022-10-02T13:39:21.000Z</time>
      </trkpt>
      <trkpt lat="45.83615" lon="4.72047">
        <ele>276.08706</ele>
        <time>2022-10-02T13:39:22.000Z</time>
      </trkpt>
      <trkpt lat="45.83621" lon="4.72046">
        <ele>276.00439</ele>
        <time>2022-10-02T13:39:23.000Z</time>
      </trkpt>
      <trkpt lat="45.83628" lon="4.72046">
        <ele>275.88911</ele>
        <time>2022-10-02T13:39:24.000Z</time>
      </trkpt>
      <trkpt lat="45.83634" lon="4.72044">
        <ele>275.75661</ele>
        <time>2022-10-02T13:39:25.000Z</time>
      </trkpt>
      <trkpt lat="45.83641" lon="4.72043">
        <ele>275.54186</ele>
        <time>2022-10-02T13:39:26.000Z</time>
      </trkpt>
      <trkpt lat="45.83647" lon="4.72042">
        <ele>275.27396</ele>
        <time>2022-10-02T13:39:27.000Z</time>
      </trkpt>
      <trkpt lat="45.83654" lon="4.72041">
        <ele>275.0356</ele>
        <time>2022-10-02T13:39:28.000Z</time>
      </trkpt>
      <trkpt lat="45.8366" lon="4.72041">
        <ele>274.85357</ele>
        <time>2022-10-02T13:39:29.000Z</time>
      </trkpt>
      <trkpt lat="45.83667" lon="4.72038">
        <ele>274.68613</ele>
        <time>2022-10-02T13:39:30.000Z</time>
      </trkpt>
      <trkpt lat="45.83673" lon="4.72038">
        <ele>274.55004</ele>
        <time>2022-10-02T13:39:31.000Z</time>
      </trkpt>
      <trkpt lat="45.8368" lon="4.72037">
        <ele>274.45157</ele>
        <time>2022-10-02T13:39:32.000Z</time>
      </trkpt>
      <trkpt lat="45.83687" lon="4.72036">
        <ele>274.35282</ele>
        <time>2022-10-02T13:39:33.000Z</time>
      </trkpt>
      <trkpt lat="45.83692" lon="4.72036">
        <ele>274.29274</ele>
        <time>2022-10-02T13:39:34.000Z</time>
      </trkpt>
      <trkpt lat="45.83698" lon="4.72036">
        <ele>274.17849</ele>
        <time>2022-10-02T13:39:35.000Z</time>
      </trkpt>
      <trkpt lat="45.83705" lon="4.72035">
        <ele>274.05147</ele>
        <time>2022-10-02T13:39:36.000Z</time>
      </trkpt>
      <trkpt lat="45.83711" lon="4.72036">
        <ele>273.864</ele>
        <time>2022-10-02T13:39:37.000Z</time>
      </trkpt>
      <trkpt lat="45.83717" lon="4.72037">
        <ele>273.7095</ele>
        <time>2022-10-02T13:39:38.000Z</time>
      </trkpt>
      <trkpt lat="45.83724" lon="4.72038">
        <ele>273.61199</ele>
        <time>2022-10-02T13:39:39.000Z</time>
      </trkpt>
      <trkpt lat="45.83732" lon="4.7204">
        <ele>273.59377</ele>
        <time>2022-10-02T13:39:40.000Z</time>
      </trkpt>
      <trkpt lat="45.83736" lon="4.72042">
        <ele>273.5878</ele>
        <time>2022-10-02T13:39:41.000Z</time>
      </trkpt>
      <trkpt lat="45.83742" lon="4.72047">
        <ele>273.58272</ele>
        <time>2022-10-02T13:39:42.000Z</time>
      </trkpt>
      <trkpt lat="45.83748" lon="4.72049">
        <ele>273.55919</ele>
        <time>2022-10-02T13:39:43.000Z</time>
      </trkpt>
      <trkpt lat="45.83753" lon="4.72052">
        <ele>273.46682</ele>
        <time>2022-10-02T13:39:44.000Z</time>
      </trkpt>
      <trkpt lat="45.83759" lon="4.72054">
        <ele>273.26</ele>
        <time>2022-10-02T13:39:45.000Z</time>
      </trkpt>
      <trkpt lat="45.83765" lon="4.72059">
        <ele>272.88628</ele>
        <time>2022-10-02T13:39:46.000Z</time>
      </trkpt>
      <trkpt lat="45.83771" lon="4.72062">
        <ele>272.63524</ele>
        <time>2022-10-02T13:39:47.000Z</time>
      </trkpt>
      <trkpt lat="45.83778" lon="4.72066">
        <ele>272.43054</ele>
        <time>2022-10-02T13:39:48.000Z</time>
      </trkpt>
      <trkpt lat="45.83782" lon="4.7207">
        <ele>272.31656</ele>
        <time>2022-10-02T13:39:49.000Z</time>
      </trkpt>
      <trkpt lat="45.83788" lon="4.72073">
        <ele>272.24426</ele>
        <time>2022-10-02T13:39:50.000Z</time>
      </trkpt>
      <trkpt lat="45.83794" lon="4.72077">
        <ele>272.14068</ele>
        <time>2022-10-02T13:39:51.000Z</time>
      </trkpt>
      <trkpt lat="45.838" lon="4.72081">
        <ele>271.99404</ele>
        <time>2022-10-02T13:39:52.000Z</time>
      </trkpt>
      <trkpt lat="45.83805" lon="4.72084">
        <ele>271.83199</ele>
        <time>2022-10-02T13:39:53.000Z</time>
      </trkpt>
      <trkpt lat="45.8381" lon="4.72089">
        <ele>271.61584</ele>
        <time>2022-10-02T13:39:54.000Z</time>
      </trkpt>
      <trkpt lat="45.83817" lon="4.72092">
        <ele>271.45531</ele>
        <time>2022-10-02T13:39:55.000Z</time>
      </trkpt>
      <trkpt lat="45.83822" lon="4.72096">
        <ele>271.3664</ele>
        <time>2022-10-02T13:39:56.000Z</time>
      </trkpt>
      <trkpt lat="45.83827" lon="4.721">
        <ele>271.30404</ele>
        <time>2022-10-02T13:39:57.000Z</time>
      </trkpt>
      <trkpt lat="45.83833" lon="4.72103">
        <ele>271.23377</ele>
        <time>2022-10-02T13:39:58.000Z</time>
      </trkpt>
      <trkpt lat="45.83838" lon="4.72107">
        <ele>271.14162</ele>
        <time>2022-10-02T13:39:59.000Z</time>
      </trkpt>
      <trkpt lat="45.83845" lon="4.72111">
        <ele>271.02698</ele>
        <time>2022-10-02T13:40:00.000Z</time>
      </trkpt>
      <trkpt lat="45.83851" lon="4.72115">
        <ele>270.88749</ele>
        <time>2022-10-02T13:40:01.000Z</time>
      </trkpt>
      <trkpt lat="45.83858" lon="4.72119">
        <ele>270.76656</ele>
        <time>2022-10-02T13:40:02.000Z</time>
      </trkpt>
      <trkpt lat="45.83863" lon="4.72122">
        <ele>270.66587</ele>
        <time>2022-10-02T13:40:03.000Z</time>
      </trkpt>
      <trkpt lat="45.8387" lon="4.72128">
        <ele>270.51489</ele>
        <time>2022-10-02T13:40:04.000Z</time>
      </trkpt>
      <trkpt lat="45.83876" lon="4.7213">
        <ele>270.46192</ele>
        <time>2022-10-02T13:40:05.000Z</time>
      </trkpt>
      <trkpt lat="45.83881" lon="4.72133">
        <ele>270.39645</ele>
        <time>2022-10-02T13:40:06.000Z</time>
      </trkpt>
      <trkpt lat="45.83884" lon="4.72136">
        <ele>270.33463</ele>
        <time>2022-10-02T13:40:07.000Z</time>
      </trkpt>
      <trkpt lat="45.83889" lon="4.72138">
        <ele>270.29533</ele>
        <time>2022-10-02T13:40:08.000Z</time>
      </trkpt>
      <trkpt lat="45.83894" lon="4.72142">
        <ele>270.23536</ele>
        <time>2022-10-02T13:40:09.000Z</time>
      </trkpt>
      <trkpt lat="45.839" lon="4.72146">
        <ele>270.16325</ele>
        <time>2022-10-02T13:40:10.000Z</time>
      </trkpt>
      <trkpt lat="45.83905" lon="4.7215">
        <ele>270.05326</ele>
        <time>2022-10-02T13:40:11.000Z</time>
      </trkpt>
      <trkpt lat="45.8391" lon="4.72152">
        <ele>269.91258</ele>
        <time>2022-10-02T13:40:12.000Z</time>
      </trkpt>
      <trkpt lat="45.83915" lon="4.72155">
        <ele>269.77107</ele>
        <time>2022-10-02T13:40:13.000Z</time>
      </trkpt>
      <trkpt lat="45.83919" lon="4.72158">
        <ele>269.64807</ele>
        <time>2022-10-02T13:40:14.000Z</time>
      </trkpt>
      <trkpt lat="45.83924" lon="4.7216">
        <ele>269.58041</ele>
        <time>2022-10-02T13:40:15.000Z</time>
      </trkpt>
      <trkpt lat="45.83929" lon="4.7216">
        <ele>269.59382</ele>
        <time>2022-10-02T13:40:16.000Z</time>
      </trkpt>
      <trkpt lat="45.83935" lon="4.7216">
        <ele>269.62801</ele>
        <time>2022-10-02T13:40:17.000Z</time>
      </trkpt>
      <trkpt lat="45.8394" lon="4.72159">
        <ele>269.66521</ele>
        <time>2022-10-02T13:40:18.000Z</time>
      </trkpt>
      <trkpt lat="45.83946" lon="4.7216">
        <ele>269.67694</ele>
        <time>2022-10-02T13:40:19.000Z</time>
      </trkpt>
      <trkpt lat="45.8395" lon="4.7216">
        <ele>269.67614</ele>
        <time>2022-10-02T13:40:20.000Z</time>
      </trkpt>
      <trkpt lat="45.83956" lon="4.72161">
        <ele>269.67258</ele>
        <time>2022-10-02T13:40:21.000Z</time>
      </trkpt>
      <trkpt lat="45.83962" lon="4.72162">
        <ele>269.67624</ele>
        <time>2022-10-02T13:40:22.000Z</time>
      </trkpt>
      <trkpt lat="45.83967" lon="4.72165">
        <ele>269.73454</ele>
        <time>2022-10-02T13:40:23.000Z</time>
      </trkpt>
      <trkpt lat="45.8397" lon="4.72166">
        <ele>269.76635</ele>
        <time>2022-10-02T13:40:24.000Z</time>
      </trkpt>
      <trkpt lat="45.83975" lon="4.72166">
        <ele>269.85143</ele>
        <time>2022-10-02T13:40:25.000Z</time>
      </trkpt>
      <trkpt lat="45.83981" lon="4.72168">
        <ele>269.99386</ele>
        <time>2022-10-02T13:40:26.000Z</time>
      </trkpt>
      <trkpt lat="45.83986" lon="4.72168">
        <ele>270.07471</ele>
        <time>2022-10-02T13:40:27.000Z</time>
      </trkpt>
      <trkpt lat="45.83991" lon="4.72166">
        <ele>270.08159</ele>
        <time>2022-10-02T13:40:28.000Z</time>
      </trkpt>
      <trkpt lat="45.83997" lon="4.72165">
        <ele>270.11685</ele>
        <time>2022-10-02T13:40:29.000Z</time>
      </trkpt>
      <trkpt lat="45.84002" lon="4.72163">
        <ele>270.11507</ele>
        <time>2022-10-02T13:40:30.000Z</time>
      </trkpt>
      <trkpt lat="45.84006" lon="4.72161">
        <ele>270.15419</ele>
        <time>2022-10-02T13:40:31.000Z</time>
      </trkpt>
      <trkpt lat="45.8401" lon="4.72158">
        <ele>270.18265</ele>
        <time>2022-10-02T13:40:32.000Z</time>
      </trkpt>
      <trkpt lat="45.84013" lon="4.72151">
        <ele>270.14515</ele>
        <time>2022-10-02T13:40:33.000Z</time>
      </trkpt>
      <trkpt lat="45.84011" lon="4.72144">
        <ele>269.98853</ele>
        <time>2022-10-02T13:40:34.000Z</time>
      </trkpt>
      <trkpt lat="45.84011" lon="4.72144">
        <ele>269.98853</ele>
        <time>2022-10-02T13:40:34.000Z</time>
      </trkpt>
      <trkpt lat="45.84011" lon="4.72136">
        <ele>269.73748</ele>
        <time>2022-10-02T13:40:35.000Z</time>
      </trkpt>
      <trkpt lat="45.84011" lon="4.72128">
        <ele>269.39967</ele>
        <time>2022-10-02T13:40:36.000Z</time>
      </trkpt>
      <trkpt lat="45.84012" lon="4.7212">
        <ele>268.97697</ele>
        <time>2022-10-02T13:40:37.000Z</time>
      </trkpt>
      <trkpt lat="45.84011" lon="4.72111">
        <ele>268.58509</ele>
        <time>2022-10-02T13:40:38.000Z</time>
      </trkpt>
      <trkpt lat="45.84011" lon="4.72104">
        <ele>268.39175</ele>
        <time>2022-10-02T13:40:39.000Z</time>
      </trkpt>
      <trkpt lat="45.8401" lon="4.72095">
        <ele>268.27356</ele>
        <time>2022-10-02T13:40:40.000Z</time>
      </trkpt>
      <trkpt lat="45.84009" lon="4.72086">
        <ele>268.22919</ele>
        <time>2022-10-02T13:40:41.000Z</time>
      </trkpt>
      <trkpt lat="45.84008" lon="4.72077">
        <ele>268.23773</ele>
        <time>2022-10-02T13:40:42.000Z</time>
      </trkpt>
      <trkpt lat="45.84008" lon="4.72069">
        <ele>268.27549</ele>
        <time>2022-10-02T13:40:43.000Z</time>
      </trkpt>
      <trkpt lat="45.84008" lon="4.72059">
        <ele>268.37123</ele>
        <time>2022-10-02T13:40:44.000Z</time>
      </trkpt>
      <trkpt lat="45.84007" lon="4.72051">
        <ele>268.52353</ele>
        <time>2022-10-02T13:40:45.000Z</time>
      </trkpt>
      <trkpt lat="45.84006" lon="4.72042">
        <ele>268.72411</ele>
        <time>2022-10-02T13:40:46.000Z</time>
      </trkpt>
      <trkpt lat="45.84007" lon="4.72033">
        <ele>268.87064</ele>
        <time>2022-10-02T13:40:47.000Z</time>
      </trkpt>
      <trkpt lat="45.84006" lon="4.72026">
        <ele>269.08162</ele>
        <time>2022-10-02T13:40:48.000Z</time>
      </trkpt>
      <trkpt lat="45.84005" lon="4.72017">
        <ele>269.33385</ele>
        <time>2022-10-02T13:40:49.000Z</time>
      </trkpt>
      <trkpt lat="45.84005" lon="4.7201">
        <ele>269.56773</ele>
        <time>2022-10-02T13:40:50.000Z</time>
      </trkpt>
      <trkpt lat="45.84005" lon="4.72">
        <ele>269.94896</ele>
        <time>2022-10-02T13:40:51.000Z</time>
      </trkpt>
      <trkpt lat="45.84004" lon="4.71993">
        <ele>270.298</ele>
        <time>2022-10-02T13:40:52.000Z</time>
      </trkpt>
      <trkpt lat="45.84003" lon="4.71986">
        <ele>270.75365</ele>
        <time>2022-10-02T13:40:53.000Z</time>
      </trkpt>
      <trkpt lat="45.84002" lon="4.71979">
        <ele>271.21317</ele>
        <time>2022-10-02T13:40:54.000Z</time>
      </trkpt>
      <trkpt lat="45.84002" lon="4.71971">
        <ele>271.68311</ele>
        <time>2022-10-02T13:40:55.000Z</time>
      </trkpt>
      <trkpt lat="45.84002" lon="4.71963">
        <ele>272.07313</ele>
        <time>2022-10-02T13:40:56.000Z</time>
      </trkpt>
      <trkpt lat="45.84003" lon="4.71957">
        <ele>272.36429</ele>
        <time>2022-10-02T13:40:57.000Z</time>
      </trkpt>
      <trkpt lat="45.84001" lon="4.7195">
        <ele>272.9372</ele>
        <time>2022-10-02T13:40:58.000Z</time>
      </trkpt>
      <trkpt lat="45.84" lon="4.71943">
        <ele>273.39464</ele>
        <time>2022-10-02T13:40:59.000Z</time>
      </trkpt>
      <trkpt lat="45.83999" lon="4.71938">
        <ele>273.8204</ele>
        <time>2022-10-02T13:41:00.000Z</time>
      </trkpt>
      <trkpt lat="45.83999" lon="4.71932">
        <ele>274.23619</ele>
        <time>2022-10-02T13:41:01.000Z</time>
      </trkpt>
      <trkpt lat="45.83999" lon="4.71925">
        <ele>274.59888</ele>
        <time>2022-10-02T13:41:02.000Z</time>
      </trkpt>
      <trkpt lat="45.83999" lon="4.7192">
        <ele>274.92262</ele>
        <time>2022-10-02T13:41:03.000Z</time>
      </trkpt>
      <trkpt lat="45.83998" lon="4.71915">
        <ele>275.09065</ele>
        <time>2022-10-02T13:41:04.000Z</time>
      </trkpt>
      <trkpt lat="45.83998" lon="4.7191">
        <ele>275.24673</ele>
        <time>2022-10-02T13:41:05.000Z</time>
      </trkpt>
      <trkpt lat="45.83998" lon="4.71902">
        <ele>275.33155</ele>
        <time>2022-10-02T13:41:06.000Z</time>
      </trkpt>
      <trkpt lat="45.83999" lon="4.71896">
        <ele>275.26868</ele>
        <time>2022-10-02T13:41:07.000Z</time>
      </trkpt>
      <trkpt lat="45.83999" lon="4.7189">
        <ele>275.21532</ele>
        <time>2022-10-02T13:41:08.000Z</time>
      </trkpt>
      <trkpt lat="45.83997" lon="4.71886">
        <ele>275.24096</ele>
        <time>2022-10-02T13:41:09.000Z</time>
      </trkpt>
      <trkpt lat="45.83996" lon="4.7188">
        <ele>275.02415</ele>
        <time>2022-10-02T13:41:10.000Z</time>
      </trkpt>
      <trkpt lat="45.83994" lon="4.71875">
        <ele>274.90406</ele>
        <time>2022-10-02T13:41:11.000Z</time>
      </trkpt>
      <trkpt lat="45.83991" lon="4.71871">
        <ele>274.86675</ele>
        <time>2022-10-02T13:41:12.000Z</time>
      </trkpt>
      <trkpt lat="45.83988" lon="4.71866">
        <ele>274.85933</ele>
        <time>2022-10-02T13:41:13.000Z</time>
      </trkpt>
      <trkpt lat="45.83984" lon="4.71862">
        <ele>274.86343</ele>
        <time>2022-10-02T13:41:14.000Z</time>
      </trkpt>
      <trkpt lat="45.83981" lon="4.71857">
        <ele>274.88163</ele>
        <time>2022-10-02T13:41:15.000Z</time>
      </trkpt>
      <trkpt lat="45.83977" lon="4.71852">
        <ele>274.87959</ele>
        <time>2022-10-02T13:41:16.000Z</time>
      </trkpt>
      <trkpt lat="45.83973" lon="4.71845">
        <ele>274.73256</ele>
        <time>2022-10-02T13:41:17.000Z</time>
      </trkpt>
      <trkpt lat="45.83969" lon="4.7184">
        <ele>274.77881</ele>
        <time>2022-10-02T13:41:18.000Z</time>
      </trkpt>
      <trkpt lat="45.83966" lon="4.71836">
        <ele>274.61131</ele>
        <time>2022-10-02T13:41:19.000Z</time>
      </trkpt>
      <trkpt lat="45.83964" lon="4.7183">
        <ele>274.28635</ele>
        <time>2022-10-02T13:41:20.000Z</time>
      </trkpt>
      <trkpt lat="45.83962" lon="4.71827">
        <ele>274.2501</ele>
        <time>2022-10-02T13:41:21.000Z</time>
      </trkpt>
      <trkpt lat="45.83959" lon="4.71822">
        <ele>274.20081</ele>
        <time>2022-10-02T13:41:22.000Z</time>
      </trkpt>
      <trkpt lat="45.83956" lon="4.71817">
        <ele>274.27668</ele>
        <time>2022-10-02T13:41:23.000Z</time>
      </trkpt>
      <trkpt lat="45.83953" lon="4.71811">
        <ele>274.36839</ele>
        <time>2022-10-02T13:41:24.000Z</time>
      </trkpt>
      <trkpt lat="45.83949" lon="4.71806">
        <ele>274.70681</ele>
        <time>2022-10-02T13:41:25.000Z</time>
      </trkpt>
      <trkpt lat="45.83947" lon="4.718">
        <ele>274.73352</ele>
        <time>2022-10-02T13:41:26.000Z</time>
      </trkpt>
      <trkpt lat="45.83945" lon="4.71795">
        <ele>274.79069</ele>
        <time>2022-10-02T13:41:27.000Z</time>
      </trkpt>
      <trkpt lat="45.83942" lon="4.71788">
        <ele>274.66599</ele>
        <time>2022-10-02T13:41:28.000Z</time>
      </trkpt>
      <trkpt lat="45.83939" lon="4.71784">
        <ele>274.72297</ele>
        <time>2022-10-02T13:41:29.000Z</time>
      </trkpt>
      <trkpt lat="45.8394" lon="4.71778">
        <ele>274.03064</ele>
        <time>2022-10-02T13:41:30.000Z</time>
      </trkpt>
      <trkpt lat="45.8394" lon="4.71775">
        <ele>273.65487</ele>
        <time>2022-10-02T13:41:31.000Z</time>
      </trkpt>
      <trkpt lat="45.83938" lon="4.71769">
        <ele>273.22508</ele>
        <time>2022-10-02T13:41:32.000Z</time>
      </trkpt>
      <trkpt lat="45.83934" lon="4.71764">
        <ele>273.28116</ele>
        <time>2022-10-02T13:41:33.000Z</time>
      </trkpt>
      <trkpt lat="45.83931" lon="4.71759">
        <ele>273.29732</ele>
        <time>2022-10-02T13:41:34.000Z</time>
      </trkpt>
      <trkpt lat="45.83928" lon="4.71757">
        <ele>273.56363</ele>
        <time>2022-10-02T13:41:35.000Z</time>
      </trkpt>
      <trkpt lat="45.83926" lon="4.71752">
        <ele>273.02102</ele>
        <time>2022-10-02T13:41:36.000Z</time>
      </trkpt>
      <trkpt lat="45.8392" lon="4.71749">
        <ele>273.16857</ele>
        <time>2022-10-02T13:41:37.000Z</time>
      </trkpt>
      <trkpt lat="45.83915" lon="4.71749">
        <ele>273.32241</ele>
        <time>2022-10-02T13:41:38.000Z</time>
      </trkpt>
      <trkpt lat="45.83912" lon="4.71747">
        <ele>273.06175</ele>
        <time>2022-10-02T13:41:39.000Z</time>
      </trkpt>
      <trkpt lat="45.83907" lon="4.71745">
        <ele>272.78878</ele>
        <time>2022-10-02T13:41:40.000Z</time>
      </trkpt>
      <trkpt lat="45.83904" lon="4.71743">
        <ele>272.53055</ele>
        <time>2022-10-02T13:41:41.000Z</time>
      </trkpt>
      <trkpt lat="45.83899" lon="4.71739">
        <ele>271.76156</ele>
        <time>2022-10-02T13:41:42.000Z</time>
      </trkpt>
      <trkpt lat="45.83895" lon="4.71738">
        <ele>271.43176</ele>
        <time>2022-10-02T13:41:43.000Z</time>
      </trkpt>
      <trkpt lat="45.83889" lon="4.71737">
        <ele>271.40908</ele>
        <time>2022-10-02T13:41:44.000Z</time>
      </trkpt>
      <trkpt lat="45.83882" lon="4.71737">
        <ele>271.582</ele>
        <time>2022-10-02T13:41:45.000Z</time>
      </trkpt>
      <trkpt lat="45.83875" lon="4.71734">
        <ele>271.05792</ele>
        <time>2022-10-02T13:41:46.000Z</time>
      </trkpt>
      <trkpt lat="45.83867" lon="4.71732">
        <ele>270.71704</ele>
        <time>2022-10-02T13:41:47.000Z</time>
      </trkpt>
      <trkpt lat="45.83858" lon="4.71728">
        <ele>270.01632</ele>
        <time>2022-10-02T13:41:48.000Z</time>
      </trkpt>
      <trkpt lat="45.8385" lon="4.71727">
        <ele>269.95427</ele>
        <time>2022-10-02T13:41:49.000Z</time>
      </trkpt>
      <trkpt lat="45.83843" lon="4.71723">
        <ele>269.35813</ele>
        <time>2022-10-02T13:41:50.000Z</time>
      </trkpt>
      <trkpt lat="45.83838" lon="4.71723">
        <ele>269.35975</ele>
        <time>2022-10-02T13:41:51.000Z</time>
      </trkpt>
      <trkpt lat="45.83833" lon="4.71722">
        <ele>269.35909</ele>
        <time>2022-10-02T13:41:52.000Z</time>
      </trkpt>
      <trkpt lat="45.83828" lon="4.71721">
        <ele>268.86259</ele>
        <time>2022-10-02T13:41:53.000Z</time>
      </trkpt>
      <trkpt lat="45.83822" lon="4.71719">
        <ele>268.51341</ele>
        <time>2022-10-02T13:41:54.000Z</time>
      </trkpt>
      <trkpt lat="45.83817" lon="4.71717">
        <ele>267.79799</ele>
        <time>2022-10-02T13:41:55.000Z</time>
      </trkpt>
      <trkpt lat="45.83811" lon="4.71714">
        <ele>266.95208</ele>
        <time>2022-10-02T13:41:56.000Z</time>
      </trkpt>
      <trkpt lat="45.83803" lon="4.71712">
        <ele>266.31549</ele>
        <time>2022-10-02T13:41:57.000Z</time>
      </trkpt>
      <trkpt lat="45.83797" lon="4.71709">
        <ele>265.48873</ele>
        <time>2022-10-02T13:41:58.000Z</time>
      </trkpt>
      <trkpt lat="45.8379" lon="4.71706">
        <ele>264.40681</ele>
        <time>2022-10-02T13:41:59.000Z</time>
      </trkpt>
      <trkpt lat="45.83784" lon="4.71707">
        <ele>264.21031</ele>
        <time>2022-10-02T13:42:00.000Z</time>
      </trkpt>
      <trkpt lat="45.83776" lon="4.71702">
        <ele>262.70221</ele>
        <time>2022-10-02T13:42:01.000Z</time>
      </trkpt>
      <trkpt lat="45.83767" lon="4.71698">
        <ele>260.93608</ele>
        <time>2022-10-02T13:42:02.000Z</time>
      </trkpt>
      <trkpt lat="45.8376" lon="4.71701">
        <ele>261.24947</ele>
        <time>2022-10-02T13:42:03.000Z</time>
      </trkpt>
      <trkpt lat="45.83755" lon="4.71701">
        <ele>261.03495</ele>
        <time>2022-10-02T13:42:04.000Z</time>
      </trkpt>
      <trkpt lat="45.83752" lon="4.71706">
        <ele>261.90197</ele>
        <time>2022-10-02T13:42:05.000Z</time>
      </trkpt>
      <trkpt lat="45.83748" lon="4.71706">
        <ele>261.56104</ele>
        <time>2022-10-02T13:42:06.000Z</time>
      </trkpt>
      <trkpt lat="45.83744" lon="4.71707">
        <ele>261.47943</ele>
        <time>2022-10-02T13:42:07.000Z</time>
      </trkpt>
      <trkpt lat="45.83739" lon="4.71709">
        <ele>261.62005</ele>
        <time>2022-10-02T13:42:08.000Z</time>
      </trkpt>
      <trkpt lat="45.83733" lon="4.71708">
        <ele>260.97052</ele>
        <time>2022-10-02T13:42:09.000Z</time>
      </trkpt>
      <trkpt lat="45.83726" lon="4.71709">
        <ele>260.49941</ele>
        <time>2022-10-02T13:42:10.000Z</time>
      </trkpt>
      <trkpt lat="45.83723" lon="4.71711">
        <ele>260.65673</ele>
        <time>2022-10-02T13:42:11.000Z</time>
      </trkpt>
      <trkpt lat="45.83721" lon="4.71709">
        <ele>260.03396</ele>
        <time>2022-10-02T13:42:12.000Z</time>
      </trkpt>
      <trkpt lat="45.83717" lon="4.71702">
        <ele>258.69697</ele>
        <time>2022-10-02T13:42:13.000Z</time>
      </trkpt>
      <trkpt lat="45.83715" lon="4.71697">
        <ele>257.7981</ele>
        <time>2022-10-02T13:42:14.000Z</time>
      </trkpt>
      <trkpt lat="45.83713" lon="4.71694">
        <ele>257.37042</ele>
        <time>2022-10-02T13:42:15.000Z</time>
      </trkpt>
      <trkpt lat="45.83712" lon="4.71689">
        <ele>256.90469</ele>
        <time>2022-10-02T13:42:16.000Z</time>
      </trkpt>
      <trkpt lat="45.83711" lon="4.71684">
        <ele>256.63783</ele>
        <time>2022-10-02T13:42:17.000Z</time>
      </trkpt>
      <trkpt lat="45.83708" lon="4.7168">
        <ele>256.63984</ele>
        <time>2022-10-02T13:42:18.000Z</time>
      </trkpt>
      <trkpt lat="45.83706" lon="4.71676">
        <ele>256.84865</ele>
        <time>2022-10-02T13:42:19.000Z</time>
      </trkpt>
      <trkpt lat="45.83704" lon="4.71673">
        <ele>257.09767</ele>
        <time>2022-10-02T13:42:20.000Z</time>
      </trkpt>
      <trkpt lat="45.837" lon="4.71668">
        <ele>258.01871</ele>
        <time>2022-10-02T13:42:21.000Z</time>
      </trkpt>
      <trkpt lat="45.83696" lon="4.71665">
        <ele>259.02249</ele>
        <time>2022-10-02T13:42:22.000Z</time>
      </trkpt>
      <trkpt lat="45.83692" lon="4.71664">
        <ele>259.7784</ele>
        <time>2022-10-02T13:42:23.000Z</time>
      </trkpt>
      <trkpt lat="45.83688" lon="4.71664">
        <ele>260.35383</ele>
        <time>2022-10-02T13:42:24.000Z</time>
      </trkpt>
      <trkpt lat="45.83685" lon="4.71665">
        <ele>260.76633</ele>
        <time>2022-10-02T13:42:25.000Z</time>
      </trkpt>
      <trkpt lat="45.83682" lon="4.71666">
        <ele>260.83185</ele>
        <time>2022-10-02T13:42:26.000Z</time>
      </trkpt>
      <trkpt lat="45.83678" lon="4.71667">
        <ele>260.8996</ele>
        <time>2022-10-02T13:42:27.000Z</time>
      </trkpt>
      <trkpt lat="45.83675" lon="4.71668">
        <ele>260.97462</ele>
        <time>2022-10-02T13:42:28.000Z</time>
      </trkpt>
      <trkpt lat="45.83671" lon="4.71669">
        <ele>261.11539</ele>
        <time>2022-10-02T13:42:29.000Z</time>
      </trkpt>
      <trkpt lat="45.83668" lon="4.7167">
        <ele>261.3681</ele>
        <time>2022-10-02T13:42:30.000Z</time>
      </trkpt>
      <trkpt lat="45.83665" lon="4.7167">
        <ele>261.78065</ele>
        <time>2022-10-02T13:42:31.000Z</time>
      </trkpt>
      <trkpt lat="45.83659" lon="4.71668">
        <ele>262.60418</ele>
        <time>2022-10-02T13:42:33.000Z</time>
      </trkpt>
      <trkpt lat="45.83656" lon="4.71668">
        <ele>262.99444</ele>
        <time>2022-10-02T13:42:34.000Z</time>
      </trkpt>
      <trkpt lat="45.83653" lon="4.71667">
        <ele>263.50265</ele>
        <time>2022-10-02T13:42:35.000Z</time>
      </trkpt>
      <trkpt lat="45.8365" lon="4.71665">
        <ele>264.10732</ele>
        <time>2022-10-02T13:42:36.000Z</time>
      </trkpt>
      <trkpt lat="45.83647" lon="4.71663">
        <ele>264.89071</ele>
        <time>2022-10-02T13:42:37.000Z</time>
      </trkpt>
      <trkpt lat="45.83644" lon="4.71661">
        <ele>265.9127</ele>
        <time>2022-10-02T13:42:38.000Z</time>
      </trkpt>
      <trkpt lat="45.83641" lon="4.71658">
        <ele>266.98929</ele>
        <time>2022-10-02T13:42:39.000Z</time>
      </trkpt>
      <trkpt lat="45.83637" lon="4.71654">
        <ele>268.26976</ele>
        <time>2022-10-02T13:42:40.000Z</time>
      </trkpt>
      <trkpt lat="45.83633" lon="4.71651">
        <ele>269.04837</ele>
        <time>2022-10-02T13:42:41.000Z</time>
      </trkpt>
      <trkpt lat="45.83619" lon="4.71644">
        <ele>268.77598</ele>
        <time>2022-10-02T13:42:42.000Z</time>
      </trkpt>
      <trkpt lat="45.83618" lon="4.71638">
        <ele>270.43389</ele>
        <time>2022-10-02T13:42:43.000Z</time>
      </trkpt>
      <trkpt lat="45.83617" lon="4.71632">
        <ele>271.5783</ele>
        <time>2022-10-02T13:42:44.000Z</time>
      </trkpt>
      <trkpt lat="45.83615" lon="4.7163">
        <ele>271.73107</ele>
        <time>2022-10-02T13:42:45.000Z</time>
      </trkpt>
      <trkpt lat="45.83621" lon="4.71622">
        <ele>274.9885</ele>
        <time>2022-10-02T13:42:46.000Z</time>
      </trkpt>
      <trkpt lat="45.83622" lon="4.7162">
        <ele>275.76198</ele>
        <time>2022-10-02T13:42:47.000Z</time>
      </trkpt>
      <trkpt lat="45.8362" lon="4.71616">
        <ele>276.32499</ele>
        <time>2022-10-02T13:42:48.000Z</time>
      </trkpt>
      <trkpt lat="45.8362" lon="4.71611">
        <ele>277.3978</ele>
        <time>2022-10-02T13:42:49.000Z</time>
      </trkpt>
      <trkpt lat="45.83619" lon="4.71606">
        <ele>278.28661</ele>
        <time>2022-10-02T13:42:50.000Z</time>
      </trkpt>
      <trkpt lat="45.83619" lon="4.71604">
        <ele>278.59006</ele>
        <time>2022-10-02T13:42:51.000Z</time>
      </trkpt>
      <trkpt lat="45.83618" lon="4.716">
        <ele>279.11425</ele>
        <time>2022-10-02T13:42:52.000Z</time>
      </trkpt>
      <trkpt lat="45.83617" lon="4.71595">
        <ele>279.72419</ele>
        <time>2022-10-02T13:42:53.000Z</time>
      </trkpt>
      <trkpt lat="45.83616" lon="4.7159">
        <ele>280.34002</ele>
        <time>2022-10-02T13:42:54.000Z</time>
      </trkpt>
      <trkpt lat="45.83615" lon="4.71585">
        <ele>280.9179</ele>
        <time>2022-10-02T13:42:55.000Z</time>
      </trkpt>
      <trkpt lat="45.83614" lon="4.7158">
        <ele>281.55255</ele>
        <time>2022-10-02T13:42:56.000Z</time>
      </trkpt>
      <trkpt lat="45.83613" lon="4.71574">
        <ele>282.27736</ele>
        <time>2022-10-02T13:42:57.000Z</time>
      </trkpt>
      <trkpt lat="45.83612" lon="4.71569">
        <ele>282.96904</ele>
        <time>2022-10-02T13:42:58.000Z</time>
      </trkpt>
      <trkpt lat="45.83612" lon="4.71564">
        <ele>283.68719</ele>
        <time>2022-10-02T13:42:59.000Z</time>
      </trkpt>
      <trkpt lat="45.83613" lon="4.71559">
        <ele>284.35348</ele>
        <time>2022-10-02T13:43:00.000Z</time>
      </trkpt>
      <trkpt lat="45.83613" lon="4.71554">
        <ele>285.03783</ele>
        <time>2022-10-02T13:43:01.000Z</time>
      </trkpt>
      <trkpt lat="45.83615" lon="4.71548">
        <ele>285.77273</ele>
        <time>2022-10-02T13:43:02.000Z</time>
      </trkpt>
      <trkpt lat="45.83616" lon="4.71543">
        <ele>286.25507</ele>
        <time>2022-10-02T13:43:03.000Z</time>
      </trkpt>
      <trkpt lat="45.83617" lon="4.7154">
        <ele>286.56139</ele>
        <time>2022-10-02T13:43:04.000Z</time>
      </trkpt>
      <trkpt lat="45.83618" lon="4.71537">
        <ele>286.81021</ele>
        <time>2022-10-02T13:43:05.000Z</time>
      </trkpt>
      <trkpt lat="45.83617" lon="4.71534">
        <ele>286.99143</ele>
        <time>2022-10-02T13:43:06.000Z</time>
      </trkpt>
      <trkpt lat="45.83615" lon="4.7153">
        <ele>287.14979</ele>
        <time>2022-10-02T13:43:07.000Z</time>
      </trkpt>
      <trkpt lat="45.83612" lon="4.71527">
        <ele>287.29694</ele>
        <time>2022-10-02T13:43:08.000Z</time>
      </trkpt>
      <trkpt lat="45.8361" lon="4.71524">
        <ele>287.45443</ele>
        <time>2022-10-02T13:43:09.000Z</time>
      </trkpt>
      <trkpt lat="45.83608" lon="4.71521">
        <ele>287.62607</ele>
        <time>2022-10-02T13:43:10.000Z</time>
      </trkpt>
      <trkpt lat="45.83607" lon="4.71518">
        <ele>287.82039</ele>
        <time>2022-10-02T13:43:11.000Z</time>
      </trkpt>
      <trkpt lat="45.83605" lon="4.71514">
        <ele>288.06304</ele>
        <time>2022-10-02T13:43:12.000Z</time>
      </trkpt>
      <trkpt lat="45.83604" lon="4.71511">
        <ele>288.31915</ele>
        <time>2022-10-02T13:43:13.000Z</time>
      </trkpt>
      <trkpt lat="45.83602" lon="4.71508">
        <ele>288.54726</ele>
        <time>2022-10-02T13:43:14.000Z</time>
      </trkpt>
      <trkpt lat="45.83602" lon="4.71506">
        <ele>288.73444</ele>
        <time>2022-10-02T13:43:15.000Z</time>
      </trkpt>
      <trkpt lat="45.836" lon="4.71501">
        <ele>289.06186</ele>
        <time>2022-10-02T13:43:17.000Z</time>
      </trkpt>
      <trkpt lat="45.83599" lon="4.715">
        <ele>289.19502</ele>
        <time>2022-10-02T13:43:18.000Z</time>
      </trkpt>
      <trkpt lat="45.83596" lon="4.71499">
        <ele>289.30233</ele>
        <time>2022-10-02T13:43:19.000Z</time>
      </trkpt>
      <trkpt lat="45.83593" lon="4.71499">
        <ele>289.35645</ele>
        <time>2022-10-02T13:43:20.000Z</time>
      </trkpt>
      <trkpt lat="45.8359" lon="4.71499">
        <ele>289.39512</ele>
        <time>2022-10-02T13:43:21.000Z</time>
      </trkpt>
      <trkpt lat="45.83586" lon="4.71499">
        <ele>289.43517</ele>
        <time>2022-10-02T13:43:22.000Z</time>
      </trkpt>
      <trkpt lat="45.83583" lon="4.71499">
        <ele>289.45416</ele>
        <time>2022-10-02T13:43:23.000Z</time>
      </trkpt>
      <trkpt lat="45.8358" lon="4.71499">
        <ele>289.51469</ele>
        <time>2022-10-02T13:43:24.000Z</time>
      </trkpt>
      <trkpt lat="45.83576" lon="4.715">
        <ele>289.54162</ele>
        <time>2022-10-02T13:43:25.000Z</time>
      </trkpt>
      <trkpt lat="45.83573" lon="4.71501">
        <ele>289.52129</ele>
        <time>2022-10-02T13:43:26.000Z</time>
      </trkpt>
      <trkpt lat="45.83569" lon="4.71503">
        <ele>289.40248</ele>
        <time>2022-10-02T13:43:27.000Z</time>
      </trkpt>
      <trkpt lat="45.83565" lon="4.71506">
        <ele>289.23543</ele>
        <time>2022-10-02T13:43:28.000Z</time>
      </trkpt>
      <trkpt lat="45.83561" lon="4.7151">
        <ele>289.03424</ele>
        <time>2022-10-02T13:43:29.000Z</time>
      </trkpt>
      <trkpt lat="45.83554" lon="4.7152">
        <ele>288.53052</ele>
        <time>2022-10-02T13:43:30.000Z</time>
      </trkpt>
      <trkpt lat="45.83549" lon="4.71525">
        <ele>288.4754</ele>
        <time>2022-10-02T13:43:31.000Z</time>
      </trkpt>
      <trkpt lat="45.83544" lon="4.71529">
        <ele>288.39477</ele>
        <time>2022-10-02T13:43:32.000Z</time>
      </trkpt>
      <trkpt lat="45.8354" lon="4.71532">
        <ele>288.49786</ele>
        <time>2022-10-02T13:43:33.000Z</time>
      </trkpt>
      <trkpt lat="45.83536" lon="4.71534">
        <ele>288.54976</ele>
        <time>2022-10-02T13:43:34.000Z</time>
      </trkpt>
      <trkpt lat="45.83531" lon="4.71536">
        <ele>288.6512</ele>
        <time>2022-10-02T13:43:35.000Z</time>
      </trkpt>
      <trkpt lat="45.83525" lon="4.71541">
        <ele>288.60221</ele>
        <time>2022-10-02T13:43:36.000Z</time>
      </trkpt>
      <trkpt lat="45.83521" lon="4.71545">
        <ele>288.13364</ele>
        <time>2022-10-02T13:43:37.000Z</time>
      </trkpt>
      <trkpt lat="45.83516" lon="4.71549">
        <ele>287.80913</ele>
        <time>2022-10-02T13:43:38.000Z</time>
      </trkpt>
      <trkpt lat="45.83513" lon="4.71553">
        <ele>287.40952</ele>
        <time>2022-10-02T13:43:39.000Z</time>
      </trkpt>
      <trkpt lat="45.83509" lon="4.71557">
        <ele>287.15531</ele>
        <time>2022-10-02T13:43:40.000Z</time>
      </trkpt>
      <trkpt lat="45.83504" lon="4.7156">
        <ele>287.08946</ele>
        <time>2022-10-02T13:43:41.000Z</time>
      </trkpt>
      <trkpt lat="45.835" lon="4.71564">
        <ele>287.11412</ele>
        <time>2022-10-02T13:43:42.000Z</time>
      </trkpt>
      <trkpt lat="45.83496" lon="4.71566">
        <ele>287.42312</ele>
        <time>2022-10-02T13:43:43.000Z</time>
      </trkpt>
      <trkpt lat="45.83491" lon="4.71569">
        <ele>287.71511</ele>
        <time>2022-10-02T13:43:44.000Z</time>
      </trkpt>
      <trkpt lat="45.83486" lon="4.71573">
        <ele>287.88954</ele>
        <time>2022-10-02T13:43:45.000Z</time>
      </trkpt>
      <trkpt lat="45.83483" lon="4.71577">
        <ele>287.79031</ele>
        <time>2022-10-02T13:43:46.000Z</time>
      </trkpt>
      <trkpt lat="45.83478" lon="4.7158">
        <ele>287.81708</ele>
        <time>2022-10-02T13:43:47.000Z</time>
      </trkpt>
      <trkpt lat="45.83474" lon="4.71582">
        <ele>287.7417</ele>
        <time>2022-10-02T13:43:48.000Z</time>
      </trkpt>
      <trkpt lat="45.83471" lon="4.71584">
        <ele>287.54454</ele>
        <time>2022-10-02T13:43:49.000Z</time>
      </trkpt>
      <trkpt lat="45.83467" lon="4.71586">
        <ele>287.35083</ele>
        <time>2022-10-02T13:43:50.000Z</time>
      </trkpt>
      <trkpt lat="45.83463" lon="4.71588">
        <ele>287.13354</ele>
        <time>2022-10-02T13:43:51.000Z</time>
      </trkpt>
      <trkpt lat="45.83459" lon="4.71589">
        <ele>286.88793</ele>
        <time>2022-10-02T13:43:52.000Z</time>
      </trkpt>
      <trkpt lat="45.83454" lon="4.7159">
        <ele>286.61631</ele>
        <time>2022-10-02T13:43:53.000Z</time>
      </trkpt>
      <trkpt lat="45.83448" lon="4.7159">
        <ele>286.12434</ele>
        <time>2022-10-02T13:43:54.000Z</time>
      </trkpt>
      <trkpt lat="45.83444" lon="4.71589">
        <ele>285.79629</ele>
        <time>2022-10-02T13:43:55.000Z</time>
      </trkpt>
      <trkpt lat="45.8344" lon="4.71588">
        <ele>285.43245</ele>
        <time>2022-10-02T13:43:56.000Z</time>
      </trkpt>
      <trkpt lat="45.83435" lon="4.71587">
        <ele>284.9499</ele>
        <time>2022-10-02T13:43:57.000Z</time>
      </trkpt>
      <trkpt lat="45.83431" lon="4.71585">
        <ele>284.41122</ele>
        <time>2022-10-02T13:43:58.000Z</time>
      </trkpt>
      <trkpt lat="45.83425" lon="4.71584">
        <ele>283.02807</ele>
        <time>2022-10-02T13:43:59.000Z</time>
      </trkpt>
      <trkpt lat="45.83421" lon="4.7158">
        <ele>282.62975</ele>
        <time>2022-10-02T13:44:00.000Z</time>
      </trkpt>
      <trkpt lat="45.83417" lon="4.71574">
        <ele>282.77069</ele>
        <time>2022-10-02T13:44:01.000Z</time>
      </trkpt>
      <trkpt lat="45.83413" lon="4.71569">
        <ele>282.73546</ele>
        <time>2022-10-02T13:44:02.000Z</time>
      </trkpt>
      <trkpt lat="45.83409" lon="4.71564">
        <ele>282.8887</ele>
        <time>2022-10-02T13:44:03.000Z</time>
      </trkpt>
      <trkpt lat="45.83404" lon="4.71558">
        <ele>282.93516</ele>
        <time>2022-10-02T13:44:04.000Z</time>
      </trkpt>
      <trkpt lat="45.83399" lon="4.71554">
        <ele>283.02221</ele>
        <time>2022-10-02T13:44:05.000Z</time>
      </trkpt>
      <trkpt lat="45.83394" lon="4.71552">
        <ele>282.92722</ele>
        <time>2022-10-02T13:44:06.000Z</time>
      </trkpt>
      <trkpt lat="45.83389" lon="4.71547">
        <ele>283.82874</ele>
        <time>2022-10-02T13:44:07.000Z</time>
      </trkpt>
      <trkpt lat="45.83385" lon="4.71539">
        <ele>285.02899</ele>
        <time>2022-10-02T13:44:08.000Z</time>
      </trkpt>
      <trkpt lat="45.83379" lon="4.71538">
        <ele>284.9041</ele>
        <time>2022-10-02T13:44:09.000Z</time>
      </trkpt>
      <trkpt lat="45.83371" lon="4.71545">
        <ele>284.11165</ele>
        <time>2022-10-02T13:44:10.000Z</time>
      </trkpt>
      <trkpt lat="45.83366" lon="4.71556">
        <ele>283.85661</ele>
        <time>2022-10-02T13:44:11.000Z</time>
      </trkpt>
      <trkpt lat="45.8336" lon="4.71561">
        <ele>284.09162</ele>
        <time>2022-10-02T13:44:12.000Z</time>
      </trkpt>
      <trkpt lat="45.83354" lon="4.71568">
        <ele>284.2421</ele>
        <time>2022-10-02T13:44:13.000Z</time>
      </trkpt>
      <trkpt lat="45.83351" lon="4.71574">
        <ele>284.12239</ele>
        <time>2022-10-02T13:44:14.000Z</time>
      </trkpt>
      <trkpt lat="45.8335" lon="4.71582">
        <ele>283.80335</ele>
        <time>2022-10-02T13:44:15.000Z</time>
      </trkpt>
      <trkpt lat="45.83347" lon="4.7159">
        <ele>283.52266</ele>
        <time>2022-10-02T13:44:16.000Z</time>
      </trkpt>
      <trkpt lat="45.83344" lon="4.71597">
        <ele>283.45434</ele>
        <time>2022-10-02T13:44:17.000Z</time>
      </trkpt>
      <trkpt lat="45.83339" lon="4.71606">
        <ele>283.52049</ele>
        <time>2022-10-02T13:44:18.000Z</time>
      </trkpt>
      <trkpt lat="45.83335" lon="4.7161">
        <ele>283.79049</ele>
        <time>2022-10-02T13:44:19.000Z</time>
      </trkpt>
      <trkpt lat="45.83329" lon="4.71616">
        <ele>284.16321</ele>
        <time>2022-10-02T13:44:20.000Z</time>
      </trkpt>
      <trkpt lat="45.83325" lon="4.7162">
        <ele>284.30697</ele>
        <time>2022-10-02T13:44:21.000Z</time>
      </trkpt>
      <trkpt lat="45.83319" lon="4.71624">
        <ele>284.42073</ele>
        <time>2022-10-02T13:44:22.000Z</time>
      </trkpt>
      <trkpt lat="45.8331" lon="4.7163">
        <ele>284.57824</ele>
        <time>2022-10-02T13:44:23.000Z</time>
      </trkpt>
      <trkpt lat="45.83304" lon="4.71633">
        <ele>284.75936</ele>
        <time>2022-10-02T13:44:24.000Z</time>
      </trkpt>
      <trkpt lat="45.83296" lon="4.71634">
        <ele>285.08989</ele>
        <time>2022-10-02T13:44:25.000Z</time>
      </trkpt>
      <trkpt lat="45.83289" lon="4.71634">
        <ele>285.30388</ele>
        <time>2022-10-02T13:44:26.000Z</time>
      </trkpt>
      <trkpt lat="45.83283" lon="4.71631">
        <ele>285.6004</ele>
        <time>2022-10-02T13:44:27.000Z</time>
      </trkpt>
      <trkpt lat="45.83276" lon="4.71631">
        <ele>285.6883</ele>
        <time>2022-10-02T13:44:28.000Z</time>
      </trkpt>
      <trkpt lat="45.83268" lon="4.7163">
        <ele>285.81496</ele>
        <time>2022-10-02T13:44:29.000Z</time>
      </trkpt>
      <trkpt lat="45.83264" lon="4.71624">
        <ele>286.16997</ele>
        <time>2022-10-02T13:44:30.000Z</time>
      </trkpt>
      <trkpt lat="45.83257" lon="4.71622">
        <ele>286.28077</ele>
        <time>2022-10-02T13:44:31.000Z</time>
      </trkpt>
      <trkpt lat="45.83251" lon="4.71618">
        <ele>286.56049</ele>
        <time>2022-10-02T13:44:32.000Z</time>
      </trkpt>
      <trkpt lat="45.83245" lon="4.71614">
        <ele>286.78977</ele>
        <time>2022-10-02T13:44:33.000Z</time>
      </trkpt>
      <trkpt lat="45.83241" lon="4.71611">
        <ele>286.96174</ele>
        <time>2022-10-02T13:44:34.000Z</time>
      </trkpt>
      <trkpt lat="45.83234" lon="4.71608">
        <ele>287.03804</ele>
        <time>2022-10-02T13:44:35.000Z</time>
      </trkpt>
      <trkpt lat="45.83227" lon="4.71605">
        <ele>287.14883</ele>
        <time>2022-10-02T13:44:36.000Z</time>
      </trkpt>
      <trkpt lat="45.83223" lon="4.71599">
        <ele>287.40775</ele>
        <time>2022-10-02T13:44:37.000Z</time>
      </trkpt>
      <trkpt lat="45.83217" lon="4.71599">
        <ele>287.28016</ele>
        <time>2022-10-02T13:44:38.000Z</time>
      </trkpt>
      <trkpt lat="45.8321" lon="4.71597">
        <ele>287.14993</ele>
        <time>2022-10-02T13:44:39.000Z</time>
      </trkpt>
      <trkpt lat="45.83203" lon="4.71595">
        <ele>286.96106</ele>
        <time>2022-10-02T13:44:40.000Z</time>
      </trkpt>
      <trkpt lat="45.83197" lon="4.71591">
        <ele>286.7725</ele>
        <time>2022-10-02T13:44:41.000Z</time>
      </trkpt>
      <trkpt lat="45.83191" lon="4.71589">
        <ele>286.56984</ele>
        <time>2022-10-02T13:44:42.000Z</time>
      </trkpt>
      <trkpt lat="45.83186" lon="4.71583">
        <ele>286.47964</ele>
        <time>2022-10-02T13:44:43.000Z</time>
      </trkpt>
      <trkpt lat="45.83183" lon="4.7158">
        <ele>286.35409</ele>
        <time>2022-10-02T13:44:44.000Z</time>
      </trkpt>
      <trkpt lat="45.83176" lon="4.71577">
        <ele>285.89973</ele>
        <time>2022-10-02T13:44:45.000Z</time>
      </trkpt>
      <trkpt lat="45.8317" lon="4.71575">
        <ele>285.22926</ele>
        <time>2022-10-02T13:44:46.000Z</time>
      </trkpt>
      <trkpt lat="45.83165" lon="4.71572">
        <ele>284.81732</ele>
        <time>2022-10-02T13:44:47.000Z</time>
      </trkpt>
      <trkpt lat="45.83158" lon="4.71568">
        <ele>284.2084</ele>
        <time>2022-10-02T13:44:48.000Z</time>
      </trkpt>
      <trkpt lat="45.83153" lon="4.71565">
        <ele>283.69871</ele>
        <time>2022-10-02T13:44:49.000Z</time>
      </trkpt>
      <trkpt lat="45.83147" lon="4.71563">
        <ele>283.08965</ele>
        <time>2022-10-02T13:44:50.000Z</time>
      </trkpt>
      <trkpt lat="45.83141" lon="4.71561">
        <ele>282.39635</ele>
        <time>2022-10-02T13:44:51.000Z</time>
      </trkpt>
      <trkpt lat="45.83135" lon="4.71559">
        <ele>281.80885</ele>
        <time>2022-10-02T13:44:52.000Z</time>
      </trkpt>
      <trkpt lat="45.83127" lon="4.71554">
        <ele>281.16952</ele>
        <time>2022-10-02T13:44:53.000Z</time>
      </trkpt>
      <trkpt lat="45.8312" lon="4.71549">
        <ele>280.58366</ele>
        <time>2022-10-02T13:44:54.000Z</time>
      </trkpt>
      <trkpt lat="45.83115" lon="4.71545">
        <ele>280.0838</ele>
        <time>2022-10-02T13:44:55.000Z</time>
      </trkpt>
      <trkpt lat="45.8311" lon="4.71542">
        <ele>279.54584</ele>
        <time>2022-10-02T13:44:56.000Z</time>
      </trkpt>
      <trkpt lat="45.83105" lon="4.71537">
        <ele>278.9343</ele>
        <time>2022-10-02T13:44:57.000Z</time>
      </trkpt>
      <trkpt lat="45.831" lon="4.71533">
        <ele>278.33812</ele>
        <time>2022-10-02T13:44:58.000Z</time>
      </trkpt>
      <trkpt lat="45.83094" lon="4.7153">
        <ele>277.83365</ele>
        <time>2022-10-02T13:44:59.000Z</time>
      </trkpt>
      <trkpt lat="45.83088" lon="4.71526">
        <ele>277.61641</ele>
        <time>2022-10-02T13:45:00.000Z</time>
      </trkpt>
      <trkpt lat="45.83082" lon="4.71522">
        <ele>277.42918</ele>
        <time>2022-10-02T13:45:01.000Z</time>
      </trkpt>
      <trkpt lat="45.83078" lon="4.71516">
        <ele>277.60049</ele>
        <time>2022-10-02T13:45:02.000Z</time>
      </trkpt>
      <trkpt lat="45.83072" lon="4.71511">
        <ele>277.57756</ele>
        <time>2022-10-02T13:45:03.000Z</time>
      </trkpt>
      <trkpt lat="45.83065" lon="4.71505">
        <ele>277.59402</ele>
        <time>2022-10-02T13:45:04.000Z</time>
      </trkpt>
      <trkpt lat="45.83059" lon="4.71501">
        <ele>277.54918</ele>
        <time>2022-10-02T13:45:05.000Z</time>
      </trkpt>
      <trkpt lat="45.83054" lon="4.71496">
        <ele>277.5328</ele>
        <time>2022-10-02T13:45:06.000Z</time>
      </trkpt>
      <trkpt lat="45.83049" lon="4.7149">
        <ele>277.59606</ele>
        <time>2022-10-02T13:45:07.000Z</time>
      </trkpt>
      <trkpt lat="45.83046" lon="4.71484">
        <ele>277.80318</ele>
        <time>2022-10-02T13:45:08.000Z</time>
      </trkpt>
      <trkpt lat="45.83041" lon="4.7148">
        <ele>277.82837</ele>
        <time>2022-10-02T13:45:09.000Z</time>
      </trkpt>
      <trkpt lat="45.83036" lon="4.71476">
        <ele>277.74653</ele>
        <time>2022-10-02T13:45:10.000Z</time>
      </trkpt>
      <trkpt lat="45.8303" lon="4.71471">
        <ele>277.74194</ele>
        <time>2022-10-02T13:45:11.000Z</time>
      </trkpt>
      <trkpt lat="45.83022" lon="4.71466">
        <ele>277.6778</ele>
        <time>2022-10-02T13:45:12.000Z</time>
      </trkpt>
      <trkpt lat="45.83018" lon="4.71462">
        <ele>277.75696</ele>
        <time>2022-10-02T13:45:13.000Z</time>
      </trkpt>
      <trkpt lat="45.83009" lon="4.71467">
        <ele>276.76451</ele>
        <time>2022-10-02T13:45:14.000Z</time>
      </trkpt>
      <trkpt lat="45.83" lon="4.71466">
        <ele>276.5705</ele>
        <time>2022-10-02T13:45:15.000Z</time>
      </trkpt>
      <trkpt lat="45.82993" lon="4.71464">
        <ele>276.59448</ele>
        <time>2022-10-02T13:45:16.000Z</time>
      </trkpt>
      <trkpt lat="45.82987" lon="4.7146">
        <ele>276.67581</ele>
        <time>2022-10-02T13:45:17.000Z</time>
      </trkpt>
      <trkpt lat="45.8298" lon="4.71458">
        <ele>276.71981</ele>
        <time>2022-10-02T13:45:18.000Z</time>
      </trkpt>
      <trkpt lat="45.82979" lon="4.71449">
        <ele>276.95598</ele>
        <time>2022-10-02T13:45:19.000Z</time>
      </trkpt>
      <trkpt lat="45.82976" lon="4.71442">
        <ele>277.22088</ele>
        <time>2022-10-02T13:45:20.000Z</time>
      </trkpt>
      <trkpt lat="45.82973" lon="4.71436">
        <ele>277.6284</ele>
        <time>2022-10-02T13:45:21.000Z</time>
      </trkpt>
      <trkpt lat="45.82971" lon="4.71429">
        <ele>278.15225</ele>
        <time>2022-10-02T13:45:22.000Z</time>
      </trkpt>
      <trkpt lat="45.8297" lon="4.71422">
        <ele>278.69528</ele>
        <time>2022-10-02T13:45:23.000Z</time>
      </trkpt>
      <trkpt lat="45.82968" lon="4.71417">
        <ele>279.14308</ele>
        <time>2022-10-02T13:45:24.000Z</time>
      </trkpt>
      <trkpt lat="45.82965" lon="4.71409">
        <ele>279.70773</ele>
        <time>2022-10-02T13:45:25.000Z</time>
      </trkpt>
      <trkpt lat="45.82962" lon="4.71403">
        <ele>280.22574</ele>
        <time>2022-10-02T13:45:26.000Z</time>
      </trkpt>
      <trkpt lat="45.82958" lon="4.714">
        <ele>280.50689</ele>
        <time>2022-10-02T13:45:27.000Z</time>
      </trkpt>
      <trkpt lat="45.82956" lon="4.71393">
        <ele>281.31808</ele>
        <time>2022-10-02T13:45:28.000Z</time>
      </trkpt>
      <trkpt lat="45.82952" lon="4.71387">
        <ele>282.06445</ele>
        <time>2022-10-02T13:45:29.000Z</time>
      </trkpt>
      <trkpt lat="45.82946" lon="4.71382">
        <ele>282.63567</ele>
        <time>2022-10-02T13:45:30.000Z</time>
      </trkpt>
      <trkpt lat="45.82943" lon="4.71379">
        <ele>282.92668</ele>
        <time>2022-10-02T13:45:31.000Z</time>
      </trkpt>
      <trkpt lat="45.82938" lon="4.71372">
        <ele>283.39558</ele>
        <time>2022-10-02T13:45:32.000Z</time>
      </trkpt>
      <trkpt lat="45.82934" lon="4.71368">
        <ele>283.59769</ele>
        <time>2022-10-02T13:45:33.000Z</time>
      </trkpt>
      <trkpt lat="45.82929" lon="4.7136">
        <ele>284.02556</ele>
        <time>2022-10-02T13:45:34.000Z</time>
      </trkpt>
      <trkpt lat="45.82927" lon="4.71356">
        <ele>284.20954</ele>
        <time>2022-10-02T13:45:35.000Z</time>
      </trkpt>
      <trkpt lat="45.82926" lon="4.71349">
        <ele>284.64953</ele>
        <time>2022-10-02T13:45:36.000Z</time>
      </trkpt>
      <trkpt lat="45.82926" lon="4.71342">
        <ele>285.12701</ele>
        <time>2022-10-02T13:45:37.000Z</time>
      </trkpt>
      <trkpt lat="45.82927" lon="4.71335">
        <ele>285.78431</ele>
        <time>2022-10-02T13:45:38.000Z</time>
      </trkpt>
      <trkpt lat="45.82927" lon="4.71328">
        <ele>286.30384</ele>
        <time>2022-10-02T13:45:39.000Z</time>
      </trkpt>
      <trkpt lat="45.8293" lon="4.71321">
        <ele>287.12798</ele>
        <time>2022-10-02T13:45:40.000Z</time>
      </trkpt>
      <trkpt lat="45.82932" lon="4.71314">
        <ele>287.95259</ele>
        <time>2022-10-02T13:45:41.000Z</time>
      </trkpt>
      <trkpt lat="45.82935" lon="4.71308">
        <ele>288.70055</ele>
        <time>2022-10-02T13:45:42.000Z</time>
      </trkpt>
      <trkpt lat="45.82938" lon="4.71303">
        <ele>289.32302</ele>
        <time>2022-10-02T13:45:43.000Z</time>
      </trkpt>
      <trkpt lat="45.82941" lon="4.71299">
        <ele>289.83768</ele>
        <time>2022-10-02T13:45:44.000Z</time>
      </trkpt>
      <trkpt lat="45.82943" lon="4.71299">
        <ele>290.12585</ele>
        <time>2022-10-02T13:45:45.000Z</time>
      </trkpt>
      <trkpt lat="45.82947" lon="4.71297">
        <ele>290.55561</ele>
        <time>2022-10-02T13:45:46.000Z</time>
      </trkpt>
      <trkpt lat="45.82951" lon="4.71296">
        <ele>290.8723</ele>
        <time>2022-10-02T13:45:47.000Z</time>
      </trkpt>
      <trkpt lat="45.82953" lon="4.71295">
        <ele>291.13743</ele>
        <time>2022-10-02T13:45:48.000Z</time>
      </trkpt>
      <trkpt lat="45.82956" lon="4.71294">
        <ele>291.41789</ele>
        <time>2022-10-02T13:45:49.000Z</time>
      </trkpt>
      <trkpt lat="45.8296" lon="4.71295">
        <ele>291.69919</ele>
        <time>2022-10-02T13:45:50.000Z</time>
      </trkpt>
      <trkpt lat="45.82964" lon="4.71296">
        <ele>292.04309</ele>
        <time>2022-10-02T13:45:51.000Z</time>
      </trkpt>
      <trkpt lat="45.82967" lon="4.71296">
        <ele>292.33748</ele>
        <time>2022-10-02T13:45:52.000Z</time>
      </trkpt>
      <trkpt lat="45.82969" lon="4.71297">
        <ele>292.65166</ele>
        <time>2022-10-02T13:45:53.000Z</time>
      </trkpt>
      <trkpt lat="45.82972" lon="4.71298">
        <ele>292.9739</ele>
        <time>2022-10-02T13:45:54.000Z</time>
      </trkpt>
      <trkpt lat="45.82975" lon="4.71298">
        <ele>293.37393</ele>
        <time>2022-10-02T13:45:55.000Z</time>
      </trkpt>
      <trkpt lat="45.82977" lon="4.71298">
        <ele>293.74147</ele>
        <time>2022-10-02T13:45:56.000Z</time>
      </trkpt>
      <trkpt lat="45.8298" lon="4.71299">
        <ele>294.14262</ele>
        <time>2022-10-02T13:45:57.000Z</time>
      </trkpt>
      <trkpt lat="45.82982" lon="4.71299">
        <ele>294.49352</ele>
        <time>2022-10-02T13:45:58.000Z</time>
      </trkpt>
      <trkpt lat="45.82985" lon="4.71299">
        <ele>294.87792</ele>
        <time>2022-10-02T13:45:59.000Z</time>
      </trkpt>
      <trkpt lat="45.82988" lon="4.71299">
        <ele>295.21359</ele>
        <time>2022-10-02T13:46:00.000Z</time>
      </trkpt>
      <trkpt lat="45.82991" lon="4.71299">
        <ele>295.51052</ele>
        <time>2022-10-02T13:46:01.000Z</time>
      </trkpt>
      <trkpt lat="45.82993" lon="4.71299">
        <ele>295.78549</ele>
        <time>2022-10-02T13:46:02.000Z</time>
      </trkpt>
      <trkpt lat="45.82996" lon="4.713">
        <ele>296.05896</ele>
        <time>2022-10-02T13:46:03.000Z</time>
      </trkpt>
      <trkpt lat="45.82999" lon="4.71301">
        <ele>296.28589</ele>
        <time>2022-10-02T13:46:04.000Z</time>
      </trkpt>
      <trkpt lat="45.83002" lon="4.71301">
        <ele>296.52207</ele>
        <time>2022-10-02T13:46:05.000Z</time>
      </trkpt>
      <trkpt lat="45.83005" lon="4.71301">
        <ele>296.75721</ele>
        <time>2022-10-02T13:46:06.000Z</time>
      </trkpt>
      <trkpt lat="45.83008" lon="4.71301">
        <ele>296.9787</ele>
        <time>2022-10-02T13:46:07.000Z</time>
      </trkpt>
      <trkpt lat="45.83011" lon="4.71302">
        <ele>297.18992</ele>
        <time>2022-10-02T13:46:08.000Z</time>
      </trkpt>
      <trkpt lat="45.83014" lon="4.71302">
        <ele>297.4151</ele>
        <time>2022-10-02T13:46:09.000Z</time>
      </trkpt>
      <trkpt lat="45.83018" lon="4.71302">
        <ele>297.61971</ele>
        <time>2022-10-02T13:46:10.000Z</time>
      </trkpt>
      <trkpt lat="45.83022" lon="4.71302">
        <ele>297.81442</ele>
        <time>2022-10-02T13:46:11.000Z</time>
      </trkpt>
      <trkpt lat="45.83025" lon="4.71303">
        <ele>297.98567</ele>
        <time>2022-10-02T13:46:12.000Z</time>
      </trkpt>
      <trkpt lat="45.83029" lon="4.71303">
        <ele>298.12451</ele>
        <time>2022-10-02T13:46:13.000Z</time>
      </trkpt>
      <trkpt lat="45.83032" lon="4.71303">
        <ele>298.23698</ele>
        <time>2022-10-02T13:46:14.000Z</time>
      </trkpt>
      <trkpt lat="45.83035" lon="4.71304">
        <ele>298.32187</ele>
        <time>2022-10-02T13:46:15.000Z</time>
      </trkpt>
      <trkpt lat="45.83038" lon="4.71305">
        <ele>298.37717</ele>
        <time>2022-10-02T13:46:16.000Z</time>
      </trkpt>
      <trkpt lat="45.83041" lon="4.71306">
        <ele>298.4121</ele>
        <time>2022-10-02T13:46:17.000Z</time>
      </trkpt>
      <trkpt lat="45.83044" lon="4.71306">
        <ele>298.43673</ele>
        <time>2022-10-02T13:46:18.000Z</time>
      </trkpt>
      <trkpt lat="45.83048" lon="4.71307">
        <ele>298.45205</ele>
        <time>2022-10-02T13:46:19.000Z</time>
      </trkpt>
      <trkpt lat="45.83051" lon="4.71308">
        <ele>298.45397</ele>
        <time>2022-10-02T13:46:20.000Z</time>
      </trkpt>
      <trkpt lat="45.83054" lon="4.71308">
        <ele>298.44889</ele>
        <time>2022-10-02T13:46:21.000Z</time>
      </trkpt>
      <trkpt lat="45.83058" lon="4.71308">
        <ele>298.44017</ele>
        <time>2022-10-02T13:46:22.000Z</time>
      </trkpt>
      <trkpt lat="45.83061" lon="4.71308">
        <ele>298.42066</ele>
        <time>2022-10-02T13:46:23.000Z</time>
      </trkpt>
      <trkpt lat="45.83064" lon="4.71308">
        <ele>298.3839</ele>
        <time>2022-10-02T13:46:24.000Z</time>
      </trkpt>
      <trkpt lat="45.83067" lon="4.71308">
        <ele>298.33165</ele>
        <time>2022-10-02T13:46:25.000Z</time>
      </trkpt>
      <trkpt lat="45.8307" lon="4.71309">
        <ele>298.27212</ele>
        <time>2022-10-02T13:46:26.000Z</time>
      </trkpt>
      <trkpt lat="45.83074" lon="4.71309">
        <ele>298.22503</ele>
        <time>2022-10-02T13:46:27.000Z</time>
      </trkpt>
      <trkpt lat="45.83077" lon="4.71309">
        <ele>298.20035</ele>
        <time>2022-10-02T13:46:28.000Z</time>
      </trkpt>
      <trkpt lat="45.8308" lon="4.7131">
        <ele>298.20229</ele>
        <time>2022-10-02T13:46:29.000Z</time>
      </trkpt>
      <trkpt lat="45.83084" lon="4.71311">
        <ele>298.23342</ele>
        <time>2022-10-02T13:46:30.000Z</time>
      </trkpt>
      <trkpt lat="45.83087" lon="4.71311">
        <ele>298.27521</ele>
        <time>2022-10-02T13:46:31.000Z</time>
      </trkpt>
      <trkpt lat="45.8309" lon="4.71312">
        <ele>298.33886</ele>
        <time>2022-10-02T13:46:32.000Z</time>
      </trkpt>
      <trkpt lat="45.83093" lon="4.71312">
        <ele>298.40276</ele>
        <time>2022-10-02T13:46:33.000Z</time>
      </trkpt>
      <trkpt lat="45.83097" lon="4.71313">
        <ele>298.4442</ele>
        <time>2022-10-02T13:46:34.000Z</time>
      </trkpt>
      <trkpt lat="45.831" lon="4.71313">
        <ele>298.45132</ele>
        <time>2022-10-02T13:46:35.000Z</time>
      </trkpt>
      <trkpt lat="45.83103" lon="4.71314">
        <ele>298.40241</ele>
        <time>2022-10-02T13:46:36.000Z</time>
      </trkpt>
      <trkpt lat="45.83107" lon="4.71314">
        <ele>298.29829</ele>
        <time>2022-10-02T13:46:37.000Z</time>
      </trkpt>
      <trkpt lat="45.83111" lon="4.71315">
        <ele>298.17109</ele>
        <time>2022-10-02T13:46:38.000Z</time>
      </trkpt>
      <trkpt lat="45.83115" lon="4.71315">
        <ele>298.02511</ele>
        <time>2022-10-02T13:46:39.000Z</time>
      </trkpt>
      <trkpt lat="45.83119" lon="4.71316">
        <ele>297.89473</ele>
        <time>2022-10-02T13:46:40.000Z</time>
      </trkpt>
      <trkpt lat="45.83123" lon="4.71317">
        <ele>297.80031</ele>
        <time>2022-10-02T13:46:41.000Z</time>
      </trkpt>
      <trkpt lat="45.83128" lon="4.71319">
        <ele>297.75341</ele>
        <time>2022-10-02T13:46:42.000Z</time>
      </trkpt>
      <trkpt lat="45.83132" lon="4.71321">
        <ele>297.69848</ele>
        <time>2022-10-02T13:46:43.000Z</time>
      </trkpt>
      <trkpt lat="45.83136" lon="4.71328">
        <ele>297.39121</ele>
        <time>2022-10-02T13:46:44.000Z</time>
      </trkpt>
      <trkpt lat="45.83138" lon="4.71332">
        <ele>297.15886</ele>
        <time>2022-10-02T13:46:45.000Z</time>
      </trkpt>
      <trkpt lat="45.83141" lon="4.71336">
        <ele>296.98467</ele>
        <time>2022-10-02T13:46:46.000Z</time>
      </trkpt>
      <trkpt lat="45.83144" lon="4.71341">
        <ele>296.76429</ele>
        <time>2022-10-02T13:46:47.000Z</time>
      </trkpt>
      <trkpt lat="45.83148" lon="4.71347">
        <ele>296.48784</ele>
        <time>2022-10-02T13:46:48.000Z</time>
      </trkpt>
      <trkpt lat="45.8315" lon="4.71352">
        <ele>296.26823</ele>
        <time>2022-10-02T13:46:49.000Z</time>
      </trkpt>
      <trkpt lat="45.83153" lon="4.71357">
        <ele>296.09942</ele>
        <time>2022-10-02T13:46:50.000Z</time>
      </trkpt>
      <trkpt lat="45.83155" lon="4.71361">
        <ele>296.02094</ele>
        <time>2022-10-02T13:46:51.000Z</time>
      </trkpt>
      <trkpt lat="45.83158" lon="4.71366">
        <ele>295.84853</ele>
        <time>2022-10-02T13:46:52.000Z</time>
      </trkpt>
      <trkpt lat="45.83163" lon="4.7137">
        <ele>295.78886</ele>
        <time>2022-10-02T13:46:53.000Z</time>
      </trkpt>
      <trkpt lat="45.83167" lon="4.71375">
        <ele>295.6827</ele>
        <time>2022-10-02T13:46:54.000Z</time>
      </trkpt>
      <trkpt lat="45.83173" lon="4.71379">
        <ele>295.62836</ele>
        <time>2022-10-02T13:46:55.000Z</time>
      </trkpt>
      <trkpt lat="45.83178" lon="4.71379">
        <ele>295.67672</ele>
        <time>2022-10-02T13:46:56.000Z</time>
      </trkpt>
      <trkpt lat="45.83185" lon="4.71378">
        <ele>295.71842</ele>
        <time>2022-10-02T13:46:57.000Z</time>
      </trkpt>
      <trkpt lat="45.83191" lon="4.71379">
        <ele>295.62451</ele>
        <time>2022-10-02T13:46:58.000Z</time>
      </trkpt>
      <trkpt lat="45.83196" lon="4.7138">
        <ele>295.45656</ele>
        <time>2022-10-02T13:46:59.000Z</time>
      </trkpt>
      <trkpt lat="45.832" lon="4.7138">
        <ele>295.28858</ele>
        <time>2022-10-02T13:47:00.000Z</time>
      </trkpt>
      <trkpt lat="45.83204" lon="4.71379">
        <ele>295.10461</ele>
        <time>2022-10-02T13:47:01.000Z</time>
      </trkpt>
      <trkpt lat="45.83206" lon="4.71379">
        <ele>295.00064</ele>
        <time>2022-10-02T13:47:02.000Z</time>
      </trkpt>
      <trkpt lat="45.83208" lon="4.71379">
        <ele>294.91186</ele>
        <time>2022-10-02T13:47:03.000Z</time>
      </trkpt>
      <trkpt lat="45.8321" lon="4.71377">
        <ele>294.81425</ele>
        <time>2022-10-02T13:47:04.000Z</time>
      </trkpt>
      <trkpt lat="45.83212" lon="4.71375">
        <ele>294.78366</ele>
        <time>2022-10-02T13:47:05.000Z</time>
      </trkpt>
      <trkpt lat="45.8321" lon="4.71371">
        <ele>294.99148</ele>
        <time>2022-10-02T13:47:07.000Z</time>
      </trkpt>
      <trkpt lat="45.8321" lon="4.71367">
        <ele>295.08645</ele>
        <time>2022-10-02T13:47:08.000Z</time>
      </trkpt>
      <trkpt lat="45.83209" lon="4.71365">
        <ele>295.24454</ele>
        <time>2022-10-02T13:47:10.000Z</time>
      </trkpt>
      <trkpt lat="45.83206" lon="4.71363">
        <ele>295.4473</ele>
        <time>2022-10-02T13:47:12.000Z</time>
      </trkpt>
      <trkpt lat="45.83203" lon="4.7136">
        <ele>295.66698</ele>
        <time>2022-10-02T13:47:14.000Z</time>
      </trkpt>
      <trkpt lat="45.83202" lon="4.71357">
        <ele>295.81372</ele>
        <time>2022-10-02T13:47:15.000Z</time>
      </trkpt>
      <trkpt lat="45.83202" lon="4.71353">
        <ele>295.96443</ele>
        <time>2022-10-02T13:47:16.000Z</time>
      </trkpt>
      <trkpt lat="45.83201" lon="4.71349">
        <ele>296.1363</ele>
        <time>2022-10-02T13:47:17.000Z</time>
      </trkpt>
      <trkpt lat="45.83201" lon="4.71345">
        <ele>296.30645</ele>
        <time>2022-10-02T13:47:18.000Z</time>
      </trkpt>
      <trkpt lat="45.832" lon="4.71342">
        <ele>296.4678</ele>
        <time>2022-10-02T13:47:19.000Z</time>
      </trkpt>
      <trkpt lat="45.832" lon="4.71338">
        <ele>296.65257</ele>
        <time>2022-10-02T13:47:20.000Z</time>
      </trkpt>
      <trkpt lat="45.832" lon="4.71333">
        <ele>296.89836</ele>
        <time>2022-10-02T13:47:21.000Z</time>
      </trkpt>
      <trkpt lat="45.832" lon="4.71329">
        <ele>297.12051</ele>
        <time>2022-10-02T13:47:22.000Z</time>
      </trkpt>
      <trkpt lat="45.83202" lon="4.71325">
        <ele>297.3636</ele>
        <time>2022-10-02T13:47:23.000Z</time>
      </trkpt>
      <trkpt lat="45.83202" lon="4.7132">
        <ele>297.61736</ele>
        <time>2022-10-02T13:47:24.000Z</time>
      </trkpt>
      <trkpt lat="45.83203" lon="4.71316">
        <ele>297.85595</ele>
        <time>2022-10-02T13:47:25.000Z</time>
      </trkpt>
      <trkpt lat="45.83203" lon="4.71311">
        <ele>298.08477</ele>
        <time>2022-10-02T13:47:26.000Z</time>
      </trkpt>
      <trkpt lat="45.83204" lon="4.71308">
        <ele>298.26063</ele>
        <time>2022-10-02T13:47:27.000Z</time>
      </trkpt>
      <trkpt lat="45.83204" lon="4.71304">
        <ele>298.4004</ele>
        <time>2022-10-02T13:47:28.000Z</time>
      </trkpt>
      <trkpt lat="45.83204" lon="4.71301">
        <ele>298.52922</ele>
        <time>2022-10-02T13:47:29.000Z</time>
      </trkpt>
      <trkpt lat="45.83205" lon="4.71297">
        <ele>298.65882</ele>
        <time>2022-10-02T13:47:30.000Z</time>
      </trkpt>
      <trkpt lat="45.83206" lon="4.71294">
        <ele>298.78593</ele>
        <time>2022-10-02T13:47:31.000Z</time>
      </trkpt>
      <trkpt lat="45.83206" lon="4.7129">
        <ele>298.91503</ele>
        <time>2022-10-02T13:47:32.000Z</time>
      </trkpt>
      <trkpt lat="45.83207" lon="4.71287">
        <ele>299.03866</ele>
        <time>2022-10-02T13:47:33.000Z</time>
      </trkpt>
      <trkpt lat="45.83207" lon="4.71283">
        <ele>299.18274</ele>
        <time>2022-10-02T13:47:34.000Z</time>
      </trkpt>
      <trkpt lat="45.83208" lon="4.71278">
        <ele>299.36001</ele>
        <time>2022-10-02T13:47:35.000Z</time>
      </trkpt>
      <trkpt lat="45.83208" lon="4.71274">
        <ele>299.52724</ele>
        <time>2022-10-02T13:47:36.000Z</time>
      </trkpt>
      <trkpt lat="45.83208" lon="4.7127">
        <ele>299.67351</ele>
        <time>2022-10-02T13:47:37.000Z</time>
      </trkpt>
      <trkpt lat="45.83208" lon="4.71267">
        <ele>299.81902</ele>
        <time>2022-10-02T13:47:38.000Z</time>
      </trkpt>
      <trkpt lat="45.83207" lon="4.71262">
        <ele>300.00225</ele>
        <time>2022-10-02T13:47:39.000Z</time>
      </trkpt>
      <trkpt lat="45.83205" lon="4.71258">
        <ele>300.18671</ele>
        <time>2022-10-02T13:47:40.000Z</time>
      </trkpt>
      <trkpt lat="45.83203" lon="4.71254">
        <ele>300.36442</ele>
        <time>2022-10-02T13:47:41.000Z</time>
      </trkpt>
      <trkpt lat="45.83201" lon="4.7125">
        <ele>300.54816</ele>
        <time>2022-10-02T13:47:42.000Z</time>
      </trkpt>
      <trkpt lat="45.83198" lon="4.71246">
        <ele>300.72269</ele>
        <time>2022-10-02T13:47:43.000Z</time>
      </trkpt>
      <trkpt lat="45.83196" lon="4.71243">
        <ele>300.86995</ele>
        <time>2022-10-02T13:47:44.000Z</time>
      </trkpt>
      <trkpt lat="45.83194" lon="4.7124">
        <ele>301.02269</ele>
        <time>2022-10-02T13:47:45.000Z</time>
      </trkpt>
      <trkpt lat="45.83192" lon="4.71236">
        <ele>301.19476</ele>
        <time>2022-10-02T13:47:46.000Z</time>
      </trkpt>
      <trkpt lat="45.8319" lon="4.71232">
        <ele>301.40031</ele>
        <time>2022-10-02T13:47:47.000Z</time>
      </trkpt>
      <trkpt lat="45.83187" lon="4.71228">
        <ele>301.58556</ele>
        <time>2022-10-02T13:47:48.000Z</time>
      </trkpt>
      <trkpt lat="45.83185" lon="4.71225">
        <ele>301.75413</ele>
        <time>2022-10-02T13:47:49.000Z</time>
      </trkpt>
      <trkpt lat="45.83183" lon="4.71221">
        <ele>301.91069</ele>
        <time>2022-10-02T13:47:50.000Z</time>
      </trkpt>
      <trkpt lat="45.83181" lon="4.71218">
        <ele>302.05997</ele>
        <time>2022-10-02T13:47:51.000Z</time>
      </trkpt>
      <trkpt lat="45.83179" lon="4.71215">
        <ele>302.19137</ele>
        <time>2022-10-02T13:47:52.000Z</time>
      </trkpt>
      <trkpt lat="45.83177" lon="4.71212">
        <ele>302.3129</ele>
        <time>2022-10-02T13:47:53.000Z</time>
      </trkpt>
      <trkpt lat="45.83174" lon="4.71209">
        <ele>302.42814</ele>
        <time>2022-10-02T13:47:54.000Z</time>
      </trkpt>
      <trkpt lat="45.83171" lon="4.71206">
        <ele>302.55081</ele>
        <time>2022-10-02T13:47:55.000Z</time>
      </trkpt>
      <trkpt lat="45.83169" lon="4.71203">
        <ele>302.68376</ele>
        <time>2022-10-02T13:47:56.000Z</time>
      </trkpt>
      <trkpt lat="45.83167" lon="4.712">
        <ele>302.81758</ele>
        <time>2022-10-02T13:47:57.000Z</time>
      </trkpt>
      <trkpt lat="45.83166" lon="4.71196">
        <ele>302.97558</ele>
        <time>2022-10-02T13:47:58.000Z</time>
      </trkpt>
      <trkpt lat="45.83165" lon="4.71192">
        <ele>303.13244</ele>
        <time>2022-10-02T13:47:59.000Z</time>
      </trkpt>
      <trkpt lat="45.83164" lon="4.71188">
        <ele>303.28219</ele>
        <time>2022-10-02T13:48:00.000Z</time>
      </trkpt>
      <trkpt lat="45.83164" lon="4.71183">
        <ele>303.42915</ele>
        <time>2022-10-02T13:48:01.000Z</time>
      </trkpt>
      <trkpt lat="45.83163" lon="4.71179">
        <ele>303.55901</ele>
        <time>2022-10-02T13:48:02.000Z</time>
      </trkpt>
      <trkpt lat="45.83163" lon="4.71174">
        <ele>303.67969</ele>
        <time>2022-10-02T13:48:03.000Z</time>
      </trkpt>
      <trkpt lat="45.83163" lon="4.71169">
        <ele>303.77392</ele>
        <time>2022-10-02T13:48:04.000Z</time>
      </trkpt>
      <trkpt lat="45.83162" lon="4.71164">
        <ele>303.84813</ele>
        <time>2022-10-02T13:48:05.000Z</time>
      </trkpt>
      <trkpt lat="45.83162" lon="4.7116">
        <ele>303.9051</ele>
        <time>2022-10-02T13:48:06.000Z</time>
      </trkpt>
      <trkpt lat="45.83162" lon="4.71155">
        <ele>303.96139</ele>
        <time>2022-10-02T13:48:07.000Z</time>
      </trkpt>
      <trkpt lat="45.83162" lon="4.71151">
        <ele>304.02027</ele>
        <time>2022-10-02T13:48:08.000Z</time>
      </trkpt>
      <trkpt lat="45.83161" lon="4.71147">
        <ele>304.09402</ele>
        <time>2022-10-02T13:48:09.000Z</time>
      </trkpt>
      <trkpt lat="45.8316" lon="4.71142">
        <ele>304.18697</ele>
        <time>2022-10-02T13:48:10.000Z</time>
      </trkpt>
      <trkpt lat="45.83159" lon="4.71138">
        <ele>304.28391</ele>
        <time>2022-10-02T13:48:11.000Z</time>
      </trkpt>
      <trkpt lat="45.83157" lon="4.71133">
        <ele>304.39883</ele>
        <time>2022-10-02T13:48:12.000Z</time>
      </trkpt>
      <trkpt lat="45.83156" lon="4.71129">
        <ele>304.51481</ele>
        <time>2022-10-02T13:48:13.000Z</time>
      </trkpt>
      <trkpt lat="45.83155" lon="4.71125">
        <ele>304.63004</ele>
        <time>2022-10-02T13:48:14.000Z</time>
      </trkpt>
      <trkpt lat="45.83154" lon="4.71121">
        <ele>304.73562</ele>
        <time>2022-10-02T13:48:15.000Z</time>
      </trkpt>
      <trkpt lat="45.83153" lon="4.71118">
        <ele>304.83553</ele>
        <time>2022-10-02T13:48:16.000Z</time>
      </trkpt>
      <trkpt lat="45.83152" lon="4.71115">
        <ele>304.93208</ele>
        <time>2022-10-02T13:48:17.000Z</time>
      </trkpt>
      <trkpt lat="45.83151" lon="4.71112">
        <ele>305.02615</ele>
        <time>2022-10-02T13:48:18.000Z</time>
      </trkpt>
      <trkpt lat="45.8315" lon="4.71107">
        <ele>305.17561</ele>
        <time>2022-10-02T13:48:19.000Z</time>
      </trkpt>
      <trkpt lat="45.83149" lon="4.71102">
        <ele>305.3461</ele>
        <time>2022-10-02T13:48:20.000Z</time>
      </trkpt>
      <trkpt lat="45.83148" lon="4.71097">
        <ele>305.51086</ele>
        <time>2022-10-02T13:48:21.000Z</time>
      </trkpt>
      <trkpt lat="45.83147" lon="4.71092">
        <ele>305.68376</ele>
        <time>2022-10-02T13:48:22.000Z</time>
      </trkpt>
      <trkpt lat="45.83147" lon="4.71087">
        <ele>305.86571</ele>
        <time>2022-10-02T13:48:23.000Z</time>
      </trkpt>
      <trkpt lat="45.83146" lon="4.71081">
        <ele>306.05895</ele>
        <time>2022-10-02T13:48:24.000Z</time>
      </trkpt>
      <trkpt lat="45.83145" lon="4.71075">
        <ele>306.26122</ele>
        <time>2022-10-02T13:48:25.000Z</time>
      </trkpt>
      <trkpt lat="45.83144" lon="4.71069">
        <ele>306.4482</ele>
        <time>2022-10-02T13:48:26.000Z</time>
      </trkpt>
      <trkpt lat="45.83143" lon="4.71063">
        <ele>306.62663</ele>
        <time>2022-10-02T13:48:27.000Z</time>
      </trkpt>
      <trkpt lat="45.83142" lon="4.71058">
        <ele>306.80473</ele>
        <time>2022-10-02T13:48:28.000Z</time>
      </trkpt>
      <trkpt lat="45.83141" lon="4.71053">
        <ele>306.97286</ele>
        <time>2022-10-02T13:48:29.000Z</time>
      </trkpt>
      <trkpt lat="45.8314" lon="4.71049">
        <ele>307.14413</ele>
        <time>2022-10-02T13:48:30.000Z</time>
      </trkpt>
      <trkpt lat="45.83139" lon="4.71044">
        <ele>307.3202</ele>
        <time>2022-10-02T13:48:31.000Z</time>
      </trkpt>
      <trkpt lat="45.83139" lon="4.71039">
        <ele>307.48456</ele>
        <time>2022-10-02T13:48:32.000Z</time>
      </trkpt>
      <trkpt lat="45.83137" lon="4.71035">
        <ele>307.68802</ele>
        <time>2022-10-02T13:48:33.000Z</time>
      </trkpt>
      <trkpt lat="45.83136" lon="4.71029">
        <ele>307.93455</ele>
        <time>2022-10-02T13:48:34.000Z</time>
      </trkpt>
      <trkpt lat="45.83135" lon="4.71023">
        <ele>308.17603</ele>
        <time>2022-10-02T13:48:35.000Z</time>
      </trkpt>
      <trkpt lat="45.83134" lon="4.71019">
        <ele>308.36102</ele>
        <time>2022-10-02T13:48:36.000Z</time>
      </trkpt>
      <trkpt lat="45.83132" lon="4.71014">
        <ele>308.53539</ele>
        <time>2022-10-02T13:48:37.000Z</time>
      </trkpt>
      <trkpt lat="45.83131" lon="4.71009">
        <ele>308.73002</ele>
        <time>2022-10-02T13:48:38.000Z</time>
      </trkpt>
      <trkpt lat="45.83129" lon="4.71003">
        <ele>308.91074</ele>
        <time>2022-10-02T13:48:39.000Z</time>
      </trkpt>
      <trkpt lat="45.83127" lon="4.70997">
        <ele>309.05791</ele>
        <time>2022-10-02T13:48:40.000Z</time>
      </trkpt>
      <trkpt lat="45.83126" lon="4.70991">
        <ele>309.19426</ele>
        <time>2022-10-02T13:48:41.000Z</time>
      </trkpt>
      <trkpt lat="45.83125" lon="4.70986">
        <ele>309.31558</ele>
        <time>2022-10-02T13:48:42.000Z</time>
      </trkpt>
      <trkpt lat="45.83124" lon="4.70981">
        <ele>309.43698</ele>
        <time>2022-10-02T13:48:43.000Z</time>
      </trkpt>
      <trkpt lat="45.83123" lon="4.70977">
        <ele>309.5405</ele>
        <time>2022-10-02T13:48:44.000Z</time>
      </trkpt>
      <trkpt lat="45.83122" lon="4.70973">
        <ele>309.63964</ele>
        <time>2022-10-02T13:48:45.000Z</time>
      </trkpt>
      <trkpt lat="45.83121" lon="4.70969">
        <ele>309.75042</ele>
        <time>2022-10-02T13:48:46.000Z</time>
      </trkpt>
      <trkpt lat="45.83121" lon="4.70964">
        <ele>309.86364</ele>
        <time>2022-10-02T13:48:47.000Z</time>
      </trkpt>
      <trkpt lat="45.83121" lon="4.7096">
        <ele>309.95246</ele>
        <time>2022-10-02T13:48:48.000Z</time>
      </trkpt>
      <trkpt lat="45.83123" lon="4.70956">
        <ele>310.00257</ele>
        <time>2022-10-02T13:48:49.000Z</time>
      </trkpt>
      <trkpt lat="45.83126" lon="4.70954">
        <ele>310.0086</ele>
        <time>2022-10-02T13:48:50.000Z</time>
      </trkpt>
      <trkpt lat="45.83129" lon="4.70951">
        <ele>309.9973</ele>
        <time>2022-10-02T13:48:51.000Z</time>
      </trkpt>
      <trkpt lat="45.83133" lon="4.70949">
        <ele>309.97877</ele>
        <time>2022-10-02T13:48:52.000Z</time>
      </trkpt>
      <trkpt lat="45.83136" lon="4.70947">
        <ele>309.9537</ele>
        <time>2022-10-02T13:48:53.000Z</time>
      </trkpt>
      <trkpt lat="45.83139" lon="4.70945">
        <ele>309.92113</ele>
        <time>2022-10-02T13:48:54.000Z</time>
      </trkpt>
      <trkpt lat="45.83142" lon="4.70943">
        <ele>309.90776</ele>
        <time>2022-10-02T13:48:55.000Z</time>
      </trkpt>
      <trkpt lat="45.83145" lon="4.70941">
        <ele>309.92044</ele>
        <time>2022-10-02T13:48:56.000Z</time>
      </trkpt>
      <trkpt lat="45.83148" lon="4.70938">
        <ele>309.94302</ele>
        <time>2022-10-02T13:48:57.000Z</time>
      </trkpt>
      <trkpt lat="45.83151" lon="4.70935">
        <ele>309.97658</ele>
        <time>2022-10-02T13:48:58.000Z</time>
      </trkpt>
      <trkpt lat="45.83155" lon="4.70933">
        <ele>310.02456</ele>
        <time>2022-10-02T13:48:59.000Z</time>
      </trkpt>
      <trkpt lat="45.83158" lon="4.70931">
        <ele>310.08666</ele>
        <time>2022-10-02T13:49:00.000Z</time>
      </trkpt>
      <trkpt lat="45.83161" lon="4.70929">
        <ele>310.16117</ele>
        <time>2022-10-02T13:49:01.000Z</time>
      </trkpt>
      <trkpt lat="45.83165" lon="4.70927">
        <ele>310.22093</ele>
        <time>2022-10-02T13:49:02.000Z</time>
      </trkpt>
      <trkpt lat="45.83168" lon="4.70925">
        <ele>310.25114</ele>
        <time>2022-10-02T13:49:03.000Z</time>
      </trkpt>
      <trkpt lat="45.83171" lon="4.70923">
        <ele>310.24087</ele>
        <time>2022-10-02T13:49:04.000Z</time>
      </trkpt>
      <trkpt lat="45.83174" lon="4.70921">
        <ele>310.18881</ele>
        <time>2022-10-02T13:49:05.000Z</time>
      </trkpt>
      <trkpt lat="45.83178" lon="4.70919">
        <ele>310.07408</ele>
        <time>2022-10-02T13:49:06.000Z</time>
      </trkpt>
      <trkpt lat="45.83181" lon="4.70917">
        <ele>309.90181</ele>
        <time>2022-10-02T13:49:07.000Z</time>
      </trkpt>
      <trkpt lat="45.83184" lon="4.70916">
        <ele>309.70418</ele>
        <time>2022-10-02T13:49:08.000Z</time>
      </trkpt>
      <trkpt lat="45.83187" lon="4.70916">
        <ele>309.49837</ele>
        <time>2022-10-02T13:49:09.000Z</time>
      </trkpt>
      <trkpt lat="45.8319" lon="4.70918">
        <ele>309.33797</ele>
        <time>2022-10-02T13:49:10.000Z</time>
      </trkpt>
      <trkpt lat="45.83192" lon="4.70921">
        <ele>309.19598</ele>
        <time>2022-10-02T13:49:11.000Z</time>
      </trkpt>
      <trkpt lat="45.83193" lon="4.70926">
        <ele>309.07713</ele>
        <time>2022-10-02T13:49:12.000Z</time>
      </trkpt>
      <trkpt lat="45.83195" lon="4.70931">
        <ele>308.98381</ele>
        <time>2022-10-02T13:49:13.000Z</time>
      </trkpt>
      <trkpt lat="45.83197" lon="4.70936">
        <ele>308.91626</ele>
        <time>2022-10-02T13:49:14.000Z</time>
      </trkpt>
      <trkpt lat="45.83198" lon="4.7094">
        <ele>308.85343</ele>
        <time>2022-10-02T13:49:15.000Z</time>
      </trkpt>
      <trkpt lat="45.832" lon="4.70945">
        <ele>308.75662</ele>
        <time>2022-10-02T13:49:16.000Z</time>
      </trkpt>
      <trkpt lat="45.83202" lon="4.70949">
        <ele>308.61079</ele>
        <time>2022-10-02T13:49:17.000Z</time>
      </trkpt>
      <trkpt lat="45.83204" lon="4.70954">
        <ele>308.40064</ele>
        <time>2022-10-02T13:49:18.000Z</time>
      </trkpt>
      <trkpt lat="45.83207" lon="4.70959">
        <ele>308.17504</ele>
        <time>2022-10-02T13:49:19.000Z</time>
      </trkpt>
      <trkpt lat="45.83209" lon="4.70964">
        <ele>307.98575</ele>
        <time>2022-10-02T13:49:20.000Z</time>
      </trkpt>
      <trkpt lat="45.83212" lon="4.70969">
        <ele>307.83452</ele>
        <time>2022-10-02T13:49:21.000Z</time>
      </trkpt>
      <trkpt lat="45.83214" lon="4.70973">
        <ele>307.74002</ele>
        <time>2022-10-02T13:49:22.000Z</time>
      </trkpt>
      <trkpt lat="45.83218" lon="4.70979">
        <ele>307.68058</ele>
        <time>2022-10-02T13:49:23.000Z</time>
      </trkpt>
      <trkpt lat="45.83221" lon="4.70984">
        <ele>307.60236</ele>
        <time>2022-10-02T13:49:24.000Z</time>
      </trkpt>
      <trkpt lat="45.83223" lon="4.7099">
        <ele>307.45714</ele>
        <time>2022-10-02T13:49:25.000Z</time>
      </trkpt>
      <trkpt lat="45.83226" lon="4.70995">
        <ele>307.26303</ele>
        <time>2022-10-02T13:49:26.000Z</time>
      </trkpt>
      <trkpt lat="45.83228" lon="4.71">
        <ele>307.00412</ele>
        <time>2022-10-02T13:49:27.000Z</time>
      </trkpt>
      <trkpt lat="45.83231" lon="4.71007">
        <ele>306.70201</ele>
        <time>2022-10-02T13:49:28.000Z</time>
      </trkpt>
      <trkpt lat="45.83232" lon="4.71013">
        <ele>306.4828</ele>
        <time>2022-10-02T13:49:29.000Z</time>
      </trkpt>
      <trkpt lat="45.83235" lon="4.71018">
        <ele>306.21327</ele>
        <time>2022-10-02T13:49:30.000Z</time>
      </trkpt>
      <trkpt lat="45.83238" lon="4.71023">
        <ele>305.97769</ele>
        <time>2022-10-02T13:49:31.000Z</time>
      </trkpt>
      <trkpt lat="45.83241" lon="4.71029">
        <ele>305.88225</ele>
        <time>2022-10-02T13:49:32.000Z</time>
      </trkpt>
      <trkpt lat="45.83245" lon="4.71035">
        <ele>305.7773</ele>
        <time>2022-10-02T13:49:33.000Z</time>
      </trkpt>
      <trkpt lat="45.83246" lon="4.71042">
        <ele>305.67467</ele>
        <time>2022-10-02T13:49:34.000Z</time>
      </trkpt>
      <trkpt lat="45.83249" lon="4.71046">
        <ele>305.44646</ele>
        <time>2022-10-02T13:49:35.000Z</time>
      </trkpt>
      <trkpt lat="45.83251" lon="4.7105">
        <ele>305.20763</ele>
        <time>2022-10-02T13:49:36.000Z</time>
      </trkpt>
      <trkpt lat="45.83251" lon="4.71052">
        <ele>305.07534</ele>
        <time>2022-10-02T13:49:37.000Z</time>
      </trkpt>
      <trkpt lat="45.83256" lon="4.71054">
        <ele>304.6237</ele>
        <time>2022-10-02T13:49:38.000Z</time>
      </trkpt>
      <trkpt lat="45.83257" lon="4.71057">
        <ele>304.42867</ele>
        <time>2022-10-02T13:49:39.000Z</time>
      </trkpt>
      <trkpt lat="45.83259" lon="4.71062">
        <ele>304.29032</ele>
        <time>2022-10-02T13:49:40.000Z</time>
      </trkpt>
      <trkpt lat="45.83262" lon="4.71062">
        <ele>304.09649</ele>
        <time>2022-10-02T13:49:41.000Z</time>
      </trkpt>
      <trkpt lat="45.83265" lon="4.71063">
        <ele>304.01866</ele>
        <time>2022-10-02T13:49:42.000Z</time>
      </trkpt>
      <trkpt lat="45.83268" lon="4.71061">
        <ele>303.95578</ele>
        <time>2022-10-02T13:49:43.000Z</time>
      </trkpt>
      <trkpt lat="45.83272" lon="4.71058">
        <ele>304.01132</ele>
        <time>2022-10-02T13:49:44.000Z</time>
      </trkpt>
      <trkpt lat="45.83275" lon="4.71054">
        <ele>304.16516</ele>
        <time>2022-10-02T13:49:45.000Z</time>
      </trkpt>
      <trkpt lat="45.83279" lon="4.71049">
        <ele>304.45251</ele>
        <time>2022-10-02T13:49:46.000Z</time>
      </trkpt>
      <trkpt lat="45.83282" lon="4.71043">
        <ele>304.76351</ele>
        <time>2022-10-02T13:49:47.000Z</time>
      </trkpt>
      <trkpt lat="45.83283" lon="4.71038">
        <ele>305.03932</ele>
        <time>2022-10-02T13:49:48.000Z</time>
      </trkpt>
      <trkpt lat="45.83286" lon="4.71037">
        <ele>305.07301</ele>
        <time>2022-10-02T13:49:49.000Z</time>
      </trkpt>
      <trkpt lat="45.83289" lon="4.71031">
        <ele>305.22687</ele>
        <time>2022-10-02T13:49:50.000Z</time>
      </trkpt>
      <trkpt lat="45.83292" lon="4.71025">
        <ele>305.34448</ele>
        <time>2022-10-02T13:49:51.000Z</time>
      </trkpt>
      <trkpt lat="45.83294" lon="4.7102">
        <ele>305.38554</ele>
        <time>2022-10-02T13:49:52.000Z</time>
      </trkpt>
      <trkpt lat="45.83297" lon="4.71013">
        <ele>305.42136</ele>
        <time>2022-10-02T13:49:53.000Z</time>
      </trkpt>
      <trkpt lat="45.833" lon="4.71005">
        <ele>305.3974</ele>
        <time>2022-10-02T13:49:54.000Z</time>
      </trkpt>
      <trkpt lat="45.83303" lon="4.71001">
        <ele>305.26156</ele>
        <time>2022-10-02T13:49:55.000Z</time>
      </trkpt>
      <trkpt lat="45.83305" lon="4.70993">
        <ele>305.26786</ele>
        <time>2022-10-02T13:49:56.000Z</time>
      </trkpt>
      <trkpt lat="45.83306" lon="4.70986">
        <ele>305.40391</ele>
        <time>2022-10-02T13:49:57.000Z</time>
      </trkpt>
      <trkpt lat="45.83309" lon="4.70979">
        <ele>305.52117</ele>
        <time>2022-10-02T13:49:58.000Z</time>
      </trkpt>
      <trkpt lat="45.8331" lon="4.70973">
        <ele>305.74668</ele>
        <time>2022-10-02T13:49:59.000Z</time>
      </trkpt>
      <trkpt lat="45.83311" lon="4.70967">
        <ele>305.93622</ele>
        <time>2022-10-02T13:50:00.000Z</time>
      </trkpt>
      <trkpt lat="45.83312" lon="4.70962">
        <ele>306.11542</ele>
        <time>2022-10-02T13:50:01.000Z</time>
      </trkpt>
      <trkpt lat="45.83313" lon="4.70957">
        <ele>306.26152</ele>
        <time>2022-10-02T13:50:02.000Z</time>
      </trkpt>
      <trkpt lat="45.83314" lon="4.70952">
        <ele>306.38323</ele>
        <time>2022-10-02T13:50:03.000Z</time>
      </trkpt>
      <trkpt lat="45.83315" lon="4.70947">
        <ele>306.4623</ele>
        <time>2022-10-02T13:50:04.000Z</time>
      </trkpt>
      <trkpt lat="45.83317" lon="4.70941">
        <ele>306.52384</ele>
        <time>2022-10-02T13:50:05.000Z</time>
      </trkpt>
      <trkpt lat="45.83318" lon="4.70936">
        <ele>306.60392</ele>
        <time>2022-10-02T13:50:06.000Z</time>
      </trkpt>
      <trkpt lat="45.83318" lon="4.70931">
        <ele>306.71945</ele>
        <time>2022-10-02T13:50:07.000Z</time>
      </trkpt>
      <trkpt lat="45.83319" lon="4.70926">
        <ele>306.77739</ele>
        <time>2022-10-02T13:50:08.000Z</time>
      </trkpt>
      <trkpt lat="45.8332" lon="4.70921">
        <ele>306.80409</ele>
        <time>2022-10-02T13:50:09.000Z</time>
      </trkpt>
      <trkpt lat="45.83322" lon="4.70916">
        <ele>306.80779</ele>
        <time>2022-10-02T13:50:10.000Z</time>
      </trkpt>
      <trkpt lat="45.83323" lon="4.70911">
        <ele>306.78865</ele>
        <time>2022-10-02T13:50:11.000Z</time>
      </trkpt>
      <trkpt lat="45.83324" lon="4.70907">
        <ele>306.78126</ele>
        <time>2022-10-02T13:50:12.000Z</time>
      </trkpt>
      <trkpt lat="45.83325" lon="4.70903">
        <ele>306.78282</ele>
        <time>2022-10-02T13:50:13.000Z</time>
      </trkpt>
      <trkpt lat="45.83326" lon="4.709">
        <ele>306.78206</ele>
        <time>2022-10-02T13:50:14.000Z</time>
      </trkpt>
      <trkpt lat="45.83326" lon="4.70896">
        <ele>306.80698</ele>
        <time>2022-10-02T13:50:15.000Z</time>
      </trkpt>
      <trkpt lat="45.83326" lon="4.70893">
        <ele>306.88302</ele>
        <time>2022-10-02T13:50:16.000Z</time>
      </trkpt>
      <trkpt lat="45.83326" lon="4.7089">
        <ele>306.95333</ele>
        <time>2022-10-02T13:50:17.000Z</time>
      </trkpt>
    </trkseg>
  </trk>
</gpx>